<?xml version="1.0" encoding="UTF-8" standalone="no" ?>
<gpx xmlns="http://www.topografix.com/GPX/1/1" xmlns:xsi="http://www.w3.org/2001/XMLSchema-instance" xsi:schemaLocation="http://www.topografix.com/GPX/1/1 http://www.topografix.com/GPX/1/1/gpx.xsd" version="1.1" creator="VisuGPX - https://www.visugpx.com">
  <metadata>
    <name>21-12-31</name>
    <desc><![CDATA[Àguila]]></desc>
  </metadata>
  <trk>
    <name><![CDATA[21-12-31]]></name>
    <trkseg>
      <trkpt lat="45.61842" lon="6.277">
        <ele>423.39999389648</ele>
        <time>2021-12-31T08:46:03.000Z</time>
      </trkpt>
      <trkpt lat="45.61844" lon="6.27701">
        <ele>423.79998779297</ele>
        <time>2021-12-31T08:46:18.000Z</time>
      </trkpt>
      <trkpt lat="45.61848" lon="6.27698">
        <ele>424.20001220703</ele>
        <time>2021-12-31T08:46:41.000Z</time>
      </trkpt>
      <trkpt lat="45.61848" lon="6.27696">
        <ele>424.20001220703</ele>
        <time>2021-12-31T08:46:43.000Z</time>
      </trkpt>
      <trkpt lat="45.61848" lon="6.27692">
        <ele>424.39999389648</ele>
        <time>2021-12-31T08:46:47.000Z</time>
      </trkpt>
      <trkpt lat="45.61849" lon="6.27689">
        <ele>425</ele>
        <time>2021-12-31T08:46:50.000Z</time>
      </trkpt>
      <trkpt lat="45.61847" lon="6.27687">
        <ele>425.39999389648</ele>
        <time>2021-12-31T08:46:53.000Z</time>
      </trkpt>
      <trkpt lat="45.61846" lon="6.27686">
        <ele>426.20001220703</ele>
        <time>2021-12-31T08:46:56.000Z</time>
      </trkpt>
      <trkpt lat="45.61845" lon="6.27686">
        <ele>426.60000610352</ele>
        <time>2021-12-31T08:46:59.000Z</time>
      </trkpt>
      <trkpt lat="45.61845" lon="6.27686">
        <ele>426.79998779297</ele>
        <time>2021-12-31T08:47:02.000Z</time>
      </trkpt>
      <trkpt lat="45.61842" lon="6.27686">
        <ele>426.79998779297</ele>
        <time>2021-12-31T08:47:08.000Z</time>
      </trkpt>
      <trkpt lat="45.61828" lon="6.27692">
        <ele>426.60000610352</ele>
        <time>2021-12-31T08:47:12.000Z</time>
      </trkpt>
      <trkpt lat="45.61815" lon="6.27697">
        <ele>426</ele>
        <time>2021-12-31T08:47:15.000Z</time>
      </trkpt>
      <trkpt lat="45.61804" lon="6.27701">
        <ele>425.60000610352</ele>
        <time>2021-12-31T08:47:17.000Z</time>
      </trkpt>
      <trkpt lat="45.61799" lon="6.27703">
        <ele>425.60000610352</ele>
        <time>2021-12-31T08:47:18.000Z</time>
      </trkpt>
      <trkpt lat="45.61787" lon="6.27706">
        <ele>425</ele>
        <time>2021-12-31T08:47:20.000Z</time>
      </trkpt>
      <trkpt lat="45.61782" lon="6.27708">
        <ele>424.60000610352</ele>
        <time>2021-12-31T08:47:21.000Z</time>
      </trkpt>
      <trkpt lat="45.61777" lon="6.27712">
        <ele>424.39999389648</ele>
        <time>2021-12-31T08:47:22.000Z</time>
      </trkpt>
      <trkpt lat="45.61774" lon="6.27717">
        <ele>424</ele>
        <time>2021-12-31T08:47:23.000Z</time>
      </trkpt>
      <trkpt lat="45.6177" lon="6.27731">
        <ele>423.20001220703</ele>
        <time>2021-12-31T08:47:25.000Z</time>
      </trkpt>
      <trkpt lat="45.61766" lon="6.27745">
        <ele>422.20001220703</ele>
        <time>2021-12-31T08:47:27.000Z</time>
      </trkpt>
      <trkpt lat="45.6176" lon="6.27768">
        <ele>420.60000610352</ele>
        <time>2021-12-31T08:47:30.000Z</time>
      </trkpt>
      <trkpt lat="45.61757" lon="6.27776">
        <ele>420.20001220703</ele>
        <time>2021-12-31T08:47:31.000Z</time>
      </trkpt>
      <trkpt lat="45.61752" lon="6.27791">
        <ele>419.20001220703</ele>
        <time>2021-12-31T08:47:33.000Z</time>
      </trkpt>
      <trkpt lat="45.61742" lon="6.27815">
        <ele>417.79998779297</ele>
        <time>2021-12-31T08:47:36.000Z</time>
      </trkpt>
      <trkpt lat="45.61731" lon="6.27836">
        <ele>416</ele>
        <time>2021-12-31T08:47:39.000Z</time>
      </trkpt>
      <trkpt lat="45.61726" lon="6.27842">
        <ele>415.39999389648</ele>
        <time>2021-12-31T08:47:40.000Z</time>
      </trkpt>
      <trkpt lat="45.61715" lon="6.27851">
        <ele>415</ele>
        <time>2021-12-31T08:47:42.000Z</time>
      </trkpt>
      <trkpt lat="45.6171" lon="6.27854">
        <ele>414.79998779297</ele>
        <time>2021-12-31T08:47:43.000Z</time>
      </trkpt>
      <trkpt lat="45.61699" lon="6.27861">
        <ele>414.60000610352</ele>
        <time>2021-12-31T08:47:45.000Z</time>
      </trkpt>
      <trkpt lat="45.61694" lon="6.27863">
        <ele>414.39999389648</ele>
        <time>2021-12-31T08:47:46.000Z</time>
      </trkpt>
      <trkpt lat="45.61678" lon="6.27872">
        <ele>414.20001220703</ele>
        <time>2021-12-31T08:47:49.000Z</time>
      </trkpt>
      <trkpt lat="45.61673" lon="6.27875">
        <ele>414.20001220703</ele>
        <time>2021-12-31T08:47:50.000Z</time>
      </trkpt>
      <trkpt lat="45.61653" lon="6.2789">
        <ele>414</ele>
        <time>2021-12-31T08:47:54.000Z</time>
      </trkpt>
      <trkpt lat="45.61639" lon="6.27895">
        <ele>414</ele>
        <time>2021-12-31T08:47:57.000Z</time>
      </trkpt>
      <trkpt lat="45.61634" lon="6.27897">
        <ele>414</ele>
        <time>2021-12-31T08:47:58.000Z</time>
      </trkpt>
      <trkpt lat="45.61628" lon="6.279">
        <ele>414</ele>
        <time>2021-12-31T08:47:59.000Z</time>
      </trkpt>
      <trkpt lat="45.6161" lon="6.2791">
        <ele>413.60000610352</ele>
        <time>2021-12-31T08:48:03.000Z</time>
      </trkpt>
      <trkpt lat="45.61602" lon="6.27912">
        <ele>412.79998779297</ele>
        <time>2021-12-31T08:48:06.000Z</time>
      </trkpt>
      <trkpt lat="45.616" lon="6.27913">
        <ele>412.60000610352</ele>
        <time>2021-12-31T08:48:07.000Z</time>
      </trkpt>
      <trkpt lat="45.616" lon="6.27913">
        <ele>412.20001220703</ele>
        <time>2021-12-31T08:48:09.000Z</time>
      </trkpt>
      <trkpt lat="45.616" lon="6.27913">
        <ele>412.20001220703</ele>
        <time>2021-12-31T08:48:10.000Z</time>
      </trkpt>
      <trkpt lat="45.616" lon="6.27913">
        <ele>411.60000610352</ele>
        <time>2021-12-31T08:48:15.000Z</time>
      </trkpt>
      <trkpt lat="45.616" lon="6.27913">
        <ele>411.60000610352</ele>
        <time>2021-12-31T08:48:17.000Z</time>
      </trkpt>
      <trkpt lat="45.616" lon="6.27913">
        <ele>411.20001220703</ele>
        <time>2021-12-31T08:48:22.000Z</time>
      </trkpt>
      <trkpt lat="45.616" lon="6.27913">
        <ele>411</ele>
        <time>2021-12-31T08:48:25.000Z</time>
      </trkpt>
      <trkpt lat="45.61601" lon="6.27914">
        <ele>410.79998779297</ele>
        <time>2021-12-31T08:48:30.000Z</time>
      </trkpt>
      <trkpt lat="45.61602" lon="6.27916">
        <ele>410.79998779297</ele>
        <time>2021-12-31T08:48:32.000Z</time>
      </trkpt>
      <trkpt lat="45.61608" lon="6.27915">
        <ele>410.79998779297</ele>
        <time>2021-12-31T08:48:35.000Z</time>
      </trkpt>
      <trkpt lat="45.61621" lon="6.27904">
        <ele>411.39999389648</ele>
        <time>2021-12-31T08:48:40.000Z</time>
      </trkpt>
      <trkpt lat="45.61641" lon="6.27894">
        <ele>412</ele>
        <time>2021-12-31T08:48:46.000Z</time>
      </trkpt>
      <trkpt lat="45.6165" lon="6.2789">
        <ele>412.20001220703</ele>
        <time>2021-12-31T08:48:48.000Z</time>
      </trkpt>
      <trkpt lat="45.61659" lon="6.27883">
        <ele>412.39999389648</ele>
        <time>2021-12-31T08:48:50.000Z</time>
      </trkpt>
      <trkpt lat="45.61664" lon="6.27879">
        <ele>412.39999389648</ele>
        <time>2021-12-31T08:48:51.000Z</time>
      </trkpt>
      <trkpt lat="45.61667" lon="6.27873">
        <ele>412.39999389648</ele>
        <time>2021-12-31T08:48:52.000Z</time>
      </trkpt>
      <trkpt lat="45.61669" lon="6.27859">
        <ele>412.39999389648</ele>
        <time>2021-12-31T08:48:54.000Z</time>
      </trkpt>
      <trkpt lat="45.61669" lon="6.27828">
        <ele>412.20001220703</ele>
        <time>2021-12-31T08:48:58.000Z</time>
      </trkpt>
      <trkpt lat="45.61666" lon="6.2782">
        <ele>412</ele>
        <time>2021-12-31T08:48:59.000Z</time>
      </trkpt>
      <trkpt lat="45.61663" lon="6.27813">
        <ele>411.79998779297</ele>
        <time>2021-12-31T08:49:00.000Z</time>
      </trkpt>
      <trkpt lat="45.61659" lon="6.27806">
        <ele>411.79998779297</ele>
        <time>2021-12-31T08:49:01.000Z</time>
      </trkpt>
      <trkpt lat="45.61655" lon="6.278">
        <ele>411.60000610352</ele>
        <time>2021-12-31T08:49:02.000Z</time>
      </trkpt>
      <trkpt lat="45.61649" lon="6.27795">
        <ele>411.39999389648</ele>
        <time>2021-12-31T08:49:03.000Z</time>
      </trkpt>
      <trkpt lat="45.61635" lon="6.27788">
        <ele>411</ele>
        <time>2021-12-31T08:49:05.000Z</time>
      </trkpt>
      <trkpt lat="45.61621" lon="6.27779">
        <ele>410.39999389648</ele>
        <time>2021-12-31T08:49:07.000Z</time>
      </trkpt>
      <trkpt lat="45.61606" lon="6.27769">
        <ele>409.39999389648</ele>
        <time>2021-12-31T08:49:09.000Z</time>
      </trkpt>
      <trkpt lat="45.61582" lon="6.27753">
        <ele>408.39999389648</ele>
        <time>2021-12-31T08:49:12.000Z</time>
      </trkpt>
      <trkpt lat="45.61573" lon="6.27747">
        <ele>407.79998779297</ele>
        <time>2021-12-31T08:49:13.000Z</time>
      </trkpt>
      <trkpt lat="45.61548" lon="6.27732">
        <ele>406.60000610352</ele>
        <time>2021-12-31T08:49:16.000Z</time>
      </trkpt>
      <trkpt lat="45.61522" lon="6.27713">
        <ele>405</ele>
        <time>2021-12-31T08:49:19.000Z</time>
      </trkpt>
      <trkpt lat="45.61496" lon="6.27695">
        <ele>403.60000610352</ele>
        <time>2021-12-31T08:49:22.000Z</time>
      </trkpt>
      <trkpt lat="45.61469" lon="6.27677">
        <ele>402.20001220703</ele>
        <time>2021-12-31T08:49:25.000Z</time>
      </trkpt>
      <trkpt lat="45.6146" lon="6.27672">
        <ele>402</ele>
        <time>2021-12-31T08:49:26.000Z</time>
      </trkpt>
      <trkpt lat="45.61442" lon="6.27661">
        <ele>401</ele>
        <time>2021-12-31T08:49:28.000Z</time>
      </trkpt>
      <trkpt lat="45.61417" lon="6.27642">
        <ele>399.79998779297</ele>
        <time>2021-12-31T08:49:31.000Z</time>
      </trkpt>
      <trkpt lat="45.614" lon="6.2763">
        <ele>398.39999389648</ele>
        <time>2021-12-31T08:49:33.000Z</time>
      </trkpt>
      <trkpt lat="45.61383" lon="6.2762">
        <ele>397.39999389648</ele>
        <time>2021-12-31T08:49:35.000Z</time>
      </trkpt>
      <trkpt lat="45.61369" lon="6.27611">
        <ele>395.79998779297</ele>
        <time>2021-12-31T08:49:37.000Z</time>
      </trkpt>
      <trkpt lat="45.61362" lon="6.27607">
        <ele>395.60000610352</ele>
        <time>2021-12-31T08:49:38.000Z</time>
      </trkpt>
      <trkpt lat="45.61351" lon="6.27599">
        <ele>394.60000610352</ele>
        <time>2021-12-31T08:49:40.000Z</time>
      </trkpt>
      <trkpt lat="45.6134" lon="6.27592">
        <ele>393.79998779297</ele>
        <time>2021-12-31T08:49:42.000Z</time>
      </trkpt>
      <trkpt lat="45.61335" lon="6.27588">
        <ele>393.20001220703</ele>
        <time>2021-12-31T08:49:43.000Z</time>
      </trkpt>
      <trkpt lat="45.61324" lon="6.27578">
        <ele>392</ele>
        <time>2021-12-31T08:49:45.000Z</time>
      </trkpt>
      <trkpt lat="45.61312" lon="6.27567">
        <ele>391.39999389648</ele>
        <time>2021-12-31T08:49:47.000Z</time>
      </trkpt>
      <trkpt lat="45.61306" lon="6.27562">
        <ele>390.79998779297</ele>
        <time>2021-12-31T08:49:48.000Z</time>
      </trkpt>
      <trkpt lat="45.61289" lon="6.27542">
        <ele>390</ele>
        <time>2021-12-31T08:49:51.000Z</time>
      </trkpt>
      <trkpt lat="45.61284" lon="6.27535">
        <ele>389.79998779297</ele>
        <time>2021-12-31T08:49:52.000Z</time>
      </trkpt>
      <trkpt lat="45.61279" lon="6.27528">
        <ele>389.60000610352</ele>
        <time>2021-12-31T08:49:53.000Z</time>
      </trkpt>
      <trkpt lat="45.61256" lon="6.27501">
        <ele>388.79998779297</ele>
        <time>2021-12-31T08:49:57.000Z</time>
      </trkpt>
      <trkpt lat="45.61221" lon="6.27469">
        <ele>388.79998779297</ele>
        <time>2021-12-31T08:50:03.000Z</time>
      </trkpt>
      <trkpt lat="45.6121" lon="6.27459">
        <ele>388.79998779297</ele>
        <time>2021-12-31T08:50:05.000Z</time>
      </trkpt>
      <trkpt lat="45.61183" lon="6.27427">
        <ele>389.20001220703</ele>
        <time>2021-12-31T08:50:11.000Z</time>
      </trkpt>
      <trkpt lat="45.61172" lon="6.27413">
        <ele>389.60000610352</ele>
        <time>2021-12-31T08:50:14.000Z</time>
      </trkpt>
      <trkpt lat="45.61163" lon="6.27399">
        <ele>390.39999389648</ele>
        <time>2021-12-31T08:50:17.000Z</time>
      </trkpt>
      <trkpt lat="45.61153" lon="6.27386">
        <ele>390.79998779297</ele>
        <time>2021-12-31T08:50:20.000Z</time>
      </trkpt>
      <trkpt lat="45.61138" lon="6.27365">
        <ele>391.60000610352</ele>
        <time>2021-12-31T08:50:25.000Z</time>
      </trkpt>
      <trkpt lat="45.61132" lon="6.27357">
        <ele>392</ele>
        <time>2021-12-31T08:50:27.000Z</time>
      </trkpt>
      <trkpt lat="45.61129" lon="6.27352">
        <ele>392.20001220703</ele>
        <time>2021-12-31T08:50:28.000Z</time>
      </trkpt>
      <trkpt lat="45.61115" lon="6.27322">
        <ele>393</ele>
        <time>2021-12-31T08:50:34.000Z</time>
      </trkpt>
      <trkpt lat="45.61111" lon="6.2731">
        <ele>393</ele>
        <time>2021-12-31T08:50:36.000Z</time>
      </trkpt>
      <trkpt lat="45.61099" lon="6.27276">
        <ele>393.60000610352</ele>
        <time>2021-12-31T08:50:42.000Z</time>
      </trkpt>
      <trkpt lat="45.61093" lon="6.27259">
        <ele>393.79998779297</ele>
        <time>2021-12-31T08:50:45.000Z</time>
      </trkpt>
      <trkpt lat="45.61086" lon="6.27236">
        <ele>394.20001220703</ele>
        <time>2021-12-31T08:50:49.000Z</time>
      </trkpt>
      <trkpt lat="45.61074" lon="6.27201">
        <ele>394.79998779297</ele>
        <time>2021-12-31T08:50:55.000Z</time>
      </trkpt>
      <trkpt lat="45.6107" lon="6.2719">
        <ele>395</ele>
        <time>2021-12-31T08:50:57.000Z</time>
      </trkpt>
      <trkpt lat="45.61068" lon="6.27184">
        <ele>395.20001220703</ele>
        <time>2021-12-31T08:50:58.000Z</time>
      </trkpt>
      <trkpt lat="45.61059" lon="6.27156">
        <ele>396.39999389648</ele>
        <time>2021-12-31T08:51:03.000Z</time>
      </trkpt>
      <trkpt lat="45.61056" lon="6.27145">
        <ele>396.79998779297</ele>
        <time>2021-12-31T08:51:05.000Z</time>
      </trkpt>
      <trkpt lat="45.61052" lon="6.27129">
        <ele>397.60000610352</ele>
        <time>2021-12-31T08:51:08.000Z</time>
      </trkpt>
      <trkpt lat="45.61044" lon="6.27103">
        <ele>398.39999389648</ele>
        <time>2021-12-31T08:51:13.000Z</time>
      </trkpt>
      <trkpt lat="45.61043" lon="6.27098">
        <ele>398.60000610352</ele>
        <time>2021-12-31T08:51:14.000Z</time>
      </trkpt>
      <trkpt lat="45.61035" lon="6.27074">
        <ele>399.60000610352</ele>
        <time>2021-12-31T08:51:19.000Z</time>
      </trkpt>
      <trkpt lat="45.6103" lon="6.27063">
        <ele>400.20001220703</ele>
        <time>2021-12-31T08:51:21.000Z</time>
      </trkpt>
      <trkpt lat="45.61013" lon="6.2703">
        <ele>400.20001220703</ele>
        <time>2021-12-31T08:51:27.000Z</time>
      </trkpt>
      <trkpt lat="45.61007" lon="6.27019">
        <ele>400.20001220703</ele>
        <time>2021-12-31T08:51:29.000Z</time>
      </trkpt>
      <trkpt lat="45.60988" lon="6.26978">
        <ele>400</ele>
        <time>2021-12-31T08:51:36.000Z</time>
      </trkpt>
      <trkpt lat="45.60976" lon="6.26948">
        <ele>399.79998779297</ele>
        <time>2021-12-31T08:51:41.000Z</time>
      </trkpt>
      <trkpt lat="45.60972" lon="6.26935">
        <ele>399.79998779297</ele>
        <time>2021-12-31T08:51:43.000Z</time>
      </trkpt>
      <trkpt lat="45.60966" lon="6.26916">
        <ele>399.79998779297</ele>
        <time>2021-12-31T08:51:46.000Z</time>
      </trkpt>
      <trkpt lat="45.60949" lon="6.2687">
        <ele>400.20001220703</ele>
        <time>2021-12-31T08:51:54.000Z</time>
      </trkpt>
      <trkpt lat="45.60941" lon="6.26849">
        <ele>400.60000610352</ele>
        <time>2021-12-31T08:51:58.000Z</time>
      </trkpt>
      <trkpt lat="45.6093" lon="6.26826">
        <ele>401.39999389648</ele>
        <time>2021-12-31T08:52:03.000Z</time>
      </trkpt>
      <trkpt lat="45.60927" lon="6.26821">
        <ele>401.60000610352</ele>
        <time>2021-12-31T08:52:04.000Z</time>
      </trkpt>
      <trkpt lat="45.60925" lon="6.26817">
        <ele>401.79998779297</ele>
        <time>2021-12-31T08:52:05.000Z</time>
      </trkpt>
      <trkpt lat="45.60913" lon="6.26795">
        <ele>402.79998779297</ele>
        <time>2021-12-31T08:52:10.000Z</time>
      </trkpt>
      <trkpt lat="45.60905" lon="6.26782">
        <ele>403.20001220703</ele>
        <time>2021-12-31T08:52:13.000Z</time>
      </trkpt>
      <trkpt lat="45.60892" lon="6.2676">
        <ele>403.79998779297</ele>
        <time>2021-12-31T08:52:18.000Z</time>
      </trkpt>
      <trkpt lat="45.60877" lon="6.26733">
        <ele>404.79998779297</ele>
        <time>2021-12-31T08:52:24.000Z</time>
      </trkpt>
      <trkpt lat="45.60875" lon="6.26729">
        <ele>404.79998779297</ele>
        <time>2021-12-31T08:52:25.000Z</time>
      </trkpt>
      <trkpt lat="45.60873" lon="6.26724">
        <ele>405</ele>
        <time>2021-12-31T08:52:26.000Z</time>
      </trkpt>
      <trkpt lat="45.60854" lon="6.26688">
        <ele>406</ele>
        <time>2021-12-31T08:52:34.000Z</time>
      </trkpt>
      <trkpt lat="45.60841" lon="6.26658">
        <ele>407</ele>
        <time>2021-12-31T08:52:40.000Z</time>
      </trkpt>
      <trkpt lat="45.60837" lon="6.26648">
        <ele>407.39999389648</ele>
        <time>2021-12-31T08:52:42.000Z</time>
      </trkpt>
      <trkpt lat="45.60829" lon="6.26629">
        <ele>408</ele>
        <time>2021-12-31T08:52:46.000Z</time>
      </trkpt>
      <trkpt lat="45.60827" lon="6.26624">
        <ele>408.20001220703</ele>
        <time>2021-12-31T08:52:47.000Z</time>
      </trkpt>
      <trkpt lat="45.60819" lon="6.26604">
        <ele>409</ele>
        <time>2021-12-31T08:52:51.000Z</time>
      </trkpt>
      <trkpt lat="45.60817" lon="6.266">
        <ele>409.20001220703</ele>
        <time>2021-12-31T08:52:52.000Z</time>
      </trkpt>
      <trkpt lat="45.60805" lon="6.26569">
        <ele>410.20001220703</ele>
        <time>2021-12-31T08:52:58.000Z</time>
      </trkpt>
      <trkpt lat="45.60803" lon="6.26564">
        <ele>410.39999389648</ele>
        <time>2021-12-31T08:52:59.000Z</time>
      </trkpt>
      <trkpt lat="45.60797" lon="6.26547">
        <ele>411.20001220703</ele>
        <time>2021-12-31T08:53:03.000Z</time>
      </trkpt>
      <trkpt lat="45.60789" lon="6.26528">
        <ele>411.79998779297</ele>
        <time>2021-12-31T08:53:07.000Z</time>
      </trkpt>
      <trkpt lat="45.60785" lon="6.2652">
        <ele>412.39999389648</ele>
        <time>2021-12-31T08:53:09.000Z</time>
      </trkpt>
      <trkpt lat="45.60775" lon="6.26504">
        <ele>413.79998779297</ele>
        <time>2021-12-31T08:53:13.000Z</time>
      </trkpt>
      <trkpt lat="45.60769" lon="6.26497">
        <ele>414.20001220703</ele>
        <time>2021-12-31T08:53:15.000Z</time>
      </trkpt>
      <trkpt lat="45.60761" lon="6.26486">
        <ele>414.79998779297</ele>
        <time>2021-12-31T08:53:18.000Z</time>
      </trkpt>
      <trkpt lat="45.60748" lon="6.26465">
        <ele>416</ele>
        <time>2021-12-31T08:53:23.000Z</time>
      </trkpt>
      <trkpt lat="45.60722" lon="6.26417">
        <ele>417</ele>
        <time>2021-12-31T08:53:32.000Z</time>
      </trkpt>
      <trkpt lat="45.60692" lon="6.26364">
        <ele>416.20001220703</ele>
        <time>2021-12-31T08:53:40.000Z</time>
      </trkpt>
      <trkpt lat="45.60672" lon="6.26315">
        <ele>414.79998779297</ele>
        <time>2021-12-31T08:53:46.000Z</time>
      </trkpt>
      <trkpt lat="45.60653" lon="6.2627">
        <ele>413.60000610352</ele>
        <time>2021-12-31T08:53:51.000Z</time>
      </trkpt>
      <trkpt lat="45.60644" lon="6.26251">
        <ele>412.79998779297</ele>
        <time>2021-12-31T08:53:53.000Z</time>
      </trkpt>
      <trkpt lat="45.6064" lon="6.26241">
        <ele>412.60000610352</ele>
        <time>2021-12-31T08:53:54.000Z</time>
      </trkpt>
      <trkpt lat="45.60636" lon="6.26232">
        <ele>411.79998779297</ele>
        <time>2021-12-31T08:53:55.000Z</time>
      </trkpt>
      <trkpt lat="45.60623" lon="6.262">
        <ele>410.60000610352</ele>
        <time>2021-12-31T08:53:58.000Z</time>
      </trkpt>
      <trkpt lat="45.60618" lon="6.26189">
        <ele>410.20001220703</ele>
        <time>2021-12-31T08:53:59.000Z</time>
      </trkpt>
      <trkpt lat="45.60614" lon="6.26177">
        <ele>409.39999389648</ele>
        <time>2021-12-31T08:54:00.000Z</time>
      </trkpt>
      <trkpt lat="45.60603" lon="6.26154">
        <ele>408.39999389648</ele>
        <time>2021-12-31T08:54:02.000Z</time>
      </trkpt>
      <trkpt lat="45.60586" lon="6.26121">
        <ele>406.60000610352</ele>
        <time>2021-12-31T08:54:05.000Z</time>
      </trkpt>
      <trkpt lat="45.60574" lon="6.26099">
        <ele>405.39999389648</ele>
        <time>2021-12-31T08:54:07.000Z</time>
      </trkpt>
      <trkpt lat="45.60562" lon="6.26077">
        <ele>404</ele>
        <time>2021-12-31T08:54:09.000Z</time>
      </trkpt>
      <trkpt lat="45.60548" lon="6.26057">
        <ele>402.39999389648</ele>
        <time>2021-12-31T08:54:11.000Z</time>
      </trkpt>
      <trkpt lat="45.60535" lon="6.26036">
        <ele>400.60000610352</ele>
        <time>2021-12-31T08:54:13.000Z</time>
      </trkpt>
      <trkpt lat="45.60524" lon="6.26014">
        <ele>399.39999389648</ele>
        <time>2021-12-31T08:54:15.000Z</time>
      </trkpt>
      <trkpt lat="45.60518" lon="6.26003">
        <ele>399</ele>
        <time>2021-12-31T08:54:16.000Z</time>
      </trkpt>
      <trkpt lat="45.60513" lon="6.25992">
        <ele>398</ele>
        <time>2021-12-31T08:54:17.000Z</time>
      </trkpt>
      <trkpt lat="45.60505" lon="6.25972">
        <ele>396.60000610352</ele>
        <time>2021-12-31T08:54:19.000Z</time>
      </trkpt>
      <trkpt lat="45.60502" lon="6.25963">
        <ele>395.60000610352</ele>
        <time>2021-12-31T08:54:20.000Z</time>
      </trkpt>
      <trkpt lat="45.60502" lon="6.25942">
        <ele>394</ele>
        <time>2021-12-31T08:54:22.000Z</time>
      </trkpt>
      <trkpt lat="45.60503" lon="6.25932">
        <ele>393</ele>
        <time>2021-12-31T08:54:23.000Z</time>
      </trkpt>
      <trkpt lat="45.60505" lon="6.25913">
        <ele>391.79998779297</ele>
        <time>2021-12-31T08:54:25.000Z</time>
      </trkpt>
      <trkpt lat="45.60503" lon="6.25904">
        <ele>391.20001220703</ele>
        <time>2021-12-31T08:54:26.000Z</time>
      </trkpt>
      <trkpt lat="45.605" lon="6.25894">
        <ele>390.39999389648</ele>
        <time>2021-12-31T08:54:27.000Z</time>
      </trkpt>
      <trkpt lat="45.60485" lon="6.25866">
        <ele>389.20001220703</ele>
        <time>2021-12-31T08:54:30.000Z</time>
      </trkpt>
      <trkpt lat="45.60481" lon="6.25856">
        <ele>389</ele>
        <time>2021-12-31T08:54:31.000Z</time>
      </trkpt>
      <trkpt lat="45.6047" lon="6.25824">
        <ele>388</ele>
        <time>2021-12-31T08:54:34.000Z</time>
      </trkpt>
      <trkpt lat="45.60461" lon="6.25803">
        <ele>386.60000610352</ele>
        <time>2021-12-31T08:54:36.000Z</time>
      </trkpt>
      <trkpt lat="45.60448" lon="6.25785">
        <ele>384.79998779297</ele>
        <time>2021-12-31T08:54:38.000Z</time>
      </trkpt>
      <trkpt lat="45.60441" lon="6.25777">
        <ele>384.39999389648</ele>
        <time>2021-12-31T08:54:39.000Z</time>
      </trkpt>
      <trkpt lat="45.60433" lon="6.2577">
        <ele>383.60000610352</ele>
        <time>2021-12-31T08:54:40.000Z</time>
      </trkpt>
      <trkpt lat="45.60424" lon="6.25765">
        <ele>383</ele>
        <time>2021-12-31T08:54:41.000Z</time>
      </trkpt>
      <trkpt lat="45.60415" lon="6.25761">
        <ele>382.39999389648</ele>
        <time>2021-12-31T08:54:42.000Z</time>
      </trkpt>
      <trkpt lat="45.60397" lon="6.25755">
        <ele>381</ele>
        <time>2021-12-31T08:54:44.000Z</time>
      </trkpt>
      <trkpt lat="45.60388" lon="6.2575">
        <ele>379.79998779297</ele>
        <time>2021-12-31T08:54:45.000Z</time>
      </trkpt>
      <trkpt lat="45.60379" lon="6.25746">
        <ele>379.20001220703</ele>
        <time>2021-12-31T08:54:46.000Z</time>
      </trkpt>
      <trkpt lat="45.6037" lon="6.2574">
        <ele>378</ele>
        <time>2021-12-31T08:54:47.000Z</time>
      </trkpt>
      <trkpt lat="45.60362" lon="6.25734">
        <ele>376.79998779297</ele>
        <time>2021-12-31T08:54:48.000Z</time>
      </trkpt>
      <trkpt lat="45.60347" lon="6.25722">
        <ele>375.39999389648</ele>
        <time>2021-12-31T08:54:50.000Z</time>
      </trkpt>
      <trkpt lat="45.60341" lon="6.25716">
        <ele>374.79998779297</ele>
        <time>2021-12-31T08:54:51.000Z</time>
      </trkpt>
      <trkpt lat="45.60335" lon="6.2571">
        <ele>374</ele>
        <time>2021-12-31T08:54:52.000Z</time>
      </trkpt>
      <trkpt lat="45.6033" lon="6.25702">
        <ele>372.79998779297</ele>
        <time>2021-12-31T08:54:53.000Z</time>
      </trkpt>
      <trkpt lat="45.60327" lon="6.25694">
        <ele>372</ele>
        <time>2021-12-31T08:54:54.000Z</time>
      </trkpt>
      <trkpt lat="45.60327" lon="6.25685">
        <ele>371</ele>
        <time>2021-12-31T08:54:55.000Z</time>
      </trkpt>
      <trkpt lat="45.60328" lon="6.25678">
        <ele>370.39999389648</ele>
        <time>2021-12-31T08:54:56.000Z</time>
      </trkpt>
      <trkpt lat="45.60329" lon="6.25669">
        <ele>369.60000610352</ele>
        <time>2021-12-31T08:54:57.000Z</time>
      </trkpt>
      <trkpt lat="45.60329" lon="6.25651">
        <ele>368.20001220703</ele>
        <time>2021-12-31T08:54:59.000Z</time>
      </trkpt>
      <trkpt lat="45.60327" lon="6.25643">
        <ele>367.60000610352</ele>
        <time>2021-12-31T08:55:00.000Z</time>
      </trkpt>
      <trkpt lat="45.60324" lon="6.25626">
        <ele>366.79998779297</ele>
        <time>2021-12-31T08:55:02.000Z</time>
      </trkpt>
      <trkpt lat="45.60316" lon="6.25598">
        <ele>365.60000610352</ele>
        <time>2021-12-31T08:55:05.000Z</time>
      </trkpt>
      <trkpt lat="45.60313" lon="6.25589">
        <ele>365.39999389648</ele>
        <time>2021-12-31T08:55:06.000Z</time>
      </trkpt>
      <trkpt lat="45.6031" lon="6.2558">
        <ele>364.39999389648</ele>
        <time>2021-12-31T08:55:07.000Z</time>
      </trkpt>
      <trkpt lat="45.60306" lon="6.25571">
        <ele>363.60000610352</ele>
        <time>2021-12-31T08:55:08.000Z</time>
      </trkpt>
      <trkpt lat="45.60303" lon="6.25562">
        <ele>363</ele>
        <time>2021-12-31T08:55:09.000Z</time>
      </trkpt>
      <trkpt lat="45.60296" lon="6.25545">
        <ele>362.39999389648</ele>
        <time>2021-12-31T08:55:11.000Z</time>
      </trkpt>
      <trkpt lat="45.60293" lon="6.25537">
        <ele>361.60000610352</ele>
        <time>2021-12-31T08:55:12.000Z</time>
      </trkpt>
      <trkpt lat="45.60289" lon="6.25529">
        <ele>361.20001220703</ele>
        <time>2021-12-31T08:55:13.000Z</time>
      </trkpt>
      <trkpt lat="45.60281" lon="6.25517">
        <ele>360</ele>
        <time>2021-12-31T08:55:15.000Z</time>
      </trkpt>
      <trkpt lat="45.60276" lon="6.25512">
        <ele>359.39999389648</ele>
        <time>2021-12-31T08:55:16.000Z</time>
      </trkpt>
      <trkpt lat="45.60271" lon="6.25508">
        <ele>358.39999389648</ele>
        <time>2021-12-31T08:55:17.000Z</time>
      </trkpt>
      <trkpt lat="45.60258" lon="6.25504">
        <ele>357</ele>
        <time>2021-12-31T08:55:19.000Z</time>
      </trkpt>
      <trkpt lat="45.60244" lon="6.25499">
        <ele>355.79998779297</ele>
        <time>2021-12-31T08:55:21.000Z</time>
      </trkpt>
      <trkpt lat="45.60239" lon="6.25494">
        <ele>354.60000610352</ele>
        <time>2021-12-31T08:55:22.000Z</time>
      </trkpt>
      <trkpt lat="45.60233" lon="6.2549">
        <ele>354.39999389648</ele>
        <time>2021-12-31T08:55:23.000Z</time>
      </trkpt>
      <trkpt lat="45.60223" lon="6.25479">
        <ele>353.20001220703</ele>
        <time>2021-12-31T08:55:25.000Z</time>
      </trkpt>
      <trkpt lat="45.60218" lon="6.25471">
        <ele>353</ele>
        <time>2021-12-31T08:55:26.000Z</time>
      </trkpt>
      <trkpt lat="45.60213" lon="6.25465">
        <ele>352</ele>
        <time>2021-12-31T08:55:27.000Z</time>
      </trkpt>
      <trkpt lat="45.6021" lon="6.25459">
        <ele>351.60000610352</ele>
        <time>2021-12-31T08:55:28.000Z</time>
      </trkpt>
      <trkpt lat="45.60202" lon="6.25448">
        <ele>350</ele>
        <time>2021-12-31T08:55:30.000Z</time>
      </trkpt>
      <trkpt lat="45.60196" lon="6.2544">
        <ele>349.20001220703</ele>
        <time>2021-12-31T08:55:32.000Z</time>
      </trkpt>
      <trkpt lat="45.60195" lon="6.25437">
        <ele>348.79998779297</ele>
        <time>2021-12-31T08:55:33.000Z</time>
      </trkpt>
      <trkpt lat="45.60193" lon="6.25433">
        <ele>347.39999389648</ele>
        <time>2021-12-31T08:55:35.000Z</time>
      </trkpt>
      <trkpt lat="45.60193" lon="6.25433">
        <ele>347</ele>
        <time>2021-12-31T08:55:36.000Z</time>
      </trkpt>
      <trkpt lat="45.60192" lon="6.25433">
        <ele>346.39999389648</ele>
        <time>2021-12-31T08:55:38.000Z</time>
      </trkpt>
      <trkpt lat="45.60192" lon="6.25433">
        <ele>345.20001220703</ele>
        <time>2021-12-31T08:55:41.000Z</time>
      </trkpt>
      <trkpt lat="45.60192" lon="6.25433">
        <ele>344.60000610352</ele>
        <time>2021-12-31T08:55:44.000Z</time>
      </trkpt>
      <trkpt lat="45.60192" lon="6.25433">
        <ele>344.60000610352</ele>
        <time>2021-12-31T08:55:49.000Z</time>
      </trkpt>
      <trkpt lat="45.60191" lon="6.25432">
        <ele>344.39999389648</ele>
        <time>2021-12-31T08:56:01.000Z</time>
      </trkpt>
      <trkpt lat="45.60176" lon="6.25411">
        <ele>344.20001220703</ele>
        <time>2021-12-31T08:56:05.000Z</time>
      </trkpt>
      <trkpt lat="45.60164" lon="6.254">
        <ele>344.20001220703</ele>
        <time>2021-12-31T08:56:07.000Z</time>
      </trkpt>
      <trkpt lat="45.60152" lon="6.25394">
        <ele>344.20001220703</ele>
        <time>2021-12-31T08:56:09.000Z</time>
      </trkpt>
      <trkpt lat="45.6014" lon="6.25388">
        <ele>343.79998779297</ele>
        <time>2021-12-31T08:56:11.000Z</time>
      </trkpt>
      <trkpt lat="45.6013" lon="6.2538">
        <ele>343.20001220703</ele>
        <time>2021-12-31T08:56:13.000Z</time>
      </trkpt>
      <trkpt lat="45.60126" lon="6.25373">
        <ele>342.79998779297</ele>
        <time>2021-12-31T08:56:14.000Z</time>
      </trkpt>
      <trkpt lat="45.60122" lon="6.25366">
        <ele>342.39999389648</ele>
        <time>2021-12-31T08:56:15.000Z</time>
      </trkpt>
      <trkpt lat="45.60116" lon="6.2536">
        <ele>342</ele>
        <time>2021-12-31T08:56:16.000Z</time>
      </trkpt>
      <trkpt lat="45.60115" lon="6.25352">
        <ele>341.20001220703</ele>
        <time>2021-12-31T08:56:17.000Z</time>
      </trkpt>
      <trkpt lat="45.60109" lon="6.2534">
        <ele>340.39999389648</ele>
        <time>2021-12-31T08:56:19.000Z</time>
      </trkpt>
      <trkpt lat="45.60106" lon="6.25334">
        <ele>339.79998779297</ele>
        <time>2021-12-31T08:56:20.000Z</time>
      </trkpt>
      <trkpt lat="45.601" lon="6.25329">
        <ele>339.60000610352</ele>
        <time>2021-12-31T08:56:21.000Z</time>
      </trkpt>
      <trkpt lat="45.60088" lon="6.25319">
        <ele>338.60000610352</ele>
        <time>2021-12-31T08:56:23.000Z</time>
      </trkpt>
      <trkpt lat="45.60079" lon="6.25302">
        <ele>337.39999389648</ele>
        <time>2021-12-31T08:56:25.000Z</time>
      </trkpt>
      <trkpt lat="45.60075" lon="6.25284">
        <ele>336.60000610352</ele>
        <time>2021-12-31T08:56:27.000Z</time>
      </trkpt>
      <trkpt lat="45.60073" lon="6.2527">
        <ele>336.20001220703</ele>
        <time>2021-12-31T08:56:28.000Z</time>
      </trkpt>
      <trkpt lat="45.6007" lon="6.25252">
        <ele>335</ele>
        <time>2021-12-31T08:56:30.000Z</time>
      </trkpt>
      <trkpt lat="45.60069" lon="6.25243">
        <ele>334.79998779297</ele>
        <time>2021-12-31T08:56:31.000Z</time>
      </trkpt>
      <trkpt lat="45.60068" lon="6.2523">
        <ele>334.60000610352</ele>
        <time>2021-12-31T08:56:32.000Z</time>
      </trkpt>
      <trkpt lat="45.60065" lon="6.25211">
        <ele>334</ele>
        <time>2021-12-31T08:56:34.000Z</time>
      </trkpt>
      <trkpt lat="45.60063" lon="6.25201">
        <ele>333.60000610352</ele>
        <time>2021-12-31T08:56:35.000Z</time>
      </trkpt>
      <trkpt lat="45.60057" lon="6.25158">
        <ele>332.39999389648</ele>
        <time>2021-12-31T08:56:39.000Z</time>
      </trkpt>
      <trkpt lat="45.6005" lon="6.25125">
        <ele>331.20001220703</ele>
        <time>2021-12-31T08:56:42.000Z</time>
      </trkpt>
      <trkpt lat="45.60047" lon="6.25114">
        <ele>331.20001220703</ele>
        <time>2021-12-31T08:56:43.000Z</time>
      </trkpt>
      <trkpt lat="45.6004" lon="6.25081">
        <ele>330</ele>
        <time>2021-12-31T08:56:46.000Z</time>
      </trkpt>
      <trkpt lat="45.60028" lon="6.25037">
        <ele>329</ele>
        <time>2021-12-31T08:56:50.000Z</time>
      </trkpt>
      <trkpt lat="45.60017" lon="6.25002">
        <ele>328.39999389648</ele>
        <time>2021-12-31T08:56:54.000Z</time>
      </trkpt>
      <trkpt lat="45.59998" lon="6.24957">
        <ele>328.39999389648</ele>
        <time>2021-12-31T08:56:59.000Z</time>
      </trkpt>
      <trkpt lat="45.59984" lon="6.24921">
        <ele>328</ele>
        <time>2021-12-31T08:57:03.000Z</time>
      </trkpt>
      <trkpt lat="45.59975" lon="6.24904">
        <ele>328</ele>
        <time>2021-12-31T08:57:05.000Z</time>
      </trkpt>
      <trkpt lat="45.59948" lon="6.24836">
        <ele>327.79998779297</ele>
        <time>2021-12-31T08:57:13.000Z</time>
      </trkpt>
      <trkpt lat="45.59928" lon="6.24788">
        <ele>327.39999389648</ele>
        <time>2021-12-31T08:57:19.000Z</time>
      </trkpt>
      <trkpt lat="45.59917" lon="6.24765">
        <ele>327.20001220703</ele>
        <time>2021-12-31T08:57:22.000Z</time>
      </trkpt>
      <trkpt lat="45.59895" lon="6.24725">
        <ele>327</ele>
        <time>2021-12-31T08:57:27.000Z</time>
      </trkpt>
      <trkpt lat="45.59886" lon="6.24712">
        <ele>327</ele>
        <time>2021-12-31T08:57:29.000Z</time>
      </trkpt>
      <trkpt lat="45.59862" lon="6.2467">
        <ele>326.39999389648</ele>
        <time>2021-12-31T08:57:34.000Z</time>
      </trkpt>
      <trkpt lat="45.5985" lon="6.24643">
        <ele>325.79998779297</ele>
        <time>2021-12-31T08:57:37.000Z</time>
      </trkpt>
      <trkpt lat="45.59836" lon="6.24605">
        <ele>325</ele>
        <time>2021-12-31T08:57:41.000Z</time>
      </trkpt>
      <trkpt lat="45.59832" lon="6.24595">
        <ele>324.79998779297</ele>
        <time>2021-12-31T08:57:42.000Z</time>
      </trkpt>
      <trkpt lat="45.59819" lon="6.24555">
        <ele>323.60000610352</ele>
        <time>2021-12-31T08:57:46.000Z</time>
      </trkpt>
      <trkpt lat="45.5981" lon="6.24534">
        <ele>323</ele>
        <time>2021-12-31T08:57:48.000Z</time>
      </trkpt>
      <trkpt lat="45.59806" lon="6.24523">
        <ele>322.39999389648</ele>
        <time>2021-12-31T08:57:49.000Z</time>
      </trkpt>
      <trkpt lat="45.59789" lon="6.24495">
        <ele>321.20001220703</ele>
        <time>2021-12-31T08:57:52.000Z</time>
      </trkpt>
      <trkpt lat="45.59784" lon="6.24485">
        <ele>321</ele>
        <time>2021-12-31T08:57:53.000Z</time>
      </trkpt>
      <trkpt lat="45.59771" lon="6.24467">
        <ele>320.20001220703</ele>
        <time>2021-12-31T08:57:55.000Z</time>
      </trkpt>
      <trkpt lat="45.59746" lon="6.24432">
        <ele>318.79998779297</ele>
        <time>2021-12-31T08:57:59.000Z</time>
      </trkpt>
      <trkpt lat="45.59733" lon="6.24414">
        <ele>317.79998779297</ele>
        <time>2021-12-31T08:58:01.000Z</time>
      </trkpt>
      <trkpt lat="45.59709" lon="6.24381">
        <ele>316.39999389648</ele>
        <time>2021-12-31T08:58:05.000Z</time>
      </trkpt>
      <trkpt lat="45.59704" lon="6.24373">
        <ele>316.20001220703</ele>
        <time>2021-12-31T08:58:06.000Z</time>
      </trkpt>
      <trkpt lat="45.59699" lon="6.24365">
        <ele>316</ele>
        <time>2021-12-31T08:58:07.000Z</time>
      </trkpt>
      <trkpt lat="45.59692" lon="6.24349">
        <ele>315.60000610352</ele>
        <time>2021-12-31T08:58:09.000Z</time>
      </trkpt>
      <trkpt lat="45.59688" lon="6.2434">
        <ele>315.39999389648</ele>
        <time>2021-12-31T08:58:10.000Z</time>
      </trkpt>
      <trkpt lat="45.5968" lon="6.24319">
        <ele>315</ele>
        <time>2021-12-31T08:58:12.000Z</time>
      </trkpt>
      <trkpt lat="45.59667" lon="6.24273">
        <ele>314.20001220703</ele>
        <time>2021-12-31T08:58:16.000Z</time>
      </trkpt>
      <trkpt lat="45.59664" lon="6.24261">
        <ele>313.39999389648</ele>
        <time>2021-12-31T08:58:17.000Z</time>
      </trkpt>
      <trkpt lat="45.59657" lon="6.24237">
        <ele>313</ele>
        <time>2021-12-31T08:58:19.000Z</time>
      </trkpt>
      <trkpt lat="45.5965" lon="6.24213">
        <ele>311.60000610352</ele>
        <time>2021-12-31T08:58:21.000Z</time>
      </trkpt>
      <trkpt lat="45.59644" lon="6.24189">
        <ele>310.60000610352</ele>
        <time>2021-12-31T08:58:23.000Z</time>
      </trkpt>
      <trkpt lat="45.59634" lon="6.24153">
        <ele>309.20001220703</ele>
        <time>2021-12-31T08:58:26.000Z</time>
      </trkpt>
      <trkpt lat="45.59624" lon="6.24115">
        <ele>307.39999389648</ele>
        <time>2021-12-31T08:58:29.000Z</time>
      </trkpt>
      <trkpt lat="45.59614" lon="6.24078">
        <ele>306</ele>
        <time>2021-12-31T08:58:32.000Z</time>
      </trkpt>
      <trkpt lat="45.59604" lon="6.24042">
        <ele>304.60000610352</ele>
        <time>2021-12-31T08:58:35.000Z</time>
      </trkpt>
      <trkpt lat="45.596" lon="6.24031">
        <ele>304.39999389648</ele>
        <time>2021-12-31T08:58:36.000Z</time>
      </trkpt>
      <trkpt lat="45.59589" lon="6.24">
        <ele>303</ele>
        <time>2021-12-31T08:58:39.000Z</time>
      </trkpt>
      <trkpt lat="45.59586" lon="6.23991">
        <ele>302.39999389648</ele>
        <time>2021-12-31T08:58:40.000Z</time>
      </trkpt>
      <trkpt lat="45.59579" lon="6.23972">
        <ele>301.60000610352</ele>
        <time>2021-12-31T08:58:42.000Z</time>
      </trkpt>
      <trkpt lat="45.59575" lon="6.23963">
        <ele>301.39999389648</ele>
        <time>2021-12-31T08:58:43.000Z</time>
      </trkpt>
      <trkpt lat="45.59565" lon="6.23947">
        <ele>300.60000610352</ele>
        <time>2021-12-31T08:58:45.000Z</time>
      </trkpt>
      <trkpt lat="45.59554" lon="6.23931">
        <ele>300.20001220703</ele>
        <time>2021-12-31T08:58:47.000Z</time>
      </trkpt>
      <trkpt lat="45.59549" lon="6.23922">
        <ele>300</ele>
        <time>2021-12-31T08:58:48.000Z</time>
      </trkpt>
      <trkpt lat="45.59541" lon="6.23904">
        <ele>299.20001220703</ele>
        <time>2021-12-31T08:58:50.000Z</time>
      </trkpt>
      <trkpt lat="45.5953" lon="6.23874">
        <ele>298.60000610352</ele>
        <time>2021-12-31T08:58:53.000Z</time>
      </trkpt>
      <trkpt lat="45.5952" lon="6.23855">
        <ele>298.20001220703</ele>
        <time>2021-12-31T08:58:55.000Z</time>
      </trkpt>
      <trkpt lat="45.59512" lon="6.23835">
        <ele>297.79998779297</ele>
        <time>2021-12-31T08:58:57.000Z</time>
      </trkpt>
      <trkpt lat="45.59491" lon="6.23787">
        <ele>296.79998779297</ele>
        <time>2021-12-31T08:59:02.000Z</time>
      </trkpt>
      <trkpt lat="45.59482" lon="6.23769">
        <ele>296.39999389648</ele>
        <time>2021-12-31T08:59:04.000Z</time>
      </trkpt>
      <trkpt lat="45.59457" lon="6.23711">
        <ele>296.20001220703</ele>
        <time>2021-12-31T08:59:11.000Z</time>
      </trkpt>
      <trkpt lat="45.59435" lon="6.23658">
        <ele>296.79998779297</ele>
        <time>2021-12-31T08:59:18.000Z</time>
      </trkpt>
      <trkpt lat="45.59415" lon="6.23608">
        <ele>297.79998779297</ele>
        <time>2021-12-31T08:59:25.000Z</time>
      </trkpt>
      <trkpt lat="45.59403" lon="6.2358">
        <ele>298.39999389648</ele>
        <time>2021-12-31T08:59:29.000Z</time>
      </trkpt>
      <trkpt lat="45.59394" lon="6.23559">
        <ele>298.60000610352</ele>
        <time>2021-12-31T08:59:32.000Z</time>
      </trkpt>
      <trkpt lat="45.59385" lon="6.2354">
        <ele>298.79998779297</ele>
        <time>2021-12-31T08:59:35.000Z</time>
      </trkpt>
      <trkpt lat="45.59382" lon="6.23534">
        <ele>298.79998779297</ele>
        <time>2021-12-31T08:59:36.000Z</time>
      </trkpt>
      <trkpt lat="45.59359" lon="6.2349">
        <ele>299.79998779297</ele>
        <time>2021-12-31T08:59:43.000Z</time>
      </trkpt>
      <trkpt lat="45.59353" lon="6.23478">
        <ele>300.20001220703</ele>
        <time>2021-12-31T08:59:45.000Z</time>
      </trkpt>
      <trkpt lat="45.59332" lon="6.23432">
        <ele>300.79998779297</ele>
        <time>2021-12-31T08:59:52.000Z</time>
      </trkpt>
      <trkpt lat="45.5932" lon="6.23406">
        <ele>301</ele>
        <time>2021-12-31T08:59:56.000Z</time>
      </trkpt>
      <trkpt lat="45.59306" lon="6.23369">
        <ele>302</ele>
        <time>2021-12-31T09:00:02.000Z</time>
      </trkpt>
      <trkpt lat="45.59304" lon="6.23363">
        <ele>302.20001220703</ele>
        <time>2021-12-31T09:00:03.000Z</time>
      </trkpt>
      <trkpt lat="45.5929" lon="6.23329">
        <ele>303.39999389648</ele>
        <time>2021-12-31T09:00:09.000Z</time>
      </trkpt>
      <trkpt lat="45.59279" lon="6.23304">
        <ele>303.79998779297</ele>
        <time>2021-12-31T09:00:13.000Z</time>
      </trkpt>
      <trkpt lat="45.59263" lon="6.23266">
        <ele>303.79998779297</ele>
        <time>2021-12-31T09:00:18.000Z</time>
      </trkpt>
      <trkpt lat="45.59236" lon="6.23205">
        <ele>302.79998779297</ele>
        <time>2021-12-31T09:00:26.000Z</time>
      </trkpt>
      <trkpt lat="45.59224" lon="6.23176">
        <ele>302.20001220703</ele>
        <time>2021-12-31T09:00:30.000Z</time>
      </trkpt>
      <trkpt lat="45.5921" lon="6.23142">
        <ele>302.20001220703</ele>
        <time>2021-12-31T09:00:35.000Z</time>
      </trkpt>
      <trkpt lat="45.59207" lon="6.23135">
        <ele>302</ele>
        <time>2021-12-31T09:00:36.000Z</time>
      </trkpt>
      <trkpt lat="45.59198" lon="6.2311">
        <ele>302</ele>
        <time>2021-12-31T09:00:40.000Z</time>
      </trkpt>
      <trkpt lat="45.59192" lon="6.23096">
        <ele>302.20001220703</ele>
        <time>2021-12-31T09:00:42.000Z</time>
      </trkpt>
      <trkpt lat="45.59173" lon="6.2305">
        <ele>302</ele>
        <time>2021-12-31T09:00:48.000Z</time>
      </trkpt>
      <trkpt lat="45.59157" lon="6.23007">
        <ele>300.79998779297</ele>
        <time>2021-12-31T09:00:53.000Z</time>
      </trkpt>
      <trkpt lat="45.5915" lon="6.22989">
        <ele>300.20001220703</ele>
        <time>2021-12-31T09:00:55.000Z</time>
      </trkpt>
      <trkpt lat="45.59143" lon="6.22971">
        <ele>299.79998779297</ele>
        <time>2021-12-31T09:00:57.000Z</time>
      </trkpt>
      <trkpt lat="45.59123" lon="6.22925">
        <ele>299</ele>
        <time>2021-12-31T09:01:02.000Z</time>
      </trkpt>
      <trkpt lat="45.59118" lon="6.22916">
        <ele>298.60000610352</ele>
        <time>2021-12-31T09:01:03.000Z</time>
      </trkpt>
      <trkpt lat="45.59099" lon="6.2288">
        <ele>297.60000610352</ele>
        <time>2021-12-31T09:01:07.000Z</time>
      </trkpt>
      <trkpt lat="45.59085" lon="6.2285">
        <ele>296.60000610352</ele>
        <time>2021-12-31T09:01:10.000Z</time>
      </trkpt>
      <trkpt lat="45.59071" lon="6.22819">
        <ele>295.60000610352</ele>
        <time>2021-12-31T09:01:13.000Z</time>
      </trkpt>
      <trkpt lat="45.59062" lon="6.22797">
        <ele>294.79998779297</ele>
        <time>2021-12-31T09:01:15.000Z</time>
      </trkpt>
      <trkpt lat="45.59053" lon="6.22776">
        <ele>293.79998779297</ele>
        <time>2021-12-31T09:01:17.000Z</time>
      </trkpt>
      <trkpt lat="45.5904" lon="6.22745">
        <ele>292.60000610352</ele>
        <time>2021-12-31T09:01:20.000Z</time>
      </trkpt>
      <trkpt lat="45.59018" lon="6.22694">
        <ele>291.39999389648</ele>
        <time>2021-12-31T09:01:25.000Z</time>
      </trkpt>
      <trkpt lat="45.59" lon="6.22654">
        <ele>290.20001220703</ele>
        <time>2021-12-31T09:01:29.000Z</time>
      </trkpt>
      <trkpt lat="45.58984" lon="6.22627">
        <ele>289</ele>
        <time>2021-12-31T09:01:32.000Z</time>
      </trkpt>
      <trkpt lat="45.5897" lon="6.226">
        <ele>287.79998779297</ele>
        <time>2021-12-31T09:01:35.000Z</time>
      </trkpt>
      <trkpt lat="45.58959" lon="6.2257">
        <ele>287.20001220703</ele>
        <time>2021-12-31T09:01:38.000Z</time>
      </trkpt>
      <trkpt lat="45.5895" lon="6.22539">
        <ele>286.79998779297</ele>
        <time>2021-12-31T09:01:41.000Z</time>
      </trkpt>
      <trkpt lat="45.58943" lon="6.2251">
        <ele>286.39999389648</ele>
        <time>2021-12-31T09:01:44.000Z</time>
      </trkpt>
      <trkpt lat="45.5893" lon="6.22446">
        <ele>285.60000610352</ele>
        <time>2021-12-31T09:01:50.000Z</time>
      </trkpt>
      <trkpt lat="45.58927" lon="6.22424">
        <ele>285</ele>
        <time>2021-12-31T09:01:52.000Z</time>
      </trkpt>
      <trkpt lat="45.58925" lon="6.22414">
        <ele>284.60000610352</ele>
        <time>2021-12-31T09:01:53.000Z</time>
      </trkpt>
      <trkpt lat="45.58914" lon="6.22361">
        <ele>283.60000610352</ele>
        <time>2021-12-31T09:01:58.000Z</time>
      </trkpt>
      <trkpt lat="45.58912" lon="6.22351">
        <ele>283.39999389648</ele>
        <time>2021-12-31T09:01:59.000Z</time>
      </trkpt>
      <trkpt lat="45.58899" lon="6.22296">
        <ele>282.39999389648</ele>
        <time>2021-12-31T09:02:04.000Z</time>
      </trkpt>
      <trkpt lat="45.58893" lon="6.22276">
        <ele>281.60000610352</ele>
        <time>2021-12-31T09:02:06.000Z</time>
      </trkpt>
      <trkpt lat="45.58885" lon="6.22257">
        <ele>281</ele>
        <time>2021-12-31T09:02:08.000Z</time>
      </trkpt>
      <trkpt lat="45.58875" lon="6.2224">
        <ele>280.60000610352</ele>
        <time>2021-12-31T09:02:10.000Z</time>
      </trkpt>
      <trkpt lat="45.58837" lon="6.22177">
        <ele>279.79998779297</ele>
        <time>2021-12-31T09:02:18.000Z</time>
      </trkpt>
      <trkpt lat="45.58832" lon="6.22169">
        <ele>279.79998779297</ele>
        <time>2021-12-31T09:02:19.000Z</time>
      </trkpt>
      <trkpt lat="45.58807" lon="6.22127">
        <ele>279.79998779297</ele>
        <time>2021-12-31T09:02:25.000Z</time>
      </trkpt>
      <trkpt lat="45.58785" lon="6.22087">
        <ele>280.60000610352</ele>
        <time>2021-12-31T09:02:32.000Z</time>
      </trkpt>
      <trkpt lat="45.5878" lon="6.22077">
        <ele>281</ele>
        <time>2021-12-31T09:02:34.000Z</time>
      </trkpt>
      <trkpt lat="45.58774" lon="6.22067">
        <ele>281.60000610352</ele>
        <time>2021-12-31T09:02:36.000Z</time>
      </trkpt>
      <trkpt lat="45.58767" lon="6.22058">
        <ele>281.79998779297</ele>
        <time>2021-12-31T09:02:38.000Z</time>
      </trkpt>
      <trkpt lat="45.58765" lon="6.22053">
        <ele>282.20001220703</ele>
        <time>2021-12-31T09:02:39.000Z</time>
      </trkpt>
      <trkpt lat="45.58759" lon="6.22042">
        <ele>283.20001220703</ele>
        <time>2021-12-31T09:02:42.000Z</time>
      </trkpt>
      <trkpt lat="45.58756" lon="6.22039">
        <ele>283.79998779297</ele>
        <time>2021-12-31T09:02:43.000Z</time>
      </trkpt>
      <trkpt lat="45.58747" lon="6.22021">
        <ele>284.79998779297</ele>
        <time>2021-12-31T09:02:47.000Z</time>
      </trkpt>
      <trkpt lat="45.58745" lon="6.22016">
        <ele>285.20001220703</ele>
        <time>2021-12-31T09:02:48.000Z</time>
      </trkpt>
      <trkpt lat="45.58737" lon="6.21999">
        <ele>285.79998779297</ele>
        <time>2021-12-31T09:02:52.000Z</time>
      </trkpt>
      <trkpt lat="45.58731" lon="6.21991">
        <ele>286.39999389648</ele>
        <time>2021-12-31T09:02:54.000Z</time>
      </trkpt>
      <trkpt lat="45.58724" lon="6.21978">
        <ele>287</ele>
        <time>2021-12-31T09:02:57.000Z</time>
      </trkpt>
      <trkpt lat="45.58713" lon="6.21959">
        <ele>288.20001220703</ele>
        <time>2021-12-31T09:03:01.000Z</time>
      </trkpt>
      <trkpt lat="45.587" lon="6.21936">
        <ele>289.39999389648</ele>
        <time>2021-12-31T09:03:06.000Z</time>
      </trkpt>
      <trkpt lat="45.5869" lon="6.21916">
        <ele>290.20001220703</ele>
        <time>2021-12-31T09:03:10.000Z</time>
      </trkpt>
      <trkpt lat="45.58683" lon="6.21903">
        <ele>290.79998779297</ele>
        <time>2021-12-31T09:03:13.000Z</time>
      </trkpt>
      <trkpt lat="45.58681" lon="6.21898">
        <ele>290.79998779297</ele>
        <time>2021-12-31T09:03:14.000Z</time>
      </trkpt>
      <trkpt lat="45.58671" lon="6.21877">
        <ele>291.60000610352</ele>
        <time>2021-12-31T09:03:18.000Z</time>
      </trkpt>
      <trkpt lat="45.58661" lon="6.21857">
        <ele>292.60000610352</ele>
        <time>2021-12-31T09:03:22.000Z</time>
      </trkpt>
      <trkpt lat="45.58659" lon="6.21853">
        <ele>292.79998779297</ele>
        <time>2021-12-31T09:03:23.000Z</time>
      </trkpt>
      <trkpt lat="45.58653" lon="6.21844">
        <ele>293</ele>
        <time>2021-12-31T09:03:25.000Z</time>
      </trkpt>
      <trkpt lat="45.5865" lon="6.2184">
        <ele>293.20001220703</ele>
        <time>2021-12-31T09:03:26.000Z</time>
      </trkpt>
      <trkpt lat="45.58642" lon="6.21832">
        <ele>293.79998779297</ele>
        <time>2021-12-31T09:03:28.000Z</time>
      </trkpt>
      <trkpt lat="45.58629" lon="6.21818">
        <ele>294.39999389648</ele>
        <time>2021-12-31T09:03:31.000Z</time>
      </trkpt>
      <trkpt lat="45.58603" lon="6.21778">
        <ele>294.39999389648</ele>
        <time>2021-12-31T09:03:38.000Z</time>
      </trkpt>
      <trkpt lat="45.58596" lon="6.21765">
        <ele>294.20001220703</ele>
        <time>2021-12-31T09:03:40.000Z</time>
      </trkpt>
      <trkpt lat="45.58575" lon="6.21727">
        <ele>293.39999389648</ele>
        <time>2021-12-31T09:03:45.000Z</time>
      </trkpt>
      <trkpt lat="45.58562" lon="6.21702">
        <ele>292.79998779297</ele>
        <time>2021-12-31T09:03:48.000Z</time>
      </trkpt>
      <trkpt lat="45.5855" lon="6.21677">
        <ele>291.79998779297</ele>
        <time>2021-12-31T09:03:51.000Z</time>
      </trkpt>
      <trkpt lat="45.58546" lon="6.21669">
        <ele>291.60000610352</ele>
        <time>2021-12-31T09:03:52.000Z</time>
      </trkpt>
      <trkpt lat="45.58527" lon="6.21628">
        <ele>290.39999389648</ele>
        <time>2021-12-31T09:03:57.000Z</time>
      </trkpt>
      <trkpt lat="45.58524" lon="6.21619">
        <ele>290.39999389648</ele>
        <time>2021-12-31T09:03:58.000Z</time>
      </trkpt>
      <trkpt lat="45.585" lon="6.21553">
        <ele>289.39999389648</ele>
        <time>2021-12-31T09:04:06.000Z</time>
      </trkpt>
      <trkpt lat="45.58495" lon="6.21536">
        <ele>289.20001220703</ele>
        <time>2021-12-31T09:04:08.000Z</time>
      </trkpt>
      <trkpt lat="45.5847" lon="6.21461">
        <ele>288.39999389648</ele>
        <time>2021-12-31T09:04:17.000Z</time>
      </trkpt>
      <trkpt lat="45.58447" lon="6.21398">
        <ele>287.79998779297</ele>
        <time>2021-12-31T09:04:25.000Z</time>
      </trkpt>
      <trkpt lat="45.58418" lon="6.21339">
        <ele>287.39999389648</ele>
        <time>2021-12-31T09:04:33.000Z</time>
      </trkpt>
      <trkpt lat="45.58411" lon="6.21323">
        <ele>287.20001220703</ele>
        <time>2021-12-31T09:04:35.000Z</time>
      </trkpt>
      <trkpt lat="45.58408" lon="6.21315">
        <ele>287.20001220703</ele>
        <time>2021-12-31T09:04:36.000Z</time>
      </trkpt>
      <trkpt lat="45.58404" lon="6.21297">
        <ele>286.79998779297</ele>
        <time>2021-12-31T09:04:38.000Z</time>
      </trkpt>
      <trkpt lat="45.58402" lon="6.21288">
        <ele>286.39999389648</ele>
        <time>2021-12-31T09:04:39.000Z</time>
      </trkpt>
      <trkpt lat="45.58401" lon="6.21279">
        <ele>286.20001220703</ele>
        <time>2021-12-31T09:04:40.000Z</time>
      </trkpt>
      <trkpt lat="45.58396" lon="6.21243">
        <ele>285.79998779297</ele>
        <time>2021-12-31T09:04:44.000Z</time>
      </trkpt>
      <trkpt lat="45.5839" lon="6.21206">
        <ele>285</ele>
        <time>2021-12-31T09:04:48.000Z</time>
      </trkpt>
      <trkpt lat="45.58387" lon="6.21188">
        <ele>284.60000610352</ele>
        <time>2021-12-31T09:04:50.000Z</time>
      </trkpt>
      <trkpt lat="45.58384" lon="6.2117">
        <ele>284</ele>
        <time>2021-12-31T09:04:52.000Z</time>
      </trkpt>
      <trkpt lat="45.58382" lon="6.21161">
        <ele>283.79998779297</ele>
        <time>2021-12-31T09:04:53.000Z</time>
      </trkpt>
      <trkpt lat="45.58374" lon="6.21122">
        <ele>282.79998779297</ele>
        <time>2021-12-31T09:04:57.000Z</time>
      </trkpt>
      <trkpt lat="45.58369" lon="6.21102">
        <ele>282.20001220703</ele>
        <time>2021-12-31T09:04:59.000Z</time>
      </trkpt>
      <trkpt lat="45.58368" lon="6.21092">
        <ele>281.79998779297</ele>
        <time>2021-12-31T09:05:00.000Z</time>
      </trkpt>
      <trkpt lat="45.58364" lon="6.21059">
        <ele>280.79998779297</ele>
        <time>2021-12-31T09:05:03.000Z</time>
      </trkpt>
      <trkpt lat="45.58363" lon="6.21049">
        <ele>280.20001220703</ele>
        <time>2021-12-31T09:05:04.000Z</time>
      </trkpt>
      <trkpt lat="45.58363" lon="6.21029">
        <ele>279.79998779297</ele>
        <time>2021-12-31T09:05:06.000Z</time>
      </trkpt>
      <trkpt lat="45.58368" lon="6.21011">
        <ele>279.20001220703</ele>
        <time>2021-12-31T09:05:08.000Z</time>
      </trkpt>
      <trkpt lat="45.58375" lon="6.20986">
        <ele>278.60000610352</ele>
        <time>2021-12-31T09:05:11.000Z</time>
      </trkpt>
      <trkpt lat="45.58382" lon="6.2097">
        <ele>278.60000610352</ele>
        <time>2021-12-31T09:05:13.000Z</time>
      </trkpt>
      <trkpt lat="45.58387" lon="6.20953">
        <ele>278.60000610352</ele>
        <time>2021-12-31T09:05:15.000Z</time>
      </trkpt>
      <trkpt lat="45.58389" lon="6.20935">
        <ele>278.60000610352</ele>
        <time>2021-12-31T09:05:17.000Z</time>
      </trkpt>
      <trkpt lat="45.5839" lon="6.2087">
        <ele>278.39999389648</ele>
        <time>2021-12-31T09:05:23.000Z</time>
      </trkpt>
      <trkpt lat="45.58392" lon="6.20839">
        <ele>278.20001220703</ele>
        <time>2021-12-31T09:05:26.000Z</time>
      </trkpt>
      <trkpt lat="45.58397" lon="6.20799">
        <ele>277.39999389648</ele>
        <time>2021-12-31T09:05:30.000Z</time>
      </trkpt>
      <trkpt lat="45.584" lon="6.2079">
        <ele>277.39999389648</ele>
        <time>2021-12-31T09:05:31.000Z</time>
      </trkpt>
      <trkpt lat="45.58405" lon="6.20772">
        <ele>277</ele>
        <time>2021-12-31T09:05:33.000Z</time>
      </trkpt>
      <trkpt lat="45.58416" lon="6.20741">
        <ele>277.20001220703</ele>
        <time>2021-12-31T09:05:37.000Z</time>
      </trkpt>
      <trkpt lat="45.58422" lon="6.20718">
        <ele>277.39999389648</ele>
        <time>2021-12-31T09:05:40.000Z</time>
      </trkpt>
      <trkpt lat="45.58423" lon="6.20694">
        <ele>278</ele>
        <time>2021-12-31T09:05:43.000Z</time>
      </trkpt>
      <trkpt lat="45.58424" lon="6.20687">
        <ele>278.20001220703</ele>
        <time>2021-12-31T09:05:44.000Z</time>
      </trkpt>
      <trkpt lat="45.58423" lon="6.2066">
        <ele>279.20001220703</ele>
        <time>2021-12-31T09:05:48.000Z</time>
      </trkpt>
      <trkpt lat="45.58423" lon="6.20654">
        <ele>279.39999389648</ele>
        <time>2021-12-31T09:05:49.000Z</time>
      </trkpt>
      <trkpt lat="45.58425" lon="6.20634">
        <ele>280.39999389648</ele>
        <time>2021-12-31T09:05:53.000Z</time>
      </trkpt>
      <trkpt lat="45.58425" lon="6.20629">
        <ele>280.39999389648</ele>
        <time>2021-12-31T09:05:54.000Z</time>
      </trkpt>
      <trkpt lat="45.58428" lon="6.20604">
        <ele>281.20001220703</ele>
        <time>2021-12-31T09:05:59.000Z</time>
      </trkpt>
      <trkpt lat="45.58429" lon="6.206">
        <ele>281.60000610352</ele>
        <time>2021-12-31T09:06:00.000Z</time>
      </trkpt>
      <trkpt lat="45.58432" lon="6.20586">
        <ele>282.60000610352</ele>
        <time>2021-12-31T09:06:03.000Z</time>
      </trkpt>
      <trkpt lat="45.58433" lon="6.20572">
        <ele>283.39999389648</ele>
        <time>2021-12-31T09:06:06.000Z</time>
      </trkpt>
      <trkpt lat="45.58433" lon="6.20563">
        <ele>284</ele>
        <time>2021-12-31T09:06:08.000Z</time>
      </trkpt>
      <trkpt lat="45.58432" lon="6.20544">
        <ele>285</ele>
        <time>2021-12-31T09:06:12.000Z</time>
      </trkpt>
      <trkpt lat="45.58431" lon="6.20539">
        <ele>285.39999389648</ele>
        <time>2021-12-31T09:06:13.000Z</time>
      </trkpt>
      <trkpt lat="45.58427" lon="6.20528">
        <ele>286.20001220703</ele>
        <time>2021-12-31T09:06:16.000Z</time>
      </trkpt>
      <trkpt lat="45.58421" lon="6.20512">
        <ele>287.39999389648</ele>
        <time>2021-12-31T09:06:20.000Z</time>
      </trkpt>
      <trkpt lat="45.58414" lon="6.205">
        <ele>288.60000610352</ele>
        <time>2021-12-31T09:06:23.000Z</time>
      </trkpt>
      <trkpt lat="45.58407" lon="6.2049">
        <ele>289.79998779297</ele>
        <time>2021-12-31T09:06:26.000Z</time>
      </trkpt>
      <trkpt lat="45.58401" lon="6.20484">
        <ele>290.20001220703</ele>
        <time>2021-12-31T09:06:28.000Z</time>
      </trkpt>
      <trkpt lat="45.58393" lon="6.20475">
        <ele>291</ele>
        <time>2021-12-31T09:06:31.000Z</time>
      </trkpt>
      <trkpt lat="45.5838" lon="6.20461">
        <ele>292.20001220703</ele>
        <time>2021-12-31T09:06:36.000Z</time>
      </trkpt>
      <trkpt lat="45.58378" lon="6.20458">
        <ele>292.39999389648</ele>
        <time>2021-12-31T09:06:37.000Z</time>
      </trkpt>
      <trkpt lat="45.58366" lon="6.20446">
        <ele>293.39999389648</ele>
        <time>2021-12-31T09:06:41.000Z</time>
      </trkpt>
      <trkpt lat="45.58359" lon="6.20441">
        <ele>293.79998779297</ele>
        <time>2021-12-31T09:06:43.000Z</time>
      </trkpt>
      <trkpt lat="45.58348" lon="6.20434">
        <ele>294.60000610352</ele>
        <time>2021-12-31T09:06:46.000Z</time>
      </trkpt>
      <trkpt lat="45.58336" lon="6.20423">
        <ele>295.60000610352</ele>
        <time>2021-12-31T09:06:50.000Z</time>
      </trkpt>
      <trkpt lat="45.58333" lon="6.20421">
        <ele>296</ele>
        <time>2021-12-31T09:06:51.000Z</time>
      </trkpt>
      <trkpt lat="45.58322" lon="6.20411">
        <ele>296.79998779297</ele>
        <time>2021-12-31T09:06:55.000Z</time>
      </trkpt>
      <trkpt lat="45.58314" lon="6.20404">
        <ele>297.39999389648</ele>
        <time>2021-12-31T09:06:58.000Z</time>
      </trkpt>
      <trkpt lat="45.58309" lon="6.20398">
        <ele>297.79998779297</ele>
        <time>2021-12-31T09:07:00.000Z</time>
      </trkpt>
      <trkpt lat="45.58294" lon="6.20379">
        <ele>299</ele>
        <time>2021-12-31T09:07:06.000Z</time>
      </trkpt>
      <trkpt lat="45.58289" lon="6.20372">
        <ele>299.20001220703</ele>
        <time>2021-12-31T09:07:08.000Z</time>
      </trkpt>
      <trkpt lat="45.58283" lon="6.20361">
        <ele>300</ele>
        <time>2021-12-31T09:07:11.000Z</time>
      </trkpt>
      <trkpt lat="45.58273" lon="6.20344">
        <ele>301</ele>
        <time>2021-12-31T09:07:16.000Z</time>
      </trkpt>
      <trkpt lat="45.58265" lon="6.20329">
        <ele>301.79998779297</ele>
        <time>2021-12-31T09:07:20.000Z</time>
      </trkpt>
      <trkpt lat="45.58263" lon="6.20326">
        <ele>302.20001220703</ele>
        <time>2021-12-31T09:07:21.000Z</time>
      </trkpt>
      <trkpt lat="45.58253" lon="6.20308">
        <ele>303.60000610352</ele>
        <time>2021-12-31T09:07:26.000Z</time>
      </trkpt>
      <trkpt lat="45.58247" lon="6.20296">
        <ele>304.60000610352</ele>
        <time>2021-12-31T09:07:29.000Z</time>
      </trkpt>
      <trkpt lat="45.58245" lon="6.20292">
        <ele>304.60000610352</ele>
        <time>2021-12-31T09:07:30.000Z</time>
      </trkpt>
      <trkpt lat="45.58236" lon="6.20275">
        <ele>305.79998779297</ele>
        <time>2021-12-31T09:07:34.000Z</time>
      </trkpt>
      <trkpt lat="45.58225" lon="6.20257">
        <ele>306.20001220703</ele>
        <time>2021-12-31T09:07:38.000Z</time>
      </trkpt>
      <trkpt lat="45.58201" lon="6.20225">
        <ele>306.79998779297</ele>
        <time>2021-12-31T09:07:46.000Z</time>
      </trkpt>
      <trkpt lat="45.58167" lon="6.20176">
        <ele>307.20001220703</ele>
        <time>2021-12-31T09:07:57.000Z</time>
      </trkpt>
      <trkpt lat="45.58141" lon="6.20125">
        <ele>307.60000610352</ele>
        <time>2021-12-31T09:08:07.000Z</time>
      </trkpt>
      <trkpt lat="45.5813" lon="6.20098">
        <ele>307.79998779297</ele>
        <time>2021-12-31T09:08:12.000Z</time>
      </trkpt>
      <trkpt lat="45.58125" lon="6.20081">
        <ele>308</ele>
        <time>2021-12-31T09:08:15.000Z</time>
      </trkpt>
      <trkpt lat="45.58117" lon="6.20049">
        <ele>309</ele>
        <time>2021-12-31T09:08:21.000Z</time>
      </trkpt>
      <trkpt lat="45.58112" lon="6.20027">
        <ele>309.60000610352</ele>
        <time>2021-12-31T09:08:25.000Z</time>
      </trkpt>
      <trkpt lat="45.58109" lon="6.20016">
        <ele>310.20001220703</ele>
        <time>2021-12-31T09:08:27.000Z</time>
      </trkpt>
      <trkpt lat="45.58107" lon="6.20005">
        <ele>310.60000610352</ele>
        <time>2021-12-31T09:08:29.000Z</time>
      </trkpt>
      <trkpt lat="45.58106" lon="6.19993">
        <ele>311</ele>
        <time>2021-12-31T09:08:31.000Z</time>
      </trkpt>
      <trkpt lat="45.58105" lon="6.19987">
        <ele>311.20001220703</ele>
        <time>2021-12-31T09:08:32.000Z</time>
      </trkpt>
      <trkpt lat="45.58101" lon="6.19965">
        <ele>311.79998779297</ele>
        <time>2021-12-31T09:08:36.000Z</time>
      </trkpt>
      <trkpt lat="45.58099" lon="6.19959">
        <ele>312</ele>
        <time>2021-12-31T09:08:37.000Z</time>
      </trkpt>
      <trkpt lat="45.58097" lon="6.19946">
        <ele>312.39999389648</ele>
        <time>2021-12-31T09:08:39.000Z</time>
      </trkpt>
      <trkpt lat="45.58093" lon="6.19918">
        <ele>313.60000610352</ele>
        <time>2021-12-31T09:08:44.000Z</time>
      </trkpt>
      <trkpt lat="45.5809" lon="6.19908">
        <ele>313.79998779297</ele>
        <time>2021-12-31T09:08:46.000Z</time>
      </trkpt>
      <trkpt lat="45.58085" lon="6.1989">
        <ele>314.60000610352</ele>
        <time>2021-12-31T09:08:49.000Z</time>
      </trkpt>
      <trkpt lat="45.58084" lon="6.19884">
        <ele>314.79998779297</ele>
        <time>2021-12-31T09:08:50.000Z</time>
      </trkpt>
      <trkpt lat="45.58079" lon="6.19862">
        <ele>315.79998779297</ele>
        <time>2021-12-31T09:08:54.000Z</time>
      </trkpt>
      <trkpt lat="45.58071" lon="6.1983">
        <ele>316.79998779297</ele>
        <time>2021-12-31T09:09:00.000Z</time>
      </trkpt>
      <trkpt lat="45.58069" lon="6.19818">
        <ele>317</ele>
        <time>2021-12-31T09:09:02.000Z</time>
      </trkpt>
      <trkpt lat="45.58065" lon="6.19802">
        <ele>318</ele>
        <time>2021-12-31T09:09:05.000Z</time>
      </trkpt>
      <trkpt lat="45.58061" lon="6.19786">
        <ele>318.39999389648</ele>
        <time>2021-12-31T09:09:08.000Z</time>
      </trkpt>
      <trkpt lat="45.58054" lon="6.19766">
        <ele>319.39999389648</ele>
        <time>2021-12-31T09:09:12.000Z</time>
      </trkpt>
      <trkpt lat="45.58048" lon="6.19751">
        <ele>320</ele>
        <time>2021-12-31T09:09:15.000Z</time>
      </trkpt>
      <trkpt lat="45.58043" lon="6.19735">
        <ele>320.39999389648</ele>
        <time>2021-12-31T09:09:18.000Z</time>
      </trkpt>
      <trkpt lat="45.58036" lon="6.1972">
        <ele>321</ele>
        <time>2021-12-31T09:09:21.000Z</time>
      </trkpt>
      <trkpt lat="45.5803" lon="6.19711">
        <ele>321.60000610352</ele>
        <time>2021-12-31T09:09:23.000Z</time>
      </trkpt>
      <trkpt lat="45.58009" lon="6.1968">
        <ele>322.60000610352</ele>
        <time>2021-12-31T09:09:30.000Z</time>
      </trkpt>
      <trkpt lat="45.57986" lon="6.19651">
        <ele>323.79998779297</ele>
        <time>2021-12-31T09:09:38.000Z</time>
      </trkpt>
      <trkpt lat="45.57977" lon="6.1964">
        <ele>324.20001220703</ele>
        <time>2021-12-31T09:09:41.000Z</time>
      </trkpt>
      <trkpt lat="45.57968" lon="6.19629">
        <ele>325</ele>
        <time>2021-12-31T09:09:44.000Z</time>
      </trkpt>
      <trkpt lat="45.57951" lon="6.19605">
        <ele>325.60000610352</ele>
        <time>2021-12-31T09:09:50.000Z</time>
      </trkpt>
      <trkpt lat="45.57938" lon="6.19586">
        <ele>326</ele>
        <time>2021-12-31T09:09:54.000Z</time>
      </trkpt>
      <trkpt lat="45.5792" lon="6.19562">
        <ele>326.20001220703</ele>
        <time>2021-12-31T09:09:59.000Z</time>
      </trkpt>
      <trkpt lat="45.57899" lon="6.19523">
        <ele>326.39999389648</ele>
        <time>2021-12-31T09:10:06.000Z</time>
      </trkpt>
      <trkpt lat="45.57884" lon="6.19483">
        <ele>326.79998779297</ele>
        <time>2021-12-31T09:10:13.000Z</time>
      </trkpt>
      <trkpt lat="45.57879" lon="6.1947">
        <ele>327</ele>
        <time>2021-12-31T09:10:15.000Z</time>
      </trkpt>
      <trkpt lat="45.57867" lon="6.1943">
        <ele>327.79998779297</ele>
        <time>2021-12-31T09:10:22.000Z</time>
      </trkpt>
      <trkpt lat="45.57866" lon="6.19423">
        <ele>328</ele>
        <time>2021-12-31T09:10:23.000Z</time>
      </trkpt>
      <trkpt lat="45.57864" lon="6.19417">
        <ele>328.20001220703</ele>
        <time>2021-12-31T09:10:24.000Z</time>
      </trkpt>
      <trkpt lat="45.57859" lon="6.19395">
        <ele>328.79998779297</ele>
        <time>2021-12-31T09:10:28.000Z</time>
      </trkpt>
      <trkpt lat="45.57855" lon="6.19379">
        <ele>329.39999389648</ele>
        <time>2021-12-31T09:10:31.000Z</time>
      </trkpt>
      <trkpt lat="45.57853" lon="6.19375">
        <ele>329.60000610352</ele>
        <time>2021-12-31T09:10:32.000Z</time>
      </trkpt>
      <trkpt lat="45.57847" lon="6.1936">
        <ele>331</ele>
        <time>2021-12-31T09:10:35.000Z</time>
      </trkpt>
      <trkpt lat="45.5784" lon="6.1934">
        <ele>332</ele>
        <time>2021-12-31T09:10:39.000Z</time>
      </trkpt>
      <trkpt lat="45.57833" lon="6.19319">
        <ele>333.20001220703</ele>
        <time>2021-12-31T09:10:43.000Z</time>
      </trkpt>
      <trkpt lat="45.57832" lon="6.19314">
        <ele>333.39999389648</ele>
        <time>2021-12-31T09:10:44.000Z</time>
      </trkpt>
      <trkpt lat="45.57824" lon="6.19292">
        <ele>334.60000610352</ele>
        <time>2021-12-31T09:10:48.000Z</time>
      </trkpt>
      <trkpt lat="45.57814" lon="6.19262">
        <ele>335.60000610352</ele>
        <time>2021-12-31T09:10:53.000Z</time>
      </trkpt>
      <trkpt lat="45.57795" lon="6.19206">
        <ele>336.20001220703</ele>
        <time>2021-12-31T09:11:02.000Z</time>
      </trkpt>
      <trkpt lat="45.57793" lon="6.192">
        <ele>336.20001220703</ele>
        <time>2021-12-31T09:11:03.000Z</time>
      </trkpt>
      <trkpt lat="45.57787" lon="6.19159">
        <ele>336.20001220703</ele>
        <time>2021-12-31T09:11:09.000Z</time>
      </trkpt>
      <trkpt lat="45.57776" lon="6.19114">
        <ele>336.60000610352</ele>
        <time>2021-12-31T09:11:16.000Z</time>
      </trkpt>
      <trkpt lat="45.57774" lon="6.19107">
        <ele>336.60000610352</ele>
        <time>2021-12-31T09:11:17.000Z</time>
      </trkpt>
      <trkpt lat="45.57761" lon="6.19061">
        <ele>336.39999389648</ele>
        <time>2021-12-31T09:11:23.000Z</time>
      </trkpt>
      <trkpt lat="45.57747" lon="6.19012">
        <ele>335.60000610352</ele>
        <time>2021-12-31T09:11:29.000Z</time>
      </trkpt>
      <trkpt lat="45.5774" lon="6.18983">
        <ele>335</ele>
        <time>2021-12-31T09:11:32.000Z</time>
      </trkpt>
      <trkpt lat="45.57738" lon="6.18964">
        <ele>334.39999389648</ele>
        <time>2021-12-31T09:11:34.000Z</time>
      </trkpt>
      <trkpt lat="45.57739" lon="6.18945">
        <ele>334</ele>
        <time>2021-12-31T09:11:36.000Z</time>
      </trkpt>
      <trkpt lat="45.57743" lon="6.18916">
        <ele>333.20001220703</ele>
        <time>2021-12-31T09:11:39.000Z</time>
      </trkpt>
      <trkpt lat="45.57746" lon="6.18887">
        <ele>332.79998779297</ele>
        <time>2021-12-31T09:11:42.000Z</time>
      </trkpt>
      <trkpt lat="45.57749" lon="6.18868">
        <ele>332.39999389648</ele>
        <time>2021-12-31T09:11:44.000Z</time>
      </trkpt>
      <trkpt lat="45.5775" lon="6.18858">
        <ele>332.20001220703</ele>
        <time>2021-12-31T09:11:45.000Z</time>
      </trkpt>
      <trkpt lat="45.57752" lon="6.18828">
        <ele>331.60000610352</ele>
        <time>2021-12-31T09:11:48.000Z</time>
      </trkpt>
      <trkpt lat="45.57755" lon="6.18808">
        <ele>331.20001220703</ele>
        <time>2021-12-31T09:11:50.000Z</time>
      </trkpt>
      <trkpt lat="45.57762" lon="6.1876">
        <ele>330</ele>
        <time>2021-12-31T09:11:55.000Z</time>
      </trkpt>
      <trkpt lat="45.57763" lon="6.18751">
        <ele>329.79998779297</ele>
        <time>2021-12-31T09:11:56.000Z</time>
      </trkpt>
      <trkpt lat="45.57765" lon="6.18723">
        <ele>329.39999389648</ele>
        <time>2021-12-31T09:11:59.000Z</time>
      </trkpt>
      <trkpt lat="45.57765" lon="6.18713">
        <ele>329.20001220703</ele>
        <time>2021-12-31T09:12:00.000Z</time>
      </trkpt>
      <trkpt lat="45.57765" lon="6.18702">
        <ele>329</ele>
        <time>2021-12-31T09:12:01.000Z</time>
      </trkpt>
      <trkpt lat="45.5776" lon="6.1868">
        <ele>328.20001220703</ele>
        <time>2021-12-31T09:12:03.000Z</time>
      </trkpt>
      <trkpt lat="45.57757" lon="6.1867">
        <ele>327.39999389648</ele>
        <time>2021-12-31T09:12:04.000Z</time>
      </trkpt>
      <trkpt lat="45.57747" lon="6.18642">
        <ele>326.20001220703</ele>
        <time>2021-12-31T09:12:07.000Z</time>
      </trkpt>
      <trkpt lat="45.57743" lon="6.18633">
        <ele>326</ele>
        <time>2021-12-31T09:12:08.000Z</time>
      </trkpt>
      <trkpt lat="45.57731" lon="6.18605">
        <ele>325.20001220703</ele>
        <time>2021-12-31T09:12:11.000Z</time>
      </trkpt>
      <trkpt lat="45.57714" lon="6.18568">
        <ele>324</ele>
        <time>2021-12-31T09:12:15.000Z</time>
      </trkpt>
      <trkpt lat="45.57705" lon="6.1855">
        <ele>323.60000610352</ele>
        <time>2021-12-31T09:12:17.000Z</time>
      </trkpt>
      <trkpt lat="45.57697" lon="6.18533">
        <ele>323.20001220703</ele>
        <time>2021-12-31T09:12:19.000Z</time>
      </trkpt>
      <trkpt lat="45.57685" lon="6.18509">
        <ele>323</ele>
        <time>2021-12-31T09:12:22.000Z</time>
      </trkpt>
      <trkpt lat="45.5768" lon="6.18502">
        <ele>323</ele>
        <time>2021-12-31T09:12:23.000Z</time>
      </trkpt>
      <trkpt lat="45.5767" lon="6.18492">
        <ele>323.39999389648</ele>
        <time>2021-12-31T09:12:25.000Z</time>
      </trkpt>
      <trkpt lat="45.5766" lon="6.18487">
        <ele>324</ele>
        <time>2021-12-31T09:12:27.000Z</time>
      </trkpt>
      <trkpt lat="45.57648" lon="6.18483">
        <ele>324.79998779297</ele>
        <time>2021-12-31T09:12:29.000Z</time>
      </trkpt>
      <trkpt lat="45.57637" lon="6.18481">
        <ele>325.20001220703</ele>
        <time>2021-12-31T09:12:31.000Z</time>
      </trkpt>
      <trkpt lat="45.57614" lon="6.1848">
        <ele>325.79998779297</ele>
        <time>2021-12-31T09:12:35.000Z</time>
      </trkpt>
      <trkpt lat="45.57608" lon="6.18481">
        <ele>326.20001220703</ele>
        <time>2021-12-31T09:12:36.000Z</time>
      </trkpt>
      <trkpt lat="45.57597" lon="6.1848">
        <ele>326.60000610352</ele>
        <time>2021-12-31T09:12:38.000Z</time>
      </trkpt>
      <trkpt lat="45.57579" lon="6.18476">
        <ele>327</ele>
        <time>2021-12-31T09:12:41.000Z</time>
      </trkpt>
      <trkpt lat="45.57572" lon="6.18472">
        <ele>327</ele>
        <time>2021-12-31T09:12:42.000Z</time>
      </trkpt>
      <trkpt lat="45.57559" lon="6.18461">
        <ele>327</ele>
        <time>2021-12-31T09:12:44.000Z</time>
      </trkpt>
      <trkpt lat="45.5755" lon="6.18444">
        <ele>327</ele>
        <time>2021-12-31T09:12:46.000Z</time>
      </trkpt>
      <trkpt lat="45.57547" lon="6.18434">
        <ele>326.60000610352</ele>
        <time>2021-12-31T09:12:47.000Z</time>
      </trkpt>
      <trkpt lat="45.57531" lon="6.18373">
        <ele>325.20001220703</ele>
        <time>2021-12-31T09:12:53.000Z</time>
      </trkpt>
      <trkpt lat="45.57528" lon="6.18363">
        <ele>325</ele>
        <time>2021-12-31T09:12:54.000Z</time>
      </trkpt>
      <trkpt lat="45.57514" lon="6.18308">
        <ele>323.79998779297</ele>
        <time>2021-12-31T09:12:59.000Z</time>
      </trkpt>
      <trkpt lat="45.57512" lon="6.18296">
        <ele>323.20001220703</ele>
        <time>2021-12-31T09:13:00.000Z</time>
      </trkpt>
      <trkpt lat="45.57503" lon="6.18264">
        <ele>322.39999389648</ele>
        <time>2021-12-31T09:13:03.000Z</time>
      </trkpt>
      <trkpt lat="45.57492" lon="6.18225">
        <ele>321.79998779297</ele>
        <time>2021-12-31T09:13:07.000Z</time>
      </trkpt>
      <trkpt lat="45.57476" lon="6.18177">
        <ele>322.20001220703</ele>
        <time>2021-12-31T09:13:13.000Z</time>
      </trkpt>
      <trkpt lat="45.57458" lon="6.18129">
        <ele>323.39999389648</ele>
        <time>2021-12-31T09:13:20.000Z</time>
      </trkpt>
      <trkpt lat="45.57453" lon="6.18116">
        <ele>323.79998779297</ele>
        <time>2021-12-31T09:13:22.000Z</time>
      </trkpt>
      <trkpt lat="45.57442" lon="6.18086">
        <ele>324.79998779297</ele>
        <time>2021-12-31T09:13:27.000Z</time>
      </trkpt>
      <trkpt lat="45.57439" lon="6.18081">
        <ele>324.79998779297</ele>
        <time>2021-12-31T09:13:28.000Z</time>
      </trkpt>
      <trkpt lat="45.5743" lon="6.18061">
        <ele>325.79998779297</ele>
        <time>2021-12-31T09:13:32.000Z</time>
      </trkpt>
      <trkpt lat="45.57423" lon="6.18046">
        <ele>326.39999389648</ele>
        <time>2021-12-31T09:13:35.000Z</time>
      </trkpt>
      <trkpt lat="45.57419" lon="6.18037">
        <ele>326.79998779297</ele>
        <time>2021-12-31T09:13:37.000Z</time>
      </trkpt>
      <trkpt lat="45.57413" lon="6.1803">
        <ele>327.20001220703</ele>
        <time>2021-12-31T09:13:39.000Z</time>
      </trkpt>
      <trkpt lat="45.57409" lon="6.18027">
        <ele>327.39999389648</ele>
        <time>2021-12-31T09:13:40.000Z</time>
      </trkpt>
      <trkpt lat="45.57394" lon="6.18014">
        <ele>328.39999389648</ele>
        <time>2021-12-31T09:13:44.000Z</time>
      </trkpt>
      <trkpt lat="45.57376" lon="6.17999">
        <ele>329.20001220703</ele>
        <time>2021-12-31T09:13:49.000Z</time>
      </trkpt>
      <trkpt lat="45.57373" lon="6.17997">
        <ele>329.39999389648</ele>
        <time>2021-12-31T09:13:50.000Z</time>
      </trkpt>
      <trkpt lat="45.57351" lon="6.17976">
        <ele>330.60000610352</ele>
        <time>2021-12-31T09:13:57.000Z</time>
      </trkpt>
      <trkpt lat="45.57345" lon="6.17969">
        <ele>331.20001220703</ele>
        <time>2021-12-31T09:13:59.000Z</time>
      </trkpt>
      <trkpt lat="45.57336" lon="6.1796">
        <ele>331.79998779297</ele>
        <time>2021-12-31T09:14:02.000Z</time>
      </trkpt>
      <trkpt lat="45.57326" lon="6.17946">
        <ele>332.60000610352</ele>
        <time>2021-12-31T09:14:06.000Z</time>
      </trkpt>
      <trkpt lat="45.57324" lon="6.17942">
        <ele>333</ele>
        <time>2021-12-31T09:14:07.000Z</time>
      </trkpt>
      <trkpt lat="45.57315" lon="6.17923">
        <ele>334.20001220703</ele>
        <time>2021-12-31T09:14:12.000Z</time>
      </trkpt>
      <trkpt lat="45.57311" lon="6.17916">
        <ele>334.79998779297</ele>
        <time>2021-12-31T09:14:14.000Z</time>
      </trkpt>
      <trkpt lat="45.57307" lon="6.17907">
        <ele>335.39999389648</ele>
        <time>2021-12-31T09:14:16.000Z</time>
      </trkpt>
      <trkpt lat="45.57301" lon="6.17886">
        <ele>336.39999389648</ele>
        <time>2021-12-31T09:14:21.000Z</time>
      </trkpt>
      <trkpt lat="45.57301" lon="6.17882">
        <ele>336.79998779297</ele>
        <time>2021-12-31T09:14:22.000Z</time>
      </trkpt>
      <trkpt lat="45.57301" lon="6.17864">
        <ele>337.60000610352</ele>
        <time>2021-12-31T09:14:26.000Z</time>
      </trkpt>
      <trkpt lat="45.573" lon="6.17845">
        <ele>339</ele>
        <time>2021-12-31T09:14:30.000Z</time>
      </trkpt>
      <trkpt lat="45.573" lon="6.17835">
        <ele>339.60000610352</ele>
        <time>2021-12-31T09:14:32.000Z</time>
      </trkpt>
      <trkpt lat="45.573" lon="6.17825">
        <ele>340</ele>
        <time>2021-12-31T09:14:34.000Z</time>
      </trkpt>
      <trkpt lat="45.573" lon="6.17806">
        <ele>341.20001220703</ele>
        <time>2021-12-31T09:14:38.000Z</time>
      </trkpt>
      <trkpt lat="45.57302" lon="6.17787">
        <ele>342.20001220703</ele>
        <time>2021-12-31T09:14:42.000Z</time>
      </trkpt>
      <trkpt lat="45.57302" lon="6.17783">
        <ele>342.39999389648</ele>
        <time>2021-12-31T09:14:43.000Z</time>
      </trkpt>
      <trkpt lat="45.57304" lon="6.17766">
        <ele>343.39999389648</ele>
        <time>2021-12-31T09:14:47.000Z</time>
      </trkpt>
      <trkpt lat="45.57305" lon="6.17753">
        <ele>344.39999389648</ele>
        <time>2021-12-31T09:14:50.000Z</time>
      </trkpt>
      <trkpt lat="45.57304" lon="6.17748">
        <ele>344.60000610352</ele>
        <time>2021-12-31T09:14:51.000Z</time>
      </trkpt>
      <trkpt lat="45.573" lon="6.17723">
        <ele>345.79998779297</ele>
        <time>2021-12-31T09:14:56.000Z</time>
      </trkpt>
      <trkpt lat="45.57299" lon="6.17718">
        <ele>346</ele>
        <time>2021-12-31T09:14:57.000Z</time>
      </trkpt>
      <trkpt lat="45.57294" lon="6.17697">
        <ele>346.60000610352</ele>
        <time>2021-12-31T09:15:01.000Z</time>
      </trkpt>
      <trkpt lat="45.57291" lon="6.17687">
        <ele>346.79998779297</ele>
        <time>2021-12-31T09:15:03.000Z</time>
      </trkpt>
      <trkpt lat="45.57289" lon="6.17681">
        <ele>346.79998779297</ele>
        <time>2021-12-31T09:15:04.000Z</time>
      </trkpt>
      <trkpt lat="45.5727" lon="6.17637">
        <ele>347.20001220703</ele>
        <time>2021-12-31T09:15:12.000Z</time>
      </trkpt>
      <trkpt lat="45.57256" lon="6.1761">
        <ele>347.39999389648</ele>
        <time>2021-12-31T09:15:17.000Z</time>
      </trkpt>
      <trkpt lat="45.57253" lon="6.17604">
        <ele>347.39999389648</ele>
        <time>2021-12-31T09:15:18.000Z</time>
      </trkpt>
      <trkpt lat="45.57237" lon="6.17569">
        <ele>347.60000610352</ele>
        <time>2021-12-31T09:15:24.000Z</time>
      </trkpt>
      <trkpt lat="45.57226" lon="6.17552">
        <ele>347.39999389648</ele>
        <time>2021-12-31T09:15:27.000Z</time>
      </trkpt>
      <trkpt lat="45.57214" lon="6.17538">
        <ele>347</ele>
        <time>2021-12-31T09:15:30.000Z</time>
      </trkpt>
      <trkpt lat="45.57187" lon="6.17509">
        <ele>345.60000610352</ele>
        <time>2021-12-31T09:15:35.000Z</time>
      </trkpt>
      <trkpt lat="45.57168" lon="6.17473">
        <ele>344.60000610352</ele>
        <time>2021-12-31T09:15:40.000Z</time>
      </trkpt>
      <trkpt lat="45.57153" lon="6.17444">
        <ele>344.39999389648</ele>
        <time>2021-12-31T09:15:45.000Z</time>
      </trkpt>
      <trkpt lat="45.57145" lon="6.1743">
        <ele>345.20001220703</ele>
        <time>2021-12-31T09:15:48.000Z</time>
      </trkpt>
      <trkpt lat="45.57139" lon="6.17416">
        <ele>345.60000610352</ele>
        <time>2021-12-31T09:15:51.000Z</time>
      </trkpt>
      <trkpt lat="45.57137" lon="6.17411">
        <ele>345.79998779297</ele>
        <time>2021-12-31T09:15:52.000Z</time>
      </trkpt>
      <trkpt lat="45.57133" lon="6.17402">
        <ele>346.79998779297</ele>
        <time>2021-12-31T09:15:54.000Z</time>
      </trkpt>
      <trkpt lat="45.57125" lon="6.17385">
        <ele>347.79998779297</ele>
        <time>2021-12-31T09:15:58.000Z</time>
      </trkpt>
      <trkpt lat="45.57117" lon="6.17365">
        <ele>348.79998779297</ele>
        <time>2021-12-31T09:16:03.000Z</time>
      </trkpt>
      <trkpt lat="45.57116" lon="6.17361">
        <ele>349.20001220703</ele>
        <time>2021-12-31T09:16:04.000Z</time>
      </trkpt>
      <trkpt lat="45.57114" lon="6.17356">
        <ele>349.39999389648</ele>
        <time>2021-12-31T09:16:05.000Z</time>
      </trkpt>
      <trkpt lat="45.57112" lon="6.17347">
        <ele>350</ele>
        <time>2021-12-31T09:16:07.000Z</time>
      </trkpt>
      <trkpt lat="45.57106" lon="6.17326">
        <ele>351</ele>
        <time>2021-12-31T09:16:12.000Z</time>
      </trkpt>
      <trkpt lat="45.57105" lon="6.17322">
        <ele>351.39999389648</ele>
        <time>2021-12-31T09:16:13.000Z</time>
      </trkpt>
      <trkpt lat="45.57102" lon="6.17309">
        <ele>352</ele>
        <time>2021-12-31T09:16:16.000Z</time>
      </trkpt>
      <trkpt lat="45.571" lon="6.17301">
        <ele>352.60000610352</ele>
        <time>2021-12-31T09:16:18.000Z</time>
      </trkpt>
      <trkpt lat="45.57098" lon="6.17293">
        <ele>353.20001220703</ele>
        <time>2021-12-31T09:16:20.000Z</time>
      </trkpt>
      <trkpt lat="45.57093" lon="6.17276">
        <ele>354.39999389648</ele>
        <time>2021-12-31T09:16:24.000Z</time>
      </trkpt>
      <trkpt lat="45.57092" lon="6.17267">
        <ele>355.20001220703</ele>
        <time>2021-12-31T09:16:26.000Z</time>
      </trkpt>
      <trkpt lat="45.5709" lon="6.17259">
        <ele>355.60000610352</ele>
        <time>2021-12-31T09:16:28.000Z</time>
      </trkpt>
      <trkpt lat="45.57086" lon="6.17242">
        <ele>356.60000610352</ele>
        <time>2021-12-31T09:16:32.000Z</time>
      </trkpt>
      <trkpt lat="45.57085" lon="6.17238">
        <ele>356.79998779297</ele>
        <time>2021-12-31T09:16:33.000Z</time>
      </trkpt>
      <trkpt lat="45.57082" lon="6.17225">
        <ele>357.79998779297</ele>
        <time>2021-12-31T09:16:36.000Z</time>
      </trkpt>
      <trkpt lat="45.57076" lon="6.17204">
        <ele>359</ele>
        <time>2021-12-31T09:16:41.000Z</time>
      </trkpt>
      <trkpt lat="45.57069" lon="6.1718">
        <ele>360</ele>
        <time>2021-12-31T09:16:46.000Z</time>
      </trkpt>
      <trkpt lat="45.57065" lon="6.1717">
        <ele>360.60000610352</ele>
        <time>2021-12-31T09:16:48.000Z</time>
      </trkpt>
      <trkpt lat="45.5706" lon="6.17155">
        <ele>361.20001220703</ele>
        <time>2021-12-31T09:16:51.000Z</time>
      </trkpt>
      <trkpt lat="45.57053" lon="6.17122">
        <ele>361.79998779297</ele>
        <time>2021-12-31T09:16:57.000Z</time>
      </trkpt>
      <trkpt lat="45.57051" lon="6.17116">
        <ele>362</ele>
        <time>2021-12-31T09:16:58.000Z</time>
      </trkpt>
      <trkpt lat="45.57049" lon="6.17104">
        <ele>362.20001220703</ele>
        <time>2021-12-31T09:17:00.000Z</time>
      </trkpt>
      <trkpt lat="45.57042" lon="6.17074">
        <ele>362.79998779297</ele>
        <time>2021-12-31T09:17:05.000Z</time>
      </trkpt>
      <trkpt lat="45.57032" lon="6.17011">
        <ele>363.20001220703</ele>
        <time>2021-12-31T09:17:15.000Z</time>
      </trkpt>
      <trkpt lat="45.57026" lon="6.16958">
        <ele>363.20001220703</ele>
        <time>2021-12-31T09:17:23.000Z</time>
      </trkpt>
      <trkpt lat="45.57019" lon="6.16906">
        <ele>363.20001220703</ele>
        <time>2021-12-31T09:17:31.000Z</time>
      </trkpt>
      <trkpt lat="45.57018" lon="6.16893">
        <ele>363.39999389648</ele>
        <time>2021-12-31T09:17:33.000Z</time>
      </trkpt>
      <trkpt lat="45.57013" lon="6.16844">
        <ele>363.79998779297</ele>
        <time>2021-12-31T09:17:41.000Z</time>
      </trkpt>
      <trkpt lat="45.57008" lon="6.16795">
        <ele>364.60000610352</ele>
        <time>2021-12-31T09:17:49.000Z</time>
      </trkpt>
      <trkpt lat="45.57006" lon="6.16783">
        <ele>364.79998779297</ele>
        <time>2021-12-31T09:17:51.000Z</time>
      </trkpt>
      <trkpt lat="45.57" lon="6.16728">
        <ele>365.60000610352</ele>
        <time>2021-12-31T09:18:00.000Z</time>
      </trkpt>
      <trkpt lat="45.56998" lon="6.16716">
        <ele>365.79998779297</ele>
        <time>2021-12-31T09:18:02.000Z</time>
      </trkpt>
      <trkpt lat="45.56996" lon="6.16685">
        <ele>366.20001220703</ele>
        <time>2021-12-31T09:18:07.000Z</time>
      </trkpt>
      <trkpt lat="45.56993" lon="6.16661">
        <ele>366.60000610352</ele>
        <time>2021-12-31T09:18:11.000Z</time>
      </trkpt>
      <trkpt lat="45.56993" lon="6.16655">
        <ele>366.60000610352</ele>
        <time>2021-12-31T09:18:12.000Z</time>
      </trkpt>
      <trkpt lat="45.56989" lon="6.16619">
        <ele>367.60000610352</ele>
        <time>2021-12-31T09:18:18.000Z</time>
      </trkpt>
      <trkpt lat="45.56988" lon="6.16613">
        <ele>367.79998779297</ele>
        <time>2021-12-31T09:18:19.000Z</time>
      </trkpt>
      <trkpt lat="45.56987" lon="6.166">
        <ele>368</ele>
        <time>2021-12-31T09:18:21.000Z</time>
      </trkpt>
      <trkpt lat="45.56983" lon="6.16559">
        <ele>368.79998779297</ele>
        <time>2021-12-31T09:18:28.000Z</time>
      </trkpt>
      <trkpt lat="45.56981" lon="6.16542">
        <ele>369.20001220703</ele>
        <time>2021-12-31T09:18:31.000Z</time>
      </trkpt>
      <trkpt lat="45.56979" lon="6.16524">
        <ele>369.79998779297</ele>
        <time>2021-12-31T09:18:34.000Z</time>
      </trkpt>
      <trkpt lat="45.56975" lon="6.16487">
        <ele>370.79998779297</ele>
        <time>2021-12-31T09:18:40.000Z</time>
      </trkpt>
      <trkpt lat="45.56974" lon="6.16481">
        <ele>371</ele>
        <time>2021-12-31T09:18:41.000Z</time>
      </trkpt>
      <trkpt lat="45.56971" lon="6.16446">
        <ele>372</ele>
        <time>2021-12-31T09:18:47.000Z</time>
      </trkpt>
      <trkpt lat="45.56969" lon="6.16428">
        <ele>372.60000610352</ele>
        <time>2021-12-31T09:18:50.000Z</time>
      </trkpt>
      <trkpt lat="45.56966" lon="6.16405">
        <ele>373.20001220703</ele>
        <time>2021-12-31T09:18:54.000Z</time>
      </trkpt>
      <trkpt lat="45.56962" lon="6.16376">
        <ele>374.20001220703</ele>
        <time>2021-12-31T09:18:59.000Z</time>
      </trkpt>
      <trkpt lat="45.56961" lon="6.16371">
        <ele>374.20001220703</ele>
        <time>2021-12-31T09:19:00.000Z</time>
      </trkpt>
      <trkpt lat="45.56958" lon="6.16337">
        <ele>375.39999389648</ele>
        <time>2021-12-31T09:19:06.000Z</time>
      </trkpt>
      <trkpt lat="45.56957" lon="6.16319">
        <ele>376.20001220703</ele>
        <time>2021-12-31T09:19:09.000Z</time>
      </trkpt>
      <trkpt lat="45.56956" lon="6.16307">
        <ele>376.39999389648</ele>
        <time>2021-12-31T09:19:11.000Z</time>
      </trkpt>
      <trkpt lat="45.56955" lon="6.16301">
        <ele>376.60000610352</ele>
        <time>2021-12-31T09:19:12.000Z</time>
      </trkpt>
      <trkpt lat="45.56953" lon="6.16285">
        <ele>377.39999389648</ele>
        <time>2021-12-31T09:19:15.000Z</time>
      </trkpt>
      <trkpt lat="45.56949" lon="6.16252">
        <ele>378.60000610352</ele>
        <time>2021-12-31T09:19:21.000Z</time>
      </trkpt>
      <trkpt lat="45.56949" lon="6.16247">
        <ele>379</ele>
        <time>2021-12-31T09:19:22.000Z</time>
      </trkpt>
      <trkpt lat="45.56947" lon="6.16223">
        <ele>379.79998779297</ele>
        <time>2021-12-31T09:19:26.000Z</time>
      </trkpt>
      <trkpt lat="45.56944" lon="6.16194">
        <ele>380.79998779297</ele>
        <time>2021-12-31T09:19:31.000Z</time>
      </trkpt>
      <trkpt lat="45.56943" lon="6.16189">
        <ele>381.20001220703</ele>
        <time>2021-12-31T09:19:32.000Z</time>
      </trkpt>
      <trkpt lat="45.5694" lon="6.16171">
        <ele>382</ele>
        <time>2021-12-31T09:19:35.000Z</time>
      </trkpt>
      <trkpt lat="45.56939" lon="6.16165">
        <ele>382.20001220703</ele>
        <time>2021-12-31T09:19:36.000Z</time>
      </trkpt>
      <trkpt lat="45.56939" lon="6.16154">
        <ele>382.60000610352</ele>
        <time>2021-12-31T09:19:38.000Z</time>
      </trkpt>
      <trkpt lat="45.56939" lon="6.1613">
        <ele>383.39999389648</ele>
        <time>2021-12-31T09:19:42.000Z</time>
      </trkpt>
      <trkpt lat="45.56938" lon="6.16119">
        <ele>383.60000610352</ele>
        <time>2021-12-31T09:19:44.000Z</time>
      </trkpt>
      <trkpt lat="45.56939" lon="6.16101">
        <ele>384</ele>
        <time>2021-12-31T09:19:47.000Z</time>
      </trkpt>
      <trkpt lat="45.56939" lon="6.16095">
        <ele>384</ele>
        <time>2021-12-31T09:19:48.000Z</time>
      </trkpt>
      <trkpt lat="45.56939" lon="6.1609">
        <ele>384.39999389648</ele>
        <time>2021-12-31T09:19:49.000Z</time>
      </trkpt>
      <trkpt lat="45.5694" lon="6.16058">
        <ele>385.39999389648</ele>
        <time>2021-12-31T09:19:54.000Z</time>
      </trkpt>
      <trkpt lat="45.56939" lon="6.16051">
        <ele>385.39999389648</ele>
        <time>2021-12-31T09:19:55.000Z</time>
      </trkpt>
      <trkpt lat="45.56936" lon="6.16015">
        <ele>386.60000610352</ele>
        <time>2021-12-31T09:20:01.000Z</time>
      </trkpt>
      <trkpt lat="45.56936" lon="6.16008">
        <ele>386.60000610352</ele>
        <time>2021-12-31T09:20:02.000Z</time>
      </trkpt>
      <trkpt lat="45.56933" lon="6.15953">
        <ele>387.60000610352</ele>
        <time>2021-12-31T09:20:11.000Z</time>
      </trkpt>
      <trkpt lat="45.56932" lon="6.15948">
        <ele>387.60000610352</ele>
        <time>2021-12-31T09:20:12.000Z</time>
      </trkpt>
      <trkpt lat="45.56928" lon="6.15894">
        <ele>388.60000610352</ele>
        <time>2021-12-31T09:20:21.000Z</time>
      </trkpt>
      <trkpt lat="45.56925" lon="6.15878">
        <ele>388.60000610352</ele>
        <time>2021-12-31T09:20:24.000Z</time>
      </trkpt>
      <trkpt lat="45.56923" lon="6.15869">
        <ele>388.79998779297</ele>
        <time>2021-12-31T09:20:26.000Z</time>
      </trkpt>
      <trkpt lat="45.56922" lon="6.15839">
        <ele>389.20001220703</ele>
        <time>2021-12-31T09:20:31.000Z</time>
      </trkpt>
      <trkpt lat="45.5692" lon="6.15812">
        <ele>389.39999389648</ele>
        <time>2021-12-31T09:20:35.000Z</time>
      </trkpt>
      <trkpt lat="45.56919" lon="6.15797">
        <ele>389.60000610352</ele>
        <time>2021-12-31T09:20:37.000Z</time>
      </trkpt>
      <trkpt lat="45.56918" lon="6.1579">
        <ele>389.60000610352</ele>
        <time>2021-12-31T09:20:38.000Z</time>
      </trkpt>
      <trkpt lat="45.56916" lon="6.15774">
        <ele>389.79998779297</ele>
        <time>2021-12-31T09:20:40.000Z</time>
      </trkpt>
      <trkpt lat="45.56911" lon="6.15759">
        <ele>390</ele>
        <time>2021-12-31T09:20:42.000Z</time>
      </trkpt>
      <trkpt lat="45.56902" lon="6.15751">
        <ele>390.39999389648</ele>
        <time>2021-12-31T09:20:44.000Z</time>
      </trkpt>
      <trkpt lat="45.56896" lon="6.15751">
        <ele>390.39999389648</ele>
        <time>2021-12-31T09:20:45.000Z</time>
      </trkpt>
      <trkpt lat="45.5689" lon="6.15753">
        <ele>390.20001220703</ele>
        <time>2021-12-31T09:20:46.000Z</time>
      </trkpt>
      <trkpt lat="45.56879" lon="6.15765">
        <ele>390.20001220703</ele>
        <time>2021-12-31T09:20:48.000Z</time>
      </trkpt>
      <trkpt lat="45.56858" lon="6.15816">
        <ele>389.60000610352</ele>
        <time>2021-12-31T09:20:53.000Z</time>
      </trkpt>
      <trkpt lat="45.56854" lon="6.15828">
        <ele>388.39999389648</ele>
        <time>2021-12-31T09:20:54.000Z</time>
      </trkpt>
      <trkpt lat="45.5684" lon="6.15863">
        <ele>386.60000610352</ele>
        <time>2021-12-31T09:20:57.000Z</time>
      </trkpt>
      <trkpt lat="45.56833" lon="6.15874">
        <ele>386.39999389648</ele>
        <time>2021-12-31T09:20:58.000Z</time>
      </trkpt>
      <trkpt lat="45.56825" lon="6.15882">
        <ele>385.60000610352</ele>
        <time>2021-12-31T09:20:59.000Z</time>
      </trkpt>
      <trkpt lat="45.56808" lon="6.15892">
        <ele>384.39999389648</ele>
        <time>2021-12-31T09:21:01.000Z</time>
      </trkpt>
      <trkpt lat="45.5679" lon="6.15885">
        <ele>382.79998779297</ele>
        <time>2021-12-31T09:21:03.000Z</time>
      </trkpt>
      <trkpt lat="45.56782" lon="6.15877">
        <ele>381.60000610352</ele>
        <time>2021-12-31T09:21:04.000Z</time>
      </trkpt>
      <trkpt lat="45.56775" lon="6.15868">
        <ele>380.79998779297</ele>
        <time>2021-12-31T09:21:05.000Z</time>
      </trkpt>
      <trkpt lat="45.5677" lon="6.15859">
        <ele>380</ele>
        <time>2021-12-31T09:21:06.000Z</time>
      </trkpt>
      <trkpt lat="45.56765" lon="6.1585">
        <ele>379</ele>
        <time>2021-12-31T09:21:07.000Z</time>
      </trkpt>
      <trkpt lat="45.5676" lon="6.15831">
        <ele>377.60000610352</ele>
        <time>2021-12-31T09:21:09.000Z</time>
      </trkpt>
      <trkpt lat="45.56751" lon="6.15817">
        <ele>376.39999389648</ele>
        <time>2021-12-31T09:21:11.000Z</time>
      </trkpt>
      <trkpt lat="45.56745" lon="6.15811">
        <ele>375.60000610352</ele>
        <time>2021-12-31T09:21:12.000Z</time>
      </trkpt>
      <trkpt lat="45.5674" lon="6.15803">
        <ele>375.39999389648</ele>
        <time>2021-12-31T09:21:13.000Z</time>
      </trkpt>
      <trkpt lat="45.56734" lon="6.15794">
        <ele>375</ele>
        <time>2021-12-31T09:21:14.000Z</time>
      </trkpt>
      <trkpt lat="45.56728" lon="6.15784">
        <ele>374.79998779297</ele>
        <time>2021-12-31T09:21:15.000Z</time>
      </trkpt>
      <trkpt lat="45.56722" lon="6.15774">
        <ele>374</ele>
        <time>2021-12-31T09:21:16.000Z</time>
      </trkpt>
      <trkpt lat="45.5671" lon="6.15753">
        <ele>372.79998779297</ele>
        <time>2021-12-31T09:21:18.000Z</time>
      </trkpt>
      <trkpt lat="45.56692" lon="6.1572">
        <ele>371</ele>
        <time>2021-12-31T09:21:21.000Z</time>
      </trkpt>
      <trkpt lat="45.56685" lon="6.15708">
        <ele>370.60000610352</ele>
        <time>2021-12-31T09:21:22.000Z</time>
      </trkpt>
      <trkpt lat="45.56679" lon="6.15696">
        <ele>369.60000610352</ele>
        <time>2021-12-31T09:21:23.000Z</time>
      </trkpt>
      <trkpt lat="45.56665" lon="6.15673">
        <ele>368.39999389648</ele>
        <time>2021-12-31T09:21:25.000Z</time>
      </trkpt>
      <trkpt lat="45.56651" lon="6.15649">
        <ele>367.20001220703</ele>
        <time>2021-12-31T09:21:27.000Z</time>
      </trkpt>
      <trkpt lat="45.56644" lon="6.15637">
        <ele>366.20001220703</ele>
        <time>2021-12-31T09:21:28.000Z</time>
      </trkpt>
      <trkpt lat="45.5663" lon="6.15613">
        <ele>365</ele>
        <time>2021-12-31T09:21:30.000Z</time>
      </trkpt>
      <trkpt lat="45.56615" lon="6.15588">
        <ele>363.60000610352</ele>
        <time>2021-12-31T09:21:32.000Z</time>
      </trkpt>
      <trkpt lat="45.56599" lon="6.15564">
        <ele>361.79998779297</ele>
        <time>2021-12-31T09:21:34.000Z</time>
      </trkpt>
      <trkpt lat="45.56591" lon="6.15553">
        <ele>361.39999389648</ele>
        <time>2021-12-31T09:21:35.000Z</time>
      </trkpt>
      <trkpt lat="45.56583" lon="6.15542">
        <ele>360.60000610352</ele>
        <time>2021-12-31T09:21:36.000Z</time>
      </trkpt>
      <trkpt lat="45.56565" lon="6.15521">
        <ele>359</ele>
        <time>2021-12-31T09:21:38.000Z</time>
      </trkpt>
      <trkpt lat="45.56556" lon="6.1551">
        <ele>357.60000610352</ele>
        <time>2021-12-31T09:21:39.000Z</time>
      </trkpt>
      <trkpt lat="45.56538" lon="6.1549">
        <ele>356.20001220703</ele>
        <time>2021-12-31T09:21:41.000Z</time>
      </trkpt>
      <trkpt lat="45.56521" lon="6.15471">
        <ele>354.20001220703</ele>
        <time>2021-12-31T09:21:43.000Z</time>
      </trkpt>
      <trkpt lat="45.56513" lon="6.15462">
        <ele>353.20001220703</ele>
        <time>2021-12-31T09:21:44.000Z</time>
      </trkpt>
      <trkpt lat="45.56497" lon="6.15444">
        <ele>351.79998779297</ele>
        <time>2021-12-31T09:21:46.000Z</time>
      </trkpt>
      <trkpt lat="45.5648" lon="6.15429">
        <ele>350.20001220703</ele>
        <time>2021-12-31T09:21:48.000Z</time>
      </trkpt>
      <trkpt lat="45.56472" lon="6.15423">
        <ele>349</ele>
        <time>2021-12-31T09:21:49.000Z</time>
      </trkpt>
      <trkpt lat="45.56465" lon="6.15418">
        <ele>348.60000610352</ele>
        <time>2021-12-31T09:21:50.000Z</time>
      </trkpt>
      <trkpt lat="45.5646" lon="6.15411">
        <ele>347.79998779297</ele>
        <time>2021-12-31T09:21:51.000Z</time>
      </trkpt>
      <trkpt lat="45.56458" lon="6.15402">
        <ele>347.20001220703</ele>
        <time>2021-12-31T09:21:52.000Z</time>
      </trkpt>
      <trkpt lat="45.56459" lon="6.15392">
        <ele>346.39999389648</ele>
        <time>2021-12-31T09:21:53.000Z</time>
      </trkpt>
      <trkpt lat="45.56459" lon="6.15383">
        <ele>345.60000610352</ele>
        <time>2021-12-31T09:21:54.000Z</time>
      </trkpt>
      <trkpt lat="45.56458" lon="6.15373">
        <ele>345.20001220703</ele>
        <time>2021-12-31T09:21:55.000Z</time>
      </trkpt>
      <trkpt lat="45.56456" lon="6.15364">
        <ele>344.79998779297</ele>
        <time>2021-12-31T09:21:56.000Z</time>
      </trkpt>
      <trkpt lat="45.56454" lon="6.15345">
        <ele>344.20001220703</ele>
        <time>2021-12-31T09:21:58.000Z</time>
      </trkpt>
      <trkpt lat="45.56452" lon="6.15325">
        <ele>343.79998779297</ele>
        <time>2021-12-31T09:22:00.000Z</time>
      </trkpt>
      <trkpt lat="45.56451" lon="6.15295">
        <ele>343</ele>
        <time>2021-12-31T09:22:03.000Z</time>
      </trkpt>
      <trkpt lat="45.56447" lon="6.15238">
        <ele>342</ele>
        <time>2021-12-31T09:22:09.000Z</time>
      </trkpt>
      <trkpt lat="45.56445" lon="6.15208">
        <ele>341.79998779297</ele>
        <time>2021-12-31T09:22:12.000Z</time>
      </trkpt>
      <trkpt lat="45.5644" lon="6.15144">
        <ele>340.79998779297</ele>
        <time>2021-12-31T09:22:18.000Z</time>
      </trkpt>
      <trkpt lat="45.56439" lon="6.15111">
        <ele>339.60000610352</ele>
        <time>2021-12-31T09:22:21.000Z</time>
      </trkpt>
      <trkpt lat="45.56437" lon="6.15065">
        <ele>339</ele>
        <time>2021-12-31T09:22:25.000Z</time>
      </trkpt>
      <trkpt lat="45.56436" lon="6.15053">
        <ele>338.60000610352</ele>
        <time>2021-12-31T09:22:26.000Z</time>
      </trkpt>
      <trkpt lat="45.56433" lon="6.15004">
        <ele>337.39999389648</ele>
        <time>2021-12-31T09:22:30.000Z</time>
      </trkpt>
      <trkpt lat="45.56428" lon="6.14968">
        <ele>336.20001220703</ele>
        <time>2021-12-31T09:22:33.000Z</time>
      </trkpt>
      <trkpt lat="45.56422" lon="6.14944">
        <ele>335.20001220703</ele>
        <time>2021-12-31T09:22:35.000Z</time>
      </trkpt>
      <trkpt lat="45.56413" lon="6.14908">
        <ele>333.79998779297</ele>
        <time>2021-12-31T09:22:38.000Z</time>
      </trkpt>
      <trkpt lat="45.56404" lon="6.14868">
        <ele>332</ele>
        <time>2021-12-31T09:22:41.000Z</time>
      </trkpt>
      <trkpt lat="45.56398" lon="6.14841">
        <ele>330.79998779297</ele>
        <time>2021-12-31T09:22:43.000Z</time>
      </trkpt>
      <trkpt lat="45.5639" lon="6.14799">
        <ele>328.79998779297</ele>
        <time>2021-12-31T09:22:46.000Z</time>
      </trkpt>
      <trkpt lat="45.56386" lon="6.14773">
        <ele>327.60000610352</ele>
        <time>2021-12-31T09:22:48.000Z</time>
      </trkpt>
      <trkpt lat="45.56385" lon="6.14749">
        <ele>326.60000610352</ele>
        <time>2021-12-31T09:22:50.000Z</time>
      </trkpt>
      <trkpt lat="45.56385" lon="6.14738">
        <ele>325.60000610352</ele>
        <time>2021-12-31T09:22:51.000Z</time>
      </trkpt>
      <trkpt lat="45.56385" lon="6.14726">
        <ele>324.79998779297</ele>
        <time>2021-12-31T09:22:52.000Z</time>
      </trkpt>
      <trkpt lat="45.56386" lon="6.14714">
        <ele>323.79998779297</ele>
        <time>2021-12-31T09:22:53.000Z</time>
      </trkpt>
      <trkpt lat="45.56387" lon="6.14691">
        <ele>322.39999389648</ele>
        <time>2021-12-31T09:22:55.000Z</time>
      </trkpt>
      <trkpt lat="45.5639" lon="6.14656">
        <ele>320.79998779297</ele>
        <time>2021-12-31T09:22:58.000Z</time>
      </trkpt>
      <trkpt lat="45.56391" lon="6.14644">
        <ele>320.79998779297</ele>
        <time>2021-12-31T09:22:59.000Z</time>
      </trkpt>
      <trkpt lat="45.56393" lon="6.14633">
        <ele>320.20001220703</ele>
        <time>2021-12-31T09:23:00.000Z</time>
      </trkpt>
      <trkpt lat="45.56399" lon="6.14612">
        <ele>319.79998779297</ele>
        <time>2021-12-31T09:23:02.000Z</time>
      </trkpt>
      <trkpt lat="45.56401" lon="6.14602">
        <ele>319.60000610352</ele>
        <time>2021-12-31T09:23:03.000Z</time>
      </trkpt>
      <trkpt lat="45.56412" lon="6.14558">
        <ele>319</ele>
        <time>2021-12-31T09:23:08.000Z</time>
      </trkpt>
      <trkpt lat="45.56411" lon="6.14549">
        <ele>319</ele>
        <time>2021-12-31T09:23:09.000Z</time>
      </trkpt>
      <trkpt lat="45.56411" lon="6.1453">
        <ele>318.79998779297</ele>
        <time>2021-12-31T09:23:11.000Z</time>
      </trkpt>
      <trkpt lat="45.56411" lon="6.145">
        <ele>318.60000610352</ele>
        <time>2021-12-31T09:23:14.000Z</time>
      </trkpt>
      <trkpt lat="45.5641" lon="6.14489">
        <ele>318.39999389648</ele>
        <time>2021-12-31T09:23:15.000Z</time>
      </trkpt>
      <trkpt lat="45.56404" lon="6.14468">
        <ele>318</ele>
        <time>2021-12-31T09:23:17.000Z</time>
      </trkpt>
      <trkpt lat="45.56399" lon="6.14459">
        <ele>317.60000610352</ele>
        <time>2021-12-31T09:23:18.000Z</time>
      </trkpt>
      <trkpt lat="45.56386" lon="6.1443">
        <ele>316.20001220703</ele>
        <time>2021-12-31T09:23:21.000Z</time>
      </trkpt>
      <trkpt lat="45.56381" lon="6.14419">
        <ele>316</ele>
        <time>2021-12-31T09:23:22.000Z</time>
      </trkpt>
      <trkpt lat="45.56373" lon="6.144">
        <ele>315</ele>
        <time>2021-12-31T09:23:24.000Z</time>
      </trkpt>
      <trkpt lat="45.56359" lon="6.14365">
        <ele>314</ele>
        <time>2021-12-31T09:23:27.000Z</time>
      </trkpt>
      <trkpt lat="45.56354" lon="6.14355">
        <ele>313.20001220703</ele>
        <time>2021-12-31T09:23:28.000Z</time>
      </trkpt>
      <trkpt lat="45.56337" lon="6.14312">
        <ele>312.20001220703</ele>
        <time>2021-12-31T09:23:32.000Z</time>
      </trkpt>
      <trkpt lat="45.56328" lon="6.14291">
        <ele>311.39999389648</ele>
        <time>2021-12-31T09:23:34.000Z</time>
      </trkpt>
      <trkpt lat="45.56324" lon="6.1428">
        <ele>311</ele>
        <time>2021-12-31T09:23:35.000Z</time>
      </trkpt>
      <trkpt lat="45.56304" lon="6.14225">
        <ele>309.60000610352</ele>
        <time>2021-12-31T09:23:40.000Z</time>
      </trkpt>
      <trkpt lat="45.56292" lon="6.1419">
        <ele>308.39999389648</ele>
        <time>2021-12-31T09:23:43.000Z</time>
      </trkpt>
      <trkpt lat="45.56282" lon="6.14154">
        <ele>307.20001220703</ele>
        <time>2021-12-31T09:23:46.000Z</time>
      </trkpt>
      <trkpt lat="45.56279" lon="6.14141">
        <ele>307</ele>
        <time>2021-12-31T09:23:47.000Z</time>
      </trkpt>
      <trkpt lat="45.56271" lon="6.14107">
        <ele>305.79998779297</ele>
        <time>2021-12-31T09:23:50.000Z</time>
      </trkpt>
      <trkpt lat="45.56262" lon="6.14073">
        <ele>304.60000610352</ele>
        <time>2021-12-31T09:23:53.000Z</time>
      </trkpt>
      <trkpt lat="45.5626" lon="6.14063">
        <ele>304.60000610352</ele>
        <time>2021-12-31T09:23:54.000Z</time>
      </trkpt>
      <trkpt lat="45.56248" lon="6.14017">
        <ele>304</ele>
        <time>2021-12-31T09:23:59.000Z</time>
      </trkpt>
      <trkpt lat="45.56232" lon="6.13965">
        <ele>303.60000610352</ele>
        <time>2021-12-31T09:24:05.000Z</time>
      </trkpt>
      <trkpt lat="45.5623" lon="6.13956">
        <ele>303.60000610352</ele>
        <time>2021-12-31T09:24:06.000Z</time>
      </trkpt>
      <trkpt lat="45.56229" lon="6.13938">
        <ele>303.60000610352</ele>
        <time>2021-12-31T09:24:08.000Z</time>
      </trkpt>
      <trkpt lat="45.5623" lon="6.1393">
        <ele>303.60000610352</ele>
        <time>2021-12-31T09:24:09.000Z</time>
      </trkpt>
      <trkpt lat="45.5623" lon="6.13881">
        <ele>303.20001220703</ele>
        <time>2021-12-31T09:24:14.000Z</time>
      </trkpt>
      <trkpt lat="45.56229" lon="6.13871">
        <ele>303</ele>
        <time>2021-12-31T09:24:15.000Z</time>
      </trkpt>
      <trkpt lat="45.56227" lon="6.1386">
        <ele>302.79998779297</ele>
        <time>2021-12-31T09:24:16.000Z</time>
      </trkpt>
      <trkpt lat="45.56221" lon="6.13839">
        <ele>302.60000610352</ele>
        <time>2021-12-31T09:24:18.000Z</time>
      </trkpt>
      <trkpt lat="45.56218" lon="6.13828">
        <ele>302.20001220703</ele>
        <time>2021-12-31T09:24:19.000Z</time>
      </trkpt>
      <trkpt lat="45.56209" lon="6.13807">
        <ele>301</ele>
        <time>2021-12-31T09:24:21.000Z</time>
      </trkpt>
      <trkpt lat="45.56204" lon="6.13796">
        <ele>300.39999389648</ele>
        <time>2021-12-31T09:24:22.000Z</time>
      </trkpt>
      <trkpt lat="45.56198" lon="6.13786">
        <ele>299.79998779297</ele>
        <time>2021-12-31T09:24:23.000Z</time>
      </trkpt>
      <trkpt lat="45.56177" lon="6.13744">
        <ele>298</ele>
        <time>2021-12-31T09:24:27.000Z</time>
      </trkpt>
      <trkpt lat="45.5617" lon="6.13721">
        <ele>297.20001220703</ele>
        <time>2021-12-31T09:24:29.000Z</time>
      </trkpt>
      <trkpt lat="45.56167" lon="6.13708">
        <ele>296.60000610352</ele>
        <time>2021-12-31T09:24:30.000Z</time>
      </trkpt>
      <trkpt lat="45.56161" lon="6.13669">
        <ele>295.60000610352</ele>
        <time>2021-12-31T09:24:33.000Z</time>
      </trkpt>
      <trkpt lat="45.56147" lon="6.13634">
        <ele>294.60000610352</ele>
        <time>2021-12-31T09:24:36.000Z</time>
      </trkpt>
      <trkpt lat="45.56141" lon="6.13625">
        <ele>294</ele>
        <time>2021-12-31T09:24:37.000Z</time>
      </trkpt>
      <trkpt lat="45.56123" lon="6.13598">
        <ele>292.60000610352</ele>
        <time>2021-12-31T09:24:40.000Z</time>
      </trkpt>
      <trkpt lat="45.56117" lon="6.1359">
        <ele>292.20001220703</ele>
        <time>2021-12-31T09:24:41.000Z</time>
      </trkpt>
      <trkpt lat="45.56104" lon="6.13576">
        <ele>291.20001220703</ele>
        <time>2021-12-31T09:24:43.000Z</time>
      </trkpt>
      <trkpt lat="45.56081" lon="6.13549">
        <ele>290.20001220703</ele>
        <time>2021-12-31T09:24:47.000Z</time>
      </trkpt>
      <trkpt lat="45.56059" lon="6.13512">
        <ele>290</ele>
        <time>2021-12-31T09:24:52.000Z</time>
      </trkpt>
      <trkpt lat="45.5603" lon="6.13459">
        <ele>291.20001220703</ele>
        <time>2021-12-31T09:25:00.000Z</time>
      </trkpt>
      <trkpt lat="45.56027" lon="6.13453">
        <ele>291.20001220703</ele>
        <time>2021-12-31T09:25:01.000Z</time>
      </trkpt>
      <trkpt lat="45.56023" lon="6.13447">
        <ele>291.39999389648</ele>
        <time>2021-12-31T09:25:02.000Z</time>
      </trkpt>
      <trkpt lat="45.56009" lon="6.13425">
        <ele>292.39999389648</ele>
        <time>2021-12-31T09:25:06.000Z</time>
      </trkpt>
      <trkpt lat="45.55983" lon="6.13385">
        <ele>293.39999389648</ele>
        <time>2021-12-31T09:25:13.000Z</time>
      </trkpt>
      <trkpt lat="45.55976" lon="6.13374">
        <ele>293.79998779297</ele>
        <time>2021-12-31T09:25:15.000Z</time>
      </trkpt>
      <trkpt lat="45.55961" lon="6.13353">
        <ele>294.20001220703</ele>
        <time>2021-12-31T09:25:19.000Z</time>
      </trkpt>
      <trkpt lat="45.55952" lon="6.13344">
        <ele>294.39999389648</ele>
        <time>2021-12-31T09:25:21.000Z</time>
      </trkpt>
      <trkpt lat="45.55947" lon="6.13341">
        <ele>294.60000610352</ele>
        <time>2021-12-31T09:25:22.000Z</time>
      </trkpt>
      <trkpt lat="45.55902" lon="6.13312">
        <ele>295.60000610352</ele>
        <time>2021-12-31T09:25:31.000Z</time>
      </trkpt>
      <trkpt lat="45.55897" lon="6.13308">
        <ele>295.60000610352</ele>
        <time>2021-12-31T09:25:32.000Z</time>
      </trkpt>
      <trkpt lat="45.55871" lon="6.13279">
        <ele>296</ele>
        <time>2021-12-31T09:25:38.000Z</time>
      </trkpt>
      <trkpt lat="45.55841" lon="6.13232">
        <ele>296.20001220703</ele>
        <time>2021-12-31T09:25:46.000Z</time>
      </trkpt>
      <trkpt lat="45.55822" lon="6.13203">
        <ele>296.60000610352</ele>
        <time>2021-12-31T09:25:51.000Z</time>
      </trkpt>
      <trkpt lat="45.55802" lon="6.13174">
        <ele>296.79998779297</ele>
        <time>2021-12-31T09:25:56.000Z</time>
      </trkpt>
      <trkpt lat="45.55759" lon="6.13123">
        <ele>296.39999389648</ele>
        <time>2021-12-31T09:26:05.000Z</time>
      </trkpt>
      <trkpt lat="45.55721" lon="6.13081">
        <ele>295.39999389648</ele>
        <time>2021-12-31T09:26:12.000Z</time>
      </trkpt>
      <trkpt lat="45.55704" lon="6.13054">
        <ele>294.20001220703</ele>
        <time>2021-12-31T09:26:16.000Z</time>
      </trkpt>
      <trkpt lat="45.557" lon="6.13047">
        <ele>294.20001220703</ele>
        <time>2021-12-31T09:26:17.000Z</time>
      </trkpt>
      <trkpt lat="45.55668" lon="6.12973">
        <ele>293.20001220703</ele>
        <time>2021-12-31T09:26:26.000Z</time>
      </trkpt>
      <trkpt lat="45.55664" lon="6.12965">
        <ele>293.20001220703</ele>
        <time>2021-12-31T09:26:27.000Z</time>
      </trkpt>
      <trkpt lat="45.55645" lon="6.12921">
        <ele>292.39999389648</ele>
        <time>2021-12-31T09:26:32.000Z</time>
      </trkpt>
      <trkpt lat="45.55637" lon="6.12903">
        <ele>292</ele>
        <time>2021-12-31T09:26:34.000Z</time>
      </trkpt>
      <trkpt lat="45.55633" lon="6.12894">
        <ele>291.79998779297</ele>
        <time>2021-12-31T09:26:35.000Z</time>
      </trkpt>
      <trkpt lat="45.55604" lon="6.1283">
        <ele>291.20001220703</ele>
        <time>2021-12-31T09:26:43.000Z</time>
      </trkpt>
      <trkpt lat="45.5559" lon="6.12796">
        <ele>291</ele>
        <time>2021-12-31T09:26:47.000Z</time>
      </trkpt>
      <trkpt lat="45.55576" lon="6.12762">
        <ele>290.20001220703</ele>
        <time>2021-12-31T09:26:51.000Z</time>
      </trkpt>
      <trkpt lat="45.55573" lon="6.12753">
        <ele>290</ele>
        <time>2021-12-31T09:26:52.000Z</time>
      </trkpt>
      <trkpt lat="45.55565" lon="6.12737">
        <ele>289.60000610352</ele>
        <time>2021-12-31T09:26:54.000Z</time>
      </trkpt>
      <trkpt lat="45.55555" lon="6.12724">
        <ele>289.39999389648</ele>
        <time>2021-12-31T09:26:56.000Z</time>
      </trkpt>
      <trkpt lat="45.55544" lon="6.12713">
        <ele>289.20001220703</ele>
        <time>2021-12-31T09:26:58.000Z</time>
      </trkpt>
      <trkpt lat="45.55538" lon="6.12707">
        <ele>288.79998779297</ele>
        <time>2021-12-31T09:26:59.000Z</time>
      </trkpt>
      <trkpt lat="45.55532" lon="6.12701">
        <ele>288.60000610352</ele>
        <time>2021-12-31T09:27:00.000Z</time>
      </trkpt>
      <trkpt lat="45.55527" lon="6.12694">
        <ele>288.60000610352</ele>
        <time>2021-12-31T09:27:01.000Z</time>
      </trkpt>
      <trkpt lat="45.55516" lon="6.12682">
        <ele>287.39999389648</ele>
        <time>2021-12-31T09:27:04.000Z</time>
      </trkpt>
      <trkpt lat="45.55501" lon="6.12672">
        <ele>286.60000610352</ele>
        <time>2021-12-31T09:27:08.000Z</time>
      </trkpt>
      <trkpt lat="45.55498" lon="6.1267">
        <ele>286.39999389648</ele>
        <time>2021-12-31T09:27:09.000Z</time>
      </trkpt>
      <trkpt lat="45.55495" lon="6.12667">
        <ele>286.20001220703</ele>
        <time>2021-12-31T09:27:10.000Z</time>
      </trkpt>
      <trkpt lat="45.55491" lon="6.12665">
        <ele>286.20001220703</ele>
        <time>2021-12-31T09:27:11.000Z</time>
      </trkpt>
      <trkpt lat="45.5548" lon="6.12658">
        <ele>285.79998779297</ele>
        <time>2021-12-31T09:27:14.000Z</time>
      </trkpt>
      <trkpt lat="45.55472" lon="6.12654">
        <ele>285.39999389648</ele>
        <time>2021-12-31T09:27:16.000Z</time>
      </trkpt>
      <trkpt lat="45.55467" lon="6.12652">
        <ele>285.20001220703</ele>
        <time>2021-12-31T09:27:17.000Z</time>
      </trkpt>
      <trkpt lat="45.5545" lon="6.12642">
        <ele>284.60000610352</ele>
        <time>2021-12-31T09:27:21.000Z</time>
      </trkpt>
      <trkpt lat="45.55441" lon="6.12636">
        <ele>284.20001220703</ele>
        <time>2021-12-31T09:27:23.000Z</time>
      </trkpt>
      <trkpt lat="45.55437" lon="6.12633">
        <ele>283.79998779297</ele>
        <time>2021-12-31T09:27:24.000Z</time>
      </trkpt>
      <trkpt lat="45.55424" lon="6.12618">
        <ele>283.39999389648</ele>
        <time>2021-12-31T09:27:27.000Z</time>
      </trkpt>
      <trkpt lat="45.55415" lon="6.12607">
        <ele>283.39999389648</ele>
        <time>2021-12-31T09:27:29.000Z</time>
      </trkpt>
      <trkpt lat="45.55405" lon="6.12596">
        <ele>283.20001220703</ele>
        <time>2021-12-31T09:27:31.000Z</time>
      </trkpt>
      <trkpt lat="45.55401" lon="6.12589">
        <ele>283.20001220703</ele>
        <time>2021-12-31T09:27:32.000Z</time>
      </trkpt>
      <trkpt lat="45.55385" lon="6.12559">
        <ele>283.20001220703</ele>
        <time>2021-12-31T09:27:36.000Z</time>
      </trkpt>
      <trkpt lat="45.55378" lon="6.12544">
        <ele>283.39999389648</ele>
        <time>2021-12-31T09:27:38.000Z</time>
      </trkpt>
      <trkpt lat="45.55354" lon="6.12493">
        <ele>283.39999389648</ele>
        <time>2021-12-31T09:27:45.000Z</time>
      </trkpt>
      <trkpt lat="45.55348" lon="6.12478">
        <ele>283.20001220703</ele>
        <time>2021-12-31T09:27:47.000Z</time>
      </trkpt>
      <trkpt lat="45.55332" lon="6.1244">
        <ele>283</ele>
        <time>2021-12-31T09:27:52.000Z</time>
      </trkpt>
      <trkpt lat="45.55314" lon="6.12398">
        <ele>282.39999389648</ele>
        <time>2021-12-31T09:27:57.000Z</time>
      </trkpt>
      <trkpt lat="45.55289" lon="6.12353">
        <ele>282</ele>
        <time>2021-12-31T09:28:03.000Z</time>
      </trkpt>
      <trkpt lat="45.55275" lon="6.12335">
        <ele>282</ele>
        <time>2021-12-31T09:28:06.000Z</time>
      </trkpt>
      <trkpt lat="45.55265" lon="6.12325">
        <ele>281.79998779297</ele>
        <time>2021-12-31T09:28:08.000Z</time>
      </trkpt>
      <trkpt lat="45.55261" lon="6.1232">
        <ele>281.79998779297</ele>
        <time>2021-12-31T09:28:09.000Z</time>
      </trkpt>
      <trkpt lat="45.55241" lon="6.12297">
        <ele>282</ele>
        <time>2021-12-31T09:28:14.000Z</time>
      </trkpt>
      <trkpt lat="45.55226" lon="6.1228">
        <ele>283</ele>
        <time>2021-12-31T09:28:19.000Z</time>
      </trkpt>
      <trkpt lat="45.55224" lon="6.12277">
        <ele>283.20001220703</ele>
        <time>2021-12-31T09:28:20.000Z</time>
      </trkpt>
      <trkpt lat="45.55209" lon="6.12261">
        <ele>284.20001220703</ele>
        <time>2021-12-31T09:28:25.000Z</time>
      </trkpt>
      <trkpt lat="45.552" lon="6.12251">
        <ele>284.79998779297</ele>
        <time>2021-12-31T09:28:28.000Z</time>
      </trkpt>
      <trkpt lat="45.55197" lon="6.12248">
        <ele>285.20001220703</ele>
        <time>2021-12-31T09:28:29.000Z</time>
      </trkpt>
      <trkpt lat="45.55181" lon="6.1223">
        <ele>286</ele>
        <time>2021-12-31T09:28:35.000Z</time>
      </trkpt>
      <trkpt lat="45.55176" lon="6.12224">
        <ele>286.39999389648</ele>
        <time>2021-12-31T09:28:37.000Z</time>
      </trkpt>
      <trkpt lat="45.55163" lon="6.1221">
        <ele>287.60000610352</ele>
        <time>2021-12-31T09:28:42.000Z</time>
      </trkpt>
      <trkpt lat="45.55161" lon="6.12207">
        <ele>287.60000610352</ele>
        <time>2021-12-31T09:28:43.000Z</time>
      </trkpt>
      <trkpt lat="45.55153" lon="6.122">
        <ele>288.60000610352</ele>
        <time>2021-12-31T09:28:46.000Z</time>
      </trkpt>
      <trkpt lat="45.55144" lon="6.1219">
        <ele>289.39999389648</ele>
        <time>2021-12-31T09:28:50.000Z</time>
      </trkpt>
      <trkpt lat="45.55139" lon="6.12184">
        <ele>289.79998779297</ele>
        <time>2021-12-31T09:28:52.000Z</time>
      </trkpt>
      <trkpt lat="45.55129" lon="6.12172">
        <ele>290.79998779297</ele>
        <time>2021-12-31T09:28:56.000Z</time>
      </trkpt>
      <trkpt lat="45.55124" lon="6.12166">
        <ele>291.20001220703</ele>
        <time>2021-12-31T09:28:58.000Z</time>
      </trkpt>
      <trkpt lat="45.55118" lon="6.12156">
        <ele>292.20001220703</ele>
        <time>2021-12-31T09:29:01.000Z</time>
      </trkpt>
      <trkpt lat="45.55104" lon="6.12137">
        <ele>293.20001220703</ele>
        <time>2021-12-31T09:29:07.000Z</time>
      </trkpt>
      <trkpt lat="45.55092" lon="6.12122">
        <ele>294</ele>
        <time>2021-12-31T09:29:12.000Z</time>
      </trkpt>
      <trkpt lat="45.55078" lon="6.12104">
        <ele>295.20001220703</ele>
        <time>2021-12-31T09:29:18.000Z</time>
      </trkpt>
      <trkpt lat="45.55076" lon="6.12101">
        <ele>295.20001220703</ele>
        <time>2021-12-31T09:29:19.000Z</time>
      </trkpt>
      <trkpt lat="45.55062" lon="6.12087">
        <ele>296.20001220703</ele>
        <time>2021-12-31T09:29:24.000Z</time>
      </trkpt>
      <trkpt lat="45.55056" lon="6.1208">
        <ele>296.60000610352</ele>
        <time>2021-12-31T09:29:26.000Z</time>
      </trkpt>
      <trkpt lat="45.55042" lon="6.12065">
        <ele>297.39999389648</ele>
        <time>2021-12-31T09:29:31.000Z</time>
      </trkpt>
      <trkpt lat="45.55031" lon="6.12053">
        <ele>298.39999389648</ele>
        <time>2021-12-31T09:29:35.000Z</time>
      </trkpt>
      <trkpt lat="45.55029" lon="6.1205">
        <ele>298.60000610352</ele>
        <time>2021-12-31T09:29:36.000Z</time>
      </trkpt>
      <trkpt lat="45.55013" lon="6.12032">
        <ele>299.79998779297</ele>
        <time>2021-12-31T09:29:42.000Z</time>
      </trkpt>
      <trkpt lat="45.55004" lon="6.12023">
        <ele>300.39999389648</ele>
        <time>2021-12-31T09:29:45.000Z</time>
      </trkpt>
      <trkpt lat="45.54999" lon="6.12017">
        <ele>301</ele>
        <time>2021-12-31T09:29:47.000Z</time>
      </trkpt>
      <trkpt lat="45.54985" lon="6.12001">
        <ele>302.20001220703</ele>
        <time>2021-12-31T09:29:52.000Z</time>
      </trkpt>
      <trkpt lat="45.54971" lon="6.11986">
        <ele>302.79998779297</ele>
        <time>2021-12-31T09:29:57.000Z</time>
      </trkpt>
      <trkpt lat="45.54959" lon="6.11973">
        <ele>303.20001220703</ele>
        <time>2021-12-31T09:30:01.000Z</time>
      </trkpt>
      <trkpt lat="45.54943" lon="6.11955">
        <ele>304.39999389648</ele>
        <time>2021-12-31T09:30:07.000Z</time>
      </trkpt>
      <trkpt lat="45.54927" lon="6.11935">
        <ele>305.39999389648</ele>
        <time>2021-12-31T09:30:14.000Z</time>
      </trkpt>
      <trkpt lat="45.54924" lon="6.11932">
        <ele>305.60000610352</ele>
        <time>2021-12-31T09:30:15.000Z</time>
      </trkpt>
      <trkpt lat="45.54911" lon="6.1192">
        <ele>306.60000610352</ele>
        <time>2021-12-31T09:30:20.000Z</time>
      </trkpt>
      <trkpt lat="45.54907" lon="6.11915">
        <ele>307</ele>
        <time>2021-12-31T09:30:22.000Z</time>
      </trkpt>
      <trkpt lat="45.54897" lon="6.11907">
        <ele>307.60000610352</ele>
        <time>2021-12-31T09:30:26.000Z</time>
      </trkpt>
      <trkpt lat="45.54891" lon="6.11901">
        <ele>307.79998779297</ele>
        <time>2021-12-31T09:30:28.000Z</time>
      </trkpt>
      <trkpt lat="45.54874" lon="6.11881">
        <ele>308.79998779297</ele>
        <time>2021-12-31T09:30:34.000Z</time>
      </trkpt>
      <trkpt lat="45.54863" lon="6.1187">
        <ele>309.79998779297</ele>
        <time>2021-12-31T09:30:38.000Z</time>
      </trkpt>
      <trkpt lat="45.5486" lon="6.11868">
        <ele>310</ele>
        <time>2021-12-31T09:30:39.000Z</time>
      </trkpt>
      <trkpt lat="45.54844" lon="6.11853">
        <ele>311.20001220703</ele>
        <time>2021-12-31T09:30:45.000Z</time>
      </trkpt>
      <trkpt lat="45.54835" lon="6.11846">
        <ele>312</ele>
        <time>2021-12-31T09:30:48.000Z</time>
      </trkpt>
      <trkpt lat="45.54829" lon="6.11842">
        <ele>312.20001220703</ele>
        <time>2021-12-31T09:30:50.000Z</time>
      </trkpt>
      <trkpt lat="45.54819" lon="6.11833">
        <ele>313.39999389648</ele>
        <time>2021-12-31T09:30:54.000Z</time>
      </trkpt>
      <trkpt lat="45.54805" lon="6.11821">
        <ele>314.39999389648</ele>
        <time>2021-12-31T09:30:59.000Z</time>
      </trkpt>
      <trkpt lat="45.54802" lon="6.11818">
        <ele>314.60000610352</ele>
        <time>2021-12-31T09:31:00.000Z</time>
      </trkpt>
      <trkpt lat="45.54791" lon="6.11807">
        <ele>315.60000610352</ele>
        <time>2021-12-31T09:31:04.000Z</time>
      </trkpt>
      <trkpt lat="45.54781" lon="6.11795">
        <ele>316.20001220703</ele>
        <time>2021-12-31T09:31:08.000Z</time>
      </trkpt>
      <trkpt lat="45.54779" lon="6.11792">
        <ele>316.39999389648</ele>
        <time>2021-12-31T09:31:09.000Z</time>
      </trkpt>
      <trkpt lat="45.54766" lon="6.11778">
        <ele>317.79998779297</ele>
        <time>2021-12-31T09:31:14.000Z</time>
      </trkpt>
      <trkpt lat="45.54759" lon="6.1177">
        <ele>318.79998779297</ele>
        <time>2021-12-31T09:31:17.000Z</time>
      </trkpt>
      <trkpt lat="45.54756" lon="6.11768">
        <ele>319</ele>
        <time>2021-12-31T09:31:18.000Z</time>
      </trkpt>
      <trkpt lat="45.54743" lon="6.11756">
        <ele>320</ele>
        <time>2021-12-31T09:31:23.000Z</time>
      </trkpt>
      <trkpt lat="45.54732" lon="6.11746">
        <ele>321.39999389648</ele>
        <time>2021-12-31T09:31:27.000Z</time>
      </trkpt>
      <trkpt lat="45.54722" lon="6.11737">
        <ele>322.60000610352</ele>
        <time>2021-12-31T09:31:31.000Z</time>
      </trkpt>
      <trkpt lat="45.54709" lon="6.11723">
        <ele>323.79998779297</ele>
        <time>2021-12-31T09:31:36.000Z</time>
      </trkpt>
      <trkpt lat="45.54706" lon="6.11719">
        <ele>324</ele>
        <time>2021-12-31T09:31:37.000Z</time>
      </trkpt>
      <trkpt lat="45.54695" lon="6.11708">
        <ele>324.79998779297</ele>
        <time>2021-12-31T09:31:41.000Z</time>
      </trkpt>
      <trkpt lat="45.54684" lon="6.11699">
        <ele>326</ele>
        <time>2021-12-31T09:31:45.000Z</time>
      </trkpt>
      <trkpt lat="45.54679" lon="6.11696">
        <ele>326.39999389648</ele>
        <time>2021-12-31T09:31:47.000Z</time>
      </trkpt>
      <trkpt lat="45.54674" lon="6.11692">
        <ele>327</ele>
        <time>2021-12-31T09:31:49.000Z</time>
      </trkpt>
      <trkpt lat="45.5466" lon="6.1168">
        <ele>328.20001220703</ele>
        <time>2021-12-31T09:31:54.000Z</time>
      </trkpt>
      <trkpt lat="45.54649" lon="6.1167">
        <ele>329</ele>
        <time>2021-12-31T09:31:58.000Z</time>
      </trkpt>
      <trkpt lat="45.54638" lon="6.11659">
        <ele>330.39999389648</ele>
        <time>2021-12-31T09:32:02.000Z</time>
      </trkpt>
      <trkpt lat="45.54633" lon="6.11653">
        <ele>330.79998779297</ele>
        <time>2021-12-31T09:32:04.000Z</time>
      </trkpt>
      <trkpt lat="45.54624" lon="6.11644">
        <ele>331.60000610352</ele>
        <time>2021-12-31T09:32:07.000Z</time>
      </trkpt>
      <trkpt lat="45.5461" lon="6.11629">
        <ele>332.60000610352</ele>
        <time>2021-12-31T09:32:12.000Z</time>
      </trkpt>
      <trkpt lat="45.54604" lon="6.11623">
        <ele>333</ele>
        <time>2021-12-31T09:32:14.000Z</time>
      </trkpt>
      <trkpt lat="45.54599" lon="6.11617">
        <ele>333.60000610352</ele>
        <time>2021-12-31T09:32:16.000Z</time>
      </trkpt>
      <trkpt lat="45.54596" lon="6.11613">
        <ele>333.79998779297</ele>
        <time>2021-12-31T09:32:17.000Z</time>
      </trkpt>
      <trkpt lat="45.54577" lon="6.11591">
        <ele>334.79998779297</ele>
        <time>2021-12-31T09:32:24.000Z</time>
      </trkpt>
      <trkpt lat="45.54574" lon="6.11587">
        <ele>335</ele>
        <time>2021-12-31T09:32:25.000Z</time>
      </trkpt>
      <trkpt lat="45.54553" lon="6.11561">
        <ele>335.39999389648</ele>
        <time>2021-12-31T09:32:31.000Z</time>
      </trkpt>
      <trkpt lat="45.54528" lon="6.11535">
        <ele>335</ele>
        <time>2021-12-31T09:32:36.000Z</time>
      </trkpt>
      <trkpt lat="45.545" lon="6.11503">
        <ele>333.60000610352</ele>
        <time>2021-12-31T09:32:41.000Z</time>
      </trkpt>
      <trkpt lat="45.54481" lon="6.11482">
        <ele>332.79998779297</ele>
        <time>2021-12-31T09:32:44.000Z</time>
      </trkpt>
      <trkpt lat="45.54475" lon="6.11475">
        <ele>332.60000610352</ele>
        <time>2021-12-31T09:32:45.000Z</time>
      </trkpt>
      <trkpt lat="45.54455" lon="6.11453">
        <ele>331.39999389648</ele>
        <time>2021-12-31T09:32:48.000Z</time>
      </trkpt>
      <trkpt lat="45.54428" lon="6.11425">
        <ele>330</ele>
        <time>2021-12-31T09:32:52.000Z</time>
      </trkpt>
      <trkpt lat="45.54386" lon="6.1138">
        <ele>329.20001220703</ele>
        <time>2021-12-31T09:32:59.000Z</time>
      </trkpt>
      <trkpt lat="45.54375" lon="6.11368">
        <ele>329</ele>
        <time>2021-12-31T09:33:01.000Z</time>
      </trkpt>
      <trkpt lat="45.54342" lon="6.11332">
        <ele>328.60000610352</ele>
        <time>2021-12-31T09:33:07.000Z</time>
      </trkpt>
      <trkpt lat="45.54294" lon="6.1128">
        <ele>328.60000610352</ele>
        <time>2021-12-31T09:33:16.000Z</time>
      </trkpt>
      <trkpt lat="45.54283" lon="6.1127">
        <ele>328.60000610352</ele>
        <time>2021-12-31T09:33:18.000Z</time>
      </trkpt>
      <trkpt lat="45.54253" lon="6.11237">
        <ele>328.79998779297</ele>
        <time>2021-12-31T09:33:24.000Z</time>
      </trkpt>
      <trkpt lat="45.54234" lon="6.11216">
        <ele>328.79998779297</ele>
        <time>2021-12-31T09:33:28.000Z</time>
      </trkpt>
      <trkpt lat="45.5419" lon="6.11171">
        <ele>329.79998779297</ele>
        <time>2021-12-31T09:33:37.000Z</time>
      </trkpt>
      <trkpt lat="45.54166" lon="6.11146">
        <ele>330</ele>
        <time>2021-12-31T09:33:42.000Z</time>
      </trkpt>
      <trkpt lat="45.54147" lon="6.11126">
        <ele>330.20001220703</ele>
        <time>2021-12-31T09:33:46.000Z</time>
      </trkpt>
      <trkpt lat="45.54118" lon="6.11095">
        <ele>330.79998779297</ele>
        <time>2021-12-31T09:33:53.000Z</time>
      </trkpt>
      <trkpt lat="45.54106" lon="6.11083">
        <ele>331.20001220703</ele>
        <time>2021-12-31T09:33:56.000Z</time>
      </trkpt>
      <trkpt lat="45.5409" lon="6.11066">
        <ele>332.20001220703</ele>
        <time>2021-12-31T09:34:00.000Z</time>
      </trkpt>
      <trkpt lat="45.54071" lon="6.11047">
        <ele>333.20001220703</ele>
        <time>2021-12-31T09:34:05.000Z</time>
      </trkpt>
      <trkpt lat="45.5406" lon="6.11036">
        <ele>334.20001220703</ele>
        <time>2021-12-31T09:34:08.000Z</time>
      </trkpt>
      <trkpt lat="45.54057" lon="6.11032">
        <ele>334.60000610352</ele>
        <time>2021-12-31T09:34:09.000Z</time>
      </trkpt>
      <trkpt lat="45.54038" lon="6.11012">
        <ele>335.60000610352</ele>
        <time>2021-12-31T09:34:14.000Z</time>
      </trkpt>
      <trkpt lat="45.54026" lon="6.11">
        <ele>336.39999389648</ele>
        <time>2021-12-31T09:34:17.000Z</time>
      </trkpt>
      <trkpt lat="45.54023" lon="6.10996">
        <ele>336.79998779297</ele>
        <time>2021-12-31T09:34:18.000Z</time>
      </trkpt>
      <trkpt lat="45.54004" lon="6.10978">
        <ele>338.20001220703</ele>
        <time>2021-12-31T09:34:23.000Z</time>
      </trkpt>
      <trkpt lat="45.53997" lon="6.10972">
        <ele>338.79998779297</ele>
        <time>2021-12-31T09:34:25.000Z</time>
      </trkpt>
      <trkpt lat="45.53989" lon="6.10965">
        <ele>339.39999389648</ele>
        <time>2021-12-31T09:34:27.000Z</time>
      </trkpt>
      <trkpt lat="45.53978" lon="6.10953">
        <ele>340.20001220703</ele>
        <time>2021-12-31T09:34:30.000Z</time>
      </trkpt>
      <trkpt lat="45.53975" lon="6.10949">
        <ele>340.39999389648</ele>
        <time>2021-12-31T09:34:31.000Z</time>
      </trkpt>
      <trkpt lat="45.53957" lon="6.10928">
        <ele>341.79998779297</ele>
        <time>2021-12-31T09:34:36.000Z</time>
      </trkpt>
      <trkpt lat="45.53947" lon="6.10916">
        <ele>342.60000610352</ele>
        <time>2021-12-31T09:34:39.000Z</time>
      </trkpt>
      <trkpt lat="45.53943" lon="6.10912">
        <ele>342.79998779297</ele>
        <time>2021-12-31T09:34:40.000Z</time>
      </trkpt>
      <trkpt lat="45.53923" lon="6.10891">
        <ele>343.79998779297</ele>
        <time>2021-12-31T09:34:45.000Z</time>
      </trkpt>
      <trkpt lat="45.53911" lon="6.10877">
        <ele>344.20001220703</ele>
        <time>2021-12-31T09:34:48.000Z</time>
      </trkpt>
      <trkpt lat="45.53878" lon="6.1084">
        <ele>344.20001220703</ele>
        <time>2021-12-31T09:34:55.000Z</time>
      </trkpt>
      <trkpt lat="45.53834" lon="6.10792">
        <ele>343.60000610352</ele>
        <time>2021-12-31T09:35:04.000Z</time>
      </trkpt>
      <trkpt lat="45.53807" lon="6.10763">
        <ele>343.39999389648</ele>
        <time>2021-12-31T09:35:10.000Z</time>
      </trkpt>
      <trkpt lat="45.53802" lon="6.10757">
        <ele>343.39999389648</ele>
        <time>2021-12-31T09:35:11.000Z</time>
      </trkpt>
      <trkpt lat="45.53785" lon="6.10729">
        <ele>343.39999389648</ele>
        <time>2021-12-31T09:35:15.000Z</time>
      </trkpt>
      <trkpt lat="45.53776" lon="6.10714">
        <ele>343.20001220703</ele>
        <time>2021-12-31T09:35:17.000Z</time>
      </trkpt>
      <trkpt lat="45.53768" lon="6.10699">
        <ele>343</ele>
        <time>2021-12-31T09:35:19.000Z</time>
      </trkpt>
      <trkpt lat="45.53765" lon="6.10692">
        <ele>343</ele>
        <time>2021-12-31T09:35:20.000Z</time>
      </trkpt>
      <trkpt lat="45.53761" lon="6.10685">
        <ele>342.79998779297</ele>
        <time>2021-12-31T09:35:21.000Z</time>
      </trkpt>
      <trkpt lat="45.53757" lon="6.10678">
        <ele>342.79998779297</ele>
        <time>2021-12-31T09:35:22.000Z</time>
      </trkpt>
      <trkpt lat="45.5374" lon="6.10648">
        <ele>342.60000610352</ele>
        <time>2021-12-31T09:35:26.000Z</time>
      </trkpt>
      <trkpt lat="45.53711" lon="6.106">
        <ele>342.39999389648</ele>
        <time>2021-12-31T09:35:33.000Z</time>
      </trkpt>
      <trkpt lat="45.53676" lon="6.10548">
        <ele>342</ele>
        <time>2021-12-31T09:35:41.000Z</time>
      </trkpt>
      <trkpt lat="45.53639" lon="6.10513">
        <ele>342.60000610352</ele>
        <time>2021-12-31T09:35:49.000Z</time>
      </trkpt>
      <trkpt lat="45.53621" lon="6.10498">
        <ele>343.79998779297</ele>
        <time>2021-12-31T09:35:53.000Z</time>
      </trkpt>
      <trkpt lat="45.53614" lon="6.10491">
        <ele>344.20001220703</ele>
        <time>2021-12-31T09:35:55.000Z</time>
      </trkpt>
      <trkpt lat="45.53609" lon="6.10488">
        <ele>344.60000610352</ele>
        <time>2021-12-31T09:35:56.000Z</time>
      </trkpt>
      <trkpt lat="45.536" lon="6.10482">
        <ele>344.79998779297</ele>
        <time>2021-12-31T09:35:58.000Z</time>
      </trkpt>
      <trkpt lat="45.53596" lon="6.10479">
        <ele>345</ele>
        <time>2021-12-31T09:35:59.000Z</time>
      </trkpt>
      <trkpt lat="45.53567" lon="6.10453">
        <ele>345.79998779297</ele>
        <time>2021-12-31T09:36:05.000Z</time>
      </trkpt>
      <trkpt lat="45.53562" lon="6.10449">
        <ele>346</ele>
        <time>2021-12-31T09:36:06.000Z</time>
      </trkpt>
      <trkpt lat="45.53524" lon="6.10417">
        <ele>346.39999389648</ele>
        <time>2021-12-31T09:36:14.000Z</time>
      </trkpt>
      <trkpt lat="45.53479" lon="6.10377">
        <ele>346.60000610352</ele>
        <time>2021-12-31T09:36:23.000Z</time>
      </trkpt>
      <trkpt lat="45.53439" lon="6.10341">
        <ele>346.60000610352</ele>
        <time>2021-12-31T09:36:31.000Z</time>
      </trkpt>
      <trkpt lat="45.53387" lon="6.10296">
        <ele>346.20001220703</ele>
        <time>2021-12-31T09:36:40.000Z</time>
      </trkpt>
      <trkpt lat="45.53342" lon="6.10258">
        <ele>344.79998779297</ele>
        <time>2021-12-31T09:36:47.000Z</time>
      </trkpt>
      <trkpt lat="45.53321" lon="6.1024">
        <ele>343.60000610352</ele>
        <time>2021-12-31T09:36:50.000Z</time>
      </trkpt>
      <trkpt lat="45.53273" lon="6.102">
        <ele>342.39999389648</ele>
        <time>2021-12-31T09:36:57.000Z</time>
      </trkpt>
      <trkpt lat="45.53234" lon="6.10166">
        <ele>341.39999389648</ele>
        <time>2021-12-31T09:37:03.000Z</time>
      </trkpt>
      <trkpt lat="45.53228" lon="6.10159">
        <ele>341.20001220703</ele>
        <time>2021-12-31T09:37:04.000Z</time>
      </trkpt>
      <trkpt lat="45.53196" lon="6.10118">
        <ele>340.20001220703</ele>
        <time>2021-12-31T09:37:10.000Z</time>
      </trkpt>
      <trkpt lat="45.53163" lon="6.10064">
        <ele>339.79998779297</ele>
        <time>2021-12-31T09:37:17.000Z</time>
      </trkpt>
      <trkpt lat="45.53126" lon="6.10005">
        <ele>339.20001220703</ele>
        <time>2021-12-31T09:37:25.000Z</time>
      </trkpt>
      <trkpt lat="45.53122" lon="6.09998">
        <ele>339.20001220703</ele>
        <time>2021-12-31T09:37:26.000Z</time>
      </trkpt>
      <trkpt lat="45.53117" lon="6.09991">
        <ele>339.20001220703</ele>
        <time>2021-12-31T09:37:27.000Z</time>
      </trkpt>
      <trkpt lat="45.53077" lon="6.09928">
        <ele>338.79998779297</ele>
        <time>2021-12-31T09:37:36.000Z</time>
      </trkpt>
      <trkpt lat="45.53043" lon="6.09874">
        <ele>339.60000610352</ele>
        <time>2021-12-31T09:37:44.000Z</time>
      </trkpt>
      <trkpt lat="45.5301" lon="6.09822">
        <ele>340.39999389648</ele>
        <time>2021-12-31T09:37:52.000Z</time>
      </trkpt>
      <trkpt lat="45.53001" lon="6.09808">
        <ele>340.60000610352</ele>
        <time>2021-12-31T09:37:54.000Z</time>
      </trkpt>
      <trkpt lat="45.52976" lon="6.09767">
        <ele>341.39999389648</ele>
        <time>2021-12-31T09:38:00.000Z</time>
      </trkpt>
      <trkpt lat="45.52955" lon="6.09735">
        <ele>341.79998779297</ele>
        <time>2021-12-31T09:38:05.000Z</time>
      </trkpt>
      <trkpt lat="45.52921" lon="6.09679">
        <ele>342.39999389648</ele>
        <time>2021-12-31T09:38:14.000Z</time>
      </trkpt>
      <trkpt lat="45.52914" lon="6.09666">
        <ele>342.60000610352</ele>
        <time>2021-12-31T09:38:16.000Z</time>
      </trkpt>
      <trkpt lat="45.52892" lon="6.09619">
        <ele>343.20001220703</ele>
        <time>2021-12-31T09:38:23.000Z</time>
      </trkpt>
      <trkpt lat="45.52886" lon="6.09598">
        <ele>343.60000610352</ele>
        <time>2021-12-31T09:38:26.000Z</time>
      </trkpt>
      <trkpt lat="45.52884" lon="6.09582">
        <ele>343.79998779297</ele>
        <time>2021-12-31T09:38:28.000Z</time>
      </trkpt>
      <trkpt lat="45.52885" lon="6.09557">
        <ele>344.20001220703</ele>
        <time>2021-12-31T09:38:31.000Z</time>
      </trkpt>
      <trkpt lat="45.52888" lon="6.0954">
        <ele>344.20001220703</ele>
        <time>2021-12-31T09:38:33.000Z</time>
      </trkpt>
      <trkpt lat="45.52893" lon="6.09523">
        <ele>344.20001220703</ele>
        <time>2021-12-31T09:38:35.000Z</time>
      </trkpt>
      <trkpt lat="45.52898" lon="6.09505">
        <ele>344.20001220703</ele>
        <time>2021-12-31T09:38:37.000Z</time>
      </trkpt>
      <trkpt lat="45.52901" lon="6.09496">
        <ele>344.20001220703</ele>
        <time>2021-12-31T09:38:38.000Z</time>
      </trkpt>
      <trkpt lat="45.52923" lon="6.09433">
        <ele>343.60000610352</ele>
        <time>2021-12-31T09:38:45.000Z</time>
      </trkpt>
      <trkpt lat="45.52939" lon="6.09378">
        <ele>343</ele>
        <time>2021-12-31T09:38:51.000Z</time>
      </trkpt>
      <trkpt lat="45.5294" lon="6.09369">
        <ele>343</ele>
        <time>2021-12-31T09:38:52.000Z</time>
      </trkpt>
      <trkpt lat="45.5294" lon="6.09359">
        <ele>342.79998779297</ele>
        <time>2021-12-31T09:38:53.000Z</time>
      </trkpt>
      <trkpt lat="45.52936" lon="6.0934">
        <ele>342.79998779297</ele>
        <time>2021-12-31T09:38:55.000Z</time>
      </trkpt>
      <trkpt lat="45.52917" lon="6.09307">
        <ele>342.60000610352</ele>
        <time>2021-12-31T09:38:59.000Z</time>
      </trkpt>
      <trkpt lat="45.52912" lon="6.09299">
        <ele>342.60000610352</ele>
        <time>2021-12-31T09:39:00.000Z</time>
      </trkpt>
      <trkpt lat="45.52894" lon="6.09265">
        <ele>342.20001220703</ele>
        <time>2021-12-31T09:39:04.000Z</time>
      </trkpt>
      <trkpt lat="45.5289" lon="6.09255">
        <ele>341.79998779297</ele>
        <time>2021-12-31T09:39:05.000Z</time>
      </trkpt>
      <trkpt lat="45.52886" lon="6.09246">
        <ele>341.39999389648</ele>
        <time>2021-12-31T09:39:06.000Z</time>
      </trkpt>
      <trkpt lat="45.52881" lon="6.09238">
        <ele>341.20001220703</ele>
        <time>2021-12-31T09:39:07.000Z</time>
      </trkpt>
      <trkpt lat="45.5287" lon="6.09224">
        <ele>340.79998779297</ele>
        <time>2021-12-31T09:39:09.000Z</time>
      </trkpt>
      <trkpt lat="45.52857" lon="6.09214">
        <ele>340.60000610352</ele>
        <time>2021-12-31T09:39:11.000Z</time>
      </trkpt>
      <trkpt lat="45.52851" lon="6.0921">
        <ele>340.39999389648</ele>
        <time>2021-12-31T09:39:12.000Z</time>
      </trkpt>
      <trkpt lat="45.52844" lon="6.09207">
        <ele>340.39999389648</ele>
        <time>2021-12-31T09:39:13.000Z</time>
      </trkpt>
      <trkpt lat="45.52824" lon="6.09205">
        <ele>340.20001220703</ele>
        <time>2021-12-31T09:39:16.000Z</time>
      </trkpt>
      <trkpt lat="45.52818" lon="6.09206">
        <ele>340.39999389648</ele>
        <time>2021-12-31T09:39:17.000Z</time>
      </trkpt>
      <trkpt lat="45.52789" lon="6.09212">
        <ele>340.60000610352</ele>
        <time>2021-12-31T09:39:22.000Z</time>
      </trkpt>
      <trkpt lat="45.52774" lon="6.09216">
        <ele>341</ele>
        <time>2021-12-31T09:39:25.000Z</time>
      </trkpt>
      <trkpt lat="45.52765" lon="6.09222">
        <ele>341.20001220703</ele>
        <time>2021-12-31T09:39:27.000Z</time>
      </trkpt>
      <trkpt lat="45.52761" lon="6.09227">
        <ele>341.60000610352</ele>
        <time>2021-12-31T09:39:28.000Z</time>
      </trkpt>
      <trkpt lat="45.52758" lon="6.09234">
        <ele>341.79998779297</ele>
        <time>2021-12-31T09:39:29.000Z</time>
      </trkpt>
      <trkpt lat="45.52756" lon="6.09242">
        <ele>341.79998779297</ele>
        <time>2021-12-31T09:39:30.000Z</time>
      </trkpt>
      <trkpt lat="45.52738" lon="6.09287">
        <ele>341.79998779297</ele>
        <time>2021-12-31T09:39:35.000Z</time>
      </trkpt>
      <trkpt lat="45.52726" lon="6.09314">
        <ele>341</ele>
        <time>2021-12-31T09:39:38.000Z</time>
      </trkpt>
      <trkpt lat="45.52715" lon="6.09328">
        <ele>340.79998779297</ele>
        <time>2021-12-31T09:39:40.000Z</time>
      </trkpt>
      <trkpt lat="45.52708" lon="6.09333">
        <ele>340.39999389648</ele>
        <time>2021-12-31T09:39:41.000Z</time>
      </trkpt>
      <trkpt lat="45.52699" lon="6.09336">
        <ele>340.20001220703</ele>
        <time>2021-12-31T09:39:42.000Z</time>
      </trkpt>
      <trkpt lat="45.52691" lon="6.09336">
        <ele>339.79998779297</ele>
        <time>2021-12-31T09:39:43.000Z</time>
      </trkpt>
      <trkpt lat="45.52682" lon="6.09334">
        <ele>339.39999389648</ele>
        <time>2021-12-31T09:39:44.000Z</time>
      </trkpt>
      <trkpt lat="45.52665" lon="6.09326">
        <ele>338.20001220703</ele>
        <time>2021-12-31T09:39:46.000Z</time>
      </trkpt>
      <trkpt lat="45.52648" lon="6.09316">
        <ele>337.20001220703</ele>
        <time>2021-12-31T09:39:48.000Z</time>
      </trkpt>
      <trkpt lat="45.52622" lon="6.09301">
        <ele>335.79998779297</ele>
        <time>2021-12-31T09:39:51.000Z</time>
      </trkpt>
      <trkpt lat="45.52613" lon="6.09297">
        <ele>335.60000610352</ele>
        <time>2021-12-31T09:39:52.000Z</time>
      </trkpt>
      <trkpt lat="45.52595" lon="6.09293">
        <ele>334.39999389648</ele>
        <time>2021-12-31T09:39:54.000Z</time>
      </trkpt>
      <trkpt lat="45.5256" lon="6.09285">
        <ele>333.39999389648</ele>
        <time>2021-12-31T09:39:58.000Z</time>
      </trkpt>
      <trkpt lat="45.52527" lon="6.09277">
        <ele>332.20001220703</ele>
        <time>2021-12-31T09:40:02.000Z</time>
      </trkpt>
      <trkpt lat="45.5252" lon="6.09278">
        <ele>332</ele>
        <time>2021-12-31T09:40:03.000Z</time>
      </trkpt>
      <trkpt lat="45.52496" lon="6.09279">
        <ele>331.60000610352</ele>
        <time>2021-12-31T09:40:06.000Z</time>
      </trkpt>
      <trkpt lat="45.52482" lon="6.09273">
        <ele>331.39999389648</ele>
        <time>2021-12-31T09:40:08.000Z</time>
      </trkpt>
      <trkpt lat="45.52464" lon="6.09254">
        <ele>331.20001220703</ele>
        <time>2021-12-31T09:40:11.000Z</time>
      </trkpt>
      <trkpt lat="45.52458" lon="6.09247">
        <ele>331</ele>
        <time>2021-12-31T09:40:12.000Z</time>
      </trkpt>
      <trkpt lat="45.52425" lon="6.09211">
        <ele>330</ele>
        <time>2021-12-31T09:40:17.000Z</time>
      </trkpt>
      <trkpt lat="45.52404" lon="6.09191">
        <ele>329.39999389648</ele>
        <time>2021-12-31T09:40:20.000Z</time>
      </trkpt>
      <trkpt lat="45.52388" lon="6.09177">
        <ele>329</ele>
        <time>2021-12-31T09:40:22.000Z</time>
      </trkpt>
      <trkpt lat="45.52359" lon="6.0915">
        <ele>327.39999389648</ele>
        <time>2021-12-31T09:40:26.000Z</time>
      </trkpt>
      <trkpt lat="45.52352" lon="6.09144">
        <ele>327.20001220703</ele>
        <time>2021-12-31T09:40:27.000Z</time>
      </trkpt>
      <trkpt lat="45.52344" lon="6.09139">
        <ele>326.79998779297</ele>
        <time>2021-12-31T09:40:28.000Z</time>
      </trkpt>
      <trkpt lat="45.52318" lon="6.09125">
        <ele>326</ele>
        <time>2021-12-31T09:40:31.000Z</time>
      </trkpt>
      <trkpt lat="45.52302" lon="6.09115">
        <ele>325.20001220703</ele>
        <time>2021-12-31T09:40:33.000Z</time>
      </trkpt>
      <trkpt lat="45.52293" lon="6.09112">
        <ele>324.79998779297</ele>
        <time>2021-12-31T09:40:34.000Z</time>
      </trkpt>
      <trkpt lat="45.52276" lon="6.09106">
        <ele>323.79998779297</ele>
        <time>2021-12-31T09:40:36.000Z</time>
      </trkpt>
      <trkpt lat="45.52268" lon="6.09102">
        <ele>323.79998779297</ele>
        <time>2021-12-31T09:40:37.000Z</time>
      </trkpt>
      <trkpt lat="45.52261" lon="6.09097">
        <ele>323.39999389648</ele>
        <time>2021-12-31T09:40:38.000Z</time>
      </trkpt>
      <trkpt lat="45.52249" lon="6.09087">
        <ele>322.60000610352</ele>
        <time>2021-12-31T09:40:40.000Z</time>
      </trkpt>
      <trkpt lat="45.52237" lon="6.09075">
        <ele>322.39999389648</ele>
        <time>2021-12-31T09:40:42.000Z</time>
      </trkpt>
      <trkpt lat="45.52219" lon="6.09056">
        <ele>321.60000610352</ele>
        <time>2021-12-31T09:40:45.000Z</time>
      </trkpt>
      <trkpt lat="45.52201" lon="6.09037">
        <ele>320.39999389648</ele>
        <time>2021-12-31T09:40:48.000Z</time>
      </trkpt>
      <trkpt lat="45.52181" lon="6.09017">
        <ele>318.79998779297</ele>
        <time>2021-12-31T09:40:51.000Z</time>
      </trkpt>
      <trkpt lat="45.52168" lon="6.09002">
        <ele>317.79998779297</ele>
        <time>2021-12-31T09:40:53.000Z</time>
      </trkpt>
      <trkpt lat="45.52161" lon="6.08994">
        <ele>317.39999389648</ele>
        <time>2021-12-31T09:40:54.000Z</time>
      </trkpt>
      <trkpt lat="45.52153" lon="6.08985">
        <ele>316.60000610352</ele>
        <time>2021-12-31T09:40:55.000Z</time>
      </trkpt>
      <trkpt lat="45.52139" lon="6.0897">
        <ele>315.20001220703</ele>
        <time>2021-12-31T09:40:57.000Z</time>
      </trkpt>
      <trkpt lat="45.52133" lon="6.08961">
        <ele>314</ele>
        <time>2021-12-31T09:40:58.000Z</time>
      </trkpt>
      <trkpt lat="45.52122" lon="6.08946">
        <ele>312.20001220703</ele>
        <time>2021-12-31T09:41:00.000Z</time>
      </trkpt>
      <trkpt lat="45.52116" lon="6.08938">
        <ele>311</ele>
        <time>2021-12-31T09:41:01.000Z</time>
      </trkpt>
      <trkpt lat="45.5211" lon="6.08932">
        <ele>310.79998779297</ele>
        <time>2021-12-31T09:41:02.000Z</time>
      </trkpt>
      <trkpt lat="45.52103" lon="6.08926">
        <ele>309.79998779297</ele>
        <time>2021-12-31T09:41:03.000Z</time>
      </trkpt>
      <trkpt lat="45.52097" lon="6.0892">
        <ele>309.20001220703</ele>
        <time>2021-12-31T09:41:04.000Z</time>
      </trkpt>
      <trkpt lat="45.52092" lon="6.08912">
        <ele>308</ele>
        <time>2021-12-31T09:41:05.000Z</time>
      </trkpt>
      <trkpt lat="45.52087" lon="6.08904">
        <ele>307.60000610352</ele>
        <time>2021-12-31T09:41:06.000Z</time>
      </trkpt>
      <trkpt lat="45.5208" lon="6.08896">
        <ele>307</ele>
        <time>2021-12-31T09:41:07.000Z</time>
      </trkpt>
      <trkpt lat="45.52074" lon="6.08889">
        <ele>306.20001220703</ele>
        <time>2021-12-31T09:41:08.000Z</time>
      </trkpt>
      <trkpt lat="45.52066" lon="6.08883">
        <ele>305.79998779297</ele>
        <time>2021-12-31T09:41:09.000Z</time>
      </trkpt>
      <trkpt lat="45.52045" lon="6.08868">
        <ele>305</ele>
        <time>2021-12-31T09:41:12.000Z</time>
      </trkpt>
      <trkpt lat="45.52039" lon="6.08863">
        <ele>304.79998779297</ele>
        <time>2021-12-31T09:41:13.000Z</time>
      </trkpt>
      <trkpt lat="45.52004" lon="6.08837">
        <ele>303.39999389648</ele>
        <time>2021-12-31T09:41:18.000Z</time>
      </trkpt>
      <trkpt lat="45.51964" lon="6.08812">
        <ele>302.60000610352</ele>
        <time>2021-12-31T09:41:24.000Z</time>
      </trkpt>
      <trkpt lat="45.51951" lon="6.08801">
        <ele>302.60000610352</ele>
        <time>2021-12-31T09:41:26.000Z</time>
      </trkpt>
      <trkpt lat="45.51941" lon="6.0879">
        <ele>302.20001220703</ele>
        <time>2021-12-31T09:41:28.000Z</time>
      </trkpt>
      <trkpt lat="45.51917" lon="6.08761">
        <ele>301.39999389648</ele>
        <time>2021-12-31T09:41:32.000Z</time>
      </trkpt>
      <trkpt lat="45.51905" lon="6.08747">
        <ele>301.20001220703</ele>
        <time>2021-12-31T09:41:34.000Z</time>
      </trkpt>
      <trkpt lat="45.51882" lon="6.08716">
        <ele>300.20001220703</ele>
        <time>2021-12-31T09:41:38.000Z</time>
      </trkpt>
      <trkpt lat="45.51877" lon="6.08706">
        <ele>300.20001220703</ele>
        <time>2021-12-31T09:41:39.000Z</time>
      </trkpt>
      <trkpt lat="45.51873" lon="6.08695">
        <ele>299.60000610352</ele>
        <time>2021-12-31T09:41:40.000Z</time>
      </trkpt>
      <trkpt lat="45.51859" lon="6.0865">
        <ele>298.60000610352</ele>
        <time>2021-12-31T09:41:44.000Z</time>
      </trkpt>
      <trkpt lat="45.51855" lon="6.08638">
        <ele>298</ele>
        <time>2021-12-31T09:41:45.000Z</time>
      </trkpt>
      <trkpt lat="45.51843" lon="6.08603">
        <ele>297</ele>
        <time>2021-12-31T09:41:48.000Z</time>
      </trkpt>
      <trkpt lat="45.51838" lon="6.08593">
        <ele>296.20001220703</ele>
        <time>2021-12-31T09:41:49.000Z</time>
      </trkpt>
      <trkpt lat="45.51833" lon="6.08584">
        <ele>295.79998779297</ele>
        <time>2021-12-31T09:41:50.000Z</time>
      </trkpt>
      <trkpt lat="45.51813" lon="6.08561">
        <ele>295.39999389648</ele>
        <time>2021-12-31T09:41:53.000Z</time>
      </trkpt>
      <trkpt lat="45.51807" lon="6.08554">
        <ele>295.20001220703</ele>
        <time>2021-12-31T09:41:54.000Z</time>
      </trkpt>
      <trkpt lat="45.51771" lon="6.08518">
        <ele>294.39999389648</ele>
        <time>2021-12-31T09:42:00.000Z</time>
      </trkpt>
      <trkpt lat="45.5175" lon="6.08496">
        <ele>294.20001220703</ele>
        <time>2021-12-31T09:42:04.000Z</time>
      </trkpt>
      <trkpt lat="45.51734" lon="6.0848">
        <ele>294</ele>
        <time>2021-12-31T09:42:07.000Z</time>
      </trkpt>
      <trkpt lat="45.51694" lon="6.08435">
        <ele>293</ele>
        <time>2021-12-31T09:42:14.000Z</time>
      </trkpt>
      <trkpt lat="45.51689" lon="6.08428">
        <ele>292.60000610352</ele>
        <time>2021-12-31T09:42:15.000Z</time>
      </trkpt>
      <trkpt lat="45.51677" lon="6.08413">
        <ele>291.79998779297</ele>
        <time>2021-12-31T09:42:17.000Z</time>
      </trkpt>
      <trkpt lat="45.51659" lon="6.08388">
        <ele>290.79998779297</ele>
        <time>2021-12-31T09:42:20.000Z</time>
      </trkpt>
      <trkpt lat="45.51646" lon="6.0837">
        <ele>289.60000610352</ele>
        <time>2021-12-31T09:42:22.000Z</time>
      </trkpt>
      <trkpt lat="45.51624" lon="6.08341">
        <ele>288.60000610352</ele>
        <time>2021-12-31T09:42:25.000Z</time>
      </trkpt>
      <trkpt lat="45.51609" lon="6.08323">
        <ele>287</ele>
        <time>2021-12-31T09:42:27.000Z</time>
      </trkpt>
      <trkpt lat="45.51595" lon="6.08304">
        <ele>285.60000610352</ele>
        <time>2021-12-31T09:42:29.000Z</time>
      </trkpt>
      <trkpt lat="45.51579" lon="6.08286">
        <ele>284.39999389648</ele>
        <time>2021-12-31T09:42:31.000Z</time>
      </trkpt>
      <trkpt lat="45.51564" lon="6.08266">
        <ele>283.39999389648</ele>
        <time>2021-12-31T09:42:33.000Z</time>
      </trkpt>
      <trkpt lat="45.51556" lon="6.08257">
        <ele>282.60000610352</ele>
        <time>2021-12-31T09:42:34.000Z</time>
      </trkpt>
      <trkpt lat="45.51541" lon="6.08236">
        <ele>281.20001220703</ele>
        <time>2021-12-31T09:42:36.000Z</time>
      </trkpt>
      <trkpt lat="45.51533" lon="6.08225">
        <ele>280.20001220703</ele>
        <time>2021-12-31T09:42:37.000Z</time>
      </trkpt>
      <trkpt lat="45.51516" lon="6.08203">
        <ele>278.39999389648</ele>
        <time>2021-12-31T09:42:39.000Z</time>
      </trkpt>
      <trkpt lat="45.515" lon="6.08179">
        <ele>277</ele>
        <time>2021-12-31T09:42:41.000Z</time>
      </trkpt>
      <trkpt lat="45.51492" lon="6.08167">
        <ele>275.60000610352</ele>
        <time>2021-12-31T09:42:42.000Z</time>
      </trkpt>
      <trkpt lat="45.51474" lon="6.08142">
        <ele>274</ele>
        <time>2021-12-31T09:42:44.000Z</time>
      </trkpt>
      <trkpt lat="45.51456" lon="6.08117">
        <ele>271.60000610352</ele>
        <time>2021-12-31T09:42:46.000Z</time>
      </trkpt>
      <trkpt lat="45.51447" lon="6.08104">
        <ele>270.20001220703</ele>
        <time>2021-12-31T09:42:47.000Z</time>
      </trkpt>
      <trkpt lat="45.5143" lon="6.08079">
        <ele>268</ele>
        <time>2021-12-31T09:42:49.000Z</time>
      </trkpt>
      <trkpt lat="45.51414" lon="6.08055">
        <ele>265.60000610352</ele>
        <time>2021-12-31T09:42:51.000Z</time>
      </trkpt>
      <trkpt lat="45.51399" lon="6.08034">
        <ele>264.39999389648</ele>
        <time>2021-12-31T09:42:53.000Z</time>
      </trkpt>
      <trkpt lat="45.51376" lon="6.08">
        <ele>263.79998779297</ele>
        <time>2021-12-31T09:42:57.000Z</time>
      </trkpt>
      <trkpt lat="45.51359" lon="6.07972">
        <ele>265</ele>
        <time>2021-12-31T09:43:01.000Z</time>
      </trkpt>
      <trkpt lat="45.51352" lon="6.07959">
        <ele>266.39999389648</ele>
        <time>2021-12-31T09:43:03.000Z</time>
      </trkpt>
      <trkpt lat="45.51347" lon="6.07945">
        <ele>267</ele>
        <time>2021-12-31T09:43:05.000Z</time>
      </trkpt>
      <trkpt lat="45.51344" lon="6.07938">
        <ele>267.60000610352</ele>
        <time>2021-12-31T09:43:06.000Z</time>
      </trkpt>
      <trkpt lat="45.51337" lon="6.07918">
        <ele>269</ele>
        <time>2021-12-31T09:43:09.000Z</time>
      </trkpt>
      <trkpt lat="45.51333" lon="6.07903">
        <ele>269.60000610352</ele>
        <time>2021-12-31T09:43:11.000Z</time>
      </trkpt>
      <trkpt lat="45.5133" lon="6.07888">
        <ele>270.39999389648</ele>
        <time>2021-12-31T09:43:13.000Z</time>
      </trkpt>
      <trkpt lat="45.51325" lon="6.07873">
        <ele>271.20001220703</ele>
        <time>2021-12-31T09:43:15.000Z</time>
      </trkpt>
      <trkpt lat="45.51324" lon="6.07865">
        <ele>271.60000610352</ele>
        <time>2021-12-31T09:43:16.000Z</time>
      </trkpt>
      <trkpt lat="45.51322" lon="6.07857">
        <ele>271.60000610352</ele>
        <time>2021-12-31T09:43:17.000Z</time>
      </trkpt>
      <trkpt lat="45.51315" lon="6.07826">
        <ele>272.60000610352</ele>
        <time>2021-12-31T09:43:21.000Z</time>
      </trkpt>
      <trkpt lat="45.51307" lon="6.07794">
        <ele>273</ele>
        <time>2021-12-31T09:43:25.000Z</time>
      </trkpt>
      <trkpt lat="45.51288" lon="6.07719">
        <ele>273.20001220703</ele>
        <time>2021-12-31T09:43:34.000Z</time>
      </trkpt>
      <trkpt lat="45.51286" lon="6.07711">
        <ele>273.20001220703</ele>
        <time>2021-12-31T09:43:35.000Z</time>
      </trkpt>
      <trkpt lat="45.51268" lon="6.07662">
        <ele>273.60000610352</ele>
        <time>2021-12-31T09:43:41.000Z</time>
      </trkpt>
      <trkpt lat="45.51266" lon="6.07654">
        <ele>273.60000610352</ele>
        <time>2021-12-31T09:43:42.000Z</time>
      </trkpt>
      <trkpt lat="45.51264" lon="6.07645">
        <ele>273.79998779297</ele>
        <time>2021-12-31T09:43:43.000Z</time>
      </trkpt>
      <trkpt lat="45.51262" lon="6.07637">
        <ele>273.79998779297</ele>
        <time>2021-12-31T09:43:44.000Z</time>
      </trkpt>
      <trkpt lat="45.5126" lon="6.07629">
        <ele>273.79998779297</ele>
        <time>2021-12-31T09:43:45.000Z</time>
      </trkpt>
      <trkpt lat="45.51253" lon="6.07617">
        <ele>273.79998779297</ele>
        <time>2021-12-31T09:43:47.000Z</time>
      </trkpt>
      <trkpt lat="45.5123" lon="6.07577">
        <ele>274.20001220703</ele>
        <time>2021-12-31T09:43:53.000Z</time>
      </trkpt>
      <trkpt lat="45.51198" lon="6.0752">
        <ele>274.20001220703</ele>
        <time>2021-12-31T09:44:02.000Z</time>
      </trkpt>
      <trkpt lat="45.51179" lon="6.07489">
        <ele>274.60000610352</ele>
        <time>2021-12-31T09:44:07.000Z</time>
      </trkpt>
      <trkpt lat="45.51165" lon="6.07466">
        <ele>275</ele>
        <time>2021-12-31T09:44:11.000Z</time>
      </trkpt>
      <trkpt lat="45.51136" lon="6.07408">
        <ele>275</ele>
        <time>2021-12-31T09:44:20.000Z</time>
      </trkpt>
      <trkpt lat="45.51111" lon="6.07343">
        <ele>274.79998779297</ele>
        <time>2021-12-31T09:44:29.000Z</time>
      </trkpt>
      <trkpt lat="45.51109" lon="6.07327">
        <ele>274.60000610352</ele>
        <time>2021-12-31T09:44:31.000Z</time>
      </trkpt>
      <trkpt lat="45.51102" lon="6.07312">
        <ele>274.39999389648</ele>
        <time>2021-12-31T09:44:33.000Z</time>
      </trkpt>
      <trkpt lat="45.51099" lon="6.07306">
        <ele>274.39999389648</ele>
        <time>2021-12-31T09:44:34.000Z</time>
      </trkpt>
      <trkpt lat="45.51091" lon="6.07275">
        <ele>274.20001220703</ele>
        <time>2021-12-31T09:44:38.000Z</time>
      </trkpt>
      <trkpt lat="45.51089" lon="6.07267">
        <ele>274.20001220703</ele>
        <time>2021-12-31T09:44:39.000Z</time>
      </trkpt>
      <trkpt lat="45.51083" lon="6.07243">
        <ele>274</ele>
        <time>2021-12-31T09:44:42.000Z</time>
      </trkpt>
      <trkpt lat="45.51079" lon="6.07223">
        <ele>273.79998779297</ele>
        <time>2021-12-31T09:44:44.000Z</time>
      </trkpt>
      <trkpt lat="45.51072" lon="6.07197">
        <ele>273.60000610352</ele>
        <time>2021-12-31T09:44:47.000Z</time>
      </trkpt>
      <trkpt lat="45.51065" lon="6.07168">
        <ele>272.60000610352</ele>
        <time>2021-12-31T09:44:50.000Z</time>
      </trkpt>
      <trkpt lat="45.51062" lon="6.07158">
        <ele>272.39999389648</ele>
        <time>2021-12-31T09:44:51.000Z</time>
      </trkpt>
      <trkpt lat="45.51055" lon="6.07126">
        <ele>271.39999389648</ele>
        <time>2021-12-31T09:44:54.000Z</time>
      </trkpt>
      <trkpt lat="45.51049" lon="6.07097">
        <ele>271</ele>
        <time>2021-12-31T09:44:57.000Z</time>
      </trkpt>
      <trkpt lat="45.51033" lon="6.07035">
        <ele>270.60000610352</ele>
        <time>2021-12-31T09:45:04.000Z</time>
      </trkpt>
      <trkpt lat="45.51019" lon="6.06999">
        <ele>271.39999389648</ele>
        <time>2021-12-31T09:45:09.000Z</time>
      </trkpt>
      <trkpt lat="45.51011" lon="6.06986">
        <ele>271.79998779297</ele>
        <time>2021-12-31T09:45:11.000Z</time>
      </trkpt>
      <trkpt lat="45.50999" lon="6.06971">
        <ele>272.60000610352</ele>
        <time>2021-12-31T09:45:14.000Z</time>
      </trkpt>
      <trkpt lat="45.50983" lon="6.06954">
        <ele>274</ele>
        <time>2021-12-31T09:45:18.000Z</time>
      </trkpt>
      <trkpt lat="45.50971" lon="6.06942">
        <ele>274.60000610352</ele>
        <time>2021-12-31T09:45:21.000Z</time>
      </trkpt>
      <trkpt lat="45.50966" lon="6.06938">
        <ele>275</ele>
        <time>2021-12-31T09:45:22.000Z</time>
      </trkpt>
      <trkpt lat="45.50949" lon="6.06924">
        <ele>276</ele>
        <time>2021-12-31T09:45:26.000Z</time>
      </trkpt>
      <trkpt lat="45.50945" lon="6.06921">
        <ele>276.20001220703</ele>
        <time>2021-12-31T09:45:27.000Z</time>
      </trkpt>
      <trkpt lat="45.5094" lon="6.06918">
        <ele>276.39999389648</ele>
        <time>2021-12-31T09:45:28.000Z</time>
      </trkpt>
      <trkpt lat="45.50931" lon="6.06911">
        <ele>277.20001220703</ele>
        <time>2021-12-31T09:45:30.000Z</time>
      </trkpt>
      <trkpt lat="45.50926" lon="6.06908">
        <ele>277.39999389648</ele>
        <time>2021-12-31T09:45:31.000Z</time>
      </trkpt>
      <trkpt lat="45.50916" lon="6.06903">
        <ele>278</ele>
        <time>2021-12-31T09:45:33.000Z</time>
      </trkpt>
      <trkpt lat="45.50911" lon="6.069">
        <ele>278.20001220703</ele>
        <time>2021-12-31T09:45:34.000Z</time>
      </trkpt>
      <trkpt lat="45.50882" lon="6.06876">
        <ele>278.79998779297</ele>
        <time>2021-12-31T09:45:40.000Z</time>
      </trkpt>
      <trkpt lat="45.50868" lon="6.06856">
        <ele>279</ele>
        <time>2021-12-31T09:45:43.000Z</time>
      </trkpt>
      <trkpt lat="45.50861" lon="6.06842">
        <ele>279</ele>
        <time>2021-12-31T09:45:45.000Z</time>
      </trkpt>
      <trkpt lat="45.50844" lon="6.06803">
        <ele>278.39999389648</ele>
        <time>2021-12-31T09:45:50.000Z</time>
      </trkpt>
      <trkpt lat="45.50842" lon="6.06794">
        <ele>278.20001220703</ele>
        <time>2021-12-31T09:45:51.000Z</time>
      </trkpt>
      <trkpt lat="45.50833" lon="6.06744">
        <ele>278</ele>
        <time>2021-12-31T09:45:57.000Z</time>
      </trkpt>
      <trkpt lat="45.50833" lon="6.06738">
        <ele>278</ele>
        <time>2021-12-31T09:45:58.000Z</time>
      </trkpt>
      <trkpt lat="45.50832" lon="6.0673">
        <ele>278.20001220703</ele>
        <time>2021-12-31T09:45:59.000Z</time>
      </trkpt>
      <trkpt lat="45.50831" lon="6.06707">
        <ele>279</ele>
        <time>2021-12-31T09:46:02.000Z</time>
      </trkpt>
      <trkpt lat="45.50831" lon="6.067">
        <ele>279.20001220703</ele>
        <time>2021-12-31T09:46:03.000Z</time>
      </trkpt>
      <trkpt lat="45.50831" lon="6.06679">
        <ele>280.20001220703</ele>
        <time>2021-12-31T09:46:06.000Z</time>
      </trkpt>
      <trkpt lat="45.50831" lon="6.06672">
        <ele>280.60000610352</ele>
        <time>2021-12-31T09:46:07.000Z</time>
      </trkpt>
      <trkpt lat="45.5083" lon="6.06665">
        <ele>280.79998779297</ele>
        <time>2021-12-31T09:46:08.000Z</time>
      </trkpt>
      <trkpt lat="45.5083" lon="6.0665">
        <ele>281.60000610352</ele>
        <time>2021-12-31T09:46:10.000Z</time>
      </trkpt>
      <trkpt lat="45.50829" lon="6.06643">
        <ele>281.79998779297</ele>
        <time>2021-12-31T09:46:11.000Z</time>
      </trkpt>
      <trkpt lat="45.50828" lon="6.06627">
        <ele>282</ele>
        <time>2021-12-31T09:46:13.000Z</time>
      </trkpt>
      <trkpt lat="45.50827" lon="6.06619">
        <ele>282.39999389648</ele>
        <time>2021-12-31T09:46:14.000Z</time>
      </trkpt>
      <trkpt lat="45.50825" lon="6.06611">
        <ele>282.39999389648</ele>
        <time>2021-12-31T09:46:15.000Z</time>
      </trkpt>
      <trkpt lat="45.50819" lon="6.06576">
        <ele>282.60000610352</ele>
        <time>2021-12-31T09:46:19.000Z</time>
      </trkpt>
      <trkpt lat="45.50808" lon="6.06525">
        <ele>281.79998779297</ele>
        <time>2021-12-31T09:46:24.000Z</time>
      </trkpt>
      <trkpt lat="45.50805" lon="6.06513">
        <ele>281.39999389648</ele>
        <time>2021-12-31T09:46:25.000Z</time>
      </trkpt>
      <trkpt lat="45.50797" lon="6.06477">
        <ele>280.39999389648</ele>
        <time>2021-12-31T09:46:28.000Z</time>
      </trkpt>
      <trkpt lat="45.50793" lon="6.06456">
        <ele>279</ele>
        <time>2021-12-31T09:46:30.000Z</time>
      </trkpt>
      <trkpt lat="45.50789" lon="6.06442">
        <ele>278.20001220703</ele>
        <time>2021-12-31T09:46:32.000Z</time>
      </trkpt>
      <trkpt lat="45.50788" lon="6.06437">
        <ele>277.79998779297</ele>
        <time>2021-12-31T09:46:33.000Z</time>
      </trkpt>
      <trkpt lat="45.50785" lon="6.0643">
        <ele>276.20001220703</ele>
        <time>2021-12-31T09:46:35.000Z</time>
      </trkpt>
      <trkpt lat="45.50778" lon="6.06419">
        <ele>275.20001220703</ele>
        <time>2021-12-31T09:46:37.000Z</time>
      </trkpt>
      <trkpt lat="45.50774" lon="6.06411">
        <ele>275</ele>
        <time>2021-12-31T09:46:38.000Z</time>
      </trkpt>
      <trkpt lat="45.50767" lon="6.06394">
        <ele>274.20001220703</ele>
        <time>2021-12-31T09:46:40.000Z</time>
      </trkpt>
      <trkpt lat="45.50754" lon="6.06369">
        <ele>274</ele>
        <time>2021-12-31T09:46:43.000Z</time>
      </trkpt>
      <trkpt lat="45.50737" lon="6.06325">
        <ele>272.60000610352</ele>
        <time>2021-12-31T09:46:47.000Z</time>
      </trkpt>
      <trkpt lat="45.50734" lon="6.06314">
        <ele>272.20001220703</ele>
        <time>2021-12-31T09:46:48.000Z</time>
      </trkpt>
      <trkpt lat="45.50731" lon="6.06304">
        <ele>271.39999389648</ele>
        <time>2021-12-31T09:46:49.000Z</time>
      </trkpt>
      <trkpt lat="45.50726" lon="6.06296">
        <ele>271</ele>
        <time>2021-12-31T09:46:50.000Z</time>
      </trkpt>
      <trkpt lat="45.5072" lon="6.06292">
        <ele>270.20001220703</ele>
        <time>2021-12-31T09:46:51.000Z</time>
      </trkpt>
      <trkpt lat="45.50712" lon="6.06289">
        <ele>269.20001220703</ele>
        <time>2021-12-31T09:46:52.000Z</time>
      </trkpt>
      <trkpt lat="45.50704" lon="6.06287">
        <ele>268.79998779297</ele>
        <time>2021-12-31T09:46:53.000Z</time>
      </trkpt>
      <trkpt lat="45.50695" lon="6.06284">
        <ele>267.60000610352</ele>
        <time>2021-12-31T09:46:54.000Z</time>
      </trkpt>
      <trkpt lat="45.50678" lon="6.06279">
        <ele>266.39999389648</ele>
        <time>2021-12-31T09:46:56.000Z</time>
      </trkpt>
      <trkpt lat="45.5066" lon="6.06276">
        <ele>265</ele>
        <time>2021-12-31T09:46:58.000Z</time>
      </trkpt>
      <trkpt lat="45.5065" lon="6.06274">
        <ele>264</ele>
        <time>2021-12-31T09:46:59.000Z</time>
      </trkpt>
      <trkpt lat="45.50643" lon="6.06274">
        <ele>263.39999389648</ele>
        <time>2021-12-31T09:47:00.000Z</time>
      </trkpt>
      <trkpt lat="45.50636" lon="6.06272">
        <ele>262.20001220703</ele>
        <time>2021-12-31T09:47:01.000Z</time>
      </trkpt>
      <trkpt lat="45.50624" lon="6.06262">
        <ele>261</ele>
        <time>2021-12-31T09:47:03.000Z</time>
      </trkpt>
      <trkpt lat="45.50613" lon="6.06251">
        <ele>260.20001220703</ele>
        <time>2021-12-31T09:47:05.000Z</time>
      </trkpt>
      <trkpt lat="45.50607" lon="6.06247">
        <ele>259.60000610352</ele>
        <time>2021-12-31T09:47:06.000Z</time>
      </trkpt>
      <trkpt lat="45.506" lon="6.06245">
        <ele>259.20001220703</ele>
        <time>2021-12-31T09:47:07.000Z</time>
      </trkpt>
      <trkpt lat="45.50566" lon="6.06243">
        <ele>258.60000610352</ele>
        <time>2021-12-31T09:47:12.000Z</time>
      </trkpt>
      <trkpt lat="45.5056" lon="6.06243">
        <ele>258.39999389648</ele>
        <time>2021-12-31T09:47:13.000Z</time>
      </trkpt>
      <trkpt lat="45.50519" lon="6.0624">
        <ele>257.39999389648</ele>
        <time>2021-12-31T09:47:19.000Z</time>
      </trkpt>
      <trkpt lat="45.50499" lon="6.06238">
        <ele>257.20001220703</ele>
        <time>2021-12-31T09:47:22.000Z</time>
      </trkpt>
      <trkpt lat="45.50447" lon="6.0624">
        <ele>256.79998779297</ele>
        <time>2021-12-31T09:47:30.000Z</time>
      </trkpt>
      <trkpt lat="45.50427" lon="6.06232">
        <ele>256.79998779297</ele>
        <time>2021-12-31T09:47:33.000Z</time>
      </trkpt>
      <trkpt lat="45.50421" lon="6.06232">
        <ele>257.20001220703</ele>
        <time>2021-12-31T09:47:34.000Z</time>
      </trkpt>
      <trkpt lat="45.50416" lon="6.06236">
        <ele>257.20001220703</ele>
        <time>2021-12-31T09:47:35.000Z</time>
      </trkpt>
      <trkpt lat="45.50414" lon="6.06243">
        <ele>257.39999389648</ele>
        <time>2021-12-31T09:47:36.000Z</time>
      </trkpt>
      <trkpt lat="45.50414" lon="6.06252">
        <ele>257.39999389648</ele>
        <time>2021-12-31T09:47:37.000Z</time>
      </trkpt>
      <trkpt lat="45.50416" lon="6.0627">
        <ele>257.39999389648</ele>
        <time>2021-12-31T09:47:39.000Z</time>
      </trkpt>
      <trkpt lat="45.50423" lon="6.06317">
        <ele>257.20001220703</ele>
        <time>2021-12-31T09:47:44.000Z</time>
      </trkpt>
      <trkpt lat="45.50425" lon="6.06326">
        <ele>257.20001220703</ele>
        <time>2021-12-31T09:47:45.000Z</time>
      </trkpt>
      <trkpt lat="45.50428" lon="6.06334">
        <ele>257</ele>
        <time>2021-12-31T09:47:46.000Z</time>
      </trkpt>
      <trkpt lat="45.50435" lon="6.0635">
        <ele>256.79998779297</ele>
        <time>2021-12-31T09:47:48.000Z</time>
      </trkpt>
      <trkpt lat="45.50443" lon="6.06384">
        <ele>256.60000610352</ele>
        <time>2021-12-31T09:47:52.000Z</time>
      </trkpt>
      <trkpt lat="45.50455" lon="6.06441">
        <ele>256.20001220703</ele>
        <time>2021-12-31T09:47:58.000Z</time>
      </trkpt>
      <trkpt lat="45.50456" lon="6.06451">
        <ele>256.20001220703</ele>
        <time>2021-12-31T09:47:59.000Z</time>
      </trkpt>
      <trkpt lat="45.50457" lon="6.06461">
        <ele>256</ele>
        <time>2021-12-31T09:48:00.000Z</time>
      </trkpt>
      <trkpt lat="45.50455" lon="6.0648">
        <ele>255.60000610352</ele>
        <time>2021-12-31T09:48:02.000Z</time>
      </trkpt>
      <trkpt lat="45.5045" lon="6.065">
        <ele>255.39999389648</ele>
        <time>2021-12-31T09:48:04.000Z</time>
      </trkpt>
      <trkpt lat="45.50441" lon="6.06526">
        <ele>255.19999694824</ele>
        <time>2021-12-31T09:48:07.000Z</time>
      </trkpt>
      <trkpt lat="45.50432" lon="6.0654">
        <ele>255</ele>
        <time>2021-12-31T09:48:09.000Z</time>
      </trkpt>
      <trkpt lat="45.50401" lon="6.06575">
        <ele>254.19999694824</ele>
        <time>2021-12-31T09:48:15.000Z</time>
      </trkpt>
      <trkpt lat="45.50397" lon="6.0658">
        <ele>254</ele>
        <time>2021-12-31T09:48:16.000Z</time>
      </trkpt>
      <trkpt lat="45.50354" lon="6.06625">
        <ele>253.39999389648</ele>
        <time>2021-12-31T09:48:24.000Z</time>
      </trkpt>
      <trkpt lat="45.50344" lon="6.06637">
        <ele>253.19999694824</ele>
        <time>2021-12-31T09:48:27.000Z</time>
      </trkpt>
      <trkpt lat="45.5034" lon="6.0664">
        <ele>253.19999694824</ele>
        <time>2021-12-31T09:48:28.000Z</time>
      </trkpt>
      <trkpt lat="45.50337" lon="6.06639">
        <ele>253</ele>
        <time>2021-12-31T09:48:29.000Z</time>
      </trkpt>
      <trkpt lat="45.50331" lon="6.06636">
        <ele>252.80000305176</ele>
        <time>2021-12-31T09:48:31.000Z</time>
      </trkpt>
      <trkpt lat="45.50319" lon="6.06633">
        <ele>252.60000610352</ele>
        <time>2021-12-31T09:48:34.000Z</time>
      </trkpt>
      <trkpt lat="45.50315" lon="6.06636">
        <ele>252.39999389648</ele>
        <time>2021-12-31T09:48:35.000Z</time>
      </trkpt>
      <trkpt lat="45.50307" lon="6.06645">
        <ele>252</ele>
        <time>2021-12-31T09:48:39.000Z</time>
      </trkpt>
      <trkpt lat="45.50307" lon="6.06648">
        <ele>251.80000305176</ele>
        <time>2021-12-31T09:48:40.000Z</time>
      </trkpt>
      <trkpt lat="45.50306" lon="6.06663">
        <ele>251.80000305176</ele>
        <time>2021-12-31T09:48:43.000Z</time>
      </trkpt>
      <trkpt lat="45.50301" lon="6.06676">
        <ele>251.80000305176</ele>
        <time>2021-12-31T09:48:45.000Z</time>
      </trkpt>
      <trkpt lat="45.50293" lon="6.06687">
        <ele>251.80000305176</ele>
        <time>2021-12-31T09:48:47.000Z</time>
      </trkpt>
      <trkpt lat="45.50256" lon="6.06727">
        <ele>252.19999694824</ele>
        <time>2021-12-31T09:48:55.000Z</time>
      </trkpt>
      <trkpt lat="45.50245" lon="6.06737">
        <ele>252.19999694824</ele>
        <time>2021-12-31T09:48:57.000Z</time>
      </trkpt>
      <trkpt lat="45.50229" lon="6.06745">
        <ele>252.19999694824</ele>
        <time>2021-12-31T09:49:00.000Z</time>
      </trkpt>
      <trkpt lat="45.50217" lon="6.0675">
        <ele>252.19999694824</ele>
        <time>2021-12-31T09:49:02.000Z</time>
      </trkpt>
      <trkpt lat="45.50206" lon="6.06748">
        <ele>252.19999694824</ele>
        <time>2021-12-31T09:49:04.000Z</time>
      </trkpt>
      <trkpt lat="45.50197" lon="6.06741">
        <ele>252.19999694824</ele>
        <time>2021-12-31T09:49:06.000Z</time>
      </trkpt>
      <trkpt lat="45.50193" lon="6.06736">
        <ele>252</ele>
        <time>2021-12-31T09:49:07.000Z</time>
      </trkpt>
      <trkpt lat="45.50183" lon="6.06717">
        <ele>252</ele>
        <time>2021-12-31T09:49:10.000Z</time>
      </trkpt>
      <trkpt lat="45.50177" lon="6.06701">
        <ele>252</ele>
        <time>2021-12-31T09:49:12.000Z</time>
      </trkpt>
      <trkpt lat="45.50154" lon="6.06637">
        <ele>252.39999389648</ele>
        <time>2021-12-31T09:49:20.000Z</time>
      </trkpt>
      <trkpt lat="45.50129" lon="6.06571">
        <ele>252.60000610352</ele>
        <time>2021-12-31T09:49:28.000Z</time>
      </trkpt>
      <trkpt lat="45.50101" lon="6.06499">
        <ele>252.60000610352</ele>
        <time>2021-12-31T09:49:37.000Z</time>
      </trkpt>
      <trkpt lat="45.50092" lon="6.06476">
        <ele>252.60000610352</ele>
        <time>2021-12-31T09:49:40.000Z</time>
      </trkpt>
      <trkpt lat="45.50074" lon="6.06429">
        <ele>252.39999389648</ele>
        <time>2021-12-31T09:49:46.000Z</time>
      </trkpt>
      <trkpt lat="45.50069" lon="6.06413">
        <ele>252.39999389648</ele>
        <time>2021-12-31T09:49:48.000Z</time>
      </trkpt>
      <trkpt lat="45.50065" lon="6.06398">
        <ele>252.39999389648</ele>
        <time>2021-12-31T09:49:50.000Z</time>
      </trkpt>
      <trkpt lat="45.50061" lon="6.06381">
        <ele>252.39999389648</ele>
        <time>2021-12-31T09:49:52.000Z</time>
      </trkpt>
      <trkpt lat="45.50045" lon="6.06343">
        <ele>252.19999694824</ele>
        <time>2021-12-31T09:49:57.000Z</time>
      </trkpt>
      <trkpt lat="45.50022" lon="6.0628">
        <ele>251.60000610352</ele>
        <time>2021-12-31T09:50:05.000Z</time>
      </trkpt>
      <trkpt lat="45.50005" lon="6.0623">
        <ele>251.19999694824</ele>
        <time>2021-12-31T09:50:12.000Z</time>
      </trkpt>
      <trkpt lat="45.4998" lon="6.06175">
        <ele>251.80000305176</ele>
        <time>2021-12-31T09:50:20.000Z</time>
      </trkpt>
      <trkpt lat="45.49974" lon="6.06162">
        <ele>252</ele>
        <time>2021-12-31T09:50:22.000Z</time>
      </trkpt>
      <trkpt lat="45.49966" lon="6.06138">
        <ele>252</ele>
        <time>2021-12-31T09:50:25.000Z</time>
      </trkpt>
      <trkpt lat="45.49952" lon="6.06099">
        <ele>252</ele>
        <time>2021-12-31T09:50:30.000Z</time>
      </trkpt>
      <trkpt lat="45.49944" lon="6.06076">
        <ele>251.60000610352</ele>
        <time>2021-12-31T09:50:33.000Z</time>
      </trkpt>
      <trkpt lat="45.4993" lon="6.06049">
        <ele>251.39999389648</ele>
        <time>2021-12-31T09:50:37.000Z</time>
      </trkpt>
      <trkpt lat="45.49914" lon="6.06018">
        <ele>251.39999389648</ele>
        <time>2021-12-31T09:50:41.000Z</time>
      </trkpt>
      <trkpt lat="45.49905" lon="6.06">
        <ele>251.39999389648</ele>
        <time>2021-12-31T09:50:44.000Z</time>
      </trkpt>
      <trkpt lat="45.49901" lon="6.05991">
        <ele>251.19999694824</ele>
        <time>2021-12-31T09:50:46.000Z</time>
      </trkpt>
      <trkpt lat="45.49899" lon="6.05987">
        <ele>251</ele>
        <time>2021-12-31T09:50:49.000Z</time>
      </trkpt>
      <trkpt lat="45.49898" lon="6.05984">
        <ele>250.80000305176</ele>
        <time>2021-12-31T09:50:55.000Z</time>
      </trkpt>
      <trkpt lat="45.49895" lon="6.05981">
        <ele>250.80000305176</ele>
        <time>2021-12-31T09:50:58.000Z</time>
      </trkpt>
      <trkpt lat="45.49893" lon="6.05978">
        <ele>250.80000305176</ele>
        <time>2021-12-31T09:50:59.000Z</time>
      </trkpt>
      <trkpt lat="45.49887" lon="6.05975">
        <ele>251</ele>
        <time>2021-12-31T09:51:00.000Z</time>
      </trkpt>
      <trkpt lat="45.49878" lon="6.05977">
        <ele>251</ele>
        <time>2021-12-31T09:51:02.000Z</time>
      </trkpt>
      <trkpt lat="45.49873" lon="6.05984">
        <ele>251</ele>
        <time>2021-12-31T09:51:04.000Z</time>
      </trkpt>
      <trkpt lat="45.49864" lon="6.05997">
        <ele>251.39999389648</ele>
        <time>2021-12-31T09:51:07.000Z</time>
      </trkpt>
      <trkpt lat="45.49847" lon="6.06021">
        <ele>252.19999694824</ele>
        <time>2021-12-31T09:51:13.000Z</time>
      </trkpt>
      <trkpt lat="45.49813" lon="6.06068">
        <ele>252.60000610352</ele>
        <time>2021-12-31T09:51:21.000Z</time>
      </trkpt>
      <trkpt lat="45.49794" lon="6.06095">
        <ele>252.80000305176</ele>
        <time>2021-12-31T09:51:27.000Z</time>
      </trkpt>
      <trkpt lat="45.49773" lon="6.06128">
        <ele>252.80000305176</ele>
        <time>2021-12-31T09:51:33.000Z</time>
      </trkpt>
      <trkpt lat="45.49761" lon="6.06145">
        <ele>252.80000305176</ele>
        <time>2021-12-31T09:51:35.000Z</time>
      </trkpt>
      <trkpt lat="45.49753" lon="6.06159">
        <ele>252.39999389648</ele>
        <time>2021-12-31T09:51:38.000Z</time>
      </trkpt>
      <trkpt lat="45.49751" lon="6.06161">
        <ele>252.39999389648</ele>
        <time>2021-12-31T09:51:39.000Z</time>
      </trkpt>
      <trkpt lat="45.49749" lon="6.06159">
        <ele>252</ele>
        <time>2021-12-31T09:51:41.000Z</time>
      </trkpt>
      <trkpt lat="45.49749" lon="6.06159">
        <ele>251.80000305176</ele>
        <time>2021-12-31T09:51:42.000Z</time>
      </trkpt>
      <trkpt lat="45.4975" lon="6.0615">
        <ele>251.60000610352</ele>
        <time>2021-12-31T09:51:43.000Z</time>
      </trkpt>
      <trkpt lat="45.49756" lon="6.06138">
        <ele>251.19999694824</ele>
        <time>2021-12-31T09:51:45.000Z</time>
      </trkpt>
      <trkpt lat="45.49769" lon="6.0611">
        <ele>250.60000610352</ele>
        <time>2021-12-31T09:51:49.000Z</time>
      </trkpt>
      <trkpt lat="45.49772" lon="6.06102">
        <ele>250.39999389648</ele>
        <time>2021-12-31T09:51:50.000Z</time>
      </trkpt>
      <trkpt lat="45.49772" lon="6.06102">
        <ele>250.39999389648</ele>
        <time>2021-12-31T09:51:51.000Z</time>
      </trkpt>
      <trkpt lat="45.49776" lon="6.06086">
        <ele>250.19999694824</ele>
        <time>2021-12-31T09:51:52.000Z</time>
      </trkpt>
      <trkpt lat="45.49776" lon="6.06068">
        <ele>250</ele>
        <time>2021-12-31T09:51:54.000Z</time>
      </trkpt>
      <trkpt lat="45.49769" lon="6.06047">
        <ele>250</ele>
        <time>2021-12-31T09:51:57.000Z</time>
      </trkpt>
      <trkpt lat="45.49769" lon="6.06047">
        <ele>250</ele>
        <time>2021-12-31T09:51:58.000Z</time>
      </trkpt>
      <trkpt lat="45.49764" lon="6.06034">
        <ele>250</ele>
        <time>2021-12-31T09:51:59.000Z</time>
      </trkpt>
      <trkpt lat="45.49754" lon="6.06008">
        <ele>250.19999694824</ele>
        <time>2021-12-31T09:52:03.000Z</time>
      </trkpt>
      <trkpt lat="45.49729" lon="6.05952">
        <ele>250.80000305176</ele>
        <time>2021-12-31T09:52:12.000Z</time>
      </trkpt>
      <trkpt lat="45.49703" lon="6.05905">
        <ele>250.39999389648</ele>
        <time>2021-12-31T09:52:19.000Z</time>
      </trkpt>
      <trkpt lat="45.49674" lon="6.05852">
        <ele>250</ele>
        <time>2021-12-31T09:52:26.000Z</time>
      </trkpt>
      <trkpt lat="45.49654" lon="6.05821">
        <ele>250</ele>
        <time>2021-12-31T09:52:31.000Z</time>
      </trkpt>
      <trkpt lat="45.49644" lon="6.0581">
        <ele>249.80000305176</ele>
        <time>2021-12-31T09:52:33.000Z</time>
      </trkpt>
      <trkpt lat="45.49635" lon="6.05805">
        <ele>249.80000305176</ele>
        <time>2021-12-31T09:52:35.000Z</time>
      </trkpt>
      <trkpt lat="45.49627" lon="6.05795">
        <ele>249.60000610352</ele>
        <time>2021-12-31T09:52:37.000Z</time>
      </trkpt>
      <trkpt lat="45.4962" lon="6.05771">
        <ele>249.80000305176</ele>
        <time>2021-12-31T09:52:41.000Z</time>
      </trkpt>
      <trkpt lat="45.49614" lon="6.05755">
        <ele>249.80000305176</ele>
        <time>2021-12-31T09:52:42.000Z</time>
      </trkpt>
      <trkpt lat="45.49603" lon="6.05735">
        <ele>250</ele>
        <time>2021-12-31T09:52:45.000Z</time>
      </trkpt>
      <trkpt lat="45.49593" lon="6.05722">
        <ele>250.19999694824</ele>
        <time>2021-12-31T09:52:47.000Z</time>
      </trkpt>
      <trkpt lat="45.49575" lon="6.05703">
        <ele>250.39999389648</ele>
        <time>2021-12-31T09:52:51.000Z</time>
      </trkpt>
      <trkpt lat="45.49566" lon="6.05691">
        <ele>250.60000610352</ele>
        <time>2021-12-31T09:52:53.000Z</time>
      </trkpt>
      <trkpt lat="45.4956" lon="6.05679">
        <ele>250.80000305176</ele>
        <time>2021-12-31T09:52:55.000Z</time>
      </trkpt>
      <trkpt lat="45.49556" lon="6.05665">
        <ele>251</ele>
        <time>2021-12-31T09:52:57.000Z</time>
      </trkpt>
      <trkpt lat="45.49552" lon="6.05649">
        <ele>251.39999389648</ele>
        <time>2021-12-31T09:52:59.000Z</time>
      </trkpt>
      <trkpt lat="45.49544" lon="6.05636">
        <ele>251.60000610352</ele>
        <time>2021-12-31T09:53:01.000Z</time>
      </trkpt>
      <trkpt lat="45.49539" lon="6.05631">
        <ele>251.80000305176</ele>
        <time>2021-12-31T09:53:02.000Z</time>
      </trkpt>
      <trkpt lat="45.49532" lon="6.05627">
        <ele>251.80000305176</ele>
        <time>2021-12-31T09:53:03.000Z</time>
      </trkpt>
      <trkpt lat="45.49526" lon="6.05624">
        <ele>252</ele>
        <time>2021-12-31T09:53:04.000Z</time>
      </trkpt>
      <trkpt lat="45.49519" lon="6.05621">
        <ele>252</ele>
        <time>2021-12-31T09:53:05.000Z</time>
      </trkpt>
      <trkpt lat="45.49507" lon="6.05609">
        <ele>252</ele>
        <time>2021-12-31T09:53:07.000Z</time>
      </trkpt>
      <trkpt lat="45.49478" lon="6.05563">
        <ele>251.60000610352</ele>
        <time>2021-12-31T09:53:13.000Z</time>
      </trkpt>
      <trkpt lat="45.49459" lon="6.05516">
        <ele>250.80000305176</ele>
        <time>2021-12-31T09:53:18.000Z</time>
      </trkpt>
      <trkpt lat="45.49448" lon="6.05488">
        <ele>250.39999389648</ele>
        <time>2021-12-31T09:53:21.000Z</time>
      </trkpt>
      <trkpt lat="45.49418" lon="6.05434">
        <ele>249.80000305176</ele>
        <time>2021-12-31T09:53:28.000Z</time>
      </trkpt>
      <trkpt lat="45.49379" lon="6.05368">
        <ele>249.39999389648</ele>
        <time>2021-12-31T09:53:37.000Z</time>
      </trkpt>
      <trkpt lat="45.49341" lon="6.05306">
        <ele>249</ele>
        <time>2021-12-31T09:53:46.000Z</time>
      </trkpt>
      <trkpt lat="45.49337" lon="6.05299">
        <ele>249</ele>
        <time>2021-12-31T09:53:47.000Z</time>
      </trkpt>
      <trkpt lat="45.49298" lon="6.05234">
        <ele>249</ele>
        <time>2021-12-31T09:53:56.000Z</time>
      </trkpt>
      <trkpt lat="45.49298" lon="6.05234">
        <ele>249</ele>
        <time>2021-12-31T09:53:57.000Z</time>
      </trkpt>
      <trkpt lat="45.49263" lon="6.05175">
        <ele>248.80000305176</ele>
        <time>2021-12-31T09:54:04.000Z</time>
      </trkpt>
      <trkpt lat="45.49248" lon="6.05152">
        <ele>248.80000305176</ele>
        <time>2021-12-31T09:54:07.000Z</time>
      </trkpt>
      <trkpt lat="45.49222" lon="6.05109">
        <ele>248.60000610352</ele>
        <time>2021-12-31T09:54:13.000Z</time>
      </trkpt>
      <trkpt lat="45.49205" lon="6.0508">
        <ele>248.60000610352</ele>
        <time>2021-12-31T09:54:17.000Z</time>
      </trkpt>
      <trkpt lat="45.49167" lon="6.05018">
        <ele>248.19999694824</ele>
        <time>2021-12-31T09:54:26.000Z</time>
      </trkpt>
      <trkpt lat="45.49162" lon="6.05009">
        <ele>248.19999694824</ele>
        <time>2021-12-31T09:54:27.000Z</time>
      </trkpt>
      <trkpt lat="45.49121" lon="6.0494">
        <ele>248</ele>
        <time>2021-12-31T09:54:37.000Z</time>
      </trkpt>
      <trkpt lat="45.49107" lon="6.04918">
        <ele>248</ele>
        <time>2021-12-31T09:54:40.000Z</time>
      </trkpt>
      <trkpt lat="45.49071" lon="6.04857">
        <ele>247.80000305176</ele>
        <time>2021-12-31T09:54:49.000Z</time>
      </trkpt>
      <trkpt lat="45.49058" lon="6.04837">
        <ele>247.80000305176</ele>
        <time>2021-12-31T09:54:52.000Z</time>
      </trkpt>
      <trkpt lat="45.49022" lon="6.04776">
        <ele>248</ele>
        <time>2021-12-31T09:55:01.000Z</time>
      </trkpt>
      <trkpt lat="45.49009" lon="6.04756">
        <ele>248</ele>
        <time>2021-12-31T09:55:04.000Z</time>
      </trkpt>
      <trkpt lat="45.48972" lon="6.04696">
        <ele>248.19999694824</ele>
        <time>2021-12-31T09:55:13.000Z</time>
      </trkpt>
      <trkpt lat="45.48964" lon="6.04683">
        <ele>248.19999694824</ele>
        <time>2021-12-31T09:55:15.000Z</time>
      </trkpt>
      <trkpt lat="45.48927" lon="6.04624">
        <ele>248.19999694824</ele>
        <time>2021-12-31T09:55:24.000Z</time>
      </trkpt>
      <trkpt lat="45.4891" lon="6.04598">
        <ele>248.39999389648</ele>
        <time>2021-12-31T09:55:28.000Z</time>
      </trkpt>
      <trkpt lat="45.48874" lon="6.04539">
        <ele>248.39999389648</ele>
        <time>2021-12-31T09:55:37.000Z</time>
      </trkpt>
      <trkpt lat="45.48857" lon="6.04513">
        <ele>248.39999389648</ele>
        <time>2021-12-31T09:55:41.000Z</time>
      </trkpt>
      <trkpt lat="45.48821" lon="6.04454">
        <ele>248.19999694824</ele>
        <time>2021-12-31T09:55:50.000Z</time>
      </trkpt>
      <trkpt lat="45.48791" lon="6.04418">
        <ele>248.60000610352</ele>
        <time>2021-12-31T09:55:56.000Z</time>
      </trkpt>
      <trkpt lat="45.48787" lon="6.0441">
        <ele>248.60000610352</ele>
        <time>2021-12-31T09:55:57.000Z</time>
      </trkpt>
      <trkpt lat="45.48776" lon="6.04385">
        <ele>248.60000610352</ele>
        <time>2021-12-31T09:56:00.000Z</time>
      </trkpt>
      <trkpt lat="45.48767" lon="6.04371">
        <ele>248.60000610352</ele>
        <time>2021-12-31T09:56:02.000Z</time>
      </trkpt>
      <trkpt lat="45.48741" lon="6.04339">
        <ele>248.39999389648</ele>
        <time>2021-12-31T09:56:07.000Z</time>
      </trkpt>
      <trkpt lat="45.48714" lon="6.04288">
        <ele>248.80000305176</ele>
        <time>2021-12-31T09:56:14.000Z</time>
      </trkpt>
      <trkpt lat="45.48695" lon="6.04261">
        <ele>249.39999389648</ele>
        <time>2021-12-31T09:56:19.000Z</time>
      </trkpt>
      <trkpt lat="45.48695" lon="6.04261">
        <ele>249.60000610352</ele>
        <time>2021-12-31T09:56:20.000Z</time>
      </trkpt>
      <trkpt lat="45.48686" lon="6.04253">
        <ele>249.60000610352</ele>
        <time>2021-12-31T09:56:21.000Z</time>
      </trkpt>
      <trkpt lat="45.48668" lon="6.04239">
        <ele>250.19999694824</ele>
        <time>2021-12-31T09:56:25.000Z</time>
      </trkpt>
      <trkpt lat="45.48654" lon="6.04229">
        <ele>250.39999389648</ele>
        <time>2021-12-31T09:56:28.000Z</time>
      </trkpt>
      <trkpt lat="45.48648" lon="6.04226">
        <ele>250.60000610352</ele>
        <time>2021-12-31T09:56:29.000Z</time>
      </trkpt>
      <trkpt lat="45.48634" lon="6.04221">
        <ele>250.80000305176</ele>
        <time>2021-12-31T09:56:32.000Z</time>
      </trkpt>
      <trkpt lat="45.48612" lon="6.04217">
        <ele>251.19999694824</ele>
        <time>2021-12-31T09:56:36.000Z</time>
      </trkpt>
      <trkpt lat="45.48606" lon="6.04217">
        <ele>251.60000610352</ele>
        <time>2021-12-31T09:56:37.000Z</time>
      </trkpt>
      <trkpt lat="45.48595" lon="6.04217">
        <ele>251.60000610352</ele>
        <time>2021-12-31T09:56:39.000Z</time>
      </trkpt>
      <trkpt lat="45.48547" lon="6.04224">
        <ele>252</ele>
        <time>2021-12-31T09:56:47.000Z</time>
      </trkpt>
      <trkpt lat="45.48491" lon="6.04236">
        <ele>251.60000610352</ele>
        <time>2021-12-31T09:56:56.000Z</time>
      </trkpt>
      <trkpt lat="45.48441" lon="6.0423">
        <ele>250.60000610352</ele>
        <time>2021-12-31T09:57:03.000Z</time>
      </trkpt>
      <trkpt lat="45.48427" lon="6.04224">
        <ele>250</ele>
        <time>2021-12-31T09:57:05.000Z</time>
      </trkpt>
      <trkpt lat="45.48398" lon="6.04209">
        <ele>249.39999389648</ele>
        <time>2021-12-31T09:57:09.000Z</time>
      </trkpt>
      <trkpt lat="45.48391" lon="6.04205">
        <ele>248.80000305176</ele>
        <time>2021-12-31T09:57:10.000Z</time>
      </trkpt>
      <trkpt lat="45.48363" lon="6.0419">
        <ele>247.39999389648</ele>
        <time>2021-12-31T09:57:14.000Z</time>
      </trkpt>
      <trkpt lat="45.48335" lon="6.04177">
        <ele>246.39999389648</ele>
        <time>2021-12-31T09:57:18.000Z</time>
      </trkpt>
      <trkpt lat="45.48321" lon="6.04173">
        <ele>246.19999694824</ele>
        <time>2021-12-31T09:57:20.000Z</time>
      </trkpt>
      <trkpt lat="45.48287" lon="6.04162">
        <ele>245.80000305176</ele>
        <time>2021-12-31T09:57:25.000Z</time>
      </trkpt>
      <trkpt lat="45.48261" lon="6.04155">
        <ele>245.39999389648</ele>
        <time>2021-12-31T09:57:29.000Z</time>
      </trkpt>
      <trkpt lat="45.48216" lon="6.0414">
        <ele>245.39999389648</ele>
        <time>2021-12-31T09:57:36.000Z</time>
      </trkpt>
      <trkpt lat="45.4816" lon="6.04123">
        <ele>244.80000305176</ele>
        <time>2021-12-31T09:57:45.000Z</time>
      </trkpt>
      <trkpt lat="45.48141" lon="6.04117">
        <ele>244.80000305176</ele>
        <time>2021-12-31T09:57:48.000Z</time>
      </trkpt>
      <trkpt lat="45.48085" lon="6.04097">
        <ele>244.80000305176</ele>
        <time>2021-12-31T09:57:57.000Z</time>
      </trkpt>
      <trkpt lat="45.48061" lon="6.04088">
        <ele>244.60000610352</ele>
        <time>2021-12-31T09:58:01.000Z</time>
      </trkpt>
      <trkpt lat="45.48005" lon="6.04067">
        <ele>244.19999694824</ele>
        <time>2021-12-31T09:58:10.000Z</time>
      </trkpt>
      <trkpt lat="45.47999" lon="6.04065">
        <ele>244.19999694824</ele>
        <time>2021-12-31T09:58:11.000Z</time>
      </trkpt>
      <trkpt lat="45.47967" lon="6.04053">
        <ele>243.80000305176</ele>
        <time>2021-12-31T09:58:16.000Z</time>
      </trkpt>
      <trkpt lat="45.4795" lon="6.04049">
        <ele>243.80000305176</ele>
        <time>2021-12-31T09:58:19.000Z</time>
      </trkpt>
      <trkpt lat="45.47913" lon="6.04053">
        <ele>243.60000610352</ele>
        <time>2021-12-31T09:58:25.000Z</time>
      </trkpt>
      <trkpt lat="45.47878" lon="6.04062">
        <ele>243</ele>
        <time>2021-12-31T09:58:31.000Z</time>
      </trkpt>
      <trkpt lat="45.47861" lon="6.04066">
        <ele>243</ele>
        <time>2021-12-31T09:58:34.000Z</time>
      </trkpt>
      <trkpt lat="45.47852" lon="6.04071">
        <ele>243</ele>
        <time>2021-12-31T09:58:36.000Z</time>
      </trkpt>
      <trkpt lat="45.4783" lon="6.0408">
        <ele>243</ele>
        <time>2021-12-31T09:58:41.000Z</time>
      </trkpt>
      <trkpt lat="45.47826" lon="6.0408">
        <ele>243</ele>
        <time>2021-12-31T09:58:42.000Z</time>
      </trkpt>
      <trkpt lat="45.47823" lon="6.0408">
        <ele>242.80000305176</ele>
        <time>2021-12-31T09:58:43.000Z</time>
      </trkpt>
      <trkpt lat="45.47817" lon="6.04072">
        <ele>242.80000305176</ele>
        <time>2021-12-31T09:58:45.000Z</time>
      </trkpt>
      <trkpt lat="45.47814" lon="6.04061">
        <ele>242.80000305176</ele>
        <time>2021-12-31T09:58:47.000Z</time>
      </trkpt>
      <trkpt lat="45.47809" lon="6.04039">
        <ele>242.80000305176</ele>
        <time>2021-12-31T09:58:50.000Z</time>
      </trkpt>
      <trkpt lat="45.47807" lon="6.04034">
        <ele>242.80000305176</ele>
        <time>2021-12-31T09:58:51.000Z</time>
      </trkpt>
      <trkpt lat="45.478" lon="6.04023">
        <ele>242.80000305176</ele>
        <time>2021-12-31T09:58:53.000Z</time>
      </trkpt>
      <trkpt lat="45.47779" lon="6.04012">
        <ele>243</ele>
        <time>2021-12-31T09:58:57.000Z</time>
      </trkpt>
      <trkpt lat="45.47741" lon="6.03996">
        <ele>243</ele>
        <time>2021-12-31T09:59:04.000Z</time>
      </trkpt>
      <trkpt lat="45.47718" lon="6.03988">
        <ele>243</ele>
        <time>2021-12-31T09:59:08.000Z</time>
      </trkpt>
      <trkpt lat="45.47708" lon="6.03987">
        <ele>243</ele>
        <time>2021-12-31T09:59:11.000Z</time>
      </trkpt>
      <trkpt lat="45.4768" lon="6.03986">
        <ele>243</ele>
        <time>2021-12-31T09:59:15.000Z</time>
      </trkpt>
      <trkpt lat="45.47667" lon="6.03985">
        <ele>243</ele>
        <time>2021-12-31T09:59:17.000Z</time>
      </trkpt>
      <trkpt lat="45.47625" lon="6.03983">
        <ele>243.19999694824</ele>
        <time>2021-12-31T09:59:25.000Z</time>
      </trkpt>
      <trkpt lat="45.47574" lon="6.03981">
        <ele>243.19999694824</ele>
        <time>2021-12-31T09:59:34.000Z</time>
      </trkpt>
      <trkpt lat="45.4752" lon="6.03976">
        <ele>242.60000610352</ele>
        <time>2021-12-31T09:59:43.000Z</time>
      </trkpt>
      <trkpt lat="45.47488" lon="6.03974">
        <ele>242.39999389648</ele>
        <time>2021-12-31T09:59:48.000Z</time>
      </trkpt>
      <trkpt lat="45.4747" lon="6.03972">
        <ele>242.19999694824</ele>
        <time>2021-12-31T09:59:51.000Z</time>
      </trkpt>
      <trkpt lat="45.4743" lon="6.03967">
        <ele>242.80000305176</ele>
        <time>2021-12-31T09:59:58.000Z</time>
      </trkpt>
      <trkpt lat="45.47376" lon="6.03962">
        <ele>242.60000610352</ele>
        <time>2021-12-31T10:00:07.000Z</time>
      </trkpt>
      <trkpt lat="45.47369" lon="6.03962">
        <ele>242.60000610352</ele>
        <time>2021-12-31T10:00:08.000Z</time>
      </trkpt>
      <trkpt lat="45.47313" lon="6.0396">
        <ele>242.39999389648</ele>
        <time>2021-12-31T10:00:17.000Z</time>
      </trkpt>
      <trkpt lat="45.47276" lon="6.03953">
        <ele>242.60000610352</ele>
        <time>2021-12-31T10:00:23.000Z</time>
      </trkpt>
      <trkpt lat="45.47226" lon="6.03944">
        <ele>242</ele>
        <time>2021-12-31T10:00:31.000Z</time>
      </trkpt>
      <trkpt lat="45.47214" lon="6.03941">
        <ele>242</ele>
        <time>2021-12-31T10:00:33.000Z</time>
      </trkpt>
      <trkpt lat="45.47198" lon="6.03931">
        <ele>241.80000305176</ele>
        <time>2021-12-31T10:00:36.000Z</time>
      </trkpt>
      <trkpt lat="45.47164" lon="6.03901">
        <ele>242.19999694824</ele>
        <time>2021-12-31T10:00:43.000Z</time>
      </trkpt>
      <trkpt lat="45.47164" lon="6.03901">
        <ele>242.19999694824</ele>
        <time>2021-12-31T10:00:44.000Z</time>
      </trkpt>
      <trkpt lat="45.47131" lon="6.03869">
        <ele>242.19999694824</ele>
        <time>2021-12-31T10:00:51.000Z</time>
      </trkpt>
      <trkpt lat="45.47123" lon="6.03865">
        <ele>242</ele>
        <time>2021-12-31T10:00:54.000Z</time>
      </trkpt>
      <trkpt lat="45.4712" lon="6.03867">
        <ele>241.80000305176</ele>
        <time>2021-12-31T10:00:55.000Z</time>
      </trkpt>
      <trkpt lat="45.47114" lon="6.03887">
        <ele>241.80000305176</ele>
        <time>2021-12-31T10:00:59.000Z</time>
      </trkpt>
      <trkpt lat="45.47104" lon="6.03931">
        <ele>241.80000305176</ele>
        <time>2021-12-31T10:01:05.000Z</time>
      </trkpt>
      <trkpt lat="45.47095" lon="6.0398">
        <ele>242.19999694824</ele>
        <time>2021-12-31T10:01:11.000Z</time>
      </trkpt>
      <trkpt lat="45.47083" lon="6.04053">
        <ele>243</ele>
        <time>2021-12-31T10:01:20.000Z</time>
      </trkpt>
      <trkpt lat="45.47078" lon="6.04085">
        <ele>243.39999389648</ele>
        <time>2021-12-31T10:01:24.000Z</time>
      </trkpt>
      <trkpt lat="45.47072" lon="6.04125">
        <ele>243.60000610352</ele>
        <time>2021-12-31T10:01:29.000Z</time>
      </trkpt>
      <trkpt lat="45.47072" lon="6.04133">
        <ele>243.39999389648</ele>
        <time>2021-12-31T10:01:30.000Z</time>
      </trkpt>
      <trkpt lat="45.47073" lon="6.0415">
        <ele>243.39999389648</ele>
        <time>2021-12-31T10:01:32.000Z</time>
      </trkpt>
      <trkpt lat="45.47076" lon="6.04166">
        <ele>243.39999389648</ele>
        <time>2021-12-31T10:01:34.000Z</time>
      </trkpt>
      <trkpt lat="45.47097" lon="6.04219">
        <ele>243.39999389648</ele>
        <time>2021-12-31T10:01:41.000Z</time>
      </trkpt>
      <trkpt lat="45.47125" lon="6.04288">
        <ele>243.19999694824</ele>
        <time>2021-12-31T10:01:50.000Z</time>
      </trkpt>
      <trkpt lat="45.47128" lon="6.04296">
        <ele>243.19999694824</ele>
        <time>2021-12-31T10:01:51.000Z</time>
      </trkpt>
      <trkpt lat="45.4713" lon="6.04304">
        <ele>243.19999694824</ele>
        <time>2021-12-31T10:01:52.000Z</time>
      </trkpt>
      <trkpt lat="45.47134" lon="6.0432">
        <ele>243.19999694824</ele>
        <time>2021-12-31T10:01:54.000Z</time>
      </trkpt>
      <trkpt lat="45.47134" lon="6.04337">
        <ele>243</ele>
        <time>2021-12-31T10:01:56.000Z</time>
      </trkpt>
      <trkpt lat="45.47135" lon="6.04345">
        <ele>243</ele>
        <time>2021-12-31T10:01:57.000Z</time>
      </trkpt>
      <trkpt lat="45.47141" lon="6.04359">
        <ele>243</ele>
        <time>2021-12-31T10:01:59.000Z</time>
      </trkpt>
      <trkpt lat="45.47155" lon="6.04377">
        <ele>243</ele>
        <time>2021-12-31T10:02:02.000Z</time>
      </trkpt>
      <trkpt lat="45.47162" lon="6.04391">
        <ele>243</ele>
        <time>2021-12-31T10:02:04.000Z</time>
      </trkpt>
      <trkpt lat="45.47185" lon="6.0446">
        <ele>243</ele>
        <time>2021-12-31T10:02:13.000Z</time>
      </trkpt>
      <trkpt lat="45.47203" lon="6.04533">
        <ele>243.19999694824</ele>
        <time>2021-12-31T10:02:22.000Z</time>
      </trkpt>
      <trkpt lat="45.47207" lon="6.04549">
        <ele>243.19999694824</ele>
        <time>2021-12-31T10:02:24.000Z</time>
      </trkpt>
      <trkpt lat="45.47229" lon="6.046">
        <ele>243.19999694824</ele>
        <time>2021-12-31T10:02:31.000Z</time>
      </trkpt>
      <trkpt lat="45.47264" lon="6.04669">
        <ele>243.19999694824</ele>
        <time>2021-12-31T10:02:41.000Z</time>
      </trkpt>
      <trkpt lat="45.47268" lon="6.04676">
        <ele>243.19999694824</ele>
        <time>2021-12-31T10:02:42.000Z</time>
      </trkpt>
      <trkpt lat="45.47285" lon="6.047">
        <ele>243.19999694824</ele>
        <time>2021-12-31T10:02:46.000Z</time>
      </trkpt>
      <trkpt lat="45.47296" lon="6.04709">
        <ele>243.19999694824</ele>
        <time>2021-12-31T10:02:48.000Z</time>
      </trkpt>
      <trkpt lat="45.47337" lon="6.04745">
        <ele>243.19999694824</ele>
        <time>2021-12-31T10:02:56.000Z</time>
      </trkpt>
      <trkpt lat="45.47348" lon="6.04762">
        <ele>243.19999694824</ele>
        <time>2021-12-31T10:02:59.000Z</time>
      </trkpt>
      <trkpt lat="45.47355" lon="6.04778">
        <ele>243.19999694824</ele>
        <time>2021-12-31T10:03:01.000Z</time>
      </trkpt>
      <trkpt lat="45.47362" lon="6.04802">
        <ele>243.19999694824</ele>
        <time>2021-12-31T10:03:04.000Z</time>
      </trkpt>
      <trkpt lat="45.47367" lon="6.04827">
        <ele>243</ele>
        <time>2021-12-31T10:03:07.000Z</time>
      </trkpt>
      <trkpt lat="45.47374" lon="6.04892">
        <ele>243</ele>
        <time>2021-12-31T10:03:15.000Z</time>
      </trkpt>
      <trkpt lat="45.47389" lon="6.04945">
        <ele>243.80000305176</ele>
        <time>2021-12-31T10:03:22.000Z</time>
      </trkpt>
      <trkpt lat="45.47392" lon="6.04951">
        <ele>243.80000305176</ele>
        <time>2021-12-31T10:03:23.000Z</time>
      </trkpt>
      <trkpt lat="45.47412" lon="6.04981">
        <ele>244.19999694824</ele>
        <time>2021-12-31T10:03:28.000Z</time>
      </trkpt>
      <trkpt lat="45.47458" lon="6.05033">
        <ele>244.80000305176</ele>
        <time>2021-12-31T10:03:38.000Z</time>
      </trkpt>
      <trkpt lat="45.47467" lon="6.05044">
        <ele>244.80000305176</ele>
        <time>2021-12-31T10:03:40.000Z</time>
      </trkpt>
      <trkpt lat="45.47512" lon="6.05098">
        <ele>245.19999694824</ele>
        <time>2021-12-31T10:03:50.000Z</time>
      </trkpt>
      <trkpt lat="45.47521" lon="6.05108">
        <ele>245.19999694824</ele>
        <time>2021-12-31T10:03:52.000Z</time>
      </trkpt>
      <trkpt lat="45.47539" lon="6.0513">
        <ele>245.19999694824</ele>
        <time>2021-12-31T10:03:56.000Z</time>
      </trkpt>
      <trkpt lat="45.47551" lon="6.05147">
        <ele>245.19999694824</ele>
        <time>2021-12-31T10:03:59.000Z</time>
      </trkpt>
      <trkpt lat="45.47555" lon="6.05154">
        <ele>245.19999694824</ele>
        <time>2021-12-31T10:04:00.000Z</time>
      </trkpt>
      <trkpt lat="45.47563" lon="6.05176">
        <ele>245.39999389648</ele>
        <time>2021-12-31T10:04:03.000Z</time>
      </trkpt>
      <trkpt lat="45.47564" lon="6.05184">
        <ele>245.60000610352</ele>
        <time>2021-12-31T10:04:04.000Z</time>
      </trkpt>
      <trkpt lat="45.47566" lon="6.05209">
        <ele>245.60000610352</ele>
        <time>2021-12-31T10:04:07.000Z</time>
      </trkpt>
      <trkpt lat="45.47561" lon="6.05269">
        <ele>245.39999389648</ele>
        <time>2021-12-31T10:04:14.000Z</time>
      </trkpt>
      <trkpt lat="45.4756" lon="6.05336">
        <ele>245.60000610352</ele>
        <time>2021-12-31T10:04:22.000Z</time>
      </trkpt>
      <trkpt lat="45.47573" lon="6.05392">
        <ele>245.60000610352</ele>
        <time>2021-12-31T10:04:29.000Z</time>
      </trkpt>
      <trkpt lat="45.4759" lon="6.05449">
        <ele>245.60000610352</ele>
        <time>2021-12-31T10:04:36.000Z</time>
      </trkpt>
      <trkpt lat="45.47607" lon="6.05485">
        <ele>245.80000305176</ele>
        <time>2021-12-31T10:04:41.000Z</time>
      </trkpt>
      <trkpt lat="45.47612" lon="6.05491">
        <ele>245.60000610352</ele>
        <time>2021-12-31T10:04:42.000Z</time>
      </trkpt>
      <trkpt lat="45.47633" lon="6.05524">
        <ele>245.60000610352</ele>
        <time>2021-12-31T10:04:47.000Z</time>
      </trkpt>
      <trkpt lat="45.47657" lon="6.05574">
        <ele>245.39999389648</ele>
        <time>2021-12-31T10:04:54.000Z</time>
      </trkpt>
      <trkpt lat="45.47689" lon="6.0563">
        <ele>245</ele>
        <time>2021-12-31T10:05:02.000Z</time>
      </trkpt>
      <trkpt lat="45.47712" lon="6.05658">
        <ele>244.80000305176</ele>
        <time>2021-12-31T10:05:07.000Z</time>
      </trkpt>
      <trkpt lat="45.47717" lon="6.05662">
        <ele>244.80000305176</ele>
        <time>2021-12-31T10:05:08.000Z</time>
      </trkpt>
      <trkpt lat="45.47728" lon="6.05671">
        <ele>244.80000305176</ele>
        <time>2021-12-31T10:05:10.000Z</time>
      </trkpt>
      <trkpt lat="45.47736" lon="6.05678">
        <ele>244.80000305176</ele>
        <time>2021-12-31T10:05:12.000Z</time>
      </trkpt>
      <trkpt lat="45.47748" lon="6.05688">
        <ele>245</ele>
        <time>2021-12-31T10:05:14.000Z</time>
      </trkpt>
      <trkpt lat="45.47759" lon="6.05704">
        <ele>245.19999694824</ele>
        <time>2021-12-31T10:05:17.000Z</time>
      </trkpt>
      <trkpt lat="45.47771" lon="6.05725">
        <ele>245.60000610352</ele>
        <time>2021-12-31T10:05:20.000Z</time>
      </trkpt>
      <trkpt lat="45.47778" lon="6.05738">
        <ele>246</ele>
        <time>2021-12-31T10:05:22.000Z</time>
      </trkpt>
      <trkpt lat="45.47781" lon="6.05745">
        <ele>246.19999694824</ele>
        <time>2021-12-31T10:05:23.000Z</time>
      </trkpt>
      <trkpt lat="45.47806" lon="6.05786">
        <ele>246.60000610352</ele>
        <time>2021-12-31T10:05:30.000Z</time>
      </trkpt>
      <trkpt lat="45.47823" lon="6.05806">
        <ele>247.19999694824</ele>
        <time>2021-12-31T10:05:34.000Z</time>
      </trkpt>
      <trkpt lat="45.47827" lon="6.05811">
        <ele>247.39999389648</ele>
        <time>2021-12-31T10:05:35.000Z</time>
      </trkpt>
      <trkpt lat="45.47835" lon="6.05821">
        <ele>247.60000610352</ele>
        <time>2021-12-31T10:05:37.000Z</time>
      </trkpt>
      <trkpt lat="45.47842" lon="6.05835">
        <ele>248</ele>
        <time>2021-12-31T10:05:40.000Z</time>
      </trkpt>
      <trkpt lat="45.47847" lon="6.05844">
        <ele>248.39999389648</ele>
        <time>2021-12-31T10:05:42.000Z</time>
      </trkpt>
      <trkpt lat="45.4786" lon="6.05865">
        <ele>249.60000610352</ele>
        <time>2021-12-31T10:05:47.000Z</time>
      </trkpt>
      <trkpt lat="45.47863" lon="6.05869">
        <ele>249.60000610352</ele>
        <time>2021-12-31T10:05:48.000Z</time>
      </trkpt>
      <trkpt lat="45.47874" lon="6.05885">
        <ele>250.60000610352</ele>
        <time>2021-12-31T10:05:52.000Z</time>
      </trkpt>
      <trkpt lat="45.47885" lon="6.05903">
        <ele>251.80000305176</ele>
        <time>2021-12-31T10:05:56.000Z</time>
      </trkpt>
      <trkpt lat="45.47896" lon="6.0592">
        <ele>252.80000305176</ele>
        <time>2021-12-31T10:06:00.000Z</time>
      </trkpt>
      <trkpt lat="45.47909" lon="6.05942">
        <ele>254</ele>
        <time>2021-12-31T10:06:05.000Z</time>
      </trkpt>
      <trkpt lat="45.47912" lon="6.05946">
        <ele>254</ele>
        <time>2021-12-31T10:06:06.000Z</time>
      </trkpt>
      <trkpt lat="45.47927" lon="6.05969">
        <ele>254.60000610352</ele>
        <time>2021-12-31T10:06:11.000Z</time>
      </trkpt>
      <trkpt lat="45.47936" lon="6.05984">
        <ele>255</ele>
        <time>2021-12-31T10:06:14.000Z</time>
      </trkpt>
      <trkpt lat="45.47939" lon="6.05989">
        <ele>255</ele>
        <time>2021-12-31T10:06:15.000Z</time>
      </trkpt>
      <trkpt lat="45.47963" lon="6.0603">
        <ele>255.60000610352</ele>
        <time>2021-12-31T10:06:22.000Z</time>
      </trkpt>
      <trkpt lat="45.47985" lon="6.06076">
        <ele>255.60000610352</ele>
        <time>2021-12-31T10:06:28.000Z</time>
      </trkpt>
      <trkpt lat="45.48008" lon="6.06136">
        <ele>254.60000610352</ele>
        <time>2021-12-31T10:06:35.000Z</time>
      </trkpt>
      <trkpt lat="45.48022" lon="6.06174">
        <ele>253.80000305176</ele>
        <time>2021-12-31T10:06:39.000Z</time>
      </trkpt>
      <trkpt lat="45.4803" lon="6.06192">
        <ele>253</ele>
        <time>2021-12-31T10:06:41.000Z</time>
      </trkpt>
      <trkpt lat="45.48043" lon="6.06217">
        <ele>252.39999389648</ele>
        <time>2021-12-31T10:06:44.000Z</time>
      </trkpt>
      <trkpt lat="45.48062" lon="6.06248">
        <ele>251.60000610352</ele>
        <time>2021-12-31T10:06:48.000Z</time>
      </trkpt>
      <trkpt lat="45.48067" lon="6.06256">
        <ele>251</ele>
        <time>2021-12-31T10:06:49.000Z</time>
      </trkpt>
      <trkpt lat="45.48094" lon="6.06286">
        <ele>250.39999389648</ele>
        <time>2021-12-31T10:06:54.000Z</time>
      </trkpt>
      <trkpt lat="45.48125" lon="6.06313">
        <ele>250.19999694824</ele>
        <time>2021-12-31T10:07:00.000Z</time>
      </trkpt>
      <trkpt lat="45.48164" lon="6.06346">
        <ele>250.80000305176</ele>
        <time>2021-12-31T10:07:08.000Z</time>
      </trkpt>
      <trkpt lat="45.48182" lon="6.06363">
        <ele>251.19999694824</ele>
        <time>2021-12-31T10:07:12.000Z</time>
      </trkpt>
      <trkpt lat="45.48185" lon="6.06369">
        <ele>251.19999694824</ele>
        <time>2021-12-31T10:07:13.000Z</time>
      </trkpt>
      <trkpt lat="45.48186" lon="6.06376">
        <ele>251.19999694824</ele>
        <time>2021-12-31T10:07:14.000Z</time>
      </trkpt>
      <trkpt lat="45.48184" lon="6.06393">
        <ele>251.19999694824</ele>
        <time>2021-12-31T10:07:16.000Z</time>
      </trkpt>
      <trkpt lat="45.48171" lon="6.06444">
        <ele>250.60000610352</ele>
        <time>2021-12-31T10:07:21.000Z</time>
      </trkpt>
      <trkpt lat="45.48172" lon="6.06465">
        <ele>250.19999694824</ele>
        <time>2021-12-31T10:07:23.000Z</time>
      </trkpt>
      <trkpt lat="45.48174" lon="6.06475">
        <ele>249.39999389648</ele>
        <time>2021-12-31T10:07:24.000Z</time>
      </trkpt>
      <trkpt lat="45.48177" lon="6.06484">
        <ele>249.19999694824</ele>
        <time>2021-12-31T10:07:25.000Z</time>
      </trkpt>
      <trkpt lat="45.48179" lon="6.06504">
        <ele>248.60000610352</ele>
        <time>2021-12-31T10:07:27.000Z</time>
      </trkpt>
      <trkpt lat="45.48178" lon="6.06514">
        <ele>248.19999694824</ele>
        <time>2021-12-31T10:07:28.000Z</time>
      </trkpt>
      <trkpt lat="45.48173" lon="6.06541">
        <ele>247.39999389648</ele>
        <time>2021-12-31T10:07:31.000Z</time>
      </trkpt>
      <trkpt lat="45.48171" lon="6.06559">
        <ele>247.19999694824</ele>
        <time>2021-12-31T10:07:33.000Z</time>
      </trkpt>
      <trkpt lat="45.4817" lon="6.06567">
        <ele>247</ele>
        <time>2021-12-31T10:07:34.000Z</time>
      </trkpt>
      <trkpt lat="45.48169" lon="6.06575">
        <ele>247</ele>
        <time>2021-12-31T10:07:35.000Z</time>
      </trkpt>
      <trkpt lat="45.48165" lon="6.06582">
        <ele>247</ele>
        <time>2021-12-31T10:07:36.000Z</time>
      </trkpt>
      <trkpt lat="45.48157" lon="6.06593">
        <ele>246.80000305176</ele>
        <time>2021-12-31T10:07:38.000Z</time>
      </trkpt>
      <trkpt lat="45.48143" lon="6.06612">
        <ele>246</ele>
        <time>2021-12-31T10:07:41.000Z</time>
      </trkpt>
      <trkpt lat="45.48128" lon="6.06631">
        <ele>245.39999389648</ele>
        <time>2021-12-31T10:07:44.000Z</time>
      </trkpt>
      <trkpt lat="45.48117" lon="6.06644">
        <ele>244.80000305176</ele>
        <time>2021-12-31T10:07:46.000Z</time>
      </trkpt>
      <trkpt lat="45.48089" lon="6.06675">
        <ele>243.39999389648</ele>
        <time>2021-12-31T10:07:51.000Z</time>
      </trkpt>
      <trkpt lat="45.4807" lon="6.06694">
        <ele>242.39999389648</ele>
        <time>2021-12-31T10:07:54.000Z</time>
      </trkpt>
      <trkpt lat="45.48043" lon="6.06723">
        <ele>241.39999389648</ele>
        <time>2021-12-31T10:07:59.000Z</time>
      </trkpt>
      <trkpt lat="45.47996" lon="6.06771">
        <ele>241.39999389648</ele>
        <time>2021-12-31T10:08:08.000Z</time>
      </trkpt>
      <trkpt lat="45.47964" lon="6.06804">
        <ele>241.19999694824</ele>
        <time>2021-12-31T10:08:14.000Z</time>
      </trkpt>
      <trkpt lat="45.47949" lon="6.0682">
        <ele>241.19999694824</ele>
        <time>2021-12-31T10:08:17.000Z</time>
      </trkpt>
      <trkpt lat="45.47918" lon="6.06853">
        <ele>241</ele>
        <time>2021-12-31T10:08:23.000Z</time>
      </trkpt>
      <trkpt lat="45.4788" lon="6.06891">
        <ele>240.60000610352</ele>
        <time>2021-12-31T10:08:30.000Z</time>
      </trkpt>
      <trkpt lat="45.4783" lon="6.0694">
        <ele>240.39999389648</ele>
        <time>2021-12-31T10:08:39.000Z</time>
      </trkpt>
      <trkpt lat="45.47825" lon="6.06945">
        <ele>240.39999389648</ele>
        <time>2021-12-31T10:08:40.000Z</time>
      </trkpt>
      <trkpt lat="45.47784" lon="6.06987">
        <ele>240.60000610352</ele>
        <time>2021-12-31T10:08:48.000Z</time>
      </trkpt>
      <trkpt lat="45.47747" lon="6.07023">
        <ele>240.60000610352</ele>
        <time>2021-12-31T10:08:55.000Z</time>
      </trkpt>
      <trkpt lat="45.47709" lon="6.07061">
        <ele>240.60000610352</ele>
        <time>2021-12-31T10:09:03.000Z</time>
      </trkpt>
      <trkpt lat="45.47674" lon="6.07096">
        <ele>240.80000305176</ele>
        <time>2021-12-31T10:09:10.000Z</time>
      </trkpt>
      <trkpt lat="45.47641" lon="6.07132">
        <ele>241</ele>
        <time>2021-12-31T10:09:17.000Z</time>
      </trkpt>
      <trkpt lat="45.47603" lon="6.07172">
        <ele>241.39999389648</ele>
        <time>2021-12-31T10:09:25.000Z</time>
      </trkpt>
      <trkpt lat="45.47564" lon="6.07213">
        <ele>241.60000610352</ele>
        <time>2021-12-31T10:09:33.000Z</time>
      </trkpt>
      <trkpt lat="45.47554" lon="6.07223">
        <ele>241.80000305176</ele>
        <time>2021-12-31T10:09:35.000Z</time>
      </trkpt>
      <trkpt lat="45.47544" lon="6.07229">
        <ele>242</ele>
        <time>2021-12-31T10:09:37.000Z</time>
      </trkpt>
      <trkpt lat="45.47538" lon="6.0723">
        <ele>242.19999694824</ele>
        <time>2021-12-31T10:09:38.000Z</time>
      </trkpt>
      <trkpt lat="45.47533" lon="6.07229">
        <ele>242.19999694824</ele>
        <time>2021-12-31T10:09:39.000Z</time>
      </trkpt>
      <trkpt lat="45.47528" lon="6.07227">
        <ele>242.19999694824</ele>
        <time>2021-12-31T10:09:40.000Z</time>
      </trkpt>
      <trkpt lat="45.47523" lon="6.07224">
        <ele>242.39999389648</ele>
        <time>2021-12-31T10:09:41.000Z</time>
      </trkpt>
      <trkpt lat="45.47496" lon="6.07202">
        <ele>243.19999694824</ele>
        <time>2021-12-31T10:09:47.000Z</time>
      </trkpt>
      <trkpt lat="45.47486" lon="6.07193">
        <ele>243.39999389648</ele>
        <time>2021-12-31T10:09:49.000Z</time>
      </trkpt>
      <trkpt lat="45.47469" lon="6.07177">
        <ele>244.60000610352</ele>
        <time>2021-12-31T10:09:53.000Z</time>
      </trkpt>
      <trkpt lat="45.47459" lon="6.0717">
        <ele>244.60000610352</ele>
        <time>2021-12-31T10:09:55.000Z</time>
      </trkpt>
      <trkpt lat="45.47435" lon="6.07151">
        <ele>245.39999389648</ele>
        <time>2021-12-31T10:10:00.000Z</time>
      </trkpt>
      <trkpt lat="45.4743" lon="6.07147">
        <ele>245.39999389648</ele>
        <time>2021-12-31T10:10:01.000Z</time>
      </trkpt>
      <trkpt lat="45.47426" lon="6.07142">
        <ele>245.60000610352</ele>
        <time>2021-12-31T10:10:02.000Z</time>
      </trkpt>
      <trkpt lat="45.47412" lon="6.07115">
        <ele>245.80000305176</ele>
        <time>2021-12-31T10:10:06.000Z</time>
      </trkpt>
      <trkpt lat="45.47382" lon="6.07061">
        <ele>246.19999694824</ele>
        <time>2021-12-31T10:10:14.000Z</time>
      </trkpt>
      <trkpt lat="45.47347" lon="6.07004">
        <ele>246.19999694824</ele>
        <time>2021-12-31T10:10:23.000Z</time>
      </trkpt>
      <trkpt lat="45.47318" lon="6.06976">
        <ele>246.19999694824</ele>
        <time>2021-12-31T10:10:29.000Z</time>
      </trkpt>
      <trkpt lat="45.4728" lon="6.06939">
        <ele>245.60000610352</ele>
        <time>2021-12-31T10:10:36.000Z</time>
      </trkpt>
      <trkpt lat="45.47275" lon="6.06933">
        <ele>245.60000610352</ele>
        <time>2021-12-31T10:10:37.000Z</time>
      </trkpt>
      <trkpt lat="45.47248" lon="6.06889">
        <ele>244.80000305176</ele>
        <time>2021-12-31T10:10:43.000Z</time>
      </trkpt>
      <trkpt lat="45.47221" lon="6.06842">
        <ele>244.39999389648</ele>
        <time>2021-12-31T10:10:50.000Z</time>
      </trkpt>
      <trkpt lat="45.47205" lon="6.06815">
        <ele>244.19999694824</ele>
        <time>2021-12-31T10:10:54.000Z</time>
      </trkpt>
      <trkpt lat="45.47171" lon="6.06767">
        <ele>244.19999694824</ele>
        <time>2021-12-31T10:11:02.000Z</time>
      </trkpt>
      <trkpt lat="45.47129" lon="6.06719">
        <ele>244.60000610352</ele>
        <time>2021-12-31T10:11:11.000Z</time>
      </trkpt>
      <trkpt lat="45.47121" lon="6.06709">
        <ele>244.80000305176</ele>
        <time>2021-12-31T10:11:13.000Z</time>
      </trkpt>
      <trkpt lat="45.47088" lon="6.06674">
        <ele>245.19999694824</ele>
        <time>2021-12-31T10:11:20.000Z</time>
      </trkpt>
      <trkpt lat="45.47085" lon="6.06671">
        <ele>245.39999389648</ele>
        <time>2021-12-31T10:11:21.000Z</time>
      </trkpt>
      <trkpt lat="45.47079" lon="6.0667">
        <ele>245.39999389648</ele>
        <time>2021-12-31T10:11:22.000Z</time>
      </trkpt>
      <trkpt lat="45.47059" lon="6.06668">
        <ele>245.80000305176</ele>
        <time>2021-12-31T10:11:26.000Z</time>
      </trkpt>
      <trkpt lat="45.47054" lon="6.06667">
        <ele>246</ele>
        <time>2021-12-31T10:11:27.000Z</time>
      </trkpt>
      <trkpt lat="45.4704" lon="6.06664">
        <ele>246.39999389648</ele>
        <time>2021-12-31T10:11:30.000Z</time>
      </trkpt>
      <trkpt lat="45.47036" lon="6.06662">
        <ele>246.60000610352</ele>
        <time>2021-12-31T10:11:31.000Z</time>
      </trkpt>
      <trkpt lat="45.47034" lon="6.06661">
        <ele>246.60000610352</ele>
        <time>2021-12-31T10:11:32.000Z</time>
      </trkpt>
      <trkpt lat="45.47013" lon="6.06647">
        <ele>247.80000305176</ele>
        <time>2021-12-31T10:11:38.000Z</time>
      </trkpt>
      <trkpt lat="45.46995" lon="6.06632">
        <ele>248.80000305176</ele>
        <time>2021-12-31T10:11:44.000Z</time>
      </trkpt>
      <trkpt lat="45.46992" lon="6.0663">
        <ele>249</ele>
        <time>2021-12-31T10:11:45.000Z</time>
      </trkpt>
      <trkpt lat="45.46978" lon="6.06616">
        <ele>250</ele>
        <time>2021-12-31T10:11:50.000Z</time>
      </trkpt>
      <trkpt lat="45.46975" lon="6.06613">
        <ele>250.19999694824</ele>
        <time>2021-12-31T10:11:51.000Z</time>
      </trkpt>
      <trkpt lat="45.46964" lon="6.06602">
        <ele>251.19999694824</ele>
        <time>2021-12-31T10:11:55.000Z</time>
      </trkpt>
      <trkpt lat="45.46956" lon="6.06595">
        <ele>251.80000305176</ele>
        <time>2021-12-31T10:11:58.000Z</time>
      </trkpt>
      <trkpt lat="45.46951" lon="6.06592">
        <ele>252.19999694824</ele>
        <time>2021-12-31T10:12:00.000Z</time>
      </trkpt>
      <trkpt lat="45.46939" lon="6.06587">
        <ele>253.19999694824</ele>
        <time>2021-12-31T10:12:04.000Z</time>
      </trkpt>
      <trkpt lat="45.46936" lon="6.06585">
        <ele>253.60000610352</ele>
        <time>2021-12-31T10:12:05.000Z</time>
      </trkpt>
      <trkpt lat="45.46921" lon="6.06573">
        <ele>254.80000305176</ele>
        <time>2021-12-31T10:12:11.000Z</time>
      </trkpt>
      <trkpt lat="45.46912" lon="6.06568">
        <ele>255.60000610352</ele>
        <time>2021-12-31T10:12:14.000Z</time>
      </trkpt>
      <trkpt lat="45.4691" lon="6.06566">
        <ele>255.80000305176</ele>
        <time>2021-12-31T10:12:15.000Z</time>
      </trkpt>
      <trkpt lat="45.46897" lon="6.06557">
        <ele>256.79998779297</ele>
        <time>2021-12-31T10:12:20.000Z</time>
      </trkpt>
      <trkpt lat="45.46894" lon="6.06555">
        <ele>257.20001220703</ele>
        <time>2021-12-31T10:12:21.000Z</time>
      </trkpt>
      <trkpt lat="45.46887" lon="6.0655">
        <ele>257.60000610352</ele>
        <time>2021-12-31T10:12:24.000Z</time>
      </trkpt>
      <trkpt lat="45.46877" lon="6.06542">
        <ele>258.79998779297</ele>
        <time>2021-12-31T10:12:28.000Z</time>
      </trkpt>
      <trkpt lat="45.46875" lon="6.06541">
        <ele>259</ele>
        <time>2021-12-31T10:12:29.000Z</time>
      </trkpt>
      <trkpt lat="45.46867" lon="6.06535">
        <ele>259.79998779297</ele>
        <time>2021-12-31T10:12:32.000Z</time>
      </trkpt>
      <trkpt lat="45.46856" lon="6.06529">
        <ele>260.79998779297</ele>
        <time>2021-12-31T10:12:36.000Z</time>
      </trkpt>
      <trkpt lat="45.46853" lon="6.06528">
        <ele>261</ele>
        <time>2021-12-31T10:12:37.000Z</time>
      </trkpt>
      <trkpt lat="45.46848" lon="6.06527">
        <ele>261.39999389648</ele>
        <time>2021-12-31T10:12:39.000Z</time>
      </trkpt>
      <trkpt lat="45.46843" lon="6.06525">
        <ele>262</ele>
        <time>2021-12-31T10:12:41.000Z</time>
      </trkpt>
      <trkpt lat="45.46829" lon="6.06518">
        <ele>263.39999389648</ele>
        <time>2021-12-31T10:12:46.000Z</time>
      </trkpt>
      <trkpt lat="45.46826" lon="6.06517">
        <ele>263.39999389648</ele>
        <time>2021-12-31T10:12:47.000Z</time>
      </trkpt>
      <trkpt lat="45.46816" lon="6.0651">
        <ele>264.39999389648</ele>
        <time>2021-12-31T10:12:51.000Z</time>
      </trkpt>
      <trkpt lat="45.46802" lon="6.06504">
        <ele>265.60000610352</ele>
        <time>2021-12-31T10:12:56.000Z</time>
      </trkpt>
      <trkpt lat="45.46787" lon="6.06497">
        <ele>266.79998779297</ele>
        <time>2021-12-31T10:13:01.000Z</time>
      </trkpt>
      <trkpt lat="45.46774" lon="6.06489">
        <ele>267.60000610352</ele>
        <time>2021-12-31T10:13:06.000Z</time>
      </trkpt>
      <trkpt lat="45.46769" lon="6.06486">
        <ele>268</ele>
        <time>2021-12-31T10:13:08.000Z</time>
      </trkpt>
      <trkpt lat="45.46756" lon="6.06477">
        <ele>269.20001220703</ele>
        <time>2021-12-31T10:13:13.000Z</time>
      </trkpt>
      <trkpt lat="45.46748" lon="6.06471">
        <ele>269.79998779297</ele>
        <time>2021-12-31T10:13:16.000Z</time>
      </trkpt>
      <trkpt lat="45.46743" lon="6.06467">
        <ele>270.20001220703</ele>
        <time>2021-12-31T10:13:18.000Z</time>
      </trkpt>
      <trkpt lat="45.4673" lon="6.06457">
        <ele>271.39999389648</ele>
        <time>2021-12-31T10:13:23.000Z</time>
      </trkpt>
      <trkpt lat="45.46724" lon="6.06454">
        <ele>272</ele>
        <time>2021-12-31T10:13:25.000Z</time>
      </trkpt>
      <trkpt lat="45.46722" lon="6.06452">
        <ele>272.39999389648</ele>
        <time>2021-12-31T10:13:26.000Z</time>
      </trkpt>
      <trkpt lat="45.46705" lon="6.06443">
        <ele>273.60000610352</ele>
        <time>2021-12-31T10:13:32.000Z</time>
      </trkpt>
      <trkpt lat="45.46702" lon="6.06442">
        <ele>273.79998779297</ele>
        <time>2021-12-31T10:13:33.000Z</time>
      </trkpt>
      <trkpt lat="45.46688" lon="6.06434">
        <ele>274.60000610352</ele>
        <time>2021-12-31T10:13:38.000Z</time>
      </trkpt>
      <trkpt lat="45.46673" lon="6.06426">
        <ele>275.60000610352</ele>
        <time>2021-12-31T10:13:43.000Z</time>
      </trkpt>
      <trkpt lat="45.4667" lon="6.06425">
        <ele>275.79998779297</ele>
        <time>2021-12-31T10:13:44.000Z</time>
      </trkpt>
      <trkpt lat="45.46648" lon="6.06414">
        <ele>276.79998779297</ele>
        <time>2021-12-31T10:13:51.000Z</time>
      </trkpt>
      <trkpt lat="45.46642" lon="6.06412">
        <ele>277</ele>
        <time>2021-12-31T10:13:53.000Z</time>
      </trkpt>
      <trkpt lat="45.4662" lon="6.06399">
        <ele>277.60000610352</ele>
        <time>2021-12-31T10:14:00.000Z</time>
      </trkpt>
      <trkpt lat="45.46606" lon="6.06384">
        <ele>277.60000610352</ele>
        <time>2021-12-31T10:14:04.000Z</time>
      </trkpt>
      <trkpt lat="45.46602" lon="6.0638">
        <ele>277.60000610352</ele>
        <time>2021-12-31T10:14:05.000Z</time>
      </trkpt>
      <trkpt lat="45.46597" lon="6.06377">
        <ele>277.60000610352</ele>
        <time>2021-12-31T10:14:06.000Z</time>
      </trkpt>
      <trkpt lat="45.46572" lon="6.06363">
        <ele>276.79998779297</ele>
        <time>2021-12-31T10:14:10.000Z</time>
      </trkpt>
      <trkpt lat="45.46544" lon="6.06346">
        <ele>275.39999389648</ele>
        <time>2021-12-31T10:14:14.000Z</time>
      </trkpt>
      <trkpt lat="45.46529" lon="6.06338">
        <ele>274.39999389648</ele>
        <time>2021-12-31T10:14:16.000Z</time>
      </trkpt>
      <trkpt lat="45.46521" lon="6.06333">
        <ele>274.20001220703</ele>
        <time>2021-12-31T10:14:17.000Z</time>
      </trkpt>
      <trkpt lat="45.46502" lon="6.06323">
        <ele>272.79998779297</ele>
        <time>2021-12-31T10:14:20.000Z</time>
      </trkpt>
      <trkpt lat="45.46496" lon="6.0632">
        <ele>272.20001220703</ele>
        <time>2021-12-31T10:14:21.000Z</time>
      </trkpt>
      <trkpt lat="45.46485" lon="6.06309">
        <ele>271.20001220703</ele>
        <time>2021-12-31T10:14:23.000Z</time>
      </trkpt>
      <trkpt lat="45.46475" lon="6.06296">
        <ele>270.20001220703</ele>
        <time>2021-12-31T10:14:25.000Z</time>
      </trkpt>
      <trkpt lat="45.46452" lon="6.06268">
        <ele>269</ele>
        <time>2021-12-31T10:14:29.000Z</time>
      </trkpt>
      <trkpt lat="45.46447" lon="6.0626">
        <ele>268.60000610352</ele>
        <time>2021-12-31T10:14:30.000Z</time>
      </trkpt>
      <trkpt lat="45.46432" lon="6.06231">
        <ele>267.79998779297</ele>
        <time>2021-12-31T10:14:33.000Z</time>
      </trkpt>
      <trkpt lat="45.46417" lon="6.06202">
        <ele>266.60000610352</ele>
        <time>2021-12-31T10:14:36.000Z</time>
      </trkpt>
      <trkpt lat="45.46407" lon="6.06184">
        <ele>265.60000610352</ele>
        <time>2021-12-31T10:14:38.000Z</time>
      </trkpt>
      <trkpt lat="45.464" lon="6.06176">
        <ele>265.20001220703</ele>
        <time>2021-12-31T10:14:39.000Z</time>
      </trkpt>
      <trkpt lat="45.46394" lon="6.06168">
        <ele>264.39999389648</ele>
        <time>2021-12-31T10:14:40.000Z</time>
      </trkpt>
      <trkpt lat="45.46388" lon="6.06161">
        <ele>263.60000610352</ele>
        <time>2021-12-31T10:14:41.000Z</time>
      </trkpt>
      <trkpt lat="45.4637" lon="6.06141">
        <ele>262.39999389648</ele>
        <time>2021-12-31T10:14:44.000Z</time>
      </trkpt>
      <trkpt lat="45.46357" lon="6.06128">
        <ele>261.39999389648</ele>
        <time>2021-12-31T10:14:46.000Z</time>
      </trkpt>
      <trkpt lat="45.46351" lon="6.06122">
        <ele>261.20001220703</ele>
        <time>2021-12-31T10:14:47.000Z</time>
      </trkpt>
      <trkpt lat="45.46327" lon="6.06095">
        <ele>260</ele>
        <time>2021-12-31T10:14:51.000Z</time>
      </trkpt>
      <trkpt lat="45.46316" lon="6.06082">
        <ele>259.60000610352</ele>
        <time>2021-12-31T10:14:53.000Z</time>
      </trkpt>
      <trkpt lat="45.46304" lon="6.06069">
        <ele>259.20001220703</ele>
        <time>2021-12-31T10:14:55.000Z</time>
      </trkpt>
      <trkpt lat="45.46298" lon="6.06063">
        <ele>258.79998779297</ele>
        <time>2021-12-31T10:14:56.000Z</time>
      </trkpt>
      <trkpt lat="45.46286" lon="6.06051">
        <ele>258.39999389648</ele>
        <time>2021-12-31T10:14:58.000Z</time>
      </trkpt>
      <trkpt lat="45.46253" lon="6.06029">
        <ele>257.79998779297</ele>
        <time>2021-12-31T10:15:03.000Z</time>
      </trkpt>
      <trkpt lat="45.46242" lon="6.06021">
        <ele>257.79998779297</ele>
        <time>2021-12-31T10:15:05.000Z</time>
      </trkpt>
      <trkpt lat="45.46232" lon="6.06009">
        <ele>257.60000610352</ele>
        <time>2021-12-31T10:15:07.000Z</time>
      </trkpt>
      <trkpt lat="45.46229" lon="6.06">
        <ele>257.39999389648</ele>
        <time>2021-12-31T10:15:08.000Z</time>
      </trkpt>
      <trkpt lat="45.46225" lon="6.05982">
        <ele>257.20001220703</ele>
        <time>2021-12-31T10:15:10.000Z</time>
      </trkpt>
      <trkpt lat="45.46221" lon="6.05953">
        <ele>257</ele>
        <time>2021-12-31T10:15:13.000Z</time>
      </trkpt>
      <trkpt lat="45.4622" lon="6.05936">
        <ele>256.79998779297</ele>
        <time>2021-12-31T10:15:15.000Z</time>
      </trkpt>
      <trkpt lat="45.46214" lon="6.05897">
        <ele>256.39999389648</ele>
        <time>2021-12-31T10:15:19.000Z</time>
      </trkpt>
      <trkpt lat="45.46206" lon="6.05859">
        <ele>255.80000305176</ele>
        <time>2021-12-31T10:15:23.000Z</time>
      </trkpt>
      <trkpt lat="45.46202" lon="6.05841">
        <ele>255.19999694824</ele>
        <time>2021-12-31T10:15:25.000Z</time>
      </trkpt>
      <trkpt lat="45.462" lon="6.05833">
        <ele>255.19999694824</ele>
        <time>2021-12-31T10:15:26.000Z</time>
      </trkpt>
      <trkpt lat="45.46197" lon="6.05814">
        <ele>255</ele>
        <time>2021-12-31T10:15:28.000Z</time>
      </trkpt>
      <trkpt lat="45.46191" lon="6.05791">
        <ele>254.39999389648</ele>
        <time>2021-12-31T10:15:30.000Z</time>
      </trkpt>
      <trkpt lat="45.46184" lon="6.0577">
        <ele>253.60000610352</ele>
        <time>2021-12-31T10:15:32.000Z</time>
      </trkpt>
      <trkpt lat="45.46181" lon="6.05759">
        <ele>253.19999694824</ele>
        <time>2021-12-31T10:15:33.000Z</time>
      </trkpt>
      <trkpt lat="45.46169" lon="6.05722">
        <ele>252</ele>
        <time>2021-12-31T10:15:37.000Z</time>
      </trkpt>
      <trkpt lat="45.46161" lon="6.05705">
        <ele>251.80000305176</ele>
        <time>2021-12-31T10:15:39.000Z</time>
      </trkpt>
      <trkpt lat="45.46136" lon="6.05655">
        <ele>251</ele>
        <time>2021-12-31T10:15:45.000Z</time>
      </trkpt>
      <trkpt lat="45.46123" lon="6.05621">
        <ele>250.60000610352</ele>
        <time>2021-12-31T10:15:49.000Z</time>
      </trkpt>
      <trkpt lat="45.46108" lon="6.05587">
        <ele>250</ele>
        <time>2021-12-31T10:15:53.000Z</time>
      </trkpt>
      <trkpt lat="45.46098" lon="6.05564">
        <ele>249.80000305176</ele>
        <time>2021-12-31T10:15:56.000Z</time>
      </trkpt>
      <trkpt lat="45.46095" lon="6.05556">
        <ele>249.60000610352</ele>
        <time>2021-12-31T10:15:57.000Z</time>
      </trkpt>
      <trkpt lat="45.4608" lon="6.05506">
        <ele>249</ele>
        <time>2021-12-31T10:16:02.000Z</time>
      </trkpt>
      <trkpt lat="45.46073" lon="6.05465">
        <ele>247.80000305176</ele>
        <time>2021-12-31T10:16:06.000Z</time>
      </trkpt>
      <trkpt lat="45.46069" lon="6.05436">
        <ele>247.19999694824</ele>
        <time>2021-12-31T10:16:09.000Z</time>
      </trkpt>
      <trkpt lat="45.46067" lon="6.05418">
        <ele>246.39999389648</ele>
        <time>2021-12-31T10:16:11.000Z</time>
      </trkpt>
      <trkpt lat="45.46067" lon="6.0541">
        <ele>246.39999389648</ele>
        <time>2021-12-31T10:16:12.000Z</time>
      </trkpt>
      <trkpt lat="45.46068" lon="6.05401">
        <ele>246.19999694824</ele>
        <time>2021-12-31T10:16:13.000Z</time>
      </trkpt>
      <trkpt lat="45.46068" lon="6.05393">
        <ele>246</ele>
        <time>2021-12-31T10:16:14.000Z</time>
      </trkpt>
      <trkpt lat="45.46062" lon="6.05379">
        <ele>245.80000305176</ele>
        <time>2021-12-31T10:16:16.000Z</time>
      </trkpt>
      <trkpt lat="45.46052" lon="6.05358">
        <ele>245.39999389648</ele>
        <time>2021-12-31T10:16:19.000Z</time>
      </trkpt>
      <trkpt lat="45.46049" lon="6.05351">
        <ele>245</ele>
        <time>2021-12-31T10:16:20.000Z</time>
      </trkpt>
      <trkpt lat="45.46046" lon="6.05343">
        <ele>245</ele>
        <time>2021-12-31T10:16:21.000Z</time>
      </trkpt>
      <trkpt lat="45.46044" lon="6.05308">
        <ele>244.60000610352</ele>
        <time>2021-12-31T10:16:25.000Z</time>
      </trkpt>
      <trkpt lat="45.46043" lon="6.053">
        <ele>244.39999389648</ele>
        <time>2021-12-31T10:16:26.000Z</time>
      </trkpt>
      <trkpt lat="45.4604" lon="6.05283">
        <ele>244.39999389648</ele>
        <time>2021-12-31T10:16:28.000Z</time>
      </trkpt>
      <trkpt lat="45.46036" lon="6.05267">
        <ele>244.39999389648</ele>
        <time>2021-12-31T10:16:30.000Z</time>
      </trkpt>
      <trkpt lat="45.4603" lon="6.05252">
        <ele>244.19999694824</ele>
        <time>2021-12-31T10:16:32.000Z</time>
      </trkpt>
      <trkpt lat="45.46018" lon="6.05223">
        <ele>244</ele>
        <time>2021-12-31T10:16:36.000Z</time>
      </trkpt>
      <trkpt lat="45.46009" lon="6.05201">
        <ele>244</ele>
        <time>2021-12-31T10:16:39.000Z</time>
      </trkpt>
      <trkpt lat="45.46005" lon="6.05196">
        <ele>243.80000305176</ele>
        <time>2021-12-31T10:16:40.000Z</time>
      </trkpt>
      <trkpt lat="45.46" lon="6.05189">
        <ele>243.80000305176</ele>
        <time>2021-12-31T10:16:41.000Z</time>
      </trkpt>
      <trkpt lat="45.45993" lon="6.05177">
        <ele>243.80000305176</ele>
        <time>2021-12-31T10:16:43.000Z</time>
      </trkpt>
      <trkpt lat="45.45991" lon="6.0517">
        <ele>243.80000305176</ele>
        <time>2021-12-31T10:16:44.000Z</time>
      </trkpt>
      <trkpt lat="45.4599" lon="6.05162">
        <ele>243.80000305176</ele>
        <time>2021-12-31T10:16:45.000Z</time>
      </trkpt>
      <trkpt lat="45.45989" lon="6.05139">
        <ele>243.80000305176</ele>
        <time>2021-12-31T10:16:48.000Z</time>
      </trkpt>
      <trkpt lat="45.45983" lon="6.05125">
        <ele>243.80000305176</ele>
        <time>2021-12-31T10:16:50.000Z</time>
      </trkpt>
      <trkpt lat="45.45978" lon="6.0512">
        <ele>243.80000305176</ele>
        <time>2021-12-31T10:16:51.000Z</time>
      </trkpt>
      <trkpt lat="45.45958" lon="6.05102">
        <ele>244</ele>
        <time>2021-12-31T10:16:55.000Z</time>
      </trkpt>
      <trkpt lat="45.45945" lon="6.051">
        <ele>244</ele>
        <time>2021-12-31T10:16:57.000Z</time>
      </trkpt>
      <trkpt lat="45.45929" lon="6.05109">
        <ele>244</ele>
        <time>2021-12-31T10:17:00.000Z</time>
      </trkpt>
      <trkpt lat="45.45918" lon="6.05107">
        <ele>244</ele>
        <time>2021-12-31T10:17:02.000Z</time>
      </trkpt>
      <trkpt lat="45.45914" lon="6.05105">
        <ele>244</ele>
        <time>2021-12-31T10:17:03.000Z</time>
      </trkpt>
      <trkpt lat="45.45909" lon="6.05102">
        <ele>244</ele>
        <time>2021-12-31T10:17:04.000Z</time>
      </trkpt>
      <trkpt lat="45.45895" lon="6.05092">
        <ele>244.60000610352</ele>
        <time>2021-12-31T10:17:08.000Z</time>
      </trkpt>
      <trkpt lat="45.45889" lon="6.05088">
        <ele>245</ele>
        <time>2021-12-31T10:17:10.000Z</time>
      </trkpt>
      <trkpt lat="45.45873" lon="6.05078">
        <ele>246.19999694824</ele>
        <time>2021-12-31T10:17:15.000Z</time>
      </trkpt>
      <trkpt lat="45.4587" lon="6.05077">
        <ele>246.60000610352</ele>
        <time>2021-12-31T10:17:16.000Z</time>
      </trkpt>
      <trkpt lat="45.4586" lon="6.05071">
        <ele>247.19999694824</ele>
        <time>2021-12-31T10:17:19.000Z</time>
      </trkpt>
      <trkpt lat="45.45849" lon="6.05064">
        <ele>247.80000305176</ele>
        <time>2021-12-31T10:17:23.000Z</time>
      </trkpt>
      <trkpt lat="45.45844" lon="6.0506">
        <ele>248.19999694824</ele>
        <time>2021-12-31T10:17:25.000Z</time>
      </trkpt>
      <trkpt lat="45.45834" lon="6.05053">
        <ele>249</ele>
        <time>2021-12-31T10:17:29.000Z</time>
      </trkpt>
      <trkpt lat="45.45829" lon="6.05047">
        <ele>249.19999694824</ele>
        <time>2021-12-31T10:17:31.000Z</time>
      </trkpt>
      <trkpt lat="45.45821" lon="6.0504">
        <ele>250</ele>
        <time>2021-12-31T10:17:34.000Z</time>
      </trkpt>
      <trkpt lat="45.45816" lon="6.05035">
        <ele>250.39999389648</ele>
        <time>2021-12-31T10:17:36.000Z</time>
      </trkpt>
      <trkpt lat="45.45806" lon="6.05024">
        <ele>251.39999389648</ele>
        <time>2021-12-31T10:17:40.000Z</time>
      </trkpt>
      <trkpt lat="45.45803" lon="6.0502">
        <ele>251.60000610352</ele>
        <time>2021-12-31T10:17:41.000Z</time>
      </trkpt>
      <trkpt lat="45.45791" lon="6.05005">
        <ele>252.60000610352</ele>
        <time>2021-12-31T10:17:46.000Z</time>
      </trkpt>
      <trkpt lat="45.45783" lon="6.04997">
        <ele>253.19999694824</ele>
        <time>2021-12-31T10:17:49.000Z</time>
      </trkpt>
      <trkpt lat="45.45779" lon="6.04992">
        <ele>253.80000305176</ele>
        <time>2021-12-31T10:17:51.000Z</time>
      </trkpt>
      <trkpt lat="45.45764" lon="6.04973">
        <ele>254.80000305176</ele>
        <time>2021-12-31T10:17:57.000Z</time>
      </trkpt>
      <trkpt lat="45.4575" lon="6.04957">
        <ele>255.60000610352</ele>
        <time>2021-12-31T10:18:03.000Z</time>
      </trkpt>
      <trkpt lat="45.45748" lon="6.04954">
        <ele>256</ele>
        <time>2021-12-31T10:18:04.000Z</time>
      </trkpt>
      <trkpt lat="45.45738" lon="6.04944">
        <ele>256.79998779297</ele>
        <time>2021-12-31T10:18:08.000Z</time>
      </trkpt>
      <trkpt lat="45.45729" lon="6.04936">
        <ele>257.39999389648</ele>
        <time>2021-12-31T10:18:11.000Z</time>
      </trkpt>
      <trkpt lat="45.45725" lon="6.04933">
        <ele>257.79998779297</ele>
        <time>2021-12-31T10:18:13.000Z</time>
      </trkpt>
      <trkpt lat="45.45717" lon="6.04929">
        <ele>258.20001220703</ele>
        <time>2021-12-31T10:18:16.000Z</time>
      </trkpt>
      <trkpt lat="45.4571" lon="6.04925">
        <ele>258.79998779297</ele>
        <time>2021-12-31T10:18:19.000Z</time>
      </trkpt>
      <trkpt lat="45.457" lon="6.04919">
        <ele>259.39999389648</ele>
        <time>2021-12-31T10:18:23.000Z</time>
      </trkpt>
      <trkpt lat="45.45691" lon="6.04914">
        <ele>260</ele>
        <time>2021-12-31T10:18:26.000Z</time>
      </trkpt>
      <trkpt lat="45.45676" lon="6.04905">
        <ele>261</ele>
        <time>2021-12-31T10:18:31.000Z</time>
      </trkpt>
      <trkpt lat="45.45673" lon="6.04905">
        <ele>261</ele>
        <time>2021-12-31T10:18:32.000Z</time>
      </trkpt>
      <trkpt lat="45.45659" lon="6.04909">
        <ele>262</ele>
        <time>2021-12-31T10:18:36.000Z</time>
      </trkpt>
      <trkpt lat="45.45656" lon="6.04911">
        <ele>262.20001220703</ele>
        <time>2021-12-31T10:18:37.000Z</time>
      </trkpt>
      <trkpt lat="45.45646" lon="6.04929">
        <ele>263.20001220703</ele>
        <time>2021-12-31T10:18:42.000Z</time>
      </trkpt>
      <trkpt lat="45.4564" lon="6.04949">
        <ele>264.60000610352</ele>
        <time>2021-12-31T10:18:47.000Z</time>
      </trkpt>
      <trkpt lat="45.45636" lon="6.04962">
        <ele>265</ele>
        <time>2021-12-31T10:18:50.000Z</time>
      </trkpt>
      <trkpt lat="45.45634" lon="6.04971">
        <ele>265.60000610352</ele>
        <time>2021-12-31T10:18:52.000Z</time>
      </trkpt>
      <trkpt lat="45.45628" lon="6.0499">
        <ele>266.20001220703</ele>
        <time>2021-12-31T10:18:57.000Z</time>
      </trkpt>
      <trkpt lat="45.45626" lon="6.04995">
        <ele>266.60000610352</ele>
        <time>2021-12-31T10:18:58.000Z</time>
      </trkpt>
      <trkpt lat="45.45619" lon="6.05006">
        <ele>267.39999389648</ele>
        <time>2021-12-31T10:19:02.000Z</time>
      </trkpt>
      <trkpt lat="45.45616" lon="6.05008">
        <ele>267.60000610352</ele>
        <time>2021-12-31T10:19:03.000Z</time>
      </trkpt>
      <trkpt lat="45.45603" lon="6.0501">
        <ele>268.60000610352</ele>
        <time>2021-12-31T10:19:08.000Z</time>
      </trkpt>
      <trkpt lat="45.45595" lon="6.05009">
        <ele>269.79998779297</ele>
        <time>2021-12-31T10:19:11.000Z</time>
      </trkpt>
      <trkpt lat="45.45586" lon="6.05005">
        <ele>270.79998779297</ele>
        <time>2021-12-31T10:19:15.000Z</time>
      </trkpt>
      <trkpt lat="45.45584" lon="6.05003">
        <ele>271</ele>
        <time>2021-12-31T10:19:16.000Z</time>
      </trkpt>
      <trkpt lat="45.45573" lon="6.04991">
        <ele>272</ele>
        <time>2021-12-31T10:19:21.000Z</time>
      </trkpt>
      <trkpt lat="45.45565" lon="6.04982">
        <ele>272.60000610352</ele>
        <time>2021-12-31T10:19:24.000Z</time>
      </trkpt>
      <trkpt lat="45.45559" lon="6.04974">
        <ele>273</ele>
        <time>2021-12-31T10:19:26.000Z</time>
      </trkpt>
      <trkpt lat="45.45549" lon="6.04961">
        <ele>273.79998779297</ele>
        <time>2021-12-31T10:19:30.000Z</time>
      </trkpt>
      <trkpt lat="45.45547" lon="6.04959">
        <ele>274</ele>
        <time>2021-12-31T10:19:31.000Z</time>
      </trkpt>
      <trkpt lat="45.45534" lon="6.04945">
        <ele>274.79998779297</ele>
        <time>2021-12-31T10:19:36.000Z</time>
      </trkpt>
      <trkpt lat="45.45517" lon="6.04929">
        <ele>276</ele>
        <time>2021-12-31T10:19:43.000Z</time>
      </trkpt>
      <trkpt lat="45.45497" lon="6.04911">
        <ele>276.79998779297</ele>
        <time>2021-12-31T10:19:50.000Z</time>
      </trkpt>
      <trkpt lat="45.45495" lon="6.04909">
        <ele>277</ele>
        <time>2021-12-31T10:19:51.000Z</time>
      </trkpt>
      <trkpt lat="45.45479" lon="6.04892">
        <ele>278.20001220703</ele>
        <time>2021-12-31T10:19:57.000Z</time>
      </trkpt>
      <trkpt lat="45.45467" lon="6.04879">
        <ele>279.20001220703</ele>
        <time>2021-12-31T10:20:01.000Z</time>
      </trkpt>
      <trkpt lat="45.4546" lon="6.04868">
        <ele>279.79998779297</ele>
        <time>2021-12-31T10:20:04.000Z</time>
      </trkpt>
      <trkpt lat="45.45451" lon="6.0486">
        <ele>280.20001220703</ele>
        <time>2021-12-31T10:20:07.000Z</time>
      </trkpt>
      <trkpt lat="45.45444" lon="6.04856">
        <ele>280.60000610352</ele>
        <time>2021-12-31T10:20:10.000Z</time>
      </trkpt>
      <trkpt lat="45.45437" lon="6.04851">
        <ele>281.20001220703</ele>
        <time>2021-12-31T10:20:13.000Z</time>
      </trkpt>
      <trkpt lat="45.45429" lon="6.04846">
        <ele>281.79998779297</ele>
        <time>2021-12-31T10:20:16.000Z</time>
      </trkpt>
      <trkpt lat="45.45421" lon="6.04841">
        <ele>282.60000610352</ele>
        <time>2021-12-31T10:20:19.000Z</time>
      </trkpt>
      <trkpt lat="45.4541" lon="6.04835">
        <ele>283.60000610352</ele>
        <time>2021-12-31T10:20:23.000Z</time>
      </trkpt>
      <trkpt lat="45.45405" lon="6.04831">
        <ele>283.79998779297</ele>
        <time>2021-12-31T10:20:25.000Z</time>
      </trkpt>
      <trkpt lat="45.45392" lon="6.04823">
        <ele>284.60000610352</ele>
        <time>2021-12-31T10:20:30.000Z</time>
      </trkpt>
      <trkpt lat="45.45389" lon="6.04821">
        <ele>284.79998779297</ele>
        <time>2021-12-31T10:20:31.000Z</time>
      </trkpt>
      <trkpt lat="45.45378" lon="6.04811">
        <ele>286</ele>
        <time>2021-12-31T10:20:35.000Z</time>
      </trkpt>
      <trkpt lat="45.45371" lon="6.04806">
        <ele>286.79998779297</ele>
        <time>2021-12-31T10:20:37.000Z</time>
      </trkpt>
      <trkpt lat="45.45365" lon="6.04801">
        <ele>287.20001220703</ele>
        <time>2021-12-31T10:20:39.000Z</time>
      </trkpt>
      <trkpt lat="45.45354" lon="6.0479">
        <ele>287.60000610352</ele>
        <time>2021-12-31T10:20:43.000Z</time>
      </trkpt>
      <trkpt lat="45.45343" lon="6.04781">
        <ele>288.20001220703</ele>
        <time>2021-12-31T10:20:47.000Z</time>
      </trkpt>
      <trkpt lat="45.4534" lon="6.04779">
        <ele>288.39999389648</ele>
        <time>2021-12-31T10:20:48.000Z</time>
      </trkpt>
      <trkpt lat="45.45326" lon="6.04766">
        <ele>289.20001220703</ele>
        <time>2021-12-31T10:20:53.000Z</time>
      </trkpt>
      <trkpt lat="45.45324" lon="6.04762">
        <ele>289.20001220703</ele>
        <time>2021-12-31T10:20:54.000Z</time>
      </trkpt>
      <trkpt lat="45.4531" lon="6.04748">
        <ele>290.60000610352</ele>
        <time>2021-12-31T10:20:59.000Z</time>
      </trkpt>
      <trkpt lat="45.45307" lon="6.04746">
        <ele>290.60000610352</ele>
        <time>2021-12-31T10:21:00.000Z</time>
      </trkpt>
      <trkpt lat="45.45296" lon="6.04741">
        <ele>291.60000610352</ele>
        <time>2021-12-31T10:21:04.000Z</time>
      </trkpt>
      <trkpt lat="45.45284" lon="6.04733">
        <ele>292.60000610352</ele>
        <time>2021-12-31T10:21:09.000Z</time>
      </trkpt>
      <trkpt lat="45.4528" lon="6.0473">
        <ele>292.60000610352</ele>
        <time>2021-12-31T10:21:10.000Z</time>
      </trkpt>
      <trkpt lat="45.45263" lon="6.04711">
        <ele>293.60000610352</ele>
        <time>2021-12-31T10:21:16.000Z</time>
      </trkpt>
      <trkpt lat="45.45261" lon="6.04709">
        <ele>293.79998779297</ele>
        <time>2021-12-31T10:21:17.000Z</time>
      </trkpt>
      <trkpt lat="45.4525" lon="6.04699">
        <ele>294.79998779297</ele>
        <time>2021-12-31T10:21:21.000Z</time>
      </trkpt>
      <trkpt lat="45.45242" lon="6.04696">
        <ele>295.60000610352</ele>
        <time>2021-12-31T10:21:24.000Z</time>
      </trkpt>
      <trkpt lat="45.45237" lon="6.04695">
        <ele>296</ele>
        <time>2021-12-31T10:21:26.000Z</time>
      </trkpt>
      <trkpt lat="45.45221" lon="6.04682">
        <ele>297</ele>
        <time>2021-12-31T10:21:32.000Z</time>
      </trkpt>
      <trkpt lat="45.45204" lon="6.04672">
        <ele>298</ele>
        <time>2021-12-31T10:21:38.000Z</time>
      </trkpt>
      <trkpt lat="45.45201" lon="6.04671">
        <ele>298.20001220703</ele>
        <time>2021-12-31T10:21:39.000Z</time>
      </trkpt>
      <trkpt lat="45.45184" lon="6.04664">
        <ele>299.39999389648</ele>
        <time>2021-12-31T10:21:45.000Z</time>
      </trkpt>
      <trkpt lat="45.45168" lon="6.04658">
        <ele>300.39999389648</ele>
        <time>2021-12-31T10:21:50.000Z</time>
      </trkpt>
      <trkpt lat="45.45165" lon="6.04655">
        <ele>300.60000610352</ele>
        <time>2021-12-31T10:21:51.000Z</time>
      </trkpt>
      <trkpt lat="45.45146" lon="6.04645">
        <ele>301.60000610352</ele>
        <time>2021-12-31T10:21:57.000Z</time>
      </trkpt>
      <trkpt lat="45.45135" lon="6.04638">
        <ele>302.20001220703</ele>
        <time>2021-12-31T10:22:01.000Z</time>
      </trkpt>
      <trkpt lat="45.45131" lon="6.04635">
        <ele>302.39999389648</ele>
        <time>2021-12-31T10:22:02.000Z</time>
      </trkpt>
      <trkpt lat="45.45129" lon="6.04633">
        <ele>302.60000610352</ele>
        <time>2021-12-31T10:22:03.000Z</time>
      </trkpt>
      <trkpt lat="45.45117" lon="6.04626">
        <ele>303.39999389648</ele>
        <time>2021-12-31T10:22:07.000Z</time>
      </trkpt>
      <trkpt lat="45.4511" lon="6.04622">
        <ele>304</ele>
        <time>2021-12-31T10:22:09.000Z</time>
      </trkpt>
      <trkpt lat="45.45094" lon="6.04614">
        <ele>304.79998779297</ele>
        <time>2021-12-31T10:22:14.000Z</time>
      </trkpt>
      <trkpt lat="45.45092" lon="6.04613">
        <ele>305</ele>
        <time>2021-12-31T10:22:15.000Z</time>
      </trkpt>
      <trkpt lat="45.45079" lon="6.04607">
        <ele>306.20001220703</ele>
        <time>2021-12-31T10:22:20.000Z</time>
      </trkpt>
      <trkpt lat="45.45071" lon="6.04604">
        <ele>306.79998779297</ele>
        <time>2021-12-31T10:22:23.000Z</time>
      </trkpt>
      <trkpt lat="45.45066" lon="6.04602">
        <ele>307.39999389648</ele>
        <time>2021-12-31T10:22:25.000Z</time>
      </trkpt>
      <trkpt lat="45.45051" lon="6.04595">
        <ele>308.79998779297</ele>
        <time>2021-12-31T10:22:30.000Z</time>
      </trkpt>
      <trkpt lat="45.45039" lon="6.04589">
        <ele>309.79998779297</ele>
        <time>2021-12-31T10:22:35.000Z</time>
      </trkpt>
      <trkpt lat="45.45036" lon="6.04588">
        <ele>309.79998779297</ele>
        <time>2021-12-31T10:22:36.000Z</time>
      </trkpt>
      <trkpt lat="45.45024" lon="6.04594">
        <ele>311</ele>
        <time>2021-12-31T10:22:40.000Z</time>
      </trkpt>
      <trkpt lat="45.45019" lon="6.04607">
        <ele>311.39999389648</ele>
        <time>2021-12-31T10:22:43.000Z</time>
      </trkpt>
      <trkpt lat="45.45018" lon="6.04611">
        <ele>311.79998779297</ele>
        <time>2021-12-31T10:22:44.000Z</time>
      </trkpt>
      <trkpt lat="45.45018" lon="6.04616">
        <ele>312</ele>
        <time>2021-12-31T10:22:45.000Z</time>
      </trkpt>
      <trkpt lat="45.45016" lon="6.04635">
        <ele>313.20001220703</ele>
        <time>2021-12-31T10:22:50.000Z</time>
      </trkpt>
      <trkpt lat="45.45016" lon="6.0464">
        <ele>313.39999389648</ele>
        <time>2021-12-31T10:22:51.000Z</time>
      </trkpt>
      <trkpt lat="45.45015" lon="6.04656">
        <ele>314.60000610352</ele>
        <time>2021-12-31T10:22:55.000Z</time>
      </trkpt>
      <trkpt lat="45.45014" lon="6.04678">
        <ele>316</ele>
        <time>2021-12-31T10:23:00.000Z</time>
      </trkpt>
      <trkpt lat="45.45013" lon="6.04682">
        <ele>316.20001220703</ele>
        <time>2021-12-31T10:23:01.000Z</time>
      </trkpt>
      <trkpt lat="45.45012" lon="6.04703">
        <ele>317.20001220703</ele>
        <time>2021-12-31T10:23:06.000Z</time>
      </trkpt>
      <trkpt lat="45.45011" lon="6.04715">
        <ele>318</ele>
        <time>2021-12-31T10:23:09.000Z</time>
      </trkpt>
      <trkpt lat="45.4501" lon="6.04719">
        <ele>318.20001220703</ele>
        <time>2021-12-31T10:23:10.000Z</time>
      </trkpt>
      <trkpt lat="45.4501" lon="6.04728">
        <ele>318.79998779297</ele>
        <time>2021-12-31T10:23:12.000Z</time>
      </trkpt>
      <trkpt lat="45.45009" lon="6.0474">
        <ele>319.39999389648</ele>
        <time>2021-12-31T10:23:15.000Z</time>
      </trkpt>
      <trkpt lat="45.45008" lon="6.04762">
        <ele>320.60000610352</ele>
        <time>2021-12-31T10:23:20.000Z</time>
      </trkpt>
      <trkpt lat="45.45007" lon="6.04766">
        <ele>320.79998779297</ele>
        <time>2021-12-31T10:23:21.000Z</time>
      </trkpt>
      <trkpt lat="45.45006" lon="6.04787">
        <ele>321.60000610352</ele>
        <time>2021-12-31T10:23:26.000Z</time>
      </trkpt>
      <trkpt lat="45.45004" lon="6.0481">
        <ele>322.39999389648</ele>
        <time>2021-12-31T10:23:31.000Z</time>
      </trkpt>
      <trkpt lat="45.45003" lon="6.04814">
        <ele>322.79998779297</ele>
        <time>2021-12-31T10:23:32.000Z</time>
      </trkpt>
      <trkpt lat="45.45002" lon="6.04835">
        <ele>323.60000610352</ele>
        <time>2021-12-31T10:23:37.000Z</time>
      </trkpt>
      <trkpt lat="45.45002" lon="6.04857">
        <ele>324.79998779297</ele>
        <time>2021-12-31T10:23:42.000Z</time>
      </trkpt>
      <trkpt lat="45.45001" lon="6.04861">
        <ele>325</ele>
        <time>2021-12-31T10:23:43.000Z</time>
      </trkpt>
      <trkpt lat="45.45006" lon="6.04887">
        <ele>326</ele>
        <time>2021-12-31T10:23:49.000Z</time>
      </trkpt>
      <trkpt lat="45.45008" lon="6.0489">
        <ele>326</ele>
        <time>2021-12-31T10:23:50.000Z</time>
      </trkpt>
      <trkpt lat="45.45017" lon="6.04907">
        <ele>327.20001220703</ele>
        <time>2021-12-31T10:23:55.000Z</time>
      </trkpt>
      <trkpt lat="45.45019" lon="6.04911">
        <ele>327.20001220703</ele>
        <time>2021-12-31T10:23:56.000Z</time>
      </trkpt>
      <trkpt lat="45.45032" lon="6.04929">
        <ele>328.39999389648</ele>
        <time>2021-12-31T10:24:02.000Z</time>
      </trkpt>
      <trkpt lat="45.45036" lon="6.04934">
        <ele>328.60000610352</ele>
        <time>2021-12-31T10:24:04.000Z</time>
      </trkpt>
      <trkpt lat="45.45039" lon="6.04938">
        <ele>329</ele>
        <time>2021-12-31T10:24:05.000Z</time>
      </trkpt>
      <trkpt lat="45.45043" lon="6.04943">
        <ele>329.39999389648</ele>
        <time>2021-12-31T10:24:07.000Z</time>
      </trkpt>
      <trkpt lat="45.45057" lon="6.04961">
        <ele>330.39999389648</ele>
        <time>2021-12-31T10:24:13.000Z</time>
      </trkpt>
      <trkpt lat="45.45072" lon="6.0498">
        <ele>331.79998779297</ele>
        <time>2021-12-31T10:24:19.000Z</time>
      </trkpt>
      <trkpt lat="45.45076" lon="6.04986">
        <ele>332.39999389648</ele>
        <time>2021-12-31T10:24:21.000Z</time>
      </trkpt>
      <trkpt lat="45.45081" lon="6.04992">
        <ele>332.79998779297</ele>
        <time>2021-12-31T10:24:23.000Z</time>
      </trkpt>
      <trkpt lat="45.45094" lon="6.05009">
        <ele>334</ele>
        <time>2021-12-31T10:24:29.000Z</time>
      </trkpt>
      <trkpt lat="45.45098" lon="6.05015">
        <ele>334.39999389648</ele>
        <time>2021-12-31T10:24:31.000Z</time>
      </trkpt>
      <trkpt lat="45.45104" lon="6.05023">
        <ele>335</ele>
        <time>2021-12-31T10:24:34.000Z</time>
      </trkpt>
      <trkpt lat="45.45114" lon="6.05035">
        <ele>336</ele>
        <time>2021-12-31T10:24:38.000Z</time>
      </trkpt>
      <trkpt lat="45.45117" lon="6.05039">
        <ele>336.20001220703</ele>
        <time>2021-12-31T10:24:39.000Z</time>
      </trkpt>
      <trkpt lat="45.45132" lon="6.0506">
        <ele>337.39999389648</ele>
        <time>2021-12-31T10:24:45.000Z</time>
      </trkpt>
      <trkpt lat="45.45135" lon="6.05063">
        <ele>337.39999389648</ele>
        <time>2021-12-31T10:24:46.000Z</time>
      </trkpt>
      <trkpt lat="45.45157" lon="6.05093">
        <ele>338.39999389648</ele>
        <time>2021-12-31T10:24:54.000Z</time>
      </trkpt>
      <trkpt lat="45.45183" lon="6.05129">
        <ele>339.20001220703</ele>
        <time>2021-12-31T10:25:03.000Z</time>
      </trkpt>
      <trkpt lat="45.45189" lon="6.05136">
        <ele>339.60000610352</ele>
        <time>2021-12-31T10:25:05.000Z</time>
      </trkpt>
      <trkpt lat="45.45214" lon="6.05171">
        <ele>340.39999389648</ele>
        <time>2021-12-31T10:25:14.000Z</time>
      </trkpt>
      <trkpt lat="45.45217" lon="6.05175">
        <ele>340.60000610352</ele>
        <time>2021-12-31T10:25:15.000Z</time>
      </trkpt>
      <trkpt lat="45.45241" lon="6.05207">
        <ele>341.79998779297</ele>
        <time>2021-12-31T10:25:24.000Z</time>
      </trkpt>
      <trkpt lat="45.45256" lon="6.05235">
        <ele>342.60000610352</ele>
        <time>2021-12-31T10:25:31.000Z</time>
      </trkpt>
      <trkpt lat="45.45258" lon="6.0524">
        <ele>343</ele>
        <time>2021-12-31T10:25:32.000Z</time>
      </trkpt>
      <trkpt lat="45.45264" lon="6.05271">
        <ele>343.79998779297</ele>
        <time>2021-12-31T10:25:38.000Z</time>
      </trkpt>
      <trkpt lat="45.45265" lon="6.05284">
        <ele>344.20001220703</ele>
        <time>2021-12-31T10:25:40.000Z</time>
      </trkpt>
      <trkpt lat="45.45262" lon="6.05313">
        <ele>344.39999389648</ele>
        <time>2021-12-31T10:25:45.000Z</time>
      </trkpt>
      <trkpt lat="45.45248" lon="6.05368">
        <ele>344.60000610352</ele>
        <time>2021-12-31T10:25:55.000Z</time>
      </trkpt>
      <trkpt lat="45.45237" lon="6.05408">
        <ele>345.20001220703</ele>
        <time>2021-12-31T10:26:03.000Z</time>
      </trkpt>
      <trkpt lat="45.45236" lon="6.05413">
        <ele>345.20001220703</ele>
        <time>2021-12-31T10:26:04.000Z</time>
      </trkpt>
      <trkpt lat="45.4523" lon="6.05441">
        <ele>346.39999389648</ele>
        <time>2021-12-31T10:26:10.000Z</time>
      </trkpt>
      <trkpt lat="45.45228" lon="6.05446">
        <ele>346.39999389648</ele>
        <time>2021-12-31T10:26:11.000Z</time>
      </trkpt>
      <trkpt lat="45.45225" lon="6.0546">
        <ele>347.39999389648</ele>
        <time>2021-12-31T10:26:14.000Z</time>
      </trkpt>
      <trkpt lat="45.45224" lon="6.05464">
        <ele>347.79998779297</ele>
        <time>2021-12-31T10:26:15.000Z</time>
      </trkpt>
      <trkpt lat="45.45219" lon="6.05483">
        <ele>348.60000610352</ele>
        <time>2021-12-31T10:26:19.000Z</time>
      </trkpt>
      <trkpt lat="45.45215" lon="6.05498">
        <ele>349.60000610352</ele>
        <time>2021-12-31T10:26:22.000Z</time>
      </trkpt>
      <trkpt lat="45.45205" lon="6.05522">
        <ele>350.60000610352</ele>
        <time>2021-12-31T10:26:27.000Z</time>
      </trkpt>
      <trkpt lat="45.45202" lon="6.05525">
        <ele>350.60000610352</ele>
        <time>2021-12-31T10:26:28.000Z</time>
      </trkpt>
      <trkpt lat="45.45188" lon="6.05532">
        <ele>350.79998779297</ele>
        <time>2021-12-31T10:26:32.000Z</time>
      </trkpt>
      <trkpt lat="45.45172" lon="6.05532">
        <ele>351.60000610352</ele>
        <time>2021-12-31T10:26:37.000Z</time>
      </trkpt>
      <trkpt lat="45.45169" lon="6.05531">
        <ele>351.79998779297</ele>
        <time>2021-12-31T10:26:38.000Z</time>
      </trkpt>
      <trkpt lat="45.45159" lon="6.05529">
        <ele>352.79998779297</ele>
        <time>2021-12-31T10:26:41.000Z</time>
      </trkpt>
      <trkpt lat="45.45151" lon="6.05523">
        <ele>353.39999389648</ele>
        <time>2021-12-31T10:26:44.000Z</time>
      </trkpt>
      <trkpt lat="45.45143" lon="6.05516">
        <ele>354</ele>
        <time>2021-12-31T10:26:47.000Z</time>
      </trkpt>
      <trkpt lat="45.45136" lon="6.05509">
        <ele>354.79998779297</ele>
        <time>2021-12-31T10:26:50.000Z</time>
      </trkpt>
      <trkpt lat="45.45132" lon="6.05502">
        <ele>355.20001220703</ele>
        <time>2021-12-31T10:26:52.000Z</time>
      </trkpt>
      <trkpt lat="45.45126" lon="6.05487">
        <ele>356.20001220703</ele>
        <time>2021-12-31T10:26:56.000Z</time>
      </trkpt>
      <trkpt lat="45.4512" lon="6.05473">
        <ele>357.39999389648</ele>
        <time>2021-12-31T10:27:00.000Z</time>
      </trkpt>
      <trkpt lat="45.45118" lon="6.05469">
        <ele>357.60000610352</ele>
        <time>2021-12-31T10:27:01.000Z</time>
      </trkpt>
      <trkpt lat="45.45111" lon="6.05452">
        <ele>358.39999389648</ele>
        <time>2021-12-31T10:27:05.000Z</time>
      </trkpt>
      <trkpt lat="45.45107" lon="6.05445">
        <ele>359.20001220703</ele>
        <time>2021-12-31T10:27:08.000Z</time>
      </trkpt>
      <trkpt lat="45.45103" lon="6.05438">
        <ele>359.79998779297</ele>
        <time>2021-12-31T10:27:10.000Z</time>
      </trkpt>
      <trkpt lat="45.45091" lon="6.05418">
        <ele>360.60000610352</ele>
        <time>2021-12-31T10:27:16.000Z</time>
      </trkpt>
      <trkpt lat="45.45089" lon="6.05415">
        <ele>360.79998779297</ele>
        <time>2021-12-31T10:27:17.000Z</time>
      </trkpt>
      <trkpt lat="45.45073" lon="6.05394">
        <ele>362</ele>
        <time>2021-12-31T10:27:24.000Z</time>
      </trkpt>
      <trkpt lat="45.45069" lon="6.05389">
        <ele>362.20001220703</ele>
        <time>2021-12-31T10:27:26.000Z</time>
      </trkpt>
      <trkpt lat="45.45059" lon="6.05379">
        <ele>363.20001220703</ele>
        <time>2021-12-31T10:27:30.000Z</time>
      </trkpt>
      <trkpt lat="45.45052" lon="6.05373">
        <ele>363.60000610352</ele>
        <time>2021-12-31T10:27:33.000Z</time>
      </trkpt>
      <trkpt lat="45.45047" lon="6.05369">
        <ele>364.20001220703</ele>
        <time>2021-12-31T10:27:35.000Z</time>
      </trkpt>
      <trkpt lat="45.45037" lon="6.0536">
        <ele>365</ele>
        <time>2021-12-31T10:27:39.000Z</time>
      </trkpt>
      <trkpt lat="45.45035" lon="6.05358">
        <ele>365.39999389648</ele>
        <time>2021-12-31T10:27:40.000Z</time>
      </trkpt>
      <trkpt lat="45.45023" lon="6.05348">
        <ele>366.39999389648</ele>
        <time>2021-12-31T10:27:45.000Z</time>
      </trkpt>
      <trkpt lat="45.45021" lon="6.05346">
        <ele>366.60000610352</ele>
        <time>2021-12-31T10:27:46.000Z</time>
      </trkpt>
      <trkpt lat="45.45009" lon="6.05332">
        <ele>367.39999389648</ele>
        <time>2021-12-31T10:27:52.000Z</time>
      </trkpt>
      <trkpt lat="45.45002" lon="6.05322">
        <ele>368.39999389648</ele>
        <time>2021-12-31T10:27:55.000Z</time>
      </trkpt>
      <trkpt lat="45.45" lon="6.05319">
        <ele>368.60000610352</ele>
        <time>2021-12-31T10:27:56.000Z</time>
      </trkpt>
      <trkpt lat="45.44991" lon="6.05303">
        <ele>369.60000610352</ele>
        <time>2021-12-31T10:28:01.000Z</time>
      </trkpt>
      <trkpt lat="45.44988" lon="6.05299">
        <ele>370</ele>
        <time>2021-12-31T10:28:02.000Z</time>
      </trkpt>
      <trkpt lat="45.44982" lon="6.0529">
        <ele>370.39999389648</ele>
        <time>2021-12-31T10:28:05.000Z</time>
      </trkpt>
      <trkpt lat="45.44971" lon="6.05276">
        <ele>371.60000610352</ele>
        <time>2021-12-31T10:28:10.000Z</time>
      </trkpt>
      <trkpt lat="45.44964" lon="6.05265">
        <ele>372.60000610352</ele>
        <time>2021-12-31T10:28:14.000Z</time>
      </trkpt>
      <trkpt lat="45.44956" lon="6.05253">
        <ele>373.60000610352</ele>
        <time>2021-12-31T10:28:18.000Z</time>
      </trkpt>
      <trkpt lat="45.44945" lon="6.05239">
        <ele>374.60000610352</ele>
        <time>2021-12-31T10:28:23.000Z</time>
      </trkpt>
      <trkpt lat="45.44926" lon="6.0522">
        <ele>375.79998779297</ele>
        <time>2021-12-31T10:28:30.000Z</time>
      </trkpt>
      <trkpt lat="45.44906" lon="6.05202">
        <ele>376.79998779297</ele>
        <time>2021-12-31T10:28:37.000Z</time>
      </trkpt>
      <trkpt lat="45.44903" lon="6.05199">
        <ele>376.79998779297</ele>
        <time>2021-12-31T10:28:38.000Z</time>
      </trkpt>
      <trkpt lat="45.44889" lon="6.05183">
        <ele>378</ele>
        <time>2021-12-31T10:28:44.000Z</time>
      </trkpt>
      <trkpt lat="45.44881" lon="6.05176">
        <ele>378.39999389648</ele>
        <time>2021-12-31T10:28:47.000Z</time>
      </trkpt>
      <trkpt lat="45.44872" lon="6.05164">
        <ele>379.39999389648</ele>
        <time>2021-12-31T10:28:51.000Z</time>
      </trkpt>
      <trkpt lat="45.44861" lon="6.05153">
        <ele>380</ele>
        <time>2021-12-31T10:28:55.000Z</time>
      </trkpt>
      <trkpt lat="45.44858" lon="6.0515">
        <ele>380.39999389648</ele>
        <time>2021-12-31T10:28:56.000Z</time>
      </trkpt>
      <trkpt lat="45.44837" lon="6.05126">
        <ele>381.20001220703</ele>
        <time>2021-12-31T10:29:04.000Z</time>
      </trkpt>
      <trkpt lat="45.44832" lon="6.05122">
        <ele>381.39999389648</ele>
        <time>2021-12-31T10:29:06.000Z</time>
      </trkpt>
      <trkpt lat="45.4481" lon="6.05101">
        <ele>382.39999389648</ele>
        <time>2021-12-31T10:29:14.000Z</time>
      </trkpt>
      <trkpt lat="45.44805" lon="6.05095">
        <ele>382.39999389648</ele>
        <time>2021-12-31T10:29:16.000Z</time>
      </trkpt>
      <trkpt lat="45.44781" lon="6.05075">
        <ele>383.39999389648</ele>
        <time>2021-12-31T10:29:24.000Z</time>
      </trkpt>
      <trkpt lat="45.44778" lon="6.05074">
        <ele>383.60000610352</ele>
        <time>2021-12-31T10:29:25.000Z</time>
      </trkpt>
      <trkpt lat="45.44768" lon="6.05077">
        <ele>384.20001220703</ele>
        <time>2021-12-31T10:29:28.000Z</time>
      </trkpt>
      <trkpt lat="45.44763" lon="6.05084">
        <ele>384.79998779297</ele>
        <time>2021-12-31T10:29:30.000Z</time>
      </trkpt>
      <trkpt lat="45.4476" lon="6.05093">
        <ele>385.20001220703</ele>
        <time>2021-12-31T10:29:32.000Z</time>
      </trkpt>
      <trkpt lat="45.44761" lon="6.05111">
        <ele>385.79998779297</ele>
        <time>2021-12-31T10:29:36.000Z</time>
      </trkpt>
      <trkpt lat="45.44762" lon="6.05115">
        <ele>386</ele>
        <time>2021-12-31T10:29:37.000Z</time>
      </trkpt>
      <trkpt lat="45.44774" lon="6.05135">
        <ele>387</ele>
        <time>2021-12-31T10:29:42.000Z</time>
      </trkpt>
      <trkpt lat="45.44779" lon="6.05143">
        <ele>387.39999389648</ele>
        <time>2021-12-31T10:29:44.000Z</time>
      </trkpt>
      <trkpt lat="45.44784" lon="6.05151">
        <ele>388.39999389648</ele>
        <time>2021-12-31T10:29:46.000Z</time>
      </trkpt>
      <trkpt lat="45.44799" lon="6.05176">
        <ele>389.39999389648</ele>
        <time>2021-12-31T10:29:53.000Z</time>
      </trkpt>
      <trkpt lat="45.44802" lon="6.05179">
        <ele>389.60000610352</ele>
        <time>2021-12-31T10:29:54.000Z</time>
      </trkpt>
      <trkpt lat="45.44819" lon="6.05204">
        <ele>390.79998779297</ele>
        <time>2021-12-31T10:30:01.000Z</time>
      </trkpt>
      <trkpt lat="45.44825" lon="6.05215">
        <ele>391.60000610352</ele>
        <time>2021-12-31T10:30:04.000Z</time>
      </trkpt>
      <trkpt lat="45.44834" lon="6.05229">
        <ele>392</ele>
        <time>2021-12-31T10:30:08.000Z</time>
      </trkpt>
      <trkpt lat="45.44841" lon="6.05239">
        <ele>392.60000610352</ele>
        <time>2021-12-31T10:30:11.000Z</time>
      </trkpt>
      <trkpt lat="45.44857" lon="6.05264">
        <ele>394</ele>
        <time>2021-12-31T10:30:18.000Z</time>
      </trkpt>
      <trkpt lat="45.44861" lon="6.05272">
        <ele>394.20001220703</ele>
        <time>2021-12-31T10:30:20.000Z</time>
      </trkpt>
      <trkpt lat="45.44871" lon="6.05292">
        <ele>395</ele>
        <time>2021-12-31T10:30:25.000Z</time>
      </trkpt>
      <trkpt lat="45.44883" lon="6.05315">
        <ele>395.39999389648</ele>
        <time>2021-12-31T10:30:30.000Z</time>
      </trkpt>
      <trkpt lat="45.44889" lon="6.05328">
        <ele>396</ele>
        <time>2021-12-31T10:30:33.000Z</time>
      </trkpt>
      <trkpt lat="45.44903" lon="6.05352">
        <ele>396.60000610352</ele>
        <time>2021-12-31T10:30:39.000Z</time>
      </trkpt>
      <trkpt lat="45.44909" lon="6.05363">
        <ele>397</ele>
        <time>2021-12-31T10:30:42.000Z</time>
      </trkpt>
      <trkpt lat="45.44918" lon="6.05383">
        <ele>397.60000610352</ele>
        <time>2021-12-31T10:30:47.000Z</time>
      </trkpt>
      <trkpt lat="45.44919" lon="6.05387">
        <ele>398.20001220703</ele>
        <time>2021-12-31T10:30:48.000Z</time>
      </trkpt>
      <trkpt lat="45.44927" lon="6.05408">
        <ele>399.20001220703</ele>
        <time>2021-12-31T10:30:53.000Z</time>
      </trkpt>
      <trkpt lat="45.44928" lon="6.05412">
        <ele>399.60000610352</ele>
        <time>2021-12-31T10:30:54.000Z</time>
      </trkpt>
      <trkpt lat="45.44936" lon="6.0543">
        <ele>400.60000610352</ele>
        <time>2021-12-31T10:30:59.000Z</time>
      </trkpt>
      <trkpt lat="45.44947" lon="6.05451">
        <ele>401.79998779297</ele>
        <time>2021-12-31T10:31:05.000Z</time>
      </trkpt>
      <trkpt lat="45.44964" lon="6.05467">
        <ele>403</ele>
        <time>2021-12-31T10:31:11.000Z</time>
      </trkpt>
      <trkpt lat="45.44966" lon="6.0547">
        <ele>403</ele>
        <time>2021-12-31T10:31:12.000Z</time>
      </trkpt>
      <trkpt lat="45.44983" lon="6.05484">
        <ele>404.20001220703</ele>
        <time>2021-12-31T10:31:18.000Z</time>
      </trkpt>
      <trkpt lat="45.44997" lon="6.05498">
        <ele>405.20001220703</ele>
        <time>2021-12-31T10:31:23.000Z</time>
      </trkpt>
      <trkpt lat="45.45006" lon="6.05509">
        <ele>406</ele>
        <time>2021-12-31T10:31:27.000Z</time>
      </trkpt>
      <trkpt lat="45.45012" lon="6.05515">
        <ele>406.39999389648</ele>
        <time>2021-12-31T10:31:29.000Z</time>
      </trkpt>
      <trkpt lat="45.45028" lon="6.0554">
        <ele>407.60000610352</ele>
        <time>2021-12-31T10:31:36.000Z</time>
      </trkpt>
      <trkpt lat="45.45038" lon="6.05569">
        <ele>408.60000610352</ele>
        <time>2021-12-31T10:31:43.000Z</time>
      </trkpt>
      <trkpt lat="45.45039" lon="6.05574">
        <ele>408.60000610352</ele>
        <time>2021-12-31T10:31:44.000Z</time>
      </trkpt>
      <trkpt lat="45.45045" lon="6.05605">
        <ele>409.79998779297</ele>
        <time>2021-12-31T10:31:51.000Z</time>
      </trkpt>
      <trkpt lat="45.4505" lon="6.05627">
        <ele>410.79998779297</ele>
        <time>2021-12-31T10:31:56.000Z</time>
      </trkpt>
      <trkpt lat="45.45055" lon="6.05655">
        <ele>412</ele>
        <time>2021-12-31T10:32:02.000Z</time>
      </trkpt>
      <trkpt lat="45.45059" lon="6.05673">
        <ele>412.79998779297</ele>
        <time>2021-12-31T10:32:06.000Z</time>
      </trkpt>
      <trkpt lat="45.45061" lon="6.05682">
        <ele>413.20001220703</ele>
        <time>2021-12-31T10:32:08.000Z</time>
      </trkpt>
      <trkpt lat="45.45067" lon="6.05714">
        <ele>413.79998779297</ele>
        <time>2021-12-31T10:32:15.000Z</time>
      </trkpt>
      <trkpt lat="45.45071" lon="6.05732">
        <ele>414.20001220703</ele>
        <time>2021-12-31T10:32:19.000Z</time>
      </trkpt>
      <trkpt lat="45.4508" lon="6.05755">
        <ele>415.20001220703</ele>
        <time>2021-12-31T10:32:24.000Z</time>
      </trkpt>
      <trkpt lat="45.45082" lon="6.05759">
        <ele>415.39999389648</ele>
        <time>2021-12-31T10:32:25.000Z</time>
      </trkpt>
      <trkpt lat="45.45098" lon="6.05785">
        <ele>416.20001220703</ele>
        <time>2021-12-31T10:32:31.000Z</time>
      </trkpt>
      <trkpt lat="45.45124" lon="6.05828">
        <ele>416.39999389648</ele>
        <time>2021-12-31T10:32:40.000Z</time>
      </trkpt>
      <trkpt lat="45.45136" lon="6.05862">
        <ele>416.39999389648</ele>
        <time>2021-12-31T10:32:46.000Z</time>
      </trkpt>
      <trkpt lat="45.45137" lon="6.05867">
        <ele>416.39999389648</ele>
        <time>2021-12-31T10:32:47.000Z</time>
      </trkpt>
      <trkpt lat="45.45144" lon="6.05904">
        <ele>417.20001220703</ele>
        <time>2021-12-31T10:32:54.000Z</time>
      </trkpt>
      <trkpt lat="45.45146" lon="6.05914">
        <ele>417.39999389648</ele>
        <time>2021-12-31T10:32:56.000Z</time>
      </trkpt>
      <trkpt lat="45.45151" lon="6.05939">
        <ele>418</ele>
        <time>2021-12-31T10:33:01.000Z</time>
      </trkpt>
      <trkpt lat="45.45155" lon="6.05959">
        <ele>418.60000610352</ele>
        <time>2021-12-31T10:33:05.000Z</time>
      </trkpt>
      <trkpt lat="45.4516" lon="6.05981">
        <ele>419.39999389648</ele>
        <time>2021-12-31T10:33:10.000Z</time>
      </trkpt>
      <trkpt lat="45.45161" lon="6.05985">
        <ele>419.60000610352</ele>
        <time>2021-12-31T10:33:11.000Z</time>
      </trkpt>
      <trkpt lat="45.45168" lon="6.06006">
        <ele>420.60000610352</ele>
        <time>2021-12-31T10:33:16.000Z</time>
      </trkpt>
      <trkpt lat="45.45169" lon="6.0601">
        <ele>420.79998779297</ele>
        <time>2021-12-31T10:33:17.000Z</time>
      </trkpt>
      <trkpt lat="45.45176" lon="6.06024">
        <ele>421.79998779297</ele>
        <time>2021-12-31T10:33:21.000Z</time>
      </trkpt>
      <trkpt lat="45.45182" lon="6.06035">
        <ele>422.39999389648</ele>
        <time>2021-12-31T10:33:24.000Z</time>
      </trkpt>
      <trkpt lat="45.45189" lon="6.06052">
        <ele>423</ele>
        <time>2021-12-31T10:33:28.000Z</time>
      </trkpt>
      <trkpt lat="45.45193" lon="6.06059">
        <ele>423.20001220703</ele>
        <time>2021-12-31T10:33:30.000Z</time>
      </trkpt>
      <trkpt lat="45.45206" lon="6.06083">
        <ele>423.79998779297</ele>
        <time>2021-12-31T10:33:35.000Z</time>
      </trkpt>
      <trkpt lat="45.45208" lon="6.06095">
        <ele>424</ele>
        <time>2021-12-31T10:33:37.000Z</time>
      </trkpt>
      <trkpt lat="45.45219" lon="6.06125">
        <ele>424.79998779297</ele>
        <time>2021-12-31T10:33:43.000Z</time>
      </trkpt>
      <trkpt lat="45.45223" lon="6.06135">
        <ele>425</ele>
        <time>2021-12-31T10:33:45.000Z</time>
      </trkpt>
      <trkpt lat="45.45237" lon="6.06166">
        <ele>426</ele>
        <time>2021-12-31T10:33:52.000Z</time>
      </trkpt>
      <trkpt lat="45.45241" lon="6.06176">
        <ele>426.20001220703</ele>
        <time>2021-12-31T10:33:54.000Z</time>
      </trkpt>
      <trkpt lat="45.45245" lon="6.06196">
        <ele>426.79998779297</ele>
        <time>2021-12-31T10:33:58.000Z</time>
      </trkpt>
      <trkpt lat="45.45243" lon="6.0621">
        <ele>427.20001220703</ele>
        <time>2021-12-31T10:34:01.000Z</time>
      </trkpt>
      <trkpt lat="45.45237" lon="6.06223">
        <ele>428</ele>
        <time>2021-12-31T10:34:04.000Z</time>
      </trkpt>
      <trkpt lat="45.45234" lon="6.06226">
        <ele>428.39999389648</ele>
        <time>2021-12-31T10:34:05.000Z</time>
      </trkpt>
      <trkpt lat="45.45222" lon="6.06234">
        <ele>429.39999389648</ele>
        <time>2021-12-31T10:34:09.000Z</time>
      </trkpt>
      <trkpt lat="45.45218" lon="6.06233">
        <ele>429.60000610352</ele>
        <time>2021-12-31T10:34:10.000Z</time>
      </trkpt>
      <trkpt lat="45.452" lon="6.06232">
        <ele>431</ele>
        <time>2021-12-31T10:34:15.000Z</time>
      </trkpt>
      <trkpt lat="45.45186" lon="6.06231">
        <ele>431.39999389648</ele>
        <time>2021-12-31T10:34:19.000Z</time>
      </trkpt>
      <trkpt lat="45.45175" lon="6.06232">
        <ele>432</ele>
        <time>2021-12-31T10:34:22.000Z</time>
      </trkpt>
      <trkpt lat="45.45158" lon="6.06235">
        <ele>433.20001220703</ele>
        <time>2021-12-31T10:34:27.000Z</time>
      </trkpt>
      <trkpt lat="45.45155" lon="6.06236">
        <ele>433.39999389648</ele>
        <time>2021-12-31T10:34:28.000Z</time>
      </trkpt>
      <trkpt lat="45.45137" lon="6.06241">
        <ele>434.20001220703</ele>
        <time>2021-12-31T10:34:33.000Z</time>
      </trkpt>
      <trkpt lat="45.4513" lon="6.06243">
        <ele>434.39999389648</ele>
        <time>2021-12-31T10:34:35.000Z</time>
      </trkpt>
      <trkpt lat="45.45102" lon="6.06253">
        <ele>435.39999389648</ele>
        <time>2021-12-31T10:34:43.000Z</time>
      </trkpt>
      <trkpt lat="45.45091" lon="6.06258">
        <ele>435.79998779297</ele>
        <time>2021-12-31T10:34:46.000Z</time>
      </trkpt>
      <trkpt lat="45.45082" lon="6.06264">
        <ele>436.39999389648</ele>
        <time>2021-12-31T10:34:49.000Z</time>
      </trkpt>
      <trkpt lat="45.45067" lon="6.06278">
        <ele>437.39999389648</ele>
        <time>2021-12-31T10:34:54.000Z</time>
      </trkpt>
      <trkpt lat="45.45055" lon="6.06295">
        <ele>438.60000610352</ele>
        <time>2021-12-31T10:34:59.000Z</time>
      </trkpt>
      <trkpt lat="45.45049" lon="6.06303">
        <ele>439</ele>
        <time>2021-12-31T10:35:01.000Z</time>
      </trkpt>
      <trkpt lat="45.45044" lon="6.0631">
        <ele>439.60000610352</ele>
        <time>2021-12-31T10:35:03.000Z</time>
      </trkpt>
      <trkpt lat="45.45031" lon="6.06332">
        <ele>440.60000610352</ele>
        <time>2021-12-31T10:35:09.000Z</time>
      </trkpt>
      <trkpt lat="45.45029" lon="6.06335">
        <ele>441</ele>
        <time>2021-12-31T10:35:10.000Z</time>
      </trkpt>
      <trkpt lat="45.45025" lon="6.06343">
        <ele>441.39999389648</ele>
        <time>2021-12-31T10:35:12.000Z</time>
      </trkpt>
      <trkpt lat="45.45021" lon="6.06352">
        <ele>442</ele>
        <time>2021-12-31T10:35:14.000Z</time>
      </trkpt>
      <trkpt lat="45.45008" lon="6.06375">
        <ele>443</ele>
        <time>2021-12-31T10:35:20.000Z</time>
      </trkpt>
      <trkpt lat="45.44995" lon="6.06398">
        <ele>444.20001220703</ele>
        <time>2021-12-31T10:35:26.000Z</time>
      </trkpt>
      <trkpt lat="45.44983" lon="6.06419">
        <ele>445</ele>
        <time>2021-12-31T10:35:31.000Z</time>
      </trkpt>
      <trkpt lat="45.44979" lon="6.06427">
        <ele>445.20001220703</ele>
        <time>2021-12-31T10:35:33.000Z</time>
      </trkpt>
      <trkpt lat="45.44964" lon="6.06454">
        <ele>446.39999389648</ele>
        <time>2021-12-31T10:35:40.000Z</time>
      </trkpt>
      <trkpt lat="45.44961" lon="6.06458">
        <ele>446.39999389648</ele>
        <time>2021-12-31T10:35:41.000Z</time>
      </trkpt>
      <trkpt lat="45.44954" lon="6.06469">
        <ele>447.39999389648</ele>
        <time>2021-12-31T10:35:44.000Z</time>
      </trkpt>
      <trkpt lat="45.44943" lon="6.06488">
        <ele>448.60000610352</ele>
        <time>2021-12-31T10:35:49.000Z</time>
      </trkpt>
      <trkpt lat="45.44936" lon="6.06499">
        <ele>449.60000610352</ele>
        <time>2021-12-31T10:35:52.000Z</time>
      </trkpt>
      <trkpt lat="45.44922" lon="6.06524">
        <ele>450.60000610352</ele>
        <time>2021-12-31T10:35:58.000Z</time>
      </trkpt>
      <trkpt lat="45.44913" lon="6.0654">
        <ele>451.39999389648</ele>
        <time>2021-12-31T10:36:02.000Z</time>
      </trkpt>
      <trkpt lat="45.44909" lon="6.06549">
        <ele>451.79998779297</ele>
        <time>2021-12-31T10:36:04.000Z</time>
      </trkpt>
      <trkpt lat="45.44902" lon="6.06577">
        <ele>452.60000610352</ele>
        <time>2021-12-31T10:36:09.000Z</time>
      </trkpt>
      <trkpt lat="45.449" lon="6.06583">
        <ele>452.79998779297</ele>
        <time>2021-12-31T10:36:10.000Z</time>
      </trkpt>
      <trkpt lat="45.44897" lon="6.06595">
        <ele>452.79998779297</ele>
        <time>2021-12-31T10:36:12.000Z</time>
      </trkpt>
      <trkpt lat="45.44889" lon="6.06618">
        <ele>453.39999389648</ele>
        <time>2021-12-31T10:36:16.000Z</time>
      </trkpt>
      <trkpt lat="45.44883" lon="6.06635">
        <ele>453.79998779297</ele>
        <time>2021-12-31T10:36:19.000Z</time>
      </trkpt>
      <trkpt lat="45.4488" lon="6.06645">
        <ele>454</ele>
        <time>2021-12-31T10:36:21.000Z</time>
      </trkpt>
      <trkpt lat="45.44869" lon="6.06678">
        <ele>455</ele>
        <time>2021-12-31T10:36:27.000Z</time>
      </trkpt>
      <trkpt lat="45.44866" lon="6.06688">
        <ele>455.20001220703</ele>
        <time>2021-12-31T10:36:29.000Z</time>
      </trkpt>
      <trkpt lat="45.44857" lon="6.06715">
        <ele>456</ele>
        <time>2021-12-31T10:36:34.000Z</time>
      </trkpt>
      <trkpt lat="45.44852" lon="6.06731">
        <ele>456.60000610352</ele>
        <time>2021-12-31T10:36:37.000Z</time>
      </trkpt>
      <trkpt lat="45.4485" lon="6.06736">
        <ele>456.79998779297</ele>
        <time>2021-12-31T10:36:38.000Z</time>
      </trkpt>
      <trkpt lat="45.44846" lon="6.06747">
        <ele>457</ele>
        <time>2021-12-31T10:36:40.000Z</time>
      </trkpt>
      <trkpt lat="45.44838" lon="6.06767">
        <ele>458</ele>
        <time>2021-12-31T10:36:44.000Z</time>
      </trkpt>
      <trkpt lat="45.44836" lon="6.06772">
        <ele>458.20001220703</ele>
        <time>2021-12-31T10:36:45.000Z</time>
      </trkpt>
      <trkpt lat="45.44829" lon="6.06792">
        <ele>459.20001220703</ele>
        <time>2021-12-31T10:36:49.000Z</time>
      </trkpt>
      <trkpt lat="45.44827" lon="6.06798">
        <ele>459.20001220703</ele>
        <time>2021-12-31T10:36:50.000Z</time>
      </trkpt>
      <trkpt lat="45.4482" lon="6.06818">
        <ele>460.20001220703</ele>
        <time>2021-12-31T10:36:54.000Z</time>
      </trkpt>
      <trkpt lat="45.44817" lon="6.06828">
        <ele>460.60000610352</ele>
        <time>2021-12-31T10:36:56.000Z</time>
      </trkpt>
      <trkpt lat="45.44806" lon="6.06861">
        <ele>461.39999389648</ele>
        <time>2021-12-31T10:37:02.000Z</time>
      </trkpt>
      <trkpt lat="45.44802" lon="6.06878">
        <ele>461.60000610352</ele>
        <time>2021-12-31T10:37:05.000Z</time>
      </trkpt>
      <trkpt lat="45.44795" lon="6.06903">
        <ele>462.39999389648</ele>
        <time>2021-12-31T10:37:10.000Z</time>
      </trkpt>
      <trkpt lat="45.44793" lon="6.06907">
        <ele>462.60000610352</ele>
        <time>2021-12-31T10:37:11.000Z</time>
      </trkpt>
      <trkpt lat="45.44782" lon="6.06963">
        <ele>463.20001220703</ele>
        <time>2021-12-31T10:37:20.000Z</time>
      </trkpt>
      <trkpt lat="45.44781" lon="6.06969">
        <ele>463.60000610352</ele>
        <time>2021-12-31T10:37:21.000Z</time>
      </trkpt>
      <trkpt lat="45.44777" lon="6.06981">
        <ele>463.60000610352</ele>
        <time>2021-12-31T10:37:23.000Z</time>
      </trkpt>
      <trkpt lat="45.44773" lon="6.07">
        <ele>464</ele>
        <time>2021-12-31T10:37:26.000Z</time>
      </trkpt>
      <trkpt lat="45.44763" lon="6.07048">
        <ele>464.79998779297</ele>
        <time>2021-12-31T10:37:34.000Z</time>
      </trkpt>
      <trkpt lat="45.44759" lon="6.07065">
        <ele>465</ele>
        <time>2021-12-31T10:37:37.000Z</time>
      </trkpt>
      <trkpt lat="45.44757" lon="6.0707">
        <ele>465.20001220703</ele>
        <time>2021-12-31T10:37:38.000Z</time>
      </trkpt>
      <trkpt lat="45.44753" lon="6.07086">
        <ele>465.79998779297</ele>
        <time>2021-12-31T10:37:41.000Z</time>
      </trkpt>
      <trkpt lat="45.4475" lon="6.07098">
        <ele>466.20001220703</ele>
        <time>2021-12-31T10:37:43.000Z</time>
      </trkpt>
      <trkpt lat="45.44745" lon="6.07118">
        <ele>467</ele>
        <time>2021-12-31T10:37:47.000Z</time>
      </trkpt>
      <trkpt lat="45.44741" lon="6.07133">
        <ele>467.79998779297</ele>
        <time>2021-12-31T10:37:50.000Z</time>
      </trkpt>
      <trkpt lat="45.4474" lon="6.07139">
        <ele>468.20001220703</ele>
        <time>2021-12-31T10:37:51.000Z</time>
      </trkpt>
      <trkpt lat="45.44736" lon="6.0715">
        <ele>468.39999389648</ele>
        <time>2021-12-31T10:37:53.000Z</time>
      </trkpt>
      <trkpt lat="45.44734" lon="6.07157">
        <ele>468.39999389648</ele>
        <time>2021-12-31T10:37:54.000Z</time>
      </trkpt>
      <trkpt lat="45.44717" lon="6.07201">
        <ele>468.20001220703</ele>
        <time>2021-12-31T10:38:00.000Z</time>
      </trkpt>
      <trkpt lat="45.44697" lon="6.07257">
        <ele>468.60000610352</ele>
        <time>2021-12-31T10:38:08.000Z</time>
      </trkpt>
      <trkpt lat="45.44687" lon="6.07283">
        <ele>469.20001220703</ele>
        <time>2021-12-31T10:38:12.000Z</time>
      </trkpt>
      <trkpt lat="45.44682" lon="6.07295">
        <ele>469.60000610352</ele>
        <time>2021-12-31T10:38:14.000Z</time>
      </trkpt>
      <trkpt lat="45.44677" lon="6.07307">
        <ele>470</ele>
        <time>2021-12-31T10:38:16.000Z</time>
      </trkpt>
      <trkpt lat="45.44669" lon="6.07327">
        <ele>470.20001220703</ele>
        <time>2021-12-31T10:38:19.000Z</time>
      </trkpt>
      <trkpt lat="45.44664" lon="6.07339">
        <ele>470.39999389648</ele>
        <time>2021-12-31T10:38:21.000Z</time>
      </trkpt>
      <trkpt lat="45.44657" lon="6.07359">
        <ele>470.60000610352</ele>
        <time>2021-12-31T10:38:24.000Z</time>
      </trkpt>
      <trkpt lat="45.44637" lon="6.07416">
        <ele>471</ele>
        <time>2021-12-31T10:38:32.000Z</time>
      </trkpt>
      <trkpt lat="45.44618" lon="6.0747">
        <ele>470.79998779297</ele>
        <time>2021-12-31T10:38:40.000Z</time>
      </trkpt>
      <trkpt lat="45.44604" lon="6.07527">
        <ele>471.39999389648</ele>
        <time>2021-12-31T10:38:48.000Z</time>
      </trkpt>
      <trkpt lat="45.44603" lon="6.07534">
        <ele>471.39999389648</ele>
        <time>2021-12-31T10:38:49.000Z</time>
      </trkpt>
      <trkpt lat="45.44594" lon="6.0759">
        <ele>471.60000610352</ele>
        <time>2021-12-31T10:38:56.000Z</time>
      </trkpt>
      <trkpt lat="45.44585" lon="6.07673">
        <ele>470.79998779297</ele>
        <time>2021-12-31T10:39:06.000Z</time>
      </trkpt>
      <trkpt lat="45.44581" lon="6.07742">
        <ele>470.60000610352</ele>
        <time>2021-12-31T10:39:15.000Z</time>
      </trkpt>
      <trkpt lat="45.44585" lon="6.07795">
        <ele>470.39999389648</ele>
        <time>2021-12-31T10:39:22.000Z</time>
      </trkpt>
      <trkpt lat="45.44585" lon="6.07802">
        <ele>470.39999389648</ele>
        <time>2021-12-31T10:39:23.000Z</time>
      </trkpt>
      <trkpt lat="45.44585" lon="6.07808">
        <ele>470.39999389648</ele>
        <time>2021-12-31T10:39:24.000Z</time>
      </trkpt>
      <trkpt lat="45.44585" lon="6.07826">
        <ele>469.79998779297</ele>
        <time>2021-12-31T10:39:28.000Z</time>
      </trkpt>
      <trkpt lat="45.44585" lon="6.07829">
        <ele>469.39999389648</ele>
        <time>2021-12-31T10:39:30.000Z</time>
      </trkpt>
      <trkpt lat="45.44585" lon="6.07829">
        <ele>469</ele>
        <time>2021-12-31T10:39:32.000Z</time>
      </trkpt>
      <trkpt lat="45.44585" lon="6.07829">
        <ele>468.39999389648</ele>
        <time>2021-12-31T10:39:51.000Z</time>
      </trkpt>
      <trkpt lat="45.44585" lon="6.07829">
        <ele>468.20001220703</ele>
        <time>2021-12-31T10:40:03.000Z</time>
      </trkpt>
      <trkpt lat="45.44585" lon="6.07829">
        <ele>468.60000610352</ele>
        <time>2021-12-31T10:40:32.000Z</time>
      </trkpt>
      <trkpt lat="45.44585" lon="6.07829">
        <ele>468.20001220703</ele>
        <time>2021-12-31T10:41:02.000Z</time>
      </trkpt>
      <trkpt lat="45.44585" lon="6.07829">
        <ele>468</ele>
        <time>2021-12-31T10:41:30.000Z</time>
      </trkpt>
      <trkpt lat="45.44585" lon="6.07829">
        <ele>468</ele>
        <time>2021-12-31T10:41:56.000Z</time>
      </trkpt>
      <trkpt lat="45.44585" lon="6.07829">
        <ele>468.20001220703</ele>
        <time>2021-12-31T10:42:21.000Z</time>
      </trkpt>
      <trkpt lat="45.44585" lon="6.07829">
        <ele>468.39999389648</ele>
        <time>2021-12-31T10:42:48.000Z</time>
      </trkpt>
      <trkpt lat="45.44585" lon="6.07829">
        <ele>468</ele>
        <time>2021-12-31T10:43:07.000Z</time>
      </trkpt>
      <trkpt lat="45.44585" lon="6.07829">
        <ele>468.20001220703</ele>
        <time>2021-12-31T10:43:16.000Z</time>
      </trkpt>
      <trkpt lat="45.44585" lon="6.07829">
        <ele>468</ele>
        <time>2021-12-31T10:43:43.000Z</time>
      </trkpt>
      <trkpt lat="45.44585" lon="6.07829">
        <ele>468.39999389648</ele>
        <time>2021-12-31T10:44:10.000Z</time>
      </trkpt>
      <trkpt lat="45.44585" lon="6.07829">
        <ele>469</ele>
        <time>2021-12-31T10:44:40.000Z</time>
      </trkpt>
      <trkpt lat="45.44585" lon="6.07829">
        <ele>469.20001220703</ele>
        <time>2021-12-31T10:44:49.000Z</time>
      </trkpt>
      <trkpt lat="45.44586" lon="6.07829">
        <ele>469.20001220703</ele>
        <time>2021-12-31T10:44:53.000Z</time>
      </trkpt>
      <trkpt lat="45.44588" lon="6.0784">
        <ele>469.20001220703</ele>
        <time>2021-12-31T10:44:56.000Z</time>
      </trkpt>
      <trkpt lat="45.4459" lon="6.0787">
        <ele>469.39999389648</ele>
        <time>2021-12-31T10:45:01.000Z</time>
      </trkpt>
      <trkpt lat="45.44592" lon="6.07891">
        <ele>469.60000610352</ele>
        <time>2021-12-31T10:45:04.000Z</time>
      </trkpt>
      <trkpt lat="45.44597" lon="6.07927">
        <ele>470</ele>
        <time>2021-12-31T10:45:09.000Z</time>
      </trkpt>
      <trkpt lat="45.44605" lon="6.07979">
        <ele>470.20001220703</ele>
        <time>2021-12-31T10:45:16.000Z</time>
      </trkpt>
      <trkpt lat="45.44617" lon="6.08051">
        <ele>470.20001220703</ele>
        <time>2021-12-31T10:45:25.000Z</time>
      </trkpt>
      <trkpt lat="45.44628" lon="6.08119">
        <ele>469.60000610352</ele>
        <time>2021-12-31T10:45:33.000Z</time>
      </trkpt>
      <trkpt lat="45.44634" lon="6.08157">
        <ele>468.60000610352</ele>
        <time>2021-12-31T10:45:37.000Z</time>
      </trkpt>
      <trkpt lat="45.44638" lon="6.08177">
        <ele>468.20001220703</ele>
        <time>2021-12-31T10:45:39.000Z</time>
      </trkpt>
      <trkpt lat="45.44641" lon="6.08198">
        <ele>467.60000610352</ele>
        <time>2021-12-31T10:45:41.000Z</time>
      </trkpt>
      <trkpt lat="45.44649" lon="6.08249">
        <ele>466.39999389648</ele>
        <time>2021-12-31T10:45:46.000Z</time>
      </trkpt>
      <trkpt lat="45.4465" lon="6.08259">
        <ele>466.39999389648</ele>
        <time>2021-12-31T10:45:47.000Z</time>
      </trkpt>
      <trkpt lat="45.44658" lon="6.08317">
        <ele>465.39999389648</ele>
        <time>2021-12-31T10:45:53.000Z</time>
      </trkpt>
      <trkpt lat="45.44672" lon="6.08384">
        <ele>464.60000610352</ele>
        <time>2021-12-31T10:46:00.000Z</time>
      </trkpt>
      <trkpt lat="45.44676" lon="6.08406">
        <ele>464.39999389648</ele>
        <time>2021-12-31T10:46:02.000Z</time>
      </trkpt>
      <trkpt lat="45.4468" lon="6.08444">
        <ele>463</ele>
        <time>2021-12-31T10:46:05.000Z</time>
      </trkpt>
      <trkpt lat="45.44683" lon="6.0847">
        <ele>462</ele>
        <time>2021-12-31T10:46:07.000Z</time>
      </trkpt>
      <trkpt lat="45.44685" lon="6.08497">
        <ele>460.60000610352</ele>
        <time>2021-12-31T10:46:09.000Z</time>
      </trkpt>
      <trkpt lat="45.44689" lon="6.08536">
        <ele>458.60000610352</ele>
        <time>2021-12-31T10:46:12.000Z</time>
      </trkpt>
      <trkpt lat="45.4469" lon="6.08553">
        <ele>457.60000610352</ele>
        <time>2021-12-31T10:46:13.000Z</time>
      </trkpt>
      <trkpt lat="45.44692" lon="6.08567">
        <ele>457.39999389648</ele>
        <time>2021-12-31T10:46:14.000Z</time>
      </trkpt>
      <trkpt lat="45.44693" lon="6.08581">
        <ele>456.20001220703</ele>
        <time>2021-12-31T10:46:15.000Z</time>
      </trkpt>
      <trkpt lat="45.44695" lon="6.08607">
        <ele>455</ele>
        <time>2021-12-31T10:46:17.000Z</time>
      </trkpt>
      <trkpt lat="45.44698" lon="6.08638">
        <ele>453.60000610352</ele>
        <time>2021-12-31T10:46:19.000Z</time>
      </trkpt>
      <trkpt lat="45.44699" lon="6.08652">
        <ele>452.60000610352</ele>
        <time>2021-12-31T10:46:20.000Z</time>
      </trkpt>
      <trkpt lat="45.44699" lon="6.08666">
        <ele>452.20001220703</ele>
        <time>2021-12-31T10:46:21.000Z</time>
      </trkpt>
      <trkpt lat="45.44699" lon="6.0868">
        <ele>451.39999389648</ele>
        <time>2021-12-31T10:46:22.000Z</time>
      </trkpt>
      <trkpt lat="45.44701" lon="6.08722">
        <ele>450.20001220703</ele>
        <time>2021-12-31T10:46:25.000Z</time>
      </trkpt>
      <trkpt lat="45.44707" lon="6.0875">
        <ele>449</ele>
        <time>2021-12-31T10:46:27.000Z</time>
      </trkpt>
      <trkpt lat="45.44719" lon="6.08774">
        <ele>448.39999389648</ele>
        <time>2021-12-31T10:46:29.000Z</time>
      </trkpt>
      <trkpt lat="45.44725" lon="6.08785">
        <ele>447.60000610352</ele>
        <time>2021-12-31T10:46:30.000Z</time>
      </trkpt>
      <trkpt lat="45.44739" lon="6.08806">
        <ele>446.60000610352</ele>
        <time>2021-12-31T10:46:32.000Z</time>
      </trkpt>
      <trkpt lat="45.44754" lon="6.08826">
        <ele>445.20001220703</ele>
        <time>2021-12-31T10:46:34.000Z</time>
      </trkpt>
      <trkpt lat="45.44769" lon="6.08843">
        <ele>444</ele>
        <time>2021-12-31T10:46:36.000Z</time>
      </trkpt>
      <trkpt lat="45.44784" lon="6.08859">
        <ele>442.60000610352</ele>
        <time>2021-12-31T10:46:38.000Z</time>
      </trkpt>
      <trkpt lat="45.44789" lon="6.08868">
        <ele>441.20001220703</ele>
        <time>2021-12-31T10:46:39.000Z</time>
      </trkpt>
      <trkpt lat="45.44792" lon="6.08878">
        <ele>440.20001220703</ele>
        <time>2021-12-31T10:46:40.000Z</time>
      </trkpt>
      <trkpt lat="45.44794" lon="6.0889">
        <ele>439.60000610352</ele>
        <time>2021-12-31T10:46:41.000Z</time>
      </trkpt>
      <trkpt lat="45.44793" lon="6.08903">
        <ele>438.79998779297</ele>
        <time>2021-12-31T10:46:42.000Z</time>
      </trkpt>
      <trkpt lat="45.44792" lon="6.08917">
        <ele>438.39999389648</ele>
        <time>2021-12-31T10:46:43.000Z</time>
      </trkpt>
      <trkpt lat="45.4479" lon="6.08931">
        <ele>437</ele>
        <time>2021-12-31T10:46:44.000Z</time>
      </trkpt>
      <trkpt lat="45.44789" lon="6.08958">
        <ele>435</ele>
        <time>2021-12-31T10:46:46.000Z</time>
      </trkpt>
      <trkpt lat="45.44792" lon="6.08986">
        <ele>433.20001220703</ele>
        <time>2021-12-31T10:46:48.000Z</time>
      </trkpt>
      <trkpt lat="45.44795" lon="6.08999">
        <ele>431.60000610352</ele>
        <time>2021-12-31T10:46:49.000Z</time>
      </trkpt>
      <trkpt lat="45.448" lon="6.09012">
        <ele>430.60000610352</ele>
        <time>2021-12-31T10:46:50.000Z</time>
      </trkpt>
      <trkpt lat="45.44805" lon="6.09025">
        <ele>429</ele>
        <time>2021-12-31T10:46:51.000Z</time>
      </trkpt>
      <trkpt lat="45.44816" lon="6.09051">
        <ele>427.39999389648</ele>
        <time>2021-12-31T10:46:53.000Z</time>
      </trkpt>
      <trkpt lat="45.44822" lon="6.09064">
        <ele>426</ele>
        <time>2021-12-31T10:46:54.000Z</time>
      </trkpt>
      <trkpt lat="45.44828" lon="6.09077">
        <ele>425</ele>
        <time>2021-12-31T10:46:55.000Z</time>
      </trkpt>
      <trkpt lat="45.44834" lon="6.0909">
        <ele>423.60000610352</ele>
        <time>2021-12-31T10:46:56.000Z</time>
      </trkpt>
      <trkpt lat="45.4484" lon="6.09103">
        <ele>422.39999389648</ele>
        <time>2021-12-31T10:46:57.000Z</time>
      </trkpt>
      <trkpt lat="45.44854" lon="6.09128">
        <ele>420.39999389648</ele>
        <time>2021-12-31T10:46:59.000Z</time>
      </trkpt>
      <trkpt lat="45.44867" lon="6.09149">
        <ele>418.20001220703</ele>
        <time>2021-12-31T10:47:01.000Z</time>
      </trkpt>
      <trkpt lat="45.44877" lon="6.09163">
        <ele>417.39999389648</ele>
        <time>2021-12-31T10:47:02.000Z</time>
      </trkpt>
      <trkpt lat="45.44886" lon="6.09175">
        <ele>416</ele>
        <time>2021-12-31T10:47:03.000Z</time>
      </trkpt>
      <trkpt lat="45.44894" lon="6.09186">
        <ele>414.79998779297</ele>
        <time>2021-12-31T10:47:04.000Z</time>
      </trkpt>
      <trkpt lat="45.4491" lon="6.09206">
        <ele>413</ele>
        <time>2021-12-31T10:47:06.000Z</time>
      </trkpt>
      <trkpt lat="45.44928" lon="6.0923">
        <ele>411.39999389648</ele>
        <time>2021-12-31T10:47:08.000Z</time>
      </trkpt>
      <trkpt lat="45.44937" lon="6.0924">
        <ele>410.20001220703</ele>
        <time>2021-12-31T10:47:09.000Z</time>
      </trkpt>
      <trkpt lat="45.44945" lon="6.0925">
        <ele>410</ele>
        <time>2021-12-31T10:47:10.000Z</time>
      </trkpt>
      <trkpt lat="45.44962" lon="6.0927">
        <ele>409.20001220703</ele>
        <time>2021-12-31T10:47:12.000Z</time>
      </trkpt>
      <trkpt lat="45.4498" lon="6.09289">
        <ele>407.60000610352</ele>
        <time>2021-12-31T10:47:14.000Z</time>
      </trkpt>
      <trkpt lat="45.44989" lon="6.09298">
        <ele>407.20001220703</ele>
        <time>2021-12-31T10:47:15.000Z</time>
      </trkpt>
      <trkpt lat="45.44998" lon="6.09308">
        <ele>406.39999389648</ele>
        <time>2021-12-31T10:47:16.000Z</time>
      </trkpt>
      <trkpt lat="45.45015" lon="6.09328">
        <ele>405.20001220703</ele>
        <time>2021-12-31T10:47:18.000Z</time>
      </trkpt>
      <trkpt lat="45.45024" lon="6.09337">
        <ele>404.79998779297</ele>
        <time>2021-12-31T10:47:19.000Z</time>
      </trkpt>
      <trkpt lat="45.45031" lon="6.09344">
        <ele>404</ele>
        <time>2021-12-31T10:47:20.000Z</time>
      </trkpt>
      <trkpt lat="45.4504" lon="6.09354">
        <ele>403</ele>
        <time>2021-12-31T10:47:21.000Z</time>
      </trkpt>
      <trkpt lat="45.45059" lon="6.09374">
        <ele>401.39999389648</ele>
        <time>2021-12-31T10:47:23.000Z</time>
      </trkpt>
      <trkpt lat="45.45077" lon="6.0939">
        <ele>400.20001220703</ele>
        <time>2021-12-31T10:47:25.000Z</time>
      </trkpt>
      <trkpt lat="45.45094" lon="6.09403">
        <ele>399</ele>
        <time>2021-12-31T10:47:27.000Z</time>
      </trkpt>
      <trkpt lat="45.45106" lon="6.0941">
        <ele>398</ele>
        <time>2021-12-31T10:47:28.000Z</time>
      </trkpt>
      <trkpt lat="45.45116" lon="6.09417">
        <ele>397.39999389648</ele>
        <time>2021-12-31T10:47:29.000Z</time>
      </trkpt>
      <trkpt lat="45.45135" lon="6.09428">
        <ele>396</ele>
        <time>2021-12-31T10:47:31.000Z</time>
      </trkpt>
      <trkpt lat="45.45151" lon="6.09443">
        <ele>395.20001220703</ele>
        <time>2021-12-31T10:47:33.000Z</time>
      </trkpt>
      <trkpt lat="45.45159" lon="6.09452">
        <ele>394.79998779297</ele>
        <time>2021-12-31T10:47:34.000Z</time>
      </trkpt>
      <trkpt lat="45.45164" lon="6.0946">
        <ele>394.20001220703</ele>
        <time>2021-12-31T10:47:35.000Z</time>
      </trkpt>
      <trkpt lat="45.45179" lon="6.09485">
        <ele>393.39999389648</ele>
        <time>2021-12-31T10:47:37.000Z</time>
      </trkpt>
      <trkpt lat="45.45192" lon="6.09508">
        <ele>392.20001220703</ele>
        <time>2021-12-31T10:47:39.000Z</time>
      </trkpt>
      <trkpt lat="45.45198" lon="6.0952">
        <ele>391.60000610352</ele>
        <time>2021-12-31T10:47:40.000Z</time>
      </trkpt>
      <trkpt lat="45.45212" lon="6.09544">
        <ele>390.79998779297</ele>
        <time>2021-12-31T10:47:42.000Z</time>
      </trkpt>
      <trkpt lat="45.45225" lon="6.09569">
        <ele>389.79998779297</ele>
        <time>2021-12-31T10:47:44.000Z</time>
      </trkpt>
      <trkpt lat="45.45229" lon="6.09578">
        <ele>388.79998779297</ele>
        <time>2021-12-31T10:47:45.000Z</time>
      </trkpt>
      <trkpt lat="45.45235" lon="6.09589">
        <ele>388</ele>
        <time>2021-12-31T10:47:46.000Z</time>
      </trkpt>
      <trkpt lat="45.45243" lon="6.09602">
        <ele>387</ele>
        <time>2021-12-31T10:47:47.000Z</time>
      </trkpt>
      <trkpt lat="45.45257" lon="6.09622">
        <ele>385.79998779297</ele>
        <time>2021-12-31T10:47:49.000Z</time>
      </trkpt>
      <trkpt lat="45.45264" lon="6.09635">
        <ele>384.60000610352</ele>
        <time>2021-12-31T10:47:50.000Z</time>
      </trkpt>
      <trkpt lat="45.45271" lon="6.09663">
        <ele>383.20001220703</ele>
        <time>2021-12-31T10:47:52.000Z</time>
      </trkpt>
      <trkpt lat="45.45275" lon="6.09679">
        <ele>382.20001220703</ele>
        <time>2021-12-31T10:47:53.000Z</time>
      </trkpt>
      <trkpt lat="45.45281" lon="6.09711">
        <ele>380.60000610352</ele>
        <time>2021-12-31T10:47:55.000Z</time>
      </trkpt>
      <trkpt lat="45.45285" lon="6.09726">
        <ele>380</ele>
        <time>2021-12-31T10:47:56.000Z</time>
      </trkpt>
      <trkpt lat="45.4529" lon="6.09741">
        <ele>378.79998779297</ele>
        <time>2021-12-31T10:47:57.000Z</time>
      </trkpt>
      <trkpt lat="45.45302" lon="6.09769">
        <ele>377</ele>
        <time>2021-12-31T10:47:59.000Z</time>
      </trkpt>
      <trkpt lat="45.45309" lon="6.09783">
        <ele>375.79998779297</ele>
        <time>2021-12-31T10:48:00.000Z</time>
      </trkpt>
      <trkpt lat="45.45323" lon="6.09811">
        <ele>373.60000610352</ele>
        <time>2021-12-31T10:48:02.000Z</time>
      </trkpt>
      <trkpt lat="45.45336" lon="6.0984">
        <ele>371.60000610352</ele>
        <time>2021-12-31T10:48:04.000Z</time>
      </trkpt>
      <trkpt lat="45.45343" lon="6.09853">
        <ele>370</ele>
        <time>2021-12-31T10:48:05.000Z</time>
      </trkpt>
      <trkpt lat="45.45349" lon="6.09866">
        <ele>369.39999389648</ele>
        <time>2021-12-31T10:48:06.000Z</time>
      </trkpt>
      <trkpt lat="45.45356" lon="6.09879">
        <ele>368</ele>
        <time>2021-12-31T10:48:07.000Z</time>
      </trkpt>
      <trkpt lat="45.45369" lon="6.09904">
        <ele>365.79998779297</ele>
        <time>2021-12-31T10:48:09.000Z</time>
      </trkpt>
      <trkpt lat="45.45375" lon="6.09917">
        <ele>364.39999389648</ele>
        <time>2021-12-31T10:48:10.000Z</time>
      </trkpt>
      <trkpt lat="45.45385" lon="6.0994">
        <ele>362</ele>
        <time>2021-12-31T10:48:12.000Z</time>
      </trkpt>
      <trkpt lat="45.4539" lon="6.09951">
        <ele>361.39999389648</ele>
        <time>2021-12-31T10:48:13.000Z</time>
      </trkpt>
      <trkpt lat="45.45395" lon="6.09962">
        <ele>360.20001220703</ele>
        <time>2021-12-31T10:48:14.000Z</time>
      </trkpt>
      <trkpt lat="45.454" lon="6.09973">
        <ele>358.79998779297</ele>
        <time>2021-12-31T10:48:15.000Z</time>
      </trkpt>
      <trkpt lat="45.45407" lon="6.09995">
        <ele>356.79998779297</ele>
        <time>2021-12-31T10:48:17.000Z</time>
      </trkpt>
      <trkpt lat="45.45409" lon="6.10007">
        <ele>356.39999389648</ele>
        <time>2021-12-31T10:48:18.000Z</time>
      </trkpt>
      <trkpt lat="45.45412" lon="6.10018">
        <ele>355.20001220703</ele>
        <time>2021-12-31T10:48:19.000Z</time>
      </trkpt>
      <trkpt lat="45.45416" lon="6.10028">
        <ele>354.20001220703</ele>
        <time>2021-12-31T10:48:20.000Z</time>
      </trkpt>
      <trkpt lat="45.45426" lon="6.10048">
        <ele>352.39999389648</ele>
        <time>2021-12-31T10:48:22.000Z</time>
      </trkpt>
      <trkpt lat="45.45438" lon="6.10067">
        <ele>351.20001220703</ele>
        <time>2021-12-31T10:48:24.000Z</time>
      </trkpt>
      <trkpt lat="45.45448" lon="6.10084">
        <ele>349.60000610352</ele>
        <time>2021-12-31T10:48:26.000Z</time>
      </trkpt>
      <trkpt lat="45.45457" lon="6.10103">
        <ele>348.60000610352</ele>
        <time>2021-12-31T10:48:28.000Z</time>
      </trkpt>
      <trkpt lat="45.45481" lon="6.10158">
        <ele>347.60000610352</ele>
        <time>2021-12-31T10:48:34.000Z</time>
      </trkpt>
      <trkpt lat="45.4549" lon="6.10175">
        <ele>347.60000610352</ele>
        <time>2021-12-31T10:48:36.000Z</time>
      </trkpt>
      <trkpt lat="45.45513" lon="6.10217">
        <ele>347</ele>
        <time>2021-12-31T10:48:41.000Z</time>
      </trkpt>
      <trkpt lat="45.45521" lon="6.10233">
        <ele>346.79998779297</ele>
        <time>2021-12-31T10:48:43.000Z</time>
      </trkpt>
      <trkpt lat="45.45537" lon="6.10257">
        <ele>346.39999389648</ele>
        <time>2021-12-31T10:48:46.000Z</time>
      </trkpt>
      <trkpt lat="45.45548" lon="6.10273">
        <ele>346.20001220703</ele>
        <time>2021-12-31T10:48:48.000Z</time>
      </trkpt>
      <trkpt lat="45.45565" lon="6.10297">
        <ele>345.39999389648</ele>
        <time>2021-12-31T10:48:51.000Z</time>
      </trkpt>
      <trkpt lat="45.45571" lon="6.10306">
        <ele>345.20001220703</ele>
        <time>2021-12-31T10:48:52.000Z</time>
      </trkpt>
      <trkpt lat="45.45582" lon="6.10322">
        <ele>344.20001220703</ele>
        <time>2021-12-31T10:48:54.000Z</time>
      </trkpt>
      <trkpt lat="45.45595" lon="6.10339">
        <ele>343.60000610352</ele>
        <time>2021-12-31T10:48:56.000Z</time>
      </trkpt>
      <trkpt lat="45.45606" lon="6.10351">
        <ele>343</ele>
        <time>2021-12-31T10:48:58.000Z</time>
      </trkpt>
      <trkpt lat="45.45633" lon="6.10379">
        <ele>342.79998779297</ele>
        <time>2021-12-31T10:49:03.000Z</time>
      </trkpt>
      <trkpt lat="45.45663" lon="6.10409">
        <ele>343.20001220703</ele>
        <time>2021-12-31T10:49:09.000Z</time>
      </trkpt>
      <trkpt lat="45.45698" lon="6.10438">
        <ele>344</ele>
        <time>2021-12-31T10:49:16.000Z</time>
      </trkpt>
      <trkpt lat="45.45703" lon="6.10441">
        <ele>344</ele>
        <time>2021-12-31T10:49:17.000Z</time>
      </trkpt>
      <trkpt lat="45.45729" lon="6.10462">
        <ele>344.79998779297</ele>
        <time>2021-12-31T10:49:23.000Z</time>
      </trkpt>
      <trkpt lat="45.45741" lon="6.10473">
        <ele>344.79998779297</ele>
        <time>2021-12-31T10:49:26.000Z</time>
      </trkpt>
      <trkpt lat="45.45758" lon="6.10487">
        <ele>345</ele>
        <time>2021-12-31T10:49:30.000Z</time>
      </trkpt>
      <trkpt lat="45.45762" lon="6.10491">
        <ele>345.20001220703</ele>
        <time>2021-12-31T10:49:31.000Z</time>
      </trkpt>
      <trkpt lat="45.45787" lon="6.10515">
        <ele>346</ele>
        <time>2021-12-31T10:49:38.000Z</time>
      </trkpt>
      <trkpt lat="45.4579" lon="6.10518">
        <ele>346.20001220703</ele>
        <time>2021-12-31T10:49:39.000Z</time>
      </trkpt>
      <trkpt lat="45.45794" lon="6.10522">
        <ele>346.39999389648</ele>
        <time>2021-12-31T10:49:40.000Z</time>
      </trkpt>
      <trkpt lat="45.45797" lon="6.10525">
        <ele>346.60000610352</ele>
        <time>2021-12-31T10:49:41.000Z</time>
      </trkpt>
      <trkpt lat="45.45806" lon="6.10534">
        <ele>347.20001220703</ele>
        <time>2021-12-31T10:49:44.000Z</time>
      </trkpt>
      <trkpt lat="45.4581" lon="6.10537">
        <ele>347.79998779297</ele>
        <time>2021-12-31T10:49:45.000Z</time>
      </trkpt>
      <trkpt lat="45.45814" lon="6.10542">
        <ele>348</ele>
        <time>2021-12-31T10:49:46.000Z</time>
      </trkpt>
      <trkpt lat="45.45823" lon="6.10552">
        <ele>348.79998779297</ele>
        <time>2021-12-31T10:49:49.000Z</time>
      </trkpt>
      <trkpt lat="45.4583" lon="6.10561">
        <ele>349</ele>
        <time>2021-12-31T10:49:51.000Z</time>
      </trkpt>
      <trkpt lat="45.45837" lon="6.1057">
        <ele>349.60000610352</ele>
        <time>2021-12-31T10:49:53.000Z</time>
      </trkpt>
      <trkpt lat="45.45843" lon="6.10577">
        <ele>350.20001220703</ele>
        <time>2021-12-31T10:49:55.000Z</time>
      </trkpt>
      <trkpt lat="45.45847" lon="6.10581">
        <ele>350.20001220703</ele>
        <time>2021-12-31T10:49:56.000Z</time>
      </trkpt>
      <trkpt lat="45.45855" lon="6.1059">
        <ele>350.60000610352</ele>
        <time>2021-12-31T10:49:58.000Z</time>
      </trkpt>
      <trkpt lat="45.45859" lon="6.10593">
        <ele>350.79998779297</ele>
        <time>2021-12-31T10:49:59.000Z</time>
      </trkpt>
      <trkpt lat="45.45862" lon="6.10597">
        <ele>351</ele>
        <time>2021-12-31T10:50:00.000Z</time>
      </trkpt>
      <trkpt lat="45.45886" lon="6.10622">
        <ele>351.79998779297</ele>
        <time>2021-12-31T10:50:06.000Z</time>
      </trkpt>
      <trkpt lat="45.45895" lon="6.10632">
        <ele>352</ele>
        <time>2021-12-31T10:50:08.000Z</time>
      </trkpt>
      <trkpt lat="45.45922" lon="6.10662">
        <ele>352</ele>
        <time>2021-12-31T10:50:16.000Z</time>
      </trkpt>
      <trkpt lat="45.45926" lon="6.10666">
        <ele>352</ele>
        <time>2021-12-31T10:50:17.000Z</time>
      </trkpt>
      <trkpt lat="45.45947" lon="6.10687">
        <ele>352.79998779297</ele>
        <time>2021-12-31T10:50:23.000Z</time>
      </trkpt>
      <trkpt lat="45.45951" lon="6.10691">
        <ele>352.79998779297</ele>
        <time>2021-12-31T10:50:24.000Z</time>
      </trkpt>
      <trkpt lat="45.45963" lon="6.10706">
        <ele>353.60000610352</ele>
        <time>2021-12-31T10:50:28.000Z</time>
      </trkpt>
      <trkpt lat="45.45969" lon="6.10714">
        <ele>354</ele>
        <time>2021-12-31T10:50:30.000Z</time>
      </trkpt>
      <trkpt lat="45.45972" lon="6.10719">
        <ele>354.39999389648</ele>
        <time>2021-12-31T10:50:31.000Z</time>
      </trkpt>
      <trkpt lat="45.45986" lon="6.10742">
        <ele>355.20001220703</ele>
        <time>2021-12-31T10:50:36.000Z</time>
      </trkpt>
      <trkpt lat="45.45992" lon="6.10753">
        <ele>355.60000610352</ele>
        <time>2021-12-31T10:50:38.000Z</time>
      </trkpt>
      <trkpt lat="45.46003" lon="6.10772">
        <ele>356.20001220703</ele>
        <time>2021-12-31T10:50:42.000Z</time>
      </trkpt>
      <trkpt lat="45.46016" lon="6.10798">
        <ele>356.79998779297</ele>
        <time>2021-12-31T10:50:47.000Z</time>
      </trkpt>
      <trkpt lat="45.4603" lon="6.10825">
        <ele>357.39999389648</ele>
        <time>2021-12-31T10:50:52.000Z</time>
      </trkpt>
      <trkpt lat="45.46042" lon="6.10844">
        <ele>358.20001220703</ele>
        <time>2021-12-31T10:50:56.000Z</time>
      </trkpt>
      <trkpt lat="45.46046" lon="6.10848">
        <ele>358.79998779297</ele>
        <time>2021-12-31T10:50:57.000Z</time>
      </trkpt>
      <trkpt lat="45.46064" lon="6.10869">
        <ele>359.79998779297</ele>
        <time>2021-12-31T10:51:02.000Z</time>
      </trkpt>
      <trkpt lat="45.46076" lon="6.10881">
        <ele>360.39999389648</ele>
        <time>2021-12-31T10:51:05.000Z</time>
      </trkpt>
      <trkpt lat="45.46109" lon="6.10905">
        <ele>360.60000610352</ele>
        <time>2021-12-31T10:51:12.000Z</time>
      </trkpt>
      <trkpt lat="45.4614" lon="6.10925">
        <ele>360.20001220703</ele>
        <time>2021-12-31T10:51:18.000Z</time>
      </trkpt>
      <trkpt lat="45.46178" lon="6.10946">
        <ele>359.20001220703</ele>
        <time>2021-12-31T10:51:24.000Z</time>
      </trkpt>
      <trkpt lat="45.4621" lon="6.10961">
        <ele>358.39999389648</ele>
        <time>2021-12-31T10:51:29.000Z</time>
      </trkpt>
      <trkpt lat="45.46217" lon="6.10963">
        <ele>358</ele>
        <time>2021-12-31T10:51:30.000Z</time>
      </trkpt>
      <trkpt lat="45.46223" lon="6.10965">
        <ele>358</ele>
        <time>2021-12-31T10:51:31.000Z</time>
      </trkpt>
      <trkpt lat="45.46229" lon="6.10967">
        <ele>357.79998779297</ele>
        <time>2021-12-31T10:51:32.000Z</time>
      </trkpt>
      <trkpt lat="45.46242" lon="6.10977">
        <ele>357.39999389648</ele>
        <time>2021-12-31T10:51:34.000Z</time>
      </trkpt>
      <trkpt lat="45.46247" lon="6.10982">
        <ele>357.20001220703</ele>
        <time>2021-12-31T10:51:35.000Z</time>
      </trkpt>
      <trkpt lat="45.46284" lon="6.11012">
        <ele>356.20001220703</ele>
        <time>2021-12-31T10:51:41.000Z</time>
      </trkpt>
      <trkpt lat="45.46291" lon="6.11016">
        <ele>356.20001220703</ele>
        <time>2021-12-31T10:51:42.000Z</time>
      </trkpt>
      <trkpt lat="45.4633" lon="6.11044">
        <ele>355.79998779297</ele>
        <time>2021-12-31T10:51:49.000Z</time>
      </trkpt>
      <trkpt lat="45.46361" lon="6.11073">
        <ele>355.79998779297</ele>
        <time>2021-12-31T10:51:55.000Z</time>
      </trkpt>
      <trkpt lat="45.46369" lon="6.11082">
        <ele>355.79998779297</ele>
        <time>2021-12-31T10:51:57.000Z</time>
      </trkpt>
      <trkpt lat="45.46378" lon="6.11091">
        <ele>356</ele>
        <time>2021-12-31T10:51:59.000Z</time>
      </trkpt>
      <trkpt lat="45.46383" lon="6.11097">
        <ele>356.20001220703</ele>
        <time>2021-12-31T10:52:00.000Z</time>
      </trkpt>
      <trkpt lat="45.46405" lon="6.11132">
        <ele>356.20001220703</ele>
        <time>2021-12-31T10:52:05.000Z</time>
      </trkpt>
      <trkpt lat="45.4643" lon="6.11166">
        <ele>355.20001220703</ele>
        <time>2021-12-31T10:52:10.000Z</time>
      </trkpt>
      <trkpt lat="45.46435" lon="6.11171">
        <ele>354.79998779297</ele>
        <time>2021-12-31T10:52:11.000Z</time>
      </trkpt>
      <trkpt lat="45.4645" lon="6.11182">
        <ele>353.79998779297</ele>
        <time>2021-12-31T10:52:14.000Z</time>
      </trkpt>
      <trkpt lat="45.46455" lon="6.11187">
        <ele>353.60000610352</ele>
        <time>2021-12-31T10:52:15.000Z</time>
      </trkpt>
      <trkpt lat="45.46466" lon="6.11197">
        <ele>352.79998779297</ele>
        <time>2021-12-31T10:52:17.000Z</time>
      </trkpt>
      <trkpt lat="45.46472" lon="6.11206">
        <ele>352</ele>
        <time>2021-12-31T10:52:19.000Z</time>
      </trkpt>
      <trkpt lat="45.46472" lon="6.11212">
        <ele>351.79998779297</ele>
        <time>2021-12-31T10:52:20.000Z</time>
      </trkpt>
      <trkpt lat="45.46471" lon="6.1122">
        <ele>351.39999389648</ele>
        <time>2021-12-31T10:52:21.000Z</time>
      </trkpt>
      <trkpt lat="45.46465" lon="6.11248">
        <ele>350.39999389648</ele>
        <time>2021-12-31T10:52:24.000Z</time>
      </trkpt>
      <trkpt lat="45.46463" lon="6.11259">
        <ele>350.20001220703</ele>
        <time>2021-12-31T10:52:25.000Z</time>
      </trkpt>
      <trkpt lat="45.4646" lon="6.11279">
        <ele>349.39999389648</ele>
        <time>2021-12-31T10:52:27.000Z</time>
      </trkpt>
      <trkpt lat="45.46461" lon="6.11288">
        <ele>349.20001220703</ele>
        <time>2021-12-31T10:52:28.000Z</time>
      </trkpt>
      <trkpt lat="45.46462" lon="6.113">
        <ele>348.39999389648</ele>
        <time>2021-12-31T10:52:29.000Z</time>
      </trkpt>
      <trkpt lat="45.46464" lon="6.11311">
        <ele>348</ele>
        <time>2021-12-31T10:52:30.000Z</time>
      </trkpt>
      <trkpt lat="45.46467" lon="6.11324">
        <ele>347</ele>
        <time>2021-12-31T10:52:31.000Z</time>
      </trkpt>
      <trkpt lat="45.46471" lon="6.11344">
        <ele>345.79998779297</ele>
        <time>2021-12-31T10:52:33.000Z</time>
      </trkpt>
      <trkpt lat="45.46472" lon="6.11356">
        <ele>344.79998779297</ele>
        <time>2021-12-31T10:52:34.000Z</time>
      </trkpt>
      <trkpt lat="45.46473" lon="6.1138">
        <ele>343.39999389648</ele>
        <time>2021-12-31T10:52:36.000Z</time>
      </trkpt>
      <trkpt lat="45.46473" lon="6.1139">
        <ele>342.39999389648</ele>
        <time>2021-12-31T10:52:37.000Z</time>
      </trkpt>
      <trkpt lat="45.46478" lon="6.11408">
        <ele>341.20001220703</ele>
        <time>2021-12-31T10:52:39.000Z</time>
      </trkpt>
      <trkpt lat="45.46487" lon="6.11425">
        <ele>339.79998779297</ele>
        <time>2021-12-31T10:52:41.000Z</time>
      </trkpt>
      <trkpt lat="45.46497" lon="6.11439">
        <ele>338.60000610352</ele>
        <time>2021-12-31T10:52:43.000Z</time>
      </trkpt>
      <trkpt lat="45.46502" lon="6.11446">
        <ele>337.79998779297</ele>
        <time>2021-12-31T10:52:44.000Z</time>
      </trkpt>
      <trkpt lat="45.46505" lon="6.11455">
        <ele>337.20001220703</ele>
        <time>2021-12-31T10:52:45.000Z</time>
      </trkpt>
      <trkpt lat="45.46506" lon="6.11464">
        <ele>336.39999389648</ele>
        <time>2021-12-31T10:52:46.000Z</time>
      </trkpt>
      <trkpt lat="45.46504" lon="6.11472">
        <ele>335.79998779297</ele>
        <time>2021-12-31T10:52:47.000Z</time>
      </trkpt>
      <trkpt lat="45.465" lon="6.11477">
        <ele>335.20001220703</ele>
        <time>2021-12-31T10:52:48.000Z</time>
      </trkpt>
      <trkpt lat="45.46495" lon="6.11484">
        <ele>334.39999389648</ele>
        <time>2021-12-31T10:52:49.000Z</time>
      </trkpt>
      <trkpt lat="45.46485" lon="6.11499">
        <ele>332.79998779297</ele>
        <time>2021-12-31T10:52:51.000Z</time>
      </trkpt>
      <trkpt lat="45.46467" lon="6.11522">
        <ele>331.39999389648</ele>
        <time>2021-12-31T10:52:54.000Z</time>
      </trkpt>
      <trkpt lat="45.46456" lon="6.11538">
        <ele>329.79998779297</ele>
        <time>2021-12-31T10:52:56.000Z</time>
      </trkpt>
      <trkpt lat="45.46447" lon="6.11553">
        <ele>328.39999389648</ele>
        <time>2021-12-31T10:52:58.000Z</time>
      </trkpt>
      <trkpt lat="45.46438" lon="6.11566">
        <ele>327.20001220703</ele>
        <time>2021-12-31T10:53:00.000Z</time>
      </trkpt>
      <trkpt lat="45.46435" lon="6.11571">
        <ele>326</ele>
        <time>2021-12-31T10:53:01.000Z</time>
      </trkpt>
      <trkpt lat="45.46432" lon="6.11575">
        <ele>325.39999389648</ele>
        <time>2021-12-31T10:53:02.000Z</time>
      </trkpt>
      <trkpt lat="45.46431" lon="6.11579">
        <ele>324.60000610352</ele>
        <time>2021-12-31T10:53:03.000Z</time>
      </trkpt>
      <trkpt lat="45.46434" lon="6.1159">
        <ele>323.60000610352</ele>
        <time>2021-12-31T10:53:05.000Z</time>
      </trkpt>
      <trkpt lat="45.46437" lon="6.11594">
        <ele>323.39999389648</ele>
        <time>2021-12-31T10:53:06.000Z</time>
      </trkpt>
      <trkpt lat="45.46452" lon="6.11612">
        <ele>322.60000610352</ele>
        <time>2021-12-31T10:53:09.000Z</time>
      </trkpt>
      <trkpt lat="45.46464" lon="6.11626">
        <ele>322.20001220703</ele>
        <time>2021-12-31T10:53:11.000Z</time>
      </trkpt>
      <trkpt lat="45.46486" lon="6.11651">
        <ele>321.20001220703</ele>
        <time>2021-12-31T10:53:15.000Z</time>
      </trkpt>
      <trkpt lat="45.46514" lon="6.11683">
        <ele>320</ele>
        <time>2021-12-31T10:53:20.000Z</time>
      </trkpt>
      <trkpt lat="45.46535" lon="6.11708">
        <ele>319.39999389648</ele>
        <time>2021-12-31T10:53:24.000Z</time>
      </trkpt>
      <trkpt lat="45.46556" lon="6.11736">
        <ele>319</ele>
        <time>2021-12-31T10:53:28.000Z</time>
      </trkpt>
      <trkpt lat="45.46564" lon="6.11747">
        <ele>318.79998779297</ele>
        <time>2021-12-31T10:53:30.000Z</time>
      </trkpt>
      <trkpt lat="45.4657" lon="6.11763">
        <ele>318.60000610352</ele>
        <time>2021-12-31T10:53:32.000Z</time>
      </trkpt>
      <trkpt lat="45.46572" lon="6.11769">
        <ele>318.39999389648</ele>
        <time>2021-12-31T10:53:33.000Z</time>
      </trkpt>
      <trkpt lat="45.46575" lon="6.1178">
        <ele>318</ele>
        <time>2021-12-31T10:53:36.000Z</time>
      </trkpt>
      <trkpt lat="45.46578" lon="6.11784">
        <ele>317.79998779297</ele>
        <time>2021-12-31T10:53:37.000Z</time>
      </trkpt>
      <trkpt lat="45.46586" lon="6.11789">
        <ele>317.60000610352</ele>
        <time>2021-12-31T10:53:39.000Z</time>
      </trkpt>
      <trkpt lat="45.46597" lon="6.11792">
        <ele>317.60000610352</ele>
        <time>2021-12-31T10:53:41.000Z</time>
      </trkpt>
      <trkpt lat="45.46624" lon="6.11803">
        <ele>317</ele>
        <time>2021-12-31T10:53:46.000Z</time>
      </trkpt>
      <trkpt lat="45.46636" lon="6.11808">
        <ele>317</ele>
        <time>2021-12-31T10:53:48.000Z</time>
      </trkpt>
      <trkpt lat="45.46647" lon="6.11812">
        <ele>317</ele>
        <time>2021-12-31T10:53:50.000Z</time>
      </trkpt>
      <trkpt lat="45.46672" lon="6.11822">
        <ele>316.60000610352</ele>
        <time>2021-12-31T10:53:54.000Z</time>
      </trkpt>
      <trkpt lat="45.46721" lon="6.1184">
        <ele>316.20001220703</ele>
        <time>2021-12-31T10:54:02.000Z</time>
      </trkpt>
      <trkpt lat="45.46776" lon="6.11861">
        <ele>316</ele>
        <time>2021-12-31T10:54:11.000Z</time>
      </trkpt>
      <trkpt lat="45.46805" lon="6.1187">
        <ele>315.79998779297</ele>
        <time>2021-12-31T10:54:16.000Z</time>
      </trkpt>
      <trkpt lat="45.46811" lon="6.11871">
        <ele>315.79998779297</ele>
        <time>2021-12-31T10:54:17.000Z</time>
      </trkpt>
      <trkpt lat="45.46816" lon="6.11871">
        <ele>315.79998779297</ele>
        <time>2021-12-31T10:54:18.000Z</time>
      </trkpt>
      <trkpt lat="45.46854" lon="6.11869">
        <ele>316.60000610352</ele>
        <time>2021-12-31T10:54:25.000Z</time>
      </trkpt>
      <trkpt lat="45.46859" lon="6.11868">
        <ele>316.60000610352</ele>
        <time>2021-12-31T10:54:26.000Z</time>
      </trkpt>
      <trkpt lat="45.46864" lon="6.11867">
        <ele>317</ele>
        <time>2021-12-31T10:54:27.000Z</time>
      </trkpt>
      <trkpt lat="45.46883" lon="6.11861">
        <ele>317.79998779297</ele>
        <time>2021-12-31T10:54:31.000Z</time>
      </trkpt>
      <trkpt lat="45.46887" lon="6.11859">
        <ele>318.20001220703</ele>
        <time>2021-12-31T10:54:32.000Z</time>
      </trkpt>
      <trkpt lat="45.46892" lon="6.11858">
        <ele>318.39999389648</ele>
        <time>2021-12-31T10:54:33.000Z</time>
      </trkpt>
      <trkpt lat="45.469" lon="6.1186">
        <ele>319.20001220703</ele>
        <time>2021-12-31T10:54:35.000Z</time>
      </trkpt>
      <trkpt lat="45.46908" lon="6.11866">
        <ele>319.39999389648</ele>
        <time>2021-12-31T10:54:37.000Z</time>
      </trkpt>
      <trkpt lat="45.46915" lon="6.11875">
        <ele>320</ele>
        <time>2021-12-31T10:54:39.000Z</time>
      </trkpt>
      <trkpt lat="45.46919" lon="6.11879">
        <ele>320.20001220703</ele>
        <time>2021-12-31T10:54:40.000Z</time>
      </trkpt>
      <trkpt lat="45.46923" lon="6.11882">
        <ele>320.20001220703</ele>
        <time>2021-12-31T10:54:41.000Z</time>
      </trkpt>
      <trkpt lat="45.46936" lon="6.11893">
        <ele>320.39999389648</ele>
        <time>2021-12-31T10:54:44.000Z</time>
      </trkpt>
      <trkpt lat="45.46953" lon="6.11901">
        <ele>320.20001220703</ele>
        <time>2021-12-31T10:54:47.000Z</time>
      </trkpt>
      <trkpt lat="45.46978" lon="6.11911">
        <ele>319</ele>
        <time>2021-12-31T10:54:51.000Z</time>
      </trkpt>
      <trkpt lat="45.46987" lon="6.11915">
        <ele>318.79998779297</ele>
        <time>2021-12-31T10:54:52.000Z</time>
      </trkpt>
      <trkpt lat="45.47007" lon="6.11924">
        <ele>317.79998779297</ele>
        <time>2021-12-31T10:54:55.000Z</time>
      </trkpt>
      <trkpt lat="45.47027" lon="6.11938">
        <ele>317.39999389648</ele>
        <time>2021-12-31T10:54:58.000Z</time>
      </trkpt>
      <trkpt lat="45.47052" lon="6.11957">
        <ele>316.60000610352</ele>
        <time>2021-12-31T10:55:02.000Z</time>
      </trkpt>
      <trkpt lat="45.47062" lon="6.11969">
        <ele>316.39999389648</ele>
        <time>2021-12-31T10:55:04.000Z</time>
      </trkpt>
      <trkpt lat="45.47071" lon="6.11985">
        <ele>316.20001220703</ele>
        <time>2021-12-31T10:55:06.000Z</time>
      </trkpt>
      <trkpt lat="45.47077" lon="6.12003">
        <ele>316</ele>
        <time>2021-12-31T10:55:08.000Z</time>
      </trkpt>
      <trkpt lat="45.47081" lon="6.12021">
        <ele>315.39999389648</ele>
        <time>2021-12-31T10:55:10.000Z</time>
      </trkpt>
      <trkpt lat="45.47093" lon="6.12064">
        <ele>314.39999389648</ele>
        <time>2021-12-31T10:55:14.000Z</time>
      </trkpt>
      <trkpt lat="45.47105" lon="6.12091">
        <ele>313.39999389648</ele>
        <time>2021-12-31T10:55:17.000Z</time>
      </trkpt>
      <trkpt lat="45.4711" lon="6.12099">
        <ele>313.20001220703</ele>
        <time>2021-12-31T10:55:18.000Z</time>
      </trkpt>
      <trkpt lat="45.47116" lon="6.12106">
        <ele>312.60000610352</ele>
        <time>2021-12-31T10:55:19.000Z</time>
      </trkpt>
      <trkpt lat="45.47122" lon="6.12112">
        <ele>312.20001220703</ele>
        <time>2021-12-31T10:55:20.000Z</time>
      </trkpt>
      <trkpt lat="45.47145" lon="6.12135">
        <ele>311.60000610352</ele>
        <time>2021-12-31T10:55:24.000Z</time>
      </trkpt>
      <trkpt lat="45.47182" lon="6.12175">
        <ele>311.20001220703</ele>
        <time>2021-12-31T10:55:31.000Z</time>
      </trkpt>
      <trkpt lat="45.4722" lon="6.12219">
        <ele>311.20001220703</ele>
        <time>2021-12-31T10:55:39.000Z</time>
      </trkpt>
      <trkpt lat="45.47231" lon="6.12229">
        <ele>311</ele>
        <time>2021-12-31T10:55:41.000Z</time>
      </trkpt>
      <trkpt lat="45.47268" lon="6.12267">
        <ele>310.60000610352</ele>
        <time>2021-12-31T10:55:48.000Z</time>
      </trkpt>
      <trkpt lat="45.47298" lon="6.1231">
        <ele>310.39999389648</ele>
        <time>2021-12-31T10:55:55.000Z</time>
      </trkpt>
      <trkpt lat="45.47332" lon="6.12339">
        <ele>310.20001220703</ele>
        <time>2021-12-31T10:56:01.000Z</time>
      </trkpt>
      <trkpt lat="45.47344" lon="6.12348">
        <ele>310</ele>
        <time>2021-12-31T10:56:03.000Z</time>
      </trkpt>
      <trkpt lat="45.4738" lon="6.12375">
        <ele>308.79998779297</ele>
        <time>2021-12-31T10:56:09.000Z</time>
      </trkpt>
      <trkpt lat="45.4743" lon="6.12422">
        <ele>308.20001220703</ele>
        <time>2021-12-31T10:56:18.000Z</time>
      </trkpt>
      <trkpt lat="45.47435" lon="6.12427">
        <ele>308.20001220703</ele>
        <time>2021-12-31T10:56:19.000Z</time>
      </trkpt>
      <trkpt lat="45.47463" lon="6.12454">
        <ele>308.39999389648</ele>
        <time>2021-12-31T10:56:25.000Z</time>
      </trkpt>
      <trkpt lat="45.47481" lon="6.12482">
        <ele>309.20001220703</ele>
        <time>2021-12-31T10:56:30.000Z</time>
      </trkpt>
      <trkpt lat="45.47501" lon="6.12519">
        <ele>309.60000610352</ele>
        <time>2021-12-31T10:56:35.000Z</time>
      </trkpt>
      <trkpt lat="45.47528" lon="6.1255">
        <ele>309</ele>
        <time>2021-12-31T10:56:40.000Z</time>
      </trkpt>
      <trkpt lat="45.47557" lon="6.12578">
        <ele>307.60000610352</ele>
        <time>2021-12-31T10:56:45.000Z</time>
      </trkpt>
      <trkpt lat="45.47582" lon="6.12596">
        <ele>307</ele>
        <time>2021-12-31T10:56:49.000Z</time>
      </trkpt>
      <trkpt lat="45.47626" lon="6.12613">
        <ele>306.79998779297</ele>
        <time>2021-12-31T10:56:56.000Z</time>
      </trkpt>
      <trkpt lat="45.47632" lon="6.12614">
        <ele>306.79998779297</ele>
        <time>2021-12-31T10:56:57.000Z</time>
      </trkpt>
      <trkpt lat="45.47662" lon="6.12613">
        <ele>306.79998779297</ele>
        <time>2021-12-31T10:57:02.000Z</time>
      </trkpt>
      <trkpt lat="45.47688" lon="6.12616">
        <ele>307.60000610352</ele>
        <time>2021-12-31T10:57:07.000Z</time>
      </trkpt>
      <trkpt lat="45.47703" lon="6.12626">
        <ele>308.39999389648</ele>
        <time>2021-12-31T10:57:10.000Z</time>
      </trkpt>
      <trkpt lat="45.47708" lon="6.12631">
        <ele>308.79998779297</ele>
        <time>2021-12-31T10:57:11.000Z</time>
      </trkpt>
      <trkpt lat="45.47712" lon="6.12636">
        <ele>308.79998779297</ele>
        <time>2021-12-31T10:57:12.000Z</time>
      </trkpt>
      <trkpt lat="45.4774" lon="6.12669">
        <ele>309.20001220703</ele>
        <time>2021-12-31T10:57:17.000Z</time>
      </trkpt>
      <trkpt lat="45.47783" lon="6.12723">
        <ele>307.39999389648</ele>
        <time>2021-12-31T10:57:24.000Z</time>
      </trkpt>
      <trkpt lat="45.47788" lon="6.12729">
        <ele>307</ele>
        <time>2021-12-31T10:57:25.000Z</time>
      </trkpt>
      <trkpt lat="45.478" lon="6.12743">
        <ele>306.20001220703</ele>
        <time>2021-12-31T10:57:27.000Z</time>
      </trkpt>
      <trkpt lat="45.47819" lon="6.12763">
        <ele>305</ele>
        <time>2021-12-31T10:57:30.000Z</time>
      </trkpt>
      <trkpt lat="45.47831" lon="6.12775">
        <ele>304.39999389648</ele>
        <time>2021-12-31T10:57:32.000Z</time>
      </trkpt>
      <trkpt lat="45.47862" lon="6.12814">
        <ele>303.79998779297</ele>
        <time>2021-12-31T10:57:38.000Z</time>
      </trkpt>
      <trkpt lat="45.47878" lon="6.12843">
        <ele>303.79998779297</ele>
        <time>2021-12-31T10:57:42.000Z</time>
      </trkpt>
      <trkpt lat="45.47881" lon="6.12852">
        <ele>303.79998779297</ele>
        <time>2021-12-31T10:57:43.000Z</time>
      </trkpt>
      <trkpt lat="45.47891" lon="6.12905">
        <ele>304</ele>
        <time>2021-12-31T10:57:49.000Z</time>
      </trkpt>
      <trkpt lat="45.47907" lon="6.12956">
        <ele>303.60000610352</ele>
        <time>2021-12-31T10:57:55.000Z</time>
      </trkpt>
      <trkpt lat="45.47929" lon="6.12997">
        <ele>302.79998779297</ele>
        <time>2021-12-31T10:58:00.000Z</time>
      </trkpt>
      <trkpt lat="45.47938" lon="6.13012">
        <ele>302.39999389648</ele>
        <time>2021-12-31T10:58:02.000Z</time>
      </trkpt>
      <trkpt lat="45.47979" lon="6.13067">
        <ele>301.60000610352</ele>
        <time>2021-12-31T10:58:10.000Z</time>
      </trkpt>
      <trkpt lat="45.47989" lon="6.1308">
        <ele>301.39999389648</ele>
        <time>2021-12-31T10:58:12.000Z</time>
      </trkpt>
      <trkpt lat="45.4803" lon="6.13132">
        <ele>300.39999389648</ele>
        <time>2021-12-31T10:58:20.000Z</time>
      </trkpt>
      <trkpt lat="45.48046" lon="6.13152">
        <ele>300.20001220703</ele>
        <time>2021-12-31T10:58:23.000Z</time>
      </trkpt>
      <trkpt lat="45.48078" lon="6.13196">
        <ele>299.39999389648</ele>
        <time>2021-12-31T10:58:29.000Z</time>
      </trkpt>
      <trkpt lat="45.48095" lon="6.13216">
        <ele>298.79998779297</ele>
        <time>2021-12-31T10:58:32.000Z</time>
      </trkpt>
      <trkpt lat="45.48118" lon="6.1324">
        <ele>298.39999389648</ele>
        <time>2021-12-31T10:58:36.000Z</time>
      </trkpt>
      <trkpt lat="45.48142" lon="6.13259">
        <ele>297.79998779297</ele>
        <time>2021-12-31T10:58:40.000Z</time>
      </trkpt>
      <trkpt lat="45.48179" lon="6.1328">
        <ele>297.39999389648</ele>
        <time>2021-12-31T10:58:46.000Z</time>
      </trkpt>
      <trkpt lat="45.48185" lon="6.13284">
        <ele>297.39999389648</ele>
        <time>2021-12-31T10:58:47.000Z</time>
      </trkpt>
      <trkpt lat="45.48191" lon="6.13287">
        <ele>297.39999389648</ele>
        <time>2021-12-31T10:58:48.000Z</time>
      </trkpt>
      <trkpt lat="45.48207" lon="6.13298">
        <ele>297.20001220703</ele>
        <time>2021-12-31T10:58:51.000Z</time>
      </trkpt>
      <trkpt lat="45.48216" lon="6.13309">
        <ele>297.20001220703</ele>
        <time>2021-12-31T10:58:53.000Z</time>
      </trkpt>
      <trkpt lat="45.48239" lon="6.13349">
        <ele>297.39999389648</ele>
        <time>2021-12-31T10:58:59.000Z</time>
      </trkpt>
      <trkpt lat="45.48262" lon="6.13393">
        <ele>298.20001220703</ele>
        <time>2021-12-31T10:59:05.000Z</time>
      </trkpt>
      <trkpt lat="45.48286" lon="6.13463">
        <ele>297.60000610352</ele>
        <time>2021-12-31T10:59:13.000Z</time>
      </trkpt>
      <trkpt lat="45.48297" lon="6.13522">
        <ele>296.39999389648</ele>
        <time>2021-12-31T10:59:19.000Z</time>
      </trkpt>
      <trkpt lat="45.483" lon="6.1353">
        <ele>296</ele>
        <time>2021-12-31T10:59:20.000Z</time>
      </trkpt>
      <trkpt lat="45.48311" lon="6.13553">
        <ele>295.39999389648</ele>
        <time>2021-12-31T10:59:23.000Z</time>
      </trkpt>
      <trkpt lat="45.48315" lon="6.1356">
        <ele>295.20001220703</ele>
        <time>2021-12-31T10:59:24.000Z</time>
      </trkpt>
      <trkpt lat="45.48339" lon="6.13591">
        <ele>294.79998779297</ele>
        <time>2021-12-31T10:59:29.000Z</time>
      </trkpt>
      <trkpt lat="45.48373" lon="6.13627">
        <ele>294.60000610352</ele>
        <time>2021-12-31T10:59:36.000Z</time>
      </trkpt>
      <trkpt lat="45.48377" lon="6.13634">
        <ele>294.60000610352</ele>
        <time>2021-12-31T10:59:37.000Z</time>
      </trkpt>
      <trkpt lat="45.48391" lon="6.1366">
        <ele>294.60000610352</ele>
        <time>2021-12-31T10:59:41.000Z</time>
      </trkpt>
      <trkpt lat="45.48407" lon="6.13687">
        <ele>295.20001220703</ele>
        <time>2021-12-31T10:59:46.000Z</time>
      </trkpt>
      <trkpt lat="45.48422" lon="6.13713">
        <ele>295.79998779297</ele>
        <time>2021-12-31T10:59:52.000Z</time>
      </trkpt>
      <trkpt lat="45.48435" lon="6.13739">
        <ele>295.20001220703</ele>
        <time>2021-12-31T10:59:58.000Z</time>
      </trkpt>
      <trkpt lat="45.48444" lon="6.13748">
        <ele>294.60000610352</ele>
        <time>2021-12-31T11:00:00.000Z</time>
      </trkpt>
      <trkpt lat="45.48453" lon="6.13756">
        <ele>294.39999389648</ele>
        <time>2021-12-31T11:00:02.000Z</time>
      </trkpt>
      <trkpt lat="45.48468" lon="6.13768">
        <ele>294.20001220703</ele>
        <time>2021-12-31T11:00:05.000Z</time>
      </trkpt>
      <trkpt lat="45.48479" lon="6.13776">
        <ele>294</ele>
        <time>2021-12-31T11:00:07.000Z</time>
      </trkpt>
      <trkpt lat="45.48488" lon="6.13785">
        <ele>294</ele>
        <time>2021-12-31T11:00:09.000Z</time>
      </trkpt>
      <trkpt lat="45.485" lon="6.13801">
        <ele>293.79998779297</ele>
        <time>2021-12-31T11:00:12.000Z</time>
      </trkpt>
      <trkpt lat="45.48516" lon="6.13823">
        <ele>294</ele>
        <time>2021-12-31T11:00:16.000Z</time>
      </trkpt>
      <trkpt lat="45.48519" lon="6.13828">
        <ele>294</ele>
        <time>2021-12-31T11:00:17.000Z</time>
      </trkpt>
      <trkpt lat="45.48546" lon="6.13863">
        <ele>294.60000610352</ele>
        <time>2021-12-31T11:00:23.000Z</time>
      </trkpt>
      <trkpt lat="45.48551" lon="6.13869">
        <ele>294.60000610352</ele>
        <time>2021-12-31T11:00:24.000Z</time>
      </trkpt>
      <trkpt lat="45.48572" lon="6.13888">
        <ele>294.20001220703</ele>
        <time>2021-12-31T11:00:28.000Z</time>
      </trkpt>
      <trkpt lat="45.48616" lon="6.13921">
        <ele>293.39999389648</ele>
        <time>2021-12-31T11:00:36.000Z</time>
      </trkpt>
      <trkpt lat="45.48621" lon="6.13924">
        <ele>293.20001220703</ele>
        <time>2021-12-31T11:00:37.000Z</time>
      </trkpt>
      <trkpt lat="45.48632" lon="6.13928">
        <ele>293.20001220703</ele>
        <time>2021-12-31T11:00:39.000Z</time>
      </trkpt>
      <trkpt lat="45.48637" lon="6.13929">
        <ele>293.20001220703</ele>
        <time>2021-12-31T11:00:40.000Z</time>
      </trkpt>
      <trkpt lat="45.48642" lon="6.13929">
        <ele>293.39999389648</ele>
        <time>2021-12-31T11:00:41.000Z</time>
      </trkpt>
      <trkpt lat="45.48656" lon="6.13926">
        <ele>293.60000610352</ele>
        <time>2021-12-31T11:00:44.000Z</time>
      </trkpt>
      <trkpt lat="45.48667" lon="6.13929">
        <ele>294</ele>
        <time>2021-12-31T11:00:46.000Z</time>
      </trkpt>
      <trkpt lat="45.48676" lon="6.13933">
        <ele>294.20001220703</ele>
        <time>2021-12-31T11:00:48.000Z</time>
      </trkpt>
      <trkpt lat="45.48692" lon="6.13955">
        <ele>294.60000610352</ele>
        <time>2021-12-31T11:00:52.000Z</time>
      </trkpt>
      <trkpt lat="45.48713" lon="6.13988">
        <ele>294.60000610352</ele>
        <time>2021-12-31T11:00:57.000Z</time>
      </trkpt>
      <trkpt lat="45.48726" lon="6.14019">
        <ele>294.39999389648</ele>
        <time>2021-12-31T11:01:01.000Z</time>
      </trkpt>
      <trkpt lat="45.48729" lon="6.14027">
        <ele>294.39999389648</ele>
        <time>2021-12-31T11:01:02.000Z</time>
      </trkpt>
      <trkpt lat="45.48732" lon="6.14043">
        <ele>293.79998779297</ele>
        <time>2021-12-31T11:01:04.000Z</time>
      </trkpt>
      <trkpt lat="45.48737" lon="6.14066">
        <ele>293.39999389648</ele>
        <time>2021-12-31T11:01:07.000Z</time>
      </trkpt>
      <trkpt lat="45.48743" lon="6.14082">
        <ele>293.20001220703</ele>
        <time>2021-12-31T11:01:09.000Z</time>
      </trkpt>
      <trkpt lat="45.48751" lon="6.14096">
        <ele>293</ele>
        <time>2021-12-31T11:01:11.000Z</time>
      </trkpt>
      <trkpt lat="45.48754" lon="6.14101">
        <ele>293</ele>
        <time>2021-12-31T11:01:12.000Z</time>
      </trkpt>
      <trkpt lat="45.48773" lon="6.14124">
        <ele>292.79998779297</ele>
        <time>2021-12-31T11:01:16.000Z</time>
      </trkpt>
      <trkpt lat="45.48786" lon="6.1414">
        <ele>292.79998779297</ele>
        <time>2021-12-31T11:01:19.000Z</time>
      </trkpt>
      <trkpt lat="45.48798" lon="6.14153">
        <ele>292.79998779297</ele>
        <time>2021-12-31T11:01:22.000Z</time>
      </trkpt>
      <trkpt lat="45.48814" lon="6.14176">
        <ele>293.79998779297</ele>
        <time>2021-12-31T11:01:27.000Z</time>
      </trkpt>
      <trkpt lat="45.48818" lon="6.14181">
        <ele>294</ele>
        <time>2021-12-31T11:01:28.000Z</time>
      </trkpt>
      <trkpt lat="45.48828" lon="6.14191">
        <ele>294.20001220703</ele>
        <time>2021-12-31T11:01:30.000Z</time>
      </trkpt>
      <trkpt lat="45.48832" lon="6.14196">
        <ele>294.20001220703</ele>
        <time>2021-12-31T11:01:31.000Z</time>
      </trkpt>
      <trkpt lat="45.4886" lon="6.1422">
        <ele>293.60000610352</ele>
        <time>2021-12-31T11:01:36.000Z</time>
      </trkpt>
      <trkpt lat="45.4887" lon="6.14234">
        <ele>293.20001220703</ele>
        <time>2021-12-31T11:01:38.000Z</time>
      </trkpt>
      <trkpt lat="45.48879" lon="6.1425">
        <ele>293</ele>
        <time>2021-12-31T11:01:40.000Z</time>
      </trkpt>
      <trkpt lat="45.48883" lon="6.14258">
        <ele>292.79998779297</ele>
        <time>2021-12-31T11:01:41.000Z</time>
      </trkpt>
      <trkpt lat="45.48888" lon="6.14266">
        <ele>292.79998779297</ele>
        <time>2021-12-31T11:01:42.000Z</time>
      </trkpt>
      <trkpt lat="45.48899" lon="6.14278">
        <ele>292.60000610352</ele>
        <time>2021-12-31T11:01:44.000Z</time>
      </trkpt>
      <trkpt lat="45.4891" lon="6.1429">
        <ele>291.79998779297</ele>
        <time>2021-12-31T11:01:46.000Z</time>
      </trkpt>
      <trkpt lat="45.48938" lon="6.1432">
        <ele>290.79998779297</ele>
        <time>2021-12-31T11:01:51.000Z</time>
      </trkpt>
      <trkpt lat="45.48943" lon="6.14327">
        <ele>290.60000610352</ele>
        <time>2021-12-31T11:01:52.000Z</time>
      </trkpt>
      <trkpt lat="45.48947" lon="6.14335">
        <ele>290.39999389648</ele>
        <time>2021-12-31T11:01:53.000Z</time>
      </trkpt>
      <trkpt lat="45.48961" lon="6.14379">
        <ele>289.79998779297</ele>
        <time>2021-12-31T11:01:58.000Z</time>
      </trkpt>
      <trkpt lat="45.48968" lon="6.14396">
        <ele>289.60000610352</ele>
        <time>2021-12-31T11:02:00.000Z</time>
      </trkpt>
      <trkpt lat="45.48979" lon="6.14419">
        <ele>289.20001220703</ele>
        <time>2021-12-31T11:02:03.000Z</time>
      </trkpt>
      <trkpt lat="45.48988" lon="6.14433">
        <ele>289</ele>
        <time>2021-12-31T11:02:05.000Z</time>
      </trkpt>
      <trkpt lat="45.49002" lon="6.14451">
        <ele>288.79998779297</ele>
        <time>2021-12-31T11:02:08.000Z</time>
      </trkpt>
      <trkpt lat="45.49037" lon="6.14489">
        <ele>288.60000610352</ele>
        <time>2021-12-31T11:02:15.000Z</time>
      </trkpt>
      <trkpt lat="45.49075" lon="6.14543">
        <ele>288.20001220703</ele>
        <time>2021-12-31T11:02:24.000Z</time>
      </trkpt>
      <trkpt lat="45.49084" lon="6.14554">
        <ele>288.20001220703</ele>
        <time>2021-12-31T11:02:26.000Z</time>
      </trkpt>
      <trkpt lat="45.49094" lon="6.14562">
        <ele>288.20001220703</ele>
        <time>2021-12-31T11:02:28.000Z</time>
      </trkpt>
      <trkpt lat="45.49114" lon="6.14575">
        <ele>288.39999389648</ele>
        <time>2021-12-31T11:02:32.000Z</time>
      </trkpt>
      <trkpt lat="45.4916" lon="6.14591">
        <ele>288.20001220703</ele>
        <time>2021-12-31T11:02:40.000Z</time>
      </trkpt>
      <trkpt lat="45.49208" lon="6.14609">
        <ele>287.79998779297</ele>
        <time>2021-12-31T11:02:48.000Z</time>
      </trkpt>
      <trkpt lat="45.49213" lon="6.14612">
        <ele>287.79998779297</ele>
        <time>2021-12-31T11:02:49.000Z</time>
      </trkpt>
      <trkpt lat="45.49239" lon="6.14634">
        <ele>287.60000610352</ele>
        <time>2021-12-31T11:02:54.000Z</time>
      </trkpt>
      <trkpt lat="45.49244" lon="6.14639">
        <ele>287.39999389648</ele>
        <time>2021-12-31T11:02:55.000Z</time>
      </trkpt>
      <trkpt lat="45.49283" lon="6.14678">
        <ele>287.20001220703</ele>
        <time>2021-12-31T11:03:03.000Z</time>
      </trkpt>
      <trkpt lat="45.49313" lon="6.14711">
        <ele>287.20001220703</ele>
        <time>2021-12-31T11:03:10.000Z</time>
      </trkpt>
      <trkpt lat="45.49335" lon="6.14734">
        <ele>287.39999389648</ele>
        <time>2021-12-31T11:03:16.000Z</time>
      </trkpt>
      <trkpt lat="45.4935" lon="6.14746">
        <ele>288.20001220703</ele>
        <time>2021-12-31T11:03:21.000Z</time>
      </trkpt>
      <trkpt lat="45.49353" lon="6.14746">
        <ele>288.39999389648</ele>
        <time>2021-12-31T11:03:22.000Z</time>
      </trkpt>
      <trkpt lat="45.49356" lon="6.14744">
        <ele>288.60000610352</ele>
        <time>2021-12-31T11:03:23.000Z</time>
      </trkpt>
      <trkpt lat="45.49358" lon="6.14741">
        <ele>288.79998779297</ele>
        <time>2021-12-31T11:03:24.000Z</time>
      </trkpt>
      <trkpt lat="45.49368" lon="6.14718">
        <ele>290</ele>
        <time>2021-12-31T11:03:30.000Z</time>
      </trkpt>
      <trkpt lat="45.49371" lon="6.1471">
        <ele>290.20001220703</ele>
        <time>2021-12-31T11:03:32.000Z</time>
      </trkpt>
      <trkpt lat="45.49379" lon="6.14693">
        <ele>291.20001220703</ele>
        <time>2021-12-31T11:03:37.000Z</time>
      </trkpt>
      <trkpt lat="45.49384" lon="6.14677">
        <ele>292</ele>
        <time>2021-12-31T11:03:41.000Z</time>
      </trkpt>
      <trkpt lat="45.49387" lon="6.14671">
        <ele>292.39999389648</ele>
        <time>2021-12-31T11:03:43.000Z</time>
      </trkpt>
      <trkpt lat="45.49391" lon="6.14657">
        <ele>293.39999389648</ele>
        <time>2021-12-31T11:03:47.000Z</time>
      </trkpt>
      <trkpt lat="45.49396" lon="6.14648">
        <ele>294</ele>
        <time>2021-12-31T11:03:50.000Z</time>
      </trkpt>
      <trkpt lat="45.494" lon="6.14643">
        <ele>294.39999389648</ele>
        <time>2021-12-31T11:03:52.000Z</time>
      </trkpt>
      <trkpt lat="45.4941" lon="6.14629">
        <ele>295.60000610352</ele>
        <time>2021-12-31T11:03:57.000Z</time>
      </trkpt>
      <trkpt lat="45.4942" lon="6.14625">
        <ele>296.79998779297</ele>
        <time>2021-12-31T11:04:01.000Z</time>
      </trkpt>
      <trkpt lat="45.49426" lon="6.14626">
        <ele>297.39999389648</ele>
        <time>2021-12-31T11:04:03.000Z</time>
      </trkpt>
      <trkpt lat="45.49429" lon="6.14626">
        <ele>298</ele>
        <time>2021-12-31T11:04:04.000Z</time>
      </trkpt>
      <trkpt lat="45.49441" lon="6.14627">
        <ele>299.20001220703</ele>
        <time>2021-12-31T11:04:08.000Z</time>
      </trkpt>
      <trkpt lat="45.49453" lon="6.1463">
        <ele>300.20001220703</ele>
        <time>2021-12-31T11:04:12.000Z</time>
      </trkpt>
      <trkpt lat="45.49467" lon="6.14635">
        <ele>301.39999389648</ele>
        <time>2021-12-31T11:04:17.000Z</time>
      </trkpt>
      <trkpt lat="45.49475" lon="6.14637">
        <ele>302</ele>
        <time>2021-12-31T11:04:20.000Z</time>
      </trkpt>
      <trkpt lat="45.49478" lon="6.14638">
        <ele>302.39999389648</ele>
        <time>2021-12-31T11:04:21.000Z</time>
      </trkpt>
      <trkpt lat="45.49488" lon="6.1464">
        <ele>303.39999389648</ele>
        <time>2021-12-31T11:04:25.000Z</time>
      </trkpt>
      <trkpt lat="45.49498" lon="6.14643">
        <ele>304.39999389648</ele>
        <time>2021-12-31T11:04:29.000Z</time>
      </trkpt>
      <trkpt lat="45.49499" lon="6.14643">
        <ele>304.60000610352</ele>
        <time>2021-12-31T11:04:30.000Z</time>
      </trkpt>
      <trkpt lat="45.49507" lon="6.14645">
        <ele>305.60000610352</ele>
        <time>2021-12-31T11:04:33.000Z</time>
      </trkpt>
      <trkpt lat="45.4952" lon="6.14648">
        <ele>306.60000610352</ele>
        <time>2021-12-31T11:04:38.000Z</time>
      </trkpt>
      <trkpt lat="45.49534" lon="6.14652">
        <ele>307.79998779297</ele>
        <time>2021-12-31T11:04:43.000Z</time>
      </trkpt>
      <trkpt lat="45.49539" lon="6.14654">
        <ele>308.20001220703</ele>
        <time>2021-12-31T11:04:45.000Z</time>
      </trkpt>
      <trkpt lat="45.49545" lon="6.14655">
        <ele>309</ele>
        <time>2021-12-31T11:04:47.000Z</time>
      </trkpt>
      <trkpt lat="45.49556" lon="6.14653">
        <ele>310.39999389648</ele>
        <time>2021-12-31T11:04:51.000Z</time>
      </trkpt>
      <trkpt lat="45.49559" lon="6.14652">
        <ele>310.79998779297</ele>
        <time>2021-12-31T11:04:52.000Z</time>
      </trkpt>
      <trkpt lat="45.49574" lon="6.14646">
        <ele>312</ele>
        <time>2021-12-31T11:04:57.000Z</time>
      </trkpt>
      <trkpt lat="45.49585" lon="6.14636">
        <ele>313</ele>
        <time>2021-12-31T11:05:01.000Z</time>
      </trkpt>
      <trkpt lat="45.49599" lon="6.14623">
        <ele>314</ele>
        <time>2021-12-31T11:05:06.000Z</time>
      </trkpt>
      <trkpt lat="45.4961" lon="6.14607">
        <ele>315</ele>
        <time>2021-12-31T11:05:11.000Z</time>
      </trkpt>
      <trkpt lat="45.49624" lon="6.146">
        <ele>316.20001220703</ele>
        <time>2021-12-31T11:05:16.000Z</time>
      </trkpt>
      <trkpt lat="45.49631" lon="6.14597">
        <ele>317</ele>
        <time>2021-12-31T11:05:19.000Z</time>
      </trkpt>
      <trkpt lat="45.49635" lon="6.14598">
        <ele>317.39999389648</ele>
        <time>2021-12-31T11:05:21.000Z</time>
      </trkpt>
      <trkpt lat="45.49646" lon="6.146">
        <ele>318.60000610352</ele>
        <time>2021-12-31T11:05:25.000Z</time>
      </trkpt>
      <trkpt lat="45.49652" lon="6.14604">
        <ele>319</ele>
        <time>2021-12-31T11:05:27.000Z</time>
      </trkpt>
      <trkpt lat="45.49659" lon="6.14613">
        <ele>319.60000610352</ele>
        <time>2021-12-31T11:05:30.000Z</time>
      </trkpt>
      <trkpt lat="45.49664" lon="6.1462">
        <ele>320.20001220703</ele>
        <time>2021-12-31T11:05:32.000Z</time>
      </trkpt>
      <trkpt lat="45.49669" lon="6.14625">
        <ele>320.79998779297</ele>
        <time>2021-12-31T11:05:34.000Z</time>
      </trkpt>
      <trkpt lat="45.49676" lon="6.14628">
        <ele>321.20001220703</ele>
        <time>2021-12-31T11:05:36.000Z</time>
      </trkpt>
      <trkpt lat="45.49688" lon="6.14629">
        <ele>322</ele>
        <time>2021-12-31T11:05:40.000Z</time>
      </trkpt>
      <trkpt lat="45.49699" lon="6.14632">
        <ele>322.60000610352</ele>
        <time>2021-12-31T11:05:44.000Z</time>
      </trkpt>
      <trkpt lat="45.49704" lon="6.14633">
        <ele>323</ele>
        <time>2021-12-31T11:05:46.000Z</time>
      </trkpt>
      <trkpt lat="45.49714" lon="6.14636">
        <ele>324</ele>
        <time>2021-12-31T11:05:50.000Z</time>
      </trkpt>
      <trkpt lat="45.49716" lon="6.14637">
        <ele>324.20001220703</ele>
        <time>2021-12-31T11:05:51.000Z</time>
      </trkpt>
      <trkpt lat="45.49728" lon="6.14643">
        <ele>325.39999389648</ele>
        <time>2021-12-31T11:05:55.000Z</time>
      </trkpt>
      <trkpt lat="45.49731" lon="6.14644">
        <ele>325.79998779297</ele>
        <time>2021-12-31T11:05:56.000Z</time>
      </trkpt>
      <trkpt lat="45.49739" lon="6.14647">
        <ele>326.39999389648</ele>
        <time>2021-12-31T11:05:59.000Z</time>
      </trkpt>
      <trkpt lat="45.49751" lon="6.14651">
        <ele>327.39999389648</ele>
        <time>2021-12-31T11:06:03.000Z</time>
      </trkpt>
      <trkpt lat="45.49756" lon="6.14654">
        <ele>327.79998779297</ele>
        <time>2021-12-31T11:06:05.000Z</time>
      </trkpt>
      <trkpt lat="45.49764" lon="6.14659">
        <ele>328.39999389648</ele>
        <time>2021-12-31T11:06:08.000Z</time>
      </trkpt>
      <trkpt lat="45.49777" lon="6.14668">
        <ele>329.60000610352</ele>
        <time>2021-12-31T11:06:13.000Z</time>
      </trkpt>
      <trkpt lat="45.49783" lon="6.14672">
        <ele>330.20001220703</ele>
        <time>2021-12-31T11:06:15.000Z</time>
      </trkpt>
      <trkpt lat="45.49789" lon="6.14678">
        <ele>331</ele>
        <time>2021-12-31T11:06:18.000Z</time>
      </trkpt>
      <trkpt lat="45.49804" lon="6.14687">
        <ele>332</ele>
        <time>2021-12-31T11:06:24.000Z</time>
      </trkpt>
      <trkpt lat="45.49807" lon="6.14689">
        <ele>332.39999389648</ele>
        <time>2021-12-31T11:06:25.000Z</time>
      </trkpt>
      <trkpt lat="45.49814" lon="6.14691">
        <ele>333.20001220703</ele>
        <time>2021-12-31T11:06:28.000Z</time>
      </trkpt>
      <trkpt lat="45.49827" lon="6.14695">
        <ele>334.39999389648</ele>
        <time>2021-12-31T11:06:33.000Z</time>
      </trkpt>
      <trkpt lat="45.49843" lon="6.14693">
        <ele>335.39999389648</ele>
        <time>2021-12-31T11:06:39.000Z</time>
      </trkpt>
      <trkpt lat="45.49848" lon="6.14691">
        <ele>335.79998779297</ele>
        <time>2021-12-31T11:06:41.000Z</time>
      </trkpt>
      <trkpt lat="45.49853" lon="6.14688">
        <ele>336.39999389648</ele>
        <time>2021-12-31T11:06:43.000Z</time>
      </trkpt>
      <trkpt lat="45.49863" lon="6.14682">
        <ele>337.60000610352</ele>
        <time>2021-12-31T11:06:47.000Z</time>
      </trkpt>
      <trkpt lat="45.4987" lon="6.14677">
        <ele>338.20001220703</ele>
        <time>2021-12-31T11:06:50.000Z</time>
      </trkpt>
      <trkpt lat="45.49875" lon="6.14675">
        <ele>338.60000610352</ele>
        <time>2021-12-31T11:06:52.000Z</time>
      </trkpt>
      <trkpt lat="45.49885" lon="6.1467">
        <ele>339.79998779297</ele>
        <time>2021-12-31T11:06:56.000Z</time>
      </trkpt>
      <trkpt lat="45.49888" lon="6.1467">
        <ele>340</ele>
        <time>2021-12-31T11:06:57.000Z</time>
      </trkpt>
      <trkpt lat="45.49901" lon="6.14665">
        <ele>341</ele>
        <time>2021-12-31T11:07:02.000Z</time>
      </trkpt>
      <trkpt lat="45.49909" lon="6.14662">
        <ele>341.79998779297</ele>
        <time>2021-12-31T11:07:05.000Z</time>
      </trkpt>
      <trkpt lat="45.49914" lon="6.1466">
        <ele>342.39999389648</ele>
        <time>2021-12-31T11:07:07.000Z</time>
      </trkpt>
      <trkpt lat="45.49925" lon="6.14657">
        <ele>343.39999389648</ele>
        <time>2021-12-31T11:07:11.000Z</time>
      </trkpt>
      <trkpt lat="45.49928" lon="6.14656">
        <ele>343.79998779297</ele>
        <time>2021-12-31T11:07:12.000Z</time>
      </trkpt>
      <trkpt lat="45.49937" lon="6.14656">
        <ele>344.60000610352</ele>
        <time>2021-12-31T11:07:15.000Z</time>
      </trkpt>
      <trkpt lat="45.49943" lon="6.14656">
        <ele>345</ele>
        <time>2021-12-31T11:07:17.000Z</time>
      </trkpt>
      <trkpt lat="45.49951" lon="6.14655">
        <ele>346</ele>
        <time>2021-12-31T11:07:20.000Z</time>
      </trkpt>
      <trkpt lat="45.49959" lon="6.14657">
        <ele>346.39999389648</ele>
        <time>2021-12-31T11:07:23.000Z</time>
      </trkpt>
      <trkpt lat="45.49967" lon="6.14662">
        <ele>347</ele>
        <time>2021-12-31T11:07:26.000Z</time>
      </trkpt>
      <trkpt lat="45.49976" lon="6.14668">
        <ele>348</ele>
        <time>2021-12-31T11:07:30.000Z</time>
      </trkpt>
      <trkpt lat="45.49978" lon="6.1467">
        <ele>348.20001220703</ele>
        <time>2021-12-31T11:07:31.000Z</time>
      </trkpt>
      <trkpt lat="45.49986" lon="6.14678">
        <ele>349.39999389648</ele>
        <time>2021-12-31T11:07:35.000Z</time>
      </trkpt>
      <trkpt lat="45.49988" lon="6.14681">
        <ele>349.39999389648</ele>
        <time>2021-12-31T11:07:36.000Z</time>
      </trkpt>
      <trkpt lat="45.49997" lon="6.14695">
        <ele>350.39999389648</ele>
        <time>2021-12-31T11:07:41.000Z</time>
      </trkpt>
      <trkpt lat="45.50002" lon="6.14701">
        <ele>350.60000610352</ele>
        <time>2021-12-31T11:07:43.000Z</time>
      </trkpt>
      <trkpt lat="45.50006" lon="6.14712">
        <ele>351.39999389648</ele>
        <time>2021-12-31T11:07:46.000Z</time>
      </trkpt>
      <trkpt lat="45.50011" lon="6.14721">
        <ele>352.20001220703</ele>
        <time>2021-12-31T11:07:49.000Z</time>
      </trkpt>
      <trkpt lat="45.50015" lon="6.14726">
        <ele>352.60000610352</ele>
        <time>2021-12-31T11:07:51.000Z</time>
      </trkpt>
      <trkpt lat="45.50023" lon="6.14736">
        <ele>353.60000610352</ele>
        <time>2021-12-31T11:07:55.000Z</time>
      </trkpt>
      <trkpt lat="45.50027" lon="6.14741">
        <ele>354.20001220703</ele>
        <time>2021-12-31T11:07:57.000Z</time>
      </trkpt>
      <trkpt lat="45.50032" lon="6.14744">
        <ele>354.39999389648</ele>
        <time>2021-12-31T11:07:59.000Z</time>
      </trkpt>
      <trkpt lat="45.50037" lon="6.14746">
        <ele>354.79998779297</ele>
        <time>2021-12-31T11:08:01.000Z</time>
      </trkpt>
      <trkpt lat="45.50047" lon="6.14752">
        <ele>355.60000610352</ele>
        <time>2021-12-31T11:08:05.000Z</time>
      </trkpt>
      <trkpt lat="45.50049" lon="6.14753">
        <ele>355.79998779297</ele>
        <time>2021-12-31T11:08:06.000Z</time>
      </trkpt>
      <trkpt lat="45.50062" lon="6.14757">
        <ele>356.79998779297</ele>
        <time>2021-12-31T11:08:11.000Z</time>
      </trkpt>
      <trkpt lat="45.50064" lon="6.14758">
        <ele>357</ele>
        <time>2021-12-31T11:08:12.000Z</time>
      </trkpt>
      <trkpt lat="45.5008" lon="6.14763">
        <ele>358</ele>
        <time>2021-12-31T11:08:18.000Z</time>
      </trkpt>
      <trkpt lat="45.50086" lon="6.14765">
        <ele>358.20001220703</ele>
        <time>2021-12-31T11:08:20.000Z</time>
      </trkpt>
      <trkpt lat="45.50096" lon="6.14767">
        <ele>359.39999389648</ele>
        <time>2021-12-31T11:08:24.000Z</time>
      </trkpt>
      <trkpt lat="45.50104" lon="6.1477">
        <ele>360</ele>
        <time>2021-12-31T11:08:27.000Z</time>
      </trkpt>
      <trkpt lat="45.50109" lon="6.14771">
        <ele>360.39999389648</ele>
        <time>2021-12-31T11:08:29.000Z</time>
      </trkpt>
      <trkpt lat="45.50124" lon="6.14775">
        <ele>361.60000610352</ele>
        <time>2021-12-31T11:08:35.000Z</time>
      </trkpt>
      <trkpt lat="45.50131" lon="6.14778">
        <ele>361.79998779297</ele>
        <time>2021-12-31T11:08:37.000Z</time>
      </trkpt>
      <trkpt lat="45.50139" lon="6.14784">
        <ele>362.60000610352</ele>
        <time>2021-12-31T11:08:40.000Z</time>
      </trkpt>
      <trkpt lat="45.50147" lon="6.14794">
        <ele>363.39999389648</ele>
        <time>2021-12-31T11:08:44.000Z</time>
      </trkpt>
      <trkpt lat="45.50149" lon="6.14796">
        <ele>363.60000610352</ele>
        <time>2021-12-31T11:08:45.000Z</time>
      </trkpt>
      <trkpt lat="45.50155" lon="6.14804">
        <ele>365</ele>
        <time>2021-12-31T11:08:48.000Z</time>
      </trkpt>
      <trkpt lat="45.50163" lon="6.14813">
        <ele>365.79998779297</ele>
        <time>2021-12-31T11:08:52.000Z</time>
      </trkpt>
      <trkpt lat="45.50167" lon="6.14818">
        <ele>366</ele>
        <time>2021-12-31T11:08:54.000Z</time>
      </trkpt>
      <trkpt lat="45.50178" lon="6.1483">
        <ele>367</ele>
        <time>2021-12-31T11:08:59.000Z</time>
      </trkpt>
      <trkpt lat="45.50181" lon="6.14832">
        <ele>367.20001220703</ele>
        <time>2021-12-31T11:09:00.000Z</time>
      </trkpt>
      <trkpt lat="45.50192" lon="6.14843">
        <ele>368.60000610352</ele>
        <time>2021-12-31T11:09:05.000Z</time>
      </trkpt>
      <trkpt lat="45.50198" lon="6.14847">
        <ele>369.39999389648</ele>
        <time>2021-12-31T11:09:08.000Z</time>
      </trkpt>
      <trkpt lat="45.50203" lon="6.1485">
        <ele>369.79998779297</ele>
        <time>2021-12-31T11:09:10.000Z</time>
      </trkpt>
      <trkpt lat="45.50214" lon="6.14859">
        <ele>370.79998779297</ele>
        <time>2021-12-31T11:09:15.000Z</time>
      </trkpt>
      <trkpt lat="45.50216" lon="6.14861">
        <ele>371.20001220703</ele>
        <time>2021-12-31T11:09:16.000Z</time>
      </trkpt>
      <trkpt lat="45.50225" lon="6.14867">
        <ele>372</ele>
        <time>2021-12-31T11:09:20.000Z</time>
      </trkpt>
      <trkpt lat="45.50232" lon="6.14872">
        <ele>372.79998779297</ele>
        <time>2021-12-31T11:09:23.000Z</time>
      </trkpt>
      <trkpt lat="45.50236" lon="6.14877">
        <ele>373.39999389648</ele>
        <time>2021-12-31T11:09:25.000Z</time>
      </trkpt>
      <trkpt lat="45.50243" lon="6.14882">
        <ele>374.60000610352</ele>
        <time>2021-12-31T11:09:28.000Z</time>
      </trkpt>
      <trkpt lat="45.50246" lon="6.14884">
        <ele>375.20001220703</ele>
        <time>2021-12-31T11:09:30.000Z</time>
      </trkpt>
      <trkpt lat="45.50251" lon="6.14887">
        <ele>375.79998779297</ele>
        <time>2021-12-31T11:09:33.000Z</time>
      </trkpt>
      <trkpt lat="45.50257" lon="6.14893">
        <ele>376.60000610352</ele>
        <time>2021-12-31T11:09:37.000Z</time>
      </trkpt>
      <trkpt lat="45.50259" lon="6.14895">
        <ele>377</ele>
        <time>2021-12-31T11:09:38.000Z</time>
      </trkpt>
      <trkpt lat="45.50261" lon="6.14896">
        <ele>377</ele>
        <time>2021-12-31T11:09:39.000Z</time>
      </trkpt>
      <trkpt lat="45.50266" lon="6.14902">
        <ele>377.79998779297</ele>
        <time>2021-12-31T11:09:42.000Z</time>
      </trkpt>
      <trkpt lat="45.50269" lon="6.14905">
        <ele>378</ele>
        <time>2021-12-31T11:09:43.000Z</time>
      </trkpt>
      <trkpt lat="45.5028" lon="6.14918">
        <ele>379</ele>
        <time>2021-12-31T11:09:48.000Z</time>
      </trkpt>
      <trkpt lat="45.50281" lon="6.14921">
        <ele>379.20001220703</ele>
        <time>2021-12-31T11:09:49.000Z</time>
      </trkpt>
      <trkpt lat="45.50284" lon="6.14928">
        <ele>379.79998779297</ele>
        <time>2021-12-31T11:09:51.000Z</time>
      </trkpt>
      <trkpt lat="45.50289" lon="6.14937">
        <ele>380.20001220703</ele>
        <time>2021-12-31T11:09:54.000Z</time>
      </trkpt>
      <trkpt lat="45.50293" lon="6.14946">
        <ele>381.39999389648</ele>
        <time>2021-12-31T11:09:57.000Z</time>
      </trkpt>
      <trkpt lat="45.50301" lon="6.14961">
        <ele>382.60000610352</ele>
        <time>2021-12-31T11:10:02.000Z</time>
      </trkpt>
      <trkpt lat="45.50302" lon="6.14963">
        <ele>382.60000610352</ele>
        <time>2021-12-31T11:10:03.000Z</time>
      </trkpt>
      <trkpt lat="45.50307" lon="6.14971">
        <ele>383.60000610352</ele>
        <time>2021-12-31T11:10:06.000Z</time>
      </trkpt>
      <trkpt lat="45.50312" lon="6.14981">
        <ele>384.60000610352</ele>
        <time>2021-12-31T11:10:10.000Z</time>
      </trkpt>
      <trkpt lat="45.50314" lon="6.14983">
        <ele>384.79998779297</ele>
        <time>2021-12-31T11:10:11.000Z</time>
      </trkpt>
      <trkpt lat="45.5032" lon="6.14994">
        <ele>386</ele>
        <time>2021-12-31T11:10:15.000Z</time>
      </trkpt>
      <trkpt lat="45.50323" lon="6.14999">
        <ele>386.60000610352</ele>
        <time>2021-12-31T11:10:17.000Z</time>
      </trkpt>
      <trkpt lat="45.50326" lon="6.15004">
        <ele>387</ele>
        <time>2021-12-31T11:10:19.000Z</time>
      </trkpt>
      <trkpt lat="45.50334" lon="6.15015">
        <ele>388.20001220703</ele>
        <time>2021-12-31T11:10:24.000Z</time>
      </trkpt>
      <trkpt lat="45.50345" lon="6.15026">
        <ele>389.39999389648</ele>
        <time>2021-12-31T11:10:30.000Z</time>
      </trkpt>
      <trkpt lat="45.50349" lon="6.15028">
        <ele>389.79998779297</ele>
        <time>2021-12-31T11:10:32.000Z</time>
      </trkpt>
      <trkpt lat="45.50354" lon="6.15031">
        <ele>390.39999389648</ele>
        <time>2021-12-31T11:10:35.000Z</time>
      </trkpt>
      <trkpt lat="45.50359" lon="6.15035">
        <ele>391.20001220703</ele>
        <time>2021-12-31T11:10:38.000Z</time>
      </trkpt>
      <trkpt lat="45.50362" lon="6.15037">
        <ele>391.60000610352</ele>
        <time>2021-12-31T11:10:39.000Z</time>
      </trkpt>
      <trkpt lat="45.50373" lon="6.15044">
        <ele>392.39999389648</ele>
        <time>2021-12-31T11:10:44.000Z</time>
      </trkpt>
      <trkpt lat="45.50376" lon="6.15045">
        <ele>392.60000610352</ele>
        <time>2021-12-31T11:10:45.000Z</time>
      </trkpt>
      <trkpt lat="45.50385" lon="6.15049">
        <ele>393.79998779297</ele>
        <time>2021-12-31T11:10:49.000Z</time>
      </trkpt>
      <trkpt lat="45.50387" lon="6.1505">
        <ele>394</ele>
        <time>2021-12-31T11:10:50.000Z</time>
      </trkpt>
      <trkpt lat="45.50393" lon="6.15055">
        <ele>394.79998779297</ele>
        <time>2021-12-31T11:10:53.000Z</time>
      </trkpt>
      <trkpt lat="45.50404" lon="6.15066">
        <ele>396</ele>
        <time>2021-12-31T11:10:59.000Z</time>
      </trkpt>
      <trkpt lat="45.50413" lon="6.15072">
        <ele>397.20001220703</ele>
        <time>2021-12-31T11:11:03.000Z</time>
      </trkpt>
      <trkpt lat="45.50415" lon="6.15074">
        <ele>397.39999389648</ele>
        <time>2021-12-31T11:11:04.000Z</time>
      </trkpt>
      <trkpt lat="45.50419" lon="6.15079">
        <ele>397.79998779297</ele>
        <time>2021-12-31T11:11:06.000Z</time>
      </trkpt>
      <trkpt lat="45.50423" lon="6.15082">
        <ele>398.39999389648</ele>
        <time>2021-12-31T11:11:08.000Z</time>
      </trkpt>
      <trkpt lat="45.50431" lon="6.15089">
        <ele>399.39999389648</ele>
        <time>2021-12-31T11:11:12.000Z</time>
      </trkpt>
      <trkpt lat="45.50444" lon="6.15103">
        <ele>400.60000610352</ele>
        <time>2021-12-31T11:11:18.000Z</time>
      </trkpt>
      <trkpt lat="45.50446" lon="6.15104">
        <ele>401</ele>
        <time>2021-12-31T11:11:19.000Z</time>
      </trkpt>
      <trkpt lat="45.50452" lon="6.15111">
        <ele>401.60000610352</ele>
        <time>2021-12-31T11:11:22.000Z</time>
      </trkpt>
      <trkpt lat="45.5046" lon="6.15117">
        <ele>402.39999389648</ele>
        <time>2021-12-31T11:11:26.000Z</time>
      </trkpt>
      <trkpt lat="45.50464" lon="6.15119">
        <ele>403</ele>
        <time>2021-12-31T11:11:28.000Z</time>
      </trkpt>
      <trkpt lat="45.50475" lon="6.15124">
        <ele>403.79998779297</ele>
        <time>2021-12-31T11:11:33.000Z</time>
      </trkpt>
      <trkpt lat="45.50477" lon="6.15125">
        <ele>404</ele>
        <time>2021-12-31T11:11:34.000Z</time>
      </trkpt>
      <trkpt lat="45.50488" lon="6.15129">
        <ele>405</ele>
        <time>2021-12-31T11:11:39.000Z</time>
      </trkpt>
      <trkpt lat="45.5049" lon="6.1513">
        <ele>405.20001220703</ele>
        <time>2021-12-31T11:11:40.000Z</time>
      </trkpt>
      <trkpt lat="45.505" lon="6.15138">
        <ele>406.39999389648</ele>
        <time>2021-12-31T11:11:45.000Z</time>
      </trkpt>
      <trkpt lat="45.50503" lon="6.15139">
        <ele>407</ele>
        <time>2021-12-31T11:11:46.000Z</time>
      </trkpt>
      <trkpt lat="45.50507" lon="6.15141">
        <ele>407.60000610352</ele>
        <time>2021-12-31T11:11:48.000Z</time>
      </trkpt>
      <trkpt lat="45.50517" lon="6.15149">
        <ele>408.60000610352</ele>
        <time>2021-12-31T11:11:53.000Z</time>
      </trkpt>
      <trkpt lat="45.50518" lon="6.15151">
        <ele>408.60000610352</ele>
        <time>2021-12-31T11:11:54.000Z</time>
      </trkpt>
      <trkpt lat="45.50523" lon="6.15157">
        <ele>409.60000610352</ele>
        <time>2021-12-31T11:11:57.000Z</time>
      </trkpt>
      <trkpt lat="45.50526" lon="6.15164">
        <ele>410.39999389648</ele>
        <time>2021-12-31T11:12:00.000Z</time>
      </trkpt>
      <trkpt lat="45.50528" lon="6.15166">
        <ele>410.79998779297</ele>
        <time>2021-12-31T11:12:01.000Z</time>
      </trkpt>
      <trkpt lat="45.50532" lon="6.15169">
        <ele>411.39999389648</ele>
        <time>2021-12-31T11:12:04.000Z</time>
      </trkpt>
      <trkpt lat="45.50535" lon="6.15168">
        <ele>411.60000610352</ele>
        <time>2021-12-31T11:12:05.000Z</time>
      </trkpt>
      <trkpt lat="45.50537" lon="6.15167">
        <ele>412</ele>
        <time>2021-12-31T11:12:06.000Z</time>
      </trkpt>
      <trkpt lat="45.50538" lon="6.15161">
        <ele>412.20001220703</ele>
        <time>2021-12-31T11:12:08.000Z</time>
      </trkpt>
      <trkpt lat="45.50537" lon="6.15158">
        <ele>412.39999389648</ele>
        <time>2021-12-31T11:12:09.000Z</time>
      </trkpt>
      <trkpt lat="45.50536" lon="6.15156">
        <ele>412.60000610352</ele>
        <time>2021-12-31T11:12:10.000Z</time>
      </trkpt>
      <trkpt lat="45.50533" lon="6.15152">
        <ele>413</ele>
        <time>2021-12-31T11:12:12.000Z</time>
      </trkpt>
      <trkpt lat="45.50532" lon="6.1515">
        <ele>413.39999389648</ele>
        <time>2021-12-31T11:12:13.000Z</time>
      </trkpt>
      <trkpt lat="45.50527" lon="6.15139">
        <ele>414.20001220703</ele>
        <time>2021-12-31T11:12:17.000Z</time>
      </trkpt>
      <trkpt lat="45.50526" lon="6.15137">
        <ele>414.39999389648</ele>
        <time>2021-12-31T11:12:18.000Z</time>
      </trkpt>
      <trkpt lat="45.50521" lon="6.15128">
        <ele>415.39999389648</ele>
        <time>2021-12-31T11:12:22.000Z</time>
      </trkpt>
      <trkpt lat="45.50517" lon="6.15117">
        <ele>415.79998779297</ele>
        <time>2021-12-31T11:12:26.000Z</time>
      </trkpt>
      <trkpt lat="45.50512" lon="6.1511">
        <ele>416.39999389648</ele>
        <time>2021-12-31T11:12:29.000Z</time>
      </trkpt>
      <trkpt lat="45.50506" lon="6.151">
        <ele>417.60000610352</ele>
        <time>2021-12-31T11:12:33.000Z</time>
      </trkpt>
      <trkpt lat="45.50502" lon="6.15095">
        <ele>418</ele>
        <time>2021-12-31T11:12:35.000Z</time>
      </trkpt>
      <trkpt lat="45.505" lon="6.15088">
        <ele>418.79998779297</ele>
        <time>2021-12-31T11:12:38.000Z</time>
      </trkpt>
      <trkpt lat="45.50496" lon="6.15082">
        <ele>419.20001220703</ele>
        <time>2021-12-31T11:12:40.000Z</time>
      </trkpt>
      <trkpt lat="45.50495" lon="6.15076">
        <ele>419.60000610352</ele>
        <time>2021-12-31T11:12:42.000Z</time>
      </trkpt>
      <trkpt lat="45.50495" lon="6.15074">
        <ele>420</ele>
        <time>2021-12-31T11:12:44.000Z</time>
      </trkpt>
      <trkpt lat="45.50496" lon="6.1507">
        <ele>420.20001220703</ele>
        <time>2021-12-31T11:12:45.000Z</time>
      </trkpt>
      <trkpt lat="45.50495" lon="6.15067">
        <ele>420.60000610352</ele>
        <time>2021-12-31T11:12:47.000Z</time>
      </trkpt>
      <trkpt lat="45.50491" lon="6.15063">
        <ele>421.20001220703</ele>
        <time>2021-12-31T11:12:49.000Z</time>
      </trkpt>
      <trkpt lat="45.5049" lon="6.15061">
        <ele>421.39999389648</ele>
        <time>2021-12-31T11:12:50.000Z</time>
      </trkpt>
      <trkpt lat="45.50484" lon="6.15052">
        <ele>422.20001220703</ele>
        <time>2021-12-31T11:12:54.000Z</time>
      </trkpt>
      <trkpt lat="45.5048" lon="6.15037">
        <ele>423.20001220703</ele>
        <time>2021-12-31T11:12:58.000Z</time>
      </trkpt>
      <trkpt lat="45.50472" lon="6.15021">
        <ele>424.60000610352</ele>
        <time>2021-12-31T11:13:04.000Z</time>
      </trkpt>
      <trkpt lat="45.50466" lon="6.15003">
        <ele>425.79998779297</ele>
        <time>2021-12-31T11:13:09.000Z</time>
      </trkpt>
      <trkpt lat="45.50464" lon="6.15">
        <ele>426</ele>
        <time>2021-12-31T11:13:10.000Z</time>
      </trkpt>
      <trkpt lat="45.50458" lon="6.14988">
        <ele>427</ele>
        <time>2021-12-31T11:13:14.000Z</time>
      </trkpt>
      <trkpt lat="45.50454" lon="6.14982">
        <ele>427.60000610352</ele>
        <time>2021-12-31T11:13:16.000Z</time>
      </trkpt>
      <trkpt lat="45.50451" lon="6.14975">
        <ele>428.20001220703</ele>
        <time>2021-12-31T11:13:19.000Z</time>
      </trkpt>
      <trkpt lat="45.50448" lon="6.14967">
        <ele>429</ele>
        <time>2021-12-31T11:13:22.000Z</time>
      </trkpt>
      <trkpt lat="45.50445" lon="6.14963">
        <ele>429.60000610352</ele>
        <time>2021-12-31T11:13:24.000Z</time>
      </trkpt>
      <trkpt lat="45.50438" lon="6.14953">
        <ele>430.60000610352</ele>
        <time>2021-12-31T11:13:29.000Z</time>
      </trkpt>
      <trkpt lat="45.50426" lon="6.14941">
        <ele>431.60000610352</ele>
        <time>2021-12-31T11:13:35.000Z</time>
      </trkpt>
      <trkpt lat="45.50422" lon="6.14938">
        <ele>432</ele>
        <time>2021-12-31T11:13:37.000Z</time>
      </trkpt>
      <trkpt lat="45.50412" lon="6.14932">
        <ele>433</ele>
        <time>2021-12-31T11:13:41.000Z</time>
      </trkpt>
      <trkpt lat="45.5041" lon="6.14929">
        <ele>433</ele>
        <time>2021-12-31T11:13:42.000Z</time>
      </trkpt>
      <trkpt lat="45.5041" lon="6.14925">
        <ele>433.20001220703</ele>
        <time>2021-12-31T11:13:43.000Z</time>
      </trkpt>
      <trkpt lat="45.50413" lon="6.14918">
        <ele>433.60000610352</ele>
        <time>2021-12-31T11:13:46.000Z</time>
      </trkpt>
      <trkpt lat="45.50416" lon="6.14918">
        <ele>434</ele>
        <time>2021-12-31T11:13:47.000Z</time>
      </trkpt>
      <trkpt lat="45.50422" lon="6.14924">
        <ele>435</ele>
        <time>2021-12-31T11:13:50.000Z</time>
      </trkpt>
      <trkpt lat="45.50427" lon="6.14927">
        <ele>435.39999389648</ele>
        <time>2021-12-31T11:13:52.000Z</time>
      </trkpt>
      <trkpt lat="45.50434" lon="6.14932">
        <ele>436.20001220703</ele>
        <time>2021-12-31T11:13:55.000Z</time>
      </trkpt>
      <trkpt lat="45.5044" lon="6.14936">
        <ele>436.79998779297</ele>
        <time>2021-12-31T11:13:58.000Z</time>
      </trkpt>
      <trkpt lat="45.50444" lon="6.14937">
        <ele>437.20001220703</ele>
        <time>2021-12-31T11:14:00.000Z</time>
      </trkpt>
      <trkpt lat="45.5045" lon="6.14943">
        <ele>437.79998779297</ele>
        <time>2021-12-31T11:14:03.000Z</time>
      </trkpt>
      <trkpt lat="45.50458" lon="6.14948">
        <ele>438.20001220703</ele>
        <time>2021-12-31T11:14:06.000Z</time>
      </trkpt>
      <trkpt lat="45.50469" lon="6.14958">
        <ele>439.60000610352</ele>
        <time>2021-12-31T11:14:11.000Z</time>
      </trkpt>
      <trkpt lat="45.50479" lon="6.14968">
        <ele>440.60000610352</ele>
        <time>2021-12-31T11:14:16.000Z</time>
      </trkpt>
      <trkpt lat="45.50491" lon="6.14984">
        <ele>441.79998779297</ele>
        <time>2021-12-31T11:14:22.000Z</time>
      </trkpt>
      <trkpt lat="45.50495" lon="6.14989">
        <ele>442.20001220703</ele>
        <time>2021-12-31T11:14:25.000Z</time>
      </trkpt>
      <trkpt lat="45.50501" lon="6.14995">
        <ele>443</ele>
        <time>2021-12-31T11:14:28.000Z</time>
      </trkpt>
      <trkpt lat="45.50509" lon="6.15005">
        <ele>443.79998779297</ele>
        <time>2021-12-31T11:14:33.000Z</time>
      </trkpt>
      <trkpt lat="45.50512" lon="6.15008">
        <ele>444.20001220703</ele>
        <time>2021-12-31T11:14:35.000Z</time>
      </trkpt>
      <trkpt lat="45.50521" lon="6.15018">
        <ele>445.39999389648</ele>
        <time>2021-12-31T11:14:40.000Z</time>
      </trkpt>
      <trkpt lat="45.50525" lon="6.15022">
        <ele>445.79998779297</ele>
        <time>2021-12-31T11:14:42.000Z</time>
      </trkpt>
      <trkpt lat="45.50534" lon="6.15028">
        <ele>446.60000610352</ele>
        <time>2021-12-31T11:14:46.000Z</time>
      </trkpt>
      <trkpt lat="45.50541" lon="6.15036">
        <ele>447.39999389648</ele>
        <time>2021-12-31T11:14:50.000Z</time>
      </trkpt>
      <trkpt lat="45.50545" lon="6.15039">
        <ele>447.79998779297</ele>
        <time>2021-12-31T11:14:52.000Z</time>
      </trkpt>
      <trkpt lat="45.50551" lon="6.15045">
        <ele>448.39999389648</ele>
        <time>2021-12-31T11:14:56.000Z</time>
      </trkpt>
      <trkpt lat="45.50553" lon="6.15047">
        <ele>448.79998779297</ele>
        <time>2021-12-31T11:14:57.000Z</time>
      </trkpt>
      <trkpt lat="45.50559" lon="6.15052">
        <ele>449.39999389648</ele>
        <time>2021-12-31T11:15:00.000Z</time>
      </trkpt>
      <trkpt lat="45.50566" lon="6.15058">
        <ele>450</ele>
        <time>2021-12-31T11:15:03.000Z</time>
      </trkpt>
      <trkpt lat="45.50575" lon="6.15065">
        <ele>451</ele>
        <time>2021-12-31T11:15:07.000Z</time>
      </trkpt>
      <trkpt lat="45.5058" lon="6.15072">
        <ele>451.79998779297</ele>
        <time>2021-12-31T11:15:11.000Z</time>
      </trkpt>
      <trkpt lat="45.50583" lon="6.15075">
        <ele>452.20001220703</ele>
        <time>2021-12-31T11:15:13.000Z</time>
      </trkpt>
      <trkpt lat="45.50587" lon="6.15079">
        <ele>452.39999389648</ele>
        <time>2021-12-31T11:15:15.000Z</time>
      </trkpt>
      <trkpt lat="45.5059" lon="6.15081">
        <ele>452.60000610352</ele>
        <time>2021-12-31T11:15:16.000Z</time>
      </trkpt>
      <trkpt lat="45.50596" lon="6.15086">
        <ele>453.39999389648</ele>
        <time>2021-12-31T11:15:19.000Z</time>
      </trkpt>
      <trkpt lat="45.50599" lon="6.15087">
        <ele>453.60000610352</ele>
        <time>2021-12-31T11:15:20.000Z</time>
      </trkpt>
      <trkpt lat="45.50613" lon="6.15095">
        <ele>454.60000610352</ele>
        <time>2021-12-31T11:15:26.000Z</time>
      </trkpt>
      <trkpt lat="45.50618" lon="6.15096">
        <ele>455</ele>
        <time>2021-12-31T11:15:28.000Z</time>
      </trkpt>
      <trkpt lat="45.50625" lon="6.15098">
        <ele>455.79998779297</ele>
        <time>2021-12-31T11:15:31.000Z</time>
      </trkpt>
      <trkpt lat="45.50637" lon="6.15102">
        <ele>457.20001220703</ele>
        <time>2021-12-31T11:15:36.000Z</time>
      </trkpt>
      <trkpt lat="45.50649" lon="6.15102">
        <ele>458.39999389648</ele>
        <time>2021-12-31T11:15:41.000Z</time>
      </trkpt>
      <trkpt lat="45.50652" lon="6.15102">
        <ele>458.60000610352</ele>
        <time>2021-12-31T11:15:42.000Z</time>
      </trkpt>
      <trkpt lat="45.50661" lon="6.15105">
        <ele>459.79998779297</ele>
        <time>2021-12-31T11:15:46.000Z</time>
      </trkpt>
      <trkpt lat="45.50667" lon="6.15105">
        <ele>460.20001220703</ele>
        <time>2021-12-31T11:15:49.000Z</time>
      </trkpt>
      <trkpt lat="45.50672" lon="6.15107">
        <ele>461</ele>
        <time>2021-12-31T11:15:51.000Z</time>
      </trkpt>
      <trkpt lat="45.50683" lon="6.15109">
        <ele>462.20001220703</ele>
        <time>2021-12-31T11:15:56.000Z</time>
      </trkpt>
      <trkpt lat="45.50688" lon="6.1511">
        <ele>462.60000610352</ele>
        <time>2021-12-31T11:15:58.000Z</time>
      </trkpt>
      <trkpt lat="45.50694" lon="6.15112">
        <ele>463.39999389648</ele>
        <time>2021-12-31T11:16:01.000Z</time>
      </trkpt>
      <trkpt lat="45.50704" lon="6.15114">
        <ele>464.60000610352</ele>
        <time>2021-12-31T11:16:06.000Z</time>
      </trkpt>
      <trkpt lat="45.50714" lon="6.1512">
        <ele>465.60000610352</ele>
        <time>2021-12-31T11:16:11.000Z</time>
      </trkpt>
      <trkpt lat="45.50723" lon="6.15124">
        <ele>466.39999389648</ele>
        <time>2021-12-31T11:16:15.000Z</time>
      </trkpt>
      <trkpt lat="45.50725" lon="6.15125">
        <ele>466.79998779297</ele>
        <time>2021-12-31T11:16:16.000Z</time>
      </trkpt>
      <trkpt lat="45.50727" lon="6.15126">
        <ele>467</ele>
        <time>2021-12-31T11:16:17.000Z</time>
      </trkpt>
      <trkpt lat="45.50729" lon="6.15127">
        <ele>467.20001220703</ele>
        <time>2021-12-31T11:16:18.000Z</time>
      </trkpt>
      <trkpt lat="45.50737" lon="6.15133">
        <ele>467.79998779297</ele>
        <time>2021-12-31T11:16:22.000Z</time>
      </trkpt>
      <trkpt lat="45.50742" lon="6.15136">
        <ele>468.60000610352</ele>
        <time>2021-12-31T11:16:24.000Z</time>
      </trkpt>
      <trkpt lat="45.50746" lon="6.15139">
        <ele>469.20001220703</ele>
        <time>2021-12-31T11:16:26.000Z</time>
      </trkpt>
      <trkpt lat="45.50748" lon="6.1514">
        <ele>469.20001220703</ele>
        <time>2021-12-31T11:16:27.000Z</time>
      </trkpt>
      <trkpt lat="45.50752" lon="6.15144">
        <ele>469.60000610352</ele>
        <time>2021-12-31T11:16:29.000Z</time>
      </trkpt>
      <trkpt lat="45.50757" lon="6.15149">
        <ele>470.39999389648</ele>
        <time>2021-12-31T11:16:32.000Z</time>
      </trkpt>
      <trkpt lat="45.50765" lon="6.15151">
        <ele>471.39999389648</ele>
        <time>2021-12-31T11:16:36.000Z</time>
      </trkpt>
      <trkpt lat="45.50766" lon="6.15152">
        <ele>471.60000610352</ele>
        <time>2021-12-31T11:16:37.000Z</time>
      </trkpt>
      <trkpt lat="45.50774" lon="6.15156">
        <ele>472.39999389648</ele>
        <time>2021-12-31T11:16:41.000Z</time>
      </trkpt>
      <trkpt lat="45.50778" lon="6.15159">
        <ele>473.39999389648</ele>
        <time>2021-12-31T11:16:43.000Z</time>
      </trkpt>
      <trkpt lat="45.5078" lon="6.1516">
        <ele>473.60000610352</ele>
        <time>2021-12-31T11:16:44.000Z</time>
      </trkpt>
      <trkpt lat="45.50788" lon="6.15166">
        <ele>474.60000610352</ele>
        <time>2021-12-31T11:16:48.000Z</time>
      </trkpt>
      <trkpt lat="45.50796" lon="6.15172">
        <ele>475.39999389648</ele>
        <time>2021-12-31T11:16:52.000Z</time>
      </trkpt>
      <trkpt lat="45.508" lon="6.15175">
        <ele>475.60000610352</ele>
        <time>2021-12-31T11:16:54.000Z</time>
      </trkpt>
      <trkpt lat="45.50807" lon="6.15181">
        <ele>476.60000610352</ele>
        <time>2021-12-31T11:16:58.000Z</time>
      </trkpt>
      <trkpt lat="45.50815" lon="6.15189">
        <ele>477.79998779297</ele>
        <time>2021-12-31T11:17:03.000Z</time>
      </trkpt>
      <trkpt lat="45.50817" lon="6.15191">
        <ele>478.20001220703</ele>
        <time>2021-12-31T11:17:04.000Z</time>
      </trkpt>
      <trkpt lat="45.50823" lon="6.15198">
        <ele>478.60000610352</ele>
        <time>2021-12-31T11:17:08.000Z</time>
      </trkpt>
      <trkpt lat="45.50832" lon="6.15208">
        <ele>479.79998779297</ele>
        <time>2021-12-31T11:17:13.000Z</time>
      </trkpt>
      <trkpt lat="45.50834" lon="6.1521">
        <ele>480</ele>
        <time>2021-12-31T11:17:14.000Z</time>
      </trkpt>
      <trkpt lat="45.5084" lon="6.15217">
        <ele>480.79998779297</ele>
        <time>2021-12-31T11:17:18.000Z</time>
      </trkpt>
      <trkpt lat="45.50845" lon="6.15223">
        <ele>481.60000610352</ele>
        <time>2021-12-31T11:17:21.000Z</time>
      </trkpt>
      <trkpt lat="45.50846" lon="6.15225">
        <ele>481.79998779297</ele>
        <time>2021-12-31T11:17:22.000Z</time>
      </trkpt>
      <trkpt lat="45.50853" lon="6.15236">
        <ele>483</ele>
        <time>2021-12-31T11:17:27.000Z</time>
      </trkpt>
      <trkpt lat="45.50856" lon="6.15238">
        <ele>483.39999389648</ele>
        <time>2021-12-31T11:17:29.000Z</time>
      </trkpt>
      <trkpt lat="45.50861" lon="6.15242">
        <ele>484</ele>
        <time>2021-12-31T11:17:32.000Z</time>
      </trkpt>
      <trkpt lat="45.50872" lon="6.15252">
        <ele>485</ele>
        <time>2021-12-31T11:17:38.000Z</time>
      </trkpt>
      <trkpt lat="45.50881" lon="6.1526">
        <ele>486.20001220703</ele>
        <time>2021-12-31T11:17:44.000Z</time>
      </trkpt>
      <trkpt lat="45.50883" lon="6.15261">
        <ele>486.39999389648</ele>
        <time>2021-12-31T11:17:45.000Z</time>
      </trkpt>
      <trkpt lat="45.50893" lon="6.15269">
        <ele>487.39999389648</ele>
        <time>2021-12-31T11:17:50.000Z</time>
      </trkpt>
      <trkpt lat="45.50897" lon="6.15271">
        <ele>487.79998779297</ele>
        <time>2021-12-31T11:17:52.000Z</time>
      </trkpt>
      <trkpt lat="45.50904" lon="6.15275">
        <ele>488.39999389648</ele>
        <time>2021-12-31T11:17:55.000Z</time>
      </trkpt>
      <trkpt lat="45.5091" lon="6.1528">
        <ele>489</ele>
        <time>2021-12-31T11:17:58.000Z</time>
      </trkpt>
      <trkpt lat="45.50915" lon="6.15285">
        <ele>489.60000610352</ele>
        <time>2021-12-31T11:18:01.000Z</time>
      </trkpt>
      <trkpt lat="45.50917" lon="6.15287">
        <ele>489.60000610352</ele>
        <time>2021-12-31T11:18:02.000Z</time>
      </trkpt>
      <trkpt lat="45.50921" lon="6.15291">
        <ele>490.39999389648</ele>
        <time>2021-12-31T11:18:04.000Z</time>
      </trkpt>
      <trkpt lat="45.50925" lon="6.15294">
        <ele>490.79998779297</ele>
        <time>2021-12-31T11:18:06.000Z</time>
      </trkpt>
      <trkpt lat="45.5094" lon="6.153">
        <ele>491.79998779297</ele>
        <time>2021-12-31T11:18:12.000Z</time>
      </trkpt>
      <trkpt lat="45.50942" lon="6.15302">
        <ele>492</ele>
        <time>2021-12-31T11:18:13.000Z</time>
      </trkpt>
      <trkpt lat="45.50946" lon="6.15307">
        <ele>492.60000610352</ele>
        <time>2021-12-31T11:18:15.000Z</time>
      </trkpt>
      <trkpt lat="45.50948" lon="6.15308">
        <ele>493.20001220703</ele>
        <time>2021-12-31T11:18:16.000Z</time>
      </trkpt>
      <trkpt lat="45.50958" lon="6.15313">
        <ele>494.20001220703</ele>
        <time>2021-12-31T11:18:21.000Z</time>
      </trkpt>
      <trkpt lat="45.50963" lon="6.15315">
        <ele>494.79998779297</ele>
        <time>2021-12-31T11:18:23.000Z</time>
      </trkpt>
      <trkpt lat="45.50971" lon="6.15318">
        <ele>495.39999389648</ele>
        <time>2021-12-31T11:18:27.000Z</time>
      </trkpt>
      <trkpt lat="45.50979" lon="6.15322">
        <ele>496.39999389648</ele>
        <time>2021-12-31T11:18:31.000Z</time>
      </trkpt>
      <trkpt lat="45.50987" lon="6.1533">
        <ele>497.60000610352</ele>
        <time>2021-12-31T11:18:36.000Z</time>
      </trkpt>
      <trkpt lat="45.50989" lon="6.15331">
        <ele>497.79998779297</ele>
        <time>2021-12-31T11:18:37.000Z</time>
      </trkpt>
      <trkpt lat="45.50997" lon="6.15336">
        <ele>498.79998779297</ele>
        <time>2021-12-31T11:18:41.000Z</time>
      </trkpt>
      <trkpt lat="45.51" lon="6.15341">
        <ele>499.20001220703</ele>
        <time>2021-12-31T11:18:43.000Z</time>
      </trkpt>
      <trkpt lat="45.51006" lon="6.1535">
        <ele>500</ele>
        <time>2021-12-31T11:18:47.000Z</time>
      </trkpt>
      <trkpt lat="45.51008" lon="6.15351">
        <ele>500.20001220703</ele>
        <time>2021-12-31T11:18:48.000Z</time>
      </trkpt>
      <trkpt lat="45.51009" lon="6.15354">
        <ele>500.39999389648</ele>
        <time>2021-12-31T11:18:49.000Z</time>
      </trkpt>
      <trkpt lat="45.51013" lon="6.15359">
        <ele>501.20001220703</ele>
        <time>2021-12-31T11:18:52.000Z</time>
      </trkpt>
      <trkpt lat="45.51021" lon="6.15369">
        <ele>502.20001220703</ele>
        <time>2021-12-31T11:18:57.000Z</time>
      </trkpt>
      <trkpt lat="45.51022" lon="6.15371">
        <ele>502.60000610352</ele>
        <time>2021-12-31T11:18:58.000Z</time>
      </trkpt>
      <trkpt lat="45.51028" lon="6.15381">
        <ele>503.39999389648</ele>
        <time>2021-12-31T11:19:02.000Z</time>
      </trkpt>
      <trkpt lat="45.51036" lon="6.15392">
        <ele>504.39999389648</ele>
        <time>2021-12-31T11:19:07.000Z</time>
      </trkpt>
      <trkpt lat="45.51039" lon="6.15396">
        <ele>504.79998779297</ele>
        <time>2021-12-31T11:19:09.000Z</time>
      </trkpt>
      <trkpt lat="45.51042" lon="6.15403">
        <ele>505.60000610352</ele>
        <time>2021-12-31T11:19:12.000Z</time>
      </trkpt>
      <trkpt lat="45.51046" lon="6.1541">
        <ele>506.20001220703</ele>
        <time>2021-12-31T11:19:15.000Z</time>
      </trkpt>
      <trkpt lat="45.51051" lon="6.15419">
        <ele>506.79998779297</ele>
        <time>2021-12-31T11:19:19.000Z</time>
      </trkpt>
      <trkpt lat="45.51057" lon="6.15431">
        <ele>507.79998779297</ele>
        <time>2021-12-31T11:19:24.000Z</time>
      </trkpt>
      <trkpt lat="45.51058" lon="6.15433">
        <ele>508</ele>
        <time>2021-12-31T11:19:25.000Z</time>
      </trkpt>
      <trkpt lat="45.51066" lon="6.15438">
        <ele>508.79998779297</ele>
        <time>2021-12-31T11:19:30.000Z</time>
      </trkpt>
      <trkpt lat="45.51069" lon="6.15434">
        <ele>509.39999389648</ele>
        <time>2021-12-31T11:19:32.000Z</time>
      </trkpt>
      <trkpt lat="45.51069" lon="6.15428">
        <ele>509.79998779297</ele>
        <time>2021-12-31T11:19:34.000Z</time>
      </trkpt>
      <trkpt lat="45.51068" lon="6.15423">
        <ele>510</ele>
        <time>2021-12-31T11:19:36.000Z</time>
      </trkpt>
      <trkpt lat="45.51063" lon="6.15414">
        <ele>510.60000610352</ele>
        <time>2021-12-31T11:19:40.000Z</time>
      </trkpt>
      <trkpt lat="45.51061" lon="6.15409">
        <ele>511</ele>
        <time>2021-12-31T11:19:42.000Z</time>
      </trkpt>
      <trkpt lat="45.51055" lon="6.15401">
        <ele>511.79998779297</ele>
        <time>2021-12-31T11:19:46.000Z</time>
      </trkpt>
      <trkpt lat="45.51053" lon="6.15399">
        <ele>512.20001220703</ele>
        <time>2021-12-31T11:19:47.000Z</time>
      </trkpt>
      <trkpt lat="45.51052" lon="6.15396">
        <ele>512.20001220703</ele>
        <time>2021-12-31T11:19:48.000Z</time>
      </trkpt>
      <trkpt lat="45.51048" lon="6.15389">
        <ele>513.20001220703</ele>
        <time>2021-12-31T11:19:51.000Z</time>
      </trkpt>
      <trkpt lat="45.51047" lon="6.15386">
        <ele>513.40002441406</ele>
        <time>2021-12-31T11:19:52.000Z</time>
      </trkpt>
      <trkpt lat="45.51041" lon="6.15373">
        <ele>514.40002441406</ele>
        <time>2021-12-31T11:19:57.000Z</time>
      </trkpt>
      <trkpt lat="45.51038" lon="6.15368">
        <ele>515</ele>
        <time>2021-12-31T11:19:59.000Z</time>
      </trkpt>
      <trkpt lat="45.51035" lon="6.15358">
        <ele>515.20001220703</ele>
        <time>2021-12-31T11:20:02.000Z</time>
      </trkpt>
      <trkpt lat="45.51035" lon="6.15353">
        <ele>515.40002441406</ele>
        <time>2021-12-31T11:20:03.000Z</time>
      </trkpt>
      <trkpt lat="45.51032" lon="6.15346">
        <ele>516.20001220703</ele>
        <time>2021-12-31T11:20:06.000Z</time>
      </trkpt>
      <trkpt lat="45.5103" lon="6.1534">
        <ele>516.59997558594</ele>
        <time>2021-12-31T11:20:08.000Z</time>
      </trkpt>
      <trkpt lat="45.51028" lon="6.15332">
        <ele>517.40002441406</ele>
        <time>2021-12-31T11:20:11.000Z</time>
      </trkpt>
      <trkpt lat="45.51027" lon="6.15327">
        <ele>517.79998779297</ele>
        <time>2021-12-31T11:20:13.000Z</time>
      </trkpt>
      <trkpt lat="45.51026" lon="6.15316">
        <ele>518.59997558594</ele>
        <time>2021-12-31T11:20:17.000Z</time>
      </trkpt>
      <trkpt lat="45.51025" lon="6.15307">
        <ele>519</ele>
        <time>2021-12-31T11:20:20.000Z</time>
      </trkpt>
      <trkpt lat="45.51024" lon="6.15295">
        <ele>520</ele>
        <time>2021-12-31T11:20:24.000Z</time>
      </trkpt>
      <trkpt lat="45.51024" lon="6.15292">
        <ele>520.20001220703</ele>
        <time>2021-12-31T11:20:25.000Z</time>
      </trkpt>
      <trkpt lat="45.51025" lon="6.15276">
        <ele>521.20001220703</ele>
        <time>2021-12-31T11:20:30.000Z</time>
      </trkpt>
      <trkpt lat="45.51028" lon="6.15261">
        <ele>522.20001220703</ele>
        <time>2021-12-31T11:20:35.000Z</time>
      </trkpt>
      <trkpt lat="45.51029" lon="6.15257">
        <ele>522.20001220703</ele>
        <time>2021-12-31T11:20:36.000Z</time>
      </trkpt>
      <trkpt lat="45.5103" lon="6.15242">
        <ele>523.40002441406</ele>
        <time>2021-12-31T11:20:41.000Z</time>
      </trkpt>
      <trkpt lat="45.51031" lon="6.15235">
        <ele>524</ele>
        <time>2021-12-31T11:20:43.000Z</time>
      </trkpt>
      <trkpt lat="45.51031" lon="6.15227">
        <ele>524.40002441406</ele>
        <time>2021-12-31T11:20:46.000Z</time>
      </trkpt>
      <trkpt lat="45.51031" lon="6.15213">
        <ele>525.40002441406</ele>
        <time>2021-12-31T11:20:51.000Z</time>
      </trkpt>
      <trkpt lat="45.51031" lon="6.15211">
        <ele>525.59997558594</ele>
        <time>2021-12-31T11:20:52.000Z</time>
      </trkpt>
      <trkpt lat="45.51029" lon="6.152">
        <ele>526.59997558594</ele>
        <time>2021-12-31T11:20:56.000Z</time>
      </trkpt>
      <trkpt lat="45.51028" lon="6.15197">
        <ele>527</ele>
        <time>2021-12-31T11:20:57.000Z</time>
      </trkpt>
      <trkpt lat="45.51022" lon="6.1518">
        <ele>528</ele>
        <time>2021-12-31T11:21:03.000Z</time>
      </trkpt>
      <trkpt lat="45.5102" lon="6.15174">
        <ele>528.40002441406</ele>
        <time>2021-12-31T11:21:05.000Z</time>
      </trkpt>
      <trkpt lat="45.51018" lon="6.15166">
        <ele>529.20001220703</ele>
        <time>2021-12-31T11:21:08.000Z</time>
      </trkpt>
      <trkpt lat="45.51015" lon="6.15161">
        <ele>529.59997558594</ele>
        <time>2021-12-31T11:21:10.000Z</time>
      </trkpt>
      <trkpt lat="45.51011" lon="6.15157">
        <ele>530.20001220703</ele>
        <time>2021-12-31T11:21:12.000Z</time>
      </trkpt>
      <trkpt lat="45.51002" lon="6.15143">
        <ele>531</ele>
        <time>2021-12-31T11:21:17.000Z</time>
      </trkpt>
      <trkpt lat="45.51" lon="6.15142">
        <ele>531.20001220703</ele>
        <time>2021-12-31T11:21:18.000Z</time>
      </trkpt>
      <trkpt lat="45.50999" lon="6.15139">
        <ele>531.20001220703</ele>
        <time>2021-12-31T11:21:19.000Z</time>
      </trkpt>
      <trkpt lat="45.50983" lon="6.15102">
        <ele>531.79998779297</ele>
        <time>2021-12-31T11:21:28.000Z</time>
      </trkpt>
      <trkpt lat="45.50971" lon="6.15069">
        <ele>532.20001220703</ele>
        <time>2021-12-31T11:21:36.000Z</time>
      </trkpt>
      <trkpt lat="45.5097" lon="6.15066">
        <ele>532.20001220703</ele>
        <time>2021-12-31T11:21:37.000Z</time>
      </trkpt>
      <trkpt lat="45.50964" lon="6.15049">
        <ele>532.40002441406</ele>
        <time>2021-12-31T11:21:42.000Z</time>
      </trkpt>
      <trkpt lat="45.50963" lon="6.15045">
        <ele>532.59997558594</ele>
        <time>2021-12-31T11:21:43.000Z</time>
      </trkpt>
      <trkpt lat="45.50958" lon="6.15022">
        <ele>533.20001220703</ele>
        <time>2021-12-31T11:21:49.000Z</time>
      </trkpt>
      <trkpt lat="45.50958" lon="6.15019">
        <ele>533.40002441406</ele>
        <time>2021-12-31T11:21:50.000Z</time>
      </trkpt>
      <trkpt lat="45.50961" lon="6.15006">
        <ele>534.40002441406</ele>
        <time>2021-12-31T11:21:54.000Z</time>
      </trkpt>
      <trkpt lat="45.50963" lon="6.15002">
        <ele>534.40002441406</ele>
        <time>2021-12-31T11:21:55.000Z</time>
      </trkpt>
      <trkpt lat="45.50974" lon="6.1499">
        <ele>535.40002441406</ele>
        <time>2021-12-31T11:22:00.000Z</time>
      </trkpt>
      <trkpt lat="45.50978" lon="6.14985">
        <ele>535.79998779297</ele>
        <time>2021-12-31T11:22:02.000Z</time>
      </trkpt>
      <trkpt lat="45.50981" lon="6.1498">
        <ele>536.40002441406</ele>
        <time>2021-12-31T11:22:04.000Z</time>
      </trkpt>
      <trkpt lat="45.50988" lon="6.14972">
        <ele>537.59997558594</ele>
        <time>2021-12-31T11:22:08.000Z</time>
      </trkpt>
      <trkpt lat="45.50992" lon="6.14968">
        <ele>538</ele>
        <time>2021-12-31T11:22:10.000Z</time>
      </trkpt>
      <trkpt lat="45.50998" lon="6.14962">
        <ele>538.79998779297</ele>
        <time>2021-12-31T11:22:13.000Z</time>
      </trkpt>
      <trkpt lat="45.51004" lon="6.14958">
        <ele>540</ele>
        <time>2021-12-31T11:22:16.000Z</time>
      </trkpt>
      <trkpt lat="45.51012" lon="6.14954">
        <ele>541</ele>
        <time>2021-12-31T11:22:20.000Z</time>
      </trkpt>
      <trkpt lat="45.51019" lon="6.14952">
        <ele>542.20001220703</ele>
        <time>2021-12-31T11:22:23.000Z</time>
      </trkpt>
      <trkpt lat="45.51021" lon="6.14952">
        <ele>542.20001220703</ele>
        <time>2021-12-31T11:22:24.000Z</time>
      </trkpt>
      <trkpt lat="45.5103" lon="6.14952">
        <ele>543.40002441406</ele>
        <time>2021-12-31T11:22:28.000Z</time>
      </trkpt>
      <trkpt lat="45.51039" lon="6.14955">
        <ele>544.59997558594</ele>
        <time>2021-12-31T11:22:32.000Z</time>
      </trkpt>
      <trkpt lat="45.51041" lon="6.14956">
        <ele>544.79998779297</ele>
        <time>2021-12-31T11:22:33.000Z</time>
      </trkpt>
      <trkpt lat="45.51049" lon="6.14959">
        <ele>545.79998779297</ele>
        <time>2021-12-31T11:22:37.000Z</time>
      </trkpt>
      <trkpt lat="45.51053" lon="6.14961">
        <ele>546.20001220703</ele>
        <time>2021-12-31T11:22:39.000Z</time>
      </trkpt>
      <trkpt lat="45.51057" lon="6.14964">
        <ele>546.79998779297</ele>
        <time>2021-12-31T11:22:41.000Z</time>
      </trkpt>
      <trkpt lat="45.51062" lon="6.14967">
        <ele>547.79998779297</ele>
        <time>2021-12-31T11:22:44.000Z</time>
      </trkpt>
      <trkpt lat="45.51068" lon="6.14969">
        <ele>548.59997558594</ele>
        <time>2021-12-31T11:22:47.000Z</time>
      </trkpt>
      <trkpt lat="45.51072" lon="6.14972">
        <ele>549</ele>
        <time>2021-12-31T11:22:49.000Z</time>
      </trkpt>
      <trkpt lat="45.51081" lon="6.1498">
        <ele>550</ele>
        <time>2021-12-31T11:22:54.000Z</time>
      </trkpt>
      <trkpt lat="45.51082" lon="6.14982">
        <ele>550.20001220703</ele>
        <time>2021-12-31T11:22:55.000Z</time>
      </trkpt>
      <trkpt lat="45.51091" lon="6.14991">
        <ele>551.20001220703</ele>
        <time>2021-12-31T11:23:00.000Z</time>
      </trkpt>
      <trkpt lat="45.51096" lon="6.14996">
        <ele>551.59997558594</ele>
        <time>2021-12-31T11:23:03.000Z</time>
      </trkpt>
      <trkpt lat="45.51099" lon="6.15">
        <ele>552.20001220703</ele>
        <time>2021-12-31T11:23:05.000Z</time>
      </trkpt>
      <trkpt lat="45.51104" lon="6.15005">
        <ele>552.79998779297</ele>
        <time>2021-12-31T11:23:08.000Z</time>
      </trkpt>
      <trkpt lat="45.51107" lon="6.15009">
        <ele>553.40002441406</ele>
        <time>2021-12-31T11:23:10.000Z</time>
      </trkpt>
      <trkpt lat="45.51114" lon="6.15015">
        <ele>554.59997558594</ele>
        <time>2021-12-31T11:23:14.000Z</time>
      </trkpt>
      <trkpt lat="45.51117" lon="6.15019">
        <ele>554.79998779297</ele>
        <time>2021-12-31T11:23:16.000Z</time>
      </trkpt>
      <trkpt lat="45.51123" lon="6.15022">
        <ele>555.79998779297</ele>
        <time>2021-12-31T11:23:19.000Z</time>
      </trkpt>
      <trkpt lat="45.51129" lon="6.15025">
        <ele>556.59997558594</ele>
        <time>2021-12-31T11:23:23.000Z</time>
      </trkpt>
      <trkpt lat="45.51132" lon="6.15026">
        <ele>557</ele>
        <time>2021-12-31T11:23:24.000Z</time>
      </trkpt>
      <trkpt lat="45.51139" lon="6.15028">
        <ele>558</ele>
        <time>2021-12-31T11:23:28.000Z</time>
      </trkpt>
      <trkpt lat="45.51148" lon="6.1503">
        <ele>558.59997558594</ele>
        <time>2021-12-31T11:23:32.000Z</time>
      </trkpt>
      <trkpt lat="45.51152" lon="6.15031">
        <ele>559</ele>
        <time>2021-12-31T11:23:34.000Z</time>
      </trkpt>
      <trkpt lat="45.51169" lon="6.15033">
        <ele>560.20001220703</ele>
        <time>2021-12-31T11:23:41.000Z</time>
      </trkpt>
      <trkpt lat="45.51179" lon="6.15033">
        <ele>561.59997558594</ele>
        <time>2021-12-31T11:23:46.000Z</time>
      </trkpt>
      <trkpt lat="45.51183" lon="6.15033">
        <ele>562</ele>
        <time>2021-12-31T11:23:48.000Z</time>
      </trkpt>
      <trkpt lat="45.5119" lon="6.15034">
        <ele>562.59997558594</ele>
        <time>2021-12-31T11:23:51.000Z</time>
      </trkpt>
      <trkpt lat="45.512" lon="6.15034">
        <ele>563.79998779297</ele>
        <time>2021-12-31T11:23:56.000Z</time>
      </trkpt>
      <trkpt lat="45.51205" lon="6.15033">
        <ele>564.20001220703</ele>
        <time>2021-12-31T11:23:58.000Z</time>
      </trkpt>
      <trkpt lat="45.51212" lon="6.15032">
        <ele>565</ele>
        <time>2021-12-31T11:24:01.000Z</time>
      </trkpt>
      <trkpt lat="45.51218" lon="6.15031">
        <ele>565.59997558594</ele>
        <time>2021-12-31T11:24:04.000Z</time>
      </trkpt>
      <trkpt lat="45.51222" lon="6.15029">
        <ele>566.20001220703</ele>
        <time>2021-12-31T11:24:06.000Z</time>
      </trkpt>
      <trkpt lat="45.5123" lon="6.15025">
        <ele>567.40002441406</ele>
        <time>2021-12-31T11:24:10.000Z</time>
      </trkpt>
      <trkpt lat="45.51241" lon="6.15017">
        <ele>568.40002441406</ele>
        <time>2021-12-31T11:24:15.000Z</time>
      </trkpt>
      <trkpt lat="45.51243" lon="6.15015">
        <ele>568.79998779297</ele>
        <time>2021-12-31T11:24:16.000Z</time>
      </trkpt>
      <trkpt lat="45.51248" lon="6.15005">
        <ele>569.59997558594</ele>
        <time>2021-12-31T11:24:19.000Z</time>
      </trkpt>
      <trkpt lat="45.51254" lon="6.14998">
        <ele>570.40002441406</ele>
        <time>2021-12-31T11:24:22.000Z</time>
      </trkpt>
      <trkpt lat="45.51256" lon="6.14995">
        <ele>570.79998779297</ele>
        <time>2021-12-31T11:24:23.000Z</time>
      </trkpt>
      <trkpt lat="45.51266" lon="6.14978">
        <ele>571.59997558594</ele>
        <time>2021-12-31T11:24:29.000Z</time>
      </trkpt>
      <trkpt lat="45.51268" lon="6.14975">
        <ele>572</ele>
        <time>2021-12-31T11:24:30.000Z</time>
      </trkpt>
      <trkpt lat="45.51281" lon="6.14954">
        <ele>572.59997558594</ele>
        <time>2021-12-31T11:24:38.000Z</time>
      </trkpt>
      <trkpt lat="45.51284" lon="6.14948">
        <ele>573</ele>
        <time>2021-12-31T11:24:40.000Z</time>
      </trkpt>
      <trkpt lat="45.51293" lon="6.14938">
        <ele>573.59997558594</ele>
        <time>2021-12-31T11:24:45.000Z</time>
      </trkpt>
      <trkpt lat="45.51305" lon="6.14939">
        <ele>573.79998779297</ele>
        <time>2021-12-31T11:24:50.000Z</time>
      </trkpt>
      <trkpt lat="45.51324" lon="6.14951">
        <ele>572.59997558594</ele>
        <time>2021-12-31T11:24:56.000Z</time>
      </trkpt>
      <trkpt lat="45.5133" lon="6.14955">
        <ele>571.79998779297</ele>
        <time>2021-12-31T11:24:58.000Z</time>
      </trkpt>
      <trkpt lat="45.51337" lon="6.14955">
        <ele>571.20001220703</ele>
        <time>2021-12-31T11:25:00.000Z</time>
      </trkpt>
      <trkpt lat="45.5134" lon="6.14954">
        <ele>570.59997558594</ele>
        <time>2021-12-31T11:25:01.000Z</time>
      </trkpt>
      <trkpt lat="45.51343" lon="6.14945">
        <ele>569.79998779297</ele>
        <time>2021-12-31T11:25:03.000Z</time>
      </trkpt>
      <trkpt lat="45.51343" lon="6.1494">
        <ele>569.40002441406</ele>
        <time>2021-12-31T11:25:04.000Z</time>
      </trkpt>
      <trkpt lat="45.5134" lon="6.14933">
        <ele>568.59997558594</ele>
        <time>2021-12-31T11:25:06.000Z</time>
      </trkpt>
      <trkpt lat="45.51339" lon="6.14929">
        <ele>568</ele>
        <time>2021-12-31T11:25:08.000Z</time>
      </trkpt>
      <trkpt lat="45.51339" lon="6.14929">
        <ele>567.20001220703</ele>
        <time>2021-12-31T11:25:10.000Z</time>
      </trkpt>
      <trkpt lat="45.51339" lon="6.14929">
        <ele>566.79998779297</ele>
        <time>2021-12-31T11:25:11.000Z</time>
      </trkpt>
      <trkpt lat="45.51339" lon="6.14929">
        <ele>565.79998779297</ele>
        <time>2021-12-31T11:25:19.000Z</time>
      </trkpt>
      <trkpt lat="45.51339" lon="6.14929">
        <ele>565.79998779297</ele>
        <time>2021-12-31T11:25:32.000Z</time>
      </trkpt>
      <trkpt lat="45.51339" lon="6.14929">
        <ele>566</ele>
        <time>2021-12-31T11:26:41.000Z</time>
      </trkpt>
      <trkpt lat="45.51339" lon="6.14929">
        <ele>566.20001220703</ele>
        <time>2021-12-31T11:26:55.000Z</time>
      </trkpt>
      <trkpt lat="45.51331" lon="6.14921">
        <ele>566.20001220703</ele>
        <time>2021-12-31T11:26:58.000Z</time>
      </trkpt>
      <trkpt lat="45.51314" lon="6.149">
        <ele>565.79998779297</ele>
        <time>2021-12-31T11:27:02.000Z</time>
      </trkpt>
      <trkpt lat="45.51292" lon="6.14875">
        <ele>564.40002441406</ele>
        <time>2021-12-31T11:27:06.000Z</time>
      </trkpt>
      <trkpt lat="45.51281" lon="6.14862">
        <ele>563</ele>
        <time>2021-12-31T11:27:08.000Z</time>
      </trkpt>
      <trkpt lat="45.5127" lon="6.14848">
        <ele>562</ele>
        <time>2021-12-31T11:27:10.000Z</time>
      </trkpt>
      <trkpt lat="45.51265" lon="6.14839">
        <ele>561.40002441406</ele>
        <time>2021-12-31T11:27:11.000Z</time>
      </trkpt>
      <trkpt lat="45.51263" lon="6.14833">
        <ele>560.79998779297</ele>
        <time>2021-12-31T11:27:12.000Z</time>
      </trkpt>
      <trkpt lat="45.5126" lon="6.14824">
        <ele>559.59997558594</ele>
        <time>2021-12-31T11:27:13.000Z</time>
      </trkpt>
      <trkpt lat="45.51258" lon="6.14802">
        <ele>558.20001220703</ele>
        <time>2021-12-31T11:27:15.000Z</time>
      </trkpt>
      <trkpt lat="45.51257" lon="6.14794">
        <ele>557.79998779297</ele>
        <time>2021-12-31T11:27:16.000Z</time>
      </trkpt>
      <trkpt lat="45.51255" lon="6.14784">
        <ele>557</ele>
        <time>2021-12-31T11:27:17.000Z</time>
      </trkpt>
      <trkpt lat="45.51253" lon="6.14773">
        <ele>555.79998779297</ele>
        <time>2021-12-31T11:27:18.000Z</time>
      </trkpt>
      <trkpt lat="45.51248" lon="6.14751">
        <ele>554.59997558594</ele>
        <time>2021-12-31T11:27:20.000Z</time>
      </trkpt>
      <trkpt lat="45.51244" lon="6.14738">
        <ele>554.40002441406</ele>
        <time>2021-12-31T11:27:21.000Z</time>
      </trkpt>
      <trkpt lat="45.51241" lon="6.14729">
        <ele>553.59997558594</ele>
        <time>2021-12-31T11:27:22.000Z</time>
      </trkpt>
      <trkpt lat="45.51233" lon="6.14705">
        <ele>552.20001220703</ele>
        <time>2021-12-31T11:27:24.000Z</time>
      </trkpt>
      <trkpt lat="45.5123" lon="6.14697">
        <ele>551</ele>
        <time>2021-12-31T11:27:25.000Z</time>
      </trkpt>
      <trkpt lat="45.51221" lon="6.14678">
        <ele>549.20001220703</ele>
        <time>2021-12-31T11:27:27.000Z</time>
      </trkpt>
      <trkpt lat="45.51218" lon="6.14669">
        <ele>548.20001220703</ele>
        <time>2021-12-31T11:27:28.000Z</time>
      </trkpt>
      <trkpt lat="45.5121" lon="6.14651">
        <ele>546.59997558594</ele>
        <time>2021-12-31T11:27:30.000Z</time>
      </trkpt>
      <trkpt lat="45.51208" lon="6.14646">
        <ele>546</ele>
        <time>2021-12-31T11:27:31.000Z</time>
      </trkpt>
      <trkpt lat="45.51203" lon="6.14639">
        <ele>545</ele>
        <time>2021-12-31T11:27:32.000Z</time>
      </trkpt>
      <trkpt lat="45.51195" lon="6.14625">
        <ele>543.40002441406</ele>
        <time>2021-12-31T11:27:34.000Z</time>
      </trkpt>
      <trkpt lat="45.5119" lon="6.14619">
        <ele>542</ele>
        <time>2021-12-31T11:27:35.000Z</time>
      </trkpt>
      <trkpt lat="45.51187" lon="6.14615">
        <ele>541.40002441406</ele>
        <time>2021-12-31T11:27:36.000Z</time>
      </trkpt>
      <trkpt lat="45.51184" lon="6.14611">
        <ele>540.40002441406</ele>
        <time>2021-12-31T11:27:37.000Z</time>
      </trkpt>
      <trkpt lat="45.51181" lon="6.14604">
        <ele>540</ele>
        <time>2021-12-31T11:27:38.000Z</time>
      </trkpt>
      <trkpt lat="45.5118" lon="6.14599">
        <ele>539.59997558594</ele>
        <time>2021-12-31T11:27:39.000Z</time>
      </trkpt>
      <trkpt lat="45.5118" lon="6.14595">
        <ele>538.79998779297</ele>
        <time>2021-12-31T11:27:40.000Z</time>
      </trkpt>
      <trkpt lat="45.51182" lon="6.14592">
        <ele>538.40002441406</ele>
        <time>2021-12-31T11:27:41.000Z</time>
      </trkpt>
      <trkpt lat="45.51184" lon="6.14593">
        <ele>537.20001220703</ele>
        <time>2021-12-31T11:27:42.000Z</time>
      </trkpt>
      <trkpt lat="45.51187" lon="6.14596">
        <ele>536.79998779297</ele>
        <time>2021-12-31T11:27:43.000Z</time>
      </trkpt>
      <trkpt lat="45.5119" lon="6.14599">
        <ele>536</ele>
        <time>2021-12-31T11:27:44.000Z</time>
      </trkpt>
      <trkpt lat="45.51198" lon="6.14609">
        <ele>534.79998779297</ele>
        <time>2021-12-31T11:27:46.000Z</time>
      </trkpt>
      <trkpt lat="45.51203" lon="6.14617">
        <ele>534</ele>
        <time>2021-12-31T11:27:47.000Z</time>
      </trkpt>
      <trkpt lat="45.51209" lon="6.14626">
        <ele>533.59997558594</ele>
        <time>2021-12-31T11:27:48.000Z</time>
      </trkpt>
      <trkpt lat="45.51224" lon="6.14642">
        <ele>532.20001220703</ele>
        <time>2021-12-31T11:27:51.000Z</time>
      </trkpt>
      <trkpt lat="45.51232" lon="6.14651">
        <ele>531</ele>
        <time>2021-12-31T11:27:53.000Z</time>
      </trkpt>
      <trkpt lat="45.51236" lon="6.14654">
        <ele>530.20001220703</ele>
        <time>2021-12-31T11:27:54.000Z</time>
      </trkpt>
      <trkpt lat="45.5124" lon="6.14654">
        <ele>529.79998779297</ele>
        <time>2021-12-31T11:27:55.000Z</time>
      </trkpt>
      <trkpt lat="45.51243" lon="6.14653">
        <ele>529</ele>
        <time>2021-12-31T11:27:56.000Z</time>
      </trkpt>
      <trkpt lat="45.51245" lon="6.1465">
        <ele>528.20001220703</ele>
        <time>2021-12-31T11:27:57.000Z</time>
      </trkpt>
      <trkpt lat="45.51246" lon="6.14645">
        <ele>527.79998779297</ele>
        <time>2021-12-31T11:27:58.000Z</time>
      </trkpt>
      <trkpt lat="45.51244" lon="6.14639">
        <ele>527.20001220703</ele>
        <time>2021-12-31T11:27:59.000Z</time>
      </trkpt>
      <trkpt lat="45.51239" lon="6.14632">
        <ele>526.79998779297</ele>
        <time>2021-12-31T11:28:01.000Z</time>
      </trkpt>
      <trkpt lat="45.51231" lon="6.14624">
        <ele>526.20001220703</ele>
        <time>2021-12-31T11:28:03.000Z</time>
      </trkpt>
      <trkpt lat="45.51218" lon="6.14604">
        <ele>525.59997558594</ele>
        <time>2021-12-31T11:28:07.000Z</time>
      </trkpt>
      <trkpt lat="45.51214" lon="6.14591">
        <ele>525.40002441406</ele>
        <time>2021-12-31T11:28:09.000Z</time>
      </trkpt>
      <trkpt lat="45.51214" lon="6.14584">
        <ele>525.40002441406</ele>
        <time>2021-12-31T11:28:10.000Z</time>
      </trkpt>
      <trkpt lat="45.51214" lon="6.14575">
        <ele>525</ele>
        <time>2021-12-31T11:28:11.000Z</time>
      </trkpt>
      <trkpt lat="45.51214" lon="6.14555">
        <ele>524.20001220703</ele>
        <time>2021-12-31T11:28:13.000Z</time>
      </trkpt>
      <trkpt lat="45.51213" lon="6.14549">
        <ele>523.79998779297</ele>
        <time>2021-12-31T11:28:14.000Z</time>
      </trkpt>
      <trkpt lat="45.51211" lon="6.14544">
        <ele>523.40002441406</ele>
        <time>2021-12-31T11:28:15.000Z</time>
      </trkpt>
      <trkpt lat="45.51207" lon="6.14539">
        <ele>522.40002441406</ele>
        <time>2021-12-31T11:28:16.000Z</time>
      </trkpt>
      <trkpt lat="45.51201" lon="6.14539">
        <ele>521.79998779297</ele>
        <time>2021-12-31T11:28:17.000Z</time>
      </trkpt>
      <trkpt lat="45.51193" lon="6.1454">
        <ele>521</ele>
        <time>2021-12-31T11:28:18.000Z</time>
      </trkpt>
      <trkpt lat="45.51182" lon="6.14537">
        <ele>519.40002441406</ele>
        <time>2021-12-31T11:28:20.000Z</time>
      </trkpt>
      <trkpt lat="45.5117" lon="6.14525">
        <ele>518</ele>
        <time>2021-12-31T11:28:22.000Z</time>
      </trkpt>
      <trkpt lat="45.51167" lon="6.14515">
        <ele>517.40002441406</ele>
        <time>2021-12-31T11:28:23.000Z</time>
      </trkpt>
      <trkpt lat="45.51161" lon="6.14502">
        <ele>517</ele>
        <time>2021-12-31T11:28:24.000Z</time>
      </trkpt>
      <trkpt lat="45.51151" lon="6.14476">
        <ele>514.79998779297</ele>
        <time>2021-12-31T11:28:26.000Z</time>
      </trkpt>
      <trkpt lat="45.51147" lon="6.14462">
        <ele>514.40002441406</ele>
        <time>2021-12-31T11:28:27.000Z</time>
      </trkpt>
      <trkpt lat="45.51143" lon="6.14449">
        <ele>513.59997558594</ele>
        <time>2021-12-31T11:28:28.000Z</time>
      </trkpt>
      <trkpt lat="45.51135" lon="6.14424">
        <ele>512.59997558594</ele>
        <time>2021-12-31T11:28:30.000Z</time>
      </trkpt>
      <trkpt lat="45.5113" lon="6.1441">
        <ele>511.60000610352</ele>
        <time>2021-12-31T11:28:31.000Z</time>
      </trkpt>
      <trkpt lat="45.51124" lon="6.14398">
        <ele>511.20001220703</ele>
        <time>2021-12-31T11:28:32.000Z</time>
      </trkpt>
      <trkpt lat="45.51117" lon="6.14385">
        <ele>510</ele>
        <time>2021-12-31T11:28:33.000Z</time>
      </trkpt>
      <trkpt lat="45.51109" lon="6.14362">
        <ele>508.60000610352</ele>
        <time>2021-12-31T11:28:35.000Z</time>
      </trkpt>
      <trkpt lat="45.511" lon="6.14345">
        <ele>508.39999389648</ele>
        <time>2021-12-31T11:28:36.000Z</time>
      </trkpt>
      <trkpt lat="45.51094" lon="6.14334">
        <ele>507.39999389648</ele>
        <time>2021-12-31T11:28:37.000Z</time>
      </trkpt>
      <trkpt lat="45.5109" lon="6.14323">
        <ele>506.60000610352</ele>
        <time>2021-12-31T11:28:38.000Z</time>
      </trkpt>
      <trkpt lat="45.51086" lon="6.14312">
        <ele>506.20001220703</ele>
        <time>2021-12-31T11:28:39.000Z</time>
      </trkpt>
      <trkpt lat="45.51078" lon="6.14282">
        <ele>504.60000610352</ele>
        <time>2021-12-31T11:28:42.000Z</time>
      </trkpt>
      <trkpt lat="45.51078" lon="6.14265">
        <ele>504</ele>
        <time>2021-12-31T11:28:44.000Z</time>
      </trkpt>
      <trkpt lat="45.5108" lon="6.14256">
        <ele>503.60000610352</ele>
        <time>2021-12-31T11:28:45.000Z</time>
      </trkpt>
      <trkpt lat="45.51087" lon="6.14242">
        <ele>502.79998779297</ele>
        <time>2021-12-31T11:28:47.000Z</time>
      </trkpt>
      <trkpt lat="45.51091" lon="6.14239">
        <ele>502.20001220703</ele>
        <time>2021-12-31T11:28:48.000Z</time>
      </trkpt>
      <trkpt lat="45.51094" lon="6.14239">
        <ele>502</ele>
        <time>2021-12-31T11:28:49.000Z</time>
      </trkpt>
      <trkpt lat="45.511" lon="6.14243">
        <ele>501.20001220703</ele>
        <time>2021-12-31T11:28:50.000Z</time>
      </trkpt>
      <trkpt lat="45.51106" lon="6.14249">
        <ele>500.79998779297</ele>
        <time>2021-12-31T11:28:51.000Z</time>
      </trkpt>
      <trkpt lat="45.51116" lon="6.14266">
        <ele>499.79998779297</ele>
        <time>2021-12-31T11:28:53.000Z</time>
      </trkpt>
      <trkpt lat="45.51121" lon="6.14273">
        <ele>499.20001220703</ele>
        <time>2021-12-31T11:28:54.000Z</time>
      </trkpt>
      <trkpt lat="45.51134" lon="6.14291">
        <ele>498.60000610352</ele>
        <time>2021-12-31T11:28:56.000Z</time>
      </trkpt>
      <trkpt lat="45.51139" lon="6.14299">
        <ele>498</ele>
        <time>2021-12-31T11:28:57.000Z</time>
      </trkpt>
      <trkpt lat="45.51155" lon="6.14323">
        <ele>496.60000610352</ele>
        <time>2021-12-31T11:29:00.000Z</time>
      </trkpt>
      <trkpt lat="45.51175" lon="6.14347">
        <ele>495.39999389648</ele>
        <time>2021-12-31T11:29:03.000Z</time>
      </trkpt>
      <trkpt lat="45.51195" lon="6.14371">
        <ele>494.39999389648</ele>
        <time>2021-12-31T11:29:06.000Z</time>
      </trkpt>
      <trkpt lat="45.51202" lon="6.14377">
        <ele>493.60000610352</ele>
        <time>2021-12-31T11:29:07.000Z</time>
      </trkpt>
      <trkpt lat="45.51215" lon="6.14388">
        <ele>492.60000610352</ele>
        <time>2021-12-31T11:29:09.000Z</time>
      </trkpt>
      <trkpt lat="45.51229" lon="6.14391">
        <ele>491.60000610352</ele>
        <time>2021-12-31T11:29:11.000Z</time>
      </trkpt>
      <trkpt lat="45.51237" lon="6.14389">
        <ele>490.79998779297</ele>
        <time>2021-12-31T11:29:12.000Z</time>
      </trkpt>
      <trkpt lat="45.51242" lon="6.14386">
        <ele>490.39999389648</ele>
        <time>2021-12-31T11:29:13.000Z</time>
      </trkpt>
      <trkpt lat="45.51248" lon="6.1438">
        <ele>489.79998779297</ele>
        <time>2021-12-31T11:29:14.000Z</time>
      </trkpt>
      <trkpt lat="45.51254" lon="6.14369">
        <ele>489.39999389648</ele>
        <time>2021-12-31T11:29:15.000Z</time>
      </trkpt>
      <trkpt lat="45.51259" lon="6.14358">
        <ele>488.60000610352</ele>
        <time>2021-12-31T11:29:16.000Z</time>
      </trkpt>
      <trkpt lat="45.51267" lon="6.14334">
        <ele>487.20001220703</ele>
        <time>2021-12-31T11:29:18.000Z</time>
      </trkpt>
      <trkpt lat="45.51271" lon="6.14324">
        <ele>486.60000610352</ele>
        <time>2021-12-31T11:29:19.000Z</time>
      </trkpt>
      <trkpt lat="45.51276" lon="6.14312">
        <ele>486.20001220703</ele>
        <time>2021-12-31T11:29:20.000Z</time>
      </trkpt>
      <trkpt lat="45.51287" lon="6.14286">
        <ele>484.79998779297</ele>
        <time>2021-12-31T11:29:22.000Z</time>
      </trkpt>
      <trkpt lat="45.51297" lon="6.14267">
        <ele>483.79998779297</ele>
        <time>2021-12-31T11:29:24.000Z</time>
      </trkpt>
      <trkpt lat="45.51303" lon="6.14256">
        <ele>483.20001220703</ele>
        <time>2021-12-31T11:29:25.000Z</time>
      </trkpt>
      <trkpt lat="45.51308" lon="6.14246">
        <ele>482</ele>
        <time>2021-12-31T11:29:26.000Z</time>
      </trkpt>
      <trkpt lat="45.51313" lon="6.14236">
        <ele>481.39999389648</ele>
        <time>2021-12-31T11:29:27.000Z</time>
      </trkpt>
      <trkpt lat="45.51318" lon="6.14229">
        <ele>480.79998779297</ele>
        <time>2021-12-31T11:29:28.000Z</time>
      </trkpt>
      <trkpt lat="45.51322" lon="6.14222">
        <ele>479.60000610352</ele>
        <time>2021-12-31T11:29:29.000Z</time>
      </trkpt>
      <trkpt lat="45.51327" lon="6.14216">
        <ele>478.79998779297</ele>
        <time>2021-12-31T11:29:30.000Z</time>
      </trkpt>
      <trkpt lat="45.51331" lon="6.1421">
        <ele>477.79998779297</ele>
        <time>2021-12-31T11:29:31.000Z</time>
      </trkpt>
      <trkpt lat="45.51335" lon="6.14195">
        <ele>475.79998779297</ele>
        <time>2021-12-31T11:29:33.000Z</time>
      </trkpt>
      <trkpt lat="45.51335" lon="6.14188">
        <ele>474.79998779297</ele>
        <time>2021-12-31T11:29:34.000Z</time>
      </trkpt>
      <trkpt lat="45.51331" lon="6.14179">
        <ele>474.20001220703</ele>
        <time>2021-12-31T11:29:35.000Z</time>
      </trkpt>
      <trkpt lat="45.51325" lon="6.14172">
        <ele>473.20001220703</ele>
        <time>2021-12-31T11:29:36.000Z</time>
      </trkpt>
      <trkpt lat="45.51318" lon="6.14167">
        <ele>472.60000610352</ele>
        <time>2021-12-31T11:29:37.000Z</time>
      </trkpt>
      <trkpt lat="45.51311" lon="6.14167">
        <ele>471.60000610352</ele>
        <time>2021-12-31T11:29:38.000Z</time>
      </trkpt>
      <trkpt lat="45.51302" lon="6.14169">
        <ele>470.79998779297</ele>
        <time>2021-12-31T11:29:39.000Z</time>
      </trkpt>
      <trkpt lat="45.51285" lon="6.14174">
        <ele>470.20001220703</ele>
        <time>2021-12-31T11:29:41.000Z</time>
      </trkpt>
      <trkpt lat="45.51277" lon="6.14169">
        <ele>469.79998779297</ele>
        <time>2021-12-31T11:29:42.000Z</time>
      </trkpt>
      <trkpt lat="45.51262" lon="6.14153">
        <ele>468.79998779297</ele>
        <time>2021-12-31T11:29:44.000Z</time>
      </trkpt>
      <trkpt lat="45.51255" lon="6.14142">
        <ele>468.20001220703</ele>
        <time>2021-12-31T11:29:45.000Z</time>
      </trkpt>
      <trkpt lat="45.51249" lon="6.1413">
        <ele>467.39999389648</ele>
        <time>2021-12-31T11:29:46.000Z</time>
      </trkpt>
      <trkpt lat="45.51241" lon="6.14102">
        <ele>466</ele>
        <time>2021-12-31T11:29:48.000Z</time>
      </trkpt>
      <trkpt lat="45.51238" lon="6.14087">
        <ele>465</ele>
        <time>2021-12-31T11:29:49.000Z</time>
      </trkpt>
      <trkpt lat="45.51231" lon="6.14059">
        <ele>463.39999389648</ele>
        <time>2021-12-31T11:29:51.000Z</time>
      </trkpt>
      <trkpt lat="45.51227" lon="6.14047">
        <ele>462.39999389648</ele>
        <time>2021-12-31T11:29:52.000Z</time>
      </trkpt>
      <trkpt lat="45.51223" lon="6.14035">
        <ele>461.39999389648</ele>
        <time>2021-12-31T11:29:53.000Z</time>
      </trkpt>
      <trkpt lat="45.51213" lon="6.14012">
        <ele>459.79998779297</ele>
        <time>2021-12-31T11:29:55.000Z</time>
      </trkpt>
      <trkpt lat="45.51208" lon="6.14001">
        <ele>458.60000610352</ele>
        <time>2021-12-31T11:29:56.000Z</time>
      </trkpt>
      <trkpt lat="45.51202" lon="6.13993">
        <ele>457.79998779297</ele>
        <time>2021-12-31T11:29:57.000Z</time>
      </trkpt>
      <trkpt lat="45.51197" lon="6.13985">
        <ele>456.79998779297</ele>
        <time>2021-12-31T11:29:58.000Z</time>
      </trkpt>
      <trkpt lat="45.51189" lon="6.1397">
        <ele>455.20001220703</ele>
        <time>2021-12-31T11:30:00.000Z</time>
      </trkpt>
      <trkpt lat="45.51187" lon="6.1396">
        <ele>454.39999389648</ele>
        <time>2021-12-31T11:30:01.000Z</time>
      </trkpt>
      <trkpt lat="45.51188" lon="6.1395">
        <ele>453.79998779297</ele>
        <time>2021-12-31T11:30:02.000Z</time>
      </trkpt>
      <trkpt lat="45.51191" lon="6.13942">
        <ele>452.79998779297</ele>
        <time>2021-12-31T11:30:03.000Z</time>
      </trkpt>
      <trkpt lat="45.512" lon="6.1393">
        <ele>451.39999389648</ele>
        <time>2021-12-31T11:30:05.000Z</time>
      </trkpt>
      <trkpt lat="45.51204" lon="6.13931">
        <ele>450.79998779297</ele>
        <time>2021-12-31T11:30:06.000Z</time>
      </trkpt>
      <trkpt lat="45.51208" lon="6.13933">
        <ele>450.20001220703</ele>
        <time>2021-12-31T11:30:07.000Z</time>
      </trkpt>
      <trkpt lat="45.5121" lon="6.13938">
        <ele>449.20001220703</ele>
        <time>2021-12-31T11:30:08.000Z</time>
      </trkpt>
      <trkpt lat="45.51211" lon="6.13945">
        <ele>449</ele>
        <time>2021-12-31T11:30:09.000Z</time>
      </trkpt>
      <trkpt lat="45.51213" lon="6.13955">
        <ele>448.39999389648</ele>
        <time>2021-12-31T11:30:10.000Z</time>
      </trkpt>
      <trkpt lat="45.51214" lon="6.13964">
        <ele>448</ele>
        <time>2021-12-31T11:30:11.000Z</time>
      </trkpt>
      <trkpt lat="45.51217" lon="6.13977">
        <ele>447.60000610352</ele>
        <time>2021-12-31T11:30:12.000Z</time>
      </trkpt>
      <trkpt lat="45.51222" lon="6.13986">
        <ele>447</ele>
        <time>2021-12-31T11:30:13.000Z</time>
      </trkpt>
      <trkpt lat="45.51226" lon="6.13994">
        <ele>446.60000610352</ele>
        <time>2021-12-31T11:30:14.000Z</time>
      </trkpt>
      <trkpt lat="45.51228" lon="6.14001">
        <ele>445.79998779297</ele>
        <time>2021-12-31T11:30:15.000Z</time>
      </trkpt>
      <trkpt lat="45.51234" lon="6.14015">
        <ele>444.60000610352</ele>
        <time>2021-12-31T11:30:17.000Z</time>
      </trkpt>
      <trkpt lat="45.51241" lon="6.14027">
        <ele>444</ele>
        <time>2021-12-31T11:30:18.000Z</time>
      </trkpt>
      <trkpt lat="45.51253" lon="6.14047">
        <ele>443</ele>
        <time>2021-12-31T11:30:20.000Z</time>
      </trkpt>
      <trkpt lat="45.51261" lon="6.14057">
        <ele>442.60000610352</ele>
        <time>2021-12-31T11:30:21.000Z</time>
      </trkpt>
      <trkpt lat="45.51268" lon="6.14065">
        <ele>441.79998779297</ele>
        <time>2021-12-31T11:30:22.000Z</time>
      </trkpt>
      <trkpt lat="45.51275" lon="6.14071">
        <ele>440.79998779297</ele>
        <time>2021-12-31T11:30:23.000Z</time>
      </trkpt>
      <trkpt lat="45.51281" lon="6.14074">
        <ele>440.39999389648</ele>
        <time>2021-12-31T11:30:24.000Z</time>
      </trkpt>
      <trkpt lat="45.51288" lon="6.14074">
        <ele>440</ele>
        <time>2021-12-31T11:30:25.000Z</time>
      </trkpt>
      <trkpt lat="45.51294" lon="6.14074">
        <ele>439.79998779297</ele>
        <time>2021-12-31T11:30:26.000Z</time>
      </trkpt>
      <trkpt lat="45.51299" lon="6.14075">
        <ele>438.79998779297</ele>
        <time>2021-12-31T11:30:27.000Z</time>
      </trkpt>
      <trkpt lat="45.51305" lon="6.14077">
        <ele>438</ele>
        <time>2021-12-31T11:30:28.000Z</time>
      </trkpt>
      <trkpt lat="45.51312" lon="6.1408">
        <ele>437.79998779297</ele>
        <time>2021-12-31T11:30:29.000Z</time>
      </trkpt>
      <trkpt lat="45.51329" lon="6.14087">
        <ele>436.79998779297</ele>
        <time>2021-12-31T11:30:31.000Z</time>
      </trkpt>
      <trkpt lat="45.51339" lon="6.14093">
        <ele>436.20001220703</ele>
        <time>2021-12-31T11:30:32.000Z</time>
      </trkpt>
      <trkpt lat="45.51348" lon="6.14099">
        <ele>435.60000610352</ele>
        <time>2021-12-31T11:30:33.000Z</time>
      </trkpt>
      <trkpt lat="45.51357" lon="6.14106">
        <ele>434.39999389648</ele>
        <time>2021-12-31T11:30:34.000Z</time>
      </trkpt>
      <trkpt lat="45.51373" lon="6.14119">
        <ele>433.20001220703</ele>
        <time>2021-12-31T11:30:36.000Z</time>
      </trkpt>
      <trkpt lat="45.51379" lon="6.14124">
        <ele>432.20001220703</ele>
        <time>2021-12-31T11:30:37.000Z</time>
      </trkpt>
      <trkpt lat="45.51389" lon="6.1413">
        <ele>431.79998779297</ele>
        <time>2021-12-31T11:30:38.000Z</time>
      </trkpt>
      <trkpt lat="45.51397" lon="6.14133">
        <ele>430.79998779297</ele>
        <time>2021-12-31T11:30:39.000Z</time>
      </trkpt>
      <trkpt lat="45.51404" lon="6.14137">
        <ele>429.60000610352</ele>
        <time>2021-12-31T11:30:40.000Z</time>
      </trkpt>
      <trkpt lat="45.51412" lon="6.14141">
        <ele>429</ele>
        <time>2021-12-31T11:30:41.000Z</time>
      </trkpt>
      <trkpt lat="45.51418" lon="6.14144">
        <ele>427.79998779297</ele>
        <time>2021-12-31T11:30:42.000Z</time>
      </trkpt>
      <trkpt lat="45.51431" lon="6.14152">
        <ele>426.60000610352</ele>
        <time>2021-12-31T11:30:44.000Z</time>
      </trkpt>
      <trkpt lat="45.51439" lon="6.14158">
        <ele>425.60000610352</ele>
        <time>2021-12-31T11:30:45.000Z</time>
      </trkpt>
      <trkpt lat="45.51447" lon="6.14167">
        <ele>425.20001220703</ele>
        <time>2021-12-31T11:30:46.000Z</time>
      </trkpt>
      <trkpt lat="45.51455" lon="6.14174">
        <ele>424</ele>
        <time>2021-12-31T11:30:47.000Z</time>
      </trkpt>
      <trkpt lat="45.5146" lon="6.14181">
        <ele>423.39999389648</ele>
        <time>2021-12-31T11:30:48.000Z</time>
      </trkpt>
      <trkpt lat="45.51464" lon="6.14188">
        <ele>421.79998779297</ele>
        <time>2021-12-31T11:30:49.000Z</time>
      </trkpt>
      <trkpt lat="45.51467" lon="6.14193">
        <ele>420.79998779297</ele>
        <time>2021-12-31T11:30:50.000Z</time>
      </trkpt>
      <trkpt lat="45.51476" lon="6.14207">
        <ele>419.20001220703</ele>
        <time>2021-12-31T11:30:52.000Z</time>
      </trkpt>
      <trkpt lat="45.51483" lon="6.14209">
        <ele>417.79998779297</ele>
        <time>2021-12-31T11:30:54.000Z</time>
      </trkpt>
      <trkpt lat="45.51484" lon="6.14209">
        <ele>416</ele>
        <time>2021-12-31T11:30:57.000Z</time>
      </trkpt>
      <trkpt lat="45.51484" lon="6.14209">
        <ele>415.39999389648</ele>
        <time>2021-12-31T11:30:59.000Z</time>
      </trkpt>
      <trkpt lat="45.51488" lon="6.14207">
        <ele>415</ele>
        <time>2021-12-31T11:31:02.000Z</time>
      </trkpt>
      <trkpt lat="45.51491" lon="6.14198">
        <ele>415</ele>
        <time>2021-12-31T11:31:04.000Z</time>
      </trkpt>
      <trkpt lat="45.51489" lon="6.1419">
        <ele>414.79998779297</ele>
        <time>2021-12-31T11:31:06.000Z</time>
      </trkpt>
      <trkpt lat="45.51485" lon="6.14185">
        <ele>414.60000610352</ele>
        <time>2021-12-31T11:31:07.000Z</time>
      </trkpt>
      <trkpt lat="45.51482" lon="6.14181">
        <ele>414.79998779297</ele>
        <time>2021-12-31T11:31:08.000Z</time>
      </trkpt>
      <trkpt lat="45.51472" lon="6.14165">
        <ele>414.60000610352</ele>
        <time>2021-12-31T11:31:11.000Z</time>
      </trkpt>
      <trkpt lat="45.51468" lon="6.14158">
        <ele>414.39999389648</ele>
        <time>2021-12-31T11:31:12.000Z</time>
      </trkpt>
      <trkpt lat="45.51465" lon="6.14151">
        <ele>414.39999389648</ele>
        <time>2021-12-31T11:31:13.000Z</time>
      </trkpt>
      <trkpt lat="45.51451" lon="6.14121">
        <ele>413.60000610352</ele>
        <time>2021-12-31T11:31:17.000Z</time>
      </trkpt>
      <trkpt lat="45.51418" lon="6.14055">
        <ele>412.39999389648</ele>
        <time>2021-12-31T11:31:26.000Z</time>
      </trkpt>
      <trkpt lat="45.51415" lon="6.14048">
        <ele>412.20001220703</ele>
        <time>2021-12-31T11:31:27.000Z</time>
      </trkpt>
      <trkpt lat="45.5139" lon="6.13993">
        <ele>411.20001220703</ele>
        <time>2021-12-31T11:31:34.000Z</time>
      </trkpt>
      <trkpt lat="45.51374" lon="6.13946">
        <ele>410.60000610352</ele>
        <time>2021-12-31T11:31:40.000Z</time>
      </trkpt>
      <trkpt lat="45.51362" lon="6.13913">
        <ele>410.20001220703</ele>
        <time>2021-12-31T11:31:44.000Z</time>
      </trkpt>
      <trkpt lat="45.51351" lon="6.13889">
        <ele>409.60000610352</ele>
        <time>2021-12-31T11:31:47.000Z</time>
      </trkpt>
      <trkpt lat="45.51348" lon="6.13883">
        <ele>409</ele>
        <time>2021-12-31T11:31:48.000Z</time>
      </trkpt>
      <trkpt lat="45.51343" lon="6.13875">
        <ele>408.79998779297</ele>
        <time>2021-12-31T11:31:49.000Z</time>
      </trkpt>
      <trkpt lat="45.51333" lon="6.13861">
        <ele>407.39999389648</ele>
        <time>2021-12-31T11:31:51.000Z</time>
      </trkpt>
      <trkpt lat="45.51329" lon="6.13855">
        <ele>407</ele>
        <time>2021-12-31T11:31:52.000Z</time>
      </trkpt>
      <trkpt lat="45.51308" lon="6.13833">
        <ele>406</ele>
        <time>2021-12-31T11:31:55.000Z</time>
      </trkpt>
      <trkpt lat="45.51296" lon="6.13817">
        <ele>404.79998779297</ele>
        <time>2021-12-31T11:31:57.000Z</time>
      </trkpt>
      <trkpt lat="45.51277" lon="6.1379">
        <ele>403</ele>
        <time>2021-12-31T11:32:00.000Z</time>
      </trkpt>
      <trkpt lat="45.51266" lon="6.13771">
        <ele>401.79998779297</ele>
        <time>2021-12-31T11:32:02.000Z</time>
      </trkpt>
      <trkpt lat="45.51257" lon="6.13755">
        <ele>400.60000610352</ele>
        <time>2021-12-31T11:32:04.000Z</time>
      </trkpt>
      <trkpt lat="45.51254" lon="6.1375">
        <ele>399.60000610352</ele>
        <time>2021-12-31T11:32:05.000Z</time>
      </trkpt>
      <trkpt lat="45.51251" lon="6.13745">
        <ele>398.79998779297</ele>
        <time>2021-12-31T11:32:06.000Z</time>
      </trkpt>
      <trkpt lat="45.51243" lon="6.13731">
        <ele>397.60000610352</ele>
        <time>2021-12-31T11:32:08.000Z</time>
      </trkpt>
      <trkpt lat="45.51234" lon="6.13717">
        <ele>396.39999389648</ele>
        <time>2021-12-31T11:32:10.000Z</time>
      </trkpt>
      <trkpt lat="45.51229" lon="6.13713">
        <ele>395.79998779297</ele>
        <time>2021-12-31T11:32:11.000Z</time>
      </trkpt>
      <trkpt lat="45.51216" lon="6.137">
        <ele>395.20001220703</ele>
        <time>2021-12-31T11:32:13.000Z</time>
      </trkpt>
      <trkpt lat="45.51206" lon="6.13685">
        <ele>394.60000610352</ele>
        <time>2021-12-31T11:32:15.000Z</time>
      </trkpt>
      <trkpt lat="45.51198" lon="6.1367">
        <ele>394.20001220703</ele>
        <time>2021-12-31T11:32:17.000Z</time>
      </trkpt>
      <trkpt lat="45.51187" lon="6.13652">
        <ele>394</ele>
        <time>2021-12-31T11:32:20.000Z</time>
      </trkpt>
      <trkpt lat="45.51179" lon="6.13642">
        <ele>394</ele>
        <time>2021-12-31T11:32:22.000Z</time>
      </trkpt>
      <trkpt lat="45.51167" lon="6.13628">
        <ele>394.20001220703</ele>
        <time>2021-12-31T11:32:25.000Z</time>
      </trkpt>
      <trkpt lat="45.51155" lon="6.13616">
        <ele>394.79998779297</ele>
        <time>2021-12-31T11:32:28.000Z</time>
      </trkpt>
      <trkpt lat="45.51143" lon="6.13605">
        <ele>395.20001220703</ele>
        <time>2021-12-31T11:32:31.000Z</time>
      </trkpt>
      <trkpt lat="45.51138" lon="6.136">
        <ele>395.60000610352</ele>
        <time>2021-12-31T11:32:32.000Z</time>
      </trkpt>
      <trkpt lat="45.51131" lon="6.13591">
        <ele>396</ele>
        <time>2021-12-31T11:32:34.000Z</time>
      </trkpt>
      <trkpt lat="45.51122" lon="6.13577">
        <ele>396.79998779297</ele>
        <time>2021-12-31T11:32:37.000Z</time>
      </trkpt>
      <trkpt lat="45.5112" lon="6.13572">
        <ele>397.20001220703</ele>
        <time>2021-12-31T11:32:38.000Z</time>
      </trkpt>
      <trkpt lat="45.51107" lon="6.13547">
        <ele>397.79998779297</ele>
        <time>2021-12-31T11:32:43.000Z</time>
      </trkpt>
      <trkpt lat="45.51086" lon="6.13504">
        <ele>398.39999389648</ele>
        <time>2021-12-31T11:32:51.000Z</time>
      </trkpt>
      <trkpt lat="45.51069" lon="6.13472">
        <ele>398.79998779297</ele>
        <time>2021-12-31T11:32:57.000Z</time>
      </trkpt>
      <trkpt lat="45.51058" lon="6.13453">
        <ele>399.20001220703</ele>
        <time>2021-12-31T11:33:01.000Z</time>
      </trkpt>
      <trkpt lat="45.51034" lon="6.13414">
        <ele>400.20001220703</ele>
        <time>2021-12-31T11:33:09.000Z</time>
      </trkpt>
      <trkpt lat="45.51019" lon="6.13377">
        <ele>400.60000610352</ele>
        <time>2021-12-31T11:33:16.000Z</time>
      </trkpt>
      <trkpt lat="45.51013" lon="6.13361">
        <ele>401.20001220703</ele>
        <time>2021-12-31T11:33:19.000Z</time>
      </trkpt>
      <trkpt lat="45.51006" lon="6.13348">
        <ele>401.79998779297</ele>
        <time>2021-12-31T11:33:22.000Z</time>
      </trkpt>
      <trkpt lat="45.50998" lon="6.13335">
        <ele>402.20001220703</ele>
        <time>2021-12-31T11:33:25.000Z</time>
      </trkpt>
      <trkpt lat="45.50987" lon="6.13313">
        <ele>403.20001220703</ele>
        <time>2021-12-31T11:33:30.000Z</time>
      </trkpt>
      <trkpt lat="45.50985" lon="6.13307">
        <ele>403.39999389648</ele>
        <time>2021-12-31T11:33:31.000Z</time>
      </trkpt>
      <trkpt lat="45.50972" lon="6.13268">
        <ele>404.39999389648</ele>
        <time>2021-12-31T11:33:38.000Z</time>
      </trkpt>
      <trkpt lat="45.50961" lon="6.13244">
        <ele>405.39999389648</ele>
        <time>2021-12-31T11:33:43.000Z</time>
      </trkpt>
      <trkpt lat="45.50958" lon="6.13239">
        <ele>405.60000610352</ele>
        <time>2021-12-31T11:33:44.000Z</time>
      </trkpt>
      <trkpt lat="45.50944" lon="6.13218">
        <ele>406.79998779297</ele>
        <time>2021-12-31T11:33:49.000Z</time>
      </trkpt>
      <trkpt lat="45.50916" lon="6.13194">
        <ele>407.60000610352</ele>
        <time>2021-12-31T11:33:57.000Z</time>
      </trkpt>
      <trkpt lat="45.50904" lon="6.13187">
        <ele>407.79998779297</ele>
        <time>2021-12-31T11:34:00.000Z</time>
      </trkpt>
      <trkpt lat="45.50886" lon="6.13182">
        <ele>407.79998779297</ele>
        <time>2021-12-31T11:34:04.000Z</time>
      </trkpt>
      <trkpt lat="45.50849" lon="6.1317">
        <ele>407.39999389648</ele>
        <time>2021-12-31T11:34:12.000Z</time>
      </trkpt>
      <trkpt lat="45.50821" lon="6.13166">
        <ele>407.20001220703</ele>
        <time>2021-12-31T11:34:18.000Z</time>
      </trkpt>
      <trkpt lat="45.50811" lon="6.13168">
        <ele>407.20001220703</ele>
        <time>2021-12-31T11:34:20.000Z</time>
      </trkpt>
      <trkpt lat="45.50784" lon="6.13181">
        <ele>407.20001220703</ele>
        <time>2021-12-31T11:34:26.000Z</time>
      </trkpt>
      <trkpt lat="45.50762" lon="6.13192">
        <ele>407.20001220703</ele>
        <time>2021-12-31T11:34:31.000Z</time>
      </trkpt>
      <trkpt lat="45.50747" lon="6.13194">
        <ele>407.20001220703</ele>
        <time>2021-12-31T11:34:34.000Z</time>
      </trkpt>
      <trkpt lat="45.50714" lon="6.13184">
        <ele>407.20001220703</ele>
        <time>2021-12-31T11:34:41.000Z</time>
      </trkpt>
      <trkpt lat="45.50665" lon="6.13159">
        <ele>407.20001220703</ele>
        <time>2021-12-31T11:34:51.000Z</time>
      </trkpt>
      <trkpt lat="45.50628" lon="6.13137">
        <ele>407.39999389648</ele>
        <time>2021-12-31T11:34:59.000Z</time>
      </trkpt>
      <trkpt lat="45.50619" lon="6.13131">
        <ele>407.39999389648</ele>
        <time>2021-12-31T11:35:01.000Z</time>
      </trkpt>
      <trkpt lat="45.50611" lon="6.13121">
        <ele>407.60000610352</ele>
        <time>2021-12-31T11:35:03.000Z</time>
      </trkpt>
      <trkpt lat="45.50607" lon="6.13116">
        <ele>407.60000610352</ele>
        <time>2021-12-31T11:35:04.000Z</time>
      </trkpt>
      <trkpt lat="45.50587" lon="6.13073">
        <ele>407.39999389648</ele>
        <time>2021-12-31T11:35:10.000Z</time>
      </trkpt>
      <trkpt lat="45.50559" lon="6.13004">
        <ele>406.79998779297</ele>
        <time>2021-12-31T11:35:20.000Z</time>
      </trkpt>
      <trkpt lat="45.5055" lon="6.12984">
        <ele>407</ele>
        <time>2021-12-31T11:35:23.000Z</time>
      </trkpt>
      <trkpt lat="45.50521" lon="6.12914">
        <ele>407.39999389648</ele>
        <time>2021-12-31T11:35:34.000Z</time>
      </trkpt>
      <trkpt lat="45.50501" lon="6.12861">
        <ele>407.60000610352</ele>
        <time>2021-12-31T11:35:43.000Z</time>
      </trkpt>
      <trkpt lat="45.50492" lon="6.12822">
        <ele>407.39999389648</ele>
        <time>2021-12-31T11:35:48.000Z</time>
      </trkpt>
      <trkpt lat="45.50487" lon="6.12794">
        <ele>407.20001220703</ele>
        <time>2021-12-31T11:35:51.000Z</time>
      </trkpt>
      <trkpt lat="45.50485" lon="6.12787">
        <ele>407</ele>
        <time>2021-12-31T11:35:52.000Z</time>
      </trkpt>
      <trkpt lat="45.50482" lon="6.12779">
        <ele>406.79998779297</ele>
        <time>2021-12-31T11:35:53.000Z</time>
      </trkpt>
      <trkpt lat="45.5046" lon="6.12748">
        <ele>405.60000610352</ele>
        <time>2021-12-31T11:35:57.000Z</time>
      </trkpt>
      <trkpt lat="45.50441" lon="6.12719">
        <ele>404.60000610352</ele>
        <time>2021-12-31T11:36:00.000Z</time>
      </trkpt>
      <trkpt lat="45.50431" lon="6.127">
        <ele>403.60000610352</ele>
        <time>2021-12-31T11:36:02.000Z</time>
      </trkpt>
      <trkpt lat="45.50421" lon="6.12673">
        <ele>402.39999389648</ele>
        <time>2021-12-31T11:36:04.000Z</time>
      </trkpt>
      <trkpt lat="45.50407" lon="6.12638">
        <ele>400.79998779297</ele>
        <time>2021-12-31T11:36:07.000Z</time>
      </trkpt>
      <trkpt lat="45.50402" lon="6.12626">
        <ele>400.60000610352</ele>
        <time>2021-12-31T11:36:08.000Z</time>
      </trkpt>
      <trkpt lat="45.50395" lon="6.12611">
        <ele>399.79998779297</ele>
        <time>2021-12-31T11:36:09.000Z</time>
      </trkpt>
      <trkpt lat="45.50384" lon="6.12591">
        <ele>398.39999389648</ele>
        <time>2021-12-31T11:36:11.000Z</time>
      </trkpt>
      <trkpt lat="45.50369" lon="6.12569">
        <ele>397.60000610352</ele>
        <time>2021-12-31T11:36:13.000Z</time>
      </trkpt>
      <trkpt lat="45.50363" lon="6.1256">
        <ele>397.20001220703</ele>
        <time>2021-12-31T11:36:14.000Z</time>
      </trkpt>
      <trkpt lat="45.50345" lon="6.12535">
        <ele>396.20001220703</ele>
        <time>2021-12-31T11:36:17.000Z</time>
      </trkpt>
      <trkpt lat="45.50331" lon="6.12515">
        <ele>395.60000610352</ele>
        <time>2021-12-31T11:36:19.000Z</time>
      </trkpt>
      <trkpt lat="45.50322" lon="6.12499">
        <ele>394.79998779297</ele>
        <time>2021-12-31T11:36:21.000Z</time>
      </trkpt>
      <trkpt lat="45.50314" lon="6.12479">
        <ele>394.60000610352</ele>
        <time>2021-12-31T11:36:23.000Z</time>
      </trkpt>
      <trkpt lat="45.50303" lon="6.12451">
        <ele>393.79998779297</ele>
        <time>2021-12-31T11:36:26.000Z</time>
      </trkpt>
      <trkpt lat="45.50288" lon="6.1241">
        <ele>393.20001220703</ele>
        <time>2021-12-31T11:36:30.000Z</time>
      </trkpt>
      <trkpt lat="45.50274" lon="6.12369">
        <ele>392.60000610352</ele>
        <time>2021-12-31T11:36:34.000Z</time>
      </trkpt>
      <trkpt lat="45.50266" lon="6.12335">
        <ele>391.79998779297</ele>
        <time>2021-12-31T11:36:37.000Z</time>
      </trkpt>
      <trkpt lat="45.50265" lon="6.12324">
        <ele>391.39999389648</ele>
        <time>2021-12-31T11:36:38.000Z</time>
      </trkpt>
      <trkpt lat="45.50262" lon="6.12305">
        <ele>390.20001220703</ele>
        <time>2021-12-31T11:36:40.000Z</time>
      </trkpt>
      <trkpt lat="45.50261" lon="6.12294">
        <ele>389.60000610352</ele>
        <time>2021-12-31T11:36:41.000Z</time>
      </trkpt>
      <trkpt lat="45.50259" lon="6.12284">
        <ele>389.20001220703</ele>
        <time>2021-12-31T11:36:42.000Z</time>
      </trkpt>
      <trkpt lat="45.50251" lon="6.12262">
        <ele>387.79998779297</ele>
        <time>2021-12-31T11:36:44.000Z</time>
      </trkpt>
      <trkpt lat="45.50242" lon="6.12244">
        <ele>386.79998779297</ele>
        <time>2021-12-31T11:36:46.000Z</time>
      </trkpt>
      <trkpt lat="45.50229" lon="6.12222">
        <ele>385.79998779297</ele>
        <time>2021-12-31T11:36:48.000Z</time>
      </trkpt>
      <trkpt lat="45.50223" lon="6.12212">
        <ele>385.20001220703</ele>
        <time>2021-12-31T11:36:49.000Z</time>
      </trkpt>
      <trkpt lat="45.50209" lon="6.12193">
        <ele>384</ele>
        <time>2021-12-31T11:36:51.000Z</time>
      </trkpt>
      <trkpt lat="45.50195" lon="6.12176">
        <ele>383.20001220703</ele>
        <time>2021-12-31T11:36:53.000Z</time>
      </trkpt>
      <trkpt lat="45.50187" lon="6.12169">
        <ele>382.39999389648</ele>
        <time>2021-12-31T11:36:54.000Z</time>
      </trkpt>
      <trkpt lat="45.50172" lon="6.12158">
        <ele>381.20001220703</ele>
        <time>2021-12-31T11:36:56.000Z</time>
      </trkpt>
      <trkpt lat="45.5014" lon="6.12134">
        <ele>379.79998779297</ele>
        <time>2021-12-31T11:37:00.000Z</time>
      </trkpt>
      <trkpt lat="45.50126" lon="6.12123">
        <ele>379.20001220703</ele>
        <time>2021-12-31T11:37:02.000Z</time>
      </trkpt>
      <trkpt lat="45.50119" lon="6.12118">
        <ele>378.79998779297</ele>
        <time>2021-12-31T11:37:03.000Z</time>
      </trkpt>
      <trkpt lat="45.50078" lon="6.12089">
        <ele>378.20001220703</ele>
        <time>2021-12-31T11:37:09.000Z</time>
      </trkpt>
      <trkpt lat="45.5005" lon="6.12071">
        <ele>378</ele>
        <time>2021-12-31T11:37:14.000Z</time>
      </trkpt>
      <trkpt lat="45.50008" lon="6.12048">
        <ele>379</ele>
        <time>2021-12-31T11:37:22.000Z</time>
      </trkpt>
      <trkpt lat="45.49994" lon="6.12039">
        <ele>379.20001220703</ele>
        <time>2021-12-31T11:37:25.000Z</time>
      </trkpt>
      <trkpt lat="45.49983" lon="6.12028">
        <ele>379.39999389648</ele>
        <time>2021-12-31T11:37:27.000Z</time>
      </trkpt>
      <trkpt lat="45.49979" lon="6.12021">
        <ele>379.39999389648</ele>
        <time>2021-12-31T11:37:28.000Z</time>
      </trkpt>
      <trkpt lat="45.49977" lon="6.12016">
        <ele>379.39999389648</ele>
        <time>2021-12-31T11:37:29.000Z</time>
      </trkpt>
      <trkpt lat="45.49969" lon="6.12002">
        <ele>379.39999389648</ele>
        <time>2021-12-31T11:37:31.000Z</time>
      </trkpt>
      <trkpt lat="45.4996" lon="6.11988">
        <ele>379.20001220703</ele>
        <time>2021-12-31T11:37:33.000Z</time>
      </trkpt>
      <trkpt lat="45.49936" lon="6.11953">
        <ele>378.20001220703</ele>
        <time>2021-12-31T11:37:38.000Z</time>
      </trkpt>
      <trkpt lat="45.49931" lon="6.11949">
        <ele>378</ele>
        <time>2021-12-31T11:37:39.000Z</time>
      </trkpt>
      <trkpt lat="45.49924" lon="6.11944">
        <ele>377.60000610352</ele>
        <time>2021-12-31T11:37:40.000Z</time>
      </trkpt>
      <trkpt lat="45.49902" lon="6.11933">
        <ele>376.79998779297</ele>
        <time>2021-12-31T11:37:43.000Z</time>
      </trkpt>
      <trkpt lat="45.49871" lon="6.11908">
        <ele>375.20001220703</ele>
        <time>2021-12-31T11:37:47.000Z</time>
      </trkpt>
      <trkpt lat="45.49859" lon="6.11889">
        <ele>374.20001220703</ele>
        <time>2021-12-31T11:37:49.000Z</time>
      </trkpt>
      <trkpt lat="45.49854" lon="6.11879">
        <ele>373.60000610352</ele>
        <time>2021-12-31T11:37:50.000Z</time>
      </trkpt>
      <trkpt lat="45.49843" lon="6.11846">
        <ele>372.39999389648</ele>
        <time>2021-12-31T11:37:53.000Z</time>
      </trkpt>
      <trkpt lat="45.4984" lon="6.11837">
        <ele>372.39999389648</ele>
        <time>2021-12-31T11:37:54.000Z</time>
      </trkpt>
      <trkpt lat="45.4982" lon="6.1178">
        <ele>372.20001220703</ele>
        <time>2021-12-31T11:38:01.000Z</time>
      </trkpt>
      <trkpt lat="45.49785" lon="6.11712">
        <ele>371.39999389648</ele>
        <time>2021-12-31T11:38:09.000Z</time>
      </trkpt>
      <trkpt lat="45.49762" lon="6.11682">
        <ele>370.39999389648</ele>
        <time>2021-12-31T11:38:13.000Z</time>
      </trkpt>
      <trkpt lat="45.4975" lon="6.11669">
        <ele>369.60000610352</ele>
        <time>2021-12-31T11:38:15.000Z</time>
      </trkpt>
      <trkpt lat="45.49742" lon="6.11661">
        <ele>369.20001220703</ele>
        <time>2021-12-31T11:38:16.000Z</time>
      </trkpt>
      <trkpt lat="45.49724" lon="6.1164">
        <ele>368.20001220703</ele>
        <time>2021-12-31T11:38:19.000Z</time>
      </trkpt>
      <trkpt lat="45.49703" lon="6.11617">
        <ele>367</ele>
        <time>2021-12-31T11:38:22.000Z</time>
      </trkpt>
      <trkpt lat="45.49685" lon="6.11596">
        <ele>366</ele>
        <time>2021-12-31T11:38:25.000Z</time>
      </trkpt>
      <trkpt lat="45.49679" lon="6.1159">
        <ele>365.79998779297</ele>
        <time>2021-12-31T11:38:26.000Z</time>
      </trkpt>
      <trkpt lat="45.49657" lon="6.11565">
        <ele>365.39999389648</ele>
        <time>2021-12-31T11:38:30.000Z</time>
      </trkpt>
      <trkpt lat="45.49629" lon="6.11532">
        <ele>365.39999389648</ele>
        <time>2021-12-31T11:38:36.000Z</time>
      </trkpt>
      <trkpt lat="45.496" lon="6.115">
        <ele>366.79998779297</ele>
        <time>2021-12-31T11:38:43.000Z</time>
      </trkpt>
      <trkpt lat="45.49589" lon="6.11487">
        <ele>367.20001220703</ele>
        <time>2021-12-31T11:38:46.000Z</time>
      </trkpt>
      <trkpt lat="45.49576" lon="6.11469">
        <ele>367.79998779297</ele>
        <time>2021-12-31T11:38:50.000Z</time>
      </trkpt>
      <trkpt lat="45.4957" lon="6.1146">
        <ele>368.20001220703</ele>
        <time>2021-12-31T11:38:52.000Z</time>
      </trkpt>
      <trkpt lat="45.49549" lon="6.11428">
        <ele>369.20001220703</ele>
        <time>2021-12-31T11:38:59.000Z</time>
      </trkpt>
      <trkpt lat="45.49546" lon="6.11422">
        <ele>369.39999389648</ele>
        <time>2021-12-31T11:39:00.000Z</time>
      </trkpt>
      <trkpt lat="45.49529" lon="6.11395">
        <ele>370.60000610352</ele>
        <time>2021-12-31T11:39:06.000Z</time>
      </trkpt>
      <trkpt lat="45.4952" lon="6.11381">
        <ele>371.60000610352</ele>
        <time>2021-12-31T11:39:09.000Z</time>
      </trkpt>
      <trkpt lat="45.49518" lon="6.11377">
        <ele>371.60000610352</ele>
        <time>2021-12-31T11:39:10.000Z</time>
      </trkpt>
      <trkpt lat="45.49492" lon="6.11335">
        <ele>372.39999389648</ele>
        <time>2021-12-31T11:39:19.000Z</time>
      </trkpt>
      <trkpt lat="45.49483" lon="6.11321">
        <ele>372.60000610352</ele>
        <time>2021-12-31T11:39:22.000Z</time>
      </trkpt>
      <trkpt lat="45.49469" lon="6.11298">
        <ele>373.20001220703</ele>
        <time>2021-12-31T11:39:27.000Z</time>
      </trkpt>
      <trkpt lat="45.49442" lon="6.11254">
        <ele>373.79998779297</ele>
        <time>2021-12-31T11:39:36.000Z</time>
      </trkpt>
      <trkpt lat="45.49439" lon="6.1125">
        <ele>374</ele>
        <time>2021-12-31T11:39:37.000Z</time>
      </trkpt>
      <trkpt lat="45.49411" lon="6.11212">
        <ele>375</ele>
        <time>2021-12-31T11:39:45.000Z</time>
      </trkpt>
      <trkpt lat="45.49404" lon="6.11204">
        <ele>375</ele>
        <time>2021-12-31T11:39:47.000Z</time>
      </trkpt>
      <trkpt lat="45.49364" lon="6.11159">
        <ele>375.60000610352</ele>
        <time>2021-12-31T11:39:58.000Z</time>
      </trkpt>
      <trkpt lat="45.49355" lon="6.11149">
        <ele>376</ele>
        <time>2021-12-31T11:40:01.000Z</time>
      </trkpt>
      <trkpt lat="45.49339" lon="6.1113">
        <ele>376.79998779297</ele>
        <time>2021-12-31T11:40:06.000Z</time>
      </trkpt>
      <trkpt lat="45.49326" lon="6.11115">
        <ele>377.39999389648</ele>
        <time>2021-12-31T11:40:10.000Z</time>
      </trkpt>
      <trkpt lat="45.49305" lon="6.11091">
        <ele>378.60000610352</ele>
        <time>2021-12-31T11:40:17.000Z</time>
      </trkpt>
      <trkpt lat="45.49302" lon="6.11087">
        <ele>379</ele>
        <time>2021-12-31T11:40:18.000Z</time>
      </trkpt>
      <trkpt lat="45.49286" lon="6.11071">
        <ele>380</ele>
        <time>2021-12-31T11:40:23.000Z</time>
      </trkpt>
      <trkpt lat="45.4928" lon="6.11065">
        <ele>380.39999389648</ele>
        <time>2021-12-31T11:40:25.000Z</time>
      </trkpt>
      <trkpt lat="45.49274" lon="6.11058">
        <ele>380.79998779297</ele>
        <time>2021-12-31T11:40:27.000Z</time>
      </trkpt>
      <trkpt lat="45.49271" lon="6.11054">
        <ele>381.20001220703</ele>
        <time>2021-12-31T11:40:28.000Z</time>
      </trkpt>
      <trkpt lat="45.49249" lon="6.11033">
        <ele>382.39999389648</ele>
        <time>2021-12-31T11:40:35.000Z</time>
      </trkpt>
      <trkpt lat="45.49246" lon="6.1103">
        <ele>382.39999389648</ele>
        <time>2021-12-31T11:40:36.000Z</time>
      </trkpt>
      <trkpt lat="45.49235" lon="6.11018">
        <ele>383.39999389648</ele>
        <time>2021-12-31T11:40:40.000Z</time>
      </trkpt>
      <trkpt lat="45.49227" lon="6.11007">
        <ele>384</ele>
        <time>2021-12-31T11:40:43.000Z</time>
      </trkpt>
      <trkpt lat="45.4922" lon="6.10993">
        <ele>384.39999389648</ele>
        <time>2021-12-31T11:40:46.000Z</time>
      </trkpt>
      <trkpt lat="45.49213" lon="6.10984">
        <ele>384.79998779297</ele>
        <time>2021-12-31T11:40:48.000Z</time>
      </trkpt>
      <trkpt lat="45.49209" lon="6.1098">
        <ele>384.79998779297</ele>
        <time>2021-12-31T11:40:49.000Z</time>
      </trkpt>
      <trkpt lat="45.49201" lon="6.10973">
        <ele>384.79998779297</ele>
        <time>2021-12-31T11:40:51.000Z</time>
      </trkpt>
      <trkpt lat="45.49193" lon="6.10964">
        <ele>384.60000610352</ele>
        <time>2021-12-31T11:40:53.000Z</time>
      </trkpt>
      <trkpt lat="45.49188" lon="6.1096">
        <ele>384.79998779297</ele>
        <time>2021-12-31T11:40:54.000Z</time>
      </trkpt>
      <trkpt lat="45.49183" lon="6.10956">
        <ele>384.60000610352</ele>
        <time>2021-12-31T11:40:55.000Z</time>
      </trkpt>
      <trkpt lat="45.49156" lon="6.1093">
        <ele>384.39999389648</ele>
        <time>2021-12-31T11:41:01.000Z</time>
      </trkpt>
      <trkpt lat="45.49114" lon="6.10883">
        <ele>383.60000610352</ele>
        <time>2021-12-31T11:41:10.000Z</time>
      </trkpt>
      <trkpt lat="45.49075" lon="6.10828">
        <ele>382.20001220703</ele>
        <time>2021-12-31T11:41:18.000Z</time>
      </trkpt>
      <trkpt lat="45.49054" lon="6.10804">
        <ele>381</ele>
        <time>2021-12-31T11:41:22.000Z</time>
      </trkpt>
      <trkpt lat="45.49039" lon="6.10789">
        <ele>380.79998779297</ele>
        <time>2021-12-31T11:41:25.000Z</time>
      </trkpt>
      <trkpt lat="45.49008" lon="6.10752">
        <ele>380.79998779297</ele>
        <time>2021-12-31T11:41:32.000Z</time>
      </trkpt>
      <trkpt lat="45.48985" lon="6.10711">
        <ele>381.60000610352</ele>
        <time>2021-12-31T11:41:39.000Z</time>
      </trkpt>
      <trkpt lat="45.48981" lon="6.10706">
        <ele>381.60000610352</ele>
        <time>2021-12-31T11:41:40.000Z</time>
      </trkpt>
      <trkpt lat="45.48949" lon="6.10662">
        <ele>382.39999389648</ele>
        <time>2021-12-31T11:41:48.000Z</time>
      </trkpt>
      <trkpt lat="45.48945" lon="6.10656">
        <ele>382.39999389648</ele>
        <time>2021-12-31T11:41:49.000Z</time>
      </trkpt>
      <trkpt lat="45.48902" lon="6.10604">
        <ele>382.20001220703</ele>
        <time>2021-12-31T11:41:59.000Z</time>
      </trkpt>
      <trkpt lat="45.48869" lon="6.10567">
        <ele>381.60000610352</ele>
        <time>2021-12-31T11:42:06.000Z</time>
      </trkpt>
      <trkpt lat="45.48856" lon="6.10547">
        <ele>381.39999389648</ele>
        <time>2021-12-31T11:42:09.000Z</time>
      </trkpt>
      <trkpt lat="45.48844" lon="6.10522">
        <ele>380.79998779297</ele>
        <time>2021-12-31T11:42:12.000Z</time>
      </trkpt>
      <trkpt lat="45.48828" lon="6.10491">
        <ele>379.79998779297</ele>
        <time>2021-12-31T11:42:15.000Z</time>
      </trkpt>
      <trkpt lat="45.4882" lon="6.10471">
        <ele>379</ele>
        <time>2021-12-31T11:42:17.000Z</time>
      </trkpt>
      <trkpt lat="45.48816" lon="6.1046">
        <ele>378.60000610352</ele>
        <time>2021-12-31T11:42:18.000Z</time>
      </trkpt>
      <trkpt lat="45.48807" lon="6.10433">
        <ele>377.39999389648</ele>
        <time>2021-12-31T11:42:20.000Z</time>
      </trkpt>
      <trkpt lat="45.48801" lon="6.10411">
        <ele>376.20001220703</ele>
        <time>2021-12-31T11:42:22.000Z</time>
      </trkpt>
      <trkpt lat="45.48797" lon="6.10399">
        <ele>375.39999389648</ele>
        <time>2021-12-31T11:42:23.000Z</time>
      </trkpt>
      <trkpt lat="45.4879" lon="6.10384">
        <ele>374.79998779297</ele>
        <time>2021-12-31T11:42:24.000Z</time>
      </trkpt>
      <trkpt lat="45.48785" lon="6.10375">
        <ele>373.79998779297</ele>
        <time>2021-12-31T11:42:25.000Z</time>
      </trkpt>
      <trkpt lat="45.48778" lon="6.10361">
        <ele>373</ele>
        <time>2021-12-31T11:42:26.000Z</time>
      </trkpt>
      <trkpt lat="45.48773" lon="6.10352">
        <ele>372.39999389648</ele>
        <time>2021-12-31T11:42:27.000Z</time>
      </trkpt>
      <trkpt lat="45.4876" lon="6.1033">
        <ele>371.20001220703</ele>
        <time>2021-12-31T11:42:29.000Z</time>
      </trkpt>
      <trkpt lat="45.48748" lon="6.10311">
        <ele>369.79998779297</ele>
        <time>2021-12-31T11:42:31.000Z</time>
      </trkpt>
      <trkpt lat="45.48742" lon="6.10303">
        <ele>368.60000610352</ele>
        <time>2021-12-31T11:42:32.000Z</time>
      </trkpt>
      <trkpt lat="45.48735" lon="6.10295">
        <ele>367.20001220703</ele>
        <time>2021-12-31T11:42:33.000Z</time>
      </trkpt>
      <trkpt lat="45.48721" lon="6.10282">
        <ele>365.60000610352</ele>
        <time>2021-12-31T11:42:35.000Z</time>
      </trkpt>
      <trkpt lat="45.48714" lon="6.10277">
        <ele>365.39999389648</ele>
        <time>2021-12-31T11:42:36.000Z</time>
      </trkpt>
      <trkpt lat="45.48697" lon="6.10271">
        <ele>364</ele>
        <time>2021-12-31T11:42:38.000Z</time>
      </trkpt>
      <trkpt lat="45.4868" lon="6.10264">
        <ele>363</ele>
        <time>2021-12-31T11:42:40.000Z</time>
      </trkpt>
      <trkpt lat="45.48672" lon="6.10259">
        <ele>362.60000610352</ele>
        <time>2021-12-31T11:42:41.000Z</time>
      </trkpt>
      <trkpt lat="45.48667" lon="6.10254">
        <ele>361.60000610352</ele>
        <time>2021-12-31T11:42:42.000Z</time>
      </trkpt>
      <trkpt lat="45.48662" lon="6.10246">
        <ele>360.79998779297</ele>
        <time>2021-12-31T11:42:43.000Z</time>
      </trkpt>
      <trkpt lat="45.48658" lon="6.10237">
        <ele>360.20001220703</ele>
        <time>2021-12-31T11:42:44.000Z</time>
      </trkpt>
      <trkpt lat="45.48655" lon="6.10229">
        <ele>359.39999389648</ele>
        <time>2021-12-31T11:42:45.000Z</time>
      </trkpt>
      <trkpt lat="45.48654" lon="6.10223">
        <ele>359</ele>
        <time>2021-12-31T11:42:46.000Z</time>
      </trkpt>
      <trkpt lat="45.48653" lon="6.10215">
        <ele>358.39999389648</ele>
        <time>2021-12-31T11:42:47.000Z</time>
      </trkpt>
      <trkpt lat="45.48652" lon="6.10206">
        <ele>357.79998779297</ele>
        <time>2021-12-31T11:42:48.000Z</time>
      </trkpt>
      <trkpt lat="45.4865" lon="6.1019">
        <ele>357.39999389648</ele>
        <time>2021-12-31T11:42:50.000Z</time>
      </trkpt>
      <trkpt lat="45.48645" lon="6.10173">
        <ele>356.39999389648</ele>
        <time>2021-12-31T11:42:52.000Z</time>
      </trkpt>
      <trkpt lat="45.48636" lon="6.10145">
        <ele>355.20001220703</ele>
        <time>2021-12-31T11:42:55.000Z</time>
      </trkpt>
      <trkpt lat="45.48635" lon="6.10139">
        <ele>355.20001220703</ele>
        <time>2021-12-31T11:42:56.000Z</time>
      </trkpt>
      <trkpt lat="45.48636" lon="6.10132">
        <ele>354.79998779297</ele>
        <time>2021-12-31T11:42:57.000Z</time>
      </trkpt>
      <trkpt lat="45.48639" lon="6.10123">
        <ele>354.20001220703</ele>
        <time>2021-12-31T11:42:58.000Z</time>
      </trkpt>
      <trkpt lat="45.48645" lon="6.10119">
        <ele>353.79998779297</ele>
        <time>2021-12-31T11:42:59.000Z</time>
      </trkpt>
      <trkpt lat="45.4865" lon="6.10116">
        <ele>353</ele>
        <time>2021-12-31T11:43:00.000Z</time>
      </trkpt>
      <trkpt lat="45.48658" lon="6.10115">
        <ele>352</ele>
        <time>2021-12-31T11:43:02.000Z</time>
      </trkpt>
      <trkpt lat="45.48666" lon="6.10113">
        <ele>350.60000610352</ele>
        <time>2021-12-31T11:43:05.000Z</time>
      </trkpt>
      <trkpt lat="45.48667" lon="6.10113">
        <ele>350.39999389648</ele>
        <time>2021-12-31T11:43:06.000Z</time>
      </trkpt>
      <trkpt lat="45.48668" lon="6.10112">
        <ele>349.60000610352</ele>
        <time>2021-12-31T11:43:08.000Z</time>
      </trkpt>
      <trkpt lat="45.48668" lon="6.10112">
        <ele>348.79998779297</ele>
        <time>2021-12-31T11:43:11.000Z</time>
      </trkpt>
      <trkpt lat="45.48668" lon="6.10112">
        <ele>348.79998779297</ele>
        <time>2021-12-31T11:43:14.000Z</time>
      </trkpt>
      <trkpt lat="45.48668" lon="6.10112">
        <ele>348.79998779297</ele>
        <time>2021-12-31T11:44:10.000Z</time>
      </trkpt>
      <trkpt lat="45.48668" lon="6.10112">
        <ele>348.79998779297</ele>
        <time>2021-12-31T11:44:57.000Z</time>
      </trkpt>
      <trkpt lat="45.48674" lon="6.10102">
        <ele>348.60000610352</ele>
        <time>2021-12-31T11:45:00.000Z</time>
      </trkpt>
      <trkpt lat="45.4868" lon="6.10091">
        <ele>348.39999389648</ele>
        <time>2021-12-31T11:45:02.000Z</time>
      </trkpt>
      <trkpt lat="45.48683" lon="6.10078">
        <ele>348.20001220703</ele>
        <time>2021-12-31T11:45:04.000Z</time>
      </trkpt>
      <trkpt lat="45.48688" lon="6.10064">
        <ele>348</ele>
        <time>2021-12-31T11:45:06.000Z</time>
      </trkpt>
      <trkpt lat="45.48691" lon="6.10057">
        <ele>347.60000610352</ele>
        <time>2021-12-31T11:45:07.000Z</time>
      </trkpt>
      <trkpt lat="45.48695" lon="6.10052">
        <ele>347.20001220703</ele>
        <time>2021-12-31T11:45:08.000Z</time>
      </trkpt>
      <trkpt lat="45.48706" lon="6.10051">
        <ele>346.60000610352</ele>
        <time>2021-12-31T11:45:10.000Z</time>
      </trkpt>
      <trkpt lat="45.48713" lon="6.10054">
        <ele>346.39999389648</ele>
        <time>2021-12-31T11:45:11.000Z</time>
      </trkpt>
      <trkpt lat="45.48718" lon="6.10062">
        <ele>346</ele>
        <time>2021-12-31T11:45:12.000Z</time>
      </trkpt>
      <trkpt lat="45.48723" lon="6.10071">
        <ele>345.20001220703</ele>
        <time>2021-12-31T11:45:13.000Z</time>
      </trkpt>
      <trkpt lat="45.48728" lon="6.10079">
        <ele>345</ele>
        <time>2021-12-31T11:45:14.000Z</time>
      </trkpt>
      <trkpt lat="45.48734" lon="6.10086">
        <ele>344.20001220703</ele>
        <time>2021-12-31T11:45:15.000Z</time>
      </trkpt>
      <trkpt lat="45.4874" lon="6.1009">
        <ele>343.60000610352</ele>
        <time>2021-12-31T11:45:16.000Z</time>
      </trkpt>
      <trkpt lat="45.48748" lon="6.10096">
        <ele>343</ele>
        <time>2021-12-31T11:45:17.000Z</time>
      </trkpt>
      <trkpt lat="45.48769" lon="6.10107">
        <ele>341.39999389648</ele>
        <time>2021-12-31T11:45:20.000Z</time>
      </trkpt>
      <trkpt lat="45.48785" lon="6.10116">
        <ele>340</ele>
        <time>2021-12-31T11:45:22.000Z</time>
      </trkpt>
      <trkpt lat="45.48792" lon="6.10119">
        <ele>339.79998779297</ele>
        <time>2021-12-31T11:45:23.000Z</time>
      </trkpt>
      <trkpt lat="45.48799" lon="6.10119">
        <ele>339</ele>
        <time>2021-12-31T11:45:24.000Z</time>
      </trkpt>
      <trkpt lat="45.48807" lon="6.10116">
        <ele>338.20001220703</ele>
        <time>2021-12-31T11:45:25.000Z</time>
      </trkpt>
      <trkpt lat="45.48819" lon="6.10103">
        <ele>337.20001220703</ele>
        <time>2021-12-31T11:45:27.000Z</time>
      </trkpt>
      <trkpt lat="45.48823" lon="6.10093">
        <ele>337.20001220703</ele>
        <time>2021-12-31T11:45:28.000Z</time>
      </trkpt>
      <trkpt lat="45.4883" lon="6.10075">
        <ele>335.60000610352</ele>
        <time>2021-12-31T11:45:30.000Z</time>
      </trkpt>
      <trkpt lat="45.48834" lon="6.10067">
        <ele>335.39999389648</ele>
        <time>2021-12-31T11:45:31.000Z</time>
      </trkpt>
      <trkpt lat="45.48844" lon="6.10055">
        <ele>334.60000610352</ele>
        <time>2021-12-31T11:45:33.000Z</time>
      </trkpt>
      <trkpt lat="45.4885" lon="6.10053">
        <ele>334</ele>
        <time>2021-12-31T11:45:34.000Z</time>
      </trkpt>
      <trkpt lat="45.48855" lon="6.10053">
        <ele>333.60000610352</ele>
        <time>2021-12-31T11:45:35.000Z</time>
      </trkpt>
      <trkpt lat="45.48863" lon="6.10055">
        <ele>333.60000610352</ele>
        <time>2021-12-31T11:45:36.000Z</time>
      </trkpt>
      <trkpt lat="45.48875" lon="6.10063">
        <ele>333</ele>
        <time>2021-12-31T11:45:38.000Z</time>
      </trkpt>
      <trkpt lat="45.48895" lon="6.10071">
        <ele>332.20001220703</ele>
        <time>2021-12-31T11:45:41.000Z</time>
      </trkpt>
      <trkpt lat="45.48908" lon="6.10074">
        <ele>331.79998779297</ele>
        <time>2021-12-31T11:45:43.000Z</time>
      </trkpt>
      <trkpt lat="45.48928" lon="6.10082">
        <ele>331</ele>
        <time>2021-12-31T11:45:46.000Z</time>
      </trkpt>
      <trkpt lat="45.48934" lon="6.10088">
        <ele>330.79998779297</ele>
        <time>2021-12-31T11:45:47.000Z</time>
      </trkpt>
      <trkpt lat="45.48969" lon="6.10128">
        <ele>329.79998779297</ele>
        <time>2021-12-31T11:45:53.000Z</time>
      </trkpt>
      <trkpt lat="45.48988" lon="6.10153">
        <ele>328.79998779297</ele>
        <time>2021-12-31T11:45:56.000Z</time>
      </trkpt>
      <trkpt lat="45.49" lon="6.1017">
        <ele>328</ele>
        <time>2021-12-31T11:45:58.000Z</time>
      </trkpt>
      <trkpt lat="45.49007" lon="6.10178">
        <ele>327.20001220703</ele>
        <time>2021-12-31T11:45:59.000Z</time>
      </trkpt>
      <trkpt lat="45.49031" lon="6.10199">
        <ele>325.79998779297</ele>
        <time>2021-12-31T11:46:02.000Z</time>
      </trkpt>
      <trkpt lat="45.49057" lon="6.10211">
        <ele>324.60000610352</ele>
        <time>2021-12-31T11:46:05.000Z</time>
      </trkpt>
      <trkpt lat="45.49066" lon="6.10214">
        <ele>323.79998779297</ele>
        <time>2021-12-31T11:46:06.000Z</time>
      </trkpt>
      <trkpt lat="45.49075" lon="6.10216">
        <ele>323.39999389648</ele>
        <time>2021-12-31T11:46:07.000Z</time>
      </trkpt>
      <trkpt lat="45.491" lon="6.10226">
        <ele>322.20001220703</ele>
        <time>2021-12-31T11:46:10.000Z</time>
      </trkpt>
      <trkpt lat="45.49107" lon="6.10231">
        <ele>321.60000610352</ele>
        <time>2021-12-31T11:46:11.000Z</time>
      </trkpt>
      <trkpt lat="45.49114" lon="6.10236">
        <ele>321.39999389648</ele>
        <time>2021-12-31T11:46:12.000Z</time>
      </trkpt>
      <trkpt lat="45.4912" lon="6.10242">
        <ele>320.79998779297</ele>
        <time>2021-12-31T11:46:13.000Z</time>
      </trkpt>
      <trkpt lat="45.49131" lon="6.10254">
        <ele>319.60000610352</ele>
        <time>2021-12-31T11:46:15.000Z</time>
      </trkpt>
      <trkpt lat="45.49147" lon="6.10273">
        <ele>318</ele>
        <time>2021-12-31T11:46:18.000Z</time>
      </trkpt>
      <trkpt lat="45.4916" lon="6.10285">
        <ele>317</ele>
        <time>2021-12-31T11:46:20.000Z</time>
      </trkpt>
      <trkpt lat="45.49166" lon="6.10291">
        <ele>316.60000610352</ele>
        <time>2021-12-31T11:46:21.000Z</time>
      </trkpt>
      <trkpt lat="45.49205" lon="6.10331">
        <ele>315.60000610352</ele>
        <time>2021-12-31T11:46:28.000Z</time>
      </trkpt>
      <trkpt lat="45.4921" lon="6.10337">
        <ele>315.39999389648</ele>
        <time>2021-12-31T11:46:29.000Z</time>
      </trkpt>
      <trkpt lat="45.49234" lon="6.10363">
        <ele>315.39999389648</ele>
        <time>2021-12-31T11:46:34.000Z</time>
      </trkpt>
      <trkpt lat="45.49263" lon="6.10392">
        <ele>315.39999389648</ele>
        <time>2021-12-31T11:46:40.000Z</time>
      </trkpt>
      <trkpt lat="45.49313" lon="6.10435">
        <ele>315.39999389648</ele>
        <time>2021-12-31T11:46:50.000Z</time>
      </trkpt>
      <trkpt lat="45.4935" lon="6.10477">
        <ele>314.60000610352</ele>
        <time>2021-12-31T11:46:57.000Z</time>
      </trkpt>
      <trkpt lat="45.49361" lon="6.10494">
        <ele>314.39999389648</ele>
        <time>2021-12-31T11:46:59.000Z</time>
      </trkpt>
      <trkpt lat="45.49372" lon="6.1051">
        <ele>313</ele>
        <time>2021-12-31T11:47:01.000Z</time>
      </trkpt>
      <trkpt lat="45.4938" lon="6.10519">
        <ele>312.60000610352</ele>
        <time>2021-12-31T11:47:02.000Z</time>
      </trkpt>
      <trkpt lat="45.49387" lon="6.10526">
        <ele>311.79998779297</ele>
        <time>2021-12-31T11:47:03.000Z</time>
      </trkpt>
      <trkpt lat="45.4941" lon="6.10549">
        <ele>311</ele>
        <time>2021-12-31T11:47:07.000Z</time>
      </trkpt>
      <trkpt lat="45.49414" lon="6.10554">
        <ele>311</ele>
        <time>2021-12-31T11:47:08.000Z</time>
      </trkpt>
      <trkpt lat="45.49428" lon="6.10576">
        <ele>311.20001220703</ele>
        <time>2021-12-31T11:47:12.000Z</time>
      </trkpt>
      <trkpt lat="45.49441" lon="6.10596">
        <ele>312.39999389648</ele>
        <time>2021-12-31T11:47:16.000Z</time>
      </trkpt>
      <trkpt lat="45.49449" lon="6.10605">
        <ele>313.20001220703</ele>
        <time>2021-12-31T11:47:18.000Z</time>
      </trkpt>
      <trkpt lat="45.49463" lon="6.10626">
        <ele>313.79998779297</ele>
        <time>2021-12-31T11:47:22.000Z</time>
      </trkpt>
      <trkpt lat="45.49474" lon="6.10638">
        <ele>314.39999389648</ele>
        <time>2021-12-31T11:47:25.000Z</time>
      </trkpt>
      <trkpt lat="45.49503" lon="6.10671">
        <ele>315.20001220703</ele>
        <time>2021-12-31T11:47:32.000Z</time>
      </trkpt>
      <trkpt lat="45.49506" lon="6.10676">
        <ele>315.20001220703</ele>
        <time>2021-12-31T11:47:33.000Z</time>
      </trkpt>
      <trkpt lat="45.4951" lon="6.1068">
        <ele>315.39999389648</ele>
        <time>2021-12-31T11:47:34.000Z</time>
      </trkpt>
      <trkpt lat="45.49514" lon="6.10683">
        <ele>315.39999389648</ele>
        <time>2021-12-31T11:47:35.000Z</time>
      </trkpt>
      <trkpt lat="45.49523" lon="6.10691">
        <ele>315.60000610352</ele>
        <time>2021-12-31T11:47:37.000Z</time>
      </trkpt>
      <trkpt lat="45.49528" lon="6.10696">
        <ele>315.79998779297</ele>
        <time>2021-12-31T11:47:38.000Z</time>
      </trkpt>
      <trkpt lat="45.49531" lon="6.10702">
        <ele>315.79998779297</ele>
        <time>2021-12-31T11:47:39.000Z</time>
      </trkpt>
      <trkpt lat="45.49541" lon="6.10722">
        <ele>316</ele>
        <time>2021-12-31T11:47:42.000Z</time>
      </trkpt>
      <trkpt lat="45.49549" lon="6.10736">
        <ele>316</ele>
        <time>2021-12-31T11:47:44.000Z</time>
      </trkpt>
      <trkpt lat="45.49559" lon="6.10755">
        <ele>315.79998779297</ele>
        <time>2021-12-31T11:47:47.000Z</time>
      </trkpt>
      <trkpt lat="45.49581" lon="6.10798">
        <ele>315.60000610352</ele>
        <time>2021-12-31T11:47:54.000Z</time>
      </trkpt>
      <trkpt lat="45.49616" lon="6.10858">
        <ele>316.20001220703</ele>
        <time>2021-12-31T11:48:04.000Z</time>
      </trkpt>
      <trkpt lat="45.49641" lon="6.10892">
        <ele>316.39999389648</ele>
        <time>2021-12-31T11:48:10.000Z</time>
      </trkpt>
      <trkpt lat="45.49646" lon="6.10898">
        <ele>316.39999389648</ele>
        <time>2021-12-31T11:48:11.000Z</time>
      </trkpt>
      <trkpt lat="45.49674" lon="6.10934">
        <ele>315.79998779297</ele>
        <time>2021-12-31T11:48:17.000Z</time>
      </trkpt>
      <trkpt lat="45.49679" lon="6.10938">
        <ele>315.60000610352</ele>
        <time>2021-12-31T11:48:18.000Z</time>
      </trkpt>
      <trkpt lat="45.49685" lon="6.10943">
        <ele>315.39999389648</ele>
        <time>2021-12-31T11:48:19.000Z</time>
      </trkpt>
      <trkpt lat="45.497" lon="6.10948">
        <ele>315</ele>
        <time>2021-12-31T11:48:21.000Z</time>
      </trkpt>
      <trkpt lat="45.49708" lon="6.10949">
        <ele>314.60000610352</ele>
        <time>2021-12-31T11:48:22.000Z</time>
      </trkpt>
      <trkpt lat="45.49724" lon="6.1095">
        <ele>313.79998779297</ele>
        <time>2021-12-31T11:48:24.000Z</time>
      </trkpt>
      <trkpt lat="45.49738" lon="6.10952">
        <ele>312.60000610352</ele>
        <time>2021-12-31T11:48:26.000Z</time>
      </trkpt>
      <trkpt lat="45.49752" lon="6.10962">
        <ele>311.60000610352</ele>
        <time>2021-12-31T11:48:28.000Z</time>
      </trkpt>
      <trkpt lat="45.49759" lon="6.10969">
        <ele>310.79998779297</ele>
        <time>2021-12-31T11:48:29.000Z</time>
      </trkpt>
      <trkpt lat="45.49766" lon="6.10977">
        <ele>310.39999389648</ele>
        <time>2021-12-31T11:48:30.000Z</time>
      </trkpt>
      <trkpt lat="45.49781" lon="6.10993">
        <ele>309.20001220703</ele>
        <time>2021-12-31T11:48:32.000Z</time>
      </trkpt>
      <trkpt lat="45.49795" lon="6.11008">
        <ele>307.60000610352</ele>
        <time>2021-12-31T11:48:34.000Z</time>
      </trkpt>
      <trkpt lat="45.49803" lon="6.11017">
        <ele>307</ele>
        <time>2021-12-31T11:48:35.000Z</time>
      </trkpt>
      <trkpt lat="45.4981" lon="6.11025">
        <ele>306</ele>
        <time>2021-12-31T11:48:36.000Z</time>
      </trkpt>
      <trkpt lat="45.49826" lon="6.11043">
        <ele>304.20001220703</ele>
        <time>2021-12-31T11:48:38.000Z</time>
      </trkpt>
      <trkpt lat="45.49834" lon="6.11052">
        <ele>303.20001220703</ele>
        <time>2021-12-31T11:48:39.000Z</time>
      </trkpt>
      <trkpt lat="45.4985" lon="6.11069">
        <ele>302</ele>
        <time>2021-12-31T11:48:41.000Z</time>
      </trkpt>
      <trkpt lat="45.49864" lon="6.11085">
        <ele>300.60000610352</ele>
        <time>2021-12-31T11:48:43.000Z</time>
      </trkpt>
      <trkpt lat="45.49878" lon="6.11101">
        <ele>298.79998779297</ele>
        <time>2021-12-31T11:48:45.000Z</time>
      </trkpt>
      <trkpt lat="45.49886" lon="6.1111">
        <ele>297.79998779297</ele>
        <time>2021-12-31T11:48:46.000Z</time>
      </trkpt>
      <trkpt lat="45.49903" lon="6.11129">
        <ele>296.60000610352</ele>
        <time>2021-12-31T11:48:48.000Z</time>
      </trkpt>
      <trkpt lat="45.49912" lon="6.11137">
        <ele>295.60000610352</ele>
        <time>2021-12-31T11:48:49.000Z</time>
      </trkpt>
      <trkpt lat="45.49928" lon="6.11152">
        <ele>294.20001220703</ele>
        <time>2021-12-31T11:48:51.000Z</time>
      </trkpt>
      <trkpt lat="45.49942" lon="6.11165">
        <ele>292.79998779297</ele>
        <time>2021-12-31T11:48:53.000Z</time>
      </trkpt>
      <trkpt lat="45.49949" lon="6.11172">
        <ele>292.39999389648</ele>
        <time>2021-12-31T11:48:54.000Z</time>
      </trkpt>
      <trkpt lat="45.49956" lon="6.11179">
        <ele>291.39999389648</ele>
        <time>2021-12-31T11:48:55.000Z</time>
      </trkpt>
      <trkpt lat="45.4997" lon="6.11194">
        <ele>290.20001220703</ele>
        <time>2021-12-31T11:48:57.000Z</time>
      </trkpt>
      <trkpt lat="45.49986" lon="6.11211">
        <ele>289.20001220703</ele>
        <time>2021-12-31T11:49:00.000Z</time>
      </trkpt>
      <trkpt lat="45.49991" lon="6.11214">
        <ele>288.79998779297</ele>
        <time>2021-12-31T11:49:01.000Z</time>
      </trkpt>
      <trkpt lat="45.49999" lon="6.11213">
        <ele>287.39999389648</ele>
        <time>2021-12-31T11:49:03.000Z</time>
      </trkpt>
      <trkpt lat="45.50001" lon="6.11204">
        <ele>286.60000610352</ele>
        <time>2021-12-31T11:49:05.000Z</time>
      </trkpt>
      <trkpt lat="45.49997" lon="6.11199">
        <ele>286</ele>
        <time>2021-12-31T11:49:06.000Z</time>
      </trkpt>
      <trkpt lat="45.49984" lon="6.11189">
        <ele>285</ele>
        <time>2021-12-31T11:49:08.000Z</time>
      </trkpt>
      <trkpt lat="45.49978" lon="6.11184">
        <ele>284.60000610352</ele>
        <time>2021-12-31T11:49:09.000Z</time>
      </trkpt>
      <trkpt lat="45.49973" lon="6.11177">
        <ele>284.20001220703</ele>
        <time>2021-12-31T11:49:10.000Z</time>
      </trkpt>
      <trkpt lat="45.49962" lon="6.11159">
        <ele>283.60000610352</ele>
        <time>2021-12-31T11:49:12.000Z</time>
      </trkpt>
      <trkpt lat="45.4995" lon="6.11125">
        <ele>282.20001220703</ele>
        <time>2021-12-31T11:49:15.000Z</time>
      </trkpt>
      <trkpt lat="45.49947" lon="6.11113">
        <ele>281.79998779297</ele>
        <time>2021-12-31T11:49:16.000Z</time>
      </trkpt>
      <trkpt lat="45.4994" lon="6.11087">
        <ele>280.60000610352</ele>
        <time>2021-12-31T11:49:18.000Z</time>
      </trkpt>
      <trkpt lat="45.49932" lon="6.11049">
        <ele>279.39999389648</ele>
        <time>2021-12-31T11:49:21.000Z</time>
      </trkpt>
      <trkpt lat="45.4993" lon="6.11038">
        <ele>278.60000610352</ele>
        <time>2021-12-31T11:49:22.000Z</time>
      </trkpt>
      <trkpt lat="45.49929" lon="6.11029">
        <ele>277.60000610352</ele>
        <time>2021-12-31T11:49:23.000Z</time>
      </trkpt>
      <trkpt lat="45.49932" lon="6.11006">
        <ele>276.60000610352</ele>
        <time>2021-12-31T11:49:25.000Z</time>
      </trkpt>
      <trkpt lat="45.49941" lon="6.10987">
        <ele>275.20001220703</ele>
        <time>2021-12-31T11:49:27.000Z</time>
      </trkpt>
      <trkpt lat="45.49947" lon="6.10977">
        <ele>274.60000610352</ele>
        <time>2021-12-31T11:49:28.000Z</time>
      </trkpt>
      <trkpt lat="45.49954" lon="6.10969">
        <ele>274</ele>
        <time>2021-12-31T11:49:29.000Z</time>
      </trkpt>
      <trkpt lat="45.49969" lon="6.10948">
        <ele>272.60000610352</ele>
        <time>2021-12-31T11:49:31.000Z</time>
      </trkpt>
      <trkpt lat="45.49974" lon="6.10939">
        <ele>271.79998779297</ele>
        <time>2021-12-31T11:49:32.000Z</time>
      </trkpt>
      <trkpt lat="45.49983" lon="6.10926">
        <ele>271</ele>
        <time>2021-12-31T11:49:33.000Z</time>
      </trkpt>
      <trkpt lat="45.49998" lon="6.10902">
        <ele>269.20001220703</ele>
        <time>2021-12-31T11:49:35.000Z</time>
      </trkpt>
      <trkpt lat="45.50013" lon="6.10879">
        <ele>267</ele>
        <time>2021-12-31T11:49:37.000Z</time>
      </trkpt>
      <trkpt lat="45.50022" lon="6.10868">
        <ele>265.79998779297</ele>
        <time>2021-12-31T11:49:38.000Z</time>
      </trkpt>
      <trkpt lat="45.50039" lon="6.10847">
        <ele>264.20001220703</ele>
        <time>2021-12-31T11:49:40.000Z</time>
      </trkpt>
      <trkpt lat="45.50058" lon="6.10828">
        <ele>262.79998779297</ele>
        <time>2021-12-31T11:49:42.000Z</time>
      </trkpt>
      <trkpt lat="45.50066" lon="6.10819">
        <ele>261.60000610352</ele>
        <time>2021-12-31T11:49:43.000Z</time>
      </trkpt>
      <trkpt lat="45.50083" lon="6.108">
        <ele>260.39999389648</ele>
        <time>2021-12-31T11:49:45.000Z</time>
      </trkpt>
      <trkpt lat="45.50098" lon="6.10781">
        <ele>259.20001220703</ele>
        <time>2021-12-31T11:49:47.000Z</time>
      </trkpt>
      <trkpt lat="45.50104" lon="6.10772">
        <ele>258.79998779297</ele>
        <time>2021-12-31T11:49:48.000Z</time>
      </trkpt>
      <trkpt lat="45.50125" lon="6.10733">
        <ele>258.39999389648</ele>
        <time>2021-12-31T11:49:52.000Z</time>
      </trkpt>
      <trkpt lat="45.50135" lon="6.10715">
        <ele>258.20001220703</ele>
        <time>2021-12-31T11:49:54.000Z</time>
      </trkpt>
      <trkpt lat="45.50147" lon="6.1069">
        <ele>258</ele>
        <time>2021-12-31T11:49:57.000Z</time>
      </trkpt>
      <trkpt lat="45.50151" lon="6.10682">
        <ele>258</ele>
        <time>2021-12-31T11:49:58.000Z</time>
      </trkpt>
      <trkpt lat="45.5017" lon="6.1064">
        <ele>258.20001220703</ele>
        <time>2021-12-31T11:50:04.000Z</time>
      </trkpt>
      <trkpt lat="45.50175" lon="6.10629">
        <ele>258.60000610352</ele>
        <time>2021-12-31T11:50:06.000Z</time>
      </trkpt>
      <trkpt lat="45.50181" lon="6.1062">
        <ele>259.20001220703</ele>
        <time>2021-12-31T11:50:08.000Z</time>
      </trkpt>
      <trkpt lat="45.50185" lon="6.10617">
        <ele>259.60000610352</ele>
        <time>2021-12-31T11:50:09.000Z</time>
      </trkpt>
      <trkpt lat="45.50201" lon="6.10609">
        <ele>260.20001220703</ele>
        <time>2021-12-31T11:50:13.000Z</time>
      </trkpt>
      <trkpt lat="45.50201" lon="6.10609">
        <ele>260.60000610352</ele>
        <time>2021-12-31T11:50:14.000Z</time>
      </trkpt>
      <trkpt lat="45.50211" lon="6.10611">
        <ele>261.60000610352</ele>
        <time>2021-12-31T11:50:17.000Z</time>
      </trkpt>
      <trkpt lat="45.50217" lon="6.10615">
        <ele>262.20001220703</ele>
        <time>2021-12-31T11:50:19.000Z</time>
      </trkpt>
      <trkpt lat="45.50223" lon="6.10619">
        <ele>262.60000610352</ele>
        <time>2021-12-31T11:50:21.000Z</time>
      </trkpt>
      <trkpt lat="45.50233" lon="6.1063">
        <ele>263.20001220703</ele>
        <time>2021-12-31T11:50:25.000Z</time>
      </trkpt>
      <trkpt lat="45.50238" lon="6.10637">
        <ele>263.79998779297</ele>
        <time>2021-12-31T11:50:27.000Z</time>
      </trkpt>
      <trkpt lat="45.50248" lon="6.10649">
        <ele>264.79998779297</ele>
        <time>2021-12-31T11:50:31.000Z</time>
      </trkpt>
      <trkpt lat="45.5025" lon="6.10652">
        <ele>265</ele>
        <time>2021-12-31T11:50:32.000Z</time>
      </trkpt>
      <trkpt lat="45.5026" lon="6.10663">
        <ele>266</ele>
        <time>2021-12-31T11:50:36.000Z</time>
      </trkpt>
      <trkpt lat="45.50272" lon="6.10675">
        <ele>267</ele>
        <time>2021-12-31T11:50:41.000Z</time>
      </trkpt>
      <trkpt lat="45.50275" lon="6.10677">
        <ele>267.20001220703</ele>
        <time>2021-12-31T11:50:42.000Z</time>
      </trkpt>
      <trkpt lat="45.50292" lon="6.10688">
        <ele>268.20001220703</ele>
        <time>2021-12-31T11:50:48.000Z</time>
      </trkpt>
      <trkpt lat="45.50297" lon="6.10691">
        <ele>268.60000610352</ele>
        <time>2021-12-31T11:50:50.000Z</time>
      </trkpt>
      <trkpt lat="45.50308" lon="6.10697">
        <ele>269.20001220703</ele>
        <time>2021-12-31T11:50:54.000Z</time>
      </trkpt>
      <trkpt lat="45.50322" lon="6.10703">
        <ele>270.20001220703</ele>
        <time>2021-12-31T11:50:59.000Z</time>
      </trkpt>
      <trkpt lat="45.50324" lon="6.10704">
        <ele>270.79998779297</ele>
        <time>2021-12-31T11:51:01.000Z</time>
      </trkpt>
      <trkpt lat="45.50343" lon="6.10713">
        <ele>271.79998779297</ele>
        <time>2021-12-31T11:51:07.000Z</time>
      </trkpt>
      <trkpt lat="45.50352" lon="6.10717">
        <ele>272.60000610352</ele>
        <time>2021-12-31T11:51:10.000Z</time>
      </trkpt>
      <trkpt lat="45.50355" lon="6.10718">
        <ele>273</ele>
        <time>2021-12-31T11:51:12.000Z</time>
      </trkpt>
      <trkpt lat="45.50373" lon="6.10724">
        <ele>274</ele>
        <time>2021-12-31T11:51:19.000Z</time>
      </trkpt>
      <trkpt lat="45.50376" lon="6.10724">
        <ele>274.20001220703</ele>
        <time>2021-12-31T11:51:20.000Z</time>
      </trkpt>
      <trkpt lat="45.50391" lon="6.10721">
        <ele>275</ele>
        <time>2021-12-31T11:51:24.000Z</time>
      </trkpt>
      <trkpt lat="45.50402" lon="6.10715">
        <ele>275.79998779297</ele>
        <time>2021-12-31T11:51:28.000Z</time>
      </trkpt>
      <trkpt lat="45.50408" lon="6.10712">
        <ele>276.20001220703</ele>
        <time>2021-12-31T11:51:30.000Z</time>
      </trkpt>
      <trkpt lat="45.50424" lon="6.10704">
        <ele>277.39999389648</ele>
        <time>2021-12-31T11:51:36.000Z</time>
      </trkpt>
      <trkpt lat="45.50427" lon="6.10703">
        <ele>277.60000610352</ele>
        <time>2021-12-31T11:51:37.000Z</time>
      </trkpt>
      <trkpt lat="45.50436" lon="6.10701">
        <ele>278.79998779297</ele>
        <time>2021-12-31T11:51:41.000Z</time>
      </trkpt>
      <trkpt lat="45.50444" lon="6.10704">
        <ele>279</ele>
        <time>2021-12-31T11:51:43.000Z</time>
      </trkpt>
      <trkpt lat="45.50454" lon="6.10713">
        <ele>279.79998779297</ele>
        <time>2021-12-31T11:51:47.000Z</time>
      </trkpt>
      <trkpt lat="45.50455" lon="6.10716">
        <ele>280.20001220703</ele>
        <time>2021-12-31T11:51:48.000Z</time>
      </trkpt>
      <trkpt lat="45.50458" lon="6.1072">
        <ele>280.60000610352</ele>
        <time>2021-12-31T11:51:50.000Z</time>
      </trkpt>
      <trkpt lat="45.5046" lon="6.10728">
        <ele>281</ele>
        <time>2021-12-31T11:51:52.000Z</time>
      </trkpt>
      <trkpt lat="45.50461" lon="6.10732">
        <ele>281.39999389648</ele>
        <time>2021-12-31T11:51:54.000Z</time>
      </trkpt>
      <trkpt lat="45.50464" lon="6.10747">
        <ele>282.39999389648</ele>
        <time>2021-12-31T11:51:57.000Z</time>
      </trkpt>
      <trkpt lat="45.50467" lon="6.10758">
        <ele>283.60000610352</ele>
        <time>2021-12-31T11:52:00.000Z</time>
      </trkpt>
      <trkpt lat="45.50467" lon="6.10762">
        <ele>283.60000610352</ele>
        <time>2021-12-31T11:52:01.000Z</time>
      </trkpt>
      <trkpt lat="45.50473" lon="6.10777">
        <ele>284.60000610352</ele>
        <time>2021-12-31T11:52:05.000Z</time>
      </trkpt>
      <trkpt lat="45.50475" lon="6.10779">
        <ele>284.79998779297</ele>
        <time>2021-12-31T11:52:06.000Z</time>
      </trkpt>
      <trkpt lat="45.50483" lon="6.1079">
        <ele>285.79998779297</ele>
        <time>2021-12-31T11:52:10.000Z</time>
      </trkpt>
      <trkpt lat="45.50486" lon="6.10796">
        <ele>286.20001220703</ele>
        <time>2021-12-31T11:52:12.000Z</time>
      </trkpt>
      <trkpt lat="45.5049" lon="6.10811">
        <ele>286.79998779297</ele>
        <time>2021-12-31T11:52:15.000Z</time>
      </trkpt>
      <trkpt lat="45.50492" lon="6.10822">
        <ele>287</ele>
        <time>2021-12-31T11:52:17.000Z</time>
      </trkpt>
      <trkpt lat="45.50502" lon="6.10846">
        <ele>287.60000610352</ele>
        <time>2021-12-31T11:52:21.000Z</time>
      </trkpt>
      <trkpt lat="45.50501" lon="6.10858">
        <ele>287.79998779297</ele>
        <time>2021-12-31T11:52:23.000Z</time>
      </trkpt>
      <trkpt lat="45.50509" lon="6.1088">
        <ele>287.79998779297</ele>
        <time>2021-12-31T11:52:27.000Z</time>
      </trkpt>
      <trkpt lat="45.50527" lon="6.1092">
        <ele>287.60000610352</ele>
        <time>2021-12-31T11:52:34.000Z</time>
      </trkpt>
      <trkpt lat="45.50554" lon="6.10976">
        <ele>286.39999389648</ele>
        <time>2021-12-31T11:52:41.000Z</time>
      </trkpt>
      <trkpt lat="45.50563" lon="6.10994">
        <ele>285.60000610352</ele>
        <time>2021-12-31T11:52:43.000Z</time>
      </trkpt>
      <trkpt lat="45.50572" lon="6.11013">
        <ele>285.20001220703</ele>
        <time>2021-12-31T11:52:45.000Z</time>
      </trkpt>
      <trkpt lat="45.50576" lon="6.11023">
        <ele>284</ele>
        <time>2021-12-31T11:52:47.000Z</time>
      </trkpt>
      <trkpt lat="45.50595" lon="6.11064">
        <ele>283</ele>
        <time>2021-12-31T11:52:50.000Z</time>
      </trkpt>
      <trkpt lat="45.50605" lon="6.11086">
        <ele>281.79998779297</ele>
        <time>2021-12-31T11:52:52.000Z</time>
      </trkpt>
      <trkpt lat="45.5061" lon="6.11096">
        <ele>281.60000610352</ele>
        <time>2021-12-31T11:52:53.000Z</time>
      </trkpt>
      <trkpt lat="45.50625" lon="6.11129">
        <ele>280.39999389648</ele>
        <time>2021-12-31T11:52:56.000Z</time>
      </trkpt>
      <trkpt lat="45.50639" lon="6.11163">
        <ele>279</ele>
        <time>2021-12-31T11:52:59.000Z</time>
      </trkpt>
      <trkpt lat="45.50647" lon="6.11188">
        <ele>277.79998779297</ele>
        <time>2021-12-31T11:53:01.000Z</time>
      </trkpt>
      <trkpt lat="45.50658" lon="6.11227">
        <ele>276.60000610352</ele>
        <time>2021-12-31T11:53:04.000Z</time>
      </trkpt>
      <trkpt lat="45.50662" lon="6.1124">
        <ele>276.39999389648</ele>
        <time>2021-12-31T11:53:05.000Z</time>
      </trkpt>
      <trkpt lat="45.50669" lon="6.11266">
        <ele>275.60000610352</ele>
        <time>2021-12-31T11:53:07.000Z</time>
      </trkpt>
      <trkpt lat="45.50676" lon="6.11293">
        <ele>274.39999389648</ele>
        <time>2021-12-31T11:53:09.000Z</time>
      </trkpt>
      <trkpt lat="45.50683" lon="6.1132">
        <ele>273.39999389648</ele>
        <time>2021-12-31T11:53:11.000Z</time>
      </trkpt>
      <trkpt lat="45.50691" lon="6.11347">
        <ele>272</ele>
        <time>2021-12-31T11:53:13.000Z</time>
      </trkpt>
      <trkpt lat="45.50699" lon="6.11375">
        <ele>271.20001220703</ele>
        <time>2021-12-31T11:53:15.000Z</time>
      </trkpt>
      <trkpt lat="45.50703" lon="6.11389">
        <ele>270</ele>
        <time>2021-12-31T11:53:16.000Z</time>
      </trkpt>
      <trkpt lat="45.5071" lon="6.11416">
        <ele>268.60000610352</ele>
        <time>2021-12-31T11:53:18.000Z</time>
      </trkpt>
      <trkpt lat="45.50718" lon="6.11443">
        <ele>267.39999389648</ele>
        <time>2021-12-31T11:53:20.000Z</time>
      </trkpt>
      <trkpt lat="45.50727" lon="6.11468">
        <ele>266.20001220703</ele>
        <time>2021-12-31T11:53:22.000Z</time>
      </trkpt>
      <trkpt lat="45.50738" lon="6.11489">
        <ele>265.20001220703</ele>
        <time>2021-12-31T11:53:24.000Z</time>
      </trkpt>
      <trkpt lat="45.50751" lon="6.11507">
        <ele>264.60000610352</ele>
        <time>2021-12-31T11:53:26.000Z</time>
      </trkpt>
      <trkpt lat="45.50764" lon="6.11522">
        <ele>263.79998779297</ele>
        <time>2021-12-31T11:53:28.000Z</time>
      </trkpt>
      <trkpt lat="45.50783" lon="6.11542">
        <ele>263.39999389648</ele>
        <time>2021-12-31T11:53:31.000Z</time>
      </trkpt>
      <trkpt lat="45.50802" lon="6.1156">
        <ele>262.79998779297</ele>
        <time>2021-12-31T11:53:35.000Z</time>
      </trkpt>
      <trkpt lat="45.50833" lon="6.11589">
        <ele>262.39999389648</ele>
        <time>2021-12-31T11:53:39.000Z</time>
      </trkpt>
      <trkpt lat="45.50876" lon="6.11639">
        <ele>262</ele>
        <time>2021-12-31T11:53:47.000Z</time>
      </trkpt>
      <trkpt lat="45.50876" lon="6.11639">
        <ele>262.20001220703</ele>
        <time>2021-12-31T11:53:48.000Z</time>
      </trkpt>
      <trkpt lat="45.50906" lon="6.11669">
        <ele>262.39999389648</ele>
        <time>2021-12-31T11:53:53.000Z</time>
      </trkpt>
      <trkpt lat="45.50937" lon="6.11693">
        <ele>263</ele>
        <time>2021-12-31T11:54:00.000Z</time>
      </trkpt>
      <trkpt lat="45.50974" lon="6.11721">
        <ele>263.79998779297</ele>
        <time>2021-12-31T11:54:08.000Z</time>
      </trkpt>
      <trkpt lat="45.51016" lon="6.11758">
        <ele>263.79998779297</ele>
        <time>2021-12-31T11:54:17.000Z</time>
      </trkpt>
      <trkpt lat="45.51021" lon="6.11762">
        <ele>263.79998779297</ele>
        <time>2021-12-31T11:54:18.000Z</time>
      </trkpt>
      <trkpt lat="45.51062" lon="6.1181">
        <ele>263.60000610352</ele>
        <time>2021-12-31T11:54:27.000Z</time>
      </trkpt>
      <trkpt lat="45.51107" lon="6.11862">
        <ele>263.60000610352</ele>
        <time>2021-12-31T11:54:37.000Z</time>
      </trkpt>
      <trkpt lat="45.51132" lon="6.11883">
        <ele>263.60000610352</ele>
        <time>2021-12-31T11:54:42.000Z</time>
      </trkpt>
      <trkpt lat="45.51151" lon="6.11902">
        <ele>263.39999389648</ele>
        <time>2021-12-31T11:54:46.000Z</time>
      </trkpt>
      <trkpt lat="45.51184" lon="6.11949">
        <ele>263</ele>
        <time>2021-12-31T11:54:54.000Z</time>
      </trkpt>
      <trkpt lat="45.51218" lon="6.12018">
        <ele>264</ele>
        <time>2021-12-31T11:55:05.000Z</time>
      </trkpt>
      <trkpt lat="45.51223" lon="6.12031">
        <ele>264.39999389648</ele>
        <time>2021-12-31T11:55:07.000Z</time>
      </trkpt>
      <trkpt lat="45.51245" lon="6.12073">
        <ele>265</ele>
        <time>2021-12-31T11:55:14.000Z</time>
      </trkpt>
      <trkpt lat="45.51271" lon="6.12108">
        <ele>265.39999389648</ele>
        <time>2021-12-31T11:55:21.000Z</time>
      </trkpt>
      <trkpt lat="45.51279" lon="6.12118">
        <ele>265.39999389648</ele>
        <time>2021-12-31T11:55:23.000Z</time>
      </trkpt>
      <trkpt lat="45.51287" lon="6.12126">
        <ele>265.60000610352</ele>
        <time>2021-12-31T11:55:25.000Z</time>
      </trkpt>
      <trkpt lat="45.51309" lon="6.12144">
        <ele>265.79998779297</ele>
        <time>2021-12-31T11:55:30.000Z</time>
      </trkpt>
      <trkpt lat="45.51354" lon="6.12178">
        <ele>266.39999389648</ele>
        <time>2021-12-31T11:55:40.000Z</time>
      </trkpt>
      <trkpt lat="45.51362" lon="6.12186">
        <ele>266.39999389648</ele>
        <time>2021-12-31T11:55:42.000Z</time>
      </trkpt>
      <trkpt lat="45.51367" lon="6.12198">
        <ele>266.39999389648</ele>
        <time>2021-12-31T11:55:44.000Z</time>
      </trkpt>
      <trkpt lat="45.51363" lon="6.12211">
        <ele>266.20001220703</ele>
        <time>2021-12-31T11:55:46.000Z</time>
      </trkpt>
      <trkpt lat="45.51361" lon="6.12218">
        <ele>266.20001220703</ele>
        <time>2021-12-31T11:55:47.000Z</time>
      </trkpt>
      <trkpt lat="45.51343" lon="6.12254">
        <ele>265.20001220703</ele>
        <time>2021-12-31T11:55:52.000Z</time>
      </trkpt>
      <trkpt lat="45.51323" lon="6.123">
        <ele>264.79998779297</ele>
        <time>2021-12-31T11:55:59.000Z</time>
      </trkpt>
      <trkpt lat="45.5132" lon="6.12307">
        <ele>264.79998779297</ele>
        <time>2021-12-31T11:56:00.000Z</time>
      </trkpt>
      <trkpt lat="45.51303" lon="6.12354">
        <ele>265</ele>
        <time>2021-12-31T11:56:07.000Z</time>
      </trkpt>
      <trkpt lat="45.51285" lon="6.12403">
        <ele>265.20001220703</ele>
        <time>2021-12-31T11:56:15.000Z</time>
      </trkpt>
      <trkpt lat="45.51277" lon="6.12426">
        <ele>265.60000610352</ele>
        <time>2021-12-31T11:56:19.000Z</time>
      </trkpt>
      <trkpt lat="45.51273" lon="6.12436">
        <ele>265.79998779297</ele>
        <time>2021-12-31T11:56:21.000Z</time>
      </trkpt>
      <trkpt lat="45.51271" lon="6.12441">
        <ele>266</ele>
        <time>2021-12-31T11:56:22.000Z</time>
      </trkpt>
      <trkpt lat="45.51258" lon="6.12476">
        <ele>266.60000610352</ele>
        <time>2021-12-31T11:56:29.000Z</time>
      </trkpt>
      <trkpt lat="45.51256" lon="6.12481">
        <ele>266.79998779297</ele>
        <time>2021-12-31T11:56:30.000Z</time>
      </trkpt>
      <trkpt lat="45.51241" lon="6.12517">
        <ele>267.20001220703</ele>
        <time>2021-12-31T11:56:38.000Z</time>
      </trkpt>
      <trkpt lat="45.51238" lon="6.12525">
        <ele>267.60000610352</ele>
        <time>2021-12-31T11:56:40.000Z</time>
      </trkpt>
      <trkpt lat="45.51232" lon="6.12539">
        <ele>268.39999389648</ele>
        <time>2021-12-31T11:56:44.000Z</time>
      </trkpt>
      <trkpt lat="45.51228" lon="6.12546">
        <ele>268.79998779297</ele>
        <time>2021-12-31T11:56:46.000Z</time>
      </trkpt>
      <trkpt lat="45.51221" lon="6.12564">
        <ele>269.60000610352</ele>
        <time>2021-12-31T11:56:51.000Z</time>
      </trkpt>
      <trkpt lat="45.51219" lon="6.12567">
        <ele>269.79998779297</ele>
        <time>2021-12-31T11:56:52.000Z</time>
      </trkpt>
      <trkpt lat="45.51211" lon="6.12589">
        <ele>270.79998779297</ele>
        <time>2021-12-31T11:56:58.000Z</time>
      </trkpt>
      <trkpt lat="45.5121" lon="6.12592">
        <ele>271.20001220703</ele>
        <time>2021-12-31T11:56:59.000Z</time>
      </trkpt>
      <trkpt lat="45.51207" lon="6.12611">
        <ele>272.20001220703</ele>
        <time>2021-12-31T11:57:04.000Z</time>
      </trkpt>
      <trkpt lat="45.51208" lon="6.12614">
        <ele>272.39999389648</ele>
        <time>2021-12-31T11:57:05.000Z</time>
      </trkpt>
      <trkpt lat="45.51213" lon="6.12632">
        <ele>273.39999389648</ele>
        <time>2021-12-31T11:57:10.000Z</time>
      </trkpt>
      <trkpt lat="45.51215" lon="6.12635">
        <ele>273.60000610352</ele>
        <time>2021-12-31T11:57:11.000Z</time>
      </trkpt>
      <trkpt lat="45.51223" lon="6.12645">
        <ele>274.39999389648</ele>
        <time>2021-12-31T11:57:15.000Z</time>
      </trkpt>
      <trkpt lat="45.51228" lon="6.1265">
        <ele>274.79998779297</ele>
        <time>2021-12-31T11:57:17.000Z</time>
      </trkpt>
      <trkpt lat="45.51236" lon="6.12659">
        <ele>275.60000610352</ele>
        <time>2021-12-31T11:57:21.000Z</time>
      </trkpt>
      <trkpt lat="45.51242" lon="6.12667">
        <ele>276.20001220703</ele>
        <time>2021-12-31T11:57:25.000Z</time>
      </trkpt>
      <trkpt lat="45.51245" lon="6.12672">
        <ele>276.60000610352</ele>
        <time>2021-12-31T11:57:27.000Z</time>
      </trkpt>
      <trkpt lat="45.51256" lon="6.12684">
        <ele>277.60000610352</ele>
        <time>2021-12-31T11:57:33.000Z</time>
      </trkpt>
      <trkpt lat="45.51269" lon="6.12698">
        <ele>278.79998779297</ele>
        <time>2021-12-31T11:57:40.000Z</time>
      </trkpt>
      <trkpt lat="45.51271" lon="6.12701">
        <ele>279</ele>
        <time>2021-12-31T11:57:41.000Z</time>
      </trkpt>
      <trkpt lat="45.51282" lon="6.12712">
        <ele>279.79998779297</ele>
        <time>2021-12-31T11:57:46.000Z</time>
      </trkpt>
      <trkpt lat="45.51282" lon="6.12712">
        <ele>280</ele>
        <time>2021-12-31T11:57:47.000Z</time>
      </trkpt>
      <trkpt lat="45.51287" lon="6.12717">
        <ele>280.39999389648</ele>
        <time>2021-12-31T11:57:49.000Z</time>
      </trkpt>
      <trkpt lat="45.51294" lon="6.12726">
        <ele>281.20001220703</ele>
        <time>2021-12-31T11:57:52.000Z</time>
      </trkpt>
      <trkpt lat="45.51309" lon="6.12738">
        <ele>282.20001220703</ele>
        <time>2021-12-31T11:57:58.000Z</time>
      </trkpt>
      <trkpt lat="45.51313" lon="6.12742">
        <ele>282.39999389648</ele>
        <time>2021-12-31T11:58:00.000Z</time>
      </trkpt>
      <trkpt lat="45.51323" lon="6.12752">
        <ele>283.20001220703</ele>
        <time>2021-12-31T11:58:05.000Z</time>
      </trkpt>
      <trkpt lat="45.51329" lon="6.12757">
        <ele>283.39999389648</ele>
        <time>2021-12-31T11:58:07.000Z</time>
      </trkpt>
      <trkpt lat="45.51339" lon="6.12768">
        <ele>284.20001220703</ele>
        <time>2021-12-31T11:58:12.000Z</time>
      </trkpt>
      <trkpt lat="45.51343" lon="6.12777">
        <ele>285</ele>
        <time>2021-12-31T11:58:15.000Z</time>
      </trkpt>
      <trkpt lat="45.51348" lon="6.12782">
        <ele>285.39999389648</ele>
        <time>2021-12-31T11:58:18.000Z</time>
      </trkpt>
      <trkpt lat="45.51351" lon="6.12787">
        <ele>285.79998779297</ele>
        <time>2021-12-31T11:58:20.000Z</time>
      </trkpt>
      <trkpt lat="45.51359" lon="6.12797">
        <ele>286.39999389648</ele>
        <time>2021-12-31T11:58:24.000Z</time>
      </trkpt>
      <trkpt lat="45.51363" lon="6.12803">
        <ele>287</ele>
        <time>2021-12-31T11:58:27.000Z</time>
      </trkpt>
      <trkpt lat="45.5137" lon="6.12811">
        <ele>287.39999389648</ele>
        <time>2021-12-31T11:58:30.000Z</time>
      </trkpt>
      <trkpt lat="45.51378" lon="6.12821">
        <ele>288</ele>
        <time>2021-12-31T11:58:34.000Z</time>
      </trkpt>
      <trkpt lat="45.51385" lon="6.12827">
        <ele>288.60000610352</ele>
        <time>2021-12-31T11:58:37.000Z</time>
      </trkpt>
      <trkpt lat="45.51404" lon="6.12839">
        <ele>289.39999389648</ele>
        <time>2021-12-31T11:58:43.000Z</time>
      </trkpt>
      <trkpt lat="45.51407" lon="6.12842">
        <ele>289.60000610352</ele>
        <time>2021-12-31T11:58:44.000Z</time>
      </trkpt>
      <trkpt lat="45.51415" lon="6.12862">
        <ele>290.39999389648</ele>
        <time>2021-12-31T11:58:50.000Z</time>
      </trkpt>
      <trkpt lat="45.51413" lon="6.12866">
        <ele>290.60000610352</ele>
        <time>2021-12-31T11:58:52.000Z</time>
      </trkpt>
      <trkpt lat="45.51408" lon="6.12867">
        <ele>291</ele>
        <time>2021-12-31T11:58:54.000Z</time>
      </trkpt>
      <trkpt lat="45.51406" lon="6.12866">
        <ele>291.20001220703</ele>
        <time>2021-12-31T11:58:55.000Z</time>
      </trkpt>
      <trkpt lat="45.51404" lon="6.12864">
        <ele>291.79998779297</ele>
        <time>2021-12-31T11:58:56.000Z</time>
      </trkpt>
      <trkpt lat="45.51398" lon="6.12857">
        <ele>292.39999389648</ele>
        <time>2021-12-31T11:58:59.000Z</time>
      </trkpt>
      <trkpt lat="45.51394" lon="6.12852">
        <ele>293</ele>
        <time>2021-12-31T11:59:01.000Z</time>
      </trkpt>
      <trkpt lat="45.51379" lon="6.12835">
        <ele>294.20001220703</ele>
        <time>2021-12-31T11:59:08.000Z</time>
      </trkpt>
      <trkpt lat="45.51373" lon="6.1283">
        <ele>294.39999389648</ele>
        <time>2021-12-31T11:59:10.000Z</time>
      </trkpt>
      <trkpt lat="45.51364" lon="6.12823">
        <ele>295.20001220703</ele>
        <time>2021-12-31T11:59:14.000Z</time>
      </trkpt>
      <trkpt lat="45.51361" lon="6.1282">
        <ele>295.39999389648</ele>
        <time>2021-12-31T11:59:15.000Z</time>
      </trkpt>
      <trkpt lat="45.51345" lon="6.1281">
        <ele>296.39999389648</ele>
        <time>2021-12-31T11:59:21.000Z</time>
      </trkpt>
      <trkpt lat="45.51342" lon="6.12809">
        <ele>296.39999389648</ele>
        <time>2021-12-31T11:59:22.000Z</time>
      </trkpt>
      <trkpt lat="45.5133" lon="6.128">
        <ele>297.39999389648</ele>
        <time>2021-12-31T11:59:27.000Z</time>
      </trkpt>
      <trkpt lat="45.51328" lon="6.12799">
        <ele>297.79998779297</ele>
        <time>2021-12-31T11:59:28.000Z</time>
      </trkpt>
      <trkpt lat="45.51321" lon="6.12794">
        <ele>298.60000610352</ele>
        <time>2021-12-31T11:59:33.000Z</time>
      </trkpt>
      <trkpt lat="45.51306" lon="6.12793">
        <ele>299.79998779297</ele>
        <time>2021-12-31T11:59:40.000Z</time>
      </trkpt>
      <trkpt lat="45.51292" lon="6.12792">
        <ele>300.79998779297</ele>
        <time>2021-12-31T11:59:46.000Z</time>
      </trkpt>
      <trkpt lat="45.51289" lon="6.12793">
        <ele>301.20001220703</ele>
        <time>2021-12-31T11:59:48.000Z</time>
      </trkpt>
      <trkpt lat="45.51278" lon="6.12789">
        <ele>302</ele>
        <time>2021-12-31T11:59:52.000Z</time>
      </trkpt>
      <trkpt lat="45.5127" lon="6.12785">
        <ele>302.20001220703</ele>
        <time>2021-12-31T11:59:54.000Z</time>
      </trkpt>
      <trkpt lat="45.51263" lon="6.12784">
        <ele>303</ele>
        <time>2021-12-31T11:59:57.000Z</time>
      </trkpt>
      <trkpt lat="45.51257" lon="6.12783">
        <ele>303.60000610352</ele>
        <time>2021-12-31T11:59:59.000Z</time>
      </trkpt>
      <trkpt lat="45.51249" lon="6.12783">
        <ele>304.39999389648</ele>
        <time>2021-12-31T12:00:02.000Z</time>
      </trkpt>
      <trkpt lat="45.51241" lon="6.12777">
        <ele>304.60000610352</ele>
        <time>2021-12-31T12:00:05.000Z</time>
      </trkpt>
      <trkpt lat="45.51237" lon="6.12778">
        <ele>305.20001220703</ele>
        <time>2021-12-31T12:00:07.000Z</time>
      </trkpt>
      <trkpt lat="45.51229" lon="6.12775">
        <ele>306.20001220703</ele>
        <time>2021-12-31T12:00:11.000Z</time>
      </trkpt>
      <trkpt lat="45.51228" lon="6.12775">
        <ele>306.39999389648</ele>
        <time>2021-12-31T12:00:12.000Z</time>
      </trkpt>
      <trkpt lat="45.51217" lon="6.12773">
        <ele>307.39999389648</ele>
        <time>2021-12-31T12:00:17.000Z</time>
      </trkpt>
      <trkpt lat="45.51212" lon="6.12773">
        <ele>308.60000610352</ele>
        <time>2021-12-31T12:00:20.000Z</time>
      </trkpt>
      <trkpt lat="45.51206" lon="6.12774">
        <ele>309.20001220703</ele>
        <time>2021-12-31T12:00:23.000Z</time>
      </trkpt>
      <trkpt lat="45.51203" lon="6.12774">
        <ele>309.79998779297</ele>
        <time>2021-12-31T12:00:25.000Z</time>
      </trkpt>
      <trkpt lat="45.51193" lon="6.12773">
        <ele>310.79998779297</ele>
        <time>2021-12-31T12:00:30.000Z</time>
      </trkpt>
      <trkpt lat="45.51191" lon="6.12774">
        <ele>311</ele>
        <time>2021-12-31T12:00:31.000Z</time>
      </trkpt>
      <trkpt lat="45.51185" lon="6.12776">
        <ele>312</ele>
        <time>2021-12-31T12:00:34.000Z</time>
      </trkpt>
      <trkpt lat="45.51183" lon="6.12777">
        <ele>312.20001220703</ele>
        <time>2021-12-31T12:00:35.000Z</time>
      </trkpt>
      <trkpt lat="45.51179" lon="6.12776">
        <ele>312.60000610352</ele>
        <time>2021-12-31T12:00:37.000Z</time>
      </trkpt>
      <trkpt lat="45.51174" lon="6.12777">
        <ele>313.39999389648</ele>
        <time>2021-12-31T12:00:39.000Z</time>
      </trkpt>
      <trkpt lat="45.51172" lon="6.12777">
        <ele>313.60000610352</ele>
        <time>2021-12-31T12:00:40.000Z</time>
      </trkpt>
      <trkpt lat="45.51167" lon="6.12778">
        <ele>314.20001220703</ele>
        <time>2021-12-31T12:00:42.000Z</time>
      </trkpt>
      <trkpt lat="45.51165" lon="6.12779">
        <ele>314.39999389648</ele>
        <time>2021-12-31T12:00:43.000Z</time>
      </trkpt>
      <trkpt lat="45.51162" lon="6.1278">
        <ele>314.79998779297</ele>
        <time>2021-12-31T12:00:44.000Z</time>
      </trkpt>
      <trkpt lat="45.51157" lon="6.12785">
        <ele>315.39999389648</ele>
        <time>2021-12-31T12:00:47.000Z</time>
      </trkpt>
      <trkpt lat="45.51154" lon="6.1279">
        <ele>316</ele>
        <time>2021-12-31T12:00:50.000Z</time>
      </trkpt>
      <trkpt lat="45.51152" lon="6.12794">
        <ele>316.79998779297</ele>
        <time>2021-12-31T12:00:52.000Z</time>
      </trkpt>
      <trkpt lat="45.51152" lon="6.12796">
        <ele>316.79998779297</ele>
        <time>2021-12-31T12:00:53.000Z</time>
      </trkpt>
      <trkpt lat="45.51153" lon="6.128">
        <ele>317.20001220703</ele>
        <time>2021-12-31T12:00:55.000Z</time>
      </trkpt>
      <trkpt lat="45.51154" lon="6.12802">
        <ele>317.60000610352</ele>
        <time>2021-12-31T12:00:56.000Z</time>
      </trkpt>
      <trkpt lat="45.51155" lon="6.12802">
        <ele>317.79998779297</ele>
        <time>2021-12-31T12:00:57.000Z</time>
      </trkpt>
      <trkpt lat="45.51156" lon="6.12802">
        <ele>318</ele>
        <time>2021-12-31T12:00:58.000Z</time>
      </trkpt>
      <trkpt lat="45.51158" lon="6.12801">
        <ele>318.20001220703</ele>
        <time>2021-12-31T12:00:59.000Z</time>
      </trkpt>
      <trkpt lat="45.51166" lon="6.12799">
        <ele>318.79998779297</ele>
        <time>2021-12-31T12:01:03.000Z</time>
      </trkpt>
      <trkpt lat="45.51176" lon="6.128">
        <ele>319.39999389648</ele>
        <time>2021-12-31T12:01:08.000Z</time>
      </trkpt>
      <trkpt lat="45.5118" lon="6.12801">
        <ele>319.79998779297</ele>
        <time>2021-12-31T12:01:10.000Z</time>
      </trkpt>
      <trkpt lat="45.51189" lon="6.12805">
        <ele>321.20001220703</ele>
        <time>2021-12-31T12:01:15.000Z</time>
      </trkpt>
      <trkpt lat="45.51191" lon="6.12806">
        <ele>321.39999389648</ele>
        <time>2021-12-31T12:01:16.000Z</time>
      </trkpt>
      <trkpt lat="45.51201" lon="6.12813">
        <ele>322.20001220703</ele>
        <time>2021-12-31T12:01:20.000Z</time>
      </trkpt>
      <trkpt lat="45.51204" lon="6.12816">
        <ele>322.39999389648</ele>
        <time>2021-12-31T12:01:21.000Z</time>
      </trkpt>
      <trkpt lat="45.51215" lon="6.12826">
        <ele>323.39999389648</ele>
        <time>2021-12-31T12:01:26.000Z</time>
      </trkpt>
      <trkpt lat="45.51218" lon="6.12828">
        <ele>323.39999389648</ele>
        <time>2021-12-31T12:01:27.000Z</time>
      </trkpt>
      <trkpt lat="45.51228" lon="6.12836">
        <ele>324.39999389648</ele>
        <time>2021-12-31T12:01:31.000Z</time>
      </trkpt>
      <trkpt lat="45.5123" lon="6.12837">
        <ele>324.39999389648</ele>
        <time>2021-12-31T12:01:32.000Z</time>
      </trkpt>
      <trkpt lat="45.51238" lon="6.12843">
        <ele>325.20001220703</ele>
        <time>2021-12-31T12:01:36.000Z</time>
      </trkpt>
      <trkpt lat="45.51245" lon="6.12848">
        <ele>325.39999389648</ele>
        <time>2021-12-31T12:01:38.000Z</time>
      </trkpt>
      <trkpt lat="45.51255" lon="6.12855">
        <ele>326.60000610352</ele>
        <time>2021-12-31T12:01:43.000Z</time>
      </trkpt>
      <trkpt lat="45.51265" lon="6.12865">
        <ele>327.60000610352</ele>
        <time>2021-12-31T12:01:49.000Z</time>
      </trkpt>
      <trkpt lat="45.51267" lon="6.12866">
        <ele>327.79998779297</ele>
        <time>2021-12-31T12:01:50.000Z</time>
      </trkpt>
      <trkpt lat="45.51273" lon="6.12874">
        <ele>328.79998779297</ele>
        <time>2021-12-31T12:01:55.000Z</time>
      </trkpt>
      <trkpt lat="45.51274" lon="6.12875">
        <ele>329</ele>
        <time>2021-12-31T12:01:56.000Z</time>
      </trkpt>
      <trkpt lat="45.5128" lon="6.12881">
        <ele>329.60000610352</ele>
        <time>2021-12-31T12:02:00.000Z</time>
      </trkpt>
      <trkpt lat="45.51281" lon="6.12883">
        <ele>329.79998779297</ele>
        <time>2021-12-31T12:02:01.000Z</time>
      </trkpt>
      <trkpt lat="45.51285" lon="6.12887">
        <ele>330.20001220703</ele>
        <time>2021-12-31T12:02:03.000Z</time>
      </trkpt>
      <trkpt lat="45.51289" lon="6.12892">
        <ele>330.79998779297</ele>
        <time>2021-12-31T12:02:06.000Z</time>
      </trkpt>
      <trkpt lat="45.51297" lon="6.12898">
        <ele>331.39999389648</ele>
        <time>2021-12-31T12:02:09.000Z</time>
      </trkpt>
      <trkpt lat="45.513" lon="6.12903">
        <ele>331.79998779297</ele>
        <time>2021-12-31T12:02:11.000Z</time>
      </trkpt>
      <trkpt lat="45.51304" lon="6.12904">
        <ele>332.20001220703</ele>
        <time>2021-12-31T12:02:12.000Z</time>
      </trkpt>
      <trkpt lat="45.51305" lon="6.12906">
        <ele>332.39999389648</ele>
        <time>2021-12-31T12:02:13.000Z</time>
      </trkpt>
      <trkpt lat="45.51308" lon="6.12908">
        <ele>332.60000610352</ele>
        <time>2021-12-31T12:02:14.000Z</time>
      </trkpt>
      <trkpt lat="45.51316" lon="6.12915">
        <ele>333.20001220703</ele>
        <time>2021-12-31T12:02:17.000Z</time>
      </trkpt>
      <trkpt lat="45.51321" lon="6.12917">
        <ele>333.60000610352</ele>
        <time>2021-12-31T12:02:19.000Z</time>
      </trkpt>
      <trkpt lat="45.51331" lon="6.12924">
        <ele>334.39999389648</ele>
        <time>2021-12-31T12:02:24.000Z</time>
      </trkpt>
      <trkpt lat="45.51333" lon="6.12925">
        <ele>334.79998779297</ele>
        <time>2021-12-31T12:02:25.000Z</time>
      </trkpt>
      <trkpt lat="45.51334" lon="6.12926">
        <ele>335</ele>
        <time>2021-12-31T12:02:26.000Z</time>
      </trkpt>
      <trkpt lat="45.51342" lon="6.1293">
        <ele>335.39999389648</ele>
        <time>2021-12-31T12:02:29.000Z</time>
      </trkpt>
      <trkpt lat="45.51346" lon="6.12931">
        <ele>335.60000610352</ele>
        <time>2021-12-31T12:02:30.000Z</time>
      </trkpt>
      <trkpt lat="45.51348" lon="6.12932">
        <ele>335.79998779297</ele>
        <time>2021-12-31T12:02:31.000Z</time>
      </trkpt>
      <trkpt lat="45.51362" lon="6.1294">
        <ele>336.60000610352</ele>
        <time>2021-12-31T12:02:35.000Z</time>
      </trkpt>
      <trkpt lat="45.51368" lon="6.12944">
        <ele>336.79998779297</ele>
        <time>2021-12-31T12:02:37.000Z</time>
      </trkpt>
      <trkpt lat="45.51376" lon="6.12954">
        <ele>337.60000610352</ele>
        <time>2021-12-31T12:02:41.000Z</time>
      </trkpt>
      <trkpt lat="45.51377" lon="6.12956">
        <ele>337.79998779297</ele>
        <time>2021-12-31T12:02:42.000Z</time>
      </trkpt>
      <trkpt lat="45.51378" lon="6.1296">
        <ele>337.79998779297</ele>
        <time>2021-12-31T12:02:43.000Z</time>
      </trkpt>
      <trkpt lat="45.51378" lon="6.12966">
        <ele>338.20001220703</ele>
        <time>2021-12-31T12:02:45.000Z</time>
      </trkpt>
      <trkpt lat="45.51372" lon="6.12966">
        <ele>338.39999389648</ele>
        <time>2021-12-31T12:02:47.000Z</time>
      </trkpt>
      <trkpt lat="45.51366" lon="6.1296">
        <ele>338.79998779297</ele>
        <time>2021-12-31T12:02:49.000Z</time>
      </trkpt>
      <trkpt lat="45.51364" lon="6.12956">
        <ele>339.39999389648</ele>
        <time>2021-12-31T12:02:50.000Z</time>
      </trkpt>
      <trkpt lat="45.51359" lon="6.12952">
        <ele>340.20001220703</ele>
        <time>2021-12-31T12:02:53.000Z</time>
      </trkpt>
      <trkpt lat="45.51356" lon="6.12951">
        <ele>340.60000610352</ele>
        <time>2021-12-31T12:02:54.000Z</time>
      </trkpt>
      <trkpt lat="45.51349" lon="6.12945">
        <ele>341.20001220703</ele>
        <time>2021-12-31T12:02:57.000Z</time>
      </trkpt>
      <trkpt lat="45.51347" lon="6.12944">
        <ele>341.20001220703</ele>
        <time>2021-12-31T12:02:58.000Z</time>
      </trkpt>
      <trkpt lat="45.51332" lon="6.12938">
        <ele>341.79998779297</ele>
        <time>2021-12-31T12:03:03.000Z</time>
      </trkpt>
      <trkpt lat="45.51323" lon="6.12933">
        <ele>342.39999389648</ele>
        <time>2021-12-31T12:03:07.000Z</time>
      </trkpt>
      <trkpt lat="45.51318" lon="6.1293">
        <ele>342.60000610352</ele>
        <time>2021-12-31T12:03:09.000Z</time>
      </trkpt>
      <trkpt lat="45.51305" lon="6.12924">
        <ele>343.39999389648</ele>
        <time>2021-12-31T12:03:15.000Z</time>
      </trkpt>
      <trkpt lat="45.51292" lon="6.12916">
        <ele>344.39999389648</ele>
        <time>2021-12-31T12:03:20.000Z</time>
      </trkpt>
      <trkpt lat="45.51279" lon="6.12908">
        <ele>345.39999389648</ele>
        <time>2021-12-31T12:03:26.000Z</time>
      </trkpt>
      <trkpt lat="45.51274" lon="6.12906">
        <ele>345.79998779297</ele>
        <time>2021-12-31T12:03:28.000Z</time>
      </trkpt>
      <trkpt lat="45.51263" lon="6.12903">
        <ele>346.39999389648</ele>
        <time>2021-12-31T12:03:33.000Z</time>
      </trkpt>
      <trkpt lat="45.5126" lon="6.12903">
        <ele>346.60000610352</ele>
        <time>2021-12-31T12:03:34.000Z</time>
      </trkpt>
      <trkpt lat="45.51257" lon="6.12903">
        <ele>346.79998779297</ele>
        <time>2021-12-31T12:03:35.000Z</time>
      </trkpt>
      <trkpt lat="45.51244" lon="6.129">
        <ele>347.79998779297</ele>
        <time>2021-12-31T12:03:41.000Z</time>
      </trkpt>
      <trkpt lat="45.5123" lon="6.12899">
        <ele>349.20001220703</ele>
        <time>2021-12-31T12:03:48.000Z</time>
      </trkpt>
      <trkpt lat="45.51219" lon="6.12898">
        <ele>350.39999389648</ele>
        <time>2021-12-31T12:03:53.000Z</time>
      </trkpt>
      <trkpt lat="45.51217" lon="6.12899">
        <ele>350.60000610352</ele>
        <time>2021-12-31T12:03:54.000Z</time>
      </trkpt>
      <trkpt lat="45.51215" lon="6.12899">
        <ele>350.60000610352</ele>
        <time>2021-12-31T12:03:55.000Z</time>
      </trkpt>
      <trkpt lat="45.51206" lon="6.12903">
        <ele>351.20001220703</ele>
        <time>2021-12-31T12:03:59.000Z</time>
      </trkpt>
      <trkpt lat="45.51201" lon="6.12905">
        <ele>351.60000610352</ele>
        <time>2021-12-31T12:04:01.000Z</time>
      </trkpt>
      <trkpt lat="45.51191" lon="6.12913">
        <ele>352.20001220703</ele>
        <time>2021-12-31T12:04:06.000Z</time>
      </trkpt>
      <trkpt lat="45.51185" lon="6.12917">
        <ele>352.60000610352</ele>
        <time>2021-12-31T12:04:09.000Z</time>
      </trkpt>
      <trkpt lat="45.5118" lon="6.12922">
        <ele>353.20001220703</ele>
        <time>2021-12-31T12:04:12.000Z</time>
      </trkpt>
      <trkpt lat="45.51176" lon="6.12926">
        <ele>353.79998779297</ele>
        <time>2021-12-31T12:04:14.000Z</time>
      </trkpt>
      <trkpt lat="45.51164" lon="6.12938">
        <ele>354.79998779297</ele>
        <time>2021-12-31T12:04:20.000Z</time>
      </trkpt>
      <trkpt lat="45.51162" lon="6.12939">
        <ele>354.79998779297</ele>
        <time>2021-12-31T12:04:21.000Z</time>
      </trkpt>
      <trkpt lat="45.51149" lon="6.12951">
        <ele>356</ele>
        <time>2021-12-31T12:04:27.000Z</time>
      </trkpt>
      <trkpt lat="45.51143" lon="6.12957">
        <ele>356.60000610352</ele>
        <time>2021-12-31T12:04:30.000Z</time>
      </trkpt>
      <trkpt lat="45.51137" lon="6.12963">
        <ele>357.20001220703</ele>
        <time>2021-12-31T12:04:33.000Z</time>
      </trkpt>
      <trkpt lat="45.51122" lon="6.12975">
        <ele>358.20001220703</ele>
        <time>2021-12-31T12:04:40.000Z</time>
      </trkpt>
      <trkpt lat="45.5112" lon="6.12977">
        <ele>358.39999389648</ele>
        <time>2021-12-31T12:04:41.000Z</time>
      </trkpt>
      <trkpt lat="45.51108" lon="6.12987">
        <ele>359.60000610352</ele>
        <time>2021-12-31T12:04:47.000Z</time>
      </trkpt>
      <trkpt lat="45.51103" lon="6.12993">
        <ele>360.20001220703</ele>
        <time>2021-12-31T12:04:50.000Z</time>
      </trkpt>
      <trkpt lat="45.51095" lon="6.12999">
        <ele>360.60000610352</ele>
        <time>2021-12-31T12:04:54.000Z</time>
      </trkpt>
      <trkpt lat="45.5109" lon="6.13008">
        <ele>361.60000610352</ele>
        <time>2021-12-31T12:04:58.000Z</time>
      </trkpt>
      <trkpt lat="45.51089" lon="6.13011">
        <ele>361.79998779297</ele>
        <time>2021-12-31T12:04:59.000Z</time>
      </trkpt>
      <trkpt lat="45.51088" lon="6.13024">
        <ele>363</ele>
        <time>2021-12-31T12:05:03.000Z</time>
      </trkpt>
      <trkpt lat="45.51089" lon="6.1303">
        <ele>363.39999389648</ele>
        <time>2021-12-31T12:05:05.000Z</time>
      </trkpt>
      <trkpt lat="45.51093" lon="6.13045">
        <ele>364</ele>
        <time>2021-12-31T12:05:09.000Z</time>
      </trkpt>
      <trkpt lat="45.51095" lon="6.13054">
        <ele>364.60000610352</ele>
        <time>2021-12-31T12:05:12.000Z</time>
      </trkpt>
      <trkpt lat="45.51098" lon="6.13067">
        <ele>365</ele>
        <time>2021-12-31T12:05:16.000Z</time>
      </trkpt>
      <trkpt lat="45.511" lon="6.13073">
        <ele>365.20001220703</ele>
        <time>2021-12-31T12:05:18.000Z</time>
      </trkpt>
      <trkpt lat="45.51103" lon="6.13085">
        <ele>366</ele>
        <time>2021-12-31T12:05:22.000Z</time>
      </trkpt>
      <trkpt lat="45.51104" lon="6.13088">
        <ele>366.20001220703</ele>
        <time>2021-12-31T12:05:23.000Z</time>
      </trkpt>
      <trkpt lat="45.51107" lon="6.13093">
        <ele>366.60000610352</ele>
        <time>2021-12-31T12:05:25.000Z</time>
      </trkpt>
      <trkpt lat="45.51111" lon="6.13102">
        <ele>367.20001220703</ele>
        <time>2021-12-31T12:05:28.000Z</time>
      </trkpt>
      <trkpt lat="45.51114" lon="6.13115">
        <ele>368.39999389648</ele>
        <time>2021-12-31T12:05:32.000Z</time>
      </trkpt>
      <trkpt lat="45.51114" lon="6.13119">
        <ele>368.60000610352</ele>
        <time>2021-12-31T12:05:33.000Z</time>
      </trkpt>
      <trkpt lat="45.51119" lon="6.13132">
        <ele>369.39999389648</ele>
        <time>2021-12-31T12:05:37.000Z</time>
      </trkpt>
      <trkpt lat="45.5112" lon="6.13142">
        <ele>369.79998779297</ele>
        <time>2021-12-31T12:05:40.000Z</time>
      </trkpt>
      <trkpt lat="45.51123" lon="6.13154">
        <ele>370.60000610352</ele>
        <time>2021-12-31T12:05:44.000Z</time>
      </trkpt>
      <trkpt lat="45.51125" lon="6.13162">
        <ele>371</ele>
        <time>2021-12-31T12:05:47.000Z</time>
      </trkpt>
      <trkpt lat="45.51129" lon="6.13174">
        <ele>371.60000610352</ele>
        <time>2021-12-31T12:05:52.000Z</time>
      </trkpt>
      <trkpt lat="45.51133" lon="6.13184">
        <ele>372.39999389648</ele>
        <time>2021-12-31T12:05:56.000Z</time>
      </trkpt>
      <trkpt lat="45.51134" lon="6.13186">
        <ele>372.60000610352</ele>
        <time>2021-12-31T12:05:57.000Z</time>
      </trkpt>
      <trkpt lat="45.51135" lon="6.13193">
        <ele>373.20001220703</ele>
        <time>2021-12-31T12:06:00.000Z</time>
      </trkpt>
      <trkpt lat="45.51135" lon="6.13198">
        <ele>373.60000610352</ele>
        <time>2021-12-31T12:06:02.000Z</time>
      </trkpt>
      <trkpt lat="45.51136" lon="6.13201">
        <ele>373.79998779297</ele>
        <time>2021-12-31T12:06:03.000Z</time>
      </trkpt>
      <trkpt lat="45.51136" lon="6.13206">
        <ele>374.20001220703</ele>
        <time>2021-12-31T12:06:05.000Z</time>
      </trkpt>
      <trkpt lat="45.51138" lon="6.13214">
        <ele>374.79998779297</ele>
        <time>2021-12-31T12:06:08.000Z</time>
      </trkpt>
      <trkpt lat="45.51138" lon="6.13217">
        <ele>375</ele>
        <time>2021-12-31T12:06:09.000Z</time>
      </trkpt>
      <trkpt lat="45.51138" lon="6.13237">
        <ele>375.39999389648</ele>
        <time>2021-12-31T12:06:14.000Z</time>
      </trkpt>
      <trkpt lat="45.51141" lon="6.1325">
        <ele>376</ele>
        <time>2021-12-31T12:06:17.000Z</time>
      </trkpt>
      <trkpt lat="45.51145" lon="6.13268">
        <ele>377</ele>
        <time>2021-12-31T12:06:22.000Z</time>
      </trkpt>
      <trkpt lat="45.51147" lon="6.13283">
        <ele>378.39999389648</ele>
        <time>2021-12-31T12:06:26.000Z</time>
      </trkpt>
      <trkpt lat="45.51153" lon="6.13293">
        <ele>378.79998779297</ele>
        <time>2021-12-31T12:06:30.000Z</time>
      </trkpt>
      <trkpt lat="45.51155" lon="6.13305">
        <ele>379.60000610352</ele>
        <time>2021-12-31T12:06:33.000Z</time>
      </trkpt>
      <trkpt lat="45.51156" lon="6.1332">
        <ele>380.39999389648</ele>
        <time>2021-12-31T12:06:37.000Z</time>
      </trkpt>
      <trkpt lat="45.51157" lon="6.13323">
        <ele>380.79998779297</ele>
        <time>2021-12-31T12:06:38.000Z</time>
      </trkpt>
      <trkpt lat="45.5116" lon="6.13336">
        <ele>381.60000610352</ele>
        <time>2021-12-31T12:06:43.000Z</time>
      </trkpt>
      <trkpt lat="45.51154" lon="6.13355">
        <ele>382.79998779297</ele>
        <time>2021-12-31T12:06:48.000Z</time>
      </trkpt>
      <trkpt lat="45.51155" lon="6.13357">
        <ele>383</ele>
        <time>2021-12-31T12:06:49.000Z</time>
      </trkpt>
      <trkpt lat="45.51155" lon="6.1336">
        <ele>383.20001220703</ele>
        <time>2021-12-31T12:06:50.000Z</time>
      </trkpt>
      <trkpt lat="45.51156" lon="6.13366">
        <ele>383.79998779297</ele>
        <time>2021-12-31T12:06:52.000Z</time>
      </trkpt>
      <trkpt lat="45.51153" lon="6.1337">
        <ele>384</ele>
        <time>2021-12-31T12:06:54.000Z</time>
      </trkpt>
      <trkpt lat="45.51157" lon="6.13378">
        <ele>385</ele>
        <time>2021-12-31T12:06:58.000Z</time>
      </trkpt>
      <trkpt lat="45.51161" lon="6.13398">
        <ele>386.20001220703</ele>
        <time>2021-12-31T12:07:05.000Z</time>
      </trkpt>
      <trkpt lat="45.51163" lon="6.13419">
        <ele>387.20001220703</ele>
        <time>2021-12-31T12:07:11.000Z</time>
      </trkpt>
      <trkpt lat="45.51163" lon="6.13422">
        <ele>387.39999389648</ele>
        <time>2021-12-31T12:07:12.000Z</time>
      </trkpt>
      <trkpt lat="45.51164" lon="6.13449">
        <ele>388.39999389648</ele>
        <time>2021-12-31T12:07:19.000Z</time>
      </trkpt>
      <trkpt lat="45.51166" lon="6.13461">
        <ele>389.39999389648</ele>
        <time>2021-12-31T12:07:23.000Z</time>
      </trkpt>
      <trkpt lat="45.51167" lon="6.13464">
        <ele>389.60000610352</ele>
        <time>2021-12-31T12:07:24.000Z</time>
      </trkpt>
      <trkpt lat="45.5117" lon="6.13485">
        <ele>390.60000610352</ele>
        <time>2021-12-31T12:07:30.000Z</time>
      </trkpt>
      <trkpt lat="45.51171" lon="6.13498">
        <ele>391.20001220703</ele>
        <time>2021-12-31T12:07:34.000Z</time>
      </trkpt>
      <trkpt lat="45.51173" lon="6.13514">
        <ele>391.79998779297</ele>
        <time>2021-12-31T12:07:39.000Z</time>
      </trkpt>
      <trkpt lat="45.51174" lon="6.13517">
        <ele>391.79998779297</ele>
        <time>2021-12-31T12:07:40.000Z</time>
      </trkpt>
      <trkpt lat="45.51176" lon="6.13527">
        <ele>392.39999389648</ele>
        <time>2021-12-31T12:07:43.000Z</time>
      </trkpt>
      <trkpt lat="45.51177" lon="6.13542">
        <ele>393.20001220703</ele>
        <time>2021-12-31T12:07:47.000Z</time>
      </trkpt>
      <trkpt lat="45.51179" lon="6.1356">
        <ele>393.60000610352</ele>
        <time>2021-12-31T12:07:52.000Z</time>
      </trkpt>
      <trkpt lat="45.5118" lon="6.1357">
        <ele>394.20001220703</ele>
        <time>2021-12-31T12:07:55.000Z</time>
      </trkpt>
      <trkpt lat="45.51183" lon="6.13597">
        <ele>395.20001220703</ele>
        <time>2021-12-31T12:08:02.000Z</time>
      </trkpt>
      <trkpt lat="45.51183" lon="6.13601">
        <ele>395.20001220703</ele>
        <time>2021-12-31T12:08:03.000Z</time>
      </trkpt>
      <trkpt lat="45.51188" lon="6.13626">
        <ele>396</ele>
        <time>2021-12-31T12:08:10.000Z</time>
      </trkpt>
      <trkpt lat="45.51189" lon="6.1363">
        <ele>396.20001220703</ele>
        <time>2021-12-31T12:08:11.000Z</time>
      </trkpt>
      <trkpt lat="45.51197" lon="6.13646">
        <ele>397.20001220703</ele>
        <time>2021-12-31T12:08:16.000Z</time>
      </trkpt>
      <trkpt lat="45.51209" lon="6.13672">
        <ele>398.39999389648</ele>
        <time>2021-12-31T12:08:24.000Z</time>
      </trkpt>
      <trkpt lat="45.51213" lon="6.13682">
        <ele>398.60000610352</ele>
        <time>2021-12-31T12:08:27.000Z</time>
      </trkpt>
      <trkpt lat="45.51223" lon="6.13704">
        <ele>399.39999389648</ele>
        <time>2021-12-31T12:08:34.000Z</time>
      </trkpt>
      <trkpt lat="45.51227" lon="6.13712">
        <ele>399.79998779297</ele>
        <time>2021-12-31T12:08:37.000Z</time>
      </trkpt>
      <trkpt lat="45.51236" lon="6.13727">
        <ele>400.39999389648</ele>
        <time>2021-12-31T12:08:42.000Z</time>
      </trkpt>
      <trkpt lat="45.51241" lon="6.13735">
        <ele>400.79998779297</ele>
        <time>2021-12-31T12:08:45.000Z</time>
      </trkpt>
      <trkpt lat="45.5125" lon="6.13747">
        <ele>401.60000610352</ele>
        <time>2021-12-31T12:08:49.000Z</time>
      </trkpt>
      <trkpt lat="45.51259" lon="6.13764">
        <ele>402.79998779297</ele>
        <time>2021-12-31T12:08:55.000Z</time>
      </trkpt>
      <trkpt lat="45.51267" lon="6.13777">
        <ele>403.79998779297</ele>
        <time>2021-12-31T12:09:00.000Z</time>
      </trkpt>
      <trkpt lat="45.51276" lon="6.13793">
        <ele>405</ele>
        <time>2021-12-31T12:09:06.000Z</time>
      </trkpt>
      <trkpt lat="45.51288" lon="6.1381">
        <ele>406</ele>
        <time>2021-12-31T12:09:13.000Z</time>
      </trkpt>
      <trkpt lat="45.51293" lon="6.13818">
        <ele>406.60000610352</ele>
        <time>2021-12-31T12:09:16.000Z</time>
      </trkpt>
      <trkpt lat="45.51302" lon="6.1383">
        <ele>407.39999389648</ele>
        <time>2021-12-31T12:09:21.000Z</time>
      </trkpt>
      <trkpt lat="45.51312" lon="6.1384">
        <ele>408.39999389648</ele>
        <time>2021-12-31T12:09:26.000Z</time>
      </trkpt>
      <trkpt lat="45.51316" lon="6.13845">
        <ele>408.60000610352</ele>
        <time>2021-12-31T12:09:28.000Z</time>
      </trkpt>
      <trkpt lat="45.51325" lon="6.13854">
        <ele>409.79998779297</ele>
        <time>2021-12-31T12:09:33.000Z</time>
      </trkpt>
      <trkpt lat="45.51336" lon="6.13868">
        <ele>410.79998779297</ele>
        <time>2021-12-31T12:09:39.000Z</time>
      </trkpt>
      <trkpt lat="45.5134" lon="6.13873">
        <ele>411.20001220703</ele>
        <time>2021-12-31T12:09:41.000Z</time>
      </trkpt>
      <trkpt lat="45.51345" lon="6.13881">
        <ele>411.60000610352</ele>
        <time>2021-12-31T12:09:44.000Z</time>
      </trkpt>
      <trkpt lat="45.51346" lon="6.13884">
        <ele>411.79998779297</ele>
        <time>2021-12-31T12:09:45.000Z</time>
      </trkpt>
      <trkpt lat="45.51353" lon="6.13902">
        <ele>412.60000610352</ele>
        <time>2021-12-31T12:09:51.000Z</time>
      </trkpt>
      <trkpt lat="45.51354" lon="6.13905">
        <ele>412.79998779297</ele>
        <time>2021-12-31T12:09:52.000Z</time>
      </trkpt>
      <trkpt lat="45.5136" lon="6.1392">
        <ele>414</ele>
        <time>2021-12-31T12:09:57.000Z</time>
      </trkpt>
      <trkpt lat="45.51366" lon="6.13936">
        <ele>414.79998779297</ele>
        <time>2021-12-31T12:10:02.000Z</time>
      </trkpt>
      <trkpt lat="45.5137" lon="6.13947">
        <ele>415</ele>
        <time>2021-12-31T12:10:05.000Z</time>
      </trkpt>
      <trkpt lat="45.51378" lon="6.13969">
        <ele>416.20001220703</ele>
        <time>2021-12-31T12:10:12.000Z</time>
      </trkpt>
      <trkpt lat="45.51384" lon="6.13992">
        <ele>417</ele>
        <time>2021-12-31T12:10:18.000Z</time>
      </trkpt>
      <trkpt lat="45.51386" lon="6.13999">
        <ele>417.39999389648</ele>
        <time>2021-12-31T12:10:20.000Z</time>
      </trkpt>
      <trkpt lat="45.51393" lon="6.14017">
        <ele>417.79998779297</ele>
        <time>2021-12-31T12:10:24.000Z</time>
      </trkpt>
      <trkpt lat="45.51406" lon="6.14044">
        <ele>418.39999389648</ele>
        <time>2021-12-31T12:10:31.000Z</time>
      </trkpt>
      <trkpt lat="45.51418" lon="6.14068">
        <ele>418.60000610352</ele>
        <time>2021-12-31T12:10:37.000Z</time>
      </trkpt>
      <trkpt lat="45.5142" lon="6.14072">
        <ele>418.60000610352</ele>
        <time>2021-12-31T12:10:38.000Z</time>
      </trkpt>
      <trkpt lat="45.5143" lon="6.14091">
        <ele>419</ele>
        <time>2021-12-31T12:10:43.000Z</time>
      </trkpt>
      <trkpt lat="45.51441" lon="6.14116">
        <ele>419.20001220703</ele>
        <time>2021-12-31T12:10:49.000Z</time>
      </trkpt>
      <trkpt lat="45.51452" lon="6.14139">
        <ele>419.39999389648</ele>
        <time>2021-12-31T12:10:55.000Z</time>
      </trkpt>
      <trkpt lat="45.51457" lon="6.14147">
        <ele>419.60000610352</ele>
        <time>2021-12-31T12:10:57.000Z</time>
      </trkpt>
      <trkpt lat="45.51463" lon="6.14158">
        <ele>420</ele>
        <time>2021-12-31T12:11:00.000Z</time>
      </trkpt>
      <trkpt lat="45.51486" lon="6.14185">
        <ele>420.60000610352</ele>
        <time>2021-12-31T12:11:07.000Z</time>
      </trkpt>
      <trkpt lat="45.51491" lon="6.14188">
        <ele>420.60000610352</ele>
        <time>2021-12-31T12:11:08.000Z</time>
      </trkpt>
      <trkpt lat="45.51502" lon="6.14201">
        <ele>421.20001220703</ele>
        <time>2021-12-31T12:11:12.000Z</time>
      </trkpt>
      <trkpt lat="45.51501" lon="6.14204">
        <ele>421.20001220703</ele>
        <time>2021-12-31T12:11:13.000Z</time>
      </trkpt>
      <trkpt lat="45.51499" lon="6.14207">
        <ele>421.39999389648</ele>
        <time>2021-12-31T12:11:14.000Z</time>
      </trkpt>
      <trkpt lat="45.51495" lon="6.14209">
        <ele>421.60000610352</ele>
        <time>2021-12-31T12:11:16.000Z</time>
      </trkpt>
      <trkpt lat="45.51493" lon="6.14207">
        <ele>421.79998779297</ele>
        <time>2021-12-31T12:11:17.000Z</time>
      </trkpt>
      <trkpt lat="45.51487" lon="6.14201">
        <ele>422.20001220703</ele>
        <time>2021-12-31T12:11:20.000Z</time>
      </trkpt>
      <trkpt lat="45.51484" lon="6.14195">
        <ele>422.79998779297</ele>
        <time>2021-12-31T12:11:22.000Z</time>
      </trkpt>
      <trkpt lat="45.51478" lon="6.14189">
        <ele>423.39999389648</ele>
        <time>2021-12-31T12:11:25.000Z</time>
      </trkpt>
      <trkpt lat="45.51476" lon="6.14187">
        <ele>423.79998779297</ele>
        <time>2021-12-31T12:11:26.000Z</time>
      </trkpt>
      <trkpt lat="45.51469" lon="6.14178">
        <ele>424.60000610352</ele>
        <time>2021-12-31T12:11:30.000Z</time>
      </trkpt>
      <trkpt lat="45.51467" lon="6.14176">
        <ele>424.79998779297</ele>
        <time>2021-12-31T12:11:31.000Z</time>
      </trkpt>
      <trkpt lat="45.51465" lon="6.14174">
        <ele>425</ele>
        <time>2021-12-31T12:11:32.000Z</time>
      </trkpt>
      <trkpt lat="45.51461" lon="6.14171">
        <ele>425.60000610352</ele>
        <time>2021-12-31T12:11:34.000Z</time>
      </trkpt>
      <trkpt lat="45.51454" lon="6.14166">
        <ele>426.20001220703</ele>
        <time>2021-12-31T12:11:37.000Z</time>
      </trkpt>
      <trkpt lat="45.51452" lon="6.14165">
        <ele>426.39999389648</ele>
        <time>2021-12-31T12:11:38.000Z</time>
      </trkpt>
      <trkpt lat="45.5145" lon="6.14165">
        <ele>426.60000610352</ele>
        <time>2021-12-31T12:11:39.000Z</time>
      </trkpt>
      <trkpt lat="45.51449" lon="6.14163">
        <ele>426.79998779297</ele>
        <time>2021-12-31T12:11:40.000Z</time>
      </trkpt>
      <trkpt lat="45.51445" lon="6.14162">
        <ele>427.20001220703</ele>
        <time>2021-12-31T12:11:42.000Z</time>
      </trkpt>
      <trkpt lat="45.51442" lon="6.14161">
        <ele>427.79998779297</ele>
        <time>2021-12-31T12:11:43.000Z</time>
      </trkpt>
      <trkpt lat="45.51437" lon="6.14157">
        <ele>428.20001220703</ele>
        <time>2021-12-31T12:11:45.000Z</time>
      </trkpt>
      <trkpt lat="45.5143" lon="6.14153">
        <ele>429</ele>
        <time>2021-12-31T12:11:48.000Z</time>
      </trkpt>
      <trkpt lat="45.51428" lon="6.14151">
        <ele>429.39999389648</ele>
        <time>2021-12-31T12:11:49.000Z</time>
      </trkpt>
      <trkpt lat="45.51421" lon="6.14146">
        <ele>430.20001220703</ele>
        <time>2021-12-31T12:11:52.000Z</time>
      </trkpt>
      <trkpt lat="45.5142" lon="6.14145">
        <ele>430.60000610352</ele>
        <time>2021-12-31T12:11:53.000Z</time>
      </trkpt>
      <trkpt lat="45.51418" lon="6.14142">
        <ele>430.60000610352</ele>
        <time>2021-12-31T12:11:54.000Z</time>
      </trkpt>
      <trkpt lat="45.51407" lon="6.14136">
        <ele>431.60000610352</ele>
        <time>2021-12-31T12:12:00.000Z</time>
      </trkpt>
      <trkpt lat="45.51397" lon="6.14127">
        <ele>432.60000610352</ele>
        <time>2021-12-31T12:12:05.000Z</time>
      </trkpt>
      <trkpt lat="45.51388" lon="6.1412">
        <ele>433.60000610352</ele>
        <time>2021-12-31T12:12:10.000Z</time>
      </trkpt>
      <trkpt lat="45.5138" lon="6.14114">
        <ele>434.20001220703</ele>
        <time>2021-12-31T12:12:13.000Z</time>
      </trkpt>
      <trkpt lat="45.51374" lon="6.1411">
        <ele>434.79998779297</ele>
        <time>2021-12-31T12:12:16.000Z</time>
      </trkpt>
      <trkpt lat="45.51372" lon="6.14108">
        <ele>434.79998779297</ele>
        <time>2021-12-31T12:12:17.000Z</time>
      </trkpt>
      <trkpt lat="45.51369" lon="6.14105">
        <ele>435</ele>
        <time>2021-12-31T12:12:19.000Z</time>
      </trkpt>
      <trkpt lat="45.51361" lon="6.14099">
        <ele>436</ele>
        <time>2021-12-31T12:12:23.000Z</time>
      </trkpt>
      <trkpt lat="45.51357" lon="6.14095">
        <ele>436.39999389648</ele>
        <time>2021-12-31T12:12:25.000Z</time>
      </trkpt>
      <trkpt lat="45.51348" lon="6.14092">
        <ele>437</ele>
        <time>2021-12-31T12:12:30.000Z</time>
      </trkpt>
      <trkpt lat="45.51346" lon="6.14091">
        <ele>437.20001220703</ele>
        <time>2021-12-31T12:12:31.000Z</time>
      </trkpt>
      <trkpt lat="45.5133" lon="6.14086">
        <ele>438</ele>
        <time>2021-12-31T12:12:39.000Z</time>
      </trkpt>
      <trkpt lat="45.51328" lon="6.14086">
        <ele>438.20001220703</ele>
        <time>2021-12-31T12:12:40.000Z</time>
      </trkpt>
      <trkpt lat="45.51324" lon="6.14085">
        <ele>438.60000610352</ele>
        <time>2021-12-31T12:12:42.000Z</time>
      </trkpt>
      <trkpt lat="45.51322" lon="6.14085">
        <ele>438.79998779297</ele>
        <time>2021-12-31T12:12:43.000Z</time>
      </trkpt>
      <trkpt lat="45.51316" lon="6.14081">
        <ele>439.39999389648</ele>
        <time>2021-12-31T12:12:46.000Z</time>
      </trkpt>
      <trkpt lat="45.5131" lon="6.14081">
        <ele>440</ele>
        <time>2021-12-31T12:12:49.000Z</time>
      </trkpt>
      <trkpt lat="45.51306" lon="6.14082">
        <ele>440.39999389648</ele>
        <time>2021-12-31T12:12:51.000Z</time>
      </trkpt>
      <trkpt lat="45.51303" lon="6.14082">
        <ele>440.79998779297</ele>
        <time>2021-12-31T12:12:53.000Z</time>
      </trkpt>
      <trkpt lat="45.51298" lon="6.14081">
        <ele>441.39999389648</ele>
        <time>2021-12-31T12:12:55.000Z</time>
      </trkpt>
      <trkpt lat="45.51294" lon="6.14079">
        <ele>441.60000610352</ele>
        <time>2021-12-31T12:12:56.000Z</time>
      </trkpt>
      <trkpt lat="45.51278" lon="6.14069">
        <ele>442.79998779297</ele>
        <time>2021-12-31T12:13:02.000Z</time>
      </trkpt>
      <trkpt lat="45.51276" lon="6.14066">
        <ele>443</ele>
        <time>2021-12-31T12:13:03.000Z</time>
      </trkpt>
      <trkpt lat="45.51272" lon="6.14064">
        <ele>443.39999389648</ele>
        <time>2021-12-31T12:13:05.000Z</time>
      </trkpt>
      <trkpt lat="45.5127" lon="6.14062">
        <ele>443.39999389648</ele>
        <time>2021-12-31T12:13:06.000Z</time>
      </trkpt>
      <trkpt lat="45.5127" lon="6.1406">
        <ele>443.60000610352</ele>
        <time>2021-12-31T12:13:07.000Z</time>
      </trkpt>
      <trkpt lat="45.51269" lon="6.14055">
        <ele>444</ele>
        <time>2021-12-31T12:13:09.000Z</time>
      </trkpt>
      <trkpt lat="45.51264" lon="6.1405">
        <ele>444.60000610352</ele>
        <time>2021-12-31T12:13:12.000Z</time>
      </trkpt>
      <trkpt lat="45.51259" lon="6.14045">
        <ele>445.20001220703</ele>
        <time>2021-12-31T12:13:15.000Z</time>
      </trkpt>
      <trkpt lat="45.51256" lon="6.14042">
        <ele>445.39999389648</ele>
        <time>2021-12-31T12:13:17.000Z</time>
      </trkpt>
      <trkpt lat="45.51255" lon="6.14039">
        <ele>445.39999389648</ele>
        <time>2021-12-31T12:13:18.000Z</time>
      </trkpt>
      <trkpt lat="45.5125" lon="6.14032">
        <ele>446.20001220703</ele>
        <time>2021-12-31T12:13:22.000Z</time>
      </trkpt>
      <trkpt lat="45.51247" lon="6.14029">
        <ele>446.39999389648</ele>
        <time>2021-12-31T12:13:24.000Z</time>
      </trkpt>
      <trkpt lat="45.51241" lon="6.14017">
        <ele>447.20001220703</ele>
        <time>2021-12-31T12:13:29.000Z</time>
      </trkpt>
      <trkpt lat="45.51239" lon="6.14013">
        <ele>447.60000610352</ele>
        <time>2021-12-31T12:13:31.000Z</time>
      </trkpt>
      <trkpt lat="45.51237" lon="6.1401">
        <ele>448</ele>
        <time>2021-12-31T12:13:33.000Z</time>
      </trkpt>
      <trkpt lat="45.51234" lon="6.14002">
        <ele>448.39999389648</ele>
        <time>2021-12-31T12:13:36.000Z</time>
      </trkpt>
      <trkpt lat="45.51232" lon="6.13998">
        <ele>448.79998779297</ele>
        <time>2021-12-31T12:13:37.000Z</time>
      </trkpt>
      <trkpt lat="45.51227" lon="6.13984">
        <ele>449.60000610352</ele>
        <time>2021-12-31T12:13:41.000Z</time>
      </trkpt>
      <trkpt lat="45.51226" lon="6.13983">
        <ele>450</ele>
        <time>2021-12-31T12:13:42.000Z</time>
      </trkpt>
      <trkpt lat="45.51224" lon="6.13978">
        <ele>450.39999389648</ele>
        <time>2021-12-31T12:13:44.000Z</time>
      </trkpt>
      <trkpt lat="45.51223" lon="6.13972">
        <ele>450.60000610352</ele>
        <time>2021-12-31T12:13:46.000Z</time>
      </trkpt>
      <trkpt lat="45.51218" lon="6.13962">
        <ele>451.20001220703</ele>
        <time>2021-12-31T12:13:51.000Z</time>
      </trkpt>
      <trkpt lat="45.51218" lon="6.13952">
        <ele>451.79998779297</ele>
        <time>2021-12-31T12:13:54.000Z</time>
      </trkpt>
      <trkpt lat="45.51217" lon="6.13945">
        <ele>452.20001220703</ele>
        <time>2021-12-31T12:13:57.000Z</time>
      </trkpt>
      <trkpt lat="45.51213" lon="6.13935">
        <ele>453.20001220703</ele>
        <time>2021-12-31T12:14:01.000Z</time>
      </trkpt>
      <trkpt lat="45.51209" lon="6.13929">
        <ele>453.39999389648</ele>
        <time>2021-12-31T12:14:04.000Z</time>
      </trkpt>
      <trkpt lat="45.51205" lon="6.13927">
        <ele>453.79998779297</ele>
        <time>2021-12-31T12:14:06.000Z</time>
      </trkpt>
      <trkpt lat="45.51201" lon="6.13925">
        <ele>454</ele>
        <time>2021-12-31T12:14:08.000Z</time>
      </trkpt>
      <trkpt lat="45.512" lon="6.13926">
        <ele>454.39999389648</ele>
        <time>2021-12-31T12:14:09.000Z</time>
      </trkpt>
      <trkpt lat="45.5119" lon="6.13936">
        <ele>455.39999389648</ele>
        <time>2021-12-31T12:14:15.000Z</time>
      </trkpt>
      <trkpt lat="45.51189" lon="6.13938">
        <ele>455.60000610352</ele>
        <time>2021-12-31T12:14:16.000Z</time>
      </trkpt>
      <trkpt lat="45.51187" lon="6.13954">
        <ele>456.60000610352</ele>
        <time>2021-12-31T12:14:22.000Z</time>
      </trkpt>
      <trkpt lat="45.51187" lon="6.13957">
        <ele>456.79998779297</ele>
        <time>2021-12-31T12:14:23.000Z</time>
      </trkpt>
      <trkpt lat="45.5119" lon="6.13967">
        <ele>457.39999389648</ele>
        <time>2021-12-31T12:14:27.000Z</time>
      </trkpt>
      <trkpt lat="45.51192" lon="6.13973">
        <ele>458</ele>
        <time>2021-12-31T12:14:30.000Z</time>
      </trkpt>
      <trkpt lat="45.51193" lon="6.13976">
        <ele>458.20001220703</ele>
        <time>2021-12-31T12:14:31.000Z</time>
      </trkpt>
      <trkpt lat="45.51194" lon="6.13981">
        <ele>458.60000610352</ele>
        <time>2021-12-31T12:14:33.000Z</time>
      </trkpt>
      <trkpt lat="45.51196" lon="6.13987">
        <ele>459</ele>
        <time>2021-12-31T12:14:36.000Z</time>
      </trkpt>
      <trkpt lat="45.512" lon="6.13996">
        <ele>459.79998779297</ele>
        <time>2021-12-31T12:14:40.000Z</time>
      </trkpt>
      <trkpt lat="45.51201" lon="6.13999">
        <ele>460.20001220703</ele>
        <time>2021-12-31T12:14:41.000Z</time>
      </trkpt>
      <trkpt lat="45.51205" lon="6.1401">
        <ele>460.60000610352</ele>
        <time>2021-12-31T12:14:45.000Z</time>
      </trkpt>
      <trkpt lat="45.51207" lon="6.14012">
        <ele>460.79998779297</ele>
        <time>2021-12-31T12:14:46.000Z</time>
      </trkpt>
      <trkpt lat="45.5121" lon="6.14016">
        <ele>461</ele>
        <time>2021-12-31T12:14:48.000Z</time>
      </trkpt>
      <trkpt lat="45.51214" lon="6.14021">
        <ele>461.39999389648</ele>
        <time>2021-12-31T12:14:50.000Z</time>
      </trkpt>
      <trkpt lat="45.51215" lon="6.14024">
        <ele>461.39999389648</ele>
        <time>2021-12-31T12:14:51.000Z</time>
      </trkpt>
      <trkpt lat="45.51223" lon="6.14039">
        <ele>462.60000610352</ele>
        <time>2021-12-31T12:14:57.000Z</time>
      </trkpt>
      <trkpt lat="45.51224" lon="6.14041">
        <ele>462.79998779297</ele>
        <time>2021-12-31T12:14:58.000Z</time>
      </trkpt>
      <trkpt lat="45.51229" lon="6.14051">
        <ele>463.60000610352</ele>
        <time>2021-12-31T12:15:03.000Z</time>
      </trkpt>
      <trkpt lat="45.51231" lon="6.14059">
        <ele>463.79998779297</ele>
        <time>2021-12-31T12:15:06.000Z</time>
      </trkpt>
      <trkpt lat="45.51236" lon="6.14069">
        <ele>464.60000610352</ele>
        <time>2021-12-31T12:15:10.000Z</time>
      </trkpt>
      <trkpt lat="45.51237" lon="6.14074">
        <ele>464.79998779297</ele>
        <time>2021-12-31T12:15:12.000Z</time>
      </trkpt>
      <trkpt lat="45.51243" lon="6.14095">
        <ele>465.79998779297</ele>
        <time>2021-12-31T12:15:19.000Z</time>
      </trkpt>
      <trkpt lat="45.51244" lon="6.14098">
        <ele>466</ele>
        <time>2021-12-31T12:15:20.000Z</time>
      </trkpt>
      <trkpt lat="45.51249" lon="6.1412">
        <ele>466.60000610352</ele>
        <time>2021-12-31T12:15:27.000Z</time>
      </trkpt>
      <trkpt lat="45.51252" lon="6.14129">
        <ele>467.20001220703</ele>
        <time>2021-12-31T12:15:30.000Z</time>
      </trkpt>
      <trkpt lat="45.51258" lon="6.14142">
        <ele>468.20001220703</ele>
        <time>2021-12-31T12:15:35.000Z</time>
      </trkpt>
      <trkpt lat="45.51259" lon="6.14144">
        <ele>468.39999389648</ele>
        <time>2021-12-31T12:15:36.000Z</time>
      </trkpt>
      <trkpt lat="45.5127" lon="6.1416">
        <ele>469.39999389648</ele>
        <time>2021-12-31T12:15:43.000Z</time>
      </trkpt>
      <trkpt lat="45.51271" lon="6.14162">
        <ele>469.79998779297</ele>
        <time>2021-12-31T12:15:44.000Z</time>
      </trkpt>
      <trkpt lat="45.51279" lon="6.14169">
        <ele>470.79998779297</ele>
        <time>2021-12-31T12:15:49.000Z</time>
      </trkpt>
      <trkpt lat="45.51283" lon="6.14171">
        <ele>471.39999389648</ele>
        <time>2021-12-31T12:15:51.000Z</time>
      </trkpt>
      <trkpt lat="45.51289" lon="6.14171">
        <ele>472.20001220703</ele>
        <time>2021-12-31T12:15:54.000Z</time>
      </trkpt>
      <trkpt lat="45.51297" lon="6.1417">
        <ele>472.79998779297</ele>
        <time>2021-12-31T12:15:58.000Z</time>
      </trkpt>
      <trkpt lat="45.51301" lon="6.14168">
        <ele>473.20001220703</ele>
        <time>2021-12-31T12:16:00.000Z</time>
      </trkpt>
      <trkpt lat="45.5131" lon="6.14166">
        <ele>474</ele>
        <time>2021-12-31T12:16:05.000Z</time>
      </trkpt>
      <trkpt lat="45.51312" lon="6.14166">
        <ele>474.39999389648</ele>
        <time>2021-12-31T12:16:06.000Z</time>
      </trkpt>
      <trkpt lat="45.51323" lon="6.14169">
        <ele>475.39999389648</ele>
        <time>2021-12-31T12:16:11.000Z</time>
      </trkpt>
      <trkpt lat="45.51327" lon="6.14171">
        <ele>475.79998779297</ele>
        <time>2021-12-31T12:16:13.000Z</time>
      </trkpt>
      <trkpt lat="45.51334" lon="6.14177">
        <ele>476.60000610352</ele>
        <time>2021-12-31T12:16:17.000Z</time>
      </trkpt>
      <trkpt lat="45.51338" lon="6.14184">
        <ele>477</ele>
        <time>2021-12-31T12:16:20.000Z</time>
      </trkpt>
      <trkpt lat="45.51339" lon="6.1419">
        <ele>477.20001220703</ele>
        <time>2021-12-31T12:16:22.000Z</time>
      </trkpt>
      <trkpt lat="45.51338" lon="6.14194">
        <ele>477.39999389648</ele>
        <time>2021-12-31T12:16:24.000Z</time>
      </trkpt>
      <trkpt lat="45.51337" lon="6.14196">
        <ele>477.60000610352</ele>
        <time>2021-12-31T12:16:25.000Z</time>
      </trkpt>
      <trkpt lat="45.51336" lon="6.14198">
        <ele>477.79998779297</ele>
        <time>2021-12-31T12:16:26.000Z</time>
      </trkpt>
      <trkpt lat="45.51334" lon="6.14202">
        <ele>478</ele>
        <time>2021-12-31T12:16:28.000Z</time>
      </trkpt>
      <trkpt lat="45.51329" lon="6.14207">
        <ele>478.39999389648</ele>
        <time>2021-12-31T12:16:31.000Z</time>
      </trkpt>
      <trkpt lat="45.51326" lon="6.14211">
        <ele>479</ele>
        <time>2021-12-31T12:16:33.000Z</time>
      </trkpt>
      <trkpt lat="45.51319" lon="6.14221">
        <ele>480</ele>
        <time>2021-12-31T12:16:38.000Z</time>
      </trkpt>
      <trkpt lat="45.51316" lon="6.14224">
        <ele>480.20001220703</ele>
        <time>2021-12-31T12:16:39.000Z</time>
      </trkpt>
      <trkpt lat="45.51307" lon="6.1424">
        <ele>481</ele>
        <time>2021-12-31T12:16:45.000Z</time>
      </trkpt>
      <trkpt lat="45.51305" lon="6.14242">
        <ele>481.20001220703</ele>
        <time>2021-12-31T12:16:46.000Z</time>
      </trkpt>
      <trkpt lat="45.51296" lon="6.14253">
        <ele>482.20001220703</ele>
        <time>2021-12-31T12:16:51.000Z</time>
      </trkpt>
      <trkpt lat="45.51294" lon="6.14258">
        <ele>482.60000610352</ele>
        <time>2021-12-31T12:16:53.000Z</time>
      </trkpt>
      <trkpt lat="45.51287" lon="6.14269">
        <ele>483.60000610352</ele>
        <time>2021-12-31T12:16:58.000Z</time>
      </trkpt>
      <trkpt lat="45.51286" lon="6.14272">
        <ele>483.60000610352</ele>
        <time>2021-12-31T12:16:59.000Z</time>
      </trkpt>
      <trkpt lat="45.51283" lon="6.14277">
        <ele>484.20001220703</ele>
        <time>2021-12-31T12:17:01.000Z</time>
      </trkpt>
      <trkpt lat="45.51281" lon="6.14283">
        <ele>484.60000610352</ele>
        <time>2021-12-31T12:17:03.000Z</time>
      </trkpt>
      <trkpt lat="45.51279" lon="6.1429">
        <ele>485.20001220703</ele>
        <time>2021-12-31T12:17:06.000Z</time>
      </trkpt>
      <trkpt lat="45.51276" lon="6.14298">
        <ele>485.79998779297</ele>
        <time>2021-12-31T12:17:09.000Z</time>
      </trkpt>
      <trkpt lat="45.51274" lon="6.14303">
        <ele>486.39999389648</ele>
        <time>2021-12-31T12:17:12.000Z</time>
      </trkpt>
      <trkpt lat="45.51273" lon="6.14306">
        <ele>486.79998779297</ele>
        <time>2021-12-31T12:17:13.000Z</time>
      </trkpt>
      <trkpt lat="45.51267" lon="6.14316">
        <ele>487.79998779297</ele>
        <time>2021-12-31T12:17:18.000Z</time>
      </trkpt>
      <trkpt lat="45.51265" lon="6.14321">
        <ele>488</ele>
        <time>2021-12-31T12:17:20.000Z</time>
      </trkpt>
      <trkpt lat="45.51261" lon="6.14337">
        <ele>489</ele>
        <time>2021-12-31T12:17:25.000Z</time>
      </trkpt>
      <trkpt lat="45.5126" lon="6.1434">
        <ele>489</ele>
        <time>2021-12-31T12:17:26.000Z</time>
      </trkpt>
      <trkpt lat="45.51256" lon="6.14354">
        <ele>489.79998779297</ele>
        <time>2021-12-31T12:17:32.000Z</time>
      </trkpt>
      <trkpt lat="45.51253" lon="6.14362">
        <ele>490.20001220703</ele>
        <time>2021-12-31T12:17:35.000Z</time>
      </trkpt>
      <trkpt lat="45.51249" lon="6.1437">
        <ele>490.60000610352</ele>
        <time>2021-12-31T12:17:39.000Z</time>
      </trkpt>
      <trkpt lat="45.51245" lon="6.14376">
        <ele>491.39999389648</ele>
        <time>2021-12-31T12:17:42.000Z</time>
      </trkpt>
      <trkpt lat="45.51239" lon="6.14381">
        <ele>492</ele>
        <time>2021-12-31T12:17:46.000Z</time>
      </trkpt>
      <trkpt lat="45.51238" lon="6.14381">
        <ele>492.20001220703</ele>
        <time>2021-12-31T12:17:47.000Z</time>
      </trkpt>
      <trkpt lat="45.51234" lon="6.14382">
        <ele>492.60000610352</ele>
        <time>2021-12-31T12:17:49.000Z</time>
      </trkpt>
      <trkpt lat="45.51228" lon="6.14381">
        <ele>493.20001220703</ele>
        <time>2021-12-31T12:17:52.000Z</time>
      </trkpt>
      <trkpt lat="45.51223" lon="6.14381">
        <ele>493.60000610352</ele>
        <time>2021-12-31T12:17:54.000Z</time>
      </trkpt>
      <trkpt lat="45.51213" lon="6.14378">
        <ele>494.79998779297</ele>
        <time>2021-12-31T12:17:59.000Z</time>
      </trkpt>
      <trkpt lat="45.5121" lon="6.14376">
        <ele>495</ele>
        <time>2021-12-31T12:18:00.000Z</time>
      </trkpt>
      <trkpt lat="45.51205" lon="6.14374">
        <ele>495.39999389648</ele>
        <time>2021-12-31T12:18:02.000Z</time>
      </trkpt>
      <trkpt lat="45.51198" lon="6.14368">
        <ele>495.79998779297</ele>
        <time>2021-12-31T12:18:05.000Z</time>
      </trkpt>
      <trkpt lat="45.51196" lon="6.14365">
        <ele>496</ele>
        <time>2021-12-31T12:18:06.000Z</time>
      </trkpt>
      <trkpt lat="45.51189" lon="6.14356">
        <ele>496.60000610352</ele>
        <time>2021-12-31T12:18:11.000Z</time>
      </trkpt>
      <trkpt lat="45.51187" lon="6.14352">
        <ele>496.79998779297</ele>
        <time>2021-12-31T12:18:13.000Z</time>
      </trkpt>
      <trkpt lat="45.51179" lon="6.14343">
        <ele>498</ele>
        <time>2021-12-31T12:18:20.000Z</time>
      </trkpt>
      <trkpt lat="45.51171" lon="6.14336">
        <ele>498.79998779297</ele>
        <time>2021-12-31T12:18:28.000Z</time>
      </trkpt>
      <trkpt lat="45.51171" lon="6.14335">
        <ele>499</ele>
        <time>2021-12-31T12:18:29.000Z</time>
      </trkpt>
      <trkpt lat="45.51162" lon="6.14327">
        <ele>499.79998779297</ele>
        <time>2021-12-31T12:18:34.000Z</time>
      </trkpt>
      <trkpt lat="45.51155" lon="6.14322">
        <ele>500</ele>
        <time>2021-12-31T12:18:37.000Z</time>
      </trkpt>
      <trkpt lat="45.51149" lon="6.14317">
        <ele>500.60000610352</ele>
        <time>2021-12-31T12:18:40.000Z</time>
      </trkpt>
      <trkpt lat="45.51144" lon="6.14311">
        <ele>500.79998779297</ele>
        <time>2021-12-31T12:18:42.000Z</time>
      </trkpt>
      <trkpt lat="45.51138" lon="6.14302">
        <ele>501</ele>
        <time>2021-12-31T12:18:44.000Z</time>
      </trkpt>
      <trkpt lat="45.51131" lon="6.14289">
        <ele>501.60000610352</ele>
        <time>2021-12-31T12:18:48.000Z</time>
      </trkpt>
      <trkpt lat="45.51118" lon="6.14272">
        <ele>502.20001220703</ele>
        <time>2021-12-31T12:18:54.000Z</time>
      </trkpt>
      <trkpt lat="45.51113" lon="6.14265">
        <ele>502.60000610352</ele>
        <time>2021-12-31T12:18:56.000Z</time>
      </trkpt>
      <trkpt lat="45.51113" lon="6.14263">
        <ele>502.60000610352</ele>
        <time>2021-12-31T12:18:57.000Z</time>
      </trkpt>
      <trkpt lat="45.51112" lon="6.14256">
        <ele>502.79998779297</ele>
        <time>2021-12-31T12:19:00.000Z</time>
      </trkpt>
      <trkpt lat="45.51107" lon="6.14251">
        <ele>503.20001220703</ele>
        <time>2021-12-31T12:19:02.000Z</time>
      </trkpt>
      <trkpt lat="45.51103" lon="6.14244">
        <ele>503.79998779297</ele>
        <time>2021-12-31T12:19:06.000Z</time>
      </trkpt>
      <trkpt lat="45.51103" lon="6.14243">
        <ele>503.79998779297</ele>
        <time>2021-12-31T12:19:08.000Z</time>
      </trkpt>
      <trkpt lat="45.51102" lon="6.14243">
        <ele>504.20001220703</ele>
        <time>2021-12-31T12:19:10.000Z</time>
      </trkpt>
      <trkpt lat="45.51098" lon="6.14242">
        <ele>504.39999389648</ele>
        <time>2021-12-31T12:19:12.000Z</time>
      </trkpt>
      <trkpt lat="45.51093" lon="6.14243">
        <ele>504.79998779297</ele>
        <time>2021-12-31T12:19:15.000Z</time>
      </trkpt>
      <trkpt lat="45.51092" lon="6.14244">
        <ele>505</ele>
        <time>2021-12-31T12:19:16.000Z</time>
      </trkpt>
      <trkpt lat="45.5109" lon="6.14247">
        <ele>505.39999389648</ele>
        <time>2021-12-31T12:19:18.000Z</time>
      </trkpt>
      <trkpt lat="45.5109" lon="6.14248">
        <ele>505.39999389648</ele>
        <time>2021-12-31T12:19:19.000Z</time>
      </trkpt>
      <trkpt lat="45.51085" lon="6.1426">
        <ele>506.60000610352</ele>
        <time>2021-12-31T12:19:25.000Z</time>
      </trkpt>
      <trkpt lat="45.51084" lon="6.14263">
        <ele>506.60000610352</ele>
        <time>2021-12-31T12:19:26.000Z</time>
      </trkpt>
      <trkpt lat="45.51084" lon="6.14273">
        <ele>507.20001220703</ele>
        <time>2021-12-31T12:19:29.000Z</time>
      </trkpt>
      <trkpt lat="45.51084" lon="6.14279">
        <ele>507.39999389648</ele>
        <time>2021-12-31T12:19:31.000Z</time>
      </trkpt>
      <trkpt lat="45.51084" lon="6.14283">
        <ele>507.79998779297</ele>
        <time>2021-12-31T12:19:32.000Z</time>
      </trkpt>
      <trkpt lat="45.51084" lon="6.14289">
        <ele>508</ele>
        <time>2021-12-31T12:19:34.000Z</time>
      </trkpt>
      <trkpt lat="45.51084" lon="6.14293">
        <ele>508.20001220703</ele>
        <time>2021-12-31T12:19:35.000Z</time>
      </trkpt>
      <trkpt lat="45.51089" lon="6.143">
        <ele>508.39999389648</ele>
        <time>2021-12-31T12:19:37.000Z</time>
      </trkpt>
      <trkpt lat="45.51094" lon="6.14311">
        <ele>508.60000610352</ele>
        <time>2021-12-31T12:19:40.000Z</time>
      </trkpt>
      <trkpt lat="45.51094" lon="6.14318">
        <ele>508.79998779297</ele>
        <time>2021-12-31T12:19:42.000Z</time>
      </trkpt>
      <trkpt lat="45.51093" lon="6.14325">
        <ele>509</ele>
        <time>2021-12-31T12:19:44.000Z</time>
      </trkpt>
      <trkpt lat="45.51097" lon="6.14333">
        <ele>509</ele>
        <time>2021-12-31T12:19:46.000Z</time>
      </trkpt>
      <trkpt lat="45.51105" lon="6.14348">
        <ele>509</ele>
        <time>2021-12-31T12:19:50.000Z</time>
      </trkpt>
      <trkpt lat="45.51107" lon="6.14355">
        <ele>509</ele>
        <time>2021-12-31T12:19:52.000Z</time>
      </trkpt>
      <trkpt lat="45.51108" lon="6.14358">
        <ele>509</ele>
        <time>2021-12-31T12:19:53.000Z</time>
      </trkpt>
      <trkpt lat="45.5111" lon="6.1436">
        <ele>509</ele>
        <time>2021-12-31T12:19:54.000Z</time>
      </trkpt>
      <trkpt lat="45.51114" lon="6.14368">
        <ele>509.20001220703</ele>
        <time>2021-12-31T12:19:56.000Z</time>
      </trkpt>
      <trkpt lat="45.51118" lon="6.14387">
        <ele>509.60000610352</ele>
        <time>2021-12-31T12:20:01.000Z</time>
      </trkpt>
      <trkpt lat="45.5112" lon="6.14391">
        <ele>509.60000610352</ele>
        <time>2021-12-31T12:20:02.000Z</time>
      </trkpt>
      <trkpt lat="45.51123" lon="6.14394">
        <ele>509.60000610352</ele>
        <time>2021-12-31T12:20:03.000Z</time>
      </trkpt>
      <trkpt lat="45.51126" lon="6.14402">
        <ele>510</ele>
        <time>2021-12-31T12:20:05.000Z</time>
      </trkpt>
      <trkpt lat="45.51128" lon="6.14405">
        <ele>510</ele>
        <time>2021-12-31T12:20:06.000Z</time>
      </trkpt>
      <trkpt lat="45.51129" lon="6.14408">
        <ele>510.20001220703</ele>
        <time>2021-12-31T12:20:07.000Z</time>
      </trkpt>
      <trkpt lat="45.51138" lon="6.14413">
        <ele>510.20001220703</ele>
        <time>2021-12-31T12:20:09.000Z</time>
      </trkpt>
      <trkpt lat="45.51141" lon="6.14423">
        <ele>510.60000610352</ele>
        <time>2021-12-31T12:20:13.000Z</time>
      </trkpt>
      <trkpt lat="45.5114" lon="6.14425">
        <ele>510.79998779297</ele>
        <time>2021-12-31T12:20:14.000Z</time>
      </trkpt>
      <trkpt lat="45.51152" lon="6.14441">
        <ele>511.39999389648</ele>
        <time>2021-12-31T12:20:19.000Z</time>
      </trkpt>
      <trkpt lat="45.51153" lon="6.14443">
        <ele>511.39999389648</ele>
        <time>2021-12-31T12:20:20.000Z</time>
      </trkpt>
      <trkpt lat="45.51157" lon="6.14447">
        <ele>512</ele>
        <time>2021-12-31T12:20:22.000Z</time>
      </trkpt>
      <trkpt lat="45.5116" lon="6.14454">
        <ele>512.40002441406</ele>
        <time>2021-12-31T12:20:24.000Z</time>
      </trkpt>
      <trkpt lat="45.51159" lon="6.14457">
        <ele>512.59997558594</ele>
        <time>2021-12-31T12:20:25.000Z</time>
      </trkpt>
      <trkpt lat="45.51163" lon="6.14467">
        <ele>513.40002441406</ele>
        <time>2021-12-31T12:20:29.000Z</time>
      </trkpt>
      <trkpt lat="45.51164" lon="6.14469">
        <ele>513.40002441406</ele>
        <time>2021-12-31T12:20:30.000Z</time>
      </trkpt>
      <trkpt lat="45.51165" lon="6.14472">
        <ele>513.59997558594</ele>
        <time>2021-12-31T12:20:31.000Z</time>
      </trkpt>
      <trkpt lat="45.51171" lon="6.14489">
        <ele>514.40002441406</ele>
        <time>2021-12-31T12:20:38.000Z</time>
      </trkpt>
      <trkpt lat="45.51172" lon="6.14492">
        <ele>514.79998779297</ele>
        <time>2021-12-31T12:20:39.000Z</time>
      </trkpt>
      <trkpt lat="45.51173" lon="6.14505">
        <ele>515.79998779297</ele>
        <time>2021-12-31T12:20:44.000Z</time>
      </trkpt>
      <trkpt lat="45.51173" lon="6.14507">
        <ele>516</ele>
        <time>2021-12-31T12:20:45.000Z</time>
      </trkpt>
      <trkpt lat="45.51175" lon="6.14519">
        <ele>516.79998779297</ele>
        <time>2021-12-31T12:20:50.000Z</time>
      </trkpt>
      <trkpt lat="45.51176" lon="6.14524">
        <ele>517.40002441406</ele>
        <time>2021-12-31T12:20:52.000Z</time>
      </trkpt>
      <trkpt lat="45.51178" lon="6.14531">
        <ele>517.79998779297</ele>
        <time>2021-12-31T12:20:54.000Z</time>
      </trkpt>
      <trkpt lat="45.5118" lon="6.14534">
        <ele>518</ele>
        <time>2021-12-31T12:20:56.000Z</time>
      </trkpt>
      <trkpt lat="45.51181" lon="6.14537">
        <ele>518</ele>
        <time>2021-12-31T12:20:57.000Z</time>
      </trkpt>
      <trkpt lat="45.51187" lon="6.1454">
        <ele>518.79998779297</ele>
        <time>2021-12-31T12:21:00.000Z</time>
      </trkpt>
      <trkpt lat="45.51198" lon="6.14538">
        <ele>519.59997558594</ele>
        <time>2021-12-31T12:21:05.000Z</time>
      </trkpt>
      <trkpt lat="45.512" lon="6.14537">
        <ele>520</ele>
        <time>2021-12-31T12:21:06.000Z</time>
      </trkpt>
      <trkpt lat="45.51211" lon="6.14533">
        <ele>521.20001220703</ele>
        <time>2021-12-31T12:21:11.000Z</time>
      </trkpt>
      <trkpt lat="45.51214" lon="6.14533">
        <ele>521.59997558594</ele>
        <time>2021-12-31T12:21:13.000Z</time>
      </trkpt>
      <trkpt lat="45.5122" lon="6.14539">
        <ele>522.40002441406</ele>
        <time>2021-12-31T12:21:17.000Z</time>
      </trkpt>
      <trkpt lat="45.51222" lon="6.14542">
        <ele>522.59997558594</ele>
        <time>2021-12-31T12:21:19.000Z</time>
      </trkpt>
      <trkpt lat="45.51221" lon="6.14549">
        <ele>523.40002441406</ele>
        <time>2021-12-31T12:21:22.000Z</time>
      </trkpt>
      <trkpt lat="45.51221" lon="6.14553">
        <ele>523.79998779297</ele>
        <time>2021-12-31T12:21:24.000Z</time>
      </trkpt>
      <trkpt lat="45.51221" lon="6.14555">
        <ele>524</ele>
        <time>2021-12-31T12:21:25.000Z</time>
      </trkpt>
      <trkpt lat="45.51222" lon="6.14558">
        <ele>524.40002441406</ele>
        <time>2021-12-31T12:21:26.000Z</time>
      </trkpt>
      <trkpt lat="45.51221" lon="6.14567">
        <ele>525.59997558594</ele>
        <time>2021-12-31T12:21:31.000Z</time>
      </trkpt>
      <trkpt lat="45.5122" lon="6.1457">
        <ele>525.79998779297</ele>
        <time>2021-12-31T12:21:32.000Z</time>
      </trkpt>
      <trkpt lat="45.51219" lon="6.14579">
        <ele>526.79998779297</ele>
        <time>2021-12-31T12:21:36.000Z</time>
      </trkpt>
      <trkpt lat="45.51219" lon="6.14581">
        <ele>526.79998779297</ele>
        <time>2021-12-31T12:21:37.000Z</time>
      </trkpt>
      <trkpt lat="45.5122" lon="6.14583">
        <ele>527.20001220703</ele>
        <time>2021-12-31T12:21:38.000Z</time>
      </trkpt>
      <trkpt lat="45.51222" lon="6.14592">
        <ele>528</ele>
        <time>2021-12-31T12:21:41.000Z</time>
      </trkpt>
      <trkpt lat="45.51225" lon="6.14602">
        <ele>528.40002441406</ele>
        <time>2021-12-31T12:21:44.000Z</time>
      </trkpt>
      <trkpt lat="45.51228" lon="6.1461">
        <ele>529</ele>
        <time>2021-12-31T12:21:47.000Z</time>
      </trkpt>
      <trkpt lat="45.51232" lon="6.14623">
        <ele>529.59997558594</ele>
        <time>2021-12-31T12:21:51.000Z</time>
      </trkpt>
      <trkpt lat="45.51235" lon="6.14629">
        <ele>530</ele>
        <time>2021-12-31T12:21:53.000Z</time>
      </trkpt>
      <trkpt lat="45.51236" lon="6.14632">
        <ele>530.20001220703</ele>
        <time>2021-12-31T12:21:54.000Z</time>
      </trkpt>
      <trkpt lat="45.51239" lon="6.14639">
        <ele>530.20001220703</ele>
        <time>2021-12-31T12:21:56.000Z</time>
      </trkpt>
      <trkpt lat="45.5125" lon="6.14653">
        <ele>530.59997558594</ele>
        <time>2021-12-31T12:22:03.000Z</time>
      </trkpt>
      <trkpt lat="45.51251" lon="6.14655">
        <ele>530.59997558594</ele>
        <time>2021-12-31T12:22:04.000Z</time>
      </trkpt>
      <trkpt lat="45.51248" lon="6.1466">
        <ele>530.79998779297</ele>
        <time>2021-12-31T12:22:07.000Z</time>
      </trkpt>
      <trkpt lat="45.51246" lon="6.14661">
        <ele>531</ele>
        <time>2021-12-31T12:22:08.000Z</time>
      </trkpt>
      <trkpt lat="45.51242" lon="6.14659">
        <ele>531</ele>
        <time>2021-12-31T12:22:10.000Z</time>
      </trkpt>
      <trkpt lat="45.51241" lon="6.14657">
        <ele>531</ele>
        <time>2021-12-31T12:22:11.000Z</time>
      </trkpt>
      <trkpt lat="45.51238" lon="6.14653">
        <ele>531.59997558594</ele>
        <time>2021-12-31T12:22:13.000Z</time>
      </trkpt>
      <trkpt lat="45.51233" lon="6.14649">
        <ele>532</ele>
        <time>2021-12-31T12:22:16.000Z</time>
      </trkpt>
      <trkpt lat="45.51228" lon="6.14646">
        <ele>532.40002441406</ele>
        <time>2021-12-31T12:22:18.000Z</time>
      </trkpt>
      <trkpt lat="45.51222" lon="6.1464">
        <ele>532.79998779297</ele>
        <time>2021-12-31T12:22:21.000Z</time>
      </trkpt>
      <trkpt lat="45.5122" lon="6.14638">
        <ele>533.20001220703</ele>
        <time>2021-12-31T12:22:22.000Z</time>
      </trkpt>
      <trkpt lat="45.51214" lon="6.14629">
        <ele>533.79998779297</ele>
        <time>2021-12-31T12:22:26.000Z</time>
      </trkpt>
      <trkpt lat="45.51213" lon="6.14627">
        <ele>534.20001220703</ele>
        <time>2021-12-31T12:22:28.000Z</time>
      </trkpt>
      <trkpt lat="45.5121" lon="6.14624">
        <ele>534.59997558594</ele>
        <time>2021-12-31T12:22:30.000Z</time>
      </trkpt>
      <trkpt lat="45.51208" lon="6.14622">
        <ele>535</ele>
        <time>2021-12-31T12:22:32.000Z</time>
      </trkpt>
      <trkpt lat="45.51207" lon="6.14619">
        <ele>535</ele>
        <time>2021-12-31T12:22:33.000Z</time>
      </trkpt>
      <trkpt lat="45.51206" lon="6.14618">
        <ele>535.20001220703</ele>
        <time>2021-12-31T12:22:34.000Z</time>
      </trkpt>
      <trkpt lat="45.51202" lon="6.14611">
        <ele>536</ele>
        <time>2021-12-31T12:22:38.000Z</time>
      </trkpt>
      <trkpt lat="45.51201" lon="6.14609">
        <ele>536.20001220703</ele>
        <time>2021-12-31T12:22:39.000Z</time>
      </trkpt>
      <trkpt lat="45.512" lon="6.14608">
        <ele>536.59997558594</ele>
        <time>2021-12-31T12:22:40.000Z</time>
      </trkpt>
      <trkpt lat="45.51195" lon="6.14599">
        <ele>537.40002441406</ele>
        <time>2021-12-31T12:22:45.000Z</time>
      </trkpt>
      <trkpt lat="45.51194" lon="6.14597">
        <ele>537.40002441406</ele>
        <time>2021-12-31T12:22:46.000Z</time>
      </trkpt>
      <trkpt lat="45.51193" lon="6.14596">
        <ele>537.79998779297</ele>
        <time>2021-12-31T12:22:47.000Z</time>
      </trkpt>
      <trkpt lat="45.51188" lon="6.14595">
        <ele>538.59997558594</ele>
        <time>2021-12-31T12:22:50.000Z</time>
      </trkpt>
      <trkpt lat="45.51188" lon="6.14595">
        <ele>538.79998779297</ele>
        <time>2021-12-31T12:22:52.000Z</time>
      </trkpt>
      <trkpt lat="45.51189" lon="6.14603">
        <ele>539.59997558594</ele>
        <time>2021-12-31T12:22:55.000Z</time>
      </trkpt>
      <trkpt lat="45.5119" lon="6.14605">
        <ele>540</ele>
        <time>2021-12-31T12:22:56.000Z</time>
      </trkpt>
      <trkpt lat="45.51191" lon="6.14607">
        <ele>540.20001220703</ele>
        <time>2021-12-31T12:22:57.000Z</time>
      </trkpt>
      <trkpt lat="45.51192" lon="6.14609">
        <ele>540.40002441406</ele>
        <time>2021-12-31T12:22:58.000Z</time>
      </trkpt>
      <trkpt lat="45.51193" lon="6.14612">
        <ele>540.79998779297</ele>
        <time>2021-12-31T12:23:00.000Z</time>
      </trkpt>
      <trkpt lat="45.51196" lon="6.14615">
        <ele>541.20001220703</ele>
        <time>2021-12-31T12:23:02.000Z</time>
      </trkpt>
      <trkpt lat="45.51199" lon="6.14621">
        <ele>541.59997558594</ele>
        <time>2021-12-31T12:23:05.000Z</time>
      </trkpt>
      <trkpt lat="45.512" lon="6.14623">
        <ele>542</ele>
        <time>2021-12-31T12:23:06.000Z</time>
      </trkpt>
      <trkpt lat="45.512" lon="6.14624">
        <ele>542.40002441406</ele>
        <time>2021-12-31T12:23:07.000Z</time>
      </trkpt>
      <trkpt lat="45.51203" lon="6.14632">
        <ele>543</ele>
        <time>2021-12-31T12:23:11.000Z</time>
      </trkpt>
      <trkpt lat="45.51204" lon="6.14636">
        <ele>543.40002441406</ele>
        <time>2021-12-31T12:23:13.000Z</time>
      </trkpt>
      <trkpt lat="45.51205" lon="6.14638">
        <ele>543.59997558594</ele>
        <time>2021-12-31T12:23:14.000Z</time>
      </trkpt>
      <trkpt lat="45.51206" lon="6.14642">
        <ele>544</ele>
        <time>2021-12-31T12:23:16.000Z</time>
      </trkpt>
      <trkpt lat="45.51209" lon="6.14646">
        <ele>544.40002441406</ele>
        <time>2021-12-31T12:23:18.000Z</time>
      </trkpt>
      <trkpt lat="45.51213" lon="6.14653">
        <ele>545</ele>
        <time>2021-12-31T12:23:21.000Z</time>
      </trkpt>
      <trkpt lat="45.51214" lon="6.14658">
        <ele>545.40002441406</ele>
        <time>2021-12-31T12:23:23.000Z</time>
      </trkpt>
      <trkpt lat="45.51216" lon="6.14665">
        <ele>546.20001220703</ele>
        <time>2021-12-31T12:23:26.000Z</time>
      </trkpt>
      <trkpt lat="45.51217" lon="6.14667">
        <ele>546.40002441406</ele>
        <time>2021-12-31T12:23:27.000Z</time>
      </trkpt>
      <trkpt lat="45.51218" lon="6.14673">
        <ele>546.79998779297</ele>
        <time>2021-12-31T12:23:29.000Z</time>
      </trkpt>
      <trkpt lat="45.5122" lon="6.14677">
        <ele>547.20001220703</ele>
        <time>2021-12-31T12:23:31.000Z</time>
      </trkpt>
      <trkpt lat="45.51221" lon="6.14681">
        <ele>547.40002441406</ele>
        <time>2021-12-31T12:23:33.000Z</time>
      </trkpt>
      <trkpt lat="45.51222" lon="6.14683">
        <ele>547.79998779297</ele>
        <time>2021-12-31T12:23:34.000Z</time>
      </trkpt>
      <trkpt lat="45.51223" lon="6.14688">
        <ele>548.20001220703</ele>
        <time>2021-12-31T12:23:36.000Z</time>
      </trkpt>
      <trkpt lat="45.51226" lon="6.14694">
        <ele>548.79998779297</ele>
        <time>2021-12-31T12:23:39.000Z</time>
      </trkpt>
      <trkpt lat="45.51228" lon="6.14699">
        <ele>549.20001220703</ele>
        <time>2021-12-31T12:23:41.000Z</time>
      </trkpt>
      <trkpt lat="45.51229" lon="6.14701">
        <ele>549.40002441406</ele>
        <time>2021-12-31T12:23:42.000Z</time>
      </trkpt>
      <trkpt lat="45.51232" lon="6.14705">
        <ele>550</ele>
        <time>2021-12-31T12:23:44.000Z</time>
      </trkpt>
      <trkpt lat="45.51234" lon="6.1471">
        <ele>550.40002441406</ele>
        <time>2021-12-31T12:23:46.000Z</time>
      </trkpt>
      <trkpt lat="45.51239" lon="6.14716">
        <ele>551</ele>
        <time>2021-12-31T12:23:49.000Z</time>
      </trkpt>
      <trkpt lat="45.51245" lon="6.14721">
        <ele>551.59997558594</ele>
        <time>2021-12-31T12:23:51.000Z</time>
      </trkpt>
      <trkpt lat="45.51247" lon="6.14724">
        <ele>551.59997558594</ele>
        <time>2021-12-31T12:23:52.000Z</time>
      </trkpt>
      <trkpt lat="45.51246" lon="6.14732">
        <ele>552.20001220703</ele>
        <time>2021-12-31T12:23:55.000Z</time>
      </trkpt>
      <trkpt lat="45.51247" lon="6.14736">
        <ele>552.59997558594</ele>
        <time>2021-12-31T12:23:57.000Z</time>
      </trkpt>
      <trkpt lat="45.5125" lon="6.14747">
        <ele>553.59997558594</ele>
        <time>2021-12-31T12:24:02.000Z</time>
      </trkpt>
      <trkpt lat="45.5125" lon="6.14749">
        <ele>553.79998779297</ele>
        <time>2021-12-31T12:24:03.000Z</time>
      </trkpt>
      <trkpt lat="45.51255" lon="6.14759">
        <ele>554.79998779297</ele>
        <time>2021-12-31T12:24:08.000Z</time>
      </trkpt>
      <trkpt lat="45.51257" lon="6.14762">
        <ele>555</ele>
        <time>2021-12-31T12:24:09.000Z</time>
      </trkpt>
      <trkpt lat="45.51257" lon="6.14767">
        <ele>555.59997558594</ele>
        <time>2021-12-31T12:24:12.000Z</time>
      </trkpt>
      <trkpt lat="45.51257" lon="6.14768">
        <ele>556</ele>
        <time>2021-12-31T12:24:13.000Z</time>
      </trkpt>
      <trkpt lat="45.51258" lon="6.14771">
        <ele>556</ele>
        <time>2021-12-31T12:24:14.000Z</time>
      </trkpt>
      <trkpt lat="45.51259" lon="6.14773">
        <ele>556.40002441406</ele>
        <time>2021-12-31T12:24:15.000Z</time>
      </trkpt>
      <trkpt lat="45.5126" lon="6.14777">
        <ele>556.79998779297</ele>
        <time>2021-12-31T12:24:17.000Z</time>
      </trkpt>
      <trkpt lat="45.51261" lon="6.14779">
        <ele>557</ele>
        <time>2021-12-31T12:24:18.000Z</time>
      </trkpt>
      <trkpt lat="45.51262" lon="6.14786">
        <ele>557.79998779297</ele>
        <time>2021-12-31T12:24:21.000Z</time>
      </trkpt>
      <trkpt lat="45.51264" lon="6.14792">
        <ele>558</ele>
        <time>2021-12-31T12:24:24.000Z</time>
      </trkpt>
      <trkpt lat="45.51264" lon="6.14796">
        <ele>558.59997558594</ele>
        <time>2021-12-31T12:24:26.000Z</time>
      </trkpt>
      <trkpt lat="45.51264" lon="6.14801">
        <ele>558.79998779297</ele>
        <time>2021-12-31T12:24:28.000Z</time>
      </trkpt>
      <trkpt lat="45.51266" lon="6.14805">
        <ele>559.20001220703</ele>
        <time>2021-12-31T12:24:30.000Z</time>
      </trkpt>
      <trkpt lat="45.51267" lon="6.14821">
        <ele>560.40002441406</ele>
        <time>2021-12-31T12:24:37.000Z</time>
      </trkpt>
      <trkpt lat="45.51268" lon="6.14826">
        <ele>560.79998779297</ele>
        <time>2021-12-31T12:24:39.000Z</time>
      </trkpt>
      <trkpt lat="45.51272" lon="6.14835">
        <ele>561.40002441406</ele>
        <time>2021-12-31T12:24:42.000Z</time>
      </trkpt>
      <trkpt lat="45.51273" lon="6.14837">
        <ele>561.59997558594</ele>
        <time>2021-12-31T12:24:43.000Z</time>
      </trkpt>
      <trkpt lat="45.51281" lon="6.1485">
        <ele>562.40002441406</ele>
        <time>2021-12-31T12:24:48.000Z</time>
      </trkpt>
      <trkpt lat="45.51282" lon="6.14851">
        <ele>562.59997558594</ele>
        <time>2021-12-31T12:24:49.000Z</time>
      </trkpt>
      <trkpt lat="45.51295" lon="6.1486">
        <ele>563.79998779297</ele>
        <time>2021-12-31T12:24:55.000Z</time>
      </trkpt>
      <trkpt lat="45.51297" lon="6.14863">
        <ele>564</ele>
        <time>2021-12-31T12:24:57.000Z</time>
      </trkpt>
      <trkpt lat="45.51301" lon="6.1487">
        <ele>564.79998779297</ele>
        <time>2021-12-31T12:25:02.000Z</time>
      </trkpt>
      <trkpt lat="45.51305" lon="6.14875">
        <ele>565.40002441406</ele>
        <time>2021-12-31T12:25:05.000Z</time>
      </trkpt>
      <trkpt lat="45.51308" lon="6.1488">
        <ele>566.20001220703</ele>
        <time>2021-12-31T12:25:08.000Z</time>
      </trkpt>
      <trkpt lat="45.51312" lon="6.14887">
        <ele>567</ele>
        <time>2021-12-31T12:25:12.000Z</time>
      </trkpt>
      <trkpt lat="45.51315" lon="6.1489">
        <ele>567.40002441406</ele>
        <time>2021-12-31T12:25:14.000Z</time>
      </trkpt>
      <trkpt lat="45.51321" lon="6.14899">
        <ele>568.59997558594</ele>
        <time>2021-12-31T12:25:20.000Z</time>
      </trkpt>
      <trkpt lat="45.51328" lon="6.14907">
        <ele>569.40002441406</ele>
        <time>2021-12-31T12:25:26.000Z</time>
      </trkpt>
      <trkpt lat="45.51329" lon="6.14908">
        <ele>569.59997558594</ele>
        <time>2021-12-31T12:25:27.000Z</time>
      </trkpt>
      <trkpt lat="45.51335" lon="6.14917">
        <ele>570.59997558594</ele>
        <time>2021-12-31T12:25:32.000Z</time>
      </trkpt>
      <trkpt lat="45.51336" lon="6.14918">
        <ele>570.79998779297</ele>
        <time>2021-12-31T12:25:33.000Z</time>
      </trkpt>
      <trkpt lat="45.51345" lon="6.14927">
        <ele>571.79998779297</ele>
        <time>2021-12-31T12:25:39.000Z</time>
      </trkpt>
      <trkpt lat="45.51346" lon="6.14928">
        <ele>571.79998779297</ele>
        <time>2021-12-31T12:25:40.000Z</time>
      </trkpt>
      <trkpt lat="45.51351" lon="6.14938">
        <ele>573</ele>
        <time>2021-12-31T12:25:45.000Z</time>
      </trkpt>
      <trkpt lat="45.51352" lon="6.14943">
        <ele>573.59997558594</ele>
        <time>2021-12-31T12:25:47.000Z</time>
      </trkpt>
      <trkpt lat="45.51351" lon="6.1495">
        <ele>574.20001220703</ele>
        <time>2021-12-31T12:25:50.000Z</time>
      </trkpt>
      <trkpt lat="45.51349" lon="6.14952">
        <ele>574.59997558594</ele>
        <time>2021-12-31T12:25:52.000Z</time>
      </trkpt>
      <trkpt lat="45.51347" lon="6.14953">
        <ele>574.79998779297</ele>
        <time>2021-12-31T12:25:53.000Z</time>
      </trkpt>
      <trkpt lat="45.51343" lon="6.14952">
        <ele>575.40002441406</ele>
        <time>2021-12-31T12:25:55.000Z</time>
      </trkpt>
      <trkpt lat="45.51336" lon="6.1495">
        <ele>576.40002441406</ele>
        <time>2021-12-31T12:25:59.000Z</time>
      </trkpt>
      <trkpt lat="45.51334" lon="6.1495">
        <ele>576.79998779297</ele>
        <time>2021-12-31T12:26:00.000Z</time>
      </trkpt>
      <trkpt lat="45.51331" lon="6.14948">
        <ele>577</ele>
        <time>2021-12-31T12:26:02.000Z</time>
      </trkpt>
      <trkpt lat="45.51327" lon="6.14948">
        <ele>577.59997558594</ele>
        <time>2021-12-31T12:26:04.000Z</time>
      </trkpt>
      <trkpt lat="45.51324" lon="6.14945">
        <ele>578.20001220703</ele>
        <time>2021-12-31T12:26:06.000Z</time>
      </trkpt>
      <trkpt lat="45.51317" lon="6.14941">
        <ele>578.79998779297</ele>
        <time>2021-12-31T12:26:10.000Z</time>
      </trkpt>
      <trkpt lat="45.51308" lon="6.14936">
        <ele>579.59997558594</ele>
        <time>2021-12-31T12:26:15.000Z</time>
      </trkpt>
      <trkpt lat="45.51305" lon="6.14934">
        <ele>580</ele>
        <time>2021-12-31T12:26:17.000Z</time>
      </trkpt>
      <trkpt lat="45.51295" lon="6.14934">
        <ele>580.79998779297</ele>
        <time>2021-12-31T12:26:22.000Z</time>
      </trkpt>
      <trkpt lat="45.51293" lon="6.14935">
        <ele>581</ele>
        <time>2021-12-31T12:26:23.000Z</time>
      </trkpt>
      <trkpt lat="45.51284" lon="6.1495">
        <ele>582</ele>
        <time>2021-12-31T12:26:30.000Z</time>
      </trkpt>
      <trkpt lat="45.51271" lon="6.1497">
        <ele>582</ele>
        <time>2021-12-31T12:26:36.000Z</time>
      </trkpt>
      <trkpt lat="45.51261" lon="6.1499">
        <ele>581.59997558594</ele>
        <time>2021-12-31T12:26:41.000Z</time>
      </trkpt>
      <trkpt lat="45.51262" lon="6.14995">
        <ele>581.59997558594</ele>
        <time>2021-12-31T12:26:42.000Z</time>
      </trkpt>
      <trkpt lat="45.51263" lon="6.14999">
        <ele>581.40002441406</ele>
        <time>2021-12-31T12:26:43.000Z</time>
      </trkpt>
      <trkpt lat="45.51268" lon="6.15004">
        <ele>581.20001220703</ele>
        <time>2021-12-31T12:26:45.000Z</time>
      </trkpt>
      <trkpt lat="45.51274" lon="6.15013">
        <ele>581</ele>
        <time>2021-12-31T12:26:48.000Z</time>
      </trkpt>
      <trkpt lat="45.51277" lon="6.15017">
        <ele>580.79998779297</ele>
        <time>2021-12-31T12:26:50.000Z</time>
      </trkpt>
      <trkpt lat="45.51278" lon="6.15018">
        <ele>580.79998779297</ele>
        <time>2021-12-31T12:26:54.000Z</time>
      </trkpt>
      <trkpt lat="45.5128" lon="6.15019">
        <ele>580.59997558594</ele>
        <time>2021-12-31T12:26:57.000Z</time>
      </trkpt>
      <trkpt lat="45.51281" lon="6.15019">
        <ele>580.59997558594</ele>
        <time>2021-12-31T12:27:00.000Z</time>
      </trkpt>
      <trkpt lat="45.51281" lon="6.15019">
        <ele>580.40002441406</ele>
        <time>2021-12-31T12:27:08.000Z</time>
      </trkpt>
      <trkpt lat="45.51281" lon="6.15019">
        <ele>581</ele>
        <time>2021-12-31T12:27:17.000Z</time>
      </trkpt>
      <trkpt lat="45.51281" lon="6.15019">
        <ele>580.79998779297</ele>
        <time>2021-12-31T12:27:53.000Z</time>
      </trkpt>
      <trkpt lat="45.51281" lon="6.15019">
        <ele>580.79998779297</ele>
        <time>2021-12-31T12:28:22.000Z</time>
      </trkpt>
      <trkpt lat="45.51281" lon="6.15019">
        <ele>581</ele>
        <time>2021-12-31T12:28:50.000Z</time>
      </trkpt>
      <trkpt lat="45.51281" lon="6.15019">
        <ele>581.20001220703</ele>
        <time>2021-12-31T12:29:18.000Z</time>
      </trkpt>
      <trkpt lat="45.51281" lon="6.15019">
        <ele>581.20001220703</ele>
        <time>2021-12-31T12:29:50.000Z</time>
      </trkpt>
      <trkpt lat="45.51281" lon="6.15019">
        <ele>581.40002441406</ele>
        <time>2021-12-31T12:30:29.000Z</time>
      </trkpt>
      <trkpt lat="45.51281" lon="6.15019">
        <ele>582</ele>
        <time>2021-12-31T12:31:31.000Z</time>
      </trkpt>
      <trkpt lat="45.51278" lon="6.15022">
        <ele>582.20001220703</ele>
        <time>2021-12-31T12:31:53.000Z</time>
      </trkpt>
      <trkpt lat="45.51278" lon="6.15023">
        <ele>581.79998779297</ele>
        <time>2021-12-31T12:32:02.000Z</time>
      </trkpt>
      <trkpt lat="45.51276" lon="6.15025">
        <ele>581.40002441406</ele>
        <time>2021-12-31T12:32:17.000Z</time>
      </trkpt>
      <trkpt lat="45.51274" lon="6.15029">
        <ele>581.40002441406</ele>
        <time>2021-12-31T12:32:19.000Z</time>
      </trkpt>
      <trkpt lat="45.51269" lon="6.15031">
        <ele>581.40002441406</ele>
        <time>2021-12-31T12:32:21.000Z</time>
      </trkpt>
      <trkpt lat="45.51264" lon="6.1503">
        <ele>581.40002441406</ele>
        <time>2021-12-31T12:32:23.000Z</time>
      </trkpt>
      <trkpt lat="45.51245" lon="6.15016">
        <ele>581.40002441406</ele>
        <time>2021-12-31T12:32:29.000Z</time>
      </trkpt>
      <trkpt lat="45.51236" lon="6.15019">
        <ele>581.40002441406</ele>
        <time>2021-12-31T12:32:31.000Z</time>
      </trkpt>
      <trkpt lat="45.51226" lon="6.15025">
        <ele>581</ele>
        <time>2021-12-31T12:32:33.000Z</time>
      </trkpt>
      <trkpt lat="45.51212" lon="6.15029">
        <ele>580.59997558594</ele>
        <time>2021-12-31T12:32:35.000Z</time>
      </trkpt>
      <trkpt lat="45.51205" lon="6.1503">
        <ele>580</ele>
        <time>2021-12-31T12:32:36.000Z</time>
      </trkpt>
      <trkpt lat="45.51199" lon="6.15031">
        <ele>579.79998779297</ele>
        <time>2021-12-31T12:32:37.000Z</time>
      </trkpt>
      <trkpt lat="45.51181" lon="6.15029">
        <ele>579</ele>
        <time>2021-12-31T12:32:39.000Z</time>
      </trkpt>
      <trkpt lat="45.51164" lon="6.15028">
        <ele>577</ele>
        <time>2021-12-31T12:32:41.000Z</time>
      </trkpt>
      <trkpt lat="45.51157" lon="6.15027">
        <ele>576.40002441406</ele>
        <time>2021-12-31T12:32:42.000Z</time>
      </trkpt>
      <trkpt lat="45.51148" lon="6.15027">
        <ele>575.59997558594</ele>
        <time>2021-12-31T12:32:43.000Z</time>
      </trkpt>
      <trkpt lat="45.51138" lon="6.15025">
        <ele>575.20001220703</ele>
        <time>2021-12-31T12:32:44.000Z</time>
      </trkpt>
      <trkpt lat="45.5113" lon="6.15023">
        <ele>574</ele>
        <time>2021-12-31T12:32:45.000Z</time>
      </trkpt>
      <trkpt lat="45.51123" lon="6.15019">
        <ele>572.79998779297</ele>
        <time>2021-12-31T12:32:46.000Z</time>
      </trkpt>
      <trkpt lat="45.51109" lon="6.15008">
        <ele>571</ele>
        <time>2021-12-31T12:32:48.000Z</time>
      </trkpt>
      <trkpt lat="45.51093" lon="6.14992">
        <ele>570.20001220703</ele>
        <time>2021-12-31T12:32:50.000Z</time>
      </trkpt>
      <trkpt lat="45.5108" lon="6.14979">
        <ele>568</ele>
        <time>2021-12-31T12:32:52.000Z</time>
      </trkpt>
      <trkpt lat="45.51072" lon="6.14972">
        <ele>567</ele>
        <time>2021-12-31T12:32:53.000Z</time>
      </trkpt>
      <trkpt lat="45.51064" lon="6.14966">
        <ele>566.40002441406</ele>
        <time>2021-12-31T12:32:54.000Z</time>
      </trkpt>
      <trkpt lat="45.51054" lon="6.1496">
        <ele>565.40002441406</ele>
        <time>2021-12-31T12:32:55.000Z</time>
      </trkpt>
      <trkpt lat="45.51048" lon="6.14956">
        <ele>565</ele>
        <time>2021-12-31T12:32:56.000Z</time>
      </trkpt>
      <trkpt lat="45.51033" lon="6.14949">
        <ele>562.79998779297</ele>
        <time>2021-12-31T12:32:58.000Z</time>
      </trkpt>
      <trkpt lat="45.51025" lon="6.14947">
        <ele>562.20001220703</ele>
        <time>2021-12-31T12:32:59.000Z</time>
      </trkpt>
      <trkpt lat="45.51016" lon="6.14948">
        <ele>561</ele>
        <time>2021-12-31T12:33:00.000Z</time>
      </trkpt>
      <trkpt lat="45.51001" lon="6.14956">
        <ele>558.79998779297</ele>
        <time>2021-12-31T12:33:02.000Z</time>
      </trkpt>
      <trkpt lat="45.50991" lon="6.14962">
        <ele>557.40002441406</ele>
        <time>2021-12-31T12:33:03.000Z</time>
      </trkpt>
      <trkpt lat="45.50978" lon="6.14976">
        <ele>555.59997558594</ele>
        <time>2021-12-31T12:33:05.000Z</time>
      </trkpt>
      <trkpt lat="45.50973" lon="6.14981">
        <ele>555.20001220703</ele>
        <time>2021-12-31T12:33:06.000Z</time>
      </trkpt>
      <trkpt lat="45.50967" lon="6.14987">
        <ele>554</ele>
        <time>2021-12-31T12:33:07.000Z</time>
      </trkpt>
      <trkpt lat="45.5096" lon="6.14994">
        <ele>553.40002441406</ele>
        <time>2021-12-31T12:33:08.000Z</time>
      </trkpt>
      <trkpt lat="45.50955" lon="6.15001">
        <ele>551.79998779297</ele>
        <time>2021-12-31T12:33:09.000Z</time>
      </trkpt>
      <trkpt lat="45.50952" lon="6.15008">
        <ele>550.79998779297</ele>
        <time>2021-12-31T12:33:10.000Z</time>
      </trkpt>
      <trkpt lat="45.50952" lon="6.15014">
        <ele>550.20001220703</ele>
        <time>2021-12-31T12:33:11.000Z</time>
      </trkpt>
      <trkpt lat="45.50953" lon="6.15023">
        <ele>549</ele>
        <time>2021-12-31T12:33:12.000Z</time>
      </trkpt>
      <trkpt lat="45.50956" lon="6.15034">
        <ele>548.59997558594</ele>
        <time>2021-12-31T12:33:13.000Z</time>
      </trkpt>
      <trkpt lat="45.50963" lon="6.15053">
        <ele>547</ele>
        <time>2021-12-31T12:33:15.000Z</time>
      </trkpt>
      <trkpt lat="45.50974" lon="6.15083">
        <ele>545.59997558594</ele>
        <time>2021-12-31T12:33:18.000Z</time>
      </trkpt>
      <trkpt lat="45.50977" lon="6.15091">
        <ele>545.40002441406</ele>
        <time>2021-12-31T12:33:19.000Z</time>
      </trkpt>
      <trkpt lat="45.50981" lon="6.151">
        <ele>545</ele>
        <time>2021-12-31T12:33:20.000Z</time>
      </trkpt>
      <trkpt lat="45.50989" lon="6.15116">
        <ele>544.59997558594</ele>
        <time>2021-12-31T12:33:22.000Z</time>
      </trkpt>
      <trkpt lat="45.50996" lon="6.15132">
        <ele>543.79998779297</ele>
        <time>2021-12-31T12:33:24.000Z</time>
      </trkpt>
      <trkpt lat="45.51008" lon="6.15148">
        <ele>543.40002441406</ele>
        <time>2021-12-31T12:33:27.000Z</time>
      </trkpt>
      <trkpt lat="45.51012" lon="6.15155">
        <ele>543.40002441406</ele>
        <time>2021-12-31T12:33:28.000Z</time>
      </trkpt>
      <trkpt lat="45.51016" lon="6.15165">
        <ele>543.20001220703</ele>
        <time>2021-12-31T12:33:29.000Z</time>
      </trkpt>
      <trkpt lat="45.51021" lon="6.15184">
        <ele>543</ele>
        <time>2021-12-31T12:33:31.000Z</time>
      </trkpt>
      <trkpt lat="45.51026" lon="6.15207">
        <ele>542.79998779297</ele>
        <time>2021-12-31T12:33:33.000Z</time>
      </trkpt>
      <trkpt lat="45.51029" lon="6.15232">
        <ele>542.40002441406</ele>
        <time>2021-12-31T12:33:35.000Z</time>
      </trkpt>
      <trkpt lat="45.51028" lon="6.15245">
        <ele>541.79998779297</ele>
        <time>2021-12-31T12:33:36.000Z</time>
      </trkpt>
      <trkpt lat="45.51027" lon="6.15257">
        <ele>541.20001220703</ele>
        <time>2021-12-31T12:33:37.000Z</time>
      </trkpt>
      <trkpt lat="45.51024" lon="6.1527">
        <ele>541</ele>
        <time>2021-12-31T12:33:38.000Z</time>
      </trkpt>
      <trkpt lat="45.51023" lon="6.15294">
        <ele>540</ele>
        <time>2021-12-31T12:33:40.000Z</time>
      </trkpt>
      <trkpt lat="45.51023" lon="6.15305">
        <ele>539.40002441406</ele>
        <time>2021-12-31T12:33:41.000Z</time>
      </trkpt>
      <trkpt lat="45.51025" lon="6.15315">
        <ele>538.59997558594</ele>
        <time>2021-12-31T12:33:42.000Z</time>
      </trkpt>
      <trkpt lat="45.51027" lon="6.15327">
        <ele>537.20001220703</ele>
        <time>2021-12-31T12:33:43.000Z</time>
      </trkpt>
      <trkpt lat="45.51031" lon="6.1534">
        <ele>536</ele>
        <time>2021-12-31T12:33:44.000Z</time>
      </trkpt>
      <trkpt lat="45.51039" lon="6.15366">
        <ele>534.20001220703</ele>
        <time>2021-12-31T12:33:46.000Z</time>
      </trkpt>
      <trkpt lat="45.51048" lon="6.15391">
        <ele>532.59997558594</ele>
        <time>2021-12-31T12:33:48.000Z</time>
      </trkpt>
      <trkpt lat="45.51052" lon="6.15401">
        <ele>531.59997558594</ele>
        <time>2021-12-31T12:33:49.000Z</time>
      </trkpt>
      <trkpt lat="45.51058" lon="6.1541">
        <ele>531</ele>
        <time>2021-12-31T12:33:50.000Z</time>
      </trkpt>
      <trkpt lat="45.51063" lon="6.15417">
        <ele>529.59997558594</ele>
        <time>2021-12-31T12:33:51.000Z</time>
      </trkpt>
      <trkpt lat="45.51067" lon="6.15424">
        <ele>529</ele>
        <time>2021-12-31T12:33:52.000Z</time>
      </trkpt>
      <trkpt lat="45.51069" lon="6.15431">
        <ele>528</ele>
        <time>2021-12-31T12:33:53.000Z</time>
      </trkpt>
      <trkpt lat="45.51068" lon="6.15437">
        <ele>527.20001220703</ele>
        <time>2021-12-31T12:33:54.000Z</time>
      </trkpt>
      <trkpt lat="45.51066" lon="6.15441">
        <ele>526.59997558594</ele>
        <time>2021-12-31T12:33:55.000Z</time>
      </trkpt>
      <trkpt lat="45.51062" lon="6.15443">
        <ele>525.59997558594</ele>
        <time>2021-12-31T12:33:56.000Z</time>
      </trkpt>
      <trkpt lat="45.51058" lon="6.15437">
        <ele>525</ele>
        <time>2021-12-31T12:33:57.000Z</time>
      </trkpt>
      <trkpt lat="45.51053" lon="6.15431">
        <ele>523.79998779297</ele>
        <time>2021-12-31T12:33:58.000Z</time>
      </trkpt>
      <trkpt lat="45.51049" lon="6.15423">
        <ele>523.40002441406</ele>
        <time>2021-12-31T12:33:59.000Z</time>
      </trkpt>
      <trkpt lat="45.51044" lon="6.15414">
        <ele>522.59997558594</ele>
        <time>2021-12-31T12:34:00.000Z</time>
      </trkpt>
      <trkpt lat="45.51033" lon="6.15395">
        <ele>521.59997558594</ele>
        <time>2021-12-31T12:34:02.000Z</time>
      </trkpt>
      <trkpt lat="45.51012" lon="6.15364">
        <ele>520.20001220703</ele>
        <time>2021-12-31T12:34:05.000Z</time>
      </trkpt>
      <trkpt lat="45.51004" lon="6.15353">
        <ele>519.40002441406</ele>
        <time>2021-12-31T12:34:06.000Z</time>
      </trkpt>
      <trkpt lat="45.50996" lon="6.15343">
        <ele>519</ele>
        <time>2021-12-31T12:34:07.000Z</time>
      </trkpt>
      <trkpt lat="45.50987" lon="6.15333">
        <ele>518.20001220703</ele>
        <time>2021-12-31T12:34:08.000Z</time>
      </trkpt>
      <trkpt lat="45.50977" lon="6.15325">
        <ele>517.79998779297</ele>
        <time>2021-12-31T12:34:09.000Z</time>
      </trkpt>
      <trkpt lat="45.50967" lon="6.15318">
        <ele>516</ele>
        <time>2021-12-31T12:34:10.000Z</time>
      </trkpt>
      <trkpt lat="45.50946" lon="6.15306">
        <ele>514.59997558594</ele>
        <time>2021-12-31T12:34:12.000Z</time>
      </trkpt>
      <trkpt lat="45.50936" lon="6.153">
        <ele>513.40002441406</ele>
        <time>2021-12-31T12:34:13.000Z</time>
      </trkpt>
      <trkpt lat="45.50917" lon="6.15287">
        <ele>511.20001220703</ele>
        <time>2021-12-31T12:34:15.000Z</time>
      </trkpt>
      <trkpt lat="45.50907" lon="6.15281">
        <ele>510.60000610352</ele>
        <time>2021-12-31T12:34:16.000Z</time>
      </trkpt>
      <trkpt lat="45.50898" lon="6.15274">
        <ele>509.60000610352</ele>
        <time>2021-12-31T12:34:17.000Z</time>
      </trkpt>
      <trkpt lat="45.50888" lon="6.15267">
        <ele>508.39999389648</ele>
        <time>2021-12-31T12:34:18.000Z</time>
      </trkpt>
      <trkpt lat="45.50869" lon="6.15253">
        <ele>506</ele>
        <time>2021-12-31T12:34:20.000Z</time>
      </trkpt>
      <trkpt lat="45.50852" lon="6.15237">
        <ele>504.20001220703</ele>
        <time>2021-12-31T12:34:22.000Z</time>
      </trkpt>
      <trkpt lat="45.50845" lon="6.15228">
        <ele>503</ele>
        <time>2021-12-31T12:34:23.000Z</time>
      </trkpt>
      <trkpt lat="45.50828" lon="6.15206">
        <ele>501.39999389648</ele>
        <time>2021-12-31T12:34:25.000Z</time>
      </trkpt>
      <trkpt lat="45.50819" lon="6.15196">
        <ele>500.39999389648</ele>
        <time>2021-12-31T12:34:26.000Z</time>
      </trkpt>
      <trkpt lat="45.5081" lon="6.15186">
        <ele>499</ele>
        <time>2021-12-31T12:34:27.000Z</time>
      </trkpt>
      <trkpt lat="45.50799" lon="6.15175">
        <ele>497.39999389648</ele>
        <time>2021-12-31T12:34:28.000Z</time>
      </trkpt>
      <trkpt lat="45.50782" lon="6.1516">
        <ele>495.79998779297</ele>
        <time>2021-12-31T12:34:30.000Z</time>
      </trkpt>
      <trkpt lat="45.50771" lon="6.15153">
        <ele>495</ele>
        <time>2021-12-31T12:34:31.000Z</time>
      </trkpt>
      <trkpt lat="45.5076" lon="6.15145">
        <ele>493.79998779297</ele>
        <time>2021-12-31T12:34:32.000Z</time>
      </trkpt>
      <trkpt lat="45.50737" lon="6.15133">
        <ele>491.79998779297</ele>
        <time>2021-12-31T12:34:34.000Z</time>
      </trkpt>
      <trkpt lat="45.50726" lon="6.15127">
        <ele>490.39999389648</ele>
        <time>2021-12-31T12:34:35.000Z</time>
      </trkpt>
      <trkpt lat="45.50704" lon="6.15115">
        <ele>488.60000610352</ele>
        <time>2021-12-31T12:34:37.000Z</time>
      </trkpt>
      <trkpt lat="45.50682" lon="6.15106">
        <ele>486.20001220703</ele>
        <time>2021-12-31T12:34:39.000Z</time>
      </trkpt>
      <trkpt lat="45.5067" lon="6.15104">
        <ele>484.20001220703</ele>
        <time>2021-12-31T12:34:40.000Z</time>
      </trkpt>
      <trkpt lat="45.50648" lon="6.15099">
        <ele>482</ele>
        <time>2021-12-31T12:34:42.000Z</time>
      </trkpt>
      <trkpt lat="45.50628" lon="6.15094">
        <ele>479.60000610352</ele>
        <time>2021-12-31T12:34:44.000Z</time>
      </trkpt>
      <trkpt lat="45.50619" lon="6.15091">
        <ele>477.79998779297</ele>
        <time>2021-12-31T12:34:45.000Z</time>
      </trkpt>
      <trkpt lat="45.50601" lon="6.15083">
        <ele>475.79998779297</ele>
        <time>2021-12-31T12:34:47.000Z</time>
      </trkpt>
      <trkpt lat="45.50584" lon="6.15071">
        <ele>473.79998779297</ele>
        <time>2021-12-31T12:34:49.000Z</time>
      </trkpt>
      <trkpt lat="45.50568" lon="6.15058">
        <ele>471.60000610352</ele>
        <time>2021-12-31T12:34:51.000Z</time>
      </trkpt>
      <trkpt lat="45.50551" lon="6.15043">
        <ele>470</ele>
        <time>2021-12-31T12:34:53.000Z</time>
      </trkpt>
      <trkpt lat="45.50542" lon="6.15035">
        <ele>468.79998779297</ele>
        <time>2021-12-31T12:34:54.000Z</time>
      </trkpt>
      <trkpt lat="45.50533" lon="6.15026">
        <ele>468.20001220703</ele>
        <time>2021-12-31T12:34:55.000Z</time>
      </trkpt>
      <trkpt lat="45.50524" lon="6.15017">
        <ele>467</ele>
        <time>2021-12-31T12:34:56.000Z</time>
      </trkpt>
      <trkpt lat="45.50516" lon="6.15008">
        <ele>465.79998779297</ele>
        <time>2021-12-31T12:34:57.000Z</time>
      </trkpt>
      <trkpt lat="45.50501" lon="6.1499">
        <ele>464.60000610352</ele>
        <time>2021-12-31T12:34:59.000Z</time>
      </trkpt>
      <trkpt lat="45.50493" lon="6.14981">
        <ele>463.79998779297</ele>
        <time>2021-12-31T12:35:00.000Z</time>
      </trkpt>
      <trkpt lat="45.50485" lon="6.14971">
        <ele>462.79998779297</ele>
        <time>2021-12-31T12:35:01.000Z</time>
      </trkpt>
      <trkpt lat="45.50477" lon="6.14962">
        <ele>461.39999389648</ele>
        <time>2021-12-31T12:35:02.000Z</time>
      </trkpt>
      <trkpt lat="45.50459" lon="6.14947">
        <ele>459.79998779297</ele>
        <time>2021-12-31T12:35:04.000Z</time>
      </trkpt>
      <trkpt lat="45.5045" lon="6.14941">
        <ele>459</ele>
        <time>2021-12-31T12:35:05.000Z</time>
      </trkpt>
      <trkpt lat="45.50442" lon="6.14936">
        <ele>457.79998779297</ele>
        <time>2021-12-31T12:35:06.000Z</time>
      </trkpt>
      <trkpt lat="45.50428" lon="6.14926">
        <ele>455.79998779297</ele>
        <time>2021-12-31T12:35:08.000Z</time>
      </trkpt>
      <trkpt lat="45.50422" lon="6.14921">
        <ele>454.60000610352</ele>
        <time>2021-12-31T12:35:09.000Z</time>
      </trkpt>
      <trkpt lat="45.50413" lon="6.14914">
        <ele>452.79998779297</ele>
        <time>2021-12-31T12:35:11.000Z</time>
      </trkpt>
      <trkpt lat="45.50405" lon="6.14917">
        <ele>451.20001220703</ele>
        <time>2021-12-31T12:35:13.000Z</time>
      </trkpt>
      <trkpt lat="45.50406" lon="6.14927">
        <ele>450.20001220703</ele>
        <time>2021-12-31T12:35:15.000Z</time>
      </trkpt>
      <trkpt lat="45.50423" lon="6.14941">
        <ele>449.20001220703</ele>
        <time>2021-12-31T12:35:18.000Z</time>
      </trkpt>
      <trkpt lat="45.5043" lon="6.14948">
        <ele>448.60000610352</ele>
        <time>2021-12-31T12:35:19.000Z</time>
      </trkpt>
      <trkpt lat="45.50435" lon="6.14954">
        <ele>448.39999389648</ele>
        <time>2021-12-31T12:35:20.000Z</time>
      </trkpt>
      <trkpt lat="45.50441" lon="6.14961">
        <ele>448</ele>
        <time>2021-12-31T12:35:21.000Z</time>
      </trkpt>
      <trkpt lat="45.50453" lon="6.14977">
        <ele>447</ele>
        <time>2021-12-31T12:35:23.000Z</time>
      </trkpt>
      <trkpt lat="45.50459" lon="6.14987">
        <ele>446.60000610352</ele>
        <time>2021-12-31T12:35:24.000Z</time>
      </trkpt>
      <trkpt lat="45.50477" lon="6.15022">
        <ele>445.39999389648</ele>
        <time>2021-12-31T12:35:27.000Z</time>
      </trkpt>
      <trkpt lat="45.50482" lon="6.15034">
        <ele>444.60000610352</ele>
        <time>2021-12-31T12:35:28.000Z</time>
      </trkpt>
      <trkpt lat="45.50488" lon="6.15046">
        <ele>444.20001220703</ele>
        <time>2021-12-31T12:35:29.000Z</time>
      </trkpt>
      <trkpt lat="45.50493" lon="6.15058">
        <ele>443.39999389648</ele>
        <time>2021-12-31T12:35:30.000Z</time>
      </trkpt>
      <trkpt lat="45.50499" lon="6.15072">
        <ele>441.79998779297</ele>
        <time>2021-12-31T12:35:31.000Z</time>
      </trkpt>
      <trkpt lat="45.50509" lon="6.15098">
        <ele>440</ele>
        <time>2021-12-31T12:35:33.000Z</time>
      </trkpt>
      <trkpt lat="45.50513" lon="6.15109">
        <ele>439.39999389648</ele>
        <time>2021-12-31T12:35:34.000Z</time>
      </trkpt>
      <trkpt lat="45.50518" lon="6.1512">
        <ele>438.20001220703</ele>
        <time>2021-12-31T12:35:35.000Z</time>
      </trkpt>
      <trkpt lat="45.50524" lon="6.15128">
        <ele>436.79998779297</ele>
        <time>2021-12-31T12:35:36.000Z</time>
      </trkpt>
      <trkpt lat="45.50534" lon="6.15143">
        <ele>434.79998779297</ele>
        <time>2021-12-31T12:35:38.000Z</time>
      </trkpt>
      <trkpt lat="45.50538" lon="6.1515">
        <ele>434</ele>
        <time>2021-12-31T12:35:39.000Z</time>
      </trkpt>
      <trkpt lat="45.50539" lon="6.15158">
        <ele>432.60000610352</ele>
        <time>2021-12-31T12:35:40.000Z</time>
      </trkpt>
      <trkpt lat="45.50539" lon="6.15162">
        <ele>431.60000610352</ele>
        <time>2021-12-31T12:35:41.000Z</time>
      </trkpt>
      <trkpt lat="45.50537" lon="6.15165">
        <ele>431</ele>
        <time>2021-12-31T12:35:42.000Z</time>
      </trkpt>
      <trkpt lat="45.50532" lon="6.15161">
        <ele>429.60000610352</ele>
        <time>2021-12-31T12:35:44.000Z</time>
      </trkpt>
      <trkpt lat="45.50529" lon="6.15157">
        <ele>428.60000610352</ele>
        <time>2021-12-31T12:35:45.000Z</time>
      </trkpt>
      <trkpt lat="45.50526" lon="6.15153">
        <ele>428.20001220703</ele>
        <time>2021-12-31T12:35:46.000Z</time>
      </trkpt>
      <trkpt lat="45.50517" lon="6.15145">
        <ele>427.39999389648</ele>
        <time>2021-12-31T12:35:47.000Z</time>
      </trkpt>
      <trkpt lat="45.50507" lon="6.15139">
        <ele>426.60000610352</ele>
        <time>2021-12-31T12:35:48.000Z</time>
      </trkpt>
      <trkpt lat="45.50498" lon="6.15134">
        <ele>426.20001220703</ele>
        <time>2021-12-31T12:35:49.000Z</time>
      </trkpt>
      <trkpt lat="45.50481" lon="6.15125">
        <ele>425.39999389648</ele>
        <time>2021-12-31T12:35:51.000Z</time>
      </trkpt>
      <trkpt lat="45.5047" lon="6.1512">
        <ele>424.79998779297</ele>
        <time>2021-12-31T12:35:52.000Z</time>
      </trkpt>
      <trkpt lat="45.50461" lon="6.15115">
        <ele>424</ele>
        <time>2021-12-31T12:35:53.000Z</time>
      </trkpt>
      <trkpt lat="45.50452" lon="6.15108">
        <ele>423.60000610352</ele>
        <time>2021-12-31T12:35:54.000Z</time>
      </trkpt>
      <trkpt lat="45.50443" lon="6.15101">
        <ele>422.79998779297</ele>
        <time>2021-12-31T12:35:55.000Z</time>
      </trkpt>
      <trkpt lat="45.50424" lon="6.15084">
        <ele>421.60000610352</ele>
        <time>2021-12-31T12:35:57.000Z</time>
      </trkpt>
      <trkpt lat="45.50414" lon="6.15076">
        <ele>420.79998779297</ele>
        <time>2021-12-31T12:35:58.000Z</time>
      </trkpt>
      <trkpt lat="45.50395" lon="6.15058">
        <ele>419.20001220703</ele>
        <time>2021-12-31T12:36:00.000Z</time>
      </trkpt>
      <trkpt lat="45.50387" lon="6.15052">
        <ele>418.60000610352</ele>
        <time>2021-12-31T12:36:01.000Z</time>
      </trkpt>
      <trkpt lat="45.50375" lon="6.15044">
        <ele>417.39999389648</ele>
        <time>2021-12-31T12:36:02.000Z</time>
      </trkpt>
      <trkpt lat="45.50365" lon="6.15038">
        <ele>415.79998779297</ele>
        <time>2021-12-31T12:36:03.000Z</time>
      </trkpt>
      <trkpt lat="45.50347" lon="6.15027">
        <ele>414</ele>
        <time>2021-12-31T12:36:05.000Z</time>
      </trkpt>
      <trkpt lat="45.5034" lon="6.15021">
        <ele>413</ele>
        <time>2021-12-31T12:36:06.000Z</time>
      </trkpt>
      <trkpt lat="45.50333" lon="6.15013">
        <ele>412</ele>
        <time>2021-12-31T12:36:07.000Z</time>
      </trkpt>
      <trkpt lat="45.50324" lon="6.15002">
        <ele>411</ele>
        <time>2021-12-31T12:36:08.000Z</time>
      </trkpt>
      <trkpt lat="45.50318" lon="6.14991">
        <ele>409.39999389648</ele>
        <time>2021-12-31T12:36:09.000Z</time>
      </trkpt>
      <trkpt lat="45.50306" lon="6.14969">
        <ele>407.79998779297</ele>
        <time>2021-12-31T12:36:11.000Z</time>
      </trkpt>
      <trkpt lat="45.50298" lon="6.14955">
        <ele>406.60000610352</ele>
        <time>2021-12-31T12:36:12.000Z</time>
      </trkpt>
      <trkpt lat="45.50286" lon="6.14932">
        <ele>404.60000610352</ele>
        <time>2021-12-31T12:36:14.000Z</time>
      </trkpt>
      <trkpt lat="45.5028" lon="6.1492">
        <ele>402.60000610352</ele>
        <time>2021-12-31T12:36:15.000Z</time>
      </trkpt>
      <trkpt lat="45.50274" lon="6.14912">
        <ele>401.79998779297</ele>
        <time>2021-12-31T12:36:16.000Z</time>
      </trkpt>
      <trkpt lat="45.50267" lon="6.14903">
        <ele>400.60000610352</ele>
        <time>2021-12-31T12:36:17.000Z</time>
      </trkpt>
      <trkpt lat="45.50249" lon="6.14887">
        <ele>398.39999389648</ele>
        <time>2021-12-31T12:36:19.000Z</time>
      </trkpt>
      <trkpt lat="45.5024" lon="6.14879">
        <ele>397.20001220703</ele>
        <time>2021-12-31T12:36:20.000Z</time>
      </trkpt>
      <trkpt lat="45.50222" lon="6.14865">
        <ele>395.39999389648</ele>
        <time>2021-12-31T12:36:22.000Z</time>
      </trkpt>
      <trkpt lat="45.50203" lon="6.14849">
        <ele>393.39999389648</ele>
        <time>2021-12-31T12:36:24.000Z</time>
      </trkpt>
      <trkpt lat="45.50185" lon="6.14833">
        <ele>391.20001220703</ele>
        <time>2021-12-31T12:36:26.000Z</time>
      </trkpt>
      <trkpt lat="45.50174" lon="6.14822">
        <ele>390</ele>
        <time>2021-12-31T12:36:27.000Z</time>
      </trkpt>
      <trkpt lat="45.50156" lon="6.14804">
        <ele>388.20001220703</ele>
        <time>2021-12-31T12:36:29.000Z</time>
      </trkpt>
      <trkpt lat="45.50138" lon="6.14788">
        <ele>386.39999389648</ele>
        <time>2021-12-31T12:36:31.000Z</time>
      </trkpt>
      <trkpt lat="45.5013" lon="6.1478">
        <ele>385</ele>
        <time>2021-12-31T12:36:32.000Z</time>
      </trkpt>
      <trkpt lat="45.5012" lon="6.14773">
        <ele>384.79998779297</ele>
        <time>2021-12-31T12:36:33.000Z</time>
      </trkpt>
      <trkpt lat="45.5011" lon="6.14768">
        <ele>383.60000610352</ele>
        <time>2021-12-31T12:36:34.000Z</time>
      </trkpt>
      <trkpt lat="45.501" lon="6.14764">
        <ele>383.20001220703</ele>
        <time>2021-12-31T12:36:35.000Z</time>
      </trkpt>
      <trkpt lat="45.50092" lon="6.14761">
        <ele>381.79998779297</ele>
        <time>2021-12-31T12:36:36.000Z</time>
      </trkpt>
      <trkpt lat="45.50081" lon="6.14758">
        <ele>380.60000610352</ele>
        <time>2021-12-31T12:36:37.000Z</time>
      </trkpt>
      <trkpt lat="45.5006" lon="6.1475">
        <ele>378.60000610352</ele>
        <time>2021-12-31T12:36:39.000Z</time>
      </trkpt>
      <trkpt lat="45.50041" lon="6.14743">
        <ele>377</ele>
        <time>2021-12-31T12:36:41.000Z</time>
      </trkpt>
      <trkpt lat="45.50032" lon="6.14738">
        <ele>376.60000610352</ele>
        <time>2021-12-31T12:36:42.000Z</time>
      </trkpt>
      <trkpt lat="45.50023" lon="6.14731">
        <ele>375.20001220703</ele>
        <time>2021-12-31T12:36:43.000Z</time>
      </trkpt>
      <trkpt lat="45.50014" lon="6.14723">
        <ele>374.20001220703</ele>
        <time>2021-12-31T12:36:44.000Z</time>
      </trkpt>
      <trkpt lat="45.50007" lon="6.14713">
        <ele>374</ele>
        <time>2021-12-31T12:36:45.000Z</time>
      </trkpt>
      <trkpt lat="45.5" lon="6.14702">
        <ele>373.20001220703</ele>
        <time>2021-12-31T12:36:46.000Z</time>
      </trkpt>
      <trkpt lat="45.49987" lon="6.14683">
        <ele>371</ele>
        <time>2021-12-31T12:36:48.000Z</time>
      </trkpt>
      <trkpt lat="45.49972" lon="6.14666">
        <ele>369.60000610352</ele>
        <time>2021-12-31T12:36:50.000Z</time>
      </trkpt>
      <trkpt lat="45.49964" lon="6.1466">
        <ele>368.79998779297</ele>
        <time>2021-12-31T12:36:51.000Z</time>
      </trkpt>
      <trkpt lat="45.49955" lon="6.14655">
        <ele>368.39999389648</ele>
        <time>2021-12-31T12:36:52.000Z</time>
      </trkpt>
      <trkpt lat="45.49945" lon="6.14653">
        <ele>367.20001220703</ele>
        <time>2021-12-31T12:36:53.000Z</time>
      </trkpt>
      <trkpt lat="45.49934" lon="6.14653">
        <ele>366.20001220703</ele>
        <time>2021-12-31T12:36:54.000Z</time>
      </trkpt>
      <trkpt lat="45.49924" lon="6.14654">
        <ele>365.60000610352</ele>
        <time>2021-12-31T12:36:55.000Z</time>
      </trkpt>
      <trkpt lat="45.49913" lon="6.14656">
        <ele>364.39999389648</ele>
        <time>2021-12-31T12:36:56.000Z</time>
      </trkpt>
      <trkpt lat="45.49892" lon="6.14663">
        <ele>362.79998779297</ele>
        <time>2021-12-31T12:36:58.000Z</time>
      </trkpt>
      <trkpt lat="45.49873" lon="6.14671">
        <ele>361.20001220703</ele>
        <time>2021-12-31T12:37:00.000Z</time>
      </trkpt>
      <trkpt lat="45.49863" lon="6.14676">
        <ele>360.39999389648</ele>
        <time>2021-12-31T12:37:01.000Z</time>
      </trkpt>
      <trkpt lat="45.49854" lon="6.14681">
        <ele>359.79998779297</ele>
        <time>2021-12-31T12:37:02.000Z</time>
      </trkpt>
      <trkpt lat="45.49836" lon="6.14688">
        <ele>358.60000610352</ele>
        <time>2021-12-31T12:37:04.000Z</time>
      </trkpt>
      <trkpt lat="45.49825" lon="6.14689">
        <ele>357.20001220703</ele>
        <time>2021-12-31T12:37:05.000Z</time>
      </trkpt>
      <trkpt lat="45.49817" lon="6.14688">
        <ele>356</ele>
        <time>2021-12-31T12:37:06.000Z</time>
      </trkpt>
      <trkpt lat="45.49797" lon="6.1468">
        <ele>354.39999389648</ele>
        <time>2021-12-31T12:37:08.000Z</time>
      </trkpt>
      <trkpt lat="45.49779" lon="6.14668">
        <ele>352.60000610352</ele>
        <time>2021-12-31T12:37:10.000Z</time>
      </trkpt>
      <trkpt lat="45.49763" lon="6.14656">
        <ele>351</ele>
        <time>2021-12-31T12:37:12.000Z</time>
      </trkpt>
      <trkpt lat="45.49755" lon="6.14651">
        <ele>349.60000610352</ele>
        <time>2021-12-31T12:37:13.000Z</time>
      </trkpt>
      <trkpt lat="45.49739" lon="6.14644">
        <ele>347.79998779297</ele>
        <time>2021-12-31T12:37:15.000Z</time>
      </trkpt>
      <trkpt lat="45.49731" lon="6.1464">
        <ele>346.79998779297</ele>
        <time>2021-12-31T12:37:16.000Z</time>
      </trkpt>
      <trkpt lat="45.49722" lon="6.14638">
        <ele>346.60000610352</ele>
        <time>2021-12-31T12:37:17.000Z</time>
      </trkpt>
      <trkpt lat="45.49714" lon="6.14635">
        <ele>345.20001220703</ele>
        <time>2021-12-31T12:37:18.000Z</time>
      </trkpt>
      <trkpt lat="45.497" lon="6.1463">
        <ele>343.79998779297</ele>
        <time>2021-12-31T12:37:20.000Z</time>
      </trkpt>
      <trkpt lat="45.49694" lon="6.14628">
        <ele>343.60000610352</ele>
        <time>2021-12-31T12:37:21.000Z</time>
      </trkpt>
      <trkpt lat="45.49689" lon="6.14626">
        <ele>342.79998779297</ele>
        <time>2021-12-31T12:37:22.000Z</time>
      </trkpt>
      <trkpt lat="45.49683" lon="6.14625">
        <ele>341.79998779297</ele>
        <time>2021-12-31T12:37:23.000Z</time>
      </trkpt>
      <trkpt lat="45.49677" lon="6.14624">
        <ele>340.20001220703</ele>
        <time>2021-12-31T12:37:25.000Z</time>
      </trkpt>
      <trkpt lat="45.49675" lon="6.14625">
        <ele>339.79998779297</ele>
        <time>2021-12-31T12:37:26.000Z</time>
      </trkpt>
      <trkpt lat="45.49674" lon="6.14626">
        <ele>339</ele>
        <time>2021-12-31T12:37:27.000Z</time>
      </trkpt>
      <trkpt lat="45.49674" lon="6.14629">
        <ele>338.20001220703</ele>
        <time>2021-12-31T12:37:28.000Z</time>
      </trkpt>
      <trkpt lat="45.49675" lon="6.14633">
        <ele>337.79998779297</ele>
        <time>2021-12-31T12:37:29.000Z</time>
      </trkpt>
      <trkpt lat="45.49685" lon="6.14645">
        <ele>337</ele>
        <time>2021-12-31T12:37:32.000Z</time>
      </trkpt>
      <trkpt lat="45.49689" lon="6.1465">
        <ele>336.79998779297</ele>
        <time>2021-12-31T12:37:33.000Z</time>
      </trkpt>
      <trkpt lat="45.49711" lon="6.14682">
        <ele>337.20001220703</ele>
        <time>2021-12-31T12:37:39.000Z</time>
      </trkpt>
      <trkpt lat="45.49714" lon="6.14687">
        <ele>337.20001220703</ele>
        <time>2021-12-31T12:37:40.000Z</time>
      </trkpt>
      <trkpt lat="45.49716" lon="6.14694">
        <ele>337.20001220703</ele>
        <time>2021-12-31T12:37:41.000Z</time>
      </trkpt>
      <trkpt lat="45.49723" lon="6.14717">
        <ele>337.39999389648</ele>
        <time>2021-12-31T12:37:44.000Z</time>
      </trkpt>
      <trkpt lat="45.49731" lon="6.14734">
        <ele>337.20001220703</ele>
        <time>2021-12-31T12:37:46.000Z</time>
      </trkpt>
      <trkpt lat="45.49741" lon="6.14748">
        <ele>336.79998779297</ele>
        <time>2021-12-31T12:37:48.000Z</time>
      </trkpt>
      <trkpt lat="45.49754" lon="6.14762">
        <ele>336.39999389648</ele>
        <time>2021-12-31T12:37:50.000Z</time>
      </trkpt>
      <trkpt lat="45.49767" lon="6.14776">
        <ele>335.79998779297</ele>
        <time>2021-12-31T12:37:52.000Z</time>
      </trkpt>
      <trkpt lat="45.49774" lon="6.14784">
        <ele>335.60000610352</ele>
        <time>2021-12-31T12:37:53.000Z</time>
      </trkpt>
      <trkpt lat="45.49789" lon="6.14799">
        <ele>334.60000610352</ele>
        <time>2021-12-31T12:37:55.000Z</time>
      </trkpt>
      <trkpt lat="45.49805" lon="6.14813">
        <ele>333.39999389648</ele>
        <time>2021-12-31T12:37:57.000Z</time>
      </trkpt>
      <trkpt lat="45.49814" lon="6.14819">
        <ele>333.20001220703</ele>
        <time>2021-12-31T12:37:58.000Z</time>
      </trkpt>
      <trkpt lat="45.49833" lon="6.14832">
        <ele>331.60000610352</ele>
        <time>2021-12-31T12:38:00.000Z</time>
      </trkpt>
      <trkpt lat="45.49853" lon="6.14845">
        <ele>330.20001220703</ele>
        <time>2021-12-31T12:38:02.000Z</time>
      </trkpt>
      <trkpt lat="45.49873" lon="6.14859">
        <ele>328.79998779297</ele>
        <time>2021-12-31T12:38:04.000Z</time>
      </trkpt>
      <trkpt lat="45.49882" lon="6.14868">
        <ele>328.39999389648</ele>
        <time>2021-12-31T12:38:05.000Z</time>
      </trkpt>
      <trkpt lat="45.49891" lon="6.14877">
        <ele>327.60000610352</ele>
        <time>2021-12-31T12:38:06.000Z</time>
      </trkpt>
      <trkpt lat="45.49899" lon="6.14888">
        <ele>326.60000610352</ele>
        <time>2021-12-31T12:38:07.000Z</time>
      </trkpt>
      <trkpt lat="45.49907" lon="6.14898">
        <ele>326</ele>
        <time>2021-12-31T12:38:08.000Z</time>
      </trkpt>
      <trkpt lat="45.49922" lon="6.14918">
        <ele>324.79998779297</ele>
        <time>2021-12-31T12:38:10.000Z</time>
      </trkpt>
      <trkpt lat="45.49949" lon="6.14955">
        <ele>323.60000610352</ele>
        <time>2021-12-31T12:38:14.000Z</time>
      </trkpt>
      <trkpt lat="45.49977" lon="6.14992">
        <ele>322.79998779297</ele>
        <time>2021-12-31T12:38:19.000Z</time>
      </trkpt>
      <trkpt lat="45.50015" lon="6.15029">
        <ele>323</ele>
        <time>2021-12-31T12:38:26.000Z</time>
      </trkpt>
      <trkpt lat="45.50045" lon="6.15061">
        <ele>323</ele>
        <time>2021-12-31T12:38:31.000Z</time>
      </trkpt>
      <trkpt lat="45.5005" lon="6.15069">
        <ele>323</ele>
        <time>2021-12-31T12:38:32.000Z</time>
      </trkpt>
      <trkpt lat="45.50054" lon="6.15078">
        <ele>322.79998779297</ele>
        <time>2021-12-31T12:38:33.000Z</time>
      </trkpt>
      <trkpt lat="45.50058" lon="6.15088">
        <ele>322.39999389648</ele>
        <time>2021-12-31T12:38:34.000Z</time>
      </trkpt>
      <trkpt lat="45.50071" lon="6.15121">
        <ele>321.39999389648</ele>
        <time>2021-12-31T12:38:37.000Z</time>
      </trkpt>
      <trkpt lat="45.50079" lon="6.15144">
        <ele>320.39999389648</ele>
        <time>2021-12-31T12:38:39.000Z</time>
      </trkpt>
      <trkpt lat="45.50098" lon="6.1519">
        <ele>318.79998779297</ele>
        <time>2021-12-31T12:38:43.000Z</time>
      </trkpt>
      <trkpt lat="45.50119" lon="6.15222">
        <ele>317</ele>
        <time>2021-12-31T12:38:46.000Z</time>
      </trkpt>
      <trkpt lat="45.50127" lon="6.15232">
        <ele>316.39999389648</ele>
        <time>2021-12-31T12:38:47.000Z</time>
      </trkpt>
      <trkpt lat="45.50135" lon="6.15245">
        <ele>315.79998779297</ele>
        <time>2021-12-31T12:38:48.000Z</time>
      </trkpt>
      <trkpt lat="45.50149" lon="6.15266">
        <ele>314.60000610352</ele>
        <time>2021-12-31T12:38:50.000Z</time>
      </trkpt>
      <trkpt lat="45.50168" lon="6.15294">
        <ele>312.79998779297</ele>
        <time>2021-12-31T12:38:53.000Z</time>
      </trkpt>
      <trkpt lat="45.50182" lon="6.15315">
        <ele>311.79998779297</ele>
        <time>2021-12-31T12:38:55.000Z</time>
      </trkpt>
      <trkpt lat="45.50187" lon="6.15323">
        <ele>311.20001220703</ele>
        <time>2021-12-31T12:38:56.000Z</time>
      </trkpt>
      <trkpt lat="45.50211" lon="6.15358">
        <ele>310.20001220703</ele>
        <time>2021-12-31T12:39:00.000Z</time>
      </trkpt>
      <trkpt lat="45.50221" lon="6.15375">
        <ele>310</ele>
        <time>2021-12-31T12:39:02.000Z</time>
      </trkpt>
      <trkpt lat="45.50243" lon="6.15412">
        <ele>309.20001220703</ele>
        <time>2021-12-31T12:39:07.000Z</time>
      </trkpt>
      <trkpt lat="45.50271" lon="6.15457">
        <ele>310.20001220703</ele>
        <time>2021-12-31T12:39:14.000Z</time>
      </trkpt>
      <trkpt lat="45.50307" lon="6.15502">
        <ele>310</ele>
        <time>2021-12-31T12:39:21.000Z</time>
      </trkpt>
      <trkpt lat="45.50334" lon="6.15524">
        <ele>309.39999389648</ele>
        <time>2021-12-31T12:39:26.000Z</time>
      </trkpt>
      <trkpt lat="45.50339" lon="6.15526">
        <ele>309.39999389648</ele>
        <time>2021-12-31T12:39:27.000Z</time>
      </trkpt>
      <trkpt lat="45.50345" lon="6.15527">
        <ele>309.39999389648</ele>
        <time>2021-12-31T12:39:28.000Z</time>
      </trkpt>
      <trkpt lat="45.5036" lon="6.15528">
        <ele>309.79998779297</ele>
        <time>2021-12-31T12:39:31.000Z</time>
      </trkpt>
      <trkpt lat="45.50385" lon="6.15524">
        <ele>311.39999389648</ele>
        <time>2021-12-31T12:39:36.000Z</time>
      </trkpt>
      <trkpt lat="45.5039" lon="6.15524">
        <ele>311.60000610352</ele>
        <time>2021-12-31T12:39:37.000Z</time>
      </trkpt>
      <trkpt lat="45.50404" lon="6.1553">
        <ele>312.20001220703</ele>
        <time>2021-12-31T12:39:40.000Z</time>
      </trkpt>
      <trkpt lat="45.50409" lon="6.15533">
        <ele>312.20001220703</ele>
        <time>2021-12-31T12:39:41.000Z</time>
      </trkpt>
      <trkpt lat="45.50433" lon="6.15552">
        <ele>312.60000610352</ele>
        <time>2021-12-31T12:39:46.000Z</time>
      </trkpt>
      <trkpt lat="45.50448" lon="6.15567">
        <ele>312.60000610352</ele>
        <time>2021-12-31T12:39:49.000Z</time>
      </trkpt>
      <trkpt lat="45.50452" lon="6.15573">
        <ele>312.60000610352</ele>
        <time>2021-12-31T12:39:50.000Z</time>
      </trkpt>
      <trkpt lat="45.50456" lon="6.15577">
        <ele>312.60000610352</ele>
        <time>2021-12-31T12:39:51.000Z</time>
      </trkpt>
      <trkpt lat="45.50464" lon="6.15584">
        <ele>312.60000610352</ele>
        <time>2021-12-31T12:39:53.000Z</time>
      </trkpt>
      <trkpt lat="45.50478" lon="6.15595">
        <ele>312.39999389648</ele>
        <time>2021-12-31T12:39:56.000Z</time>
      </trkpt>
      <trkpt lat="45.50481" lon="6.15598">
        <ele>312.39999389648</ele>
        <time>2021-12-31T12:39:57.000Z</time>
      </trkpt>
      <trkpt lat="45.50485" lon="6.156">
        <ele>312.60000610352</ele>
        <time>2021-12-31T12:39:58.000Z</time>
      </trkpt>
      <trkpt lat="45.50495" lon="6.15605">
        <ele>312.79998779297</ele>
        <time>2021-12-31T12:40:00.000Z</time>
      </trkpt>
      <trkpt lat="45.50499" lon="6.15611">
        <ele>313.20001220703</ele>
        <time>2021-12-31T12:40:01.000Z</time>
      </trkpt>
      <trkpt lat="45.50512" lon="6.15629">
        <ele>314</ele>
        <time>2021-12-31T12:40:04.000Z</time>
      </trkpt>
      <trkpt lat="45.50515" lon="6.15633">
        <ele>314</ele>
        <time>2021-12-31T12:40:05.000Z</time>
      </trkpt>
      <trkpt lat="45.50519" lon="6.15639">
        <ele>314</ele>
        <time>2021-12-31T12:40:06.000Z</time>
      </trkpt>
      <trkpt lat="45.50544" lon="6.15671">
        <ele>314.20001220703</ele>
        <time>2021-12-31T12:40:12.000Z</time>
      </trkpt>
      <trkpt lat="45.50571" lon="6.15694">
        <ele>314.20001220703</ele>
        <time>2021-12-31T12:40:18.000Z</time>
      </trkpt>
      <trkpt lat="45.50605" lon="6.15723">
        <ele>315</ele>
        <time>2021-12-31T12:40:26.000Z</time>
      </trkpt>
      <trkpt lat="45.5061" lon="6.15728">
        <ele>315</ele>
        <time>2021-12-31T12:40:27.000Z</time>
      </trkpt>
      <trkpt lat="45.50635" lon="6.15754">
        <ele>314.79998779297</ele>
        <time>2021-12-31T12:40:32.000Z</time>
      </trkpt>
      <trkpt lat="45.50661" lon="6.1579">
        <ele>314.20001220703</ele>
        <time>2021-12-31T12:40:37.000Z</time>
      </trkpt>
      <trkpt lat="45.50666" lon="6.15799">
        <ele>313.79998779297</ele>
        <time>2021-12-31T12:40:38.000Z</time>
      </trkpt>
      <trkpt lat="45.50681" lon="6.15825">
        <ele>312.39999389648</ele>
        <time>2021-12-31T12:40:41.000Z</time>
      </trkpt>
      <trkpt lat="45.50693" lon="6.1584">
        <ele>311.79998779297</ele>
        <time>2021-12-31T12:40:43.000Z</time>
      </trkpt>
      <trkpt lat="45.50706" lon="6.1585">
        <ele>311.20001220703</ele>
        <time>2021-12-31T12:40:45.000Z</time>
      </trkpt>
      <trkpt lat="45.50733" lon="6.15872">
        <ele>310.60000610352</ele>
        <time>2021-12-31T12:40:49.000Z</time>
      </trkpt>
      <trkpt lat="45.50765" lon="6.15906">
        <ele>310.20001220703</ele>
        <time>2021-12-31T12:40:55.000Z</time>
      </trkpt>
      <trkpt lat="45.50777" lon="6.15921">
        <ele>310</ele>
        <time>2021-12-31T12:40:57.000Z</time>
      </trkpt>
      <trkpt lat="45.50796" lon="6.15943">
        <ele>309</ele>
        <time>2021-12-31T12:41:00.000Z</time>
      </trkpt>
      <trkpt lat="45.50809" lon="6.15958">
        <ele>308.20001220703</ele>
        <time>2021-12-31T12:41:02.000Z</time>
      </trkpt>
      <trkpt lat="45.50815" lon="6.15965">
        <ele>308</ele>
        <time>2021-12-31T12:41:03.000Z</time>
      </trkpt>
      <trkpt lat="45.50839" lon="6.15996">
        <ele>307.20001220703</ele>
        <time>2021-12-31T12:41:07.000Z</time>
      </trkpt>
      <trkpt lat="45.50849" lon="6.16011">
        <ele>306.79998779297</ele>
        <time>2021-12-31T12:41:09.000Z</time>
      </trkpt>
      <trkpt lat="45.50884" lon="6.1606">
        <ele>306.39999389648</ele>
        <time>2021-12-31T12:41:16.000Z</time>
      </trkpt>
      <trkpt lat="45.50916" lon="6.16102">
        <ele>306</ele>
        <time>2021-12-31T12:41:22.000Z</time>
      </trkpt>
      <trkpt lat="45.50923" lon="6.1611">
        <ele>305.79998779297</ele>
        <time>2021-12-31T12:41:23.000Z</time>
      </trkpt>
      <trkpt lat="45.50952" lon="6.16153">
        <ele>305</ele>
        <time>2021-12-31T12:41:29.000Z</time>
      </trkpt>
      <trkpt lat="45.50967" lon="6.16175">
        <ele>304.60000610352</ele>
        <time>2021-12-31T12:41:32.000Z</time>
      </trkpt>
      <trkpt lat="45.50993" lon="6.16214">
        <ele>304</ele>
        <time>2021-12-31T12:41:38.000Z</time>
      </trkpt>
      <trkpt lat="45.51001" lon="6.16227">
        <ele>304</ele>
        <time>2021-12-31T12:41:40.000Z</time>
      </trkpt>
      <trkpt lat="45.51005" lon="6.16235">
        <ele>304</ele>
        <time>2021-12-31T12:41:41.000Z</time>
      </trkpt>
      <trkpt lat="45.51011" lon="6.16261">
        <ele>304.39999389648</ele>
        <time>2021-12-31T12:41:44.000Z</time>
      </trkpt>
      <trkpt lat="45.51025" lon="6.16299">
        <ele>304.39999389648</ele>
        <time>2021-12-31T12:41:48.000Z</time>
      </trkpt>
      <trkpt lat="45.51042" lon="6.16341">
        <ele>302.79998779297</ele>
        <time>2021-12-31T12:41:52.000Z</time>
      </trkpt>
      <trkpt lat="45.51051" lon="6.16363">
        <ele>302.20001220703</ele>
        <time>2021-12-31T12:41:54.000Z</time>
      </trkpt>
      <trkpt lat="45.51056" lon="6.16374">
        <ele>301.79998779297</ele>
        <time>2021-12-31T12:41:55.000Z</time>
      </trkpt>
      <trkpt lat="45.51062" lon="6.16384">
        <ele>301.39999389648</ele>
        <time>2021-12-31T12:41:56.000Z</time>
      </trkpt>
      <trkpt lat="45.51075" lon="6.16402">
        <ele>300.60000610352</ele>
        <time>2021-12-31T12:41:58.000Z</time>
      </trkpt>
      <trkpt lat="45.51096" lon="6.16423">
        <ele>299.20001220703</ele>
        <time>2021-12-31T12:42:01.000Z</time>
      </trkpt>
      <trkpt lat="45.5111" lon="6.16435">
        <ele>298.60000610352</ele>
        <time>2021-12-31T12:42:03.000Z</time>
      </trkpt>
      <trkpt lat="45.51143" lon="6.16459">
        <ele>298</ele>
        <time>2021-12-31T12:42:08.000Z</time>
      </trkpt>
      <trkpt lat="45.51149" lon="6.16464">
        <ele>298.20001220703</ele>
        <time>2021-12-31T12:42:09.000Z</time>
      </trkpt>
      <trkpt lat="45.51172" lon="6.16488">
        <ele>298</ele>
        <time>2021-12-31T12:42:13.000Z</time>
      </trkpt>
      <trkpt lat="45.51176" lon="6.16495">
        <ele>297.79998779297</ele>
        <time>2021-12-31T12:42:14.000Z</time>
      </trkpt>
      <trkpt lat="45.51194" lon="6.16539">
        <ele>297.39999389648</ele>
        <time>2021-12-31T12:42:19.000Z</time>
      </trkpt>
      <trkpt lat="45.51197" lon="6.16547">
        <ele>297.20001220703</ele>
        <time>2021-12-31T12:42:20.000Z</time>
      </trkpt>
      <trkpt lat="45.5122" lon="6.16594">
        <ele>297</ele>
        <time>2021-12-31T12:42:26.000Z</time>
      </trkpt>
      <trkpt lat="45.5123" lon="6.16601">
        <ele>297.20001220703</ele>
        <time>2021-12-31T12:42:28.000Z</time>
      </trkpt>
      <trkpt lat="45.51235" lon="6.16602">
        <ele>297.20001220703</ele>
        <time>2021-12-31T12:42:29.000Z</time>
      </trkpt>
      <trkpt lat="45.51245" lon="6.16599">
        <ele>297.60000610352</ele>
        <time>2021-12-31T12:42:31.000Z</time>
      </trkpt>
      <trkpt lat="45.51259" lon="6.16595">
        <ele>298.20001220703</ele>
        <time>2021-12-31T12:42:34.000Z</time>
      </trkpt>
      <trkpt lat="45.51264" lon="6.16594">
        <ele>298.39999389648</ele>
        <time>2021-12-31T12:42:35.000Z</time>
      </trkpt>
      <trkpt lat="45.51268" lon="6.16594">
        <ele>298.79998779297</ele>
        <time>2021-12-31T12:42:36.000Z</time>
      </trkpt>
      <trkpt lat="45.51276" lon="6.16595">
        <ele>299.60000610352</ele>
        <time>2021-12-31T12:42:38.000Z</time>
      </trkpt>
      <trkpt lat="45.5128" lon="6.16596">
        <ele>299.79998779297</ele>
        <time>2021-12-31T12:42:39.000Z</time>
      </trkpt>
      <trkpt lat="45.51289" lon="6.16598">
        <ele>300.60000610352</ele>
        <time>2021-12-31T12:42:41.000Z</time>
      </trkpt>
      <trkpt lat="45.51294" lon="6.16599">
        <ele>301</ele>
        <time>2021-12-31T12:42:42.000Z</time>
      </trkpt>
      <trkpt lat="45.51303" lon="6.16604">
        <ele>301.39999389648</ele>
        <time>2021-12-31T12:42:44.000Z</time>
      </trkpt>
      <trkpt lat="45.51308" lon="6.16607">
        <ele>301.79998779297</ele>
        <time>2021-12-31T12:42:45.000Z</time>
      </trkpt>
      <trkpt lat="45.51312" lon="6.1661">
        <ele>301.79998779297</ele>
        <time>2021-12-31T12:42:46.000Z</time>
      </trkpt>
      <trkpt lat="45.51332" lon="6.1663">
        <ele>302.20001220703</ele>
        <time>2021-12-31T12:42:51.000Z</time>
      </trkpt>
      <trkpt lat="45.51347" lon="6.16645">
        <ele>302.79998779297</ele>
        <time>2021-12-31T12:42:55.000Z</time>
      </trkpt>
      <trkpt lat="45.51369" lon="6.16668">
        <ele>303.20001220703</ele>
        <time>2021-12-31T12:43:01.000Z</time>
      </trkpt>
      <trkpt lat="45.51373" lon="6.16671">
        <ele>303.20001220703</ele>
        <time>2021-12-31T12:43:02.000Z</time>
      </trkpt>
      <trkpt lat="45.51381" lon="6.16677">
        <ele>303.39999389648</ele>
        <time>2021-12-31T12:43:04.000Z</time>
      </trkpt>
      <trkpt lat="45.51389" lon="6.16681">
        <ele>303.60000610352</ele>
        <time>2021-12-31T12:43:06.000Z</time>
      </trkpt>
      <trkpt lat="45.51402" lon="6.16691">
        <ele>303.79998779297</ele>
        <time>2021-12-31T12:43:09.000Z</time>
      </trkpt>
      <trkpt lat="45.51418" lon="6.16709">
        <ele>304.20001220703</ele>
        <time>2021-12-31T12:43:13.000Z</time>
      </trkpt>
      <trkpt lat="45.51427" lon="6.16728">
        <ele>304.60000610352</ele>
        <time>2021-12-31T12:43:16.000Z</time>
      </trkpt>
      <trkpt lat="45.51434" lon="6.16743">
        <ele>304.60000610352</ele>
        <time>2021-12-31T12:43:18.000Z</time>
      </trkpt>
      <trkpt lat="45.51455" lon="6.16775">
        <ele>304.20001220703</ele>
        <time>2021-12-31T12:43:22.000Z</time>
      </trkpt>
      <trkpt lat="45.51483" lon="6.16818">
        <ele>302.79998779297</ele>
        <time>2021-12-31T12:43:27.000Z</time>
      </trkpt>
      <trkpt lat="45.51489" lon="6.16827">
        <ele>302.39999389648</ele>
        <time>2021-12-31T12:43:28.000Z</time>
      </trkpt>
      <trkpt lat="45.51498" lon="6.16843">
        <ele>301.39999389648</ele>
        <time>2021-12-31T12:43:30.000Z</time>
      </trkpt>
      <trkpt lat="45.51516" lon="6.16874">
        <ele>300.39999389648</ele>
        <time>2021-12-31T12:43:34.000Z</time>
      </trkpt>
      <trkpt lat="45.5152" lon="6.16881">
        <ele>300.39999389648</ele>
        <time>2021-12-31T12:43:35.000Z</time>
      </trkpt>
      <trkpt lat="45.51548" lon="6.16923">
        <ele>300.79998779297</ele>
        <time>2021-12-31T12:43:42.000Z</time>
      </trkpt>
      <trkpt lat="45.5157" lon="6.16954">
        <ele>301.39999389648</ele>
        <time>2021-12-31T12:43:48.000Z</time>
      </trkpt>
      <trkpt lat="45.51573" lon="6.16959">
        <ele>301.60000610352</ele>
        <time>2021-12-31T12:43:49.000Z</time>
      </trkpt>
      <trkpt lat="45.51589" lon="6.16983">
        <ele>302.20001220703</ele>
        <time>2021-12-31T12:43:54.000Z</time>
      </trkpt>
      <trkpt lat="45.51594" lon="6.16993">
        <ele>302.60000610352</ele>
        <time>2021-12-31T12:43:56.000Z</time>
      </trkpt>
      <trkpt lat="45.51597" lon="6.16998">
        <ele>302.79998779297</ele>
        <time>2021-12-31T12:43:57.000Z</time>
      </trkpt>
      <trkpt lat="45.51605" lon="6.17013">
        <ele>303.79998779297</ele>
        <time>2021-12-31T12:44:00.000Z</time>
      </trkpt>
      <trkpt lat="45.51619" lon="6.1704">
        <ele>304.60000610352</ele>
        <time>2021-12-31T12:44:05.000Z</time>
      </trkpt>
      <trkpt lat="45.51622" lon="6.17045">
        <ele>304.79998779297</ele>
        <time>2021-12-31T12:44:06.000Z</time>
      </trkpt>
      <trkpt lat="45.51644" lon="6.17091">
        <ele>305.60000610352</ele>
        <time>2021-12-31T12:44:14.000Z</time>
      </trkpt>
      <trkpt lat="45.51653" lon="6.17112">
        <ele>305.79998779297</ele>
        <time>2021-12-31T12:44:18.000Z</time>
      </trkpt>
      <trkpt lat="45.51666" lon="6.17135">
        <ele>306.79998779297</ele>
        <time>2021-12-31T12:44:23.000Z</time>
      </trkpt>
      <trkpt lat="45.51671" lon="6.17144">
        <ele>307.20001220703</ele>
        <time>2021-12-31T12:44:25.000Z</time>
      </trkpt>
      <trkpt lat="45.51683" lon="6.17164">
        <ele>308.20001220703</ele>
        <time>2021-12-31T12:44:29.000Z</time>
      </trkpt>
      <trkpt lat="45.51696" lon="6.17183">
        <ele>309.39999389648</ele>
        <time>2021-12-31T12:44:33.000Z</time>
      </trkpt>
      <trkpt lat="45.5173" lon="6.1723">
        <ele>310</ele>
        <time>2021-12-31T12:44:42.000Z</time>
      </trkpt>
      <trkpt lat="45.51759" lon="6.17274">
        <ele>309.60000610352</ele>
        <time>2021-12-31T12:44:49.000Z</time>
      </trkpt>
      <trkpt lat="45.51787" lon="6.1731">
        <ele>308.39999389648</ele>
        <time>2021-12-31T12:44:55.000Z</time>
      </trkpt>
      <trkpt lat="45.51791" lon="6.17316">
        <ele>308.20001220703</ele>
        <time>2021-12-31T12:44:56.000Z</time>
      </trkpt>
      <trkpt lat="45.51804" lon="6.17343">
        <ele>307.79998779297</ele>
        <time>2021-12-31T12:45:00.000Z</time>
      </trkpt>
      <trkpt lat="45.51807" lon="6.1735">
        <ele>307.79998779297</ele>
        <time>2021-12-31T12:45:01.000Z</time>
      </trkpt>
      <trkpt lat="45.51808" lon="6.17357">
        <ele>307.79998779297</ele>
        <time>2021-12-31T12:45:02.000Z</time>
      </trkpt>
      <trkpt lat="45.51816" lon="6.17386">
        <ele>308</ele>
        <time>2021-12-31T12:45:06.000Z</time>
      </trkpt>
      <trkpt lat="45.51818" lon="6.17392">
        <ele>308</ele>
        <time>2021-12-31T12:45:07.000Z</time>
      </trkpt>
      <trkpt lat="45.51822" lon="6.17405">
        <ele>308</ele>
        <time>2021-12-31T12:45:09.000Z</time>
      </trkpt>
      <trkpt lat="45.51823" lon="6.17411">
        <ele>308</ele>
        <time>2021-12-31T12:45:10.000Z</time>
      </trkpt>
      <trkpt lat="45.51831" lon="6.17434">
        <ele>308.79998779297</ele>
        <time>2021-12-31T12:45:14.000Z</time>
      </trkpt>
      <trkpt lat="45.51837" lon="6.17444">
        <ele>309.39999389648</ele>
        <time>2021-12-31T12:45:16.000Z</time>
      </trkpt>
      <trkpt lat="45.51855" lon="6.17472">
        <ele>310.79998779297</ele>
        <time>2021-12-31T12:45:22.000Z</time>
      </trkpt>
      <trkpt lat="45.51865" lon="6.17487">
        <ele>311.39999389648</ele>
        <time>2021-12-31T12:45:25.000Z</time>
      </trkpt>
      <trkpt lat="45.51875" lon="6.17505">
        <ele>311.79998779297</ele>
        <time>2021-12-31T12:45:28.000Z</time>
      </trkpt>
      <trkpt lat="45.51884" lon="6.17526">
        <ele>311.79998779297</ele>
        <time>2021-12-31T12:45:31.000Z</time>
      </trkpt>
      <trkpt lat="45.51907" lon="6.17574">
        <ele>311.20001220703</ele>
        <time>2021-12-31T12:45:38.000Z</time>
      </trkpt>
      <trkpt lat="45.51926" lon="6.17618">
        <ele>310.60000610352</ele>
        <time>2021-12-31T12:45:44.000Z</time>
      </trkpt>
      <trkpt lat="45.51934" lon="6.17644">
        <ele>310.39999389648</ele>
        <time>2021-12-31T12:45:47.000Z</time>
      </trkpt>
      <trkpt lat="45.51946" lon="6.17681">
        <ele>310</ele>
        <time>2021-12-31T12:45:51.000Z</time>
      </trkpt>
      <trkpt lat="45.5195" lon="6.17691">
        <ele>309.79998779297</ele>
        <time>2021-12-31T12:45:52.000Z</time>
      </trkpt>
      <trkpt lat="45.51958" lon="6.1772">
        <ele>308.79998779297</ele>
        <time>2021-12-31T12:45:55.000Z</time>
      </trkpt>
      <trkpt lat="45.51967" lon="6.17753">
        <ele>307.39999389648</ele>
        <time>2021-12-31T12:45:58.000Z</time>
      </trkpt>
      <trkpt lat="45.51972" lon="6.17769">
        <ele>306.79998779297</ele>
        <time>2021-12-31T12:46:00.000Z</time>
      </trkpt>
      <trkpt lat="45.51975" lon="6.17779">
        <ele>306.20001220703</ele>
        <time>2021-12-31T12:46:01.000Z</time>
      </trkpt>
      <trkpt lat="45.51982" lon="6.17801">
        <ele>305.39999389648</ele>
        <time>2021-12-31T12:46:04.000Z</time>
      </trkpt>
      <trkpt lat="45.51991" lon="6.17815">
        <ele>305</ele>
        <time>2021-12-31T12:46:06.000Z</time>
      </trkpt>
      <trkpt lat="45.52" lon="6.17826">
        <ele>304.79998779297</ele>
        <time>2021-12-31T12:46:08.000Z</time>
      </trkpt>
      <trkpt lat="45.5201" lon="6.1784">
        <ele>304.79998779297</ele>
        <time>2021-12-31T12:46:11.000Z</time>
      </trkpt>
      <trkpt lat="45.52016" lon="6.17847">
        <ele>304.79998779297</ele>
        <time>2021-12-31T12:46:13.000Z</time>
      </trkpt>
      <trkpt lat="45.52034" lon="6.17866">
        <ele>306</ele>
        <time>2021-12-31T12:46:19.000Z</time>
      </trkpt>
      <trkpt lat="45.52047" lon="6.17878">
        <ele>307.20001220703</ele>
        <time>2021-12-31T12:46:24.000Z</time>
      </trkpt>
      <trkpt lat="45.52049" lon="6.1788">
        <ele>307.39999389648</ele>
        <time>2021-12-31T12:46:25.000Z</time>
      </trkpt>
      <trkpt lat="45.52055" lon="6.17887">
        <ele>308.20001220703</ele>
        <time>2021-12-31T12:46:28.000Z</time>
      </trkpt>
      <trkpt lat="45.52063" lon="6.17895">
        <ele>309</ele>
        <time>2021-12-31T12:46:31.000Z</time>
      </trkpt>
      <trkpt lat="45.52066" lon="6.17899">
        <ele>309.60000610352</ele>
        <time>2021-12-31T12:46:33.000Z</time>
      </trkpt>
      <trkpt lat="45.52077" lon="6.1791">
        <ele>310.79998779297</ele>
        <time>2021-12-31T12:46:38.000Z</time>
      </trkpt>
      <trkpt lat="45.52087" lon="6.1792">
        <ele>312</ele>
        <time>2021-12-31T12:46:42.000Z</time>
      </trkpt>
      <trkpt lat="45.52095" lon="6.17928">
        <ele>312.79998779297</ele>
        <time>2021-12-31T12:46:45.000Z</time>
      </trkpt>
      <trkpt lat="45.521" lon="6.17933">
        <ele>313.20001220703</ele>
        <time>2021-12-31T12:46:47.000Z</time>
      </trkpt>
      <trkpt lat="45.52112" lon="6.17945">
        <ele>314</ele>
        <time>2021-12-31T12:46:52.000Z</time>
      </trkpt>
      <trkpt lat="45.52116" lon="6.17949">
        <ele>314.20001220703</ele>
        <time>2021-12-31T12:46:53.000Z</time>
      </trkpt>
      <trkpt lat="45.52127" lon="6.17963">
        <ele>315.60000610352</ele>
        <time>2021-12-31T12:46:57.000Z</time>
      </trkpt>
      <trkpt lat="45.52131" lon="6.17967">
        <ele>315.79998779297</ele>
        <time>2021-12-31T12:46:58.000Z</time>
      </trkpt>
      <trkpt lat="45.5214" lon="6.17981">
        <ele>317</ele>
        <time>2021-12-31T12:47:02.000Z</time>
      </trkpt>
      <trkpt lat="45.52143" lon="6.17984">
        <ele>317</ele>
        <time>2021-12-31T12:47:03.000Z</time>
      </trkpt>
      <trkpt lat="45.52153" lon="6.17998">
        <ele>318</ele>
        <time>2021-12-31T12:47:07.000Z</time>
      </trkpt>
      <trkpt lat="45.52163" lon="6.18011">
        <ele>319.20001220703</ele>
        <time>2021-12-31T12:47:12.000Z</time>
      </trkpt>
      <trkpt lat="45.5217" lon="6.18022">
        <ele>320.20001220703</ele>
        <time>2021-12-31T12:47:16.000Z</time>
      </trkpt>
      <trkpt lat="45.52181" lon="6.18035">
        <ele>321.20001220703</ele>
        <time>2021-12-31T12:47:21.000Z</time>
      </trkpt>
      <trkpt lat="45.52183" lon="6.18038">
        <ele>321.20001220703</ele>
        <time>2021-12-31T12:47:22.000Z</time>
      </trkpt>
      <trkpt lat="45.52196" lon="6.18058">
        <ele>322.39999389648</ele>
        <time>2021-12-31T12:47:28.000Z</time>
      </trkpt>
      <trkpt lat="45.52198" lon="6.18061">
        <ele>322.39999389648</ele>
        <time>2021-12-31T12:47:29.000Z</time>
      </trkpt>
      <trkpt lat="45.52214" lon="6.18086">
        <ele>323.20001220703</ele>
        <time>2021-12-31T12:47:36.000Z</time>
      </trkpt>
      <trkpt lat="45.52218" lon="6.18093">
        <ele>323.39999389648</ele>
        <time>2021-12-31T12:47:38.000Z</time>
      </trkpt>
      <trkpt lat="45.52231" lon="6.18112">
        <ele>324.39999389648</ele>
        <time>2021-12-31T12:47:44.000Z</time>
      </trkpt>
      <trkpt lat="45.52242" lon="6.18128">
        <ele>325.60000610352</ele>
        <time>2021-12-31T12:47:49.000Z</time>
      </trkpt>
      <trkpt lat="45.5225" lon="6.18139">
        <ele>326.20001220703</ele>
        <time>2021-12-31T12:47:52.000Z</time>
      </trkpt>
      <trkpt lat="45.5226" lon="6.18151">
        <ele>327.20001220703</ele>
        <time>2021-12-31T12:47:56.000Z</time>
      </trkpt>
      <trkpt lat="45.52267" lon="6.18158">
        <ele>327.39999389648</ele>
        <time>2021-12-31T12:47:59.000Z</time>
      </trkpt>
      <trkpt lat="45.52282" lon="6.18172">
        <ele>328.20001220703</ele>
        <time>2021-12-31T12:48:04.000Z</time>
      </trkpt>
      <trkpt lat="45.52297" lon="6.18186">
        <ele>328.60000610352</ele>
        <time>2021-12-31T12:48:09.000Z</time>
      </trkpt>
      <trkpt lat="45.52315" lon="6.18193">
        <ele>329.20001220703</ele>
        <time>2021-12-31T12:48:15.000Z</time>
      </trkpt>
      <trkpt lat="45.52317" lon="6.18193">
        <ele>329.20001220703</ele>
        <time>2021-12-31T12:48:16.000Z</time>
      </trkpt>
      <trkpt lat="45.52339" lon="6.18191">
        <ele>330.39999389648</ele>
        <time>2021-12-31T12:48:23.000Z</time>
      </trkpt>
      <trkpt lat="45.52368" lon="6.18189">
        <ele>331.60000610352</ele>
        <time>2021-12-31T12:48:32.000Z</time>
      </trkpt>
      <trkpt lat="45.52387" lon="6.18196">
        <ele>332.79998779297</ele>
        <time>2021-12-31T12:48:38.000Z</time>
      </trkpt>
      <trkpt lat="45.52393" lon="6.182">
        <ele>333.39999389648</ele>
        <time>2021-12-31T12:48:40.000Z</time>
      </trkpt>
      <trkpt lat="45.52407" lon="6.1821">
        <ele>334</ele>
        <time>2021-12-31T12:48:45.000Z</time>
      </trkpt>
      <trkpt lat="45.52416" lon="6.18217">
        <ele>334.39999389648</ele>
        <time>2021-12-31T12:48:48.000Z</time>
      </trkpt>
      <trkpt lat="45.52427" lon="6.18226">
        <ele>335</ele>
        <time>2021-12-31T12:48:52.000Z</time>
      </trkpt>
      <trkpt lat="45.52448" lon="6.18244">
        <ele>335.79998779297</ele>
        <time>2021-12-31T12:48:59.000Z</time>
      </trkpt>
      <trkpt lat="45.52454" lon="6.18248">
        <ele>336.20001220703</ele>
        <time>2021-12-31T12:49:01.000Z</time>
      </trkpt>
      <trkpt lat="45.5248" lon="6.1827">
        <ele>337</ele>
        <time>2021-12-31T12:49:10.000Z</time>
      </trkpt>
      <trkpt lat="45.52482" lon="6.18272">
        <ele>337.20001220703</ele>
        <time>2021-12-31T12:49:11.000Z</time>
      </trkpt>
      <trkpt lat="45.52495" lon="6.18283">
        <ele>337.79998779297</ele>
        <time>2021-12-31T12:49:16.000Z</time>
      </trkpt>
      <trkpt lat="45.525" lon="6.18287">
        <ele>338.39999389648</ele>
        <time>2021-12-31T12:49:18.000Z</time>
      </trkpt>
      <trkpt lat="45.52517" lon="6.18301">
        <ele>339.60000610352</ele>
        <time>2021-12-31T12:49:24.000Z</time>
      </trkpt>
      <trkpt lat="45.52525" lon="6.18308">
        <ele>340.60000610352</ele>
        <time>2021-12-31T12:49:27.000Z</time>
      </trkpt>
      <trkpt lat="45.52528" lon="6.18309">
        <ele>340.79998779297</ele>
        <time>2021-12-31T12:49:28.000Z</time>
      </trkpt>
      <trkpt lat="45.52541" lon="6.18311">
        <ele>341.79998779297</ele>
        <time>2021-12-31T12:49:32.000Z</time>
      </trkpt>
      <trkpt lat="45.52556" lon="6.18316">
        <ele>342.79998779297</ele>
        <time>2021-12-31T12:49:37.000Z</time>
      </trkpt>
      <trkpt lat="45.52564" lon="6.18321">
        <ele>343.79998779297</ele>
        <time>2021-12-31T12:49:40.000Z</time>
      </trkpt>
      <trkpt lat="45.52568" lon="6.18323">
        <ele>344</ele>
        <time>2021-12-31T12:49:41.000Z</time>
      </trkpt>
      <trkpt lat="45.52581" lon="6.18334">
        <ele>345.20001220703</ele>
        <time>2021-12-31T12:49:46.000Z</time>
      </trkpt>
      <trkpt lat="45.52586" lon="6.18338">
        <ele>345.39999389648</ele>
        <time>2021-12-31T12:49:48.000Z</time>
      </trkpt>
      <trkpt lat="45.52597" lon="6.18347">
        <ele>346.39999389648</ele>
        <time>2021-12-31T12:49:52.000Z</time>
      </trkpt>
      <trkpt lat="45.52605" lon="6.18355">
        <ele>346.79998779297</ele>
        <time>2021-12-31T12:49:55.000Z</time>
      </trkpt>
      <trkpt lat="45.52636" lon="6.18381">
        <ele>347.20001220703</ele>
        <time>2021-12-31T12:50:04.000Z</time>
      </trkpt>
      <trkpt lat="45.5264" lon="6.18384">
        <ele>347.39999389648</ele>
        <time>2021-12-31T12:50:05.000Z</time>
      </trkpt>
      <trkpt lat="45.52652" lon="6.18391">
        <ele>347.60000610352</ele>
        <time>2021-12-31T12:50:09.000Z</time>
      </trkpt>
      <trkpt lat="45.52667" lon="6.18405">
        <ele>348.20001220703</ele>
        <time>2021-12-31T12:50:14.000Z</time>
      </trkpt>
      <trkpt lat="45.52668" lon="6.18409">
        <ele>348.60000610352</ele>
        <time>2021-12-31T12:50:15.000Z</time>
      </trkpt>
      <trkpt lat="45.52673" lon="6.18414">
        <ele>349.20001220703</ele>
        <time>2021-12-31T12:50:18.000Z</time>
      </trkpt>
      <trkpt lat="45.52684" lon="6.18426">
        <ele>349.79998779297</ele>
        <time>2021-12-31T12:50:22.000Z</time>
      </trkpt>
      <trkpt lat="45.52688" lon="6.18429">
        <ele>349.79998779297</ele>
        <time>2021-12-31T12:50:23.000Z</time>
      </trkpt>
      <trkpt lat="45.52705" lon="6.18449">
        <ele>350.39999389648</ele>
        <time>2021-12-31T12:50:28.000Z</time>
      </trkpt>
      <trkpt lat="45.52709" lon="6.18454">
        <ele>350.39999389648</ele>
        <time>2021-12-31T12:50:29.000Z</time>
      </trkpt>
      <trkpt lat="45.52726" lon="6.18475">
        <ele>350.79998779297</ele>
        <time>2021-12-31T12:50:34.000Z</time>
      </trkpt>
      <trkpt lat="45.52731" lon="6.18483">
        <ele>351</ele>
        <time>2021-12-31T12:50:36.000Z</time>
      </trkpt>
      <trkpt lat="45.52748" lon="6.18507">
        <ele>351.39999389648</ele>
        <time>2021-12-31T12:50:43.000Z</time>
      </trkpt>
      <trkpt lat="45.52753" lon="6.18514">
        <ele>351.79998779297</ele>
        <time>2021-12-31T12:50:45.000Z</time>
      </trkpt>
      <trkpt lat="45.5277" lon="6.18531">
        <ele>353.20001220703</ele>
        <time>2021-12-31T12:50:51.000Z</time>
      </trkpt>
      <trkpt lat="45.52786" lon="6.18544">
        <ele>354.20001220703</ele>
        <time>2021-12-31T12:50:56.000Z</time>
      </trkpt>
      <trkpt lat="45.52796" lon="6.18553">
        <ele>354.60000610352</ele>
        <time>2021-12-31T12:50:59.000Z</time>
      </trkpt>
      <trkpt lat="45.52823" lon="6.18574">
        <ele>355.20001220703</ele>
        <time>2021-12-31T12:51:07.000Z</time>
      </trkpt>
      <trkpt lat="45.5283" lon="6.1858">
        <ele>355.20001220703</ele>
        <time>2021-12-31T12:51:09.000Z</time>
      </trkpt>
      <trkpt lat="45.52865" lon="6.18608">
        <ele>355.60000610352</ele>
        <time>2021-12-31T12:51:18.000Z</time>
      </trkpt>
      <trkpt lat="45.52902" lon="6.18632">
        <ele>356.20001220703</ele>
        <time>2021-12-31T12:51:28.000Z</time>
      </trkpt>
      <trkpt lat="45.52925" lon="6.18646">
        <ele>357.60000610352</ele>
        <time>2021-12-31T12:51:35.000Z</time>
      </trkpt>
      <trkpt lat="45.52932" lon="6.1865">
        <ele>358.20001220703</ele>
        <time>2021-12-31T12:51:37.000Z</time>
      </trkpt>
      <trkpt lat="45.52942" lon="6.18655">
        <ele>358.79998779297</ele>
        <time>2021-12-31T12:51:40.000Z</time>
      </trkpt>
      <trkpt lat="45.5296" lon="6.18666">
        <ele>359.39999389648</ele>
        <time>2021-12-31T12:51:45.000Z</time>
      </trkpt>
      <trkpt lat="45.52964" lon="6.18668">
        <ele>359.39999389648</ele>
        <time>2021-12-31T12:51:46.000Z</time>
      </trkpt>
      <trkpt lat="45.52976" lon="6.18677">
        <ele>359.60000610352</ele>
        <time>2021-12-31T12:51:49.000Z</time>
      </trkpt>
      <trkpt lat="45.52981" lon="6.1868">
        <ele>359.60000610352</ele>
        <time>2021-12-31T12:51:50.000Z</time>
      </trkpt>
      <trkpt lat="45.52994" lon="6.18687">
        <ele>359.60000610352</ele>
        <time>2021-12-31T12:51:53.000Z</time>
      </trkpt>
      <trkpt lat="45.53001" lon="6.18697">
        <ele>359.39999389648</ele>
        <time>2021-12-31T12:51:55.000Z</time>
      </trkpt>
      <trkpt lat="45.53004" lon="6.18702">
        <ele>359.39999389648</ele>
        <time>2021-12-31T12:51:56.000Z</time>
      </trkpt>
      <trkpt lat="45.5302" lon="6.18738">
        <ele>359.39999389648</ele>
        <time>2021-12-31T12:52:03.000Z</time>
      </trkpt>
      <trkpt lat="45.53032" lon="6.18764">
        <ele>359.60000610352</ele>
        <time>2021-12-31T12:52:08.000Z</time>
      </trkpt>
      <trkpt lat="45.53034" lon="6.1877">
        <ele>359.60000610352</ele>
        <time>2021-12-31T12:52:09.000Z</time>
      </trkpt>
      <trkpt lat="45.53037" lon="6.18776">
        <ele>359.60000610352</ele>
        <time>2021-12-31T12:52:10.000Z</time>
      </trkpt>
      <trkpt lat="45.53046" lon="6.18793">
        <ele>359.60000610352</ele>
        <time>2021-12-31T12:52:13.000Z</time>
      </trkpt>
      <trkpt lat="45.53052" lon="6.18801">
        <ele>359.60000610352</ele>
        <time>2021-12-31T12:52:14.000Z</time>
      </trkpt>
      <trkpt lat="45.53064" lon="6.18805">
        <ele>359.39999389648</ele>
        <time>2021-12-31T12:52:16.000Z</time>
      </trkpt>
      <trkpt lat="45.53074" lon="6.18804">
        <ele>358.60000610352</ele>
        <time>2021-12-31T12:52:18.000Z</time>
      </trkpt>
      <trkpt lat="45.53084" lon="6.18801">
        <ele>358.39999389648</ele>
        <time>2021-12-31T12:52:20.000Z</time>
      </trkpt>
      <trkpt lat="45.53109" lon="6.18799">
        <ele>358.39999389648</ele>
        <time>2021-12-31T12:52:26.000Z</time>
      </trkpt>
      <trkpt lat="45.5313" lon="6.18797">
        <ele>360.20001220703</ele>
        <time>2021-12-31T12:52:32.000Z</time>
      </trkpt>
      <trkpt lat="45.53137" lon="6.18797">
        <ele>360.39999389648</ele>
        <time>2021-12-31T12:52:34.000Z</time>
      </trkpt>
      <trkpt lat="45.53147" lon="6.18798">
        <ele>361.20001220703</ele>
        <time>2021-12-31T12:52:37.000Z</time>
      </trkpt>
      <trkpt lat="45.53153" lon="6.18796">
        <ele>361.79998779297</ele>
        <time>2021-12-31T12:52:39.000Z</time>
      </trkpt>
      <trkpt lat="45.53164" lon="6.18793">
        <ele>362.60000610352</ele>
        <time>2021-12-31T12:52:42.000Z</time>
      </trkpt>
      <trkpt lat="45.53177" lon="6.18792">
        <ele>363.79998779297</ele>
        <time>2021-12-31T12:52:46.000Z</time>
      </trkpt>
      <trkpt lat="45.53181" lon="6.18792">
        <ele>364</ele>
        <time>2021-12-31T12:52:47.000Z</time>
      </trkpt>
      <trkpt lat="45.53198" lon="6.18789">
        <ele>365</ele>
        <time>2021-12-31T12:52:52.000Z</time>
      </trkpt>
      <trkpt lat="45.53211" lon="6.18788">
        <ele>365.39999389648</ele>
        <time>2021-12-31T12:52:56.000Z</time>
      </trkpt>
      <trkpt lat="45.53224" lon="6.18787">
        <ele>366</ele>
        <time>2021-12-31T12:53:00.000Z</time>
      </trkpt>
      <trkpt lat="45.53248" lon="6.18786">
        <ele>367.20001220703</ele>
        <time>2021-12-31T12:53:07.000Z</time>
      </trkpt>
      <trkpt lat="45.53252" lon="6.18787">
        <ele>367.39999389648</ele>
        <time>2021-12-31T12:53:08.000Z</time>
      </trkpt>
      <trkpt lat="45.53263" lon="6.1879">
        <ele>368.39999389648</ele>
        <time>2021-12-31T12:53:12.000Z</time>
      </trkpt>
      <trkpt lat="45.53273" lon="6.18794">
        <ele>369.39999389648</ele>
        <time>2021-12-31T12:53:15.000Z</time>
      </trkpt>
      <trkpt lat="45.53279" lon="6.18797">
        <ele>369.79998779297</ele>
        <time>2021-12-31T12:53:17.000Z</time>
      </trkpt>
      <trkpt lat="45.53291" lon="6.18803">
        <ele>370.60000610352</ele>
        <time>2021-12-31T12:53:21.000Z</time>
      </trkpt>
      <trkpt lat="45.53297" lon="6.18808">
        <ele>371</ele>
        <time>2021-12-31T12:53:23.000Z</time>
      </trkpt>
      <trkpt lat="45.53306" lon="6.18814">
        <ele>371.60000610352</ele>
        <time>2021-12-31T12:53:26.000Z</time>
      </trkpt>
      <trkpt lat="45.5332" lon="6.18825">
        <ele>373</ele>
        <time>2021-12-31T12:53:31.000Z</time>
      </trkpt>
      <trkpt lat="45.53334" lon="6.18836">
        <ele>374</ele>
        <time>2021-12-31T12:53:36.000Z</time>
      </trkpt>
      <trkpt lat="45.53347" lon="6.18843">
        <ele>375</ele>
        <time>2021-12-31T12:53:40.000Z</time>
      </trkpt>
      <trkpt lat="45.5335" lon="6.18844">
        <ele>375.20001220703</ele>
        <time>2021-12-31T12:53:41.000Z</time>
      </trkpt>
      <trkpt lat="45.53367" lon="6.18843">
        <ele>376.39999389648</ele>
        <time>2021-12-31T12:53:46.000Z</time>
      </trkpt>
      <trkpt lat="45.5337" lon="6.18843">
        <ele>376.60000610352</ele>
        <time>2021-12-31T12:53:47.000Z</time>
      </trkpt>
      <trkpt lat="45.5339" lon="6.18836">
        <ele>377.79998779297</ele>
        <time>2021-12-31T12:53:53.000Z</time>
      </trkpt>
      <trkpt lat="45.53398" lon="6.18833">
        <ele>377.79998779297</ele>
        <time>2021-12-31T12:53:55.000Z</time>
      </trkpt>
      <trkpt lat="45.53433" lon="6.18819">
        <ele>378.39999389648</ele>
        <time>2021-12-31T12:54:04.000Z</time>
      </trkpt>
      <trkpt lat="45.53471" lon="6.18806">
        <ele>378.60000610352</ele>
        <time>2021-12-31T12:54:13.000Z</time>
      </trkpt>
      <trkpt lat="45.53491" lon="6.18804">
        <ele>378.79998779297</ele>
        <time>2021-12-31T12:54:18.000Z</time>
      </trkpt>
      <trkpt lat="45.53503" lon="6.18803">
        <ele>379</ele>
        <time>2021-12-31T12:54:21.000Z</time>
      </trkpt>
      <trkpt lat="45.53523" lon="6.188">
        <ele>380</ele>
        <time>2021-12-31T12:54:27.000Z</time>
      </trkpt>
      <trkpt lat="45.5353" lon="6.18798">
        <ele>380.39999389648</ele>
        <time>2021-12-31T12:54:29.000Z</time>
      </trkpt>
      <trkpt lat="45.53546" lon="6.18793">
        <ele>381.20001220703</ele>
        <time>2021-12-31T12:54:34.000Z</time>
      </trkpt>
      <trkpt lat="45.53566" lon="6.18786">
        <ele>382.20001220703</ele>
        <time>2021-12-31T12:54:40.000Z</time>
      </trkpt>
      <trkpt lat="45.5357" lon="6.18785">
        <ele>382.39999389648</ele>
        <time>2021-12-31T12:54:41.000Z</time>
      </trkpt>
      <trkpt lat="45.53594" lon="6.18777">
        <ele>383.39999389648</ele>
        <time>2021-12-31T12:54:48.000Z</time>
      </trkpt>
      <trkpt lat="45.53605" lon="6.18774">
        <ele>383.60000610352</ele>
        <time>2021-12-31T12:54:51.000Z</time>
      </trkpt>
      <trkpt lat="45.53641" lon="6.1876">
        <ele>384</ele>
        <time>2021-12-31T12:55:00.000Z</time>
      </trkpt>
      <trkpt lat="45.53649" lon="6.18754">
        <ele>384</ele>
        <time>2021-12-31T12:55:02.000Z</time>
      </trkpt>
      <trkpt lat="45.53653" lon="6.18744">
        <ele>384</ele>
        <time>2021-12-31T12:55:04.000Z</time>
      </trkpt>
      <trkpt lat="45.53653" lon="6.18732">
        <ele>384.20001220703</ele>
        <time>2021-12-31T12:55:06.000Z</time>
      </trkpt>
      <trkpt lat="45.5365" lon="6.18721">
        <ele>384.20001220703</ele>
        <time>2021-12-31T12:55:08.000Z</time>
      </trkpt>
      <trkpt lat="45.53644" lon="6.18706">
        <ele>384.60000610352</ele>
        <time>2021-12-31T12:55:11.000Z</time>
      </trkpt>
      <trkpt lat="45.5363" lon="6.18676">
        <ele>385.20001220703</ele>
        <time>2021-12-31T12:55:17.000Z</time>
      </trkpt>
      <trkpt lat="45.53617" lon="6.18648">
        <ele>385.60000610352</ele>
        <time>2021-12-31T12:55:23.000Z</time>
      </trkpt>
      <trkpt lat="45.53612" lon="6.18639">
        <ele>385.79998779297</ele>
        <time>2021-12-31T12:55:25.000Z</time>
      </trkpt>
      <trkpt lat="45.53586" lon="6.18604">
        <ele>386.39999389648</ele>
        <time>2021-12-31T12:55:34.000Z</time>
      </trkpt>
      <trkpt lat="45.53574" lon="6.18589">
        <ele>386.79998779297</ele>
        <time>2021-12-31T12:55:38.000Z</time>
      </trkpt>
      <trkpt lat="45.5357" lon="6.1858">
        <ele>387</ele>
        <time>2021-12-31T12:55:40.000Z</time>
      </trkpt>
      <trkpt lat="45.5357" lon="6.18575">
        <ele>386.79998779297</ele>
        <time>2021-12-31T12:55:41.000Z</time>
      </trkpt>
      <trkpt lat="45.53573" lon="6.18569">
        <ele>386.79998779297</ele>
        <time>2021-12-31T12:55:42.000Z</time>
      </trkpt>
      <trkpt lat="45.53578" lon="6.18568">
        <ele>386.60000610352</ele>
        <time>2021-12-31T12:55:43.000Z</time>
      </trkpt>
      <trkpt lat="45.53583" lon="6.18568">
        <ele>386.60000610352</ele>
        <time>2021-12-31T12:55:44.000Z</time>
      </trkpt>
      <trkpt lat="45.53595" lon="6.1857">
        <ele>386.39999389648</ele>
        <time>2021-12-31T12:55:46.000Z</time>
      </trkpt>
      <trkpt lat="45.53616" lon="6.18575">
        <ele>385.60000610352</ele>
        <time>2021-12-31T12:55:49.000Z</time>
      </trkpt>
      <trkpt lat="45.53639" lon="6.18581">
        <ele>385</ele>
        <time>2021-12-31T12:55:52.000Z</time>
      </trkpt>
      <trkpt lat="45.53648" lon="6.18586">
        <ele>384.79998779297</ele>
        <time>2021-12-31T12:55:53.000Z</time>
      </trkpt>
      <trkpt lat="45.53655" lon="6.1859">
        <ele>384.60000610352</ele>
        <time>2021-12-31T12:55:54.000Z</time>
      </trkpt>
      <trkpt lat="45.53669" lon="6.18602">
        <ele>383.39999389648</ele>
        <time>2021-12-31T12:55:56.000Z</time>
      </trkpt>
      <trkpt lat="45.53692" lon="6.18629">
        <ele>382.39999389648</ele>
        <time>2021-12-31T12:56:00.000Z</time>
      </trkpt>
      <trkpt lat="45.53703" lon="6.18643">
        <ele>382</ele>
        <time>2021-12-31T12:56:02.000Z</time>
      </trkpt>
      <trkpt lat="45.53729" lon="6.18675">
        <ele>381.60000610352</ele>
        <time>2021-12-31T12:56:07.000Z</time>
      </trkpt>
      <trkpt lat="45.53744" lon="6.18692">
        <ele>381.39999389648</ele>
        <time>2021-12-31T12:56:10.000Z</time>
      </trkpt>
      <trkpt lat="45.53763" lon="6.18715">
        <ele>381.39999389648</ele>
        <time>2021-12-31T12:56:14.000Z</time>
      </trkpt>
      <trkpt lat="45.53803" lon="6.18765">
        <ele>381.60000610352</ele>
        <time>2021-12-31T12:56:23.000Z</time>
      </trkpt>
      <trkpt lat="45.53836" lon="6.18791">
        <ele>381.60000610352</ele>
        <time>2021-12-31T12:56:30.000Z</time>
      </trkpt>
      <trkpt lat="45.53888" lon="6.18812">
        <ele>381.79998779297</ele>
        <time>2021-12-31T12:56:40.000Z</time>
      </trkpt>
      <trkpt lat="45.53933" lon="6.18832">
        <ele>382.60000610352</ele>
        <time>2021-12-31T12:56:49.000Z</time>
      </trkpt>
      <trkpt lat="45.53944" lon="6.18837">
        <ele>382.39999389648</ele>
        <time>2021-12-31T12:56:51.000Z</time>
      </trkpt>
      <trkpt lat="45.53978" lon="6.18844">
        <ele>383.20001220703</ele>
        <time>2021-12-31T12:56:58.000Z</time>
      </trkpt>
      <trkpt lat="45.54007" lon="6.18844">
        <ele>383.20001220703</ele>
        <time>2021-12-31T12:57:03.000Z</time>
      </trkpt>
      <trkpt lat="45.54015" lon="6.18847">
        <ele>383.20001220703</ele>
        <time>2021-12-31T12:57:04.000Z</time>
      </trkpt>
      <trkpt lat="45.54022" lon="6.1885">
        <ele>383.20001220703</ele>
        <time>2021-12-31T12:57:05.000Z</time>
      </trkpt>
      <trkpt lat="45.54034" lon="6.18859">
        <ele>382.79998779297</ele>
        <time>2021-12-31T12:57:07.000Z</time>
      </trkpt>
      <trkpt lat="45.54041" lon="6.18864">
        <ele>382.79998779297</ele>
        <time>2021-12-31T12:57:08.000Z</time>
      </trkpt>
      <trkpt lat="45.54069" lon="6.18889">
        <ele>381.39999389648</ele>
        <time>2021-12-31T12:57:12.000Z</time>
      </trkpt>
      <trkpt lat="45.54077" lon="6.18893">
        <ele>381.20001220703</ele>
        <time>2021-12-31T12:57:13.000Z</time>
      </trkpt>
      <trkpt lat="45.54086" lon="6.18896">
        <ele>380.39999389648</ele>
        <time>2021-12-31T12:57:14.000Z</time>
      </trkpt>
      <trkpt lat="45.54112" lon="6.18902">
        <ele>379.20001220703</ele>
        <time>2021-12-31T12:57:17.000Z</time>
      </trkpt>
      <trkpt lat="45.54132" lon="6.18905">
        <ele>378.39999389648</ele>
        <time>2021-12-31T12:57:19.000Z</time>
      </trkpt>
      <trkpt lat="45.54141" lon="6.18906">
        <ele>378</ele>
        <time>2021-12-31T12:57:20.000Z</time>
      </trkpt>
      <trkpt lat="45.54157" lon="6.18909">
        <ele>376.79998779297</ele>
        <time>2021-12-31T12:57:22.000Z</time>
      </trkpt>
      <trkpt lat="45.54165" lon="6.18911">
        <ele>376.20001220703</ele>
        <time>2021-12-31T12:57:23.000Z</time>
      </trkpt>
      <trkpt lat="45.54174" lon="6.18916">
        <ele>375.60000610352</ele>
        <time>2021-12-31T12:57:24.000Z</time>
      </trkpt>
      <trkpt lat="45.54193" lon="6.18927">
        <ele>374.60000610352</ele>
        <time>2021-12-31T12:57:27.000Z</time>
      </trkpt>
      <trkpt lat="45.54201" lon="6.1893">
        <ele>373.79998779297</ele>
        <time>2021-12-31T12:57:28.000Z</time>
      </trkpt>
      <trkpt lat="45.54208" lon="6.18929">
        <ele>373</ele>
        <time>2021-12-31T12:57:29.000Z</time>
      </trkpt>
      <trkpt lat="45.54214" lon="6.18926">
        <ele>372.79998779297</ele>
        <time>2021-12-31T12:57:30.000Z</time>
      </trkpt>
      <trkpt lat="45.54221" lon="6.18921">
        <ele>371.79998779297</ele>
        <time>2021-12-31T12:57:31.000Z</time>
      </trkpt>
      <trkpt lat="45.54227" lon="6.18914">
        <ele>371.60000610352</ele>
        <time>2021-12-31T12:57:32.000Z</time>
      </trkpt>
      <trkpt lat="45.54238" lon="6.18894">
        <ele>370.20001220703</ele>
        <time>2021-12-31T12:57:34.000Z</time>
      </trkpt>
      <trkpt lat="45.54253" lon="6.18858">
        <ele>368.79998779297</ele>
        <time>2021-12-31T12:57:37.000Z</time>
      </trkpt>
      <trkpt lat="45.54263" lon="6.18829">
        <ele>367</ele>
        <time>2021-12-31T12:57:39.000Z</time>
      </trkpt>
      <trkpt lat="45.5427" lon="6.18805">
        <ele>366</ele>
        <time>2021-12-31T12:57:41.000Z</time>
      </trkpt>
      <trkpt lat="45.54277" lon="6.18777">
        <ele>364.79998779297</ele>
        <time>2021-12-31T12:57:43.000Z</time>
      </trkpt>
      <trkpt lat="45.54283" lon="6.18752">
        <ele>363.20001220703</ele>
        <time>2021-12-31T12:57:45.000Z</time>
      </trkpt>
      <trkpt lat="45.54289" lon="6.18713">
        <ele>361.20001220703</ele>
        <time>2021-12-31T12:57:48.000Z</time>
      </trkpt>
      <trkpt lat="45.54297" lon="6.18674">
        <ele>359.39999389648</ele>
        <time>2021-12-31T12:57:51.000Z</time>
      </trkpt>
      <trkpt lat="45.54307" lon="6.18646">
        <ele>358.20001220703</ele>
        <time>2021-12-31T12:57:53.000Z</time>
      </trkpt>
      <trkpt lat="45.54319" lon="6.18629">
        <ele>356.60000610352</ele>
        <time>2021-12-31T12:57:55.000Z</time>
      </trkpt>
      <trkpt lat="45.54327" lon="6.1862">
        <ele>355.79998779297</ele>
        <time>2021-12-31T12:57:56.000Z</time>
      </trkpt>
      <trkpt lat="45.54334" lon="6.18612">
        <ele>355.39999389648</ele>
        <time>2021-12-31T12:57:57.000Z</time>
      </trkpt>
      <trkpt lat="45.54342" lon="6.18601">
        <ele>354.20001220703</ele>
        <time>2021-12-31T12:57:58.000Z</time>
      </trkpt>
      <trkpt lat="45.54353" lon="6.1858">
        <ele>353</ele>
        <time>2021-12-31T12:58:00.000Z</time>
      </trkpt>
      <trkpt lat="45.54365" lon="6.18545">
        <ele>351.79998779297</ele>
        <time>2021-12-31T12:58:03.000Z</time>
      </trkpt>
      <trkpt lat="45.54371" lon="6.18522">
        <ele>350.79998779297</ele>
        <time>2021-12-31T12:58:05.000Z</time>
      </trkpt>
      <trkpt lat="45.54374" lon="6.18513">
        <ele>350.60000610352</ele>
        <time>2021-12-31T12:58:06.000Z</time>
      </trkpt>
      <trkpt lat="45.54388" lon="6.18466">
        <ele>349.60000610352</ele>
        <time>2021-12-31T12:58:10.000Z</time>
      </trkpt>
      <trkpt lat="45.54393" lon="6.18443">
        <ele>349</ele>
        <time>2021-12-31T12:58:12.000Z</time>
      </trkpt>
      <trkpt lat="45.54394" lon="6.18432">
        <ele>348.60000610352</ele>
        <time>2021-12-31T12:58:13.000Z</time>
      </trkpt>
      <trkpt lat="45.54399" lon="6.18388">
        <ele>347.60000610352</ele>
        <time>2021-12-31T12:58:17.000Z</time>
      </trkpt>
      <trkpt lat="45.54402" lon="6.18367">
        <ele>347.20001220703</ele>
        <time>2021-12-31T12:58:19.000Z</time>
      </trkpt>
      <trkpt lat="45.54406" lon="6.1833">
        <ele>346.60000610352</ele>
        <time>2021-12-31T12:58:23.000Z</time>
      </trkpt>
      <trkpt lat="45.54409" lon="6.18302">
        <ele>346.39999389648</ele>
        <time>2021-12-31T12:58:26.000Z</time>
      </trkpt>
      <trkpt lat="45.54413" lon="6.18265">
        <ele>346.20001220703</ele>
        <time>2021-12-31T12:58:30.000Z</time>
      </trkpt>
      <trkpt lat="45.54418" lon="6.18249">
        <ele>346.20001220703</ele>
        <time>2021-12-31T12:58:32.000Z</time>
      </trkpt>
      <trkpt lat="45.54433" lon="6.18227">
        <ele>346.20001220703</ele>
        <time>2021-12-31T12:58:36.000Z</time>
      </trkpt>
      <trkpt lat="45.54463" lon="6.18189">
        <ele>346.20001220703</ele>
        <time>2021-12-31T12:58:44.000Z</time>
      </trkpt>
      <trkpt lat="45.54473" lon="6.18187">
        <ele>346.20001220703</ele>
        <time>2021-12-31T12:58:46.000Z</time>
      </trkpt>
      <trkpt lat="45.54476" lon="6.18189">
        <ele>346.39999389648</ele>
        <time>2021-12-31T12:58:47.000Z</time>
      </trkpt>
      <trkpt lat="45.54479" lon="6.18194">
        <ele>346.39999389648</ele>
        <time>2021-12-31T12:58:48.000Z</time>
      </trkpt>
      <trkpt lat="45.54486" lon="6.18213">
        <ele>346.79998779297</ele>
        <time>2021-12-31T12:58:51.000Z</time>
      </trkpt>
      <trkpt lat="45.54494" lon="6.18238">
        <ele>347.20001220703</ele>
        <time>2021-12-31T12:58:55.000Z</time>
      </trkpt>
      <trkpt lat="45.54497" lon="6.18254">
        <ele>347.20001220703</ele>
        <time>2021-12-31T12:58:57.000Z</time>
      </trkpt>
      <trkpt lat="45.54504" lon="6.18304">
        <ele>347.39999389648</ele>
        <time>2021-12-31T12:59:04.000Z</time>
      </trkpt>
      <trkpt lat="45.54507" lon="6.18328">
        <ele>347.60000610352</ele>
        <time>2021-12-31T12:59:07.000Z</time>
      </trkpt>
      <trkpt lat="45.54515" lon="6.18374">
        <ele>347.60000610352</ele>
        <time>2021-12-31T12:59:13.000Z</time>
      </trkpt>
      <trkpt lat="45.54523" lon="6.18421">
        <ele>347.39999389648</ele>
        <time>2021-12-31T12:59:19.000Z</time>
      </trkpt>
      <trkpt lat="45.5453" lon="6.18455">
        <ele>346.79998779297</ele>
        <time>2021-12-31T12:59:23.000Z</time>
      </trkpt>
      <trkpt lat="45.54533" lon="6.18472">
        <ele>346.39999389648</ele>
        <time>2021-12-31T12:59:25.000Z</time>
      </trkpt>
      <trkpt lat="45.54535" lon="6.18484">
        <ele>346.20001220703</ele>
        <time>2021-12-31T12:59:26.000Z</time>
      </trkpt>
      <trkpt lat="45.54541" lon="6.18518">
        <ele>345.39999389648</ele>
        <time>2021-12-31T12:59:29.000Z</time>
      </trkpt>
      <trkpt lat="45.54543" lon="6.1853">
        <ele>345.20001220703</ele>
        <time>2021-12-31T12:59:30.000Z</time>
      </trkpt>
      <trkpt lat="45.54549" lon="6.18554">
        <ele>344.20001220703</ele>
        <time>2021-12-31T12:59:32.000Z</time>
      </trkpt>
      <trkpt lat="45.54555" lon="6.18575">
        <ele>343</ele>
        <time>2021-12-31T12:59:34.000Z</time>
      </trkpt>
      <trkpt lat="45.54566" lon="6.18609">
        <ele>342</ele>
        <time>2021-12-31T12:59:37.000Z</time>
      </trkpt>
      <trkpt lat="45.54575" lon="6.18634">
        <ele>340.39999389648</ele>
        <time>2021-12-31T12:59:39.000Z</time>
      </trkpt>
      <trkpt lat="45.54585" lon="6.18659">
        <ele>339.39999389648</ele>
        <time>2021-12-31T12:59:41.000Z</time>
      </trkpt>
      <trkpt lat="45.54591" lon="6.18674">
        <ele>338.79998779297</ele>
        <time>2021-12-31T12:59:42.000Z</time>
      </trkpt>
      <trkpt lat="45.54596" lon="6.18684">
        <ele>337.60000610352</ele>
        <time>2021-12-31T12:59:43.000Z</time>
      </trkpt>
      <trkpt lat="45.54607" lon="6.18713">
        <ele>336</ele>
        <time>2021-12-31T12:59:45.000Z</time>
      </trkpt>
      <trkpt lat="45.54613" lon="6.18726">
        <ele>335</ele>
        <time>2021-12-31T12:59:46.000Z</time>
      </trkpt>
      <trkpt lat="45.54623" lon="6.18751">
        <ele>333.60000610352</ele>
        <time>2021-12-31T12:59:48.000Z</time>
      </trkpt>
      <trkpt lat="45.54635" lon="6.18778">
        <ele>332.20001220703</ele>
        <time>2021-12-31T12:59:50.000Z</time>
      </trkpt>
      <trkpt lat="45.54641" lon="6.18794">
        <ele>331.20001220703</ele>
        <time>2021-12-31T12:59:51.000Z</time>
      </trkpt>
      <trkpt lat="45.54653" lon="6.18817">
        <ele>329.60000610352</ele>
        <time>2021-12-31T12:59:53.000Z</time>
      </trkpt>
      <trkpt lat="45.5466" lon="6.1883">
        <ele>329.20001220703</ele>
        <time>2021-12-31T12:59:54.000Z</time>
      </trkpt>
      <trkpt lat="45.54666" lon="6.18844">
        <ele>328</ele>
        <time>2021-12-31T12:59:55.000Z</time>
      </trkpt>
      <trkpt lat="45.54674" lon="6.18859">
        <ele>327</ele>
        <time>2021-12-31T12:59:56.000Z</time>
      </trkpt>
      <trkpt lat="45.54687" lon="6.18885">
        <ele>325.39999389648</ele>
        <time>2021-12-31T12:59:58.000Z</time>
      </trkpt>
      <trkpt lat="45.54701" lon="6.18912">
        <ele>324</ele>
        <time>2021-12-31T13:00:00.000Z</time>
      </trkpt>
      <trkpt lat="45.5472" lon="6.18941">
        <ele>322.60000610352</ele>
        <time>2021-12-31T13:00:02.000Z</time>
      </trkpt>
      <trkpt lat="45.54726" lon="6.18953">
        <ele>321.20001220703</ele>
        <time>2021-12-31T13:00:03.000Z</time>
      </trkpt>
      <trkpt lat="45.54742" lon="6.18984">
        <ele>320</ele>
        <time>2021-12-31T13:00:05.000Z</time>
      </trkpt>
      <trkpt lat="45.54757" lon="6.19009">
        <ele>318.39999389648</ele>
        <time>2021-12-31T13:00:07.000Z</time>
      </trkpt>
      <trkpt lat="45.54774" lon="6.19037">
        <ele>317</ele>
        <time>2021-12-31T13:00:09.000Z</time>
      </trkpt>
      <trkpt lat="45.54781" lon="6.19052">
        <ele>315.60000610352</ele>
        <time>2021-12-31T13:00:10.000Z</time>
      </trkpt>
      <trkpt lat="45.54793" lon="6.19081">
        <ele>313.79998779297</ele>
        <time>2021-12-31T13:00:12.000Z</time>
      </trkpt>
      <trkpt lat="45.54799" lon="6.19095">
        <ele>312.39999389648</ele>
        <time>2021-12-31T13:00:13.000Z</time>
      </trkpt>
      <trkpt lat="45.54812" lon="6.19123">
        <ele>310.79998779297</ele>
        <time>2021-12-31T13:00:15.000Z</time>
      </trkpt>
      <trkpt lat="45.54826" lon="6.19153">
        <ele>309</ele>
        <time>2021-12-31T13:00:17.000Z</time>
      </trkpt>
      <trkpt lat="45.54831" lon="6.1917">
        <ele>307.79998779297</ele>
        <time>2021-12-31T13:00:18.000Z</time>
      </trkpt>
      <trkpt lat="45.5484" lon="6.19202">
        <ele>306.20001220703</ele>
        <time>2021-12-31T13:00:20.000Z</time>
      </trkpt>
      <trkpt lat="45.54847" lon="6.19237">
        <ele>304.20001220703</ele>
        <time>2021-12-31T13:00:22.000Z</time>
      </trkpt>
      <trkpt lat="45.54852" lon="6.19265">
        <ele>303.20001220703</ele>
        <time>2021-12-31T13:00:24.000Z</time>
      </trkpt>
      <trkpt lat="45.54859" lon="6.19307">
        <ele>302</ele>
        <time>2021-12-31T13:00:27.000Z</time>
      </trkpt>
      <trkpt lat="45.54862" lon="6.19323">
        <ele>301.39999389648</ele>
        <time>2021-12-31T13:00:28.000Z</time>
      </trkpt>
      <trkpt lat="45.54865" lon="6.19346">
        <ele>300.79998779297</ele>
        <time>2021-12-31T13:00:30.000Z</time>
      </trkpt>
      <trkpt lat="45.54875" lon="6.19394">
        <ele>299.60000610352</ele>
        <time>2021-12-31T13:00:34.000Z</time>
      </trkpt>
      <trkpt lat="45.54878" lon="6.19405">
        <ele>299.20001220703</ele>
        <time>2021-12-31T13:00:35.000Z</time>
      </trkpt>
      <trkpt lat="45.54894" lon="6.19444">
        <ele>298.60000610352</ele>
        <time>2021-12-31T13:00:39.000Z</time>
      </trkpt>
      <trkpt lat="45.54902" lon="6.19463">
        <ele>298.39999389648</ele>
        <time>2021-12-31T13:00:41.000Z</time>
      </trkpt>
      <trkpt lat="45.54921" lon="6.19499">
        <ele>297.79998779297</ele>
        <time>2021-12-31T13:00:45.000Z</time>
      </trkpt>
      <trkpt lat="45.54939" lon="6.19534">
        <ele>297.39999389648</ele>
        <time>2021-12-31T13:00:49.000Z</time>
      </trkpt>
      <trkpt lat="45.54951" lon="6.1956">
        <ele>297.20001220703</ele>
        <time>2021-12-31T13:00:52.000Z</time>
      </trkpt>
      <trkpt lat="45.54978" lon="6.19623">
        <ele>296.39999389648</ele>
        <time>2021-12-31T13:00:59.000Z</time>
      </trkpt>
      <trkpt lat="45.54981" lon="6.19633">
        <ele>296.39999389648</ele>
        <time>2021-12-31T13:01:00.000Z</time>
      </trkpt>
      <trkpt lat="45.54999" lon="6.19699">
        <ele>295.60000610352</ele>
        <time>2021-12-31T13:01:07.000Z</time>
      </trkpt>
      <trkpt lat="45.55009" lon="6.19738">
        <ele>295.20001220703</ele>
        <time>2021-12-31T13:01:11.000Z</time>
      </trkpt>
      <trkpt lat="45.5502" lon="6.19785">
        <ele>295.20001220703</ele>
        <time>2021-12-31T13:01:16.000Z</time>
      </trkpt>
      <trkpt lat="45.55025" lon="6.19802">
        <ele>295.39999389648</ele>
        <time>2021-12-31T13:01:18.000Z</time>
      </trkpt>
      <trkpt lat="45.55034" lon="6.19827">
        <ele>295.20001220703</ele>
        <time>2021-12-31T13:01:21.000Z</time>
      </trkpt>
      <trkpt lat="45.55056" lon="6.19887">
        <ele>294.79998779297</ele>
        <time>2021-12-31T13:01:28.000Z</time>
      </trkpt>
      <trkpt lat="45.55059" lon="6.19897">
        <ele>294.60000610352</ele>
        <time>2021-12-31T13:01:29.000Z</time>
      </trkpt>
      <trkpt lat="45.55061" lon="6.19917">
        <ele>294.20001220703</ele>
        <time>2021-12-31T13:01:31.000Z</time>
      </trkpt>
      <trkpt lat="45.55061" lon="6.19928">
        <ele>294</ele>
        <time>2021-12-31T13:01:32.000Z</time>
      </trkpt>
      <trkpt lat="45.55055" lon="6.19977">
        <ele>293.20001220703</ele>
        <time>2021-12-31T13:01:37.000Z</time>
      </trkpt>
      <trkpt lat="45.55048" lon="6.20042">
        <ele>292.60000610352</ele>
        <time>2021-12-31T13:01:44.000Z</time>
      </trkpt>
      <trkpt lat="45.55054" lon="6.20086">
        <ele>292.60000610352</ele>
        <time>2021-12-31T13:01:49.000Z</time>
      </trkpt>
      <trkpt lat="45.55067" lon="6.20145">
        <ele>292.39999389648</ele>
        <time>2021-12-31T13:01:56.000Z</time>
      </trkpt>
      <trkpt lat="45.55082" lon="6.20221">
        <ele>292.39999389648</ele>
        <time>2021-12-31T13:02:05.000Z</time>
      </trkpt>
      <trkpt lat="45.55083" lon="6.20229">
        <ele>292.20001220703</ele>
        <time>2021-12-31T13:02:06.000Z</time>
      </trkpt>
      <trkpt lat="45.55088" lon="6.20255">
        <ele>292.20001220703</ele>
        <time>2021-12-31T13:02:09.000Z</time>
      </trkpt>
      <trkpt lat="45.55096" lon="6.20297">
        <ele>292</ele>
        <time>2021-12-31T13:02:14.000Z</time>
      </trkpt>
      <trkpt lat="45.55113" lon="6.20375">
        <ele>291.39999389648</ele>
        <time>2021-12-31T13:02:23.000Z</time>
      </trkpt>
      <trkpt lat="45.55114" lon="6.20384">
        <ele>291.20001220703</ele>
        <time>2021-12-31T13:02:24.000Z</time>
      </trkpt>
      <trkpt lat="45.55117" lon="6.20401">
        <ele>291</ele>
        <time>2021-12-31T13:02:26.000Z</time>
      </trkpt>
      <trkpt lat="45.55123" lon="6.20462">
        <ele>290.60000610352</ele>
        <time>2021-12-31T13:02:33.000Z</time>
      </trkpt>
      <trkpt lat="45.55125" lon="6.20531">
        <ele>290.39999389648</ele>
        <time>2021-12-31T13:02:41.000Z</time>
      </trkpt>
      <trkpt lat="45.55122" lon="6.20611">
        <ele>290.39999389648</ele>
        <time>2021-12-31T13:02:50.000Z</time>
      </trkpt>
      <trkpt lat="45.5512" lon="6.20656">
        <ele>290.20001220703</ele>
        <time>2021-12-31T13:02:55.000Z</time>
      </trkpt>
      <trkpt lat="45.55121" lon="6.20708">
        <ele>289.79998779297</ele>
        <time>2021-12-31T13:03:01.000Z</time>
      </trkpt>
      <trkpt lat="45.55129" lon="6.2078">
        <ele>289.39999389648</ele>
        <time>2021-12-31T13:03:09.000Z</time>
      </trkpt>
      <trkpt lat="45.55131" lon="6.20795">
        <ele>289.20001220703</ele>
        <time>2021-12-31T13:03:11.000Z</time>
      </trkpt>
      <trkpt lat="45.55137" lon="6.20837">
        <ele>289</ele>
        <time>2021-12-31T13:03:16.000Z</time>
      </trkpt>
      <trkpt lat="45.55137" lon="6.20847">
        <ele>289</ele>
        <time>2021-12-31T13:03:17.000Z</time>
      </trkpt>
      <trkpt lat="45.55137" lon="6.20855">
        <ele>289</ele>
        <time>2021-12-31T13:03:18.000Z</time>
      </trkpt>
      <trkpt lat="45.55143" lon="6.20868">
        <ele>289</ele>
        <time>2021-12-31T13:03:20.000Z</time>
      </trkpt>
      <trkpt lat="45.55152" lon="6.20871">
        <ele>289</ele>
        <time>2021-12-31T13:03:22.000Z</time>
      </trkpt>
      <trkpt lat="45.55158" lon="6.2087">
        <ele>289</ele>
        <time>2021-12-31T13:03:24.000Z</time>
      </trkpt>
      <trkpt lat="45.55174" lon="6.20867">
        <ele>289</ele>
        <time>2021-12-31T13:03:27.000Z</time>
      </trkpt>
      <trkpt lat="45.55193" lon="6.20857">
        <ele>289</ele>
        <time>2021-12-31T13:03:30.000Z</time>
      </trkpt>
      <trkpt lat="45.55237" lon="6.2083">
        <ele>289</ele>
        <time>2021-12-31T13:03:38.000Z</time>
      </trkpt>
      <trkpt lat="45.5529" lon="6.20798">
        <ele>288.60000610352</ele>
        <time>2021-12-31T13:03:47.000Z</time>
      </trkpt>
      <trkpt lat="45.55296" lon="6.20794">
        <ele>288.60000610352</ele>
        <time>2021-12-31T13:03:48.000Z</time>
      </trkpt>
      <trkpt lat="45.55319" lon="6.2078">
        <ele>288.60000610352</ele>
        <time>2021-12-31T13:03:52.000Z</time>
      </trkpt>
      <trkpt lat="45.55337" lon="6.20774">
        <ele>288.60000610352</ele>
        <time>2021-12-31T13:03:55.000Z</time>
      </trkpt>
      <trkpt lat="45.55355" lon="6.20766">
        <ele>288.60000610352</ele>
        <time>2021-12-31T13:03:58.000Z</time>
      </trkpt>
      <trkpt lat="45.55365" lon="6.20757">
        <ele>288.60000610352</ele>
        <time>2021-12-31T13:04:00.000Z</time>
      </trkpt>
      <trkpt lat="45.55398" lon="6.2073">
        <ele>288.39999389648</ele>
        <time>2021-12-31T13:04:06.000Z</time>
      </trkpt>
      <trkpt lat="45.55437" lon="6.20706">
        <ele>288.39999389648</ele>
        <time>2021-12-31T13:04:13.000Z</time>
      </trkpt>
      <trkpt lat="45.55442" lon="6.20703">
        <ele>288.39999389648</ele>
        <time>2021-12-31T13:04:14.000Z</time>
      </trkpt>
      <trkpt lat="45.55489" lon="6.20674">
        <ele>288</ele>
        <time>2021-12-31T13:04:22.000Z</time>
      </trkpt>
      <trkpt lat="45.55531" lon="6.2065">
        <ele>287.79998779297</ele>
        <time>2021-12-31T13:04:29.000Z</time>
      </trkpt>
      <trkpt lat="45.55541" lon="6.20643">
        <ele>287.79998779297</ele>
        <time>2021-12-31T13:04:31.000Z</time>
      </trkpt>
      <trkpt lat="45.55548" lon="6.20639">
        <ele>287.79998779297</ele>
        <time>2021-12-31T13:04:32.000Z</time>
      </trkpt>
      <trkpt lat="45.5556" lon="6.20632">
        <ele>287.79998779297</ele>
        <time>2021-12-31T13:04:34.000Z</time>
      </trkpt>
      <trkpt lat="45.55592" lon="6.20611">
        <ele>287.79998779297</ele>
        <time>2021-12-31T13:04:40.000Z</time>
      </trkpt>
      <trkpt lat="45.55634" lon="6.20589">
        <ele>287.60000610352</ele>
        <time>2021-12-31T13:04:47.000Z</time>
      </trkpt>
      <trkpt lat="45.55674" lon="6.20564">
        <ele>287.39999389648</ele>
        <time>2021-12-31T13:04:54.000Z</time>
      </trkpt>
      <trkpt lat="45.5571" lon="6.20542">
        <ele>287.39999389648</ele>
        <time>2021-12-31T13:05:01.000Z</time>
      </trkpt>
      <trkpt lat="45.55743" lon="6.20521">
        <ele>287.60000610352</ele>
        <time>2021-12-31T13:05:07.000Z</time>
      </trkpt>
      <trkpt lat="45.55776" lon="6.20501">
        <ele>287.39999389648</ele>
        <time>2021-12-31T13:05:13.000Z</time>
      </trkpt>
      <trkpt lat="45.55786" lon="6.20495">
        <ele>287.20001220703</ele>
        <time>2021-12-31T13:05:15.000Z</time>
      </trkpt>
      <trkpt lat="45.55821" lon="6.20478">
        <ele>287</ele>
        <time>2021-12-31T13:05:21.000Z</time>
      </trkpt>
      <trkpt lat="45.55854" lon="6.20466">
        <ele>286.79998779297</ele>
        <time>2021-12-31T13:05:27.000Z</time>
      </trkpt>
      <trkpt lat="45.55881" lon="6.20474">
        <ele>286.79998779297</ele>
        <time>2021-12-31T13:05:32.000Z</time>
      </trkpt>
      <trkpt lat="45.55922" lon="6.20488">
        <ele>287</ele>
        <time>2021-12-31T13:05:39.000Z</time>
      </trkpt>
      <trkpt lat="45.55962" lon="6.20506">
        <ele>286.79998779297</ele>
        <time>2021-12-31T13:05:46.000Z</time>
      </trkpt>
      <trkpt lat="45.55987" lon="6.20518">
        <ele>287</ele>
        <time>2021-12-31T13:05:51.000Z</time>
      </trkpt>
      <trkpt lat="45.56012" lon="6.20529">
        <ele>287.20001220703</ele>
        <time>2021-12-31T13:05:56.000Z</time>
      </trkpt>
      <trkpt lat="45.56024" lon="6.20533">
        <ele>287.20001220703</ele>
        <time>2021-12-31T13:05:58.000Z</time>
      </trkpt>
      <trkpt lat="45.56053" lon="6.20542">
        <ele>287.39999389648</ele>
        <time>2021-12-31T13:06:03.000Z</time>
      </trkpt>
      <trkpt lat="45.56076" lon="6.20552">
        <ele>287.39999389648</ele>
        <time>2021-12-31T13:06:07.000Z</time>
      </trkpt>
      <trkpt lat="45.56128" lon="6.20573">
        <ele>287.39999389648</ele>
        <time>2021-12-31T13:06:16.000Z</time>
      </trkpt>
      <trkpt lat="45.56133" lon="6.20574">
        <ele>287.39999389648</ele>
        <time>2021-12-31T13:06:17.000Z</time>
      </trkpt>
      <trkpt lat="45.56165" lon="6.20588">
        <ele>287.79998779297</ele>
        <time>2021-12-31T13:06:24.000Z</time>
      </trkpt>
      <trkpt lat="45.56192" lon="6.20603">
        <ele>288.60000610352</ele>
        <time>2021-12-31T13:06:30.000Z</time>
      </trkpt>
      <trkpt lat="45.56195" lon="6.20605">
        <ele>288.79998779297</ele>
        <time>2021-12-31T13:06:31.000Z</time>
      </trkpt>
      <trkpt lat="45.56201" lon="6.20608">
        <ele>289</ele>
        <time>2021-12-31T13:06:35.000Z</time>
      </trkpt>
      <trkpt lat="45.56213" lon="6.20612">
        <ele>289.39999389648</ele>
        <time>2021-12-31T13:06:39.000Z</time>
      </trkpt>
      <trkpt lat="45.56226" lon="6.20607">
        <ele>289.60000610352</ele>
        <time>2021-12-31T13:06:43.000Z</time>
      </trkpt>
      <trkpt lat="45.56231" lon="6.20608">
        <ele>289.60000610352</ele>
        <time>2021-12-31T13:06:44.000Z</time>
      </trkpt>
      <trkpt lat="45.56239" lon="6.20611">
        <ele>289.79998779297</ele>
        <time>2021-12-31T13:06:46.000Z</time>
      </trkpt>
      <trkpt lat="45.56247" lon="6.20615">
        <ele>289.79998779297</ele>
        <time>2021-12-31T13:06:48.000Z</time>
      </trkpt>
      <trkpt lat="45.56283" lon="6.20629">
        <ele>289.39999389648</ele>
        <time>2021-12-31T13:06:56.000Z</time>
      </trkpt>
      <trkpt lat="45.56285" lon="6.20632">
        <ele>289.39999389648</ele>
        <time>2021-12-31T13:06:57.000Z</time>
      </trkpt>
      <trkpt lat="45.56286" lon="6.20638">
        <ele>289.39999389648</ele>
        <time>2021-12-31T13:06:58.000Z</time>
      </trkpt>
      <trkpt lat="45.56284" lon="6.20649">
        <ele>289.39999389648</ele>
        <time>2021-12-31T13:07:00.000Z</time>
      </trkpt>
      <trkpt lat="45.56274" lon="6.20697">
        <ele>289</ele>
        <time>2021-12-31T13:07:07.000Z</time>
      </trkpt>
      <trkpt lat="45.56261" lon="6.20755">
        <ele>288.79998779297</ele>
        <time>2021-12-31T13:07:15.000Z</time>
      </trkpt>
      <trkpt lat="45.56256" lon="6.20776">
        <ele>288.79998779297</ele>
        <time>2021-12-31T13:07:18.000Z</time>
      </trkpt>
      <trkpt lat="45.56248" lon="6.20815">
        <ele>288.79998779297</ele>
        <time>2021-12-31T13:07:23.000Z</time>
      </trkpt>
      <trkpt lat="45.56235" lon="6.20884">
        <ele>289</ele>
        <time>2021-12-31T13:07:32.000Z</time>
      </trkpt>
      <trkpt lat="45.56222" lon="6.20951">
        <ele>289</ele>
        <time>2021-12-31T13:07:41.000Z</time>
      </trkpt>
      <trkpt lat="45.56208" lon="6.21026">
        <ele>289.39999389648</ele>
        <time>2021-12-31T13:07:51.000Z</time>
      </trkpt>
      <trkpt lat="45.56205" lon="6.21042">
        <ele>289.60000610352</ele>
        <time>2021-12-31T13:07:53.000Z</time>
      </trkpt>
      <trkpt lat="45.56189" lon="6.21117">
        <ele>289.79998779297</ele>
        <time>2021-12-31T13:08:03.000Z</time>
      </trkpt>
      <trkpt lat="45.56183" lon="6.21147">
        <ele>289.79998779297</ele>
        <time>2021-12-31T13:08:07.000Z</time>
      </trkpt>
      <trkpt lat="45.56172" lon="6.21206">
        <ele>290</ele>
        <time>2021-12-31T13:08:15.000Z</time>
      </trkpt>
      <trkpt lat="45.56161" lon="6.21265">
        <ele>290</ele>
        <time>2021-12-31T13:08:23.000Z</time>
      </trkpt>
      <trkpt lat="45.56148" lon="6.21339">
        <ele>290.20001220703</ele>
        <time>2021-12-31T13:08:33.000Z</time>
      </trkpt>
      <trkpt lat="45.56136" lon="6.21407">
        <ele>290.39999389648</ele>
        <time>2021-12-31T13:08:42.000Z</time>
      </trkpt>
      <trkpt lat="45.56123" lon="6.21467">
        <ele>290.39999389648</ele>
        <time>2021-12-31T13:08:50.000Z</time>
      </trkpt>
      <trkpt lat="45.56111" lon="6.21526">
        <ele>290.60000610352</ele>
        <time>2021-12-31T13:08:58.000Z</time>
      </trkpt>
      <trkpt lat="45.56101" lon="6.21583">
        <ele>290.60000610352</ele>
        <time>2021-12-31T13:09:06.000Z</time>
      </trkpt>
      <trkpt lat="45.56094" lon="6.21619">
        <ele>290.79998779297</ele>
        <time>2021-12-31T13:09:11.000Z</time>
      </trkpt>
      <trkpt lat="45.56091" lon="6.21633">
        <ele>290.79998779297</ele>
        <time>2021-12-31T13:09:13.000Z</time>
      </trkpt>
      <trkpt lat="45.5608" lon="6.21709">
        <ele>291</ele>
        <time>2021-12-31T13:09:23.000Z</time>
      </trkpt>
      <trkpt lat="45.56069" lon="6.21766">
        <ele>291</ele>
        <time>2021-12-31T13:09:31.000Z</time>
      </trkpt>
      <trkpt lat="45.56066" lon="6.21779">
        <ele>291</ele>
        <time>2021-12-31T13:09:33.000Z</time>
      </trkpt>
      <trkpt lat="45.56063" lon="6.21793">
        <ele>291</ele>
        <time>2021-12-31T13:09:35.000Z</time>
      </trkpt>
      <trkpt lat="45.5606" lon="6.21807">
        <ele>291</ele>
        <time>2021-12-31T13:09:37.000Z</time>
      </trkpt>
      <trkpt lat="45.56047" lon="6.21878">
        <ele>291.39999389648</ele>
        <time>2021-12-31T13:09:47.000Z</time>
      </trkpt>
      <trkpt lat="45.56033" lon="6.21951">
        <ele>291.39999389648</ele>
        <time>2021-12-31T13:09:57.000Z</time>
      </trkpt>
      <trkpt lat="45.56022" lon="6.22016">
        <ele>291.79998779297</ele>
        <time>2021-12-31T13:10:06.000Z</time>
      </trkpt>
      <trkpt lat="45.56008" lon="6.22091">
        <ele>291.79998779297</ele>
        <time>2021-12-31T13:10:16.000Z</time>
      </trkpt>
      <trkpt lat="45.55995" lon="6.22158">
        <ele>291.79998779297</ele>
        <time>2021-12-31T13:10:25.000Z</time>
      </trkpt>
      <trkpt lat="45.5599" lon="6.22187">
        <ele>292</ele>
        <time>2021-12-31T13:10:29.000Z</time>
      </trkpt>
      <trkpt lat="45.55982" lon="6.22224">
        <ele>292.20001220703</ele>
        <time>2021-12-31T13:10:34.000Z</time>
      </trkpt>
      <trkpt lat="45.55977" lon="6.22246">
        <ele>292.20001220703</ele>
        <time>2021-12-31T13:10:37.000Z</time>
      </trkpt>
      <trkpt lat="45.55974" lon="6.22269">
        <ele>292.39999389648</ele>
        <time>2021-12-31T13:10:40.000Z</time>
      </trkpt>
      <trkpt lat="45.55963" lon="6.22328">
        <ele>292.39999389648</ele>
        <time>2021-12-31T13:10:48.000Z</time>
      </trkpt>
      <trkpt lat="45.55951" lon="6.22391">
        <ele>292.79998779297</ele>
        <time>2021-12-31T13:10:57.000Z</time>
      </trkpt>
      <trkpt lat="45.55939" lon="6.22448">
        <ele>293</ele>
        <time>2021-12-31T13:11:05.000Z</time>
      </trkpt>
      <trkpt lat="45.55937" lon="6.22463">
        <ele>293</ele>
        <time>2021-12-31T13:11:07.000Z</time>
      </trkpt>
      <trkpt lat="45.55924" lon="6.22536">
        <ele>293.20001220703</ele>
        <time>2021-12-31T13:11:17.000Z</time>
      </trkpt>
      <trkpt lat="45.55919" lon="6.22557">
        <ele>293.60000610352</ele>
        <time>2021-12-31T13:11:20.000Z</time>
      </trkpt>
      <trkpt lat="45.55917" lon="6.22576">
        <ele>293.60000610352</ele>
        <time>2021-12-31T13:11:23.000Z</time>
      </trkpt>
      <trkpt lat="45.55908" lon="6.22616">
        <ele>293.79998779297</ele>
        <time>2021-12-31T13:11:29.000Z</time>
      </trkpt>
      <trkpt lat="45.55907" lon="6.22623">
        <ele>293.79998779297</ele>
        <time>2021-12-31T13:11:30.000Z</time>
      </trkpt>
      <trkpt lat="45.55905" lon="6.2263">
        <ele>293.79998779297</ele>
        <time>2021-12-31T13:11:31.000Z</time>
      </trkpt>
      <trkpt lat="45.55896" lon="6.22675">
        <ele>294</ele>
        <time>2021-12-31T13:11:37.000Z</time>
      </trkpt>
      <trkpt lat="45.55887" lon="6.22736">
        <ele>294.20001220703</ele>
        <time>2021-12-31T13:11:45.000Z</time>
      </trkpt>
      <trkpt lat="45.55873" lon="6.22806">
        <ele>294.39999389648</ele>
        <time>2021-12-31T13:11:54.000Z</time>
      </trkpt>
      <trkpt lat="45.55861" lon="6.22879">
        <ele>294.39999389648</ele>
        <time>2021-12-31T13:12:04.000Z</time>
      </trkpt>
      <trkpt lat="45.55849" lon="6.22938">
        <ele>294.39999389648</ele>
        <time>2021-12-31T13:12:12.000Z</time>
      </trkpt>
      <trkpt lat="45.55839" lon="6.2299">
        <ele>294.60000610352</ele>
        <time>2021-12-31T13:12:19.000Z</time>
      </trkpt>
      <trkpt lat="45.55825" lon="6.23064">
        <ele>294.79998779297</ele>
        <time>2021-12-31T13:12:29.000Z</time>
      </trkpt>
      <trkpt lat="45.55813" lon="6.23129">
        <ele>294.60000610352</ele>
        <time>2021-12-31T13:12:38.000Z</time>
      </trkpt>
      <trkpt lat="45.55802" lon="6.23182">
        <ele>295</ele>
        <time>2021-12-31T13:12:45.000Z</time>
      </trkpt>
      <trkpt lat="45.5579" lon="6.23243">
        <ele>295.20001220703</ele>
        <time>2021-12-31T13:12:53.000Z</time>
      </trkpt>
      <trkpt lat="45.55788" lon="6.23257">
        <ele>295.20001220703</ele>
        <time>2021-12-31T13:12:55.000Z</time>
      </trkpt>
      <trkpt lat="45.55785" lon="6.23272">
        <ele>295.20001220703</ele>
        <time>2021-12-31T13:12:57.000Z</time>
      </trkpt>
      <trkpt lat="45.55783" lon="6.2328">
        <ele>295.20001220703</ele>
        <time>2021-12-31T13:12:58.000Z</time>
      </trkpt>
      <trkpt lat="45.55774" lon="6.23331">
        <ele>295.39999389648</ele>
        <time>2021-12-31T13:13:05.000Z</time>
      </trkpt>
      <trkpt lat="45.55766" lon="6.23367">
        <ele>295.60000610352</ele>
        <time>2021-12-31T13:13:10.000Z</time>
      </trkpt>
      <trkpt lat="45.55752" lon="6.2344">
        <ele>295.79998779297</ele>
        <time>2021-12-31T13:13:20.000Z</time>
      </trkpt>
      <trkpt lat="45.55739" lon="6.23508">
        <ele>296</ele>
        <time>2021-12-31T13:13:29.000Z</time>
      </trkpt>
      <trkpt lat="45.55726" lon="6.23575">
        <ele>296.60000610352</ele>
        <time>2021-12-31T13:13:38.000Z</time>
      </trkpt>
      <trkpt lat="45.55713" lon="6.23647">
        <ele>296.39999389648</ele>
        <time>2021-12-31T13:13:48.000Z</time>
      </trkpt>
      <trkpt lat="45.55702" lon="6.23706">
        <ele>296.60000610352</ele>
        <time>2021-12-31T13:13:56.000Z</time>
      </trkpt>
      <trkpt lat="45.557" lon="6.2372">
        <ele>296.60000610352</ele>
        <time>2021-12-31T13:13:58.000Z</time>
      </trkpt>
      <trkpt lat="45.55688" lon="6.23785">
        <ele>296.79998779297</ele>
        <time>2021-12-31T13:14:07.000Z</time>
      </trkpt>
      <trkpt lat="45.5569" lon="6.23829">
        <ele>296.79998779297</ele>
        <time>2021-12-31T13:14:13.000Z</time>
      </trkpt>
      <trkpt lat="45.55696" lon="6.23857">
        <ele>296.79998779297</ele>
        <time>2021-12-31T13:14:17.000Z</time>
      </trkpt>
      <trkpt lat="45.55701" lon="6.23871">
        <ele>296.79998779297</ele>
        <time>2021-12-31T13:14:19.000Z</time>
      </trkpt>
      <trkpt lat="45.55724" lon="6.23906">
        <ele>297</ele>
        <time>2021-12-31T13:14:25.000Z</time>
      </trkpt>
      <trkpt lat="45.55753" lon="6.23926">
        <ele>297</ele>
        <time>2021-12-31T13:14:31.000Z</time>
      </trkpt>
      <trkpt lat="45.55791" lon="6.23939">
        <ele>297.79998779297</ele>
        <time>2021-12-31T13:14:39.000Z</time>
      </trkpt>
      <trkpt lat="45.5581" lon="6.23944">
        <ele>298.79998779297</ele>
        <time>2021-12-31T13:14:44.000Z</time>
      </trkpt>
      <trkpt lat="45.55814" lon="6.23945">
        <ele>299</ele>
        <time>2021-12-31T13:14:45.000Z</time>
      </trkpt>
      <trkpt lat="45.55832" lon="6.23951">
        <ele>299.79998779297</ele>
        <time>2021-12-31T13:14:50.000Z</time>
      </trkpt>
      <trkpt lat="45.55836" lon="6.23953">
        <ele>300.20001220703</ele>
        <time>2021-12-31T13:14:51.000Z</time>
      </trkpt>
      <trkpt lat="45.55849" lon="6.23958">
        <ele>301</ele>
        <time>2021-12-31T13:14:54.000Z</time>
      </trkpt>
      <trkpt lat="45.55868" lon="6.23968">
        <ele>302</ele>
        <time>2021-12-31T13:14:59.000Z</time>
      </trkpt>
      <trkpt lat="45.55872" lon="6.23971">
        <ele>302.20001220703</ele>
        <time>2021-12-31T13:15:00.000Z</time>
      </trkpt>
      <trkpt lat="45.559" lon="6.2399">
        <ele>303</ele>
        <time>2021-12-31T13:15:07.000Z</time>
      </trkpt>
      <trkpt lat="45.55904" lon="6.23992">
        <ele>303.20001220703</ele>
        <time>2021-12-31T13:15:08.000Z</time>
      </trkpt>
      <trkpt lat="45.55912" lon="6.23998">
        <ele>303.20001220703</ele>
        <time>2021-12-31T13:15:10.000Z</time>
      </trkpt>
      <trkpt lat="45.55946" lon="6.24023">
        <ele>303.60000610352</ele>
        <time>2021-12-31T13:15:18.000Z</time>
      </trkpt>
      <trkpt lat="45.55984" lon="6.24044">
        <ele>303.20001220703</ele>
        <time>2021-12-31T13:15:25.000Z</time>
      </trkpt>
      <trkpt lat="45.56018" lon="6.24054">
        <ele>302.20001220703</ele>
        <time>2021-12-31T13:15:30.000Z</time>
      </trkpt>
      <trkpt lat="45.56026" lon="6.24055">
        <ele>302</ele>
        <time>2021-12-31T13:15:31.000Z</time>
      </trkpt>
      <trkpt lat="45.5605" lon="6.24057">
        <ele>301</ele>
        <time>2021-12-31T13:15:34.000Z</time>
      </trkpt>
      <trkpt lat="45.56076" lon="6.2406">
        <ele>299.79998779297</ele>
        <time>2021-12-31T13:15:37.000Z</time>
      </trkpt>
      <trkpt lat="45.56101" lon="6.24069">
        <ele>298</ele>
        <time>2021-12-31T13:15:40.000Z</time>
      </trkpt>
      <trkpt lat="45.56109" lon="6.24073">
        <ele>297.60000610352</ele>
        <time>2021-12-31T13:15:41.000Z</time>
      </trkpt>
      <trkpt lat="45.56142" lon="6.24095">
        <ele>297</ele>
        <time>2021-12-31T13:15:46.000Z</time>
      </trkpt>
      <trkpt lat="45.56147" lon="6.241">
        <ele>296.79998779297</ele>
        <time>2021-12-31T13:15:47.000Z</time>
      </trkpt>
      <trkpt lat="45.56169" lon="6.24118">
        <ele>296.60000610352</ele>
        <time>2021-12-31T13:15:51.000Z</time>
      </trkpt>
      <trkpt lat="45.56195" lon="6.2414">
        <ele>297</ele>
        <time>2021-12-31T13:15:56.000Z</time>
      </trkpt>
      <trkpt lat="45.56204" lon="6.24151">
        <ele>296.79998779297</ele>
        <time>2021-12-31T13:15:58.000Z</time>
      </trkpt>
      <trkpt lat="45.56211" lon="6.24165">
        <ele>296.79998779297</ele>
        <time>2021-12-31T13:16:00.000Z</time>
      </trkpt>
      <trkpt lat="45.56216" lon="6.2418">
        <ele>296.79998779297</ele>
        <time>2021-12-31T13:16:02.000Z</time>
      </trkpt>
      <trkpt lat="45.56218" lon="6.24188">
        <ele>296.79998779297</ele>
        <time>2021-12-31T13:16:03.000Z</time>
      </trkpt>
      <trkpt lat="45.56221" lon="6.24221">
        <ele>296.79998779297</ele>
        <time>2021-12-31T13:16:07.000Z</time>
      </trkpt>
      <trkpt lat="45.56224" lon="6.24276">
        <ele>297</ele>
        <time>2021-12-31T13:16:14.000Z</time>
      </trkpt>
      <trkpt lat="45.56227" lon="6.24354">
        <ele>297.20001220703</ele>
        <time>2021-12-31T13:16:24.000Z</time>
      </trkpt>
      <trkpt lat="45.56232" lon="6.24431">
        <ele>297.20001220703</ele>
        <time>2021-12-31T13:16:34.000Z</time>
      </trkpt>
      <trkpt lat="45.56236" lon="6.24502">
        <ele>297.20001220703</ele>
        <time>2021-12-31T13:16:43.000Z</time>
      </trkpt>
      <trkpt lat="45.56239" lon="6.2455">
        <ele>297.20001220703</ele>
        <time>2021-12-31T13:16:49.000Z</time>
      </trkpt>
      <trkpt lat="45.56241" lon="6.24622">
        <ele>297</ele>
        <time>2021-12-31T13:16:58.000Z</time>
      </trkpt>
      <trkpt lat="45.56242" lon="6.24693">
        <ele>297.20001220703</ele>
        <time>2021-12-31T13:17:07.000Z</time>
      </trkpt>
      <trkpt lat="45.56245" lon="6.24716">
        <ele>297.20001220703</ele>
        <time>2021-12-31T13:17:10.000Z</time>
      </trkpt>
      <trkpt lat="45.5625" lon="6.24731">
        <ele>297</ele>
        <time>2021-12-31T13:17:12.000Z</time>
      </trkpt>
      <trkpt lat="45.56267" lon="6.24751">
        <ele>297</ele>
        <time>2021-12-31T13:17:16.000Z</time>
      </trkpt>
      <trkpt lat="45.56302" lon="6.24782">
        <ele>296.79998779297</ele>
        <time>2021-12-31T13:17:23.000Z</time>
      </trkpt>
      <trkpt lat="45.5631" lon="6.24794">
        <ele>296.79998779297</ele>
        <time>2021-12-31T13:17:25.000Z</time>
      </trkpt>
      <trkpt lat="45.56314" lon="6.2481">
        <ele>296.79998779297</ele>
        <time>2021-12-31T13:17:27.000Z</time>
      </trkpt>
      <trkpt lat="45.56315" lon="6.24818">
        <ele>296.79998779297</ele>
        <time>2021-12-31T13:17:28.000Z</time>
      </trkpt>
      <trkpt lat="45.56314" lon="6.24826">
        <ele>296.79998779297</ele>
        <time>2021-12-31T13:17:29.000Z</time>
      </trkpt>
      <trkpt lat="45.56307" lon="6.24858">
        <ele>296.79998779297</ele>
        <time>2021-12-31T13:17:33.000Z</time>
      </trkpt>
      <trkpt lat="45.56293" lon="6.24919">
        <ele>296.79998779297</ele>
        <time>2021-12-31T13:17:41.000Z</time>
      </trkpt>
      <trkpt lat="45.56284" lon="6.2498">
        <ele>297.20001220703</ele>
        <time>2021-12-31T13:17:49.000Z</time>
      </trkpt>
      <trkpt lat="45.5628" lon="6.24993">
        <ele>297.20001220703</ele>
        <time>2021-12-31T13:17:51.000Z</time>
      </trkpt>
      <trkpt lat="45.56271" lon="6.25011">
        <ele>297.39999389648</ele>
        <time>2021-12-31T13:17:54.000Z</time>
      </trkpt>
      <trkpt lat="45.56249" lon="6.25058">
        <ele>297.60000610352</ele>
        <time>2021-12-31T13:18:02.000Z</time>
      </trkpt>
      <trkpt lat="45.56241" lon="6.25076">
        <ele>297.79998779297</ele>
        <time>2021-12-31T13:18:05.000Z</time>
      </trkpt>
      <trkpt lat="45.56237" lon="6.25089">
        <ele>298</ele>
        <time>2021-12-31T13:18:08.000Z</time>
      </trkpt>
      <trkpt lat="45.56235" lon="6.25097">
        <ele>298.39999389648</ele>
        <time>2021-12-31T13:18:11.000Z</time>
      </trkpt>
      <trkpt lat="45.56235" lon="6.25097">
        <ele>298.60000610352</ele>
        <time>2021-12-31T13:18:12.000Z</time>
      </trkpt>
      <trkpt lat="45.56235" lon="6.25096">
        <ele>299</ele>
        <time>2021-12-31T13:18:18.000Z</time>
      </trkpt>
      <trkpt lat="45.56236" lon="6.25099">
        <ele>299</ele>
        <time>2021-12-31T13:18:24.000Z</time>
      </trkpt>
      <trkpt lat="45.5624" lon="6.25104">
        <ele>299</ele>
        <time>2021-12-31T13:18:26.000Z</time>
      </trkpt>
      <trkpt lat="45.56254" lon="6.25112">
        <ele>299</ele>
        <time>2021-12-31T13:18:30.000Z</time>
      </trkpt>
      <trkpt lat="45.56269" lon="6.25118">
        <ele>299</ele>
        <time>2021-12-31T13:18:33.000Z</time>
      </trkpt>
      <trkpt lat="45.56278" lon="6.25123">
        <ele>299</ele>
        <time>2021-12-31T13:18:35.000Z</time>
      </trkpt>
      <trkpt lat="45.56318" lon="6.25142">
        <ele>298.79998779297</ele>
        <time>2021-12-31T13:18:43.000Z</time>
      </trkpt>
      <trkpt lat="45.56356" lon="6.25164">
        <ele>298.79998779297</ele>
        <time>2021-12-31T13:18:50.000Z</time>
      </trkpt>
      <trkpt lat="45.56392" lon="6.25184">
        <ele>298.39999389648</ele>
        <time>2021-12-31T13:18:56.000Z</time>
      </trkpt>
      <trkpt lat="45.56425" lon="6.25202">
        <ele>298.20001220703</ele>
        <time>2021-12-31T13:19:02.000Z</time>
      </trkpt>
      <trkpt lat="45.5648" lon="6.25232">
        <ele>297.79998779297</ele>
        <time>2021-12-31T13:19:12.000Z</time>
      </trkpt>
      <trkpt lat="45.56514" lon="6.25252">
        <ele>297.39999389648</ele>
        <time>2021-12-31T13:19:18.000Z</time>
      </trkpt>
      <trkpt lat="45.5653" lon="6.25264">
        <ele>297.20001220703</ele>
        <time>2021-12-31T13:19:21.000Z</time>
      </trkpt>
      <trkpt lat="45.5656" lon="6.25295">
        <ele>297.20001220703</ele>
        <time>2021-12-31T13:19:27.000Z</time>
      </trkpt>
      <trkpt lat="45.56588" lon="6.25325">
        <ele>297.20001220703</ele>
        <time>2021-12-31T13:19:33.000Z</time>
      </trkpt>
      <trkpt lat="45.56626" lon="6.25365">
        <ele>297.20001220703</ele>
        <time>2021-12-31T13:19:41.000Z</time>
      </trkpt>
      <trkpt lat="45.56672" lon="6.25416">
        <ele>296.79998779297</ele>
        <time>2021-12-31T13:19:51.000Z</time>
      </trkpt>
      <trkpt lat="45.56676" lon="6.25421">
        <ele>296.79998779297</ele>
        <time>2021-12-31T13:19:52.000Z</time>
      </trkpt>
      <trkpt lat="45.56687" lon="6.2544">
        <ele>296.60000610352</ele>
        <time>2021-12-31T13:19:55.000Z</time>
      </trkpt>
      <trkpt lat="45.56697" lon="6.25449">
        <ele>296.60000610352</ele>
        <time>2021-12-31T13:19:57.000Z</time>
      </trkpt>
      <trkpt lat="45.56712" lon="6.2546">
        <ele>296.39999389648</ele>
        <time>2021-12-31T13:20:00.000Z</time>
      </trkpt>
      <trkpt lat="45.56722" lon="6.2547">
        <ele>296.39999389648</ele>
        <time>2021-12-31T13:20:02.000Z</time>
      </trkpt>
      <trkpt lat="45.5675" lon="6.25502">
        <ele>296.39999389648</ele>
        <time>2021-12-31T13:20:08.000Z</time>
      </trkpt>
      <trkpt lat="45.56764" lon="6.25516">
        <ele>296.39999389648</ele>
        <time>2021-12-31T13:20:11.000Z</time>
      </trkpt>
      <trkpt lat="45.56812" lon="6.25566">
        <ele>296.39999389648</ele>
        <time>2021-12-31T13:20:21.000Z</time>
      </trkpt>
      <trkpt lat="45.56842" lon="6.25597">
        <ele>296.20001220703</ele>
        <time>2021-12-31T13:20:27.000Z</time>
      </trkpt>
      <trkpt lat="45.56851" lon="6.25607">
        <ele>296.20001220703</ele>
        <time>2021-12-31T13:20:29.000Z</time>
      </trkpt>
      <trkpt lat="45.56882" lon="6.25639">
        <ele>295.60000610352</ele>
        <time>2021-12-31T13:20:36.000Z</time>
      </trkpt>
      <trkpt lat="45.56912" lon="6.25671">
        <ele>295.39999389648</ele>
        <time>2021-12-31T13:20:42.000Z</time>
      </trkpt>
      <trkpt lat="45.56941" lon="6.2571">
        <ele>295.39999389648</ele>
        <time>2021-12-31T13:20:49.000Z</time>
      </trkpt>
      <trkpt lat="45.5695" lon="6.25724">
        <ele>295.39999389648</ele>
        <time>2021-12-31T13:20:51.000Z</time>
      </trkpt>
      <trkpt lat="45.5696" lon="6.25743">
        <ele>295.39999389648</ele>
        <time>2021-12-31T13:20:54.000Z</time>
      </trkpt>
      <trkpt lat="45.56974" lon="6.25779">
        <ele>295</ele>
        <time>2021-12-31T13:20:59.000Z</time>
      </trkpt>
      <trkpt lat="45.57002" lon="6.25848">
        <ele>294.79998779297</ele>
        <time>2021-12-31T13:21:09.000Z</time>
      </trkpt>
      <trkpt lat="45.57005" lon="6.25856">
        <ele>294.79998779297</ele>
        <time>2021-12-31T13:21:10.000Z</time>
      </trkpt>
      <trkpt lat="45.57028" lon="6.2591">
        <ele>294.79998779297</ele>
        <time>2021-12-31T13:21:18.000Z</time>
      </trkpt>
      <trkpt lat="45.57044" lon="6.25949">
        <ele>295</ele>
        <time>2021-12-31T13:21:24.000Z</time>
      </trkpt>
      <trkpt lat="45.57049" lon="6.25964">
        <ele>295</ele>
        <time>2021-12-31T13:21:26.000Z</time>
      </trkpt>
      <trkpt lat="45.57058" lon="6.25982">
        <ele>295.20001220703</ele>
        <time>2021-12-31T13:21:29.000Z</time>
      </trkpt>
      <trkpt lat="45.57079" lon="6.26028">
        <ele>295.20001220703</ele>
        <time>2021-12-31T13:21:36.000Z</time>
      </trkpt>
      <trkpt lat="45.57102" lon="6.26078">
        <ele>295.20001220703</ele>
        <time>2021-12-31T13:21:44.000Z</time>
      </trkpt>
      <trkpt lat="45.57113" lon="6.26102">
        <ele>295.20001220703</ele>
        <time>2021-12-31T13:21:48.000Z</time>
      </trkpt>
      <trkpt lat="45.57116" lon="6.26109">
        <ele>295.20001220703</ele>
        <time>2021-12-31T13:21:49.000Z</time>
      </trkpt>
      <trkpt lat="45.57131" lon="6.26142">
        <ele>295.20001220703</ele>
        <time>2021-12-31T13:21:54.000Z</time>
      </trkpt>
      <trkpt lat="45.57136" lon="6.26156">
        <ele>295</ele>
        <time>2021-12-31T13:21:56.000Z</time>
      </trkpt>
      <trkpt lat="45.57158" lon="6.26217">
        <ele>295.20001220703</ele>
        <time>2021-12-31T13:22:05.000Z</time>
      </trkpt>
      <trkpt lat="45.57177" lon="6.26263">
        <ele>295</ele>
        <time>2021-12-31T13:22:12.000Z</time>
      </trkpt>
      <trkpt lat="45.57188" lon="6.26288">
        <ele>295</ele>
        <time>2021-12-31T13:22:16.000Z</time>
      </trkpt>
      <trkpt lat="45.57201" lon="6.26315">
        <ele>295</ele>
        <time>2021-12-31T13:22:20.000Z</time>
      </trkpt>
      <trkpt lat="45.57222" lon="6.26367">
        <ele>295</ele>
        <time>2021-12-31T13:22:28.000Z</time>
      </trkpt>
      <trkpt lat="45.57225" lon="6.26374">
        <ele>295.20001220703</ele>
        <time>2021-12-31T13:22:29.000Z</time>
      </trkpt>
      <trkpt lat="45.5725" lon="6.26443">
        <ele>295.20001220703</ele>
        <time>2021-12-31T13:22:39.000Z</time>
      </trkpt>
      <trkpt lat="45.57277" lon="6.26502">
        <ele>295.20001220703</ele>
        <time>2021-12-31T13:22:48.000Z</time>
      </trkpt>
      <trkpt lat="45.57302" lon="6.26539">
        <ele>295.39999389648</ele>
        <time>2021-12-31T13:22:55.000Z</time>
      </trkpt>
      <trkpt lat="45.5734" lon="6.26576">
        <ele>295.20001220703</ele>
        <time>2021-12-31T13:23:03.000Z</time>
      </trkpt>
      <trkpt lat="45.57353" lon="6.26588">
        <ele>295.20001220703</ele>
        <time>2021-12-31T13:23:06.000Z</time>
      </trkpt>
      <trkpt lat="45.57389" lon="6.26623">
        <ele>295</ele>
        <time>2021-12-31T13:23:14.000Z</time>
      </trkpt>
      <trkpt lat="45.57435" lon="6.26667">
        <ele>295.20001220703</ele>
        <time>2021-12-31T13:23:24.000Z</time>
      </trkpt>
      <trkpt lat="45.57444" lon="6.26676">
        <ele>295.20001220703</ele>
        <time>2021-12-31T13:23:26.000Z</time>
      </trkpt>
      <trkpt lat="45.5749" lon="6.2672">
        <ele>295.20001220703</ele>
        <time>2021-12-31T13:23:36.000Z</time>
      </trkpt>
      <trkpt lat="45.57495" lon="6.26724">
        <ele>295</ele>
        <time>2021-12-31T13:23:37.000Z</time>
      </trkpt>
      <trkpt lat="45.57524" lon="6.26753">
        <ele>295</ele>
        <time>2021-12-31T13:23:44.000Z</time>
      </trkpt>
      <trkpt lat="45.57526" lon="6.26756">
        <ele>295</ele>
        <time>2021-12-31T13:23:45.000Z</time>
      </trkpt>
      <trkpt lat="45.5755" lon="6.2678">
        <ele>295</ele>
        <time>2021-12-31T13:23:51.000Z</time>
      </trkpt>
      <trkpt lat="45.57561" lon="6.26788">
        <ele>295</ele>
        <time>2021-12-31T13:23:53.000Z</time>
      </trkpt>
      <trkpt lat="45.57584" lon="6.26809">
        <ele>295</ele>
        <time>2021-12-31T13:23:58.000Z</time>
      </trkpt>
      <trkpt lat="45.5761" lon="6.26832">
        <ele>295</ele>
        <time>2021-12-31T13:24:03.000Z</time>
      </trkpt>
      <trkpt lat="45.57647" lon="6.2687">
        <ele>295</ele>
        <time>2021-12-31T13:24:11.000Z</time>
      </trkpt>
      <trkpt lat="45.57693" lon="6.26915">
        <ele>294.79998779297</ele>
        <time>2021-12-31T13:24:21.000Z</time>
      </trkpt>
      <trkpt lat="45.57697" lon="6.26918">
        <ele>294.79998779297</ele>
        <time>2021-12-31T13:24:22.000Z</time>
      </trkpt>
      <trkpt lat="45.57741" lon="6.26964">
        <ele>295</ele>
        <time>2021-12-31T13:24:32.000Z</time>
      </trkpt>
      <trkpt lat="45.57787" lon="6.27009">
        <ele>294.79998779297</ele>
        <time>2021-12-31T13:24:42.000Z</time>
      </trkpt>
      <trkpt lat="45.578" lon="6.27022">
        <ele>294.79998779297</ele>
        <time>2021-12-31T13:24:45.000Z</time>
      </trkpt>
      <trkpt lat="45.57846" lon="6.27066">
        <ele>295</ele>
        <time>2021-12-31T13:24:55.000Z</time>
      </trkpt>
      <trkpt lat="45.57857" lon="6.27076">
        <ele>295</ele>
        <time>2021-12-31T13:24:57.000Z</time>
      </trkpt>
      <trkpt lat="45.57901" lon="6.27121">
        <ele>295.20001220703</ele>
        <time>2021-12-31T13:25:07.000Z</time>
      </trkpt>
      <trkpt lat="45.57909" lon="6.27128">
        <ele>295.20001220703</ele>
        <time>2021-12-31T13:25:09.000Z</time>
      </trkpt>
      <trkpt lat="45.57934" lon="6.27152">
        <ele>295.20001220703</ele>
        <time>2021-12-31T13:25:15.000Z</time>
      </trkpt>
      <trkpt lat="45.57942" lon="6.27161">
        <ele>295.20001220703</ele>
        <time>2021-12-31T13:25:17.000Z</time>
      </trkpt>
      <trkpt lat="45.57951" lon="6.2717">
        <ele>295.20001220703</ele>
        <time>2021-12-31T13:25:19.000Z</time>
      </trkpt>
      <trkpt lat="45.57976" lon="6.27195">
        <ele>295.20001220703</ele>
        <time>2021-12-31T13:25:25.000Z</time>
      </trkpt>
      <trkpt lat="45.58012" lon="6.27231">
        <ele>295.20001220703</ele>
        <time>2021-12-31T13:25:32.000Z</time>
      </trkpt>
      <trkpt lat="45.58061" lon="6.27278">
        <ele>295.39999389648</ele>
        <time>2021-12-31T13:25:42.000Z</time>
      </trkpt>
      <trkpt lat="45.58065" lon="6.27282">
        <ele>295.39999389648</ele>
        <time>2021-12-31T13:25:43.000Z</time>
      </trkpt>
      <trkpt lat="45.58111" lon="6.27326">
        <ele>295.60000610352</ele>
        <time>2021-12-31T13:25:53.000Z</time>
      </trkpt>
      <trkpt lat="45.58158" lon="6.27374">
        <ele>295.39999389648</ele>
        <time>2021-12-31T13:26:04.000Z</time>
      </trkpt>
      <trkpt lat="45.58163" lon="6.27379">
        <ele>295.39999389648</ele>
        <time>2021-12-31T13:26:05.000Z</time>
      </trkpt>
      <trkpt lat="45.58207" lon="6.27425">
        <ele>295</ele>
        <time>2021-12-31T13:26:15.000Z</time>
      </trkpt>
      <trkpt lat="45.58242" lon="6.2746">
        <ele>294.79998779297</ele>
        <time>2021-12-31T13:26:23.000Z</time>
      </trkpt>
      <trkpt lat="45.58289" lon="6.27508">
        <ele>295.20001220703</ele>
        <time>2021-12-31T13:26:34.000Z</time>
      </trkpt>
      <trkpt lat="45.58333" lon="6.27553">
        <ele>295.39999389648</ele>
        <time>2021-12-31T13:26:44.000Z</time>
      </trkpt>
      <trkpt lat="45.58346" lon="6.27565">
        <ele>295.39999389648</ele>
        <time>2021-12-31T13:26:47.000Z</time>
      </trkpt>
      <trkpt lat="45.58381" lon="6.27603">
        <ele>295.39999389648</ele>
        <time>2021-12-31T13:26:55.000Z</time>
      </trkpt>
      <trkpt lat="45.58426" lon="6.27647">
        <ele>295.60000610352</ele>
        <time>2021-12-31T13:27:05.000Z</time>
      </trkpt>
      <trkpt lat="45.58434" lon="6.27656">
        <ele>295.60000610352</ele>
        <time>2021-12-31T13:27:07.000Z</time>
      </trkpt>
      <trkpt lat="45.58478" lon="6.27701">
        <ele>295.39999389648</ele>
        <time>2021-12-31T13:27:17.000Z</time>
      </trkpt>
      <trkpt lat="45.58492" lon="6.27715">
        <ele>295.60000610352</ele>
        <time>2021-12-31T13:27:20.000Z</time>
      </trkpt>
      <trkpt lat="45.58537" lon="6.2776">
        <ele>295.60000610352</ele>
        <time>2021-12-31T13:27:30.000Z</time>
      </trkpt>
      <trkpt lat="45.58551" lon="6.27774">
        <ele>295.60000610352</ele>
        <time>2021-12-31T13:27:33.000Z</time>
      </trkpt>
      <trkpt lat="45.58596" lon="6.2782">
        <ele>295.39999389648</ele>
        <time>2021-12-31T13:27:43.000Z</time>
      </trkpt>
      <trkpt lat="45.58604" lon="6.27828">
        <ele>295.39999389648</ele>
        <time>2021-12-31T13:27:45.000Z</time>
      </trkpt>
      <trkpt lat="45.58649" lon="6.27874">
        <ele>295.60000610352</ele>
        <time>2021-12-31T13:27:55.000Z</time>
      </trkpt>
      <trkpt lat="45.58657" lon="6.27883">
        <ele>295.79998779297</ele>
        <time>2021-12-31T13:27:57.000Z</time>
      </trkpt>
      <trkpt lat="45.58703" lon="6.2793">
        <ele>295.79998779297</ele>
        <time>2021-12-31T13:28:07.000Z</time>
      </trkpt>
      <trkpt lat="45.58722" lon="6.27949">
        <ele>295.79998779297</ele>
        <time>2021-12-31T13:28:11.000Z</time>
      </trkpt>
      <trkpt lat="45.58763" lon="6.27991">
        <ele>296</ele>
        <time>2021-12-31T13:28:20.000Z</time>
      </trkpt>
      <trkpt lat="45.58778" lon="6.28005">
        <ele>296</ele>
        <time>2021-12-31T13:28:23.000Z</time>
      </trkpt>
      <trkpt lat="45.58822" lon="6.28051">
        <ele>296.20001220703</ele>
        <time>2021-12-31T13:28:33.000Z</time>
      </trkpt>
      <trkpt lat="45.58837" lon="6.28065">
        <ele>296.39999389648</ele>
        <time>2021-12-31T13:28:36.000Z</time>
      </trkpt>
      <trkpt lat="45.58845" lon="6.28074">
        <ele>296.60000610352</ele>
        <time>2021-12-31T13:28:38.000Z</time>
      </trkpt>
      <trkpt lat="45.58886" lon="6.28117">
        <ele>297</ele>
        <time>2021-12-31T13:28:47.000Z</time>
      </trkpt>
      <trkpt lat="45.5893" lon="6.28168">
        <ele>297</ele>
        <time>2021-12-31T13:28:57.000Z</time>
      </trkpt>
      <trkpt lat="45.58935" lon="6.28173">
        <ele>297</ele>
        <time>2021-12-31T13:28:58.000Z</time>
      </trkpt>
      <trkpt lat="45.58979" lon="6.28227">
        <ele>296.60000610352</ele>
        <time>2021-12-31T13:29:08.000Z</time>
      </trkpt>
      <trkpt lat="45.58993" lon="6.28244">
        <ele>296.60000610352</ele>
        <time>2021-12-31T13:29:11.000Z</time>
      </trkpt>
      <trkpt lat="45.59035" lon="6.28293">
        <ele>296.39999389648</ele>
        <time>2021-12-31T13:29:21.000Z</time>
      </trkpt>
      <trkpt lat="45.59044" lon="6.28304">
        <ele>296.39999389648</ele>
        <time>2021-12-31T13:29:23.000Z</time>
      </trkpt>
      <trkpt lat="45.59088" lon="6.28356">
        <ele>297.20001220703</ele>
        <time>2021-12-31T13:29:33.000Z</time>
      </trkpt>
      <trkpt lat="45.59099" lon="6.2837">
        <ele>297.20001220703</ele>
        <time>2021-12-31T13:29:36.000Z</time>
      </trkpt>
      <trkpt lat="45.59134" lon="6.28417">
        <ele>297.39999389648</ele>
        <time>2021-12-31T13:29:45.000Z</time>
      </trkpt>
      <trkpt lat="45.59157" lon="6.28448">
        <ele>297.39999389648</ele>
        <time>2021-12-31T13:29:51.000Z</time>
      </trkpt>
      <trkpt lat="45.59169" lon="6.28464">
        <ele>297.60000610352</ele>
        <time>2021-12-31T13:29:54.000Z</time>
      </trkpt>
      <trkpt lat="45.5918" lon="6.28478">
        <ele>297.60000610352</ele>
        <time>2021-12-31T13:29:57.000Z</time>
      </trkpt>
      <trkpt lat="45.59219" lon="6.28531">
        <ele>297.79998779297</ele>
        <time>2021-12-31T13:30:07.000Z</time>
      </trkpt>
      <trkpt lat="45.59241" lon="6.2856">
        <ele>297.79998779297</ele>
        <time>2021-12-31T13:30:13.000Z</time>
      </trkpt>
      <trkpt lat="45.59263" lon="6.28588">
        <ele>297.60000610352</ele>
        <time>2021-12-31T13:30:20.000Z</time>
      </trkpt>
      <trkpt lat="45.59268" lon="6.28599">
        <ele>297.60000610352</ele>
        <time>2021-12-31T13:30:23.000Z</time>
      </trkpt>
      <trkpt lat="45.59268" lon="6.28604">
        <ele>297.60000610352</ele>
        <time>2021-12-31T13:30:24.000Z</time>
      </trkpt>
      <trkpt lat="45.59258" lon="6.2862">
        <ele>297.39999389648</ele>
        <time>2021-12-31T13:30:29.000Z</time>
      </trkpt>
      <trkpt lat="45.59247" lon="6.2864">
        <ele>297.20001220703</ele>
        <time>2021-12-31T13:30:36.000Z</time>
      </trkpt>
      <trkpt lat="45.59242" lon="6.28647">
        <ele>297.20001220703</ele>
        <time>2021-12-31T13:30:41.000Z</time>
      </trkpt>
      <trkpt lat="45.59242" lon="6.28647">
        <ele>296.79998779297</ele>
        <time>2021-12-31T13:30:56.000Z</time>
      </trkpt>
      <trkpt lat="45.59242" lon="6.28647">
        <ele>297.39999389648</ele>
        <time>2021-12-31T13:35:47.000Z</time>
      </trkpt>
      <trkpt lat="45.59243" lon="6.28648">
        <ele>297.20001220703</ele>
        <time>2021-12-31T13:36:13.000Z</time>
      </trkpt>
      <trkpt lat="45.59246" lon="6.28645">
        <ele>297.20001220703</ele>
        <time>2021-12-31T13:36:15.000Z</time>
      </trkpt>
      <trkpt lat="45.59248" lon="6.28643">
        <ele>297.20001220703</ele>
        <time>2021-12-31T13:36:16.000Z</time>
      </trkpt>
      <trkpt lat="45.59257" lon="6.28627">
        <ele>297.39999389648</ele>
        <time>2021-12-31T13:36:21.000Z</time>
      </trkpt>
      <trkpt lat="45.59268" lon="6.28607">
        <ele>297.39999389648</ele>
        <time>2021-12-31T13:36:27.000Z</time>
      </trkpt>
      <trkpt lat="45.59272" lon="6.28603">
        <ele>297.39999389648</ele>
        <time>2021-12-31T13:36:30.000Z</time>
      </trkpt>
      <trkpt lat="45.59275" lon="6.28604">
        <ele>297.39999389648</ele>
        <time>2021-12-31T13:36:31.000Z</time>
      </trkpt>
      <trkpt lat="45.59287" lon="6.28618">
        <ele>297.39999389648</ele>
        <time>2021-12-31T13:36:36.000Z</time>
      </trkpt>
      <trkpt lat="45.59308" lon="6.28648">
        <ele>297.39999389648</ele>
        <time>2021-12-31T13:36:43.000Z</time>
      </trkpt>
      <trkpt lat="45.59336" lon="6.28684">
        <ele>297.60000610352</ele>
        <time>2021-12-31T13:36:51.000Z</time>
      </trkpt>
      <trkpt lat="45.5937" lon="6.28729">
        <ele>297.60000610352</ele>
        <time>2021-12-31T13:37:00.000Z</time>
      </trkpt>
      <trkpt lat="45.59409" lon="6.28781">
        <ele>297.60000610352</ele>
        <time>2021-12-31T13:37:10.000Z</time>
      </trkpt>
      <trkpt lat="45.59444" lon="6.28838">
        <ele>297.79998779297</ele>
        <time>2021-12-31T13:37:20.000Z</time>
      </trkpt>
      <trkpt lat="45.59478" lon="6.28899">
        <ele>298</ele>
        <time>2021-12-31T13:37:30.000Z</time>
      </trkpt>
      <trkpt lat="45.59486" lon="6.28913">
        <ele>298</ele>
        <time>2021-12-31T13:37:32.000Z</time>
      </trkpt>
      <trkpt lat="45.59522" lon="6.28976">
        <ele>298.20001220703</ele>
        <time>2021-12-31T13:37:42.000Z</time>
      </trkpt>
      <trkpt lat="45.59546" lon="6.29019">
        <ele>298.39999389648</ele>
        <time>2021-12-31T13:37:49.000Z</time>
      </trkpt>
      <trkpt lat="45.59568" lon="6.29056">
        <ele>298.20001220703</ele>
        <time>2021-12-31T13:37:55.000Z</time>
      </trkpt>
      <trkpt lat="45.59604" lon="6.29118">
        <ele>298.20001220703</ele>
        <time>2021-12-31T13:38:05.000Z</time>
      </trkpt>
      <trkpt lat="45.59611" lon="6.29131">
        <ele>298.20001220703</ele>
        <time>2021-12-31T13:38:07.000Z</time>
      </trkpt>
      <trkpt lat="45.59635" lon="6.29175">
        <ele>298.39999389648</ele>
        <time>2021-12-31T13:38:14.000Z</time>
      </trkpt>
      <trkpt lat="45.59669" lon="6.29237">
        <ele>298.20001220703</ele>
        <time>2021-12-31T13:38:24.000Z</time>
      </trkpt>
      <trkpt lat="45.59673" lon="6.29243">
        <ele>298.20001220703</ele>
        <time>2021-12-31T13:38:25.000Z</time>
      </trkpt>
      <trkpt lat="45.59705" lon="6.293">
        <ele>298.39999389648</ele>
        <time>2021-12-31T13:38:34.000Z</time>
      </trkpt>
      <trkpt lat="45.5974" lon="6.29362">
        <ele>298.39999389648</ele>
        <time>2021-12-31T13:38:44.000Z</time>
      </trkpt>
      <trkpt lat="45.59744" lon="6.29368">
        <ele>298.39999389648</ele>
        <time>2021-12-31T13:38:45.000Z</time>
      </trkpt>
      <trkpt lat="45.5978" lon="6.29431">
        <ele>298.60000610352</ele>
        <time>2021-12-31T13:38:55.000Z</time>
      </trkpt>
      <trkpt lat="45.59792" lon="6.29452">
        <ele>298.39999389648</ele>
        <time>2021-12-31T13:38:58.000Z</time>
      </trkpt>
      <trkpt lat="45.59829" lon="6.29517">
        <ele>298.60000610352</ele>
        <time>2021-12-31T13:39:08.000Z</time>
      </trkpt>
      <trkpt lat="45.59836" lon="6.29529">
        <ele>298.60000610352</ele>
        <time>2021-12-31T13:39:10.000Z</time>
      </trkpt>
      <trkpt lat="45.59871" lon="6.29596">
        <ele>298.79998779297</ele>
        <time>2021-12-31T13:39:20.000Z</time>
      </trkpt>
      <trkpt lat="45.59879" lon="6.2961">
        <ele>298.79998779297</ele>
        <time>2021-12-31T13:39:22.000Z</time>
      </trkpt>
      <trkpt lat="45.59902" lon="6.29657">
        <ele>298.79998779297</ele>
        <time>2021-12-31T13:39:29.000Z</time>
      </trkpt>
      <trkpt lat="45.59937" lon="6.29724">
        <ele>299</ele>
        <time>2021-12-31T13:39:39.000Z</time>
      </trkpt>
      <trkpt lat="45.59959" lon="6.29765">
        <ele>299</ele>
        <time>2021-12-31T13:39:45.000Z</time>
      </trkpt>
      <trkpt lat="45.59977" lon="6.29798">
        <ele>299.20001220703</ele>
        <time>2021-12-31T13:39:50.000Z</time>
      </trkpt>
      <trkpt lat="45.60001" lon="6.29844">
        <ele>299.20001220703</ele>
        <time>2021-12-31T13:39:57.000Z</time>
      </trkpt>
      <trkpt lat="45.60029" lon="6.29906">
        <ele>299.20001220703</ele>
        <time>2021-12-31T13:40:06.000Z</time>
      </trkpt>
      <trkpt lat="45.60047" lon="6.29969">
        <ele>299.39999389648</ele>
        <time>2021-12-31T13:40:14.000Z</time>
      </trkpt>
      <trkpt lat="45.60059" lon="6.30013">
        <ele>299.79998779297</ele>
        <time>2021-12-31T13:40:20.000Z</time>
      </trkpt>
      <trkpt lat="45.60069" lon="6.30046">
        <ele>299.79998779297</ele>
        <time>2021-12-31T13:40:24.000Z</time>
      </trkpt>
      <trkpt lat="45.60088" lon="6.30115">
        <ele>299.60000610352</ele>
        <time>2021-12-31T13:40:33.000Z</time>
      </trkpt>
      <trkpt lat="45.60106" lon="6.30182">
        <ele>300.20001220703</ele>
        <time>2021-12-31T13:40:42.000Z</time>
      </trkpt>
      <trkpt lat="45.60108" lon="6.30188">
        <ele>300.20001220703</ele>
        <time>2021-12-31T13:40:43.000Z</time>
      </trkpt>
      <trkpt lat="45.60123" lon="6.30241">
        <ele>300.60000610352</ele>
        <time>2021-12-31T13:40:50.000Z</time>
      </trkpt>
      <trkpt lat="45.60141" lon="6.30307">
        <ele>301.20001220703</ele>
        <time>2021-12-31T13:40:59.000Z</time>
      </trkpt>
      <trkpt lat="45.60158" lon="6.30352">
        <ele>302</ele>
        <time>2021-12-31T13:41:06.000Z</time>
      </trkpt>
      <trkpt lat="45.60164" lon="6.30364">
        <ele>302.60000610352</ele>
        <time>2021-12-31T13:41:08.000Z</time>
      </trkpt>
      <trkpt lat="45.6017" lon="6.30375">
        <ele>302.79998779297</ele>
        <time>2021-12-31T13:41:10.000Z</time>
      </trkpt>
      <trkpt lat="45.60178" lon="6.30384">
        <ele>303.20001220703</ele>
        <time>2021-12-31T13:41:12.000Z</time>
      </trkpt>
      <trkpt lat="45.60186" lon="6.30392">
        <ele>303.79998779297</ele>
        <time>2021-12-31T13:41:14.000Z</time>
      </trkpt>
      <trkpt lat="45.60193" lon="6.30398">
        <ele>304.39999389648</ele>
        <time>2021-12-31T13:41:16.000Z</time>
      </trkpt>
      <trkpt lat="45.60202" lon="6.30404">
        <ele>304.79998779297</ele>
        <time>2021-12-31T13:41:18.000Z</time>
      </trkpt>
      <trkpt lat="45.60211" lon="6.30409">
        <ele>304.79998779297</ele>
        <time>2021-12-31T13:41:20.000Z</time>
      </trkpt>
      <trkpt lat="45.60244" lon="6.30424">
        <ele>306</ele>
        <time>2021-12-31T13:41:27.000Z</time>
      </trkpt>
      <trkpt lat="45.60248" lon="6.30426">
        <ele>306</ele>
        <time>2021-12-31T13:41:28.000Z</time>
      </trkpt>
      <trkpt lat="45.60267" lon="6.30435">
        <ele>307</ele>
        <time>2021-12-31T13:41:32.000Z</time>
      </trkpt>
      <trkpt lat="45.6029" lon="6.30445">
        <ele>308</ele>
        <time>2021-12-31T13:41:37.000Z</time>
      </trkpt>
      <trkpt lat="45.60294" lon="6.30447">
        <ele>308</ele>
        <time>2021-12-31T13:41:38.000Z</time>
      </trkpt>
      <trkpt lat="45.60307" lon="6.30454">
        <ele>308.60000610352</ele>
        <time>2021-12-31T13:41:41.000Z</time>
      </trkpt>
      <trkpt lat="45.60316" lon="6.30459">
        <ele>309.20001220703</ele>
        <time>2021-12-31T13:41:43.000Z</time>
      </trkpt>
      <trkpt lat="45.60324" lon="6.30465">
        <ele>309.60000610352</ele>
        <time>2021-12-31T13:41:45.000Z</time>
      </trkpt>
      <trkpt lat="45.60345" lon="6.30493">
        <ele>310.39999389648</ele>
        <time>2021-12-31T13:41:51.000Z</time>
      </trkpt>
      <trkpt lat="45.60349" lon="6.30499">
        <ele>310.39999389648</ele>
        <time>2021-12-31T13:41:52.000Z</time>
      </trkpt>
      <trkpt lat="45.60354" lon="6.30513">
        <ele>310.60000610352</ele>
        <time>2021-12-31T13:41:54.000Z</time>
      </trkpt>
      <trkpt lat="45.60357" lon="6.30528">
        <ele>310.60000610352</ele>
        <time>2021-12-31T13:41:56.000Z</time>
      </trkpt>
      <trkpt lat="45.60372" lon="6.3059">
        <ele>310.60000610352</ele>
        <time>2021-12-31T13:42:04.000Z</time>
      </trkpt>
      <trkpt lat="45.60387" lon="6.30648">
        <ele>310.39999389648</ele>
        <time>2021-12-31T13:42:11.000Z</time>
      </trkpt>
      <trkpt lat="45.60395" lon="6.3068">
        <ele>309.79998779297</ele>
        <time>2021-12-31T13:42:15.000Z</time>
      </trkpt>
      <trkpt lat="45.604" lon="6.30695">
        <ele>309.79998779297</ele>
        <time>2021-12-31T13:42:17.000Z</time>
      </trkpt>
      <trkpt lat="45.60403" lon="6.30704">
        <ele>309.79998779297</ele>
        <time>2021-12-31T13:42:18.000Z</time>
      </trkpt>
      <trkpt lat="45.60412" lon="6.3074">
        <ele>309.20001220703</ele>
        <time>2021-12-31T13:42:22.000Z</time>
      </trkpt>
      <trkpt lat="45.60422" lon="6.30787">
        <ele>308</ele>
        <time>2021-12-31T13:42:27.000Z</time>
      </trkpt>
      <trkpt lat="45.60429" lon="6.30816">
        <ele>307.79998779297</ele>
        <time>2021-12-31T13:42:30.000Z</time>
      </trkpt>
      <trkpt lat="45.60433" lon="6.30836">
        <ele>307.20001220703</ele>
        <time>2021-12-31T13:42:32.000Z</time>
      </trkpt>
      <trkpt lat="45.60444" lon="6.30872">
        <ele>306.60000610352</ele>
        <time>2021-12-31T13:42:36.000Z</time>
      </trkpt>
      <trkpt lat="45.60462" lon="6.30901">
        <ele>306</ele>
        <time>2021-12-31T13:42:40.000Z</time>
      </trkpt>
      <trkpt lat="45.60501" lon="6.30946">
        <ele>305.39999389648</ele>
        <time>2021-12-31T13:42:47.000Z</time>
      </trkpt>
      <trkpt lat="45.60533" lon="6.30983">
        <ele>304.79998779297</ele>
        <time>2021-12-31T13:42:53.000Z</time>
      </trkpt>
      <trkpt lat="45.6055" lon="6.31001">
        <ele>304.60000610352</ele>
        <time>2021-12-31T13:42:56.000Z</time>
      </trkpt>
      <trkpt lat="45.60575" lon="6.3103">
        <ele>304.20001220703</ele>
        <time>2021-12-31T13:43:01.000Z</time>
      </trkpt>
      <trkpt lat="45.60584" lon="6.31041">
        <ele>304.20001220703</ele>
        <time>2021-12-31T13:43:03.000Z</time>
      </trkpt>
      <trkpt lat="45.60618" lon="6.31079">
        <ele>304.20001220703</ele>
        <time>2021-12-31T13:43:10.000Z</time>
      </trkpt>
      <trkpt lat="45.6065" lon="6.31114">
        <ele>304.39999389648</ele>
        <time>2021-12-31T13:43:16.000Z</time>
      </trkpt>
      <trkpt lat="45.60683" lon="6.3115">
        <ele>304.60000610352</ele>
        <time>2021-12-31T13:43:23.000Z</time>
      </trkpt>
      <trkpt lat="45.60715" lon="6.31176">
        <ele>304.79998779297</ele>
        <time>2021-12-31T13:43:29.000Z</time>
      </trkpt>
      <trkpt lat="45.60724" lon="6.31187">
        <ele>304.79998779297</ele>
        <time>2021-12-31T13:43:31.000Z</time>
      </trkpt>
      <trkpt lat="45.60743" lon="6.31206">
        <ele>305</ele>
        <time>2021-12-31T13:43:35.000Z</time>
      </trkpt>
      <trkpt lat="45.60754" lon="6.31213">
        <ele>305.20001220703</ele>
        <time>2021-12-31T13:43:38.000Z</time>
      </trkpt>
      <trkpt lat="45.60758" lon="6.31213">
        <ele>305.20001220703</ele>
        <time>2021-12-31T13:43:39.000Z</time>
      </trkpt>
      <trkpt lat="45.60767" lon="6.31216">
        <ele>305.20001220703</ele>
        <time>2021-12-31T13:43:41.000Z</time>
      </trkpt>
      <trkpt lat="45.60778" lon="6.31226">
        <ele>305.39999389648</ele>
        <time>2021-12-31T13:43:43.000Z</time>
      </trkpt>
      <trkpt lat="45.60798" lon="6.31247">
        <ele>305.39999389648</ele>
        <time>2021-12-31T13:43:45.000Z</time>
      </trkpt>
      <trkpt lat="45.6081" lon="6.31264">
        <ele>305.20001220703</ele>
        <time>2021-12-31T13:43:47.000Z</time>
      </trkpt>
      <trkpt lat="45.60828" lon="6.31283">
        <ele>305</ele>
        <time>2021-12-31T13:43:51.000Z</time>
      </trkpt>
      <trkpt lat="45.60836" lon="6.31292">
        <ele>305</ele>
        <time>2021-12-31T13:43:53.000Z</time>
      </trkpt>
      <trkpt lat="45.60858" lon="6.31319">
        <ele>305.39999389648</ele>
        <time>2021-12-31T13:43:58.000Z</time>
      </trkpt>
      <trkpt lat="45.60862" lon="6.31323">
        <ele>305.39999389648</ele>
        <time>2021-12-31T13:43:59.000Z</time>
      </trkpt>
      <trkpt lat="45.60898" lon="6.31361">
        <ele>305.60000610352</ele>
        <time>2021-12-31T13:44:06.000Z</time>
      </trkpt>
      <trkpt lat="45.6091" lon="6.31378">
        <ele>305.60000610352</ele>
        <time>2021-12-31T13:44:09.000Z</time>
      </trkpt>
      <trkpt lat="45.6092" lon="6.31387">
        <ele>305.79998779297</ele>
        <time>2021-12-31T13:44:11.000Z</time>
      </trkpt>
      <trkpt lat="45.60946" lon="6.31411">
        <ele>306.20001220703</ele>
        <time>2021-12-31T13:44:16.000Z</time>
      </trkpt>
      <trkpt lat="45.60953" lon="6.3142">
        <ele>306.39999389648</ele>
        <time>2021-12-31T13:44:18.000Z</time>
      </trkpt>
      <trkpt lat="45.60977" lon="6.31449">
        <ele>307.20001220703</ele>
        <time>2021-12-31T13:44:24.000Z</time>
      </trkpt>
      <trkpt lat="45.6098" lon="6.31454">
        <ele>307.39999389648</ele>
        <time>2021-12-31T13:44:25.000Z</time>
      </trkpt>
      <trkpt lat="45.60984" lon="6.31458">
        <ele>307.60000610352</ele>
        <time>2021-12-31T13:44:26.000Z</time>
      </trkpt>
      <trkpt lat="45.60995" lon="6.31472">
        <ele>308</ele>
        <time>2021-12-31T13:44:29.000Z</time>
      </trkpt>
      <trkpt lat="45.60999" lon="6.31476">
        <ele>308.20001220703</ele>
        <time>2021-12-31T13:44:30.000Z</time>
      </trkpt>
      <trkpt lat="45.61003" lon="6.3148">
        <ele>308.39999389648</ele>
        <time>2021-12-31T13:44:31.000Z</time>
      </trkpt>
      <trkpt lat="45.61014" lon="6.31494">
        <ele>308.79998779297</ele>
        <time>2021-12-31T13:44:34.000Z</time>
      </trkpt>
      <trkpt lat="45.61022" lon="6.31503">
        <ele>309.39999389648</ele>
        <time>2021-12-31T13:44:36.000Z</time>
      </trkpt>
      <trkpt lat="45.61025" lon="6.31506">
        <ele>309.60000610352</ele>
        <time>2021-12-31T13:44:37.000Z</time>
      </trkpt>
      <trkpt lat="45.61035" lon="6.31519">
        <ele>310</ele>
        <time>2021-12-31T13:44:40.000Z</time>
      </trkpt>
      <trkpt lat="45.61039" lon="6.31522">
        <ele>310.20001220703</ele>
        <time>2021-12-31T13:44:41.000Z</time>
      </trkpt>
      <trkpt lat="45.61043" lon="6.31525">
        <ele>310.39999389648</ele>
        <time>2021-12-31T13:44:42.000Z</time>
      </trkpt>
      <trkpt lat="45.61047" lon="6.31531">
        <ele>310.60000610352</ele>
        <time>2021-12-31T13:44:43.000Z</time>
      </trkpt>
      <trkpt lat="45.61055" lon="6.3154">
        <ele>311.20001220703</ele>
        <time>2021-12-31T13:44:45.000Z</time>
      </trkpt>
      <trkpt lat="45.61063" lon="6.31548">
        <ele>311.60000610352</ele>
        <time>2021-12-31T13:44:47.000Z</time>
      </trkpt>
      <trkpt lat="45.61082" lon="6.31568">
        <ele>312.60000610352</ele>
        <time>2021-12-31T13:44:52.000Z</time>
      </trkpt>
      <trkpt lat="45.6109" lon="6.31576">
        <ele>312.79998779297</ele>
        <time>2021-12-31T13:44:54.000Z</time>
      </trkpt>
      <trkpt lat="45.61101" lon="6.31589">
        <ele>313.20001220703</ele>
        <time>2021-12-31T13:44:57.000Z</time>
      </trkpt>
      <trkpt lat="45.61107" lon="6.31597">
        <ele>313.60000610352</ele>
        <time>2021-12-31T13:44:59.000Z</time>
      </trkpt>
      <trkpt lat="45.61109" lon="6.31601">
        <ele>313.60000610352</ele>
        <time>2021-12-31T13:45:00.000Z</time>
      </trkpt>
      <trkpt lat="45.61112" lon="6.31604">
        <ele>313.79998779297</ele>
        <time>2021-12-31T13:45:01.000Z</time>
      </trkpt>
      <trkpt lat="45.61126" lon="6.31621">
        <ele>314.20001220703</ele>
        <time>2021-12-31T13:45:05.000Z</time>
      </trkpt>
      <trkpt lat="45.61133" lon="6.31629">
        <ele>314.60000610352</ele>
        <time>2021-12-31T13:45:07.000Z</time>
      </trkpt>
      <trkpt lat="45.61153" lon="6.31651">
        <ele>315</ele>
        <time>2021-12-31T13:45:12.000Z</time>
      </trkpt>
      <trkpt lat="45.61166" lon="6.31665">
        <ele>315.60000610352</ele>
        <time>2021-12-31T13:45:15.000Z</time>
      </trkpt>
      <trkpt lat="45.61175" lon="6.31674">
        <ele>315.79998779297</ele>
        <time>2021-12-31T13:45:17.000Z</time>
      </trkpt>
      <trkpt lat="45.61184" lon="6.31681">
        <ele>316.20001220703</ele>
        <time>2021-12-31T13:45:19.000Z</time>
      </trkpt>
      <trkpt lat="45.61188" lon="6.31684">
        <ele>316.20001220703</ele>
        <time>2021-12-31T13:45:20.000Z</time>
      </trkpt>
      <trkpt lat="45.61209" lon="6.31693">
        <ele>316.60000610352</ele>
        <time>2021-12-31T13:45:24.000Z</time>
      </trkpt>
      <trkpt lat="45.61243" lon="6.31702">
        <ele>317</ele>
        <time>2021-12-31T13:45:31.000Z</time>
      </trkpt>
      <trkpt lat="45.61293" lon="6.31709">
        <ele>317.20001220703</ele>
        <time>2021-12-31T13:45:41.000Z</time>
      </trkpt>
      <trkpt lat="45.6131" lon="6.31712">
        <ele>317.39999389648</ele>
        <time>2021-12-31T13:45:44.000Z</time>
      </trkpt>
      <trkpt lat="45.6132" lon="6.31714">
        <ele>317.60000610352</ele>
        <time>2021-12-31T13:45:46.000Z</time>
      </trkpt>
      <trkpt lat="45.61346" lon="6.31718">
        <ele>318</ele>
        <time>2021-12-31T13:45:51.000Z</time>
      </trkpt>
      <trkpt lat="45.61378" lon="6.31722">
        <ele>318.60000610352</ele>
        <time>2021-12-31T13:45:57.000Z</time>
      </trkpt>
      <trkpt lat="45.61394" lon="6.31724">
        <ele>319</ele>
        <time>2021-12-31T13:46:00.000Z</time>
      </trkpt>
      <trkpt lat="45.61427" lon="6.3173">
        <ele>319.39999389648</ele>
        <time>2021-12-31T13:46:06.000Z</time>
      </trkpt>
      <trkpt lat="45.61436" lon="6.31733">
        <ele>319.60000610352</ele>
        <time>2021-12-31T13:46:08.000Z</time>
      </trkpt>
      <trkpt lat="45.61441" lon="6.31735">
        <ele>319.60000610352</ele>
        <time>2021-12-31T13:46:09.000Z</time>
      </trkpt>
      <trkpt lat="45.6145" lon="6.31742">
        <ele>319.79998779297</ele>
        <time>2021-12-31T13:46:11.000Z</time>
      </trkpt>
      <trkpt lat="45.6146" lon="6.31751">
        <ele>319.79998779297</ele>
        <time>2021-12-31T13:46:13.000Z</time>
      </trkpt>
      <trkpt lat="45.61466" lon="6.3176">
        <ele>320</ele>
        <time>2021-12-31T13:46:15.000Z</time>
      </trkpt>
      <trkpt lat="45.61474" lon="6.31779">
        <ele>320.39999389648</ele>
        <time>2021-12-31T13:46:18.000Z</time>
      </trkpt>
      <trkpt lat="45.61478" lon="6.31791">
        <ele>320.60000610352</ele>
        <time>2021-12-31T13:46:20.000Z</time>
      </trkpt>
      <trkpt lat="45.6148" lon="6.31797">
        <ele>320.79998779297</ele>
        <time>2021-12-31T13:46:21.000Z</time>
      </trkpt>
      <trkpt lat="45.61483" lon="6.31825">
        <ele>321.39999389648</ele>
        <time>2021-12-31T13:46:25.000Z</time>
      </trkpt>
      <trkpt lat="45.61485" lon="6.31838">
        <ele>321.79998779297</ele>
        <time>2021-12-31T13:46:27.000Z</time>
      </trkpt>
      <trkpt lat="45.61491" lon="6.31872">
        <ele>323</ele>
        <time>2021-12-31T13:46:32.000Z</time>
      </trkpt>
      <trkpt lat="45.61494" lon="6.31885">
        <ele>323.20001220703</ele>
        <time>2021-12-31T13:46:34.000Z</time>
      </trkpt>
      <trkpt lat="45.61505" lon="6.31926">
        <ele>324</ele>
        <time>2021-12-31T13:46:40.000Z</time>
      </trkpt>
      <trkpt lat="45.61511" lon="6.31946">
        <ele>324.20001220703</ele>
        <time>2021-12-31T13:46:43.000Z</time>
      </trkpt>
      <trkpt lat="45.61531" lon="6.32005">
        <ele>324.79998779297</ele>
        <time>2021-12-31T13:46:52.000Z</time>
      </trkpt>
      <trkpt lat="45.61533" lon="6.32012">
        <ele>325</ele>
        <time>2021-12-31T13:46:53.000Z</time>
      </trkpt>
      <trkpt lat="45.61538" lon="6.32031">
        <ele>325</ele>
        <time>2021-12-31T13:46:56.000Z</time>
      </trkpt>
      <trkpt lat="45.61546" lon="6.32067">
        <ele>325.39999389648</ele>
        <time>2021-12-31T13:47:01.000Z</time>
      </trkpt>
      <trkpt lat="45.6155" lon="6.32095">
        <ele>325.60000610352</ele>
        <time>2021-12-31T13:47:05.000Z</time>
      </trkpt>
      <trkpt lat="45.61551" lon="6.32111">
        <ele>326</ele>
        <time>2021-12-31T13:47:07.000Z</time>
      </trkpt>
      <trkpt lat="45.61552" lon="6.32118">
        <ele>326</ele>
        <time>2021-12-31T13:47:08.000Z</time>
      </trkpt>
      <trkpt lat="45.61554" lon="6.3215">
        <ele>327</ele>
        <time>2021-12-31T13:47:13.000Z</time>
      </trkpt>
      <trkpt lat="45.61555" lon="6.32164">
        <ele>327.79998779297</ele>
        <time>2021-12-31T13:47:15.000Z</time>
      </trkpt>
      <trkpt lat="45.61555" lon="6.32176">
        <ele>328.39999389648</ele>
        <time>2021-12-31T13:47:17.000Z</time>
      </trkpt>
      <trkpt lat="45.61556" lon="6.32207">
        <ele>329.39999389648</ele>
        <time>2021-12-31T13:47:22.000Z</time>
      </trkpt>
      <trkpt lat="45.61555" lon="6.32213">
        <ele>329.60000610352</ele>
        <time>2021-12-31T13:47:23.000Z</time>
      </trkpt>
      <trkpt lat="45.61556" lon="6.32233">
        <ele>330.60000610352</ele>
        <time>2021-12-31T13:47:26.000Z</time>
      </trkpt>
      <trkpt lat="45.61557" lon="6.32238">
        <ele>330.79998779297</ele>
        <time>2021-12-31T13:47:27.000Z</time>
      </trkpt>
      <trkpt lat="45.61558" lon="6.32244">
        <ele>331</ele>
        <time>2021-12-31T13:47:28.000Z</time>
      </trkpt>
      <trkpt lat="45.61561" lon="6.32284">
        <ele>332.20001220703</ele>
        <time>2021-12-31T13:47:34.000Z</time>
      </trkpt>
      <trkpt lat="45.61563" lon="6.32308">
        <ele>333</ele>
        <time>2021-12-31T13:47:38.000Z</time>
      </trkpt>
      <trkpt lat="45.61564" lon="6.32315">
        <ele>333.39999389648</ele>
        <time>2021-12-31T13:47:39.000Z</time>
      </trkpt>
      <trkpt lat="45.61568" lon="6.32362">
        <ele>334.39999389648</ele>
        <time>2021-12-31T13:47:46.000Z</time>
      </trkpt>
      <trkpt lat="45.61568" lon="6.32368">
        <ele>334.39999389648</ele>
        <time>2021-12-31T13:47:47.000Z</time>
      </trkpt>
      <trkpt lat="45.61574" lon="6.32436">
        <ele>334.20001220703</ele>
        <time>2021-12-31T13:47:55.000Z</time>
      </trkpt>
      <trkpt lat="45.61577" lon="6.32488">
        <ele>333.39999389648</ele>
        <time>2021-12-31T13:48:01.000Z</time>
      </trkpt>
      <trkpt lat="45.61579" lon="6.32519">
        <ele>332.79998779297</ele>
        <time>2021-12-31T13:48:04.000Z</time>
      </trkpt>
      <trkpt lat="45.61583" lon="6.32561">
        <ele>332.20001220703</ele>
        <time>2021-12-31T13:48:08.000Z</time>
      </trkpt>
      <trkpt lat="45.61586" lon="6.32604">
        <ele>331.39999389648</ele>
        <time>2021-12-31T13:48:12.000Z</time>
      </trkpt>
      <trkpt lat="45.61587" lon="6.32615">
        <ele>331</ele>
        <time>2021-12-31T13:48:13.000Z</time>
      </trkpt>
      <trkpt lat="45.6159" lon="6.32673">
        <ele>329.79998779297</ele>
        <time>2021-12-31T13:48:18.000Z</time>
      </trkpt>
      <trkpt lat="45.61594" lon="6.32709">
        <ele>329.20001220703</ele>
        <time>2021-12-31T13:48:21.000Z</time>
      </trkpt>
      <trkpt lat="45.616" lon="6.32731">
        <ele>328.39999389648</ele>
        <time>2021-12-31T13:48:23.000Z</time>
      </trkpt>
      <trkpt lat="45.61609" lon="6.32751">
        <ele>327.79998779297</ele>
        <time>2021-12-31T13:48:25.000Z</time>
      </trkpt>
      <trkpt lat="45.61614" lon="6.32762">
        <ele>327.39999389648</ele>
        <time>2021-12-31T13:48:26.000Z</time>
      </trkpt>
      <trkpt lat="45.61642" lon="6.32811">
        <ele>326</ele>
        <time>2021-12-31T13:48:31.000Z</time>
      </trkpt>
      <trkpt lat="45.61658" lon="6.32839">
        <ele>324.79998779297</ele>
        <time>2021-12-31T13:48:34.000Z</time>
      </trkpt>
      <trkpt lat="45.61671" lon="6.3286">
        <ele>323.60000610352</ele>
        <time>2021-12-31T13:48:36.000Z</time>
      </trkpt>
      <trkpt lat="45.61689" lon="6.32888">
        <ele>322.39999389648</ele>
        <time>2021-12-31T13:48:39.000Z</time>
      </trkpt>
      <trkpt lat="45.61695" lon="6.32897">
        <ele>322</ele>
        <time>2021-12-31T13:48:40.000Z</time>
      </trkpt>
      <trkpt lat="45.61701" lon="6.32905">
        <ele>321.20001220703</ele>
        <time>2021-12-31T13:48:41.000Z</time>
      </trkpt>
      <trkpt lat="45.61714" lon="6.32927">
        <ele>319.79998779297</ele>
        <time>2021-12-31T13:48:44.000Z</time>
      </trkpt>
      <trkpt lat="45.61723" lon="6.3294">
        <ele>318.60000610352</ele>
        <time>2021-12-31T13:48:46.000Z</time>
      </trkpt>
      <trkpt lat="45.61728" lon="6.32943">
        <ele>318.39999389648</ele>
        <time>2021-12-31T13:48:47.000Z</time>
      </trkpt>
      <trkpt lat="45.61732" lon="6.32942">
        <ele>318</ele>
        <time>2021-12-31T13:48:48.000Z</time>
      </trkpt>
      <trkpt lat="45.61744" lon="6.32933">
        <ele>317.20001220703</ele>
        <time>2021-12-31T13:48:50.000Z</time>
      </trkpt>
      <trkpt lat="45.61768" lon="6.32907">
        <ele>316.20001220703</ele>
        <time>2021-12-31T13:48:54.000Z</time>
      </trkpt>
      <trkpt lat="45.61774" lon="6.329">
        <ele>315.79998779297</ele>
        <time>2021-12-31T13:48:55.000Z</time>
      </trkpt>
      <trkpt lat="45.61792" lon="6.32881">
        <ele>315</ele>
        <time>2021-12-31T13:48:58.000Z</time>
      </trkpt>
      <trkpt lat="45.61819" lon="6.32852">
        <ele>313.20001220703</ele>
        <time>2021-12-31T13:49:02.000Z</time>
      </trkpt>
      <trkpt lat="45.61851" lon="6.32819">
        <ele>312.20001220703</ele>
        <time>2021-12-31T13:49:07.000Z</time>
      </trkpt>
      <trkpt lat="45.61859" lon="6.32812">
        <ele>312</ele>
        <time>2021-12-31T13:49:08.000Z</time>
      </trkpt>
      <trkpt lat="45.61891" lon="6.32782">
        <ele>311.20001220703</ele>
        <time>2021-12-31T13:49:13.000Z</time>
      </trkpt>
      <trkpt lat="45.61909" lon="6.32766">
        <ele>310.79998779297</ele>
        <time>2021-12-31T13:49:16.000Z</time>
      </trkpt>
      <trkpt lat="45.61929" lon="6.32747">
        <ele>310.20001220703</ele>
        <time>2021-12-31T13:49:19.000Z</time>
      </trkpt>
      <trkpt lat="45.61951" lon="6.32723">
        <ele>309.79998779297</ele>
        <time>2021-12-31T13:49:23.000Z</time>
      </trkpt>
      <trkpt lat="45.61978" lon="6.32695">
        <ele>309.79998779297</ele>
        <time>2021-12-31T13:49:28.000Z</time>
      </trkpt>
      <trkpt lat="45.62021" lon="6.32652">
        <ele>309.79998779297</ele>
        <time>2021-12-31T13:49:36.000Z</time>
      </trkpt>
      <trkpt lat="45.6206" lon="6.32608">
        <ele>309.79998779297</ele>
        <time>2021-12-31T13:49:44.000Z</time>
      </trkpt>
      <trkpt lat="45.62107" lon="6.32558">
        <ele>309.39999389648</ele>
        <time>2021-12-31T13:49:53.000Z</time>
      </trkpt>
      <trkpt lat="45.62128" lon="6.32538">
        <ele>309.60000610352</ele>
        <time>2021-12-31T13:49:57.000Z</time>
      </trkpt>
      <trkpt lat="45.62149" lon="6.32517">
        <ele>309.60000610352</ele>
        <time>2021-12-31T13:50:01.000Z</time>
      </trkpt>
      <trkpt lat="45.62189" lon="6.32476">
        <ele>309.60000610352</ele>
        <time>2021-12-31T13:50:09.000Z</time>
      </trkpt>
      <trkpt lat="45.62234" lon="6.32432">
        <ele>309.20001220703</ele>
        <time>2021-12-31T13:50:18.000Z</time>
      </trkpt>
      <trkpt lat="45.62266" lon="6.32399">
        <ele>309.39999389648</ele>
        <time>2021-12-31T13:50:24.000Z</time>
      </trkpt>
      <trkpt lat="45.62303" lon="6.32364">
        <ele>309.20001220703</ele>
        <time>2021-12-31T13:50:31.000Z</time>
      </trkpt>
      <trkpt lat="45.62314" lon="6.32353">
        <ele>309.20001220703</ele>
        <time>2021-12-31T13:50:33.000Z</time>
      </trkpt>
      <trkpt lat="45.62353" lon="6.32312">
        <ele>309</ele>
        <time>2021-12-31T13:50:41.000Z</time>
      </trkpt>
      <trkpt lat="45.62388" lon="6.32275">
        <ele>309</ele>
        <time>2021-12-31T13:50:48.000Z</time>
      </trkpt>
      <trkpt lat="45.62398" lon="6.32268">
        <ele>309</ele>
        <time>2021-12-31T13:50:50.000Z</time>
      </trkpt>
      <trkpt lat="45.6241" lon="6.32265">
        <ele>308.79998779297</ele>
        <time>2021-12-31T13:50:52.000Z</time>
      </trkpt>
      <trkpt lat="45.62416" lon="6.32265">
        <ele>308.79998779297</ele>
        <time>2021-12-31T13:50:53.000Z</time>
      </trkpt>
      <trkpt lat="45.62422" lon="6.32264">
        <ele>308.79998779297</ele>
        <time>2021-12-31T13:50:54.000Z</time>
      </trkpt>
      <trkpt lat="45.62433" lon="6.32256">
        <ele>308.79998779297</ele>
        <time>2021-12-31T13:50:56.000Z</time>
      </trkpt>
      <trkpt lat="45.62439" lon="6.32234">
        <ele>308.79998779297</ele>
        <time>2021-12-31T13:50:59.000Z</time>
      </trkpt>
      <trkpt lat="45.62447" lon="6.3222">
        <ele>309</ele>
        <time>2021-12-31T13:51:01.000Z</time>
      </trkpt>
      <trkpt lat="45.62451" lon="6.32216">
        <ele>309</ele>
        <time>2021-12-31T13:51:02.000Z</time>
      </trkpt>
      <trkpt lat="45.62464" lon="6.32202">
        <ele>309</ele>
        <time>2021-12-31T13:51:05.000Z</time>
      </trkpt>
      <trkpt lat="45.62478" lon="6.32191">
        <ele>309</ele>
        <time>2021-12-31T13:51:08.000Z</time>
      </trkpt>
      <trkpt lat="45.62494" lon="6.32176">
        <ele>309.20001220703</ele>
        <time>2021-12-31T13:51:12.000Z</time>
      </trkpt>
      <trkpt lat="45.62497" lon="6.32172">
        <ele>309.20001220703</ele>
        <time>2021-12-31T13:51:13.000Z</time>
      </trkpt>
      <trkpt lat="45.62521" lon="6.32145">
        <ele>310.39999389648</ele>
        <time>2021-12-31T13:51:19.000Z</time>
      </trkpt>
      <trkpt lat="45.62551" lon="6.3211">
        <ele>311.20001220703</ele>
        <time>2021-12-31T13:51:27.000Z</time>
      </trkpt>
      <trkpt lat="45.62559" lon="6.32102">
        <ele>311.39999389648</ele>
        <time>2021-12-31T13:51:29.000Z</time>
      </trkpt>
      <trkpt lat="45.6259" lon="6.3207">
        <ele>312.39999389648</ele>
        <time>2021-12-31T13:51:37.000Z</time>
      </trkpt>
      <trkpt lat="45.62594" lon="6.32066">
        <ele>312.39999389648</ele>
        <time>2021-12-31T13:51:38.000Z</time>
      </trkpt>
      <trkpt lat="45.62626" lon="6.32034">
        <ele>312.60000610352</ele>
        <time>2021-12-31T13:51:46.000Z</time>
      </trkpt>
      <trkpt lat="45.62631" lon="6.32031">
        <ele>312.39999389648</ele>
        <time>2021-12-31T13:51:49.000Z</time>
      </trkpt>
      <trkpt lat="45.62632" lon="6.3203">
        <ele>312</ele>
        <time>2021-12-31T13:51:50.000Z</time>
      </trkpt>
      <trkpt lat="45.62633" lon="6.3203">
        <ele>311.39999389648</ele>
        <time>2021-12-31T13:51:54.000Z</time>
      </trkpt>
      <trkpt lat="45.62633" lon="6.3203">
        <ele>311.20001220703</ele>
        <time>2021-12-31T13:51:55.000Z</time>
      </trkpt>
      <trkpt lat="45.62633" lon="6.3203">
        <ele>311</ele>
        <time>2021-12-31T13:51:57.000Z</time>
      </trkpt>
      <trkpt lat="45.62635" lon="6.3203">
        <ele>310.79998779297</ele>
        <time>2021-12-31T13:52:01.000Z</time>
      </trkpt>
      <trkpt lat="45.62641" lon="6.32028">
        <ele>310.79998779297</ele>
        <time>2021-12-31T13:52:03.000Z</time>
      </trkpt>
      <trkpt lat="45.62649" lon="6.32025">
        <ele>310.79998779297</ele>
        <time>2021-12-31T13:52:05.000Z</time>
      </trkpt>
      <trkpt lat="45.62659" lon="6.32015">
        <ele>310.79998779297</ele>
        <time>2021-12-31T13:52:07.000Z</time>
      </trkpt>
      <trkpt lat="45.62672" lon="6.31989">
        <ele>310.79998779297</ele>
        <time>2021-12-31T13:52:11.000Z</time>
      </trkpt>
      <trkpt lat="45.62681" lon="6.31977">
        <ele>310.60000610352</ele>
        <time>2021-12-31T13:52:13.000Z</time>
      </trkpt>
      <trkpt lat="45.62702" lon="6.31953">
        <ele>310.39999389648</ele>
        <time>2021-12-31T13:52:17.000Z</time>
      </trkpt>
      <trkpt lat="45.62717" lon="6.31937">
        <ele>310.20001220703</ele>
        <time>2021-12-31T13:52:20.000Z</time>
      </trkpt>
      <trkpt lat="45.62746" lon="6.31907">
        <ele>309.39999389648</ele>
        <time>2021-12-31T13:52:26.000Z</time>
      </trkpt>
      <trkpt lat="45.62748" lon="6.319">
        <ele>309.39999389648</ele>
        <time>2021-12-31T13:52:27.000Z</time>
      </trkpt>
      <trkpt lat="45.62748" lon="6.31894">
        <ele>309.39999389648</ele>
        <time>2021-12-31T13:52:28.000Z</time>
      </trkpt>
      <trkpt lat="45.62742" lon="6.31879">
        <ele>309.39999389648</ele>
        <time>2021-12-31T13:52:30.000Z</time>
      </trkpt>
      <trkpt lat="45.62733" lon="6.31865">
        <ele>309.39999389648</ele>
        <time>2021-12-31T13:52:32.000Z</time>
      </trkpt>
      <trkpt lat="45.62728" lon="6.31861">
        <ele>309.20001220703</ele>
        <time>2021-12-31T13:52:33.000Z</time>
      </trkpt>
      <trkpt lat="45.62724" lon="6.31857">
        <ele>309</ele>
        <time>2021-12-31T13:52:34.000Z</time>
      </trkpt>
      <trkpt lat="45.62696" lon="6.31841">
        <ele>308.39999389648</ele>
        <time>2021-12-31T13:52:39.000Z</time>
      </trkpt>
      <trkpt lat="45.62684" lon="6.31833">
        <ele>308.20001220703</ele>
        <time>2021-12-31T13:52:41.000Z</time>
      </trkpt>
      <trkpt lat="45.62636" lon="6.31805">
        <ele>308</ele>
        <time>2021-12-31T13:52:50.000Z</time>
      </trkpt>
      <trkpt lat="45.62595" lon="6.3178">
        <ele>307.39999389648</ele>
        <time>2021-12-31T13:52:58.000Z</time>
      </trkpt>
      <trkpt lat="45.62579" lon="6.31765">
        <ele>307.60000610352</ele>
        <time>2021-12-31T13:53:01.000Z</time>
      </trkpt>
      <trkpt lat="45.62568" lon="6.31747">
        <ele>307.60000610352</ele>
        <time>2021-12-31T13:53:03.000Z</time>
      </trkpt>
      <trkpt lat="45.62546" lon="6.317">
        <ele>307.39999389648</ele>
        <time>2021-12-31T13:53:11.000Z</time>
      </trkpt>
      <trkpt lat="45.6253" lon="6.31668">
        <ele>307.20001220703</ele>
        <time>2021-12-31T13:53:16.000Z</time>
      </trkpt>
      <trkpt lat="45.62526" lon="6.31662">
        <ele>307.20001220703</ele>
        <time>2021-12-31T13:53:17.000Z</time>
      </trkpt>
      <trkpt lat="45.62497" lon="6.31601">
        <ele>306.79998779297</ele>
        <time>2021-12-31T13:53:25.000Z</time>
      </trkpt>
      <trkpt lat="45.62476" lon="6.31556">
        <ele>306.60000610352</ele>
        <time>2021-12-31T13:53:32.000Z</time>
      </trkpt>
      <trkpt lat="45.62469" lon="6.31543">
        <ele>306.60000610352</ele>
        <time>2021-12-31T13:53:34.000Z</time>
      </trkpt>
      <trkpt lat="45.62459" lon="6.31533">
        <ele>306.79998779297</ele>
        <time>2021-12-31T13:53:37.000Z</time>
      </trkpt>
      <trkpt lat="45.62455" lon="6.31531">
        <ele>306.79998779297</ele>
        <time>2021-12-31T13:53:38.000Z</time>
      </trkpt>
      <trkpt lat="45.62426" lon="6.31524">
        <ele>306.60000610352</ele>
        <time>2021-12-31T13:53:42.000Z</time>
      </trkpt>
      <trkpt lat="45.62417" lon="6.31519">
        <ele>306.39999389648</ele>
        <time>2021-12-31T13:53:44.000Z</time>
      </trkpt>
      <trkpt lat="45.62408" lon="6.31507">
        <ele>306.39999389648</ele>
        <time>2021-12-31T13:53:46.000Z</time>
      </trkpt>
      <trkpt lat="45.62383" lon="6.31458">
        <ele>306.39999389648</ele>
        <time>2021-12-31T13:53:55.000Z</time>
      </trkpt>
      <trkpt lat="45.62356" lon="6.31404">
        <ele>306.39999389648</ele>
        <time>2021-12-31T13:54:02.000Z</time>
      </trkpt>
      <trkpt lat="45.62343" lon="6.31378">
        <ele>306</ele>
        <time>2021-12-31T13:54:06.000Z</time>
      </trkpt>
      <trkpt lat="45.62311" lon="6.31312">
        <ele>306.20001220703</ele>
        <time>2021-12-31T13:54:16.000Z</time>
      </trkpt>
      <trkpt lat="45.62305" lon="6.313">
        <ele>306.20001220703</ele>
        <time>2021-12-31T13:54:18.000Z</time>
      </trkpt>
      <trkpt lat="45.62268" lon="6.31227">
        <ele>306.20001220703</ele>
        <time>2021-12-31T13:54:29.000Z</time>
      </trkpt>
      <trkpt lat="45.62268" lon="6.31227">
        <ele>306.20001220703</ele>
        <time>2021-12-31T13:54:30.000Z</time>
      </trkpt>
      <trkpt lat="45.62237" lon="6.31167">
        <ele>305.79998779297</ele>
        <time>2021-12-31T13:54:38.000Z</time>
      </trkpt>
      <trkpt lat="45.62204" lon="6.311">
        <ele>305.79998779297</ele>
        <time>2021-12-31T13:54:48.000Z</time>
      </trkpt>
      <trkpt lat="45.62199" lon="6.31092">
        <ele>305.79998779297</ele>
        <time>2021-12-31T13:54:49.000Z</time>
      </trkpt>
      <trkpt lat="45.62173" lon="6.3104">
        <ele>305.39999389648</ele>
        <time>2021-12-31T13:54:58.000Z</time>
      </trkpt>
      <trkpt lat="45.62155" lon="6.31006">
        <ele>305.39999389648</ele>
        <time>2021-12-31T13:55:03.000Z</time>
      </trkpt>
      <trkpt lat="45.6215" lon="6.30997">
        <ele>305.39999389648</ele>
        <time>2021-12-31T13:55:05.000Z</time>
      </trkpt>
      <trkpt lat="45.6215" lon="6.30993">
        <ele>305.39999389648</ele>
        <time>2021-12-31T13:55:07.000Z</time>
      </trkpt>
      <trkpt lat="45.62159" lon="6.3098">
        <ele>305.20001220703</ele>
        <time>2021-12-31T13:55:10.000Z</time>
      </trkpt>
      <trkpt lat="45.62166" lon="6.30972">
        <ele>305.20001220703</ele>
        <time>2021-12-31T13:55:12.000Z</time>
      </trkpt>
      <trkpt lat="45.62184" lon="6.30953">
        <ele>305</ele>
        <time>2021-12-31T13:55:15.000Z</time>
      </trkpt>
      <trkpt lat="45.6219" lon="6.30947">
        <ele>305</ele>
        <time>2021-12-31T13:55:16.000Z</time>
      </trkpt>
      <trkpt lat="45.6222" lon="6.30913">
        <ele>305</ele>
        <time>2021-12-31T13:55:22.000Z</time>
      </trkpt>
      <trkpt lat="45.6222" lon="6.30913">
        <ele>305</ele>
        <time>2021-12-31T13:55:23.000Z</time>
      </trkpt>
      <trkpt lat="45.62225" lon="6.30907">
        <ele>305</ele>
        <time>2021-12-31T13:55:24.000Z</time>
      </trkpt>
      <trkpt lat="45.62245" lon="6.30886">
        <ele>305</ele>
        <time>2021-12-31T13:55:27.000Z</time>
      </trkpt>
      <trkpt lat="45.62256" lon="6.30874">
        <ele>305</ele>
        <time>2021-12-31T13:55:29.000Z</time>
      </trkpt>
      <trkpt lat="45.62295" lon="6.30832">
        <ele>305.39999389648</ele>
        <time>2021-12-31T13:55:37.000Z</time>
      </trkpt>
      <trkpt lat="45.62325" lon="6.30793">
        <ele>305</ele>
        <time>2021-12-31T13:55:44.000Z</time>
      </trkpt>
      <trkpt lat="45.62362" lon="6.3075">
        <ele>304.60000610352</ele>
        <time>2021-12-31T13:55:52.000Z</time>
      </trkpt>
      <trkpt lat="45.62395" lon="6.30706">
        <ele>304.60000610352</ele>
        <time>2021-12-31T13:56:00.000Z</time>
      </trkpt>
      <trkpt lat="45.62426" lon="6.30669">
        <ele>304.60000610352</ele>
        <time>2021-12-31T13:56:07.000Z</time>
      </trkpt>
      <trkpt lat="45.62463" lon="6.30621">
        <ele>304.60000610352</ele>
        <time>2021-12-31T13:56:16.000Z</time>
      </trkpt>
      <trkpt lat="45.62491" lon="6.3058">
        <ele>304.39999389648</ele>
        <time>2021-12-31T13:56:23.000Z</time>
      </trkpt>
      <trkpt lat="45.625" lon="6.3057">
        <ele>304.39999389648</ele>
        <time>2021-12-31T13:56:25.000Z</time>
      </trkpt>
      <trkpt lat="45.6252" lon="6.30548">
        <ele>304.79998779297</ele>
        <time>2021-12-31T13:56:30.000Z</time>
      </trkpt>
      <trkpt lat="45.62541" lon="6.30526">
        <ele>305.39999389648</ele>
        <time>2021-12-31T13:56:36.000Z</time>
      </trkpt>
      <trkpt lat="45.62547" lon="6.30519">
        <ele>305.79998779297</ele>
        <time>2021-12-31T13:56:38.000Z</time>
      </trkpt>
      <trkpt lat="45.62568" lon="6.30499">
        <ele>306.79998779297</ele>
        <time>2021-12-31T13:56:44.000Z</time>
      </trkpt>
      <trkpt lat="45.62571" lon="6.30496">
        <ele>306.79998779297</ele>
        <time>2021-12-31T13:56:45.000Z</time>
      </trkpt>
      <trkpt lat="45.62598" lon="6.30472">
        <ele>308</ele>
        <time>2021-12-31T13:56:52.000Z</time>
      </trkpt>
      <trkpt lat="45.62602" lon="6.30468">
        <ele>308</ele>
        <time>2021-12-31T13:56:53.000Z</time>
      </trkpt>
      <trkpt lat="45.62627" lon="6.30438">
        <ele>308.79998779297</ele>
        <time>2021-12-31T13:57:00.000Z</time>
      </trkpt>
      <trkpt lat="45.62641" lon="6.30413">
        <ele>309</ele>
        <time>2021-12-31T13:57:05.000Z</time>
      </trkpt>
      <trkpt lat="45.62648" lon="6.30403">
        <ele>309.39999389648</ele>
        <time>2021-12-31T13:57:07.000Z</time>
      </trkpt>
      <trkpt lat="45.62667" lon="6.30377">
        <ele>310</ele>
        <time>2021-12-31T13:57:13.000Z</time>
      </trkpt>
      <trkpt lat="45.6268" lon="6.3036">
        <ele>310.39999389648</ele>
        <time>2021-12-31T13:57:17.000Z</time>
      </trkpt>
      <trkpt lat="45.62686" lon="6.30352">
        <ele>310.39999389648</ele>
        <time>2021-12-31T13:57:19.000Z</time>
      </trkpt>
      <trkpt lat="45.62698" lon="6.30341">
        <ele>310.39999389648</ele>
        <time>2021-12-31T13:57:22.000Z</time>
      </trkpt>
      <trkpt lat="45.62707" lon="6.30337">
        <ele>310.39999389648</ele>
        <time>2021-12-31T13:57:24.000Z</time>
      </trkpt>
      <trkpt lat="45.62717" lon="6.30335">
        <ele>310.20001220703</ele>
        <time>2021-12-31T13:57:26.000Z</time>
      </trkpt>
      <trkpt lat="45.6273" lon="6.30324">
        <ele>309.79998779297</ele>
        <time>2021-12-31T13:57:29.000Z</time>
      </trkpt>
      <trkpt lat="45.62748" lon="6.30297">
        <ele>309.79998779297</ele>
        <time>2021-12-31T13:57:35.000Z</time>
      </trkpt>
      <trkpt lat="45.62774" lon="6.30261">
        <ele>310.39999389648</ele>
        <time>2021-12-31T13:57:43.000Z</time>
      </trkpt>
      <trkpt lat="45.62786" lon="6.30245">
        <ele>310.79998779297</ele>
        <time>2021-12-31T13:57:48.000Z</time>
      </trkpt>
      <trkpt lat="45.62789" lon="6.30242">
        <ele>311</ele>
        <time>2021-12-31T13:57:50.000Z</time>
      </trkpt>
      <trkpt lat="45.6279" lon="6.3024">
        <ele>311.20001220703</ele>
        <time>2021-12-31T13:57:51.000Z</time>
      </trkpt>
      <trkpt lat="45.6279" lon="6.30235">
        <ele>311.60000610352</ele>
        <time>2021-12-31T13:57:52.000Z</time>
      </trkpt>
      <trkpt lat="45.62782" lon="6.30217">
        <ele>312.20001220703</ele>
        <time>2021-12-31T13:57:56.000Z</time>
      </trkpt>
      <trkpt lat="45.62767" lon="6.30179">
        <ele>313.39999389648</ele>
        <time>2021-12-31T13:58:04.000Z</time>
      </trkpt>
      <trkpt lat="45.62756" lon="6.30148">
        <ele>314.60000610352</ele>
        <time>2021-12-31T13:58:11.000Z</time>
      </trkpt>
      <trkpt lat="45.62755" lon="6.30144">
        <ele>314.79998779297</ele>
        <time>2021-12-31T13:58:12.000Z</time>
      </trkpt>
      <trkpt lat="45.62745" lon="6.3011">
        <ele>315.60000610352</ele>
        <time>2021-12-31T13:58:19.000Z</time>
      </trkpt>
      <trkpt lat="45.62741" lon="6.30096">
        <ele>316.20001220703</ele>
        <time>2021-12-31T13:58:22.000Z</time>
      </trkpt>
      <trkpt lat="45.62737" lon="6.30082">
        <ele>316.79998779297</ele>
        <time>2021-12-31T13:58:25.000Z</time>
      </trkpt>
      <trkpt lat="45.62726" lon="6.30041">
        <ele>317.79998779297</ele>
        <time>2021-12-31T13:58:33.000Z</time>
      </trkpt>
      <trkpt lat="45.62725" lon="6.30036">
        <ele>317.79998779297</ele>
        <time>2021-12-31T13:58:34.000Z</time>
      </trkpt>
      <trkpt lat="45.62709" lon="6.29987">
        <ele>318</ele>
        <time>2021-12-31T13:58:43.000Z</time>
      </trkpt>
      <trkpt lat="45.62694" lon="6.29936">
        <ele>318</ele>
        <time>2021-12-31T13:58:52.000Z</time>
      </trkpt>
      <trkpt lat="45.62686" lon="6.2991">
        <ele>318.39999389648</ele>
        <time>2021-12-31T13:58:57.000Z</time>
      </trkpt>
      <trkpt lat="45.62681" lon="6.29893">
        <ele>318.60000610352</ele>
        <time>2021-12-31T13:59:00.000Z</time>
      </trkpt>
      <trkpt lat="45.62677" lon="6.29876">
        <ele>318.79998779297</ele>
        <time>2021-12-31T13:59:03.000Z</time>
      </trkpt>
      <trkpt lat="45.62675" lon="6.29864">
        <ele>318.79998779297</ele>
        <time>2021-12-31T13:59:05.000Z</time>
      </trkpt>
      <trkpt lat="45.62674" lon="6.29857">
        <ele>318.79998779297</ele>
        <time>2021-12-31T13:59:06.000Z</time>
      </trkpt>
      <trkpt lat="45.62671" lon="6.29846">
        <ele>318.79998779297</ele>
        <time>2021-12-31T13:59:08.000Z</time>
      </trkpt>
      <trkpt lat="45.62674" lon="6.29836">
        <ele>318.79998779297</ele>
        <time>2021-12-31T13:59:10.000Z</time>
      </trkpt>
      <trkpt lat="45.62683" lon="6.29832">
        <ele>318.60000610352</ele>
        <time>2021-12-31T13:59:12.000Z</time>
      </trkpt>
      <trkpt lat="45.62687" lon="6.29831">
        <ele>318.60000610352</ele>
        <time>2021-12-31T13:59:13.000Z</time>
      </trkpt>
      <trkpt lat="45.62697" lon="6.29826">
        <ele>318.60000610352</ele>
        <time>2021-12-31T13:59:15.000Z</time>
      </trkpt>
      <trkpt lat="45.62705" lon="6.29817">
        <ele>318.39999389648</ele>
        <time>2021-12-31T13:59:17.000Z</time>
      </trkpt>
      <trkpt lat="45.62723" lon="6.29782">
        <ele>318</ele>
        <time>2021-12-31T13:59:24.000Z</time>
      </trkpt>
      <trkpt lat="45.62732" lon="6.29759">
        <ele>318.39999389648</ele>
        <time>2021-12-31T13:59:29.000Z</time>
      </trkpt>
      <trkpt lat="45.62747" lon="6.29725">
        <ele>319.60000610352</ele>
        <time>2021-12-31T13:59:36.000Z</time>
      </trkpt>
      <trkpt lat="45.62754" lon="6.2971">
        <ele>319.79998779297</ele>
        <time>2021-12-31T13:59:39.000Z</time>
      </trkpt>
      <trkpt lat="45.62763" lon="6.29674">
        <ele>320.79998779297</ele>
        <time>2021-12-31T13:59:46.000Z</time>
      </trkpt>
      <trkpt lat="45.62762" lon="6.29627">
        <ele>321.39999389648</ele>
        <time>2021-12-31T13:59:54.000Z</time>
      </trkpt>
      <trkpt lat="45.62764" lon="6.2959">
        <ele>321.79998779297</ele>
        <time>2021-12-31T14:00:01.000Z</time>
      </trkpt>
      <trkpt lat="45.62767" lon="6.29566">
        <ele>323</ele>
        <time>2021-12-31T14:00:06.000Z</time>
      </trkpt>
      <trkpt lat="45.62767" lon="6.29566">
        <ele>323.20001220703</ele>
        <time>2021-12-31T14:00:07.000Z</time>
      </trkpt>
      <trkpt lat="45.62762" lon="6.29559">
        <ele>323.60000610352</ele>
        <time>2021-12-31T14:00:08.000Z</time>
      </trkpt>
      <trkpt lat="45.62755" lon="6.29552">
        <ele>323.79998779297</ele>
        <time>2021-12-31T14:00:10.000Z</time>
      </trkpt>
      <trkpt lat="45.62753" lon="6.29549">
        <ele>324</ele>
        <time>2021-12-31T14:00:11.000Z</time>
      </trkpt>
      <trkpt lat="45.62738" lon="6.29526">
        <ele>324.79998779297</ele>
        <time>2021-12-31T14:00:17.000Z</time>
      </trkpt>
      <trkpt lat="45.62729" lon="6.29508">
        <ele>325.20001220703</ele>
        <time>2021-12-31T14:00:21.000Z</time>
      </trkpt>
      <trkpt lat="45.62719" lon="6.2949">
        <ele>325.60000610352</ele>
        <time>2021-12-31T14:00:25.000Z</time>
      </trkpt>
      <trkpt lat="45.62704" lon="6.29457">
        <ele>326.39999389648</ele>
        <time>2021-12-31T14:00:32.000Z</time>
      </trkpt>
      <trkpt lat="45.62701" lon="6.29451">
        <ele>326.60000610352</ele>
        <time>2021-12-31T14:00:33.000Z</time>
      </trkpt>
      <trkpt lat="45.62688" lon="6.29423">
        <ele>327.39999389648</ele>
        <time>2021-12-31T14:00:39.000Z</time>
      </trkpt>
      <trkpt lat="45.62681" lon="6.29409">
        <ele>327.79998779297</ele>
        <time>2021-12-31T14:00:42.000Z</time>
      </trkpt>
      <trkpt lat="45.6267" lon="6.29384">
        <ele>328.39999389648</ele>
        <time>2021-12-31T14:00:47.000Z</time>
      </trkpt>
      <trkpt lat="45.62665" lon="6.29372">
        <ele>329.20001220703</ele>
        <time>2021-12-31T14:00:50.000Z</time>
      </trkpt>
      <trkpt lat="45.62658" lon="6.29354">
        <ele>329.60000610352</ele>
        <time>2021-12-31T14:00:54.000Z</time>
      </trkpt>
      <trkpt lat="45.62649" lon="6.29338">
        <ele>330.60000610352</ele>
        <time>2021-12-31T14:00:58.000Z</time>
      </trkpt>
      <trkpt lat="45.62646" lon="6.29333">
        <ele>330.79998779297</ele>
        <time>2021-12-31T14:00:59.000Z</time>
      </trkpt>
      <trkpt lat="45.62642" lon="6.29327">
        <ele>331</ele>
        <time>2021-12-31T14:01:01.000Z</time>
      </trkpt>
      <trkpt lat="45.62632" lon="6.29315">
        <ele>332</ele>
        <time>2021-12-31T14:01:06.000Z</time>
      </trkpt>
      <trkpt lat="45.62627" lon="6.29308">
        <ele>332.20001220703</ele>
        <time>2021-12-31T14:01:07.000Z</time>
      </trkpt>
      <trkpt lat="45.62614" lon="6.29287">
        <ele>333</ele>
        <time>2021-12-31T14:01:13.000Z</time>
      </trkpt>
      <trkpt lat="45.62608" lon="6.29275">
        <ele>333.60000610352</ele>
        <time>2021-12-31T14:01:16.000Z</time>
      </trkpt>
      <trkpt lat="45.626" lon="6.29259">
        <ele>334.20001220703</ele>
        <time>2021-12-31T14:01:21.000Z</time>
      </trkpt>
      <trkpt lat="45.62592" lon="6.29237">
        <ele>335</ele>
        <time>2021-12-31T14:01:26.000Z</time>
      </trkpt>
      <trkpt lat="45.62589" lon="6.29227">
        <ele>335.20001220703</ele>
        <time>2021-12-31T14:01:27.000Z</time>
      </trkpt>
      <trkpt lat="45.62582" lon="6.29208">
        <ele>336.20001220703</ele>
        <time>2021-12-31T14:01:32.000Z</time>
      </trkpt>
      <trkpt lat="45.62577" lon="6.29197">
        <ele>336.79998779297</ele>
        <time>2021-12-31T14:01:35.000Z</time>
      </trkpt>
      <trkpt lat="45.62569" lon="6.29182">
        <ele>337.20001220703</ele>
        <time>2021-12-31T14:01:39.000Z</time>
      </trkpt>
      <trkpt lat="45.62561" lon="6.29167">
        <ele>338.39999389648</ele>
        <time>2021-12-31T14:01:43.000Z</time>
      </trkpt>
      <trkpt lat="45.62553" lon="6.29157">
        <ele>339.39999389648</ele>
        <time>2021-12-31T14:01:46.000Z</time>
      </trkpt>
      <trkpt lat="45.6255" lon="6.29154">
        <ele>339.39999389648</ele>
        <time>2021-12-31T14:01:47.000Z</time>
      </trkpt>
      <trkpt lat="45.62532" lon="6.29124">
        <ele>340.39999389648</ele>
        <time>2021-12-31T14:01:55.000Z</time>
      </trkpt>
      <trkpt lat="45.62522" lon="6.29106">
        <ele>341.39999389648</ele>
        <time>2021-12-31T14:02:00.000Z</time>
      </trkpt>
      <trkpt lat="45.6252" lon="6.29102">
        <ele>341.60000610352</ele>
        <time>2021-12-31T14:02:01.000Z</time>
      </trkpt>
      <trkpt lat="45.62518" lon="6.29099">
        <ele>342</ele>
        <time>2021-12-31T14:02:02.000Z</time>
      </trkpt>
      <trkpt lat="45.62511" lon="6.29088">
        <ele>343</ele>
        <time>2021-12-31T14:02:05.000Z</time>
      </trkpt>
      <trkpt lat="45.625" lon="6.2907">
        <ele>343.79998779297</ele>
        <time>2021-12-31T14:02:10.000Z</time>
      </trkpt>
      <trkpt lat="45.62496" lon="6.29064">
        <ele>344</ele>
        <time>2021-12-31T14:02:12.000Z</time>
      </trkpt>
      <trkpt lat="45.62481" lon="6.2904">
        <ele>345.20001220703</ele>
        <time>2021-12-31T14:02:19.000Z</time>
      </trkpt>
      <trkpt lat="45.62474" lon="6.29027">
        <ele>346.20001220703</ele>
        <time>2021-12-31T14:02:23.000Z</time>
      </trkpt>
      <trkpt lat="45.62469" lon="6.29018">
        <ele>346.79998779297</ele>
        <time>2021-12-31T14:02:27.000Z</time>
      </trkpt>
      <trkpt lat="45.62462" lon="6.29007">
        <ele>347.39999389648</ele>
        <time>2021-12-31T14:02:29.000Z</time>
      </trkpt>
      <trkpt lat="45.62452" lon="6.28992">
        <ele>347.60000610352</ele>
        <time>2021-12-31T14:02:33.000Z</time>
      </trkpt>
      <trkpt lat="45.62426" lon="6.28963">
        <ele>348.20001220703</ele>
        <time>2021-12-31T14:02:42.000Z</time>
      </trkpt>
      <trkpt lat="45.62412" lon="6.28945">
        <ele>348.60000610352</ele>
        <time>2021-12-31T14:02:48.000Z</time>
      </trkpt>
      <trkpt lat="45.62395" lon="6.28928">
        <ele>349</ele>
        <time>2021-12-31T14:02:53.000Z</time>
      </trkpt>
      <trkpt lat="45.62389" lon="6.28923">
        <ele>349.20001220703</ele>
        <time>2021-12-31T14:02:55.000Z</time>
      </trkpt>
      <trkpt lat="45.62382" lon="6.28911">
        <ele>349.39999389648</ele>
        <time>2021-12-31T14:02:59.000Z</time>
      </trkpt>
      <trkpt lat="45.62369" lon="6.28867">
        <ele>349.79998779297</ele>
        <time>2021-12-31T14:03:07.000Z</time>
      </trkpt>
      <trkpt lat="45.62362" lon="6.2885">
        <ele>350.39999389648</ele>
        <time>2021-12-31T14:03:11.000Z</time>
      </trkpt>
      <trkpt lat="45.62354" lon="6.28838">
        <ele>351</ele>
        <time>2021-12-31T14:03:14.000Z</time>
      </trkpt>
      <trkpt lat="45.62341" lon="6.28821">
        <ele>351.39999389648</ele>
        <time>2021-12-31T14:03:18.000Z</time>
      </trkpt>
      <trkpt lat="45.62332" lon="6.28811">
        <ele>351.60000610352</ele>
        <time>2021-12-31T14:03:21.000Z</time>
      </trkpt>
      <trkpt lat="45.62311" lon="6.28782">
        <ele>352</ele>
        <time>2021-12-31T14:03:28.000Z</time>
      </trkpt>
      <trkpt lat="45.62294" lon="6.2876">
        <ele>352.20001220703</ele>
        <time>2021-12-31T14:03:35.000Z</time>
      </trkpt>
      <trkpt lat="45.62291" lon="6.28757">
        <ele>352.20001220703</ele>
        <time>2021-12-31T14:03:39.000Z</time>
      </trkpt>
      <trkpt lat="45.62291" lon="6.28757">
        <ele>351.60000610352</ele>
        <time>2021-12-31T14:03:53.000Z</time>
      </trkpt>
      <trkpt lat="45.62289" lon="6.28756">
        <ele>351.39999389648</ele>
        <time>2021-12-31T14:04:12.000Z</time>
      </trkpt>
      <trkpt lat="45.62287" lon="6.28754">
        <ele>351.39999389648</ele>
        <time>2021-12-31T14:04:13.000Z</time>
      </trkpt>
      <trkpt lat="45.62274" lon="6.28739">
        <ele>351.39999389648</ele>
        <time>2021-12-31T14:04:17.000Z</time>
      </trkpt>
      <trkpt lat="45.62249" lon="6.28708">
        <ele>351.20001220703</ele>
        <time>2021-12-31T14:04:23.000Z</time>
      </trkpt>
      <trkpt lat="45.62218" lon="6.28668">
        <ele>350.60000610352</ele>
        <time>2021-12-31T14:04:30.000Z</time>
      </trkpt>
      <trkpt lat="45.62197" lon="6.28641">
        <ele>350.39999389648</ele>
        <time>2021-12-31T14:04:35.000Z</time>
      </trkpt>
      <trkpt lat="45.62177" lon="6.28615">
        <ele>350.39999389648</ele>
        <time>2021-12-31T14:04:40.000Z</time>
      </trkpt>
      <trkpt lat="45.62164" lon="6.28599">
        <ele>350.39999389648</ele>
        <time>2021-12-31T14:04:43.000Z</time>
      </trkpt>
      <trkpt lat="45.62144" lon="6.28574">
        <ele>350.79998779297</ele>
        <time>2021-12-31T14:04:48.000Z</time>
      </trkpt>
      <trkpt lat="45.62103" lon="6.28521">
        <ele>351.39999389648</ele>
        <time>2021-12-31T14:04:59.000Z</time>
      </trkpt>
      <trkpt lat="45.621" lon="6.28516">
        <ele>351.60000610352</ele>
        <time>2021-12-31T14:05:00.000Z</time>
      </trkpt>
      <trkpt lat="45.62075" lon="6.28483">
        <ele>352.79998779297</ele>
        <time>2021-12-31T14:05:07.000Z</time>
      </trkpt>
      <trkpt lat="45.62046" lon="6.28446">
        <ele>353.79998779297</ele>
        <time>2021-12-31T14:05:15.000Z</time>
      </trkpt>
      <trkpt lat="45.62035" lon="6.28432">
        <ele>354</ele>
        <time>2021-12-31T14:05:18.000Z</time>
      </trkpt>
      <trkpt lat="45.62009" lon="6.284">
        <ele>354.79998779297</ele>
        <time>2021-12-31T14:05:25.000Z</time>
      </trkpt>
      <trkpt lat="45.62002" lon="6.28391">
        <ele>355.20001220703</ele>
        <time>2021-12-31T14:05:27.000Z</time>
      </trkpt>
      <trkpt lat="45.61964" lon="6.28341">
        <ele>355.39999389648</ele>
        <time>2021-12-31T14:05:36.000Z</time>
      </trkpt>
      <trkpt lat="45.61939" lon="6.28311">
        <ele>355.60000610352</ele>
        <time>2021-12-31T14:05:43.000Z</time>
      </trkpt>
      <trkpt lat="45.61928" lon="6.28302">
        <ele>355.60000610352</ele>
        <time>2021-12-31T14:05:44.000Z</time>
      </trkpt>
      <trkpt lat="45.61919" lon="6.28294">
        <ele>355.79998779297</ele>
        <time>2021-12-31T14:05:46.000Z</time>
      </trkpt>
      <trkpt lat="45.61911" lon="6.2829">
        <ele>356</ele>
        <time>2021-12-31T14:05:48.000Z</time>
      </trkpt>
      <trkpt lat="45.61896" lon="6.28279">
        <ele>357</ele>
        <time>2021-12-31T14:05:53.000Z</time>
      </trkpt>
      <trkpt lat="45.61893" lon="6.28276">
        <ele>357.20001220703</ele>
        <time>2021-12-31T14:05:54.000Z</time>
      </trkpt>
      <trkpt lat="45.61877" lon="6.28266">
        <ele>358.20001220703</ele>
        <time>2021-12-31T14:05:59.000Z</time>
      </trkpt>
      <trkpt lat="45.61873" lon="6.28263">
        <ele>358.20001220703</ele>
        <time>2021-12-31T14:06:00.000Z</time>
      </trkpt>
      <trkpt lat="45.61847" lon="6.28242">
        <ele>359.20001220703</ele>
        <time>2021-12-31T14:06:07.000Z</time>
      </trkpt>
      <trkpt lat="45.61822" lon="6.28225">
        <ele>360</ele>
        <time>2021-12-31T14:06:14.000Z</time>
      </trkpt>
      <trkpt lat="45.61818" lon="6.28222">
        <ele>360.20001220703</ele>
        <time>2021-12-31T14:06:15.000Z</time>
      </trkpt>
      <trkpt lat="45.61797" lon="6.28206">
        <ele>361.20001220703</ele>
        <time>2021-12-31T14:06:21.000Z</time>
      </trkpt>
      <trkpt lat="45.61793" lon="6.28204">
        <ele>361.20001220703</ele>
        <time>2021-12-31T14:06:22.000Z</time>
      </trkpt>
      <trkpt lat="45.61774" lon="6.2819">
        <ele>362.39999389648</ele>
        <time>2021-12-31T14:06:28.000Z</time>
      </trkpt>
      <trkpt lat="45.61753" lon="6.28175">
        <ele>363.60000610352</ele>
        <time>2021-12-31T14:06:34.000Z</time>
      </trkpt>
      <trkpt lat="45.6175" lon="6.28173">
        <ele>363.60000610352</ele>
        <time>2021-12-31T14:06:35.000Z</time>
      </trkpt>
      <trkpt lat="45.61727" lon="6.28157">
        <ele>364.60000610352</ele>
        <time>2021-12-31T14:06:42.000Z</time>
      </trkpt>
      <trkpt lat="45.61704" lon="6.28143">
        <ele>365.79998779297</ele>
        <time>2021-12-31T14:06:49.000Z</time>
      </trkpt>
      <trkpt lat="45.61698" lon="6.2814">
        <ele>366.20001220703</ele>
        <time>2021-12-31T14:06:51.000Z</time>
      </trkpt>
      <trkpt lat="45.61696" lon="6.28137">
        <ele>366.39999389648</ele>
        <time>2021-12-31T14:06:52.000Z</time>
      </trkpt>
      <trkpt lat="45.6169" lon="6.28131">
        <ele>366.60000610352</ele>
        <time>2021-12-31T14:06:54.000Z</time>
      </trkpt>
      <trkpt lat="45.6168" lon="6.28124">
        <ele>366.60000610352</ele>
        <time>2021-12-31T14:06:57.000Z</time>
      </trkpt>
      <trkpt lat="45.61671" lon="6.28116">
        <ele>367</ele>
        <time>2021-12-31T14:07:00.000Z</time>
      </trkpt>
      <trkpt lat="45.61648" lon="6.28105">
        <ele>367.39999389648</ele>
        <time>2021-12-31T14:07:06.000Z</time>
      </trkpt>
      <trkpt lat="45.61641" lon="6.281">
        <ele>367.60000610352</ele>
        <time>2021-12-31T14:07:08.000Z</time>
      </trkpt>
      <trkpt lat="45.6162" lon="6.28089">
        <ele>368.79998779297</ele>
        <time>2021-12-31T14:07:14.000Z</time>
      </trkpt>
      <trkpt lat="45.61594" lon="6.28072">
        <ele>369.79998779297</ele>
        <time>2021-12-31T14:07:21.000Z</time>
      </trkpt>
      <trkpt lat="45.61591" lon="6.28071">
        <ele>370</ele>
        <time>2021-12-31T14:07:22.000Z</time>
      </trkpt>
      <trkpt lat="45.61566" lon="6.28058">
        <ele>371</ele>
        <time>2021-12-31T14:07:29.000Z</time>
      </trkpt>
      <trkpt lat="45.61557" lon="6.28053">
        <ele>371.79998779297</ele>
        <time>2021-12-31T14:07:32.000Z</time>
      </trkpt>
      <trkpt lat="45.6155" lon="6.28051">
        <ele>372</ele>
        <time>2021-12-31T14:07:34.000Z</time>
      </trkpt>
      <trkpt lat="45.61532" lon="6.28052">
        <ele>373</ele>
        <time>2021-12-31T14:07:39.000Z</time>
      </trkpt>
      <trkpt lat="45.61528" lon="6.28053">
        <ele>373.20001220703</ele>
        <time>2021-12-31T14:07:40.000Z</time>
      </trkpt>
      <trkpt lat="45.6151" lon="6.28058">
        <ele>374.20001220703</ele>
        <time>2021-12-31T14:07:45.000Z</time>
      </trkpt>
      <trkpt lat="45.61503" lon="6.28061">
        <ele>374.39999389648</ele>
        <time>2021-12-31T14:07:47.000Z</time>
      </trkpt>
      <trkpt lat="45.61489" lon="6.28067">
        <ele>375.20001220703</ele>
        <time>2021-12-31T14:07:51.000Z</time>
      </trkpt>
      <trkpt lat="45.61474" lon="6.28073">
        <ele>376</ele>
        <time>2021-12-31T14:07:56.000Z</time>
      </trkpt>
      <trkpt lat="45.61468" lon="6.28075">
        <ele>376.39999389648</ele>
        <time>2021-12-31T14:07:58.000Z</time>
      </trkpt>
      <trkpt lat="45.61451" lon="6.28076">
        <ele>377.20001220703</ele>
        <time>2021-12-31T14:08:03.000Z</time>
      </trkpt>
      <trkpt lat="45.61444" lon="6.28074">
        <ele>377.60000610352</ele>
        <time>2021-12-31T14:08:05.000Z</time>
      </trkpt>
      <trkpt lat="45.61437" lon="6.28072">
        <ele>378.20001220703</ele>
        <time>2021-12-31T14:08:07.000Z</time>
      </trkpt>
      <trkpt lat="45.61425" lon="6.28067">
        <ele>378.60000610352</ele>
        <time>2021-12-31T14:08:10.000Z</time>
      </trkpt>
      <trkpt lat="45.614" lon="6.28054">
        <ele>379.79998779297</ele>
        <time>2021-12-31T14:08:17.000Z</time>
      </trkpt>
      <trkpt lat="45.6139" lon="6.28048">
        <ele>380.20001220703</ele>
        <time>2021-12-31T14:08:20.000Z</time>
      </trkpt>
      <trkpt lat="45.61374" lon="6.28034">
        <ele>381</ele>
        <time>2021-12-31T14:08:25.000Z</time>
      </trkpt>
      <trkpt lat="45.61369" lon="6.28029">
        <ele>381.20001220703</ele>
        <time>2021-12-31T14:08:27.000Z</time>
      </trkpt>
      <trkpt lat="45.6136" lon="6.28015">
        <ele>382</ele>
        <time>2021-12-31T14:08:31.000Z</time>
      </trkpt>
      <trkpt lat="45.61354" lon="6.28004">
        <ele>382.79998779297</ele>
        <time>2021-12-31T14:08:34.000Z</time>
      </trkpt>
      <trkpt lat="45.61352" lon="6.28">
        <ele>383.20001220703</ele>
        <time>2021-12-31T14:08:35.000Z</time>
      </trkpt>
      <trkpt lat="45.61341" lon="6.27982">
        <ele>384.20001220703</ele>
        <time>2021-12-31T14:08:40.000Z</time>
      </trkpt>
      <trkpt lat="45.61332" lon="6.27966">
        <ele>384.60000610352</ele>
        <time>2021-12-31T14:08:44.000Z</time>
      </trkpt>
      <trkpt lat="45.6132" lon="6.27928">
        <ele>385</ele>
        <time>2021-12-31T14:08:51.000Z</time>
      </trkpt>
      <trkpt lat="45.61318" lon="6.27896">
        <ele>385</ele>
        <time>2021-12-31T14:08:56.000Z</time>
      </trkpt>
      <trkpt lat="45.61318" lon="6.27868">
        <ele>385.20001220703</ele>
        <time>2021-12-31T14:09:00.000Z</time>
      </trkpt>
      <trkpt lat="45.61317" lon="6.27824">
        <ele>385.20001220703</ele>
        <time>2021-12-31T14:09:07.000Z</time>
      </trkpt>
      <trkpt lat="45.61316" lon="6.27811">
        <ele>385.20001220703</ele>
        <time>2021-12-31T14:09:09.000Z</time>
      </trkpt>
      <trkpt lat="45.61314" lon="6.27758">
        <ele>386.20001220703</ele>
        <time>2021-12-31T14:09:18.000Z</time>
      </trkpt>
      <trkpt lat="45.61313" lon="6.27745">
        <ele>386.39999389648</ele>
        <time>2021-12-31T14:09:20.000Z</time>
      </trkpt>
      <trkpt lat="45.6131" lon="6.27692">
        <ele>387.20001220703</ele>
        <time>2021-12-31T14:09:29.000Z</time>
      </trkpt>
      <trkpt lat="45.6131" lon="6.27687">
        <ele>387.39999389648</ele>
        <time>2021-12-31T14:09:30.000Z</time>
      </trkpt>
      <trkpt lat="45.61309" lon="6.27652">
        <ele>388.60000610352</ele>
        <time>2021-12-31T14:09:36.000Z</time>
      </trkpt>
      <trkpt lat="45.61309" lon="6.27646">
        <ele>388.79998779297</ele>
        <time>2021-12-31T14:09:37.000Z</time>
      </trkpt>
      <trkpt lat="45.61308" lon="6.27617">
        <ele>389.60000610352</ele>
        <time>2021-12-31T14:09:42.000Z</time>
      </trkpt>
      <trkpt lat="45.61305" lon="6.27587">
        <ele>390</ele>
        <time>2021-12-31T14:09:47.000Z</time>
      </trkpt>
      <trkpt lat="45.61297" lon="6.27548">
        <ele>390.39999389648</ele>
        <time>2021-12-31T14:09:53.000Z</time>
      </trkpt>
      <trkpt lat="45.61295" lon="6.27543">
        <ele>390.39999389648</ele>
        <time>2021-12-31T14:09:54.000Z</time>
      </trkpt>
      <trkpt lat="45.61271" lon="6.27509">
        <ele>390</ele>
        <time>2021-12-31T14:10:00.000Z</time>
      </trkpt>
      <trkpt lat="45.61233" lon="6.27472">
        <ele>389.79998779297</ele>
        <time>2021-12-31T14:10:09.000Z</time>
      </trkpt>
      <trkpt lat="45.61206" lon="6.27449">
        <ele>390</ele>
        <time>2021-12-31T14:10:16.000Z</time>
      </trkpt>
      <trkpt lat="45.61202" lon="6.27445">
        <ele>390</ele>
        <time>2021-12-31T14:10:17.000Z</time>
      </trkpt>
      <trkpt lat="45.61186" lon="6.27426">
        <ele>390.39999389648</ele>
        <time>2021-12-31T14:10:22.000Z</time>
      </trkpt>
      <trkpt lat="45.61174" lon="6.27411">
        <ele>390.79998779297</ele>
        <time>2021-12-31T14:10:26.000Z</time>
      </trkpt>
      <trkpt lat="45.6116" lon="6.27388">
        <ele>391.60000610352</ele>
        <time>2021-12-31T14:10:32.000Z</time>
      </trkpt>
      <trkpt lat="45.61157" lon="6.27384">
        <ele>391.79998779297</ele>
        <time>2021-12-31T14:10:33.000Z</time>
      </trkpt>
      <trkpt lat="45.61143" lon="6.27366">
        <ele>392.79998779297</ele>
        <time>2021-12-31T14:10:38.000Z</time>
      </trkpt>
      <trkpt lat="45.61132" lon="6.27352">
        <ele>393.79998779297</ele>
        <time>2021-12-31T14:10:42.000Z</time>
      </trkpt>
      <trkpt lat="45.6113" lon="6.27348">
        <ele>393.79998779297</ele>
        <time>2021-12-31T14:10:43.000Z</time>
      </trkpt>
      <trkpt lat="45.61115" lon="6.27317">
        <ele>394.60000610352</ele>
        <time>2021-12-31T14:10:50.000Z</time>
      </trkpt>
      <trkpt lat="45.61111" lon="6.27306">
        <ele>394.79998779297</ele>
        <time>2021-12-31T14:10:52.000Z</time>
      </trkpt>
      <trkpt lat="45.61096" lon="6.27265">
        <ele>395.79998779297</ele>
        <time>2021-12-31T14:11:00.000Z</time>
      </trkpt>
      <trkpt lat="45.61092" lon="6.27254">
        <ele>396</ele>
        <time>2021-12-31T14:11:02.000Z</time>
      </trkpt>
      <trkpt lat="45.61078" lon="6.27213">
        <ele>396.60000610352</ele>
        <time>2021-12-31T14:11:10.000Z</time>
      </trkpt>
      <trkpt lat="45.61071" lon="6.27193">
        <ele>397</ele>
        <time>2021-12-31T14:11:14.000Z</time>
      </trkpt>
      <trkpt lat="45.61066" lon="6.27178">
        <ele>397.39999389648</ele>
        <time>2021-12-31T14:11:17.000Z</time>
      </trkpt>
      <trkpt lat="45.61059" lon="6.27157">
        <ele>398.20001220703</ele>
        <time>2021-12-31T14:11:21.000Z</time>
      </trkpt>
      <trkpt lat="45.61053" lon="6.27144">
        <ele>398.39999389648</ele>
        <time>2021-12-31T14:11:24.000Z</time>
      </trkpt>
      <trkpt lat="45.61045" lon="6.27114">
        <ele>399.60000610352</ele>
        <time>2021-12-31T14:11:30.000Z</time>
      </trkpt>
      <trkpt lat="45.61043" lon="6.27109">
        <ele>399.79998779297</ele>
        <time>2021-12-31T14:11:31.000Z</time>
      </trkpt>
      <trkpt lat="45.61038" lon="6.27091">
        <ele>400.60000610352</ele>
        <time>2021-12-31T14:11:35.000Z</time>
      </trkpt>
      <trkpt lat="45.6103" lon="6.27067">
        <ele>401.60000610352</ele>
        <time>2021-12-31T14:11:40.000Z</time>
      </trkpt>
      <trkpt lat="45.61027" lon="6.27062">
        <ele>401.79998779297</ele>
        <time>2021-12-31T14:11:41.000Z</time>
      </trkpt>
      <trkpt lat="45.6101" lon="6.27024">
        <ele>402.39999389648</ele>
        <time>2021-12-31T14:11:48.000Z</time>
      </trkpt>
      <trkpt lat="45.60983" lon="6.26963">
        <ele>402</ele>
        <time>2021-12-31T14:11:59.000Z</time>
      </trkpt>
      <trkpt lat="45.60968" lon="6.26916">
        <ele>402.20001220703</ele>
        <time>2021-12-31T14:12:07.000Z</time>
      </trkpt>
      <trkpt lat="45.60954" lon="6.26877">
        <ele>402.79998779297</ele>
        <time>2021-12-31T14:12:14.000Z</time>
      </trkpt>
      <trkpt lat="45.60948" lon="6.26861">
        <ele>403</ele>
        <time>2021-12-31T14:12:17.000Z</time>
      </trkpt>
      <trkpt lat="45.60932" lon="6.26828">
        <ele>404</ele>
        <time>2021-12-31T14:12:24.000Z</time>
      </trkpt>
      <trkpt lat="45.60928" lon="6.26819">
        <ele>404.20001220703</ele>
        <time>2021-12-31T14:12:27.000Z</time>
      </trkpt>
      <trkpt lat="45.60916" lon="6.26797">
        <ele>405</ele>
        <time>2021-12-31T14:12:31.000Z</time>
      </trkpt>
      <trkpt lat="45.60902" lon="6.2677">
        <ele>406</ele>
        <time>2021-12-31T14:12:37.000Z</time>
      </trkpt>
      <trkpt lat="45.60894" lon="6.26757">
        <ele>407</ele>
        <time>2021-12-31T14:12:40.000Z</time>
      </trkpt>
      <trkpt lat="45.60879" lon="6.2673">
        <ele>408</ele>
        <time>2021-12-31T14:12:46.000Z</time>
      </trkpt>
      <trkpt lat="45.60877" lon="6.26725">
        <ele>408.20001220703</ele>
        <time>2021-12-31T14:12:47.000Z</time>
      </trkpt>
      <trkpt lat="45.60865" lon="6.26702">
        <ele>409.20001220703</ele>
        <time>2021-12-31T14:12:52.000Z</time>
      </trkpt>
      <trkpt lat="45.60862" lon="6.26698">
        <ele>409.39999389648</ele>
        <time>2021-12-31T14:12:53.000Z</time>
      </trkpt>
      <trkpt lat="45.60847" lon="6.26665">
        <ele>410.20001220703</ele>
        <time>2021-12-31T14:13:00.000Z</time>
      </trkpt>
      <trkpt lat="45.60843" lon="6.26655">
        <ele>410.60000610352</ele>
        <time>2021-12-31T14:13:02.000Z</time>
      </trkpt>
      <trkpt lat="45.60835" lon="6.26635">
        <ele>411.39999389648</ele>
        <time>2021-12-31T14:13:06.000Z</time>
      </trkpt>
      <trkpt lat="45.60826" lon="6.26611">
        <ele>412.20001220703</ele>
        <time>2021-12-31T14:13:11.000Z</time>
      </trkpt>
      <trkpt lat="45.60824" lon="6.26606">
        <ele>412.39999389648</ele>
        <time>2021-12-31T14:13:12.000Z</time>
      </trkpt>
      <trkpt lat="45.60811" lon="6.26575">
        <ele>413.39999389648</ele>
        <time>2021-12-31T14:13:19.000Z</time>
      </trkpt>
      <trkpt lat="45.60808" lon="6.26571">
        <ele>413.60000610352</ele>
        <time>2021-12-31T14:13:20.000Z</time>
      </trkpt>
      <trkpt lat="45.60794" lon="6.2654">
        <ele>414.79998779297</ele>
        <time>2021-12-31T14:13:27.000Z</time>
      </trkpt>
      <trkpt lat="45.60792" lon="6.26537">
        <ele>414.79998779297</ele>
        <time>2021-12-31T14:13:28.000Z</time>
      </trkpt>
      <trkpt lat="45.60782" lon="6.26518">
        <ele>416</ele>
        <time>2021-12-31T14:13:33.000Z</time>
      </trkpt>
      <trkpt lat="45.60777" lon="6.26511">
        <ele>416.79998779297</ele>
        <time>2021-12-31T14:13:35.000Z</time>
      </trkpt>
      <trkpt lat="45.60772" lon="6.26504">
        <ele>417.20001220703</ele>
        <time>2021-12-31T14:13:37.000Z</time>
      </trkpt>
      <trkpt lat="45.6076" lon="6.26484">
        <ele>418.39999389648</ele>
        <time>2021-12-31T14:13:42.000Z</time>
      </trkpt>
      <trkpt lat="45.60757" lon="6.26475">
        <ele>418.79998779297</ele>
        <time>2021-12-31T14:13:44.000Z</time>
      </trkpt>
      <trkpt lat="45.60759" lon="6.26466">
        <ele>419</ele>
        <time>2021-12-31T14:13:46.000Z</time>
      </trkpt>
      <trkpt lat="45.60762" lon="6.26462">
        <ele>419.20001220703</ele>
        <time>2021-12-31T14:13:47.000Z</time>
      </trkpt>
      <trkpt lat="45.60765" lon="6.26458">
        <ele>419.39999389648</ele>
        <time>2021-12-31T14:13:48.000Z</time>
      </trkpt>
      <trkpt lat="45.60787" lon="6.2644">
        <ele>419.79998779297</ele>
        <time>2021-12-31T14:13:54.000Z</time>
      </trkpt>
      <trkpt lat="45.60799" lon="6.26431">
        <ele>419.79998779297</ele>
        <time>2021-12-31T14:13:57.000Z</time>
      </trkpt>
      <trkpt lat="45.60813" lon="6.26419">
        <ele>419.79998779297</ele>
        <time>2021-12-31T14:14:01.000Z</time>
      </trkpt>
      <trkpt lat="45.60821" lon="6.26416">
        <ele>420</ele>
        <time>2021-12-31T14:14:03.000Z</time>
      </trkpt>
      <trkpt lat="45.60828" lon="6.26418">
        <ele>420</ele>
        <time>2021-12-31T14:14:05.000Z</time>
      </trkpt>
      <trkpt lat="45.60838" lon="6.26426">
        <ele>420.20001220703</ele>
        <time>2021-12-31T14:14:09.000Z</time>
      </trkpt>
      <trkpt lat="45.60861" lon="6.26463">
        <ele>420.20001220703</ele>
        <time>2021-12-31T14:14:16.000Z</time>
      </trkpt>
      <trkpt lat="45.60879" lon="6.2649">
        <ele>419.79998779297</ele>
        <time>2021-12-31T14:14:21.000Z</time>
      </trkpt>
      <trkpt lat="45.60883" lon="6.26495">
        <ele>419.79998779297</ele>
        <time>2021-12-31T14:14:22.000Z</time>
      </trkpt>
      <trkpt lat="45.60914" lon="6.26532">
        <ele>419.39999389648</ele>
        <time>2021-12-31T14:14:29.000Z</time>
      </trkpt>
      <trkpt lat="45.60919" lon="6.26536">
        <ele>419.20001220703</ele>
        <time>2021-12-31T14:14:30.000Z</time>
      </trkpt>
      <trkpt lat="45.60924" lon="6.26538">
        <ele>419.20001220703</ele>
        <time>2021-12-31T14:14:31.000Z</time>
      </trkpt>
      <trkpt lat="45.60935" lon="6.26541">
        <ele>419.20001220703</ele>
        <time>2021-12-31T14:14:33.000Z</time>
      </trkpt>
      <trkpt lat="45.60945" lon="6.26542">
        <ele>418.79998779297</ele>
        <time>2021-12-31T14:14:35.000Z</time>
      </trkpt>
      <trkpt lat="45.60978" lon="6.26544">
        <ele>419</ele>
        <time>2021-12-31T14:14:42.000Z</time>
      </trkpt>
      <trkpt lat="45.60996" lon="6.26547">
        <ele>419.20001220703</ele>
        <time>2021-12-31T14:14:46.000Z</time>
      </trkpt>
      <trkpt lat="45.61013" lon="6.26553">
        <ele>419.60000610352</ele>
        <time>2021-12-31T14:14:50.000Z</time>
      </trkpt>
      <trkpt lat="45.61017" lon="6.26555">
        <ele>419.60000610352</ele>
        <time>2021-12-31T14:14:51.000Z</time>
      </trkpt>
      <trkpt lat="45.61038" lon="6.26569">
        <ele>419.79998779297</ele>
        <time>2021-12-31T14:14:56.000Z</time>
      </trkpt>
      <trkpt lat="45.61043" lon="6.26573">
        <ele>419.79998779297</ele>
        <time>2021-12-31T14:14:57.000Z</time>
      </trkpt>
      <trkpt lat="45.61062" lon="6.26596">
        <ele>419.39999389648</ele>
        <time>2021-12-31T14:15:01.000Z</time>
      </trkpt>
      <trkpt lat="45.61068" lon="6.26601">
        <ele>419.20001220703</ele>
        <time>2021-12-31T14:15:02.000Z</time>
      </trkpt>
      <trkpt lat="45.61076" lon="6.26607">
        <ele>419</ele>
        <time>2021-12-31T14:15:03.000Z</time>
      </trkpt>
      <trkpt lat="45.61096" lon="6.26615">
        <ele>418</ele>
        <time>2021-12-31T14:15:06.000Z</time>
      </trkpt>
      <trkpt lat="45.61101" lon="6.26619">
        <ele>417.60000610352</ele>
        <time>2021-12-31T14:15:07.000Z</time>
      </trkpt>
      <trkpt lat="45.61113" lon="6.26626">
        <ele>416.79998779297</ele>
        <time>2021-12-31T14:15:09.000Z</time>
      </trkpt>
      <trkpt lat="45.61119" lon="6.26629">
        <ele>416.39999389648</ele>
        <time>2021-12-31T14:15:10.000Z</time>
      </trkpt>
      <trkpt lat="45.6114" lon="6.26645">
        <ele>415.79998779297</ele>
        <time>2021-12-31T14:15:14.000Z</time>
      </trkpt>
      <trkpt lat="45.61144" lon="6.26651">
        <ele>415.60000610352</ele>
        <time>2021-12-31T14:15:15.000Z</time>
      </trkpt>
      <trkpt lat="45.61147" lon="6.26657">
        <ele>415.39999389648</ele>
        <time>2021-12-31T14:15:16.000Z</time>
      </trkpt>
      <trkpt lat="45.61155" lon="6.26678">
        <ele>415</ele>
        <time>2021-12-31T14:15:19.000Z</time>
      </trkpt>
      <trkpt lat="45.61159" lon="6.26693">
        <ele>414.60000610352</ele>
        <time>2021-12-31T14:15:21.000Z</time>
      </trkpt>
      <trkpt lat="45.61165" lon="6.26709">
        <ele>414</ele>
        <time>2021-12-31T14:15:23.000Z</time>
      </trkpt>
      <trkpt lat="45.61172" lon="6.2672">
        <ele>413.39999389648</ele>
        <time>2021-12-31T14:15:25.000Z</time>
      </trkpt>
      <trkpt lat="45.61179" lon="6.26729">
        <ele>413</ele>
        <time>2021-12-31T14:15:27.000Z</time>
      </trkpt>
      <trkpt lat="45.61187" lon="6.26737">
        <ele>413</ele>
        <time>2021-12-31T14:15:29.000Z</time>
      </trkpt>
      <trkpt lat="45.61209" lon="6.26755">
        <ele>413.39999389648</ele>
        <time>2021-12-31T14:15:35.000Z</time>
      </trkpt>
      <trkpt lat="45.61216" lon="6.26761">
        <ele>413.79998779297</ele>
        <time>2021-12-31T14:15:37.000Z</time>
      </trkpt>
      <trkpt lat="45.61224" lon="6.26776">
        <ele>414.20001220703</ele>
        <time>2021-12-31T14:15:40.000Z</time>
      </trkpt>
      <trkpt lat="45.61231" lon="6.26788">
        <ele>414.60000610352</ele>
        <time>2021-12-31T14:15:43.000Z</time>
      </trkpt>
      <trkpt lat="45.61234" lon="6.2679">
        <ele>414.79998779297</ele>
        <time>2021-12-31T14:15:44.000Z</time>
      </trkpt>
      <trkpt lat="45.61247" lon="6.26795">
        <ele>415.60000610352</ele>
        <time>2021-12-31T14:15:49.000Z</time>
      </trkpt>
      <trkpt lat="45.61259" lon="6.26801">
        <ele>416.79998779297</ele>
        <time>2021-12-31T14:15:54.000Z</time>
      </trkpt>
      <trkpt lat="45.61265" lon="6.26804">
        <ele>417.20001220703</ele>
        <time>2021-12-31T14:15:56.000Z</time>
      </trkpt>
      <trkpt lat="45.61268" lon="6.26809">
        <ele>417.79998779297</ele>
        <time>2021-12-31T14:15:58.000Z</time>
      </trkpt>
      <trkpt lat="45.61275" lon="6.26819">
        <ele>418.79998779297</ele>
        <time>2021-12-31T14:16:02.000Z</time>
      </trkpt>
      <trkpt lat="45.61277" lon="6.26821">
        <ele>419</ele>
        <time>2021-12-31T14:16:03.000Z</time>
      </trkpt>
      <trkpt lat="45.61285" lon="6.2683">
        <ele>419.79998779297</ele>
        <time>2021-12-31T14:16:07.000Z</time>
      </trkpt>
      <trkpt lat="45.61293" lon="6.26838">
        <ele>420.39999389648</ele>
        <time>2021-12-31T14:16:11.000Z</time>
      </trkpt>
      <trkpt lat="45.61296" lon="6.26842">
        <ele>421</ele>
        <time>2021-12-31T14:16:13.000Z</time>
      </trkpt>
      <trkpt lat="45.61301" lon="6.26848">
        <ele>421.60000610352</ele>
        <time>2021-12-31T14:16:16.000Z</time>
      </trkpt>
      <trkpt lat="45.61305" lon="6.26852">
        <ele>422</ele>
        <time>2021-12-31T14:16:18.000Z</time>
      </trkpt>
      <trkpt lat="45.61312" lon="6.2686">
        <ele>423.20001220703</ele>
        <time>2021-12-31T14:16:22.000Z</time>
      </trkpt>
      <trkpt lat="45.61322" lon="6.26871">
        <ele>424.20001220703</ele>
        <time>2021-12-31T14:16:27.000Z</time>
      </trkpt>
      <trkpt lat="45.61324" lon="6.26872">
        <ele>424.39999389648</ele>
        <time>2021-12-31T14:16:28.000Z</time>
      </trkpt>
      <trkpt lat="45.61331" lon="6.2688">
        <ele>425.20001220703</ele>
        <time>2021-12-31T14:16:32.000Z</time>
      </trkpt>
      <trkpt lat="45.61333" lon="6.26883">
        <ele>425.39999389648</ele>
        <time>2021-12-31T14:16:33.000Z</time>
      </trkpt>
      <trkpt lat="45.61343" lon="6.26895">
        <ele>426.39999389648</ele>
        <time>2021-12-31T14:16:39.000Z</time>
      </trkpt>
      <trkpt lat="45.61347" lon="6.26904">
        <ele>427.39999389648</ele>
        <time>2021-12-31T14:16:43.000Z</time>
      </trkpt>
      <trkpt lat="45.61348" lon="6.26905">
        <ele>427.60000610352</ele>
        <time>2021-12-31T14:16:44.000Z</time>
      </trkpt>
      <trkpt lat="45.61359" lon="6.2691">
        <ele>428.60000610352</ele>
        <time>2021-12-31T14:16:49.000Z</time>
      </trkpt>
      <trkpt lat="45.61361" lon="6.26913">
        <ele>429</ele>
        <time>2021-12-31T14:16:50.000Z</time>
      </trkpt>
      <trkpt lat="45.6137" lon="6.26923">
        <ele>429.79998779297</ele>
        <time>2021-12-31T14:16:54.000Z</time>
      </trkpt>
      <trkpt lat="45.61377" lon="6.26929">
        <ele>430</ele>
        <time>2021-12-31T14:16:56.000Z</time>
      </trkpt>
      <trkpt lat="45.61387" lon="6.26936">
        <ele>431</ele>
        <time>2021-12-31T14:17:01.000Z</time>
      </trkpt>
      <trkpt lat="45.61401" lon="6.26945">
        <ele>432.20001220703</ele>
        <time>2021-12-31T14:17:06.000Z</time>
      </trkpt>
      <trkpt lat="45.61406" lon="6.26949">
        <ele>432.39999389648</ele>
        <time>2021-12-31T14:17:08.000Z</time>
      </trkpt>
      <trkpt lat="45.61414" lon="6.26958">
        <ele>433.39999389648</ele>
        <time>2021-12-31T14:17:12.000Z</time>
      </trkpt>
      <trkpt lat="45.61423" lon="6.26971">
        <ele>434.39999389648</ele>
        <time>2021-12-31T14:17:18.000Z</time>
      </trkpt>
      <trkpt lat="45.61427" lon="6.26973">
        <ele>434.39999389648</ele>
        <time>2021-12-31T14:17:19.000Z</time>
      </trkpt>
      <trkpt lat="45.61439" lon="6.26977">
        <ele>435.39999389648</ele>
        <time>2021-12-31T14:17:23.000Z</time>
      </trkpt>
      <trkpt lat="45.61441" lon="6.2698">
        <ele>435.60000610352</ele>
        <time>2021-12-31T14:17:24.000Z</time>
      </trkpt>
      <trkpt lat="45.61453" lon="6.26989">
        <ele>436.39999389648</ele>
        <time>2021-12-31T14:17:29.000Z</time>
      </trkpt>
      <trkpt lat="45.61455" lon="6.26989">
        <ele>436.60000610352</ele>
        <time>2021-12-31T14:17:30.000Z</time>
      </trkpt>
      <trkpt lat="45.61465" lon="6.26993">
        <ele>437.39999389648</ele>
        <time>2021-12-31T14:17:34.000Z</time>
      </trkpt>
      <trkpt lat="45.61467" lon="6.26994">
        <ele>437.60000610352</ele>
        <time>2021-12-31T14:17:35.000Z</time>
      </trkpt>
      <trkpt lat="45.61478" lon="6.26998">
        <ele>438.79998779297</ele>
        <time>2021-12-31T14:17:40.000Z</time>
      </trkpt>
      <trkpt lat="45.61484" lon="6.27001">
        <ele>439.39999389648</ele>
        <time>2021-12-31T14:17:43.000Z</time>
      </trkpt>
      <trkpt lat="45.61487" lon="6.27004">
        <ele>439.79998779297</ele>
        <time>2021-12-31T14:17:45.000Z</time>
      </trkpt>
      <trkpt lat="45.61496" lon="6.27008">
        <ele>440.60000610352</ele>
        <time>2021-12-31T14:17:49.000Z</time>
      </trkpt>
      <trkpt lat="45.61498" lon="6.27009">
        <ele>440.79998779297</ele>
        <time>2021-12-31T14:17:50.000Z</time>
      </trkpt>
      <trkpt lat="45.615" lon="6.27012">
        <ele>440.79998779297</ele>
        <time>2021-12-31T14:17:51.000Z</time>
      </trkpt>
      <trkpt lat="45.61508" lon="6.27026">
        <ele>441.39999389648</ele>
        <time>2021-12-31T14:17:56.000Z</time>
      </trkpt>
      <trkpt lat="45.61512" lon="6.27035">
        <ele>441.79998779297</ele>
        <time>2021-12-31T14:17:59.000Z</time>
      </trkpt>
      <trkpt lat="45.61526" lon="6.27064">
        <ele>442.60000610352</ele>
        <time>2021-12-31T14:18:07.000Z</time>
      </trkpt>
      <trkpt lat="45.61529" lon="6.27071">
        <ele>442.79998779297</ele>
        <time>2021-12-31T14:18:09.000Z</time>
      </trkpt>
      <trkpt lat="45.61537" lon="6.27086">
        <ele>443.20001220703</ele>
        <time>2021-12-31T14:18:14.000Z</time>
      </trkpt>
      <trkpt lat="45.61551" lon="6.27098">
        <ele>444</ele>
        <time>2021-12-31T14:18:20.000Z</time>
      </trkpt>
      <trkpt lat="45.61556" lon="6.271">
        <ele>444.39999389648</ele>
        <time>2021-12-31T14:18:22.000Z</time>
      </trkpt>
      <trkpt lat="45.61563" lon="6.27101">
        <ele>444.79998779297</ele>
        <time>2021-12-31T14:18:25.000Z</time>
      </trkpt>
      <trkpt lat="45.61568" lon="6.27103">
        <ele>445.20001220703</ele>
        <time>2021-12-31T14:18:27.000Z</time>
      </trkpt>
      <trkpt lat="45.61573" lon="6.2711">
        <ele>445.79998779297</ele>
        <time>2021-12-31T14:18:30.000Z</time>
      </trkpt>
      <trkpt lat="45.61577" lon="6.27116">
        <ele>446.39999389648</ele>
        <time>2021-12-31T14:18:32.000Z</time>
      </trkpt>
      <trkpt lat="45.61587" lon="6.2713">
        <ele>447.60000610352</ele>
        <time>2021-12-31T14:18:37.000Z</time>
      </trkpt>
      <trkpt lat="45.61592" lon="6.27138">
        <ele>448</ele>
        <time>2021-12-31T14:18:41.000Z</time>
      </trkpt>
      <trkpt lat="45.61594" lon="6.27139">
        <ele>448</ele>
        <time>2021-12-31T14:18:42.000Z</time>
      </trkpt>
      <trkpt lat="45.61599" lon="6.27145">
        <ele>448.39999389648</ele>
        <time>2021-12-31T14:18:45.000Z</time>
      </trkpt>
      <trkpt lat="45.61604" lon="6.27155">
        <ele>449.20001220703</ele>
        <time>2021-12-31T14:18:48.000Z</time>
      </trkpt>
      <trkpt lat="45.61612" lon="6.27165">
        <ele>449.60000610352</ele>
        <time>2021-12-31T14:18:51.000Z</time>
      </trkpt>
      <trkpt lat="45.61618" lon="6.27175">
        <ele>450</ele>
        <time>2021-12-31T14:18:54.000Z</time>
      </trkpt>
      <trkpt lat="45.61627" lon="6.27186">
        <ele>450.60000610352</ele>
        <time>2021-12-31T14:18:58.000Z</time>
      </trkpt>
      <trkpt lat="45.61629" lon="6.27189">
        <ele>450.79998779297</ele>
        <time>2021-12-31T14:18:59.000Z</time>
      </trkpt>
      <trkpt lat="45.61638" lon="6.272">
        <ele>451.60000610352</ele>
        <time>2021-12-31T14:19:03.000Z</time>
      </trkpt>
      <trkpt lat="45.61647" lon="6.2721">
        <ele>452.39999389648</ele>
        <time>2021-12-31T14:19:07.000Z</time>
      </trkpt>
      <trkpt lat="45.61651" lon="6.27216">
        <ele>452.79998779297</ele>
        <time>2021-12-31T14:19:09.000Z</time>
      </trkpt>
      <trkpt lat="45.6166" lon="6.27227">
        <ele>453.79998779297</ele>
        <time>2021-12-31T14:19:13.000Z</time>
      </trkpt>
      <trkpt lat="45.61664" lon="6.27232">
        <ele>454.20001220703</ele>
        <time>2021-12-31T14:19:15.000Z</time>
      </trkpt>
      <trkpt lat="45.61671" lon="6.27238">
        <ele>455</ele>
        <time>2021-12-31T14:19:18.000Z</time>
      </trkpt>
      <trkpt lat="45.61681" lon="6.27251">
        <ele>456</ele>
        <time>2021-12-31T14:19:23.000Z</time>
      </trkpt>
      <trkpt lat="45.61694" lon="6.27264">
        <ele>457</ele>
        <time>2021-12-31T14:19:29.000Z</time>
      </trkpt>
      <trkpt lat="45.61698" lon="6.27269">
        <ele>457.39999389648</ele>
        <time>2021-12-31T14:19:31.000Z</time>
      </trkpt>
      <trkpt lat="45.61709" lon="6.27282">
        <ele>458.20001220703</ele>
        <time>2021-12-31T14:19:36.000Z</time>
      </trkpt>
      <trkpt lat="45.6172" lon="6.27292">
        <ele>458.60000610352</ele>
        <time>2021-12-31T14:19:41.000Z</time>
      </trkpt>
      <trkpt lat="45.61722" lon="6.27295">
        <ele>459</ele>
        <time>2021-12-31T14:19:42.000Z</time>
      </trkpt>
      <trkpt lat="45.61733" lon="6.27307">
        <ele>460</ele>
        <time>2021-12-31T14:19:47.000Z</time>
      </trkpt>
      <trkpt lat="45.61737" lon="6.27312">
        <ele>460.39999389648</ele>
        <time>2021-12-31T14:19:49.000Z</time>
      </trkpt>
      <trkpt lat="45.61744" lon="6.27319">
        <ele>461</ele>
        <time>2021-12-31T14:19:52.000Z</time>
      </trkpt>
      <trkpt lat="45.61754" lon="6.27332">
        <ele>462.20001220703</ele>
        <time>2021-12-31T14:19:57.000Z</time>
      </trkpt>
      <trkpt lat="45.61759" lon="6.27337">
        <ele>462.39999389648</ele>
        <time>2021-12-31T14:19:59.000Z</time>
      </trkpt>
      <trkpt lat="45.61769" lon="6.2735">
        <ele>463.20001220703</ele>
        <time>2021-12-31T14:20:04.000Z</time>
      </trkpt>
      <trkpt lat="45.61774" lon="6.27354">
        <ele>463.79998779297</ele>
        <time>2021-12-31T14:20:06.000Z</time>
      </trkpt>
      <trkpt lat="45.61778" lon="6.27359">
        <ele>464.20001220703</ele>
        <time>2021-12-31T14:20:08.000Z</time>
      </trkpt>
      <trkpt lat="45.61789" lon="6.27371">
        <ele>465.20001220703</ele>
        <time>2021-12-31T14:20:13.000Z</time>
      </trkpt>
      <trkpt lat="45.61791" lon="6.27373">
        <ele>465.39999389648</ele>
        <time>2021-12-31T14:20:14.000Z</time>
      </trkpt>
      <trkpt lat="45.61801" lon="6.27389">
        <ele>466.39999389648</ele>
        <time>2021-12-31T14:20:20.000Z</time>
      </trkpt>
      <trkpt lat="45.61806" lon="6.27408">
        <ele>466.60000610352</ele>
        <time>2021-12-31T14:20:24.000Z</time>
      </trkpt>
      <trkpt lat="45.61809" lon="6.27413">
        <ele>466.60000610352</ele>
        <time>2021-12-31T14:20:25.000Z</time>
      </trkpt>
      <trkpt lat="45.61815" lon="6.27425">
        <ele>466.60000610352</ele>
        <time>2021-12-31T14:20:27.000Z</time>
      </trkpt>
      <trkpt lat="45.61822" lon="6.27438">
        <ele>466.39999389648</ele>
        <time>2021-12-31T14:20:29.000Z</time>
      </trkpt>
      <trkpt lat="45.61826" lon="6.27444">
        <ele>466.20001220703</ele>
        <time>2021-12-31T14:20:30.000Z</time>
      </trkpt>
      <trkpt lat="45.61831" lon="6.2745">
        <ele>466</ele>
        <time>2021-12-31T14:20:31.000Z</time>
      </trkpt>
      <trkpt lat="45.61849" lon="6.27466">
        <ele>465</ele>
        <time>2021-12-31T14:20:34.000Z</time>
      </trkpt>
      <trkpt lat="45.61855" lon="6.27471">
        <ele>464.79998779297</ele>
        <time>2021-12-31T14:20:35.000Z</time>
      </trkpt>
      <trkpt lat="45.61871" lon="6.27487">
        <ele>463.20001220703</ele>
        <time>2021-12-31T14:20:38.000Z</time>
      </trkpt>
      <trkpt lat="45.61884" lon="6.27505">
        <ele>461.60000610352</ele>
        <time>2021-12-31T14:20:41.000Z</time>
      </trkpt>
      <trkpt lat="45.61885" lon="6.27518">
        <ele>460.39999389648</ele>
        <time>2021-12-31T14:20:43.000Z</time>
      </trkpt>
      <trkpt lat="45.61883" lon="6.27526">
        <ele>460</ele>
        <time>2021-12-31T14:20:44.000Z</time>
      </trkpt>
      <trkpt lat="45.6188" lon="6.27543">
        <ele>459</ele>
        <time>2021-12-31T14:20:46.000Z</time>
      </trkpt>
      <trkpt lat="45.61881" lon="6.27558">
        <ele>458.20001220703</ele>
        <time>2021-12-31T14:20:48.000Z</time>
      </trkpt>
      <trkpt lat="45.61883" lon="6.27565">
        <ele>457.60000610352</ele>
        <time>2021-12-31T14:20:49.000Z</time>
      </trkpt>
      <trkpt lat="45.61886" lon="6.2757">
        <ele>457.20001220703</ele>
        <time>2021-12-31T14:20:50.000Z</time>
      </trkpt>
      <trkpt lat="45.6189" lon="6.27577">
        <ele>456.39999389648</ele>
        <time>2021-12-31T14:20:51.000Z</time>
      </trkpt>
      <trkpt lat="45.61893" lon="6.2758">
        <ele>456</ele>
        <time>2021-12-31T14:20:52.000Z</time>
      </trkpt>
      <trkpt lat="45.619" lon="6.27589">
        <ele>455.20001220703</ele>
        <time>2021-12-31T14:20:54.000Z</time>
      </trkpt>
      <trkpt lat="45.61903" lon="6.27594">
        <ele>454.79998779297</ele>
        <time>2021-12-31T14:20:55.000Z</time>
      </trkpt>
      <trkpt lat="45.61907" lon="6.27599">
        <ele>454</ele>
        <time>2021-12-31T14:20:56.000Z</time>
      </trkpt>
      <trkpt lat="45.61917" lon="6.2761">
        <ele>452.60000610352</ele>
        <time>2021-12-31T14:20:58.000Z</time>
      </trkpt>
      <trkpt lat="45.61923" lon="6.27615">
        <ele>452.39999389648</ele>
        <time>2021-12-31T14:20:59.000Z</time>
      </trkpt>
      <trkpt lat="45.6193" lon="6.2762">
        <ele>451.60000610352</ele>
        <time>2021-12-31T14:21:00.000Z</time>
      </trkpt>
      <trkpt lat="45.61936" lon="6.27622">
        <ele>451.20001220703</ele>
        <time>2021-12-31T14:21:01.000Z</time>
      </trkpt>
      <trkpt lat="45.6195" lon="6.27624">
        <ele>450.20001220703</ele>
        <time>2021-12-31T14:21:03.000Z</time>
      </trkpt>
      <trkpt lat="45.61954" lon="6.27628">
        <ele>450</ele>
        <time>2021-12-31T14:21:04.000Z</time>
      </trkpt>
      <trkpt lat="45.61959" lon="6.27634">
        <ele>449.39999389648</ele>
        <time>2021-12-31T14:21:05.000Z</time>
      </trkpt>
      <trkpt lat="45.61963" lon="6.27642">
        <ele>448.79998779297</ele>
        <time>2021-12-31T14:21:06.000Z</time>
      </trkpt>
      <trkpt lat="45.61965" lon="6.27654">
        <ele>446.79998779297</ele>
        <time>2021-12-31T14:21:08.000Z</time>
      </trkpt>
      <trkpt lat="45.61962" lon="6.27659">
        <ele>446.60000610352</ele>
        <time>2021-12-31T14:21:09.000Z</time>
      </trkpt>
      <trkpt lat="45.61957" lon="6.27663">
        <ele>446</ele>
        <time>2021-12-31T14:21:10.000Z</time>
      </trkpt>
      <trkpt lat="45.61951" lon="6.27665">
        <ele>445.39999389648</ele>
        <time>2021-12-31T14:21:11.000Z</time>
      </trkpt>
      <trkpt lat="45.61945" lon="6.27664">
        <ele>444.60000610352</ele>
        <time>2021-12-31T14:21:12.000Z</time>
      </trkpt>
      <trkpt lat="45.61939" lon="6.27661">
        <ele>443.60000610352</ele>
        <time>2021-12-31T14:21:13.000Z</time>
      </trkpt>
      <trkpt lat="45.61934" lon="6.27658">
        <ele>443.20001220703</ele>
        <time>2021-12-31T14:21:14.000Z</time>
      </trkpt>
      <trkpt lat="45.61928" lon="6.27654">
        <ele>442</ele>
        <time>2021-12-31T14:21:15.000Z</time>
      </trkpt>
      <trkpt lat="45.61917" lon="6.27646">
        <ele>440.60000610352</ele>
        <time>2021-12-31T14:21:17.000Z</time>
      </trkpt>
      <trkpt lat="45.61911" lon="6.27642">
        <ele>440.20001220703</ele>
        <time>2021-12-31T14:21:18.000Z</time>
      </trkpt>
      <trkpt lat="45.61898" lon="6.2764">
        <ele>439.20001220703</ele>
        <time>2021-12-31T14:21:20.000Z</time>
      </trkpt>
      <trkpt lat="45.61893" lon="6.27642">
        <ele>438.60000610352</ele>
        <time>2021-12-31T14:21:21.000Z</time>
      </trkpt>
      <trkpt lat="45.61887" lon="6.27644">
        <ele>437.79998779297</ele>
        <time>2021-12-31T14:21:22.000Z</time>
      </trkpt>
      <trkpt lat="45.61876" lon="6.27649">
        <ele>436.60000610352</ele>
        <time>2021-12-31T14:21:24.000Z</time>
      </trkpt>
      <trkpt lat="45.6187" lon="6.27651">
        <ele>435.79998779297</ele>
        <time>2021-12-31T14:21:25.000Z</time>
      </trkpt>
      <trkpt lat="45.61866" lon="6.27654">
        <ele>435.60000610352</ele>
        <time>2021-12-31T14:21:26.000Z</time>
      </trkpt>
      <trkpt lat="45.61862" lon="6.27658">
        <ele>434.79998779297</ele>
        <time>2021-12-31T14:21:27.000Z</time>
      </trkpt>
      <trkpt lat="45.61858" lon="6.27662">
        <ele>434.20001220703</ele>
        <time>2021-12-31T14:21:28.000Z</time>
      </trkpt>
      <trkpt lat="45.61851" lon="6.2767">
        <ele>432.60000610352</ele>
        <time>2021-12-31T14:21:30.000Z</time>
      </trkpt>
      <trkpt lat="45.61847" lon="6.27676">
        <ele>431.60000610352</ele>
        <time>2021-12-31T14:21:32.000Z</time>
      </trkpt>
      <trkpt lat="45.61846" lon="6.27679">
        <ele>431.20001220703</ele>
        <time>2021-12-31T14:21:33.000Z</time>
      </trkpt>
      <trkpt lat="45.61846" lon="6.27681">
        <ele>430.20001220703</ele>
        <time>2021-12-31T14:21:34.000Z</time>
      </trkpt>
      <trkpt lat="45.61847" lon="6.27682">
        <ele>429.79998779297</ele>
        <time>2021-12-31T14:21:35.000Z</time>
      </trkpt>
      <trkpt lat="45.61848" lon="6.27682">
        <ele>429.39999389648</ele>
        <time>2021-12-31T14:21:36.000Z</time>
      </trkpt>
      <trkpt lat="45.61849" lon="6.27682">
        <ele>428.79998779297</ele>
        <time>2021-12-31T14:21:37.000Z</time>
      </trkpt>
      <trkpt lat="45.61859" lon="6.27684">
        <ele>427.79998779297</ele>
        <time>2021-12-31T14:21:41.000Z</time>
      </trkpt>
      <trkpt lat="45.61861" lon="6.27685">
        <ele>427.60000610352</ele>
        <time>2021-12-31T14:21:42.000Z</time>
      </trkpt>
      <trkpt lat="45.61863" lon="6.27688">
        <ele>427.20001220703</ele>
        <time>2021-12-31T14:21:44.000Z</time>
      </trkpt>
      <trkpt lat="45.61863" lon="6.27693">
        <ele>426.79998779297</ele>
        <time>2021-12-31T14:21:46.000Z</time>
      </trkpt>
      <trkpt lat="45.61862" lon="6.27695">
        <ele>426.60000610352</ele>
        <time>2021-12-31T14:21:47.000Z</time>
      </trkpt>
      <trkpt lat="45.6186" lon="6.27698">
        <ele>426</ele>
        <time>2021-12-31T14:21:51.000Z</time>
      </trkpt>
      <trkpt lat="45.6186" lon="6.27698">
        <ele>425.60000610352</ele>
        <time>2021-12-31T14:21:53.000Z</time>
      </trkpt>
      <trkpt lat="45.6186" lon="6.27698">
        <ele>425</ele>
        <time>2021-12-31T14:21:57.000Z</time>
      </trkpt>
    </trkseg>
  </trk>
</gpx>